<?xml version='1.0' encoding='UTF-8'?><gpx version="1.1" creator="JPX - https://github.com/jenetics/jpx" xmlns="http://www.topografix.com/GPX/1/1"><trk><trkseg><trkpt lat="43.6442459" lon="11.450062"><ele>127.0</ele><time>2026-03-29T09:09:23.876Z</time></trkpt><trkpt lat="43.6442329" lon="11.4497542"><ele>127.0</ele><time>2026-03-29T09:09:47.456Z</time></trkpt><trkpt lat="43.6443218" lon="11.4497603"><ele>127.0</ele><time>2026-03-29T09:14:45.141Z</time></trkpt><trkpt lat="43.6443853" lon="11.4497815"><ele>127.0</ele><time>2026-03-29T09:15:13.141Z</time></trkpt><trkpt lat="43.6443061" lon="11.4497629"><ele>127.0</ele><time>2026-03-29T09:16:13.141Z</time></trkpt><trkpt lat="43.6441753" lon="11.4497476"><ele>126.99999999999999</ele><time>2026-03-29T09:23:41.142Z</time></trkpt><trkpt lat="43.6440789" lon="11.4497546"><ele>126.99999999999999</ele><time>2026-03-29T09:23:42.142Z</time></trkpt><trkpt lat="43.6439962" lon="11.4497603"><ele>127.0</ele><time>2026-03-29T09:23:43.142Z</time></trkpt><trkpt lat="43.6439259" lon="11.449755"><ele>127.0</ele><time>2026-03-29T09:23:44.142Z</time></trkpt><trkpt lat="43.643846" lon="11.4497673"><ele>127.00000000000001</ele><time>2026-03-29T09:23:45.142Z</time></trkpt><trkpt lat="43.6437766" lon="11.4497806"><ele>127.0</ele><time>2026-03-29T09:23:46.142Z</time></trkpt><trkpt lat="43.6437204" lon="11.4498213"><ele>127.0</ele><time>2026-03-29T09:23:47.142Z</time></trkpt><trkpt lat="43.6437047" lon="11.4499083"><ele>127.0</ele><time>2026-03-29T09:23:48.142Z</time></trkpt><trkpt lat="43.6437032" lon="11.4499994"><ele>127.00000000000001</ele><time>2026-03-29T09:23:49.142Z</time></trkpt><trkpt lat="43.643573" lon="11.4500609"><ele>127.0</ele><time>2026-03-29T09:23:51.142Z</time></trkpt><trkpt lat="43.6434841" lon="11.4500554"><ele>126.8</ele><time>2026-03-29T09:23:52.142Z</time></trkpt><trkpt lat="43.6433833" lon="11.450062"><ele>126.6</ele><time>2026-03-29T09:23:54.142Z</time></trkpt><trkpt lat="43.6433361" lon="11.450207"><ele>126.39999999999999</ele><time>2026-03-29T09:23:56.142Z</time></trkpt><trkpt lat="43.6433427" lon="11.450317"><ele>126.19999999999999</ele><time>2026-03-29T09:23:57.142Z</time></trkpt><trkpt lat="43.6433451" lon="11.4504375"><ele>126.0</ele><time>2026-03-29T09:23:58.142Z</time></trkpt><trkpt lat="43.6433483" lon="11.45056"><ele>125.8</ele><time>2026-03-29T09:23:59.142Z</time></trkpt><trkpt lat="43.6433531" lon="11.4506962"><ele>125.6</ele><time>2026-03-29T09:24:00.142Z</time></trkpt><trkpt lat="43.6433581" lon="11.4508405"><ele>125.4</ele><time>2026-03-29T09:24:01.141Z</time></trkpt><trkpt lat="43.6433647" lon="11.4509868"><ele>125.2</ele><time>2026-03-29T09:24:02.142Z</time></trkpt><trkpt lat="43.643366" lon="11.451129"><ele>125.0</ele><time>2026-03-29T09:24:03.142Z</time></trkpt><trkpt lat="43.6433707" lon="11.4512698"><ele>124.83333333333333</ele><time>2026-03-29T09:24:04.142Z</time></trkpt><trkpt lat="43.6433765" lon="11.4513978"><ele>124.66666666666666</ele><time>2026-03-29T09:24:05.142Z</time></trkpt><trkpt lat="43.6433874" lon="11.4515139"><ele>124.5</ele><time>2026-03-29T09:24:06.142Z</time></trkpt><trkpt lat="43.6433871" lon="11.4516022"><ele>124.33333333333334</ele><time>2026-03-29T09:24:07.142Z</time></trkpt><trkpt lat="43.6433804" lon="11.4517154"><ele>124.16666666666667</ele><time>2026-03-29T09:24:09.142Z</time></trkpt><trkpt lat="43.6434777" lon="11.4517529"><ele>124.0</ele><time>2026-03-29T09:24:13.142Z</time></trkpt><trkpt lat="43.6435443" lon="11.4517197"><ele>124.00000000000001</ele><time>2026-03-29T09:24:14.142Z</time></trkpt><trkpt lat="43.6436213" lon="11.4516899"><ele>124.0</ele><time>2026-03-29T09:24:15.142Z</time></trkpt><trkpt lat="43.64371" lon="11.4516496"><ele>124.0</ele><time>2026-03-29T09:24:16.142Z</time></trkpt><trkpt lat="43.6437898" lon="11.4516149"><ele>124.0</ele><time>2026-03-29T09:24:17.142Z</time></trkpt><trkpt lat="43.6438757" lon="11.4515881"><ele>124.00000000000001</ele><time>2026-03-29T09:24:18.142Z</time></trkpt><trkpt lat="43.6439665" lon="11.4515668"><ele>124.0</ele><time>2026-03-29T09:24:19.142Z</time></trkpt><trkpt lat="43.6440566" lon="11.4515472"><ele>123.80000000000001</ele><time>2026-03-29T09:24:20.142Z</time></trkpt><trkpt lat="43.6441375" lon="11.4515338"><ele>123.60000000000001</ele><time>2026-03-29T09:24:21.141Z</time></trkpt><trkpt lat="43.6442099" lon="11.4515199"><ele>123.4</ele><time>2026-03-29T09:24:22.142Z</time></trkpt><trkpt lat="43.644278" lon="11.4515082"><ele>123.2</ele><time>2026-03-29T09:24:23.142Z</time></trkpt><trkpt lat="43.6443942" lon="11.4515173"><ele>123.0</ele><time>2026-03-29T09:24:25.142Z</time></trkpt><trkpt lat="43.6444601" lon="11.4516431"><ele>123.0</ele><time>2026-03-29T09:24:27.142Z</time></trkpt><trkpt lat="43.6444608" lon="11.4517334"><ele>123.0</ele><time>2026-03-29T09:24:30.142Z</time></trkpt><trkpt lat="43.6445476" lon="11.4517512"><ele>123.0</ele><time>2026-03-29T09:24:35.142Z</time></trkpt><trkpt lat="43.644631" lon="11.4517195"><ele>123.0</ele><time>2026-03-29T09:24:36.142Z</time></trkpt><trkpt lat="43.6447226" lon="11.4516776"><ele>123.0</ele><time>2026-03-29T09:24:37.142Z</time></trkpt><trkpt lat="43.6448069" lon="11.4516439"><ele>123.0</ele><time>2026-03-29T09:24:38.142Z</time></trkpt><trkpt lat="43.6448937" lon="11.4515965"><ele>122.5</ele><time>2026-03-29T09:24:39.142Z</time></trkpt><trkpt lat="43.6449869" lon="11.4515393"><ele>122.0</ele><time>2026-03-29T09:24:40.142Z</time></trkpt><trkpt lat="43.6451063" lon="11.4514673"><ele>121.5</ele><time>2026-03-29T09:24:41.142Z</time></trkpt><trkpt lat="43.6452296" lon="11.4514094"><ele>121.0</ele><time>2026-03-29T09:24:42.142Z</time></trkpt><trkpt lat="43.6453734" lon="11.4513534"><ele>120.33333333333334</ele><time>2026-03-29T09:24:43.142Z</time></trkpt><trkpt lat="43.6455231" lon="11.4513177"><ele>119.66666666666666</ele><time>2026-03-29T09:24:44.142Z</time></trkpt><trkpt lat="43.645677" lon="11.451287"><ele>119.0</ele><time>2026-03-29T09:24:45.142Z</time></trkpt><trkpt lat="43.6458354" lon="11.4512501"><ele>120.0</ele><time>2026-03-29T09:24:46.142Z</time></trkpt><trkpt lat="43.6459987" lon="11.4512029"><ele>121.0</ele><time>2026-03-29T09:24:47.142Z</time></trkpt><trkpt lat="43.6461682" lon="11.4511542"><ele>122.0</ele><time>2026-03-29T09:24:48.142Z</time></trkpt><trkpt lat="43.6463448" lon="11.4511069"><ele>122.0</ele><time>2026-03-29T09:24:49.142Z</time></trkpt><trkpt lat="43.6465242" lon="11.451063"><ele>122.0</ele><time>2026-03-29T09:24:50.141Z</time></trkpt><trkpt lat="43.6467065" lon="11.451028"><ele>122.0</ele><time>2026-03-29T09:24:51.142Z</time></trkpt><trkpt lat="43.6468939" lon="11.4509876"><ele>122.0</ele><time>2026-03-29T09:24:52.142Z</time></trkpt><trkpt lat="43.6470793" lon="11.4509489"><ele>122.0</ele><time>2026-03-29T09:24:53.142Z</time></trkpt><trkpt lat="43.6472665" lon="11.4509186"><ele>122.0</ele><time>2026-03-29T09:24:54.142Z</time></trkpt><trkpt lat="43.6474536" lon="11.4508964"><ele>122.0</ele><time>2026-03-29T09:24:55.142Z</time></trkpt><trkpt lat="43.6476409" lon="11.4508766"><ele>122.0</ele><time>2026-03-29T09:24:56.142Z</time></trkpt><trkpt lat="43.647822" lon="11.4508591"><ele>122.0</ele><time>2026-03-29T09:24:57.142Z</time></trkpt><trkpt lat="43.6480117" lon="11.4508442"><ele>122.0</ele><time>2026-03-29T09:24:58.142Z</time></trkpt><trkpt lat="43.648202" lon="11.4508425"><ele>122.0</ele><time>2026-03-29T09:24:59.142Z</time></trkpt><trkpt lat="43.6483851" lon="11.4508679"><ele>122.0</ele><time>2026-03-29T09:25:00.141Z</time></trkpt><trkpt lat="43.6485711" lon="11.4509074"><ele>121.66666666666666</ele><time>2026-03-29T09:25:01.142Z</time></trkpt><trkpt lat="43.6487628" lon="11.4509493"><ele>121.33333333333334</ele><time>2026-03-29T09:25:02.142Z</time></trkpt><trkpt lat="43.6489492" lon="11.4509962"><ele>121.0</ele><time>2026-03-29T09:25:03.141Z</time></trkpt><trkpt lat="43.6491361" lon="11.4510433"><ele>121.0</ele><time>2026-03-29T09:25:04.142Z</time></trkpt><trkpt lat="43.6493237" lon="11.4510881"><ele>121.0</ele><time>2026-03-29T09:25:05.142Z</time></trkpt><trkpt lat="43.6495098" lon="11.4511182"><ele>121.0</ele><time>2026-03-29T09:25:06.142Z</time></trkpt><trkpt lat="43.6496987" lon="11.4511326"><ele>121.33333333333334</ele><time>2026-03-29T09:25:07.142Z</time></trkpt><trkpt lat="43.6498821" lon="11.4511256"><ele>121.66666666666666</ele><time>2026-03-29T09:25:08.142Z</time></trkpt><trkpt lat="43.6500663" lon="11.4511144"><ele>122.0</ele><time>2026-03-29T09:25:09.142Z</time></trkpt><trkpt lat="43.6502456" lon="11.4511008"><ele>123.0</ele><time>2026-03-29T09:25:10.142Z</time></trkpt><trkpt lat="43.6504272" lon="11.4510855"><ele>124.0</ele><time>2026-03-29T09:25:11.142Z</time></trkpt><trkpt lat="43.6506079" lon="11.4510915"><ele>125.0</ele><time>2026-03-29T09:25:12.142Z</time></trkpt><trkpt lat="43.6507774" lon="11.4511108"><ele>125.0</ele><time>2026-03-29T09:25:13.142Z</time></trkpt><trkpt lat="43.6509535" lon="11.4511629"><ele>125.0</ele><time>2026-03-29T09:25:14.142Z</time></trkpt><trkpt lat="43.6511247" lon="11.4512432"><ele>125.0</ele><time>2026-03-29T09:25:15.142Z</time></trkpt><trkpt lat="43.651293" lon="11.451332"><ele>124.33333333333333</ele><time>2026-03-29T09:25:16.142Z</time></trkpt><trkpt lat="43.6514634" lon="11.4514055"><ele>123.66666666666666</ele><time>2026-03-29T09:25:17.142Z</time></trkpt><trkpt lat="43.6516401" lon="11.4514487"><ele>123.0</ele><time>2026-03-29T09:25:18.142Z</time></trkpt><trkpt lat="43.651814" lon="11.4514546"><ele>122.33333333333334</ele><time>2026-03-29T09:25:19.142Z</time></trkpt><trkpt lat="43.6519884" lon="11.4514443"><ele>121.66666666666667</ele><time>2026-03-29T09:25:20.142Z</time></trkpt><trkpt lat="43.6521635" lon="11.4514247"><ele>121.0</ele><time>2026-03-29T09:25:21.142Z</time></trkpt><trkpt lat="43.6523417" lon="11.4513958"><ele>121.0</ele><time>2026-03-29T09:25:22.142Z</time></trkpt><trkpt lat="43.6525183" lon="11.4513694"><ele>121.0</ele><time>2026-03-29T09:25:23.142Z</time></trkpt><trkpt lat="43.6526832" lon="11.4513397"><ele>121.0</ele><time>2026-03-29T09:25:24.142Z</time></trkpt><trkpt lat="43.6528341" lon="11.451305"><ele>122.5</ele><time>2026-03-29T09:25:25.142Z</time></trkpt><trkpt lat="43.6529785" lon="11.4512727"><ele>124.0</ele><time>2026-03-29T09:25:26.142Z</time></trkpt><trkpt lat="43.6531048" lon="11.451225"><ele>125.5</ele><time>2026-03-29T09:25:27.142Z</time></trkpt><trkpt lat="43.6532185" lon="11.4511792"><ele>127.0</ele><time>2026-03-29T09:25:28.142Z</time></trkpt><trkpt lat="43.6533187" lon="11.4511354"><ele>127.00000000000001</ele><time>2026-03-29T09:25:29.142Z</time></trkpt><trkpt lat="43.6534067" lon="11.4511065"><ele>127.0</ele><time>2026-03-29T09:25:30.142Z</time></trkpt><trkpt lat="43.6534952" lon="11.4510742"><ele>127.0</ele><time>2026-03-29T09:25:31.142Z</time></trkpt><trkpt lat="43.6535815" lon="11.4510567"><ele>127.0</ele><time>2026-03-29T09:25:32.142Z</time></trkpt><trkpt lat="43.653674" lon="11.4510415"><ele>127.00000000000001</ele><time>2026-03-29T09:25:33.142Z</time></trkpt><trkpt lat="43.6537455" lon="11.4509922"><ele>127.0</ele><time>2026-03-29T09:25:34.142Z</time></trkpt><trkpt lat="43.6538047" lon="11.4509256"><ele>126.33333333333334</ele><time>2026-03-29T09:25:35.142Z</time></trkpt><trkpt lat="43.6538597" lon="11.4508771"><ele>125.66666666666667</ele><time>2026-03-29T09:25:36.141Z</time></trkpt><trkpt lat="43.6539484" lon="11.4509569"><ele>125.0</ele><time>2026-03-29T09:25:38.142Z</time></trkpt><trkpt lat="43.6540154" lon="11.4510436"><ele>124.33333333333334</ele><time>2026-03-29T09:25:40.142Z</time></trkpt><trkpt lat="43.6540829" lon="11.4510395"><ele>123.66666666666667</ele><time>2026-03-29T09:25:42.142Z</time></trkpt><trkpt lat="43.6541453" lon="11.4510221"><ele>123.0</ele><time>2026-03-29T09:25:45.142Z</time></trkpt><trkpt lat="43.654165" lon="11.4509087"><ele>123.0</ele><time>2026-03-29T09:28:21.142Z</time></trkpt><trkpt lat="43.6541407" lon="11.4508136"><ele>123.0</ele><time>2026-03-29T09:28:23.142Z</time></trkpt><trkpt lat="43.6541408" lon="11.4507065"><ele>123.0</ele><time>2026-03-29T09:28:26.142Z</time></trkpt><trkpt lat="43.6542101" lon="11.4506349"><ele>123.0</ele><time>2026-03-29T09:28:28.142Z</time></trkpt><trkpt lat="43.6542704" lon="11.4505665"><ele>123.0</ele><time>2026-03-29T09:28:29.142Z</time></trkpt><trkpt lat="43.6543444" lon="11.4505046"><ele>123.0</ele><time>2026-03-29T09:28:30.142Z</time></trkpt><trkpt lat="43.6544284" lon="11.4504536"><ele>123.0</ele><time>2026-03-29T09:28:31.142Z</time></trkpt><trkpt lat="43.6545188" lon="11.4503854"><ele>123.00000000000001</ele><time>2026-03-29T09:28:32.142Z</time></trkpt><trkpt lat="43.6546105" lon="11.4503215"><ele>123.00000000000001</ele><time>2026-03-29T09:28:33.142Z</time></trkpt><trkpt lat="43.6546957" lon="11.4502515"><ele>123.0</ele><time>2026-03-29T09:28:34.142Z</time></trkpt><trkpt lat="43.6547726" lon="11.450179"><ele>123.0</ele><time>2026-03-29T09:28:35.142Z</time></trkpt><trkpt lat="43.6548459" lon="11.4501226"><ele>123.00000000000001</ele><time>2026-03-29T09:28:36.142Z</time></trkpt><trkpt lat="43.6549111" lon="11.4500785"><ele>123.0</ele><time>2026-03-29T09:28:37.142Z</time></trkpt><trkpt lat="43.6549713" lon="11.4500401"><ele>123.00000000000001</ele><time>2026-03-29T09:28:38.142Z</time></trkpt><trkpt lat="43.6550265" lon="11.4499951"><ele>123.00000000000001</ele><time>2026-03-29T09:28:39.142Z</time></trkpt><trkpt lat="43.6550951" lon="11.4499538"><ele>123.0</ele><time>2026-03-29T09:28:40.142Z</time></trkpt><trkpt lat="43.6551746" lon="11.4499248"><ele>123.00000000000001</ele><time>2026-03-29T09:28:41.141Z</time></trkpt><trkpt lat="43.655256" lon="11.4498901"><ele>123.00000000000001</ele><time>2026-03-29T09:28:42.142Z</time></trkpt><trkpt lat="43.655332" lon="11.4498587"><ele>123.16666666666667</ele><time>2026-03-29T09:28:43.142Z</time></trkpt><trkpt lat="43.6553991" lon="11.4498319"><ele>123.33333333333334</ele><time>2026-03-29T09:28:44.142Z</time></trkpt><trkpt lat="43.6554635" lon="11.4498071"><ele>123.5</ele><time>2026-03-29T09:28:45.142Z</time></trkpt><trkpt lat="43.6555362" lon="11.4497831"><ele>123.66666666666667</ele><time>2026-03-29T09:28:46.142Z</time></trkpt><trkpt lat="43.6556188" lon="11.4497534"><ele>123.83333333333334</ele><time>2026-03-29T09:28:47.141Z</time></trkpt><trkpt lat="43.6557144" lon="11.449728"><ele>124.0</ele><time>2026-03-29T09:28:48.142Z</time></trkpt><trkpt lat="43.6558159" lon="11.4497082"><ele>124.0</ele><time>2026-03-29T09:28:49.142Z</time></trkpt><trkpt lat="43.6559024" lon="11.4496929"><ele>124.0</ele><time>2026-03-29T09:28:50.142Z</time></trkpt><trkpt lat="43.655975" lon="11.4496907"><ele>124.0</ele><time>2026-03-29T09:28:51.142Z</time></trkpt><trkpt lat="43.6560389" lon="11.44969"><ele>124.0</ele><time>2026-03-29T09:28:52.142Z</time></trkpt><trkpt lat="43.6561556" lon="11.449703"><ele>124.0</ele><time>2026-03-29T09:28:54.142Z</time></trkpt><trkpt lat="43.6562655" lon="11.4497485"><ele>123.66666666666667</ele><time>2026-03-29T09:28:56.142Z</time></trkpt><trkpt lat="43.6563282" lon="11.4497617"><ele>123.33333333333334</ele><time>2026-03-29T09:28:57.142Z</time></trkpt><trkpt lat="43.6564012" lon="11.4497554"><ele>123.0</ele><time>2026-03-29T09:28:58.142Z</time></trkpt><trkpt lat="43.6564914" lon="11.449753"><ele>122.66666666666666</ele><time>2026-03-29T09:28:59.142Z</time></trkpt><trkpt lat="43.6565959" lon="11.4497701"><ele>122.33333333333333</ele><time>2026-03-29T09:29:00.142Z</time></trkpt><trkpt lat="43.6567027" lon="11.4498093"><ele>122.0</ele><time>2026-03-29T09:29:01.142Z</time></trkpt><trkpt lat="43.6568005" lon="11.4498476"><ele>122.0</ele><time>2026-03-29T09:29:02.142Z</time></trkpt><trkpt lat="43.6568896" lon="11.4498779"><ele>121.99999999999999</ele><time>2026-03-29T09:29:03.142Z</time></trkpt><trkpt lat="43.656981" lon="11.4498966"><ele>121.99999999999999</ele><time>2026-03-29T09:29:04.142Z</time></trkpt><trkpt lat="43.6570785" lon="11.449924"><ele>122.0</ele><time>2026-03-29T09:29:05.142Z</time></trkpt><trkpt lat="43.6571697" lon="11.4499659"><ele>122.0</ele><time>2026-03-29T09:29:06.141Z</time></trkpt><trkpt lat="43.6572709" lon="11.450012"><ele>121.75</ele><time>2026-03-29T09:29:07.142Z</time></trkpt><trkpt lat="43.6573756" lon="11.4500495"><ele>121.5</ele><time>2026-03-29T09:29:08.142Z</time></trkpt><trkpt lat="43.6574982" lon="11.4500856"><ele>121.25</ele><time>2026-03-29T09:29:09.142Z</time></trkpt><trkpt lat="43.6576304" lon="11.4501259"><ele>121.0</ele><time>2026-03-29T09:29:10.142Z</time></trkpt><trkpt lat="43.6577734" lon="11.4501819"><ele>120.33333333333334</ele><time>2026-03-29T09:29:11.142Z</time></trkpt><trkpt lat="43.6579215" lon="11.450239"><ele>119.66666666666666</ele><time>2026-03-29T09:29:12.142Z</time></trkpt><trkpt lat="43.6580752" lon="11.4502915"><ele>119.0</ele><time>2026-03-29T09:29:13.142Z</time></trkpt><trkpt lat="43.6582313" lon="11.4503489"><ele>119.0</ele><time>2026-03-29T09:29:14.142Z</time></trkpt><trkpt lat="43.658394" lon="11.4503997"><ele>119.0</ele><time>2026-03-29T09:29:15.141Z</time></trkpt><trkpt lat="43.6585581" lon="11.4504551"><ele>119.0</ele><time>2026-03-29T09:29:16.142Z</time></trkpt><trkpt lat="43.6587254" lon="11.4505079"><ele>118.66666666666666</ele><time>2026-03-29T09:29:17.142Z</time></trkpt><trkpt lat="43.658896" lon="11.4505583"><ele>118.33333333333334</ele><time>2026-03-29T09:29:18.142Z</time></trkpt><trkpt lat="43.6590667" lon="11.4506192"><ele>118.0</ele><time>2026-03-29T09:29:19.142Z</time></trkpt><trkpt lat="43.6592378" lon="11.450681"><ele>118.0</ele><time>2026-03-29T09:29:20.142Z</time></trkpt><trkpt lat="43.6594081" lon="11.4507418"><ele>118.0</ele><time>2026-03-29T09:29:21.142Z</time></trkpt><trkpt lat="43.659564" lon="11.4508016"><ele>118.0</ele><time>2026-03-29T09:29:22.142Z</time></trkpt><trkpt lat="43.6597035" lon="11.4508525"><ele>118.0</ele><time>2026-03-29T09:29:23.142Z</time></trkpt><trkpt lat="43.659828" lon="11.4508908"><ele>118.0</ele><time>2026-03-29T09:29:24.142Z</time></trkpt><trkpt lat="43.6599465" lon="11.450935"><ele>118.0</ele><time>2026-03-29T09:29:25.142Z</time></trkpt><trkpt lat="43.6600597" lon="11.4509753"><ele>118.0</ele><time>2026-03-29T09:29:26.142Z</time></trkpt><trkpt lat="43.6601622" lon="11.4510162"><ele>118.0</ele><time>2026-03-29T09:29:27.142Z</time></trkpt><trkpt lat="43.6602663" lon="11.4510663"><ele>118.0</ele><time>2026-03-29T09:29:28.142Z</time></trkpt><trkpt lat="43.6603762" lon="11.4511226"><ele>118.0</ele><time>2026-03-29T09:29:29.142Z</time></trkpt><trkpt lat="43.6605031" lon="11.4511753"><ele>118.0</ele><time>2026-03-29T09:29:30.142Z</time></trkpt><trkpt lat="43.6606426" lon="11.4512239"><ele>118.33333333333334</ele><time>2026-03-29T09:29:31.142Z</time></trkpt><trkpt lat="43.6607955" lon="11.4512851"><ele>118.66666666666666</ele><time>2026-03-29T09:29:32.142Z</time></trkpt><trkpt lat="43.660954" lon="11.4513491"><ele>119.0</ele><time>2026-03-29T09:29:33.142Z</time></trkpt><trkpt lat="43.6611196" lon="11.4514175"><ele>122.0</ele><time>2026-03-29T09:29:34.142Z</time></trkpt><trkpt lat="43.6612813" lon="11.451497"><ele>125.0</ele><time>2026-03-29T09:29:35.142Z</time></trkpt><trkpt lat="43.6614469" lon="11.4515889"><ele>128.0</ele><time>2026-03-29T09:29:36.142Z</time></trkpt><trkpt lat="43.6616148" lon="11.4516728"><ele>128.0</ele><time>2026-03-29T09:29:37.142Z</time></trkpt><trkpt lat="43.6617906" lon="11.4517503"><ele>128.0</ele><time>2026-03-29T09:29:38.142Z</time></trkpt><trkpt lat="43.6619684" lon="11.4518076"><ele>128.0</ele><time>2026-03-29T09:29:39.142Z</time></trkpt><trkpt lat="43.6621517" lon="11.4518528"><ele>128.66666666666666</ele><time>2026-03-29T09:29:40.142Z</time></trkpt><trkpt lat="43.6623396" lon="11.4518886"><ele>129.33333333333334</ele><time>2026-03-29T09:29:41.142Z</time></trkpt><trkpt lat="43.662529" lon="11.451926"><ele>130.0</ele><time>2026-03-29T09:29:42.142Z</time></trkpt><trkpt lat="43.6627194" lon="11.4519697"><ele>129.0</ele><time>2026-03-29T09:29:43.142Z</time></trkpt><trkpt lat="43.6629073" lon="11.4520323"><ele>128.0</ele><time>2026-03-29T09:29:44.142Z</time></trkpt><trkpt lat="43.6630855" lon="11.4521125"><ele>127.0</ele><time>2026-03-29T09:29:45.142Z</time></trkpt><trkpt lat="43.6632432" lon="11.452199"><ele>129.33333333333334</ele><time>2026-03-29T09:29:46.142Z</time></trkpt><trkpt lat="43.6633936" lon="11.4522924"><ele>131.66666666666666</ele><time>2026-03-29T09:29:47.142Z</time></trkpt><trkpt lat="43.6635281" lon="11.4523978"><ele>134.0</ele><time>2026-03-29T09:29:48.142Z</time></trkpt><trkpt lat="43.6636412" lon="11.4525354"><ele>135.75</ele><time>2026-03-29T09:29:49.142Z</time></trkpt><trkpt lat="43.6637264" lon="11.4526952"><ele>137.5</ele><time>2026-03-29T09:29:50.142Z</time></trkpt><trkpt lat="43.663797" lon="11.452834"><ele>139.25</ele><time>2026-03-29T09:29:51.142Z</time></trkpt><trkpt lat="43.6638632" lon="11.4529862"><ele>141.0</ele><time>2026-03-29T09:29:52.142Z</time></trkpt><trkpt lat="43.6639295" lon="11.4531476"><ele>142.25</ele><time>2026-03-29T09:29:53.142Z</time></trkpt><trkpt lat="43.6639894" lon="11.4533099"><ele>143.5</ele><time>2026-03-29T09:29:54.142Z</time></trkpt><trkpt lat="43.6640464" lon="11.4534686"><ele>144.75</ele><time>2026-03-29T09:29:55.142Z</time></trkpt><trkpt lat="43.6640908" lon="11.4536372"><ele>146.0</ele><time>2026-03-29T09:29:56.142Z</time></trkpt><trkpt lat="43.6641263" lon="11.4538058"><ele>146.0</ele><time>2026-03-29T09:29:57.141Z</time></trkpt><trkpt lat="43.6641566" lon="11.4539775"><ele>146.0</ele><time>2026-03-29T09:29:58.142Z</time></trkpt><trkpt lat="43.6641877" lon="11.4541509"><ele>146.0</ele><time>2026-03-29T09:29:59.142Z</time></trkpt><trkpt lat="43.6642138" lon="11.4543246"><ele>146.0</ele><time>2026-03-29T09:30:00.142Z</time></trkpt><trkpt lat="43.6642349" lon="11.454492"><ele>145.4</ele><time>2026-03-29T09:30:01.142Z</time></trkpt><trkpt lat="43.6642536" lon="11.4546478"><ele>144.8</ele><time>2026-03-29T09:30:02.142Z</time></trkpt><trkpt lat="43.6642726" lon="11.4548011"><ele>144.20000000000002</ele><time>2026-03-29T09:30:03.142Z</time></trkpt><trkpt lat="43.6642857" lon="11.4549448"><ele>143.6</ele><time>2026-03-29T09:30:04.146Z</time></trkpt><trkpt lat="43.6642978" lon="11.4550768"><ele>143.0</ele><time>2026-03-29T09:30:05.146Z</time></trkpt><trkpt lat="43.6642957" lon="11.4551867"><ele>143.0</ele><time>2026-03-29T09:30:06.146Z</time></trkpt><trkpt lat="43.6642733" lon="11.4552861"><ele>143.0</ele><time>2026-03-29T09:30:07.146Z</time></trkpt><trkpt lat="43.6642343" lon="11.4553788"><ele>143.0</ele><time>2026-03-29T09:30:08.146Z</time></trkpt><trkpt lat="43.6642026" lon="11.4554879"><ele>143.0</ele><time>2026-03-29T09:30:09.146Z</time></trkpt><trkpt lat="43.6642162" lon="11.4556211"><ele>143.0</ele><time>2026-03-29T09:30:10.146Z</time></trkpt><trkpt lat="43.6642747" lon="11.4557434"><ele>143.0</ele><time>2026-03-29T09:30:11.146Z</time></trkpt><trkpt lat="43.6643758" lon="11.4558202"><ele>142.5</ele><time>2026-03-29T09:30:12.146Z</time></trkpt><trkpt lat="43.664487" lon="11.4559007"><ele>142.0</ele><time>2026-03-29T09:30:13.146Z</time></trkpt><trkpt lat="43.6645913" lon="11.4560362"><ele>141.5</ele><time>2026-03-29T09:30:14.146Z</time></trkpt><trkpt lat="43.6646807" lon="11.456237"><ele>141.0</ele><time>2026-03-29T09:30:15.146Z</time></trkpt><trkpt lat="43.6647428" lon="11.4564433"><ele>141.0</ele><time>2026-03-29T09:30:16.146Z</time></trkpt><trkpt lat="43.6648009" lon="11.456644"><ele>141.0</ele><time>2026-03-29T09:30:17.146Z</time></trkpt><trkpt lat="43.6648545" lon="11.4568388"><ele>141.0</ele><time>2026-03-29T09:30:18.146Z</time></trkpt><trkpt lat="43.6649056" lon="11.4570297"><ele>140.66666666666666</ele><time>2026-03-29T09:30:19.146Z</time></trkpt><trkpt lat="43.6649616" lon="11.4572347"><ele>140.33333333333331</ele><time>2026-03-29T09:30:20.146Z</time></trkpt><trkpt lat="43.6650291" lon="11.457453"><ele>140.0</ele><time>2026-03-29T09:30:21.146Z</time></trkpt><trkpt lat="43.6651007" lon="11.457697"><ele>139.33333333333331</ele><time>2026-03-29T09:30:22.146Z</time></trkpt><trkpt lat="43.6651749" lon="11.4579603"><ele>138.66666666666666</ele><time>2026-03-29T09:30:23.146Z</time></trkpt><trkpt lat="43.6652414" lon="11.458234"><ele>138.0</ele><time>2026-03-29T09:30:24.146Z</time></trkpt><trkpt lat="43.6653121" lon="11.4585056"><ele>138.0</ele><time>2026-03-29T09:30:25.146Z</time></trkpt><trkpt lat="43.665383" lon="11.4587552"><ele>138.0</ele><time>2026-03-29T09:30:26.146Z</time></trkpt><trkpt lat="43.6654459" lon="11.4589907"><ele>138.0</ele><time>2026-03-29T09:30:27.146Z</time></trkpt><trkpt lat="43.665495" lon="11.4592036"><ele>138.5</ele><time>2026-03-29T09:30:28.146Z</time></trkpt><trkpt lat="43.6655288" lon="11.4594033"><ele>139.0</ele><time>2026-03-29T09:30:29.146Z</time></trkpt><trkpt lat="43.665543" lon="11.4595946"><ele>139.5</ele><time>2026-03-29T09:30:30.145Z</time></trkpt><trkpt lat="43.6655323" lon="11.4597746"><ele>140.0</ele><time>2026-03-29T09:30:31.146Z</time></trkpt><trkpt lat="43.6655042" lon="11.4599339"><ele>140.6</ele><time>2026-03-29T09:30:32.146Z</time></trkpt><trkpt lat="43.6654477" lon="11.4600629"><ele>141.2</ele><time>2026-03-29T09:30:33.146Z</time></trkpt><trkpt lat="43.6653665" lon="11.4601716"><ele>141.8</ele><time>2026-03-29T09:30:34.146Z</time></trkpt><trkpt lat="43.6652937" lon="11.4602764"><ele>142.4</ele><time>2026-03-29T09:30:35.146Z</time></trkpt><trkpt lat="43.6652651" lon="11.4604029"><ele>143.0</ele><time>2026-03-29T09:30:36.146Z</time></trkpt><trkpt lat="43.6653042" lon="11.4605268"><ele>143.0</ele><time>2026-03-29T09:30:37.146Z</time></trkpt><trkpt lat="43.6653988" lon="11.4606118"><ele>143.0</ele><time>2026-03-29T09:30:38.146Z</time></trkpt><trkpt lat="43.6655078" lon="11.4606132"><ele>143.0</ele><time>2026-03-29T09:30:39.146Z</time></trkpt><trkpt lat="43.6656192" lon="11.4605732"><ele>143.0</ele><time>2026-03-29T09:30:40.146Z</time></trkpt><trkpt lat="43.6657267" lon="11.4605554"><ele>143.0</ele><time>2026-03-29T09:30:41.146Z</time></trkpt><trkpt lat="43.665837" lon="11.4606134"><ele>143.0</ele><time>2026-03-29T09:30:42.146Z</time></trkpt><trkpt lat="43.6659419" lon="11.4607476"><ele>143.0</ele><time>2026-03-29T09:30:43.146Z</time></trkpt><trkpt lat="43.6660443" lon="11.4609373"><ele>143.0</ele><time>2026-03-29T09:30:44.146Z</time></trkpt><trkpt lat="43.6661514" lon="11.4611234"><ele>140.66666666666666</ele><time>2026-03-29T09:30:45.145Z</time></trkpt><trkpt lat="43.666285" lon="11.4612843"><ele>138.33333333333334</ele><time>2026-03-29T09:30:46.145Z</time></trkpt><trkpt lat="43.666445" lon="11.4614449"><ele>136.0</ele><time>2026-03-29T09:30:47.145Z</time></trkpt><trkpt lat="43.6666175" lon="11.4615937"><ele>136.0</ele><time>2026-03-29T09:30:48.146Z</time></trkpt><trkpt lat="43.6667988" lon="11.4617477"><ele>136.0</ele><time>2026-03-29T09:30:49.146Z</time></trkpt><trkpt lat="43.666987" lon="11.4619073"><ele>136.0</ele><time>2026-03-29T09:30:50.145Z</time></trkpt><trkpt lat="43.6671721" lon="11.4620668"><ele>132.33333333333334</ele><time>2026-03-29T09:30:51.146Z</time></trkpt><trkpt lat="43.6673593" lon="11.4622248"><ele>128.66666666666666</ele><time>2026-03-29T09:30:52.146Z</time></trkpt><trkpt lat="43.6675483" lon="11.4623564"><ele>125.0</ele><time>2026-03-29T09:30:53.146Z</time></trkpt><trkpt lat="43.6677457" lon="11.4624306"><ele>125.66666666666666</ele><time>2026-03-29T09:30:54.146Z</time></trkpt><trkpt lat="43.6679417" lon="11.4624544"><ele>126.33333333333334</ele><time>2026-03-29T09:30:55.146Z</time></trkpt><trkpt lat="43.6681425" lon="11.4624231"><ele>127.0</ele><time>2026-03-29T09:30:56.146Z</time></trkpt><trkpt lat="43.6683512" lon="11.4623414"><ele>127.0</ele><time>2026-03-29T09:30:57.146Z</time></trkpt><trkpt lat="43.6685282" lon="11.4621999"><ele>127.0</ele><time>2026-03-29T09:30:58.146Z</time></trkpt><trkpt lat="43.6686904" lon="11.4620242"><ele>127.0</ele><time>2026-03-29T09:30:59.146Z</time></trkpt><trkpt lat="43.6688597" lon="11.4618586"><ele>130.0</ele><time>2026-03-29T09:31:00.146Z</time></trkpt><trkpt lat="43.669037" lon="11.4617069"><ele>133.0</ele><time>2026-03-29T09:31:01.146Z</time></trkpt><trkpt lat="43.6692352" lon="11.4616068"><ele>136.0</ele><time>2026-03-29T09:31:02.146Z</time></trkpt><trkpt lat="43.6694503" lon="11.4615584"><ele>137.66666666666669</ele><time>2026-03-29T09:31:03.146Z</time></trkpt><trkpt lat="43.6696631" lon="11.4615821"><ele>139.33333333333334</ele><time>2026-03-29T09:31:04.146Z</time></trkpt><trkpt lat="43.6698706" lon="11.4616259"><ele>141.0</ele><time>2026-03-29T09:31:05.146Z</time></trkpt><trkpt lat="43.6700548" lon="11.4617193"><ele>141.0</ele><time>2026-03-29T09:31:06.145Z</time></trkpt><trkpt lat="43.6702253" lon="11.4618215"><ele>141.0</ele><time>2026-03-29T09:31:07.146Z</time></trkpt><trkpt lat="43.6704015" lon="11.4619321"><ele>141.0</ele><time>2026-03-29T09:31:08.146Z</time></trkpt><trkpt lat="43.6705773" lon="11.4620419"><ele>144.33333333333334</ele><time>2026-03-29T09:31:09.146Z</time></trkpt><trkpt lat="43.6707612" lon="11.4621471"><ele>147.66666666666669</ele><time>2026-03-29T09:31:10.146Z</time></trkpt><trkpt lat="43.6709384" lon="11.4622501"><ele>151.0</ele><time>2026-03-29T09:31:11.146Z</time></trkpt><trkpt lat="43.6710911" lon="11.4623694"><ele>150.75</ele><time>2026-03-29T09:31:12.145Z</time></trkpt><trkpt lat="43.6712216" lon="11.4624652"><ele>150.5</ele><time>2026-03-29T09:31:13.146Z</time></trkpt><trkpt lat="43.6713544" lon="11.4625439"><ele>150.25</ele><time>2026-03-29T09:31:14.146Z</time></trkpt><trkpt lat="43.671487" lon="11.4625936"><ele>150.0</ele><time>2026-03-29T09:31:15.146Z</time></trkpt><trkpt lat="43.6716145" lon="11.4626144"><ele>150.0</ele><time>2026-03-29T09:31:16.146Z</time></trkpt><trkpt lat="43.6717456" lon="11.4626045"><ele>150.0</ele><time>2026-03-29T09:31:17.146Z</time></trkpt><trkpt lat="43.6718779" lon="11.4625552"><ele>150.0</ele><time>2026-03-29T09:31:18.146Z</time></trkpt><trkpt lat="43.6720335" lon="11.4624547"><ele>150.0</ele><time>2026-03-29T09:31:19.146Z</time></trkpt><trkpt lat="43.672191" lon="11.4623149"><ele>151.0</ele><time>2026-03-29T09:31:20.146Z</time></trkpt><trkpt lat="43.672366" lon="11.4621554"><ele>152.0</ele><time>2026-03-29T09:31:21.146Z</time></trkpt><trkpt lat="43.6725519" lon="11.4619981"><ele>153.0</ele><time>2026-03-29T09:31:22.146Z</time></trkpt><trkpt lat="43.672739" lon="11.4618876"><ele>156.66666666666666</ele><time>2026-03-29T09:31:23.146Z</time></trkpt><trkpt lat="43.6729277" lon="11.4618263"><ele>160.33333333333331</ele><time>2026-03-29T09:31:24.146Z</time></trkpt><trkpt lat="43.6731055" lon="11.4617828"><ele>164.0</ele><time>2026-03-29T09:31:25.146Z</time></trkpt><trkpt lat="43.6732604" lon="11.4616881"><ele>164.0</ele><time>2026-03-29T09:31:26.146Z</time></trkpt><trkpt lat="43.6733848" lon="11.4615505"><ele>164.0</ele><time>2026-03-29T09:31:27.146Z</time></trkpt><trkpt lat="43.6735007" lon="11.4613634"><ele>164.0</ele><time>2026-03-29T09:31:28.146Z</time></trkpt><trkpt lat="43.673584" lon="11.46116"><ele>171.33333333333331</ele><time>2026-03-29T09:31:29.145Z</time></trkpt><trkpt lat="43.6736386" lon="11.4609391"><ele>178.66666666666666</ele><time>2026-03-29T09:31:30.146Z</time></trkpt><trkpt lat="43.6736524" lon="11.460705"><ele>186.0</ele><time>2026-03-29T09:31:31.146Z</time></trkpt><trkpt lat="43.6736274" lon="11.4604667"><ele>182.0</ele><time>2026-03-29T09:31:32.146Z</time></trkpt><trkpt lat="43.6735544" lon="11.4602339"><ele>178.0</ele><time>2026-03-29T09:31:33.146Z</time></trkpt><trkpt lat="43.6734451" lon="11.4600336"><ele>174.0</ele><time>2026-03-29T09:31:34.146Z</time></trkpt><trkpt lat="43.6733042" lon="11.4598716"><ele>174.0</ele><time>2026-03-29T09:31:35.146Z</time></trkpt><trkpt lat="43.6731512" lon="11.4597176"><ele>174.0</ele><time>2026-03-29T09:31:36.146Z</time></trkpt><trkpt lat="43.6730107" lon="11.4595409"><ele>174.0</ele><time>2026-03-29T09:31:37.145Z</time></trkpt><trkpt lat="43.6728935" lon="11.4593349"><ele>173.33333333333334</ele><time>2026-03-29T09:31:38.146Z</time></trkpt><trkpt lat="43.6728087" lon="11.4590987"><ele>172.66666666666669</ele><time>2026-03-29T09:31:39.146Z</time></trkpt><trkpt lat="43.6727612" lon="11.4588513"><ele>172.0</ele><time>2026-03-29T09:31:40.146Z</time></trkpt><trkpt lat="43.672726" lon="11.4586232"><ele>173.75</ele><time>2026-03-29T09:31:41.146Z</time></trkpt><trkpt lat="43.672702" lon="11.4584178"><ele>175.5</ele><time>2026-03-29T09:31:42.146Z</time></trkpt><trkpt lat="43.6726932" lon="11.4582365"><ele>177.25</ele><time>2026-03-29T09:31:43.146Z</time></trkpt><trkpt lat="43.6727114" lon="11.4580646"><ele>179.0</ele><time>2026-03-29T09:31:44.146Z</time></trkpt><trkpt lat="43.6727791" lon="11.4579334"><ele>181.0</ele><time>2026-03-29T09:31:45.146Z</time></trkpt><trkpt lat="43.672885" lon="11.4578558"><ele>183.0</ele><time>2026-03-29T09:31:46.145Z</time></trkpt><trkpt lat="43.6729898" lon="11.4578098"><ele>185.0</ele><time>2026-03-29T09:31:47.146Z</time></trkpt><trkpt lat="43.6731186" lon="11.4578129"><ele>187.0</ele><time>2026-03-29T09:31:48.146Z</time></trkpt><trkpt lat="43.6732347" lon="11.4578711"><ele>187.66666666666669</ele><time>2026-03-29T09:31:49.146Z</time></trkpt><trkpt lat="43.6733458" lon="11.457994"><ele>188.33333333333334</ele><time>2026-03-29T09:31:50.146Z</time></trkpt><trkpt lat="43.6734518" lon="11.4581475"><ele>189.0</ele><time>2026-03-29T09:31:51.146Z</time></trkpt><trkpt lat="43.673561" lon="11.4583283"><ele>189.0</ele><time>2026-03-29T09:31:52.146Z</time></trkpt><trkpt lat="43.6736861" lon="11.4585177"><ele>189.0</ele><time>2026-03-29T09:31:53.146Z</time></trkpt><trkpt lat="43.6738185" lon="11.4586838"><ele>189.0</ele><time>2026-03-29T09:31:54.146Z</time></trkpt><trkpt lat="43.6739697" lon="11.4588422"><ele>189.0</ele><time>2026-03-29T09:31:55.146Z</time></trkpt><trkpt lat="43.6741335" lon="11.4589857"><ele>189.0</ele><time>2026-03-29T09:31:56.146Z</time></trkpt><trkpt lat="43.6742938" lon="11.459135"><ele>189.0</ele><time>2026-03-29T09:31:57.146Z</time></trkpt><trkpt lat="43.6744359" lon="11.4593204"><ele>188.0</ele><time>2026-03-29T09:31:58.146Z</time></trkpt><trkpt lat="43.6745399" lon="11.4595412"><ele>187.0</ele><time>2026-03-29T09:31:59.146Z</time></trkpt><trkpt lat="43.6745826" lon="11.4597687"><ele>186.0</ele><time>2026-03-29T09:32:00.146Z</time></trkpt><trkpt lat="43.6746146" lon="11.4599684"><ele>186.0</ele><time>2026-03-29T09:32:01.146Z</time></trkpt><trkpt lat="43.6746646" lon="11.4601283"><ele>186.0</ele><time>2026-03-29T09:32:02.146Z</time></trkpt><trkpt lat="43.6747653" lon="11.4602591"><ele>186.0</ele><time>2026-03-29T09:32:03.145Z</time></trkpt><trkpt lat="43.6748949" lon="11.4603512"><ele>186.0</ele><time>2026-03-29T09:32:04.146Z</time></trkpt><trkpt lat="43.6750609" lon="11.460344"><ele>186.0</ele><time>2026-03-29T09:32:05.146Z</time></trkpt><trkpt lat="43.6752282" lon="11.460264"><ele>186.0</ele><time>2026-03-29T09:32:06.146Z</time></trkpt><trkpt lat="43.6753669" lon="11.4601927"><ele>186.0</ele><time>2026-03-29T09:32:07.146Z</time></trkpt><trkpt lat="43.6755311" lon="11.4601618"><ele>185.0</ele><time>2026-03-29T09:32:08.146Z</time></trkpt><trkpt lat="43.6756984" lon="11.4601974"><ele>184.0</ele><time>2026-03-29T09:32:09.146Z</time></trkpt><trkpt lat="43.6758547" lon="11.4602876"><ele>183.0</ele><time>2026-03-29T09:32:10.145Z</time></trkpt><trkpt lat="43.6759963" lon="11.4603874"><ele>182.33333333333334</ele><time>2026-03-29T09:32:11.146Z</time></trkpt><trkpt lat="43.6761532" lon="11.4604206"><ele>181.66666666666669</ele><time>2026-03-29T09:32:12.146Z</time></trkpt><trkpt lat="43.6763101" lon="11.4603886"><ele>181.0</ele><time>2026-03-29T09:32:13.146Z</time></trkpt><trkpt lat="43.6764642" lon="11.4602891"><ele>181.0</ele><time>2026-03-29T09:32:14.146Z</time></trkpt><trkpt lat="43.6765952" lon="11.4601714"><ele>181.0</ele><time>2026-03-29T09:32:15.146Z</time></trkpt><trkpt lat="43.6767164" lon="11.4600768"><ele>181.0</ele><time>2026-03-29T09:32:16.146Z</time></trkpt><trkpt lat="43.6768378" lon="11.4600601"><ele>181.0</ele><time>2026-03-29T09:32:17.145Z</time></trkpt><trkpt lat="43.6769593" lon="11.4601065"><ele>178.33333333333334</ele><time>2026-03-29T09:32:18.146Z</time></trkpt><trkpt lat="43.6770631" lon="11.4602539"><ele>175.66666666666666</ele><time>2026-03-29T09:32:19.146Z</time></trkpt><trkpt lat="43.6771606" lon="11.4604366"><ele>173.0</ele><time>2026-03-29T09:32:20.146Z</time></trkpt><trkpt lat="43.677268" lon="11.4606592"><ele>173.0</ele><time>2026-03-29T09:32:21.145Z</time></trkpt><trkpt lat="43.6773731" lon="11.460903"><ele>173.0</ele><time>2026-03-29T09:32:22.146Z</time></trkpt><trkpt lat="43.6774394" lon="11.4611872"><ele>173.0</ele><time>2026-03-29T09:32:23.146Z</time></trkpt><trkpt lat="43.6774814" lon="11.4614846"><ele>174.5</ele><time>2026-03-29T09:32:24.146Z</time></trkpt><trkpt lat="43.6775156" lon="11.4617956"><ele>176.0</ele><time>2026-03-29T09:32:25.146Z</time></trkpt><trkpt lat="43.6775427" lon="11.4621135"><ele>176.0</ele><time>2026-03-29T09:32:26.146Z</time></trkpt><trkpt lat="43.6775592" lon="11.462419"><ele>176.0</ele><time>2026-03-29T09:32:27.146Z</time></trkpt><trkpt lat="43.6775695" lon="11.4627086"><ele>176.0</ele><time>2026-03-29T09:32:28.145Z</time></trkpt><trkpt lat="43.6775705" lon="11.4629632"><ele>176.33333333333331</ele><time>2026-03-29T09:32:29.146Z</time></trkpt><trkpt lat="43.6775787" lon="11.4631897"><ele>176.66666666666666</ele><time>2026-03-29T09:32:30.146Z</time></trkpt><trkpt lat="43.677606" lon="11.463399"><ele>177.0</ele><time>2026-03-29T09:32:31.146Z</time></trkpt><trkpt lat="43.6776661" lon="11.4635755"><ele>176.75</ele><time>2026-03-29T09:32:32.146Z</time></trkpt><trkpt lat="43.6777759" lon="11.4636805"><ele>176.5</ele><time>2026-03-29T09:32:33.146Z</time></trkpt><trkpt lat="43.6779265" lon="11.4637369"><ele>176.25</ele><time>2026-03-29T09:32:34.146Z</time></trkpt><trkpt lat="43.6780745" lon="11.4637123"><ele>176.0</ele><time>2026-03-29T09:32:35.146Z</time></trkpt><trkpt lat="43.6782056" lon="11.4636242"><ele>176.0</ele><time>2026-03-29T09:32:36.146Z</time></trkpt><trkpt lat="43.6783105" lon="11.4634419"><ele>176.0</ele><time>2026-03-29T09:32:37.146Z</time></trkpt><trkpt lat="43.6783755" lon="11.4632331"><ele>176.0</ele><time>2026-03-29T09:32:38.146Z</time></trkpt><trkpt lat="43.6784394" lon="11.4630076"><ele>174.75</ele><time>2026-03-29T09:32:39.146Z</time></trkpt><trkpt lat="43.6784937" lon="11.462799"><ele>173.5</ele><time>2026-03-29T09:32:40.146Z</time></trkpt><trkpt lat="43.6785584" lon="11.4626306"><ele>172.25</ele><time>2026-03-29T09:32:41.146Z</time></trkpt><trkpt lat="43.6786341" lon="11.4624985"><ele>171.0</ele><time>2026-03-29T09:32:42.146Z</time></trkpt><trkpt lat="43.6787414" lon="11.4624169"><ele>171.0</ele><time>2026-03-29T09:32:43.146Z</time></trkpt><trkpt lat="43.6788724" lon="11.462402"><ele>171.0</ele><time>2026-03-29T09:32:44.146Z</time></trkpt><trkpt lat="43.678991" lon="11.4624835"><ele>171.0</ele><time>2026-03-29T09:32:45.146Z</time></trkpt><trkpt lat="43.6790906" lon="11.4626304"><ele>171.0</ele><time>2026-03-29T09:32:46.146Z</time></trkpt><trkpt lat="43.6791436" lon="11.4628263"><ele>173.33333333333334</ele><time>2026-03-29T09:32:47.146Z</time></trkpt><trkpt lat="43.6792207" lon="11.463057"><ele>175.66666666666669</ele><time>2026-03-29T09:32:48.146Z</time></trkpt><trkpt lat="43.6793179" lon="11.4632755"><ele>178.0</ele><time>2026-03-29T09:32:49.146Z</time></trkpt><trkpt lat="43.6794241" lon="11.4634916"><ele>175.0</ele><time>2026-03-29T09:32:50.146Z</time></trkpt><trkpt lat="43.6795517" lon="11.4636852"><ele>172.0</ele><time>2026-03-29T09:32:51.146Z</time></trkpt><trkpt lat="43.6796773" lon="11.4638571"><ele>169.0</ele><time>2026-03-29T09:32:52.146Z</time></trkpt><trkpt lat="43.6797966" lon="11.4640186"><ele>169.0</ele><time>2026-03-29T09:32:53.146Z</time></trkpt><trkpt lat="43.679912" lon="11.4641738"><ele>169.0</ele><time>2026-03-29T09:32:54.146Z</time></trkpt><trkpt lat="43.680012" lon="11.4643375"><ele>169.0</ele><time>2026-03-29T09:32:55.146Z</time></trkpt><trkpt lat="43.6801142" lon="11.4644916"><ele>169.0</ele><time>2026-03-29T09:32:56.146Z</time></trkpt><trkpt lat="43.6802331" lon="11.4646072"><ele>169.0</ele><time>2026-03-29T09:32:57.146Z</time></trkpt><trkpt lat="43.6803786" lon="11.4646481"><ele>169.0</ele><time>2026-03-29T09:32:58.146Z</time></trkpt><trkpt lat="43.680561" lon="11.4646175"><ele>164.66666666666669</ele><time>2026-03-29T09:32:59.146Z</time></trkpt><trkpt lat="43.6807516" lon="11.4645617"><ele>160.33333333333334</ele><time>2026-03-29T09:33:00.146Z</time></trkpt><trkpt lat="43.6809485" lon="11.4644693"><ele>156.0</ele><time>2026-03-29T09:33:01.146Z</time></trkpt><trkpt lat="43.6811414" lon="11.4643676"><ele>155.0</ele><time>2026-03-29T09:33:02.146Z</time></trkpt><trkpt lat="43.6813509" lon="11.4642493"><ele>154.0</ele><time>2026-03-29T09:33:03.146Z</time></trkpt><trkpt lat="43.6815706" lon="11.464132"><ele>154.0</ele><time>2026-03-29T09:33:04.146Z</time></trkpt><trkpt lat="43.6818013" lon="11.4640538"><ele>154.0</ele><time>2026-03-29T09:33:05.145Z</time></trkpt><trkpt lat="43.6820473" lon="11.4640178"><ele>153.0</ele><time>2026-03-29T09:33:06.146Z</time></trkpt><trkpt lat="43.6822944" lon="11.4639985"><ele>152.0</ele><time>2026-03-29T09:33:07.146Z</time></trkpt><trkpt lat="43.6825391" lon="11.4639831"><ele>152.5</ele><time>2026-03-29T09:33:08.146Z</time></trkpt><trkpt lat="43.6827868" lon="11.4639632"><ele>153.0</ele><time>2026-03-29T09:33:09.146Z</time></trkpt><trkpt lat="43.6830345" lon="11.4639415"><ele>153.0</ele><time>2026-03-29T09:33:10.146Z</time></trkpt><trkpt lat="43.6832801" lon="11.4639192"><ele>153.0</ele><time>2026-03-29T09:33:11.146Z</time></trkpt><trkpt lat="43.6835214" lon="11.4638957"><ele>151.5</ele><time>2026-03-29T09:33:12.146Z</time></trkpt><trkpt lat="43.6837594" lon="11.4638853"><ele>150.0</ele><time>2026-03-29T09:33:13.146Z</time></trkpt><trkpt lat="43.6839988" lon="11.4638703"><ele>150.0</ele><time>2026-03-29T09:33:14.146Z</time></trkpt><trkpt lat="43.6842284" lon="11.4638493"><ele>150.0</ele><time>2026-03-29T09:33:15.146Z</time></trkpt><trkpt lat="43.6844574" lon="11.4638224"><ele>142.5</ele><time>2026-03-29T09:33:16.146Z</time></trkpt><trkpt lat="43.6846844" lon="11.4637482"><ele>135.0</ele><time>2026-03-29T09:33:17.146Z</time></trkpt><trkpt lat="43.6848899" lon="11.4636375"><ele>135.0</ele><time>2026-03-29T09:33:18.146Z</time></trkpt><trkpt lat="43.6850866" lon="11.4634803"><ele>135.0</ele><time>2026-03-29T09:33:19.146Z</time></trkpt><trkpt lat="43.6852684" lon="11.4632922"><ele>133.5</ele><time>2026-03-29T09:33:20.146Z</time></trkpt><trkpt lat="43.685447" lon="11.4630833"><ele>132.0</ele><time>2026-03-29T09:33:21.146Z</time></trkpt><trkpt lat="43.6856242" lon="11.4628778"><ele>132.0</ele><time>2026-03-29T09:33:22.146Z</time></trkpt><trkpt lat="43.6858059" lon="11.4626689"><ele>132.0</ele><time>2026-03-29T09:33:23.146Z</time></trkpt><trkpt lat="43.6859776" lon="11.4624784"><ele>131.33333333333334</ele><time>2026-03-29T09:33:24.146Z</time></trkpt><trkpt lat="43.6861428" lon="11.4622854"><ele>130.66666666666669</ele><time>2026-03-29T09:33:25.146Z</time></trkpt><trkpt lat="43.6862917" lon="11.4620822"><ele>130.0</ele><time>2026-03-29T09:33:26.146Z</time></trkpt><trkpt lat="43.6864127" lon="11.4618788"><ele>130.0</ele><time>2026-03-29T09:33:27.146Z</time></trkpt><trkpt lat="43.6865201" lon="11.461665"><ele>130.0</ele><time>2026-03-29T09:33:28.146Z</time></trkpt><trkpt lat="43.6866339" lon="11.4614674"><ele>130.0</ele><time>2026-03-29T09:33:29.146Z</time></trkpt><trkpt lat="43.6867637" lon="11.4613033"><ele>128.0</ele><time>2026-03-29T09:33:30.146Z</time></trkpt><trkpt lat="43.6869221" lon="11.4612098"><ele>126.0</ele><time>2026-03-29T09:33:31.146Z</time></trkpt><trkpt lat="43.6870807" lon="11.4611652"><ele>124.0</ele><time>2026-03-29T09:33:32.146Z</time></trkpt><trkpt lat="43.6872356" lon="11.4611281"><ele>124.0</ele><time>2026-03-29T09:33:33.146Z</time></trkpt><trkpt lat="43.6873702" lon="11.46108"><ele>124.0</ele><time>2026-03-29T09:33:34.146Z</time></trkpt><trkpt lat="43.6875027" lon="11.461023"><ele>124.0</ele><time>2026-03-29T09:33:35.146Z</time></trkpt><trkpt lat="43.6876204" lon="11.4609378"><ele>124.0</ele><time>2026-03-29T09:33:36.146Z</time></trkpt><trkpt lat="43.6876959" lon="11.4607993"><ele>124.0</ele><time>2026-03-29T09:33:37.146Z</time></trkpt><trkpt lat="43.6877454" lon="11.4606551"><ele>124.0</ele><time>2026-03-29T09:33:38.146Z</time></trkpt><trkpt lat="43.6877896" lon="11.4605212"><ele>124.0</ele><time>2026-03-29T09:33:39.146Z</time></trkpt><trkpt lat="43.687836" lon="11.4603959"><ele>124.0</ele><time>2026-03-29T09:33:40.146Z</time></trkpt><trkpt lat="43.6878936" lon="11.4602849"><ele>124.0</ele><time>2026-03-29T09:33:41.146Z</time></trkpt><trkpt lat="43.6879689" lon="11.4601901"><ele>123.6</ele><time>2026-03-29T09:33:42.146Z</time></trkpt><trkpt lat="43.6880725" lon="11.4601242"><ele>123.2</ele><time>2026-03-29T09:33:43.145Z</time></trkpt><trkpt lat="43.6881789" lon="11.460074"><ele>122.79999999999998</ele><time>2026-03-29T09:33:44.146Z</time></trkpt><trkpt lat="43.6882863" lon="11.4600283"><ele>122.39999999999999</ele><time>2026-03-29T09:33:45.146Z</time></trkpt><trkpt lat="43.6883889" lon="11.4599868"><ele>122.0</ele><time>2026-03-29T09:33:46.146Z</time></trkpt><trkpt lat="43.6884946" lon="11.4599513"><ele>121.99999999999999</ele><time>2026-03-29T09:33:47.146Z</time></trkpt><trkpt lat="43.688594" lon="11.4599096"><ele>122.0</ele><time>2026-03-29T09:33:48.146Z</time></trkpt><trkpt lat="43.6886792" lon="11.4598683"><ele>122.0</ele><time>2026-03-29T09:33:49.146Z</time></trkpt><trkpt lat="43.6887613" lon="11.4598278"><ele>122.0</ele><time>2026-03-29T09:33:50.145Z</time></trkpt><trkpt lat="43.6888244" lon="11.4598026"><ele>121.99999999999999</ele><time>2026-03-29T09:33:51.145Z</time></trkpt><trkpt lat="43.6889153" lon="11.4598001"><ele>122.0</ele><time>2026-03-29T09:33:53.146Z</time></trkpt><trkpt lat="43.6890239" lon="11.4598322"><ele>122.0</ele><time>2026-03-29T09:33:55.146Z</time></trkpt><trkpt lat="43.6890936" lon="11.4598294"><ele>121.99999999999999</ele><time>2026-03-29T09:33:56.146Z</time></trkpt><trkpt lat="43.6891719" lon="11.4597802"><ele>121.99999999999999</ele><time>2026-03-29T09:33:57.146Z</time></trkpt><trkpt lat="43.6892215" lon="11.4596908"><ele>122.0</ele><time>2026-03-29T09:33:58.146Z</time></trkpt><trkpt lat="43.6892344" lon="11.4595433"><ele>122.0</ele><time>2026-03-29T09:33:59.146Z</time></trkpt><trkpt lat="43.6892221" lon="11.4593622"><ele>118.33333333333333</ele><time>2026-03-29T09:34:00.146Z</time></trkpt><trkpt lat="43.6892176" lon="11.4591696"><ele>114.66666666666666</ele><time>2026-03-29T09:34:01.147Z</time></trkpt><trkpt lat="43.6892393" lon="11.4589551"><ele>111.0</ele><time>2026-03-29T09:34:02.147Z</time></trkpt><trkpt lat="43.6892905" lon="11.4587358"><ele>110.66666666666666</ele><time>2026-03-29T09:34:03.147Z</time></trkpt><trkpt lat="43.6893489" lon="11.4584905"><ele>110.33333333333333</ele><time>2026-03-29T09:34:04.146Z</time></trkpt><trkpt lat="43.6894066" lon="11.4582228"><ele>110.0</ele><time>2026-03-29T09:34:05.147Z</time></trkpt><trkpt lat="43.6894654" lon="11.4579538"><ele>110.0</ele><time>2026-03-29T09:34:06.147Z</time></trkpt><trkpt lat="43.6895265" lon="11.4576814"><ele>110.0</ele><time>2026-03-29T09:34:07.147Z</time></trkpt><trkpt lat="43.6895889" lon="11.4573939"><ele>110.0</ele><time>2026-03-29T09:34:08.147Z</time></trkpt><trkpt lat="43.6896524" lon="11.4571095"><ele>109.33333333333333</ele><time>2026-03-29T09:34:09.147Z</time></trkpt><trkpt lat="43.6897161" lon="11.4568215"><ele>108.66666666666666</ele><time>2026-03-29T09:34:10.147Z</time></trkpt><trkpt lat="43.689777" lon="11.4565308"><ele>108.0</ele><time>2026-03-29T09:34:11.147Z</time></trkpt><trkpt lat="43.6898412" lon="11.456239"><ele>108.0</ele><time>2026-03-29T09:34:12.147Z</time></trkpt><trkpt lat="43.6899043" lon="11.4559436"><ele>108.0</ele><time>2026-03-29T09:34:13.147Z</time></trkpt><trkpt lat="43.689967" lon="11.4556476"><ele>108.0</ele><time>2026-03-29T09:34:14.147Z</time></trkpt><trkpt lat="43.6900317" lon="11.4553453"><ele>108.0</ele><time>2026-03-29T09:34:15.147Z</time></trkpt><trkpt lat="43.6900987" lon="11.45504"><ele>108.0</ele><time>2026-03-29T09:34:16.147Z</time></trkpt><trkpt lat="43.6901657" lon="11.4547323"><ele>109.5</ele><time>2026-03-29T09:34:17.147Z</time></trkpt><trkpt lat="43.6902291" lon="11.4544192"><ele>111.0</ele><time>2026-03-29T09:34:18.147Z</time></trkpt><trkpt lat="43.69029" lon="11.454122"><ele>111.0</ele><time>2026-03-29T09:34:19.147Z</time></trkpt><trkpt lat="43.6903495" lon="11.4538481"><ele>111.0</ele><time>2026-03-29T09:34:20.147Z</time></trkpt><trkpt lat="43.690406" lon="11.4536021"><ele>111.0</ele><time>2026-03-29T09:34:21.147Z</time></trkpt><trkpt lat="43.6904577" lon="11.4533657"><ele>111.0</ele><time>2026-03-29T09:34:22.146Z</time></trkpt><trkpt lat="43.6905114" lon="11.4531373"><ele>111.0</ele><time>2026-03-29T09:34:23.147Z</time></trkpt><trkpt lat="43.6905658" lon="11.4529156"><ele>111.0</ele><time>2026-03-29T09:34:24.147Z</time></trkpt><trkpt lat="43.6906525" lon="11.4526993"><ele>111.0</ele><time>2026-03-29T09:34:25.147Z</time></trkpt><trkpt lat="43.6907771" lon="11.452508"><ele>111.0</ele><time>2026-03-29T09:34:26.147Z</time></trkpt><trkpt lat="43.6909344" lon="11.4523576"><ele>111.0</ele><time>2026-03-29T09:34:27.147Z</time></trkpt><trkpt lat="43.691103" lon="11.4522169"><ele>111.66666666666666</ele><time>2026-03-29T09:34:28.147Z</time></trkpt><trkpt lat="43.6912771" lon="11.4520793"><ele>112.33333333333333</ele><time>2026-03-29T09:34:29.147Z</time></trkpt><trkpt lat="43.6914692" lon="11.4519722"><ele>113.0</ele><time>2026-03-29T09:34:30.147Z</time></trkpt><trkpt lat="43.6916723" lon="11.4518881"><ele>113.0</ele><time>2026-03-29T09:34:31.146Z</time></trkpt><trkpt lat="43.6918828" lon="11.4518301"><ele>113.0</ele><time>2026-03-29T09:34:32.147Z</time></trkpt><trkpt lat="43.6921004" lon="11.4517905"><ele>113.0</ele><time>2026-03-29T09:34:33.147Z</time></trkpt><trkpt lat="43.6923191" lon="11.4517605"><ele>112.66666666666666</ele><time>2026-03-29T09:34:34.147Z</time></trkpt><trkpt lat="43.6925363" lon="11.4517343"><ele>112.33333333333334</ele><time>2026-03-29T09:34:35.147Z</time></trkpt><trkpt lat="43.6927565" lon="11.4517099"><ele>112.0</ele><time>2026-03-29T09:34:36.147Z</time></trkpt><trkpt lat="43.6929803" lon="11.451691"><ele>113.0</ele><time>2026-03-29T09:34:37.147Z</time></trkpt><trkpt lat="43.6932046" lon="11.4516743"><ele>114.0</ele><time>2026-03-29T09:34:38.147Z</time></trkpt><trkpt lat="43.6934356" lon="11.451661"><ele>114.66666666666666</ele><time>2026-03-29T09:34:39.147Z</time></trkpt><trkpt lat="43.6936575" lon="11.4516595"><ele>115.33333333333333</ele><time>2026-03-29T09:34:40.147Z</time></trkpt><trkpt lat="43.693859" lon="11.4516795"><ele>116.0</ele><time>2026-03-29T09:34:41.147Z</time></trkpt><trkpt lat="43.6940543" lon="11.4517097"><ele>116.0</ele><time>2026-03-29T09:34:42.147Z</time></trkpt><trkpt lat="43.6942462" lon="11.4517213"><ele>116.0</ele><time>2026-03-29T09:34:43.147Z</time></trkpt><trkpt lat="43.694442" lon="11.4516917"><ele>116.0</ele><time>2026-03-29T09:34:44.147Z</time></trkpt><trkpt lat="43.6946488" lon="11.4516341"><ele>116.0</ele><time>2026-03-29T09:34:45.147Z</time></trkpt><trkpt lat="43.6948596" lon="11.4515662"><ele>116.0</ele><time>2026-03-29T09:34:46.147Z</time></trkpt><trkpt lat="43.695075" lon="11.4514998"><ele>116.0</ele><time>2026-03-29T09:34:47.147Z</time></trkpt><trkpt lat="43.6952938" lon="11.4514292"><ele>115.0</ele><time>2026-03-29T09:34:48.147Z</time></trkpt><trkpt lat="43.6955093" lon="11.4513617"><ele>114.0</ele><time>2026-03-29T09:34:49.147Z</time></trkpt><trkpt lat="43.6957247" lon="11.4512946"><ele>113.0</ele><time>2026-03-29T09:34:50.147Z</time></trkpt><trkpt lat="43.6959325" lon="11.4512298"><ele>114.33333333333333</ele><time>2026-03-29T09:34:51.147Z</time></trkpt><trkpt lat="43.6961294" lon="11.4511557"><ele>115.66666666666666</ele><time>2026-03-29T09:34:52.147Z</time></trkpt><trkpt lat="43.6963214" lon="11.4510571"><ele>117.0</ele><time>2026-03-29T09:34:53.147Z</time></trkpt><trkpt lat="43.6965058" lon="11.450911"><ele>117.0</ele><time>2026-03-29T09:34:54.147Z</time></trkpt><trkpt lat="43.6966862" lon="11.4507431"><ele>117.0</ele><time>2026-03-29T09:34:55.147Z</time></trkpt><trkpt lat="43.6968694" lon="11.450567"><ele>117.0</ele><time>2026-03-29T09:34:56.147Z</time></trkpt><trkpt lat="43.6970617" lon="11.45041"><ele>118.0</ele><time>2026-03-29T09:34:57.147Z</time></trkpt><trkpt lat="43.6972638" lon="11.4502779"><ele>119.0</ele><time>2026-03-29T09:34:58.147Z</time></trkpt><trkpt lat="43.6974716" lon="11.4501485"><ele>119.0</ele><time>2026-03-29T09:34:59.147Z</time></trkpt><trkpt lat="43.6976757" lon="11.4500502"><ele>119.0</ele><time>2026-03-29T09:35:00.147Z</time></trkpt><trkpt lat="43.6978867" lon="11.4499869"><ele>119.0</ele><time>2026-03-29T09:35:01.147Z</time></trkpt><trkpt lat="43.6981119" lon="11.4499751"><ele>118.0</ele><time>2026-03-29T09:35:02.147Z</time></trkpt><trkpt lat="43.6983276" lon="11.4499858"><ele>117.0</ele><time>2026-03-29T09:35:03.147Z</time></trkpt><trkpt lat="43.6985422" lon="11.4500021"><ele>116.0</ele><time>2026-03-29T09:35:04.147Z</time></trkpt><trkpt lat="43.6987539" lon="11.4500156"><ele>115.33333333333333</ele><time>2026-03-29T09:35:05.147Z</time></trkpt><trkpt lat="43.6989659" lon="11.4500173"><ele>114.66666666666666</ele><time>2026-03-29T09:35:06.147Z</time></trkpt><trkpt lat="43.6991839" lon="11.4500001"><ele>114.0</ele><time>2026-03-29T09:35:07.147Z</time></trkpt><trkpt lat="43.6993936" lon="11.4499681"><ele>113.0</ele><time>2026-03-29T09:35:08.147Z</time></trkpt><trkpt lat="43.6995947" lon="11.4499061"><ele>112.0</ele><time>2026-03-29T09:35:09.147Z</time></trkpt><trkpt lat="43.6997887" lon="11.449832"><ele>111.0</ele><time>2026-03-29T09:35:10.147Z</time></trkpt><trkpt lat="43.699984" lon="11.4497245"><ele>111.0</ele><time>2026-03-29T09:35:11.147Z</time></trkpt><trkpt lat="43.7001707" lon="11.4495978"><ele>111.0</ele><time>2026-03-29T09:35:12.147Z</time></trkpt><trkpt lat="43.700357" lon="11.4494683"><ele>111.0</ele><time>2026-03-29T09:35:13.147Z</time></trkpt><trkpt lat="43.7005393" lon="11.449343"><ele>111.0</ele><time>2026-03-29T09:35:14.147Z</time></trkpt><trkpt lat="43.7007187" lon="11.4492316"><ele>111.0</ele><time>2026-03-29T09:35:15.147Z</time></trkpt><trkpt lat="43.7008951" lon="11.4491394"><ele>111.0</ele><time>2026-03-29T09:35:16.147Z</time></trkpt><trkpt lat="43.7010766" lon="11.4490726"><ele>111.0</ele><time>2026-03-29T09:35:17.147Z</time></trkpt><trkpt lat="43.7012574" lon="11.4490377"><ele>111.0</ele><time>2026-03-29T09:35:18.147Z</time></trkpt><trkpt lat="43.7014287" lon="11.4490533"><ele>111.0</ele><time>2026-03-29T09:35:19.147Z</time></trkpt><trkpt lat="43.7015898" lon="11.449085"><ele>111.0</ele><time>2026-03-29T09:35:20.146Z</time></trkpt><trkpt lat="43.7017264" lon="11.4491176"><ele>111.0</ele><time>2026-03-29T09:35:21.147Z</time></trkpt><trkpt lat="43.7018513" lon="11.4491506"><ele>111.0</ele><time>2026-03-29T09:35:22.147Z</time></trkpt><trkpt lat="43.7019607" lon="11.4491799"><ele>111.0</ele><time>2026-03-29T09:35:23.147Z</time></trkpt><trkpt lat="43.7020522" lon="11.4491983"><ele>111.16666666666667</ele><time>2026-03-29T09:35:24.147Z</time></trkpt><trkpt lat="43.702127" lon="11.4491898"><ele>111.33333333333334</ele><time>2026-03-29T09:35:25.147Z</time></trkpt><trkpt lat="43.7021818" lon="11.4491406"><ele>111.5</ele><time>2026-03-29T09:35:26.147Z</time></trkpt><trkpt lat="43.7022126" lon="11.4489601"><ele>111.66666666666667</ele><time>2026-03-29T09:35:28.147Z</time></trkpt><trkpt lat="43.7022172" lon="11.4488692"><ele>111.83333333333334</ele><time>2026-03-29T09:35:29.147Z</time></trkpt><trkpt lat="43.7022176" lon="11.4487736"><ele>112.0</ele><time>2026-03-29T09:35:30.147Z</time></trkpt><trkpt lat="43.7022207" lon="11.4486308"><ele>112.00000000000001</ele><time>2026-03-29T09:35:32.147Z</time></trkpt><trkpt lat="43.7022353" lon="11.4485154"><ele>112.0</ele><time>2026-03-29T09:35:34.147Z</time></trkpt><trkpt lat="43.7022576" lon="11.4486185"><ele>112.0</ele><time>2026-03-29T09:35:49.147Z</time></trkpt><trkpt lat="43.7022318" lon="11.448717"><ele>112.0</ele><time>2026-03-29T09:35:50.147Z</time></trkpt><trkpt lat="43.7022192" lon="11.4488222"><ele>112.00000000000001</ele><time>2026-03-29T09:35:51.147Z</time></trkpt><trkpt lat="43.7022185" lon="11.4489279"><ele>112.0</ele><time>2026-03-29T09:35:52.147Z</time></trkpt><trkpt lat="43.7022059" lon="11.4490157"><ele>112.00000000000001</ele><time>2026-03-29T09:35:53.147Z</time></trkpt><trkpt lat="43.7021813" lon="11.4491311"><ele>112.0</ele><time>2026-03-29T09:35:55.147Z</time></trkpt><trkpt lat="43.7022124" lon="11.449241"><ele>112.0</ele><time>2026-03-29T09:35:58.147Z</time></trkpt><trkpt lat="43.7022767" lon="11.4492933"><ele>112.0</ele><time>2026-03-29T09:35:59.147Z</time></trkpt><trkpt lat="43.7023649" lon="11.4493211"><ele>112.00000000000001</ele><time>2026-03-29T09:36:00.147Z</time></trkpt><trkpt lat="43.7024705" lon="11.4493406"><ele>112.0</ele><time>2026-03-29T09:36:01.147Z</time></trkpt><trkpt lat="43.7025878" lon="11.4493756"><ele>112.0</ele><time>2026-03-29T09:36:02.147Z</time></trkpt><trkpt lat="43.7027213" lon="11.4494147"><ele>112.0</ele><time>2026-03-29T09:36:03.147Z</time></trkpt><trkpt lat="43.702864" lon="11.4494506"><ele>112.0</ele><time>2026-03-29T09:36:04.147Z</time></trkpt><trkpt lat="43.7030141" lon="11.4494934"><ele>112.0</ele><time>2026-03-29T09:36:05.147Z</time></trkpt><trkpt lat="43.7031799" lon="11.4495381"><ele>112.0</ele><time>2026-03-29T09:36:06.147Z</time></trkpt><trkpt lat="43.7033446" lon="11.4495883"><ele>112.0</ele><time>2026-03-29T09:36:07.147Z</time></trkpt><trkpt lat="43.7035023" lon="11.4496333"><ele>112.0</ele><time>2026-03-29T09:36:08.147Z</time></trkpt><trkpt lat="43.7036535" lon="11.4496805"><ele>111.5</ele><time>2026-03-29T09:36:09.147Z</time></trkpt><trkpt lat="43.7037879" lon="11.4497221"><ele>111.0</ele><time>2026-03-29T09:36:10.147Z</time></trkpt><trkpt lat="43.7039149" lon="11.4497533"><ele>110.5</ele><time>2026-03-29T09:36:11.146Z</time></trkpt><trkpt lat="43.7040378" lon="11.4497838"><ele>110.0</ele><time>2026-03-29T09:36:12.146Z</time></trkpt><trkpt lat="43.7041597" lon="11.4498125"><ele>110.0</ele><time>2026-03-29T09:36:13.147Z</time></trkpt><trkpt lat="43.7042715" lon="11.4498248"><ele>110.0</ele><time>2026-03-29T09:36:14.147Z</time></trkpt><trkpt lat="43.7043839" lon="11.4498248"><ele>110.0</ele><time>2026-03-29T09:36:15.147Z</time></trkpt><trkpt lat="43.7045165" lon="11.4498112"><ele>110.0</ele><time>2026-03-29T09:36:16.147Z</time></trkpt><trkpt lat="43.7046558" lon="11.4497876"><ele>109.33333333333333</ele><time>2026-03-29T09:36:17.147Z</time></trkpt><trkpt lat="43.7047976" lon="11.4497504"><ele>108.66666666666666</ele><time>2026-03-29T09:36:18.147Z</time></trkpt><trkpt lat="43.7049463" lon="11.4496989"><ele>108.0</ele><time>2026-03-29T09:36:19.147Z</time></trkpt><trkpt lat="43.7050997" lon="11.449646"><ele>108.75</ele><time>2026-03-29T09:36:20.147Z</time></trkpt><trkpt lat="43.7052384" lon="11.4496028"><ele>109.5</ele><time>2026-03-29T09:36:21.147Z</time></trkpt><trkpt lat="43.7053747" lon="11.4495703"><ele>110.25</ele><time>2026-03-29T09:36:22.147Z</time></trkpt><trkpt lat="43.7055084" lon="11.4495341"><ele>111.0</ele><time>2026-03-29T09:36:23.147Z</time></trkpt><trkpt lat="43.705656" lon="11.4494915"><ele>111.0</ele><time>2026-03-29T09:36:24.147Z</time></trkpt><trkpt lat="43.7058121" lon="11.4494494"><ele>111.0</ele><time>2026-03-29T09:36:25.147Z</time></trkpt><trkpt lat="43.7059707" lon="11.4494103"><ele>111.0</ele><time>2026-03-29T09:36:26.147Z</time></trkpt><trkpt lat="43.706138" lon="11.4493833"><ele>112.33333333333334</ele><time>2026-03-29T09:36:27.147Z</time></trkpt><trkpt lat="43.7063099" lon="11.4493744"><ele>113.66666666666667</ele><time>2026-03-29T09:36:28.147Z</time></trkpt><trkpt lat="43.7064721" lon="11.4493805"><ele>115.0</ele><time>2026-03-29T09:36:29.147Z</time></trkpt><trkpt lat="43.70662" lon="11.4493911"><ele>115.0</ele><time>2026-03-29T09:36:30.147Z</time></trkpt><trkpt lat="43.7067454" lon="11.4494019"><ele>115.0</ele><time>2026-03-29T09:36:31.147Z</time></trkpt><trkpt lat="43.7068373" lon="11.4494048"><ele>115.0</ele><time>2026-03-29T09:36:32.147Z</time></trkpt><trkpt lat="43.7069064" lon="11.4494005"><ele>115.0</ele><time>2026-03-29T09:36:33.147Z</time></trkpt><trkpt lat="43.706977" lon="11.449282"><ele>115.0</ele><time>2026-03-29T09:36:35.147Z</time></trkpt><trkpt lat="43.7069756" lon="11.4491756"><ele>115.0</ele><time>2026-03-29T09:36:36.147Z</time></trkpt><trkpt lat="43.7069777" lon="11.4490627"><ele>115.0</ele><time>2026-03-29T09:36:37.147Z</time></trkpt><trkpt lat="43.706981" lon="11.4489352"><ele>115.0</ele><time>2026-03-29T09:36:38.147Z</time></trkpt><trkpt lat="43.7069801" lon="11.448787"><ele>115.0</ele><time>2026-03-29T09:36:39.147Z</time></trkpt><trkpt lat="43.7069484" lon="11.4486643"><ele>115.0</ele><time>2026-03-29T09:36:40.147Z</time></trkpt><trkpt lat="43.7068858" lon="11.4485366"><ele>116.25</ele><time>2026-03-29T09:36:41.147Z</time></trkpt><trkpt lat="43.7067899" lon="11.4484122"><ele>117.5</ele><time>2026-03-29T09:36:42.147Z</time></trkpt><trkpt lat="43.7066917" lon="11.4482588"><ele>118.75</ele><time>2026-03-29T09:36:43.147Z</time></trkpt><trkpt lat="43.7065858" lon="11.4481082"><ele>120.0</ele><time>2026-03-29T09:36:44.147Z</time></trkpt><trkpt lat="43.7064716" lon="11.4479372"><ele>121.33333333333334</ele><time>2026-03-29T09:36:45.147Z</time></trkpt><trkpt lat="43.7063498" lon="11.4477664"><ele>122.66666666666667</ele><time>2026-03-29T09:36:46.147Z</time></trkpt><trkpt lat="43.7062281" lon="11.4475874"><ele>124.0</ele><time>2026-03-29T09:36:47.147Z</time></trkpt><trkpt lat="43.7060965" lon="11.4474108"><ele>124.33333333333334</ele><time>2026-03-29T09:36:48.147Z</time></trkpt><trkpt lat="43.705966" lon="11.4472222"><ele>124.66666666666666</ele><time>2026-03-29T09:36:49.147Z</time></trkpt><trkpt lat="43.7058376" lon="11.4470339"><ele>125.0</ele><time>2026-03-29T09:36:50.147Z</time></trkpt><trkpt lat="43.7057119" lon="11.4468499"><ele>125.0</ele><time>2026-03-29T09:36:51.147Z</time></trkpt><trkpt lat="43.7055817" lon="11.4466658"><ele>125.0</ele><time>2026-03-29T09:36:52.147Z</time></trkpt><trkpt lat="43.7054516" lon="11.4464834"><ele>125.0</ele><time>2026-03-29T09:36:53.147Z</time></trkpt><trkpt lat="43.7053203" lon="11.446301"><ele>126.66666666666666</ele><time>2026-03-29T09:36:54.147Z</time></trkpt><trkpt lat="43.7051927" lon="11.4461301"><ele>128.33333333333334</ele><time>2026-03-29T09:36:55.147Z</time></trkpt><trkpt lat="43.7050607" lon="11.4459657"><ele>130.0</ele><time>2026-03-29T09:36:56.147Z</time></trkpt><trkpt lat="43.7049305" lon="11.4458063"><ele>130.0</ele><time>2026-03-29T09:36:57.147Z</time></trkpt><trkpt lat="43.7047961" lon="11.4456528"><ele>130.0</ele><time>2026-03-29T09:36:58.147Z</time></trkpt><trkpt lat="43.7046588" lon="11.4454967"><ele>130.0</ele><time>2026-03-29T09:36:59.147Z</time></trkpt><trkpt lat="43.7045346" lon="11.4453553"><ele>131.66666666666669</ele><time>2026-03-29T09:37:00.147Z</time></trkpt><trkpt lat="43.7044305" lon="11.4452025"><ele>133.33333333333334</ele><time>2026-03-29T09:37:01.147Z</time></trkpt><trkpt lat="43.7043436" lon="11.4450128"><ele>135.0</ele><time>2026-03-29T09:37:02.147Z</time></trkpt><trkpt lat="43.7042776" lon="11.4448016"><ele>136.66666666666666</ele><time>2026-03-29T09:37:03.147Z</time></trkpt><trkpt lat="43.7042402" lon="11.4445601"><ele>138.33333333333331</ele><time>2026-03-29T09:37:04.147Z</time></trkpt><trkpt lat="43.7042177" lon="11.444311"><ele>140.0</ele><time>2026-03-29T09:37:05.147Z</time></trkpt><trkpt lat="43.7041897" lon="11.4440798"><ele>140.0</ele><time>2026-03-29T09:37:06.147Z</time></trkpt><trkpt lat="43.7041657" lon="11.4438676"><ele>140.0</ele><time>2026-03-29T09:37:07.147Z</time></trkpt><trkpt lat="43.7041606" lon="11.443664"><ele>140.0</ele><time>2026-03-29T09:37:08.147Z</time></trkpt><trkpt lat="43.7041738" lon="11.4434838"><ele>140.0</ele><time>2026-03-29T09:37:09.146Z</time></trkpt><trkpt lat="43.7042276" lon="11.4433291"><ele>140.75</ele><time>2026-03-29T09:37:10.147Z</time></trkpt><trkpt lat="43.704313" lon="11.4432252"><ele>141.5</ele><time>2026-03-29T09:37:11.147Z</time></trkpt><trkpt lat="43.7044257" lon="11.4432168"><ele>142.25</ele><time>2026-03-29T09:37:12.147Z</time></trkpt><trkpt lat="43.7045531" lon="11.4432328"><ele>143.0</ele><time>2026-03-29T09:37:13.147Z</time></trkpt><trkpt lat="43.704695" lon="11.4432506"><ele>145.25</ele><time>2026-03-29T09:37:14.147Z</time></trkpt><trkpt lat="43.704849" lon="11.4432696"><ele>147.5</ele><time>2026-03-29T09:37:15.147Z</time></trkpt><trkpt lat="43.7049939" lon="11.4432884"><ele>149.75</ele><time>2026-03-29T09:37:16.146Z</time></trkpt><trkpt lat="43.7051354" lon="11.4432892"><ele>152.0</ele><time>2026-03-29T09:37:17.147Z</time></trkpt><trkpt lat="43.7052806" lon="11.4432574"><ele>152.5</ele><time>2026-03-29T09:37:18.147Z</time></trkpt><trkpt lat="43.7054099" lon="11.4431995"><ele>153.0</ele><time>2026-03-29T09:37:19.147Z</time></trkpt><trkpt lat="43.7054947" lon="11.4431019"><ele>153.5</ele><time>2026-03-29T09:37:20.147Z</time></trkpt><trkpt lat="43.7055659" lon="11.4429634"><ele>154.0</ele><time>2026-03-29T09:37:21.147Z</time></trkpt><trkpt lat="43.7055966" lon="11.4427817"><ele>156.66666666666669</ele><time>2026-03-29T09:37:22.147Z</time></trkpt><trkpt lat="43.7056213" lon="11.4425726"><ele>159.33333333333334</ele><time>2026-03-29T09:37:23.146Z</time></trkpt><trkpt lat="43.7056522" lon="11.4423493"><ele>162.0</ele><time>2026-03-29T09:37:24.147Z</time></trkpt><trkpt lat="43.7056899" lon="11.4421281"><ele>163.75</ele><time>2026-03-29T09:37:25.147Z</time></trkpt><trkpt lat="43.7057269" lon="11.4419149"><ele>165.5</ele><time>2026-03-29T09:37:26.147Z</time></trkpt><trkpt lat="43.7057588" lon="11.4417202"><ele>167.25</ele><time>2026-03-29T09:37:27.147Z</time></trkpt><trkpt lat="43.7057798" lon="11.4415534"><ele>169.0</ele><time>2026-03-29T09:37:28.147Z</time></trkpt><trkpt lat="43.7057834" lon="11.4414086"><ele>170.0</ele><time>2026-03-29T09:37:29.147Z</time></trkpt><trkpt lat="43.7057321" lon="11.4412908"><ele>171.0</ele><time>2026-03-29T09:37:30.147Z</time></trkpt><trkpt lat="43.7056662" lon="11.4411959"><ele>172.0</ele><time>2026-03-29T09:37:31.147Z</time></trkpt><trkpt lat="43.7055894" lon="11.4411198"><ele>173.0</ele><time>2026-03-29T09:37:32.147Z</time></trkpt><trkpt lat="43.7055397" lon="11.4410185"><ele>174.0</ele><time>2026-03-29T09:37:33.147Z</time></trkpt><trkpt lat="43.7055168" lon="11.4408735"><ele>174.0</ele><time>2026-03-29T09:37:34.147Z</time></trkpt><trkpt lat="43.7055261" lon="11.4406862"><ele>174.0</ele><time>2026-03-29T09:37:35.147Z</time></trkpt><trkpt lat="43.7055451" lon="11.4404782"><ele>174.0</ele><time>2026-03-29T09:37:36.147Z</time></trkpt><trkpt lat="43.7055503" lon="11.4402522"><ele>175.33333333333334</ele><time>2026-03-29T09:37:37.147Z</time></trkpt><trkpt lat="43.7055432" lon="11.439996"><ele>176.66666666666669</ele><time>2026-03-29T09:37:38.147Z</time></trkpt><trkpt lat="43.7055462" lon="11.4397378"><ele>178.0</ele><time>2026-03-29T09:37:39.147Z</time></trkpt><trkpt lat="43.7055443" lon="11.4394766"><ele>178.0</ele><time>2026-03-29T09:37:40.147Z</time></trkpt><trkpt lat="43.705544" lon="11.4392212"><ele>178.0</ele><time>2026-03-29T09:37:41.147Z</time></trkpt><trkpt lat="43.705548" lon="11.4389678"><ele>178.0</ele><time>2026-03-29T09:37:42.147Z</time></trkpt><trkpt lat="43.7055573" lon="11.438719"><ele>178.0</ele><time>2026-03-29T09:37:43.147Z</time></trkpt><trkpt lat="43.7055767" lon="11.4384705"><ele>178.0</ele><time>2026-03-29T09:37:44.147Z</time></trkpt><trkpt lat="43.7056086" lon="11.4382159"><ele>178.0</ele><time>2026-03-29T09:37:45.147Z</time></trkpt><trkpt lat="43.7056412" lon="11.4379587"><ele>178.66666666666669</ele><time>2026-03-29T09:37:46.147Z</time></trkpt><trkpt lat="43.7056844" lon="11.4376999"><ele>179.33333333333334</ele><time>2026-03-29T09:37:47.147Z</time></trkpt><trkpt lat="43.7057413" lon="11.4374306"><ele>180.0</ele><time>2026-03-29T09:37:48.147Z</time></trkpt><trkpt lat="43.7058103" lon="11.437168"><ele>182.0</ele><time>2026-03-29T09:37:49.147Z</time></trkpt><trkpt lat="43.7058893" lon="11.4369158"><ele>184.0</ele><time>2026-03-29T09:37:50.147Z</time></trkpt><trkpt lat="43.7059747" lon="11.436663"><ele>186.0</ele><time>2026-03-29T09:37:51.147Z</time></trkpt><trkpt lat="43.7060699" lon="11.4364124"><ele>188.0</ele><time>2026-03-29T09:37:52.147Z</time></trkpt><trkpt lat="43.7061949" lon="11.4361935"><ele>190.0</ele><time>2026-03-29T09:37:53.147Z</time></trkpt><trkpt lat="43.7063574" lon="11.4360062"><ele>192.0</ele><time>2026-03-29T09:37:54.147Z</time></trkpt><trkpt lat="43.7065148" lon="11.4358294"><ele>192.0</ele><time>2026-03-29T09:37:55.147Z</time></trkpt><trkpt lat="43.7066751" lon="11.4356488"><ele>192.0</ele><time>2026-03-29T09:37:56.147Z</time></trkpt><trkpt lat="43.7068318" lon="11.435465"><ele>192.0</ele><time>2026-03-29T09:37:57.147Z</time></trkpt><trkpt lat="43.7069797" lon="11.4352945"><ele>200.0</ele><time>2026-03-29T09:37:58.147Z</time></trkpt><trkpt lat="43.7071216" lon="11.435134"><ele>208.0</ele><time>2026-03-29T09:37:59.147Z</time></trkpt><trkpt lat="43.7072646" lon="11.434981"><ele>216.0</ele><time>2026-03-29T09:38:00.147Z</time></trkpt><trkpt lat="43.7074016" lon="11.4348322"><ele>216.0</ele><time>2026-03-29T09:38:01.147Z</time></trkpt><trkpt lat="43.7075154" lon="11.4347117"><ele>216.0</ele><time>2026-03-29T09:38:02.147Z</time></trkpt><trkpt lat="43.7076148" lon="11.4346128"><ele>216.0</ele><time>2026-03-29T09:38:03.147Z</time></trkpt><trkpt lat="43.7076947" lon="11.4345141"><ele>216.0</ele><time>2026-03-29T09:38:04.147Z</time></trkpt><trkpt lat="43.7077402" lon="11.4343994"><ele>216.75</ele><time>2026-03-29T09:38:05.147Z</time></trkpt><trkpt lat="43.7077285" lon="11.4342567"><ele>217.5</ele><time>2026-03-29T09:38:06.147Z</time></trkpt><trkpt lat="43.7076903" lon="11.4341041"><ele>218.25</ele><time>2026-03-29T09:38:07.147Z</time></trkpt><trkpt lat="43.7076297" lon="11.4339244"><ele>219.0</ele><time>2026-03-29T09:38:08.147Z</time></trkpt><trkpt lat="43.7075644" lon="11.4337246"><ele>221.0</ele><time>2026-03-29T09:38:09.147Z</time></trkpt><trkpt lat="43.7074893" lon="11.4335001"><ele>223.0</ele><time>2026-03-29T09:38:10.147Z</time></trkpt><trkpt lat="43.7074053" lon="11.4332523"><ele>225.0</ele><time>2026-03-29T09:38:11.147Z</time></trkpt><trkpt lat="43.7073176" lon="11.4330105"><ele>226.33333333333331</ele><time>2026-03-29T09:38:12.147Z</time></trkpt><trkpt lat="43.7072265" lon="11.4327601"><ele>227.66666666666666</ele><time>2026-03-29T09:38:13.147Z</time></trkpt><trkpt lat="43.7071379" lon="11.4324988"><ele>229.0</ele><time>2026-03-29T09:38:14.147Z</time></trkpt><trkpt lat="43.7070478" lon="11.4322262"><ele>228.66666666666666</ele><time>2026-03-29T09:38:15.147Z</time></trkpt><trkpt lat="43.7069642" lon="11.4319471"><ele>228.33333333333331</ele><time>2026-03-29T09:38:16.147Z</time></trkpt><trkpt lat="43.7068915" lon="11.4316646"><ele>228.0</ele><time>2026-03-29T09:38:17.147Z</time></trkpt><trkpt lat="43.7068325" lon="11.4313739"><ele>233.0</ele><time>2026-03-29T09:38:18.147Z</time></trkpt><trkpt lat="43.7067946" lon="11.4310602"><ele>238.0</ele><time>2026-03-29T09:38:19.147Z</time></trkpt><trkpt lat="43.7067485" lon="11.4307418"><ele>236.5</ele><time>2026-03-29T09:38:20.147Z</time></trkpt><trkpt lat="43.7066981" lon="11.4304159"><ele>235.0</ele><time>2026-03-29T09:38:21.147Z</time></trkpt><trkpt lat="43.7066509" lon="11.4300955"><ele>235.0</ele><time>2026-03-29T09:38:22.147Z</time></trkpt><trkpt lat="43.7066069" lon="11.4297859"><ele>235.0</ele><time>2026-03-29T09:38:23.147Z</time></trkpt><trkpt lat="43.7065663" lon="11.4294944"><ele>235.0</ele><time>2026-03-29T09:38:24.147Z</time></trkpt><trkpt lat="43.7065244" lon="11.4292132"><ele>235.0</ele><time>2026-03-29T09:38:25.147Z</time></trkpt><trkpt lat="43.7064914" lon="11.4289438"><ele>235.0</ele><time>2026-03-29T09:38:26.147Z</time></trkpt><trkpt lat="43.7064719" lon="11.4286758"><ele>235.0</ele><time>2026-03-29T09:38:27.147Z</time></trkpt><trkpt lat="43.7064806" lon="11.428392"><ele>234.33333333333331</ele><time>2026-03-29T09:38:28.147Z</time></trkpt><trkpt lat="43.7065108" lon="11.4280962"><ele>233.66666666666669</ele><time>2026-03-29T09:38:29.147Z</time></trkpt><trkpt lat="43.7065412" lon="11.4277866"><ele>233.0</ele><time>2026-03-29T09:38:30.147Z</time></trkpt><trkpt lat="43.706562" lon="11.4274656"><ele>233.0</ele><time>2026-03-29T09:38:31.147Z</time></trkpt><trkpt lat="43.7065922" lon="11.4271469"><ele>233.0</ele><time>2026-03-29T09:38:32.147Z</time></trkpt><trkpt lat="43.70663" lon="11.4268348"><ele>234.0</ele><time>2026-03-29T09:38:33.147Z</time></trkpt><trkpt lat="43.7066816" lon="11.42655"><ele>235.0</ele><time>2026-03-29T09:38:34.147Z</time></trkpt><trkpt lat="43.7067426" lon="11.4262946"><ele>236.0</ele><time>2026-03-29T09:38:35.147Z</time></trkpt><trkpt lat="43.7068021" lon="11.4260505"><ele>238.0</ele><time>2026-03-29T09:38:36.147Z</time></trkpt><trkpt lat="43.7068463" lon="11.4257887"><ele>240.0</ele><time>2026-03-29T09:38:37.147Z</time></trkpt><trkpt lat="43.7068802" lon="11.42553"><ele>242.0</ele><time>2026-03-29T09:38:38.147Z</time></trkpt><trkpt lat="43.7069031" lon="11.4252627"><ele>243.66666666666669</ele><time>2026-03-29T09:38:39.147Z</time></trkpt><trkpt lat="43.7069263" lon="11.4249804"><ele>245.33333333333331</ele><time>2026-03-29T09:38:40.147Z</time></trkpt><trkpt lat="43.7069502" lon="11.4247079"><ele>247.0</ele><time>2026-03-29T09:38:41.147Z</time></trkpt><trkpt lat="43.7069728" lon="11.4244494"><ele>247.66666666666666</ele><time>2026-03-29T09:38:42.147Z</time></trkpt><trkpt lat="43.7069855" lon="11.4242078"><ele>248.33333333333331</ele><time>2026-03-29T09:38:43.147Z</time></trkpt><trkpt lat="43.7069922" lon="11.4239737"><ele>249.0</ele><time>2026-03-29T09:38:44.147Z</time></trkpt><trkpt lat="43.7069802" lon="11.4237411"><ele>249.0</ele><time>2026-03-29T09:38:45.147Z</time></trkpt><trkpt lat="43.7069375" lon="11.4235134"><ele>249.0</ele><time>2026-03-29T09:38:46.147Z</time></trkpt><trkpt lat="43.7068716" lon="11.4232761"><ele>249.0</ele><time>2026-03-29T09:38:47.147Z</time></trkpt><trkpt lat="43.7068004" lon="11.4230327"><ele>250.66666666666669</ele><time>2026-03-29T09:38:48.147Z</time></trkpt><trkpt lat="43.7067205" lon="11.4227952"><ele>252.33333333333334</ele><time>2026-03-29T09:38:49.147Z</time></trkpt><trkpt lat="43.7066541" lon="11.422553"><ele>254.0</ele><time>2026-03-29T09:38:50.146Z</time></trkpt><trkpt lat="43.7066069" lon="11.4222961"><ele>254.33333333333334</ele><time>2026-03-29T09:38:51.147Z</time></trkpt><trkpt lat="43.7065724" lon="11.4220249"><ele>254.66666666666669</ele><time>2026-03-29T09:38:52.146Z</time></trkpt><trkpt lat="43.7065534" lon="11.4217453"><ele>255.0</ele><time>2026-03-29T09:38:53.147Z</time></trkpt><trkpt lat="43.7065408" lon="11.4214678"><ele>254.66666666666669</ele><time>2026-03-29T09:38:54.147Z</time></trkpt><trkpt lat="43.7065223" lon="11.4211918"><ele>254.33333333333334</ele><time>2026-03-29T09:38:55.147Z</time></trkpt><trkpt lat="43.7065169" lon="11.4209091"><ele>254.0</ele><time>2026-03-29T09:38:56.147Z</time></trkpt><trkpt lat="43.7065487" lon="11.4206246"><ele>254.66666666666669</ele><time>2026-03-29T09:38:57.147Z</time></trkpt><trkpt lat="43.7066025" lon="11.4203366"><ele>255.33333333333331</ele><time>2026-03-29T09:38:58.147Z</time></trkpt><trkpt lat="43.7066618" lon="11.4200427"><ele>256.0</ele><time>2026-03-29T09:38:59.147Z</time></trkpt><trkpt lat="43.7067183" lon="11.4197455"><ele>256.3333333333333</ele><time>2026-03-29T09:39:00.147Z</time></trkpt><trkpt lat="43.7067713" lon="11.4194467"><ele>256.6666666666667</ele><time>2026-03-29T09:39:01.147Z</time></trkpt><trkpt lat="43.706825" lon="11.4191444"><ele>257.0</ele><time>2026-03-29T09:39:02.147Z</time></trkpt><trkpt lat="43.7068915" lon="11.4188472"><ele>258.5</ele><time>2026-03-29T09:39:03.147Z</time></trkpt><trkpt lat="43.7069613" lon="11.4185539"><ele>260.0</ele><time>2026-03-29T09:39:04.147Z</time></trkpt><trkpt lat="43.7070353" lon="11.4182553"><ele>261.0</ele><time>2026-03-29T09:39:05.147Z</time></trkpt><trkpt lat="43.7071097" lon="11.4179582"><ele>262.0</ele><time>2026-03-29T09:39:06.147Z</time></trkpt><trkpt lat="43.7071825" lon="11.417662"><ele>262.0</ele><time>2026-03-29T09:39:07.147Z</time></trkpt><trkpt lat="43.7072544" lon="11.4173669"><ele>262.0</ele><time>2026-03-29T09:39:08.147Z</time></trkpt><trkpt lat="43.7073324" lon="11.4170731"><ele>261.5</ele><time>2026-03-29T09:39:09.147Z</time></trkpt><trkpt lat="43.7074307" lon="11.4167921"><ele>261.0</ele><time>2026-03-29T09:39:10.147Z</time></trkpt><trkpt lat="43.7075459" lon="11.41652"><ele>260.5</ele><time>2026-03-29T09:39:11.147Z</time></trkpt><trkpt lat="43.7076813" lon="11.4162674"><ele>260.0</ele><time>2026-03-29T09:39:12.147Z</time></trkpt><trkpt lat="43.7078254" lon="11.4160248"><ele>262.5</ele><time>2026-03-29T09:39:13.147Z</time></trkpt><trkpt lat="43.707965" lon="11.4157742"><ele>265.0</ele><time>2026-03-29T09:39:14.147Z</time></trkpt><trkpt lat="43.7081002" lon="11.4155291"><ele>264.0</ele><time>2026-03-29T09:39:15.147Z</time></trkpt><trkpt lat="43.7082398" lon="11.4152827"><ele>263.0</ele><time>2026-03-29T09:39:16.147Z</time></trkpt><trkpt lat="43.7083763" lon="11.4150382"><ele>263.0</ele><time>2026-03-29T09:39:17.147Z</time></trkpt><trkpt lat="43.7085178" lon="11.4147852"><ele>263.0</ele><time>2026-03-29T09:39:18.147Z</time></trkpt><trkpt lat="43.7086558" lon="11.414536"><ele>263.6666666666667</ele><time>2026-03-29T09:39:19.147Z</time></trkpt><trkpt lat="43.7087929" lon="11.4142944"><ele>264.3333333333333</ele><time>2026-03-29T09:39:20.147Z</time></trkpt><trkpt lat="43.7089261" lon="11.414067"><ele>265.0</ele><time>2026-03-29T09:39:21.147Z</time></trkpt><trkpt lat="43.7090487" lon="11.4138496"><ele>264.66666666666663</ele><time>2026-03-29T09:39:22.147Z</time></trkpt><trkpt lat="43.7091585" lon="11.4136264"><ele>264.3333333333333</ele><time>2026-03-29T09:39:23.147Z</time></trkpt><trkpt lat="43.7092579" lon="11.4133967"><ele>264.0</ele><time>2026-03-29T09:39:24.147Z</time></trkpt><trkpt lat="43.7093368" lon="11.4131694"><ele>263.3333333333333</ele><time>2026-03-29T09:39:25.147Z</time></trkpt><trkpt lat="43.7094058" lon="11.41296"><ele>262.66666666666663</ele><time>2026-03-29T09:39:26.147Z</time></trkpt><trkpt lat="43.7094768" lon="11.4127476"><ele>262.0</ele><time>2026-03-29T09:39:27.147Z</time></trkpt><trkpt lat="43.7095529" lon="11.4125375"><ele>262.0</ele><time>2026-03-29T09:39:28.147Z</time></trkpt><trkpt lat="43.7096371" lon="11.412325"><ele>262.0</ele><time>2026-03-29T09:39:29.147Z</time></trkpt><trkpt lat="43.7097302" lon="11.4121229"><ele>262.0</ele><time>2026-03-29T09:39:30.147Z</time></trkpt><trkpt lat="43.7098227" lon="11.4119427"><ele>260.4</ele><time>2026-03-29T09:39:31.147Z</time></trkpt><trkpt lat="43.7098923" lon="11.4117979"><ele>258.79999999999995</ele><time>2026-03-29T09:39:32.147Z</time></trkpt><trkpt lat="43.7099553" lon="11.4116804"><ele>257.2</ele><time>2026-03-29T09:39:33.147Z</time></trkpt><trkpt lat="43.7100021" lon="11.4116039"><ele>255.6</ele><time>2026-03-29T09:39:34.146Z</time></trkpt><trkpt lat="43.7100671" lon="11.411514"><ele>254.0</ele><time>2026-03-29T09:39:36.147Z</time></trkpt><trkpt lat="43.7101509" lon="11.411538"><ele>254.00000000000003</ele><time>2026-03-29T09:39:39.147Z</time></trkpt><trkpt lat="43.7102205" lon="11.411649"><ele>254.0</ele><time>2026-03-29T09:39:41.147Z</time></trkpt><trkpt lat="43.7102665" lon="11.4117224"><ele>254.0</ele><time>2026-03-29T09:39:42.147Z</time></trkpt><trkpt lat="43.7103188" lon="11.4118103"><ele>254.0</ele><time>2026-03-29T09:39:43.147Z</time></trkpt><trkpt lat="43.7103718" lon="11.4118955"><ele>254.00000000000003</ele><time>2026-03-29T09:39:44.147Z</time></trkpt><trkpt lat="43.7104188" lon="11.4119856"><ele>254.0</ele><time>2026-03-29T09:39:45.147Z</time></trkpt><trkpt lat="43.7104624" lon="11.4120751"><ele>256.0</ele><time>2026-03-29T09:39:46.147Z</time></trkpt><trkpt lat="43.7105048" lon="11.4121683"><ele>258.0</ele><time>2026-03-29T09:39:47.147Z</time></trkpt><trkpt lat="43.7105473" lon="11.4122674"><ele>260.0</ele><time>2026-03-29T09:39:48.147Z</time></trkpt><trkpt lat="43.7105828" lon="11.4123736"><ele>262.0</ele><time>2026-03-29T09:39:49.147Z</time></trkpt><trkpt lat="43.7106168" lon="11.412485"><ele>264.0</ele><time>2026-03-29T09:39:50.147Z</time></trkpt><trkpt lat="43.7106456" lon="11.412603"><ele>266.0</ele><time>2026-03-29T09:39:51.147Z</time></trkpt><trkpt lat="43.7106696" lon="11.4127269"><ele>266.0</ele><time>2026-03-29T09:39:52.147Z</time></trkpt><trkpt lat="43.7106967" lon="11.4128434"><ele>266.0</ele><time>2026-03-29T09:39:53.147Z</time></trkpt><trkpt lat="43.710752" lon="11.4129458"><ele>266.0</ele><time>2026-03-29T09:39:54.147Z</time></trkpt><trkpt lat="43.7108368" lon="11.4130371"><ele>266.0</ele><time>2026-03-29T09:39:55.147Z</time></trkpt><trkpt lat="43.7109252" lon="11.4131263"><ele>266.0</ele><time>2026-03-29T09:39:56.147Z</time></trkpt><trkpt lat="43.7110125" lon="11.4132229"><ele>269.6</ele><time>2026-03-29T09:39:57.147Z</time></trkpt><trkpt lat="43.7111004" lon="11.4133116"><ele>273.20000000000005</ele><time>2026-03-29T09:39:58.147Z</time></trkpt><trkpt lat="43.7111969" lon="11.4133745"><ele>276.79999999999995</ele><time>2026-03-29T09:39:59.147Z</time></trkpt><trkpt lat="43.7112628" lon="11.4134153"><ele>280.4</ele><time>2026-03-29T09:40:00.147Z</time></trkpt><trkpt lat="43.7113507" lon="11.4134343"><ele>284.0</ele><time>2026-03-29T09:40:02.147Z</time></trkpt><trkpt lat="43.7114303" lon="11.4134927"><ele>284.0</ele><time>2026-03-29T09:40:37.147Z</time></trkpt><trkpt lat="43.7114812" lon="11.4135974"><ele>284.0</ele><time>2026-03-29T09:40:39.147Z</time></trkpt><trkpt lat="43.7115147" lon="11.4136803"><ele>284.0</ele><time>2026-03-29T09:40:41.147Z</time></trkpt><trkpt lat="43.7115216" lon="11.4137733"><ele>284.0</ele><time>2026-03-29T09:40:43.146Z</time></trkpt><trkpt lat="43.7115192" lon="11.4138735"><ele>284.0</ele><time>2026-03-29T09:40:45.147Z</time></trkpt><trkpt lat="43.7114981" lon="11.4139938"><ele>284.0</ele><time>2026-03-29T09:40:52.147Z</time></trkpt><trkpt lat="43.7114809" lon="11.4140783"><ele>286.8</ele><time>2026-03-29T09:40:53.147Z</time></trkpt><trkpt lat="43.7114482" lon="11.4142363"><ele>289.59999999999997</ele><time>2026-03-29T09:40:55.147Z</time></trkpt><trkpt lat="43.7114315" lon="11.4143945"><ele>292.4</ele><time>2026-03-29T09:40:57.147Z</time></trkpt><trkpt lat="43.7114753" lon="11.4145194"><ele>295.2</ele><time>2026-03-29T09:40:59.147Z</time></trkpt><trkpt lat="43.7115804" lon="11.4145738"><ele>298.0</ele><time>2026-03-29T09:41:01.147Z</time></trkpt><trkpt lat="43.711692" lon="11.4146149"><ele>298.0</ele><time>2026-03-29T09:41:03.147Z</time></trkpt><trkpt lat="43.7117602" lon="11.4146436"><ele>298.0</ele><time>2026-03-29T09:41:04.147Z</time></trkpt><trkpt lat="43.7118279" lon="11.4146689"><ele>298.0</ele><time>2026-03-29T09:41:05.147Z</time></trkpt><trkpt lat="43.7118914" lon="11.4147078"><ele>298.0</ele><time>2026-03-29T09:41:06.147Z</time></trkpt><trkpt lat="43.7119576" lon="11.4147528"><ele>298.0</ele><time>2026-03-29T09:41:07.147Z</time></trkpt><trkpt lat="43.7120529" lon="11.4148523"><ele>298.0</ele><time>2026-03-29T09:41:09.147Z</time></trkpt><trkpt lat="43.7121225" lon="11.4149484"><ele>299.8333333333333</ele><time>2026-03-29T09:41:11.147Z</time></trkpt><trkpt lat="43.7122149" lon="11.4150765"><ele>301.66666666666663</ele><time>2026-03-29T09:41:13.147Z</time></trkpt><trkpt lat="43.7122661" lon="11.415144"><ele>303.5</ele><time>2026-03-29T09:41:14.147Z</time></trkpt><trkpt lat="43.7123236" lon="11.4152192"><ele>305.3333333333333</ele><time>2026-03-29T09:41:15.147Z</time></trkpt><trkpt lat="43.712379" lon="11.4153"><ele>307.1666666666667</ele><time>2026-03-29T09:41:16.147Z</time></trkpt><trkpt lat="43.7124247" lon="11.4153769"><ele>309.0</ele><time>2026-03-29T09:41:17.147Z</time></trkpt><trkpt lat="43.7124744" lon="11.4154646"><ele>309.6666666666667</ele><time>2026-03-29T09:41:18.147Z</time></trkpt><trkpt lat="43.7125263" lon="11.4155386"><ele>310.3333333333333</ele><time>2026-03-29T09:41:19.147Z</time></trkpt><trkpt lat="43.7125722" lon="11.4156306"><ele>311.0</ele><time>2026-03-29T09:41:20.147Z</time></trkpt><trkpt lat="43.7126216" lon="11.415728"><ele>311.66666666666663</ele><time>2026-03-29T09:41:21.146Z</time></trkpt><trkpt lat="43.7126657" lon="11.4158351"><ele>312.3333333333333</ele><time>2026-03-29T09:41:22.147Z</time></trkpt><trkpt lat="43.7127107" lon="11.4159357"><ele>313.0</ele><time>2026-03-29T09:41:23.147Z</time></trkpt><trkpt lat="43.7127536" lon="11.4160353"><ele>313.0</ele><time>2026-03-29T09:41:24.147Z</time></trkpt><trkpt lat="43.7127919" lon="11.4161378"><ele>313.0</ele><time>2026-03-29T09:41:25.147Z</time></trkpt><trkpt lat="43.7128361" lon="11.4162271"><ele>313.0</ele><time>2026-03-29T09:41:26.147Z</time></trkpt><trkpt lat="43.7128749" lon="11.4163122"><ele>313.0</ele><time>2026-03-29T09:41:27.147Z</time></trkpt><trkpt lat="43.7129134" lon="11.4164083"><ele>313.0</ele><time>2026-03-29T09:41:28.147Z</time></trkpt><trkpt lat="43.7129638" lon="11.4165159"><ele>313.0</ele><time>2026-03-29T09:41:29.147Z</time></trkpt><trkpt lat="43.713005" lon="11.4166049"><ele>314.8333333333333</ele><time>2026-03-29T09:41:30.147Z</time></trkpt><trkpt lat="43.71305" lon="11.4166917"><ele>316.66666666666663</ele><time>2026-03-29T09:41:31.147Z</time></trkpt><trkpt lat="43.7130942" lon="11.4167744"><ele>318.5</ele><time>2026-03-29T09:41:32.147Z</time></trkpt><trkpt lat="43.7131286" lon="11.4168599"><ele>320.3333333333333</ele><time>2026-03-29T09:41:33.147Z</time></trkpt><trkpt lat="43.7131505" lon="11.4169445"><ele>322.1666666666667</ele><time>2026-03-29T09:41:34.147Z</time></trkpt><trkpt lat="43.7132136" lon="11.4170775"><ele>324.0</ele><time>2026-03-29T09:41:37.147Z</time></trkpt><trkpt lat="43.7132242" lon="11.4171672"><ele>325.2857142857143</ele><time>2026-03-29T09:41:38.147Z</time></trkpt><trkpt lat="43.713207" lon="11.4172613"><ele>326.57142857142856</ele><time>2026-03-29T09:41:39.147Z</time></trkpt><trkpt lat="43.7131922" lon="11.4173585"><ele>327.8571428571429</ele><time>2026-03-29T09:41:40.147Z</time></trkpt><trkpt lat="43.7131701" lon="11.4174482"><ele>329.1428571428571</ele><time>2026-03-29T09:41:41.147Z</time></trkpt><trkpt lat="43.7131389" lon="11.4175295"><ele>330.4285714285714</ele><time>2026-03-29T09:41:42.147Z</time></trkpt><trkpt lat="43.7131051" lon="11.4176111"><ele>331.7142857142857</ele><time>2026-03-29T09:41:43.147Z</time></trkpt><trkpt lat="43.7130729" lon="11.4177003"><ele>333.0</ele><time>2026-03-29T09:41:44.147Z</time></trkpt><trkpt lat="43.7130425" lon="11.4178035"><ele>333.0</ele><time>2026-03-29T09:41:45.147Z</time></trkpt><trkpt lat="43.7130133" lon="11.4178996"><ele>333.0</ele><time>2026-03-29T09:41:46.147Z</time></trkpt><trkpt lat="43.7129851" lon="11.4179972"><ele>333.0</ele><time>2026-03-29T09:41:47.147Z</time></trkpt><trkpt lat="43.7129584" lon="11.418092"><ele>333.0</ele><time>2026-03-29T09:41:48.147Z</time></trkpt><trkpt lat="43.7129276" lon="11.4181808"><ele>333.0</ele><time>2026-03-29T09:41:49.147Z</time></trkpt><trkpt lat="43.7128984" lon="11.4182686"><ele>333.0</ele><time>2026-03-29T09:41:50.147Z</time></trkpt><trkpt lat="43.7128673" lon="11.4183697"><ele>333.0</ele><time>2026-03-29T09:41:51.147Z</time></trkpt><trkpt lat="43.7128463" lon="11.4184694"><ele>334.5</ele><time>2026-03-29T09:41:52.147Z</time></trkpt><trkpt lat="43.712837" lon="11.4185804"><ele>336.0</ele><time>2026-03-29T09:41:53.147Z</time></trkpt><trkpt lat="43.7128335" lon="11.4186711"><ele>337.5</ele><time>2026-03-29T09:41:54.147Z</time></trkpt><trkpt lat="43.7128645" lon="11.4188085"><ele>339.0</ele><time>2026-03-29T09:41:56.147Z</time></trkpt><trkpt lat="43.7129489" lon="11.4188708"><ele>340.5</ele><time>2026-03-29T09:41:58.147Z</time></trkpt><trkpt lat="43.7130394" lon="11.4189332"><ele>342.0</ele><time>2026-03-29T09:42:00.146Z</time></trkpt><trkpt lat="43.7130932" lon="11.4189806"><ele>343.6</ele><time>2026-03-29T09:42:01.147Z</time></trkpt><trkpt lat="43.7131556" lon="11.4190398"><ele>345.20000000000005</ele><time>2026-03-29T09:42:02.147Z</time></trkpt><trkpt lat="43.7132357" lon="11.4191169"><ele>346.8</ele><time>2026-03-29T09:42:03.147Z</time></trkpt><trkpt lat="43.7133094" lon="11.4191937"><ele>348.4</ele><time>2026-03-29T09:42:04.147Z</time></trkpt><trkpt lat="43.7133788" lon="11.4192739"><ele>350.0</ele><time>2026-03-29T09:42:05.147Z</time></trkpt><trkpt lat="43.7134556" lon="11.419361"><ele>350.0</ele><time>2026-03-29T09:42:06.146Z</time></trkpt><trkpt lat="43.7135323" lon="11.4194358"><ele>350.0</ele><time>2026-03-29T09:42:07.146Z</time></trkpt><trkpt lat="43.7136093" lon="11.4195133"><ele>350.0</ele><time>2026-03-29T09:42:08.147Z</time></trkpt><trkpt lat="43.7136798" lon="11.4195777"><ele>350.0</ele><time>2026-03-29T09:42:09.147Z</time></trkpt><trkpt lat="43.713742" lon="11.4196445"><ele>350.0</ele><time>2026-03-29T09:42:10.147Z</time></trkpt><trkpt lat="43.7138032" lon="11.4197126"><ele>350.0</ele><time>2026-03-29T09:42:11.147Z</time></trkpt><trkpt lat="43.7138609" lon="11.419776"><ele>351.57142857142856</ele><time>2026-03-29T09:42:12.147Z</time></trkpt><trkpt lat="43.7139177" lon="11.4198428"><ele>353.1428571428571</ele><time>2026-03-29T09:42:13.147Z</time></trkpt><trkpt lat="43.7139709" lon="11.4199029"><ele>354.7142857142857</ele><time>2026-03-29T09:42:14.147Z</time></trkpt><trkpt lat="43.7140197" lon="11.4199667"><ele>356.2857142857143</ele><time>2026-03-29T09:42:15.147Z</time></trkpt><trkpt lat="43.714069" lon="11.4200277"><ele>357.85714285714283</ele><time>2026-03-29T09:42:16.147Z</time></trkpt><trkpt lat="43.7141237" lon="11.4200848"><ele>359.42857142857144</ele><time>2026-03-29T09:42:17.147Z</time></trkpt><trkpt lat="43.7141867" lon="11.4201429"><ele>361.0</ele><time>2026-03-29T09:42:18.146Z</time></trkpt><trkpt lat="43.7142443" lon="11.4202001"><ele>361.0</ele><time>2026-03-29T09:42:19.147Z</time></trkpt><trkpt lat="43.7143004" lon="11.420267"><ele>361.0</ele><time>2026-03-29T09:42:20.147Z</time></trkpt><trkpt lat="43.7143686" lon="11.4203323"><ele>361.0</ele><time>2026-03-29T09:42:21.147Z</time></trkpt><trkpt lat="43.7144424" lon="11.4203941"><ele>361.0</ele><time>2026-03-29T09:42:22.147Z</time></trkpt><trkpt lat="43.7145186" lon="11.4204449"><ele>361.0</ele><time>2026-03-29T09:42:23.147Z</time></trkpt><trkpt lat="43.7145887" lon="11.4205063"><ele>361.0</ele><time>2026-03-29T09:42:24.147Z</time></trkpt><trkpt lat="43.7146463" lon="11.4205747"><ele>362.5</ele><time>2026-03-29T09:42:25.147Z</time></trkpt><trkpt lat="43.7147102" lon="11.4206488"><ele>364.0</ele><time>2026-03-29T09:42:26.147Z</time></trkpt><trkpt lat="43.7147723" lon="11.4207134"><ele>365.5</ele><time>2026-03-29T09:42:27.147Z</time></trkpt><trkpt lat="43.7148374" lon="11.4207728"><ele>367.0</ele><time>2026-03-29T09:42:28.147Z</time></trkpt><trkpt lat="43.7149075" lon="11.4208228"><ele>368.5</ele><time>2026-03-29T09:42:29.147Z</time></trkpt><trkpt lat="43.7149726" lon="11.4208647"><ele>370.0</ele><time>2026-03-29T09:42:30.147Z</time></trkpt><trkpt lat="43.7150442" lon="11.4209067"><ele>370.0</ele><time>2026-03-29T09:42:31.147Z</time></trkpt><trkpt lat="43.7151166" lon="11.420927"><ele>370.0</ele><time>2026-03-29T09:42:32.147Z</time></trkpt><trkpt lat="43.7152" lon="11.4209498"><ele>370.0</ele><time>2026-03-29T09:42:33.147Z</time></trkpt><trkpt lat="43.7152947" lon="11.4209692"><ele>370.0</ele><time>2026-03-29T09:42:34.147Z</time></trkpt><trkpt lat="43.7153938" lon="11.4209911"><ele>370.0</ele><time>2026-03-29T09:42:35.147Z</time></trkpt><trkpt lat="43.7154858" lon="11.4210183"><ele>370.0</ele><time>2026-03-29T09:42:36.147Z</time></trkpt><trkpt lat="43.7155694" lon="11.4210289"><ele>370.0</ele><time>2026-03-29T09:42:37.147Z</time></trkpt><trkpt lat="43.7156531" lon="11.4210406"><ele>370.0</ele><time>2026-03-29T09:42:38.147Z</time></trkpt><trkpt lat="43.7157274" lon="11.4210598"><ele>370.0</ele><time>2026-03-29T09:42:39.147Z</time></trkpt><trkpt lat="43.7158077" lon="11.4210907"><ele>370.0</ele><time>2026-03-29T09:42:40.147Z</time></trkpt><trkpt lat="43.71589" lon="11.4211189"><ele>370.0</ele><time>2026-03-29T09:42:41.147Z</time></trkpt><trkpt lat="43.7159694" lon="11.4211368"><ele>370.0</ele><time>2026-03-29T09:42:42.147Z</time></trkpt><trkpt lat="43.7160534" lon="11.42115"><ele>370.2</ele><time>2026-03-29T09:42:43.147Z</time></trkpt><trkpt lat="43.716142" lon="11.4211521"><ele>370.4</ele><time>2026-03-29T09:42:44.147Z</time></trkpt><trkpt lat="43.7162301" lon="11.4211547"><ele>370.6</ele><time>2026-03-29T09:42:45.147Z</time></trkpt><trkpt lat="43.7163176" lon="11.4211638"><ele>370.8</ele><time>2026-03-29T09:42:46.147Z</time></trkpt><trkpt lat="43.7164155" lon="11.421175"><ele>371.0</ele><time>2026-03-29T09:42:47.147Z</time></trkpt><trkpt lat="43.716517" lon="11.4211813"><ele>371.0</ele><time>2026-03-29T09:42:48.147Z</time></trkpt><trkpt lat="43.716629" lon="11.4211988"><ele>371.0</ele><time>2026-03-29T09:42:49.146Z</time></trkpt><trkpt lat="43.7167788" lon="11.421214"><ele>371.0</ele><time>2026-03-29T09:42:50.147Z</time></trkpt><trkpt lat="43.7169431" lon="11.4212245"><ele>371.0</ele><time>2026-03-29T09:42:51.147Z</time></trkpt><trkpt lat="43.7171036" lon="11.4212357"><ele>368.33333333333337</ele><time>2026-03-29T09:42:52.147Z</time></trkpt><trkpt lat="43.7172712" lon="11.4212489"><ele>365.6666666666667</ele><time>2026-03-29T09:42:53.147Z</time></trkpt><trkpt lat="43.7174325" lon="11.4212554"><ele>363.0</ele><time>2026-03-29T09:42:54.147Z</time></trkpt><trkpt lat="43.7175969" lon="11.4212609"><ele>363.0</ele><time>2026-03-29T09:42:55.147Z</time></trkpt><trkpt lat="43.7177592" lon="11.4212728"><ele>363.0</ele><time>2026-03-29T09:42:56.147Z</time></trkpt><trkpt lat="43.7179215" lon="11.4212954"><ele>363.0</ele><time>2026-03-29T09:42:57.147Z</time></trkpt><trkpt lat="43.7180895" lon="11.4213232"><ele>363.0</ele><time>2026-03-29T09:42:58.147Z</time></trkpt><trkpt lat="43.7182493" lon="11.4213455"><ele>363.0</ele><time>2026-03-29T09:42:59.147Z</time></trkpt><trkpt lat="43.718398" lon="11.4213588"><ele>363.0</ele><time>2026-03-29T09:43:00.147Z</time></trkpt><trkpt lat="43.7185388" lon="11.421356"><ele>362.3333333333333</ele><time>2026-03-29T09:43:01.147Z</time></trkpt><trkpt lat="43.7186842" lon="11.4213472"><ele>361.66666666666663</ele><time>2026-03-29T09:43:02.147Z</time></trkpt><trkpt lat="43.7188385" lon="11.42133"><ele>361.0</ele><time>2026-03-29T09:43:03.147Z</time></trkpt><trkpt lat="43.7189988" lon="11.4212941"><ele>360.3333333333333</ele><time>2026-03-29T09:43:04.147Z</time></trkpt><trkpt lat="43.7191622" lon="11.4212287"><ele>359.6666666666667</ele><time>2026-03-29T09:43:05.147Z</time></trkpt><trkpt lat="43.7193234" lon="11.4211382"><ele>359.0</ele><time>2026-03-29T09:43:06.147Z</time></trkpt><trkpt lat="43.7194878" lon="11.4210539"><ele>365.0</ele><time>2026-03-29T09:43:07.147Z</time></trkpt><trkpt lat="43.719651" lon="11.420976"><ele>371.0</ele><time>2026-03-29T09:43:08.147Z</time></trkpt><trkpt lat="43.7198144" lon="11.4209147"><ele>377.0</ele><time>2026-03-29T09:43:09.147Z</time></trkpt><trkpt lat="43.7199662" lon="11.4208512"><ele>377.0</ele><time>2026-03-29T09:43:10.146Z</time></trkpt><trkpt lat="43.7201039" lon="11.420786"><ele>377.0</ele><time>2026-03-29T09:43:11.147Z</time></trkpt><trkpt lat="43.720246" lon="11.4207259"><ele>377.0</ele><time>2026-03-29T09:43:12.147Z</time></trkpt><trkpt lat="43.7203721" lon="11.4206576"><ele>377.0</ele><time>2026-03-29T09:43:13.147Z</time></trkpt><trkpt lat="43.7204904" lon="11.4205984"><ele>378.0</ele><time>2026-03-29T09:43:14.147Z</time></trkpt><trkpt lat="43.7205943" lon="11.4205784"><ele>379.0</ele><time>2026-03-29T09:43:15.147Z</time></trkpt><trkpt lat="43.7206877" lon="11.4205823"><ele>380.0</ele><time>2026-03-29T09:43:16.147Z</time></trkpt><trkpt lat="43.7207747" lon="11.4205727"><ele>381.0</ele><time>2026-03-29T09:43:17.147Z</time></trkpt><trkpt lat="43.7208758" lon="11.4205217"><ele>382.0</ele><time>2026-03-29T09:43:18.147Z</time></trkpt><trkpt lat="43.7209753" lon="11.4204217"><ele>383.75</ele><time>2026-03-29T09:43:19.147Z</time></trkpt><trkpt lat="43.7210733" lon="11.4203129"><ele>385.5</ele><time>2026-03-29T09:43:20.147Z</time></trkpt><trkpt lat="43.7211815" lon="11.4201997"><ele>387.25</ele><time>2026-03-29T09:43:21.147Z</time></trkpt><trkpt lat="43.7212793" lon="11.4200708"><ele>389.0</ele><time>2026-03-29T09:43:22.147Z</time></trkpt><trkpt lat="43.7213718" lon="11.4199246"><ele>389.0</ele><time>2026-03-29T09:43:23.147Z</time></trkpt><trkpt lat="43.721461" lon="11.419777"><ele>389.0</ele><time>2026-03-29T09:43:24.147Z</time></trkpt><trkpt lat="43.7215433" lon="11.4196331"><ele>389.0</ele><time>2026-03-29T09:43:25.147Z</time></trkpt><trkpt lat="43.7216074" lon="11.4194729"><ele>389.0</ele><time>2026-03-29T09:43:26.147Z</time></trkpt><trkpt lat="43.7216504" lon="11.4192965"><ele>390.0</ele><time>2026-03-29T09:43:27.147Z</time></trkpt><trkpt lat="43.7216775" lon="11.4190955"><ele>391.0</ele><time>2026-03-29T09:43:28.147Z</time></trkpt><trkpt lat="43.7216981" lon="11.4188767"><ele>392.0</ele><time>2026-03-29T09:43:29.147Z</time></trkpt><trkpt lat="43.7217205" lon="11.4186446"><ele>392.0</ele><time>2026-03-29T09:43:30.147Z</time></trkpt><trkpt lat="43.7217522" lon="11.4183971"><ele>392.0</ele><time>2026-03-29T09:43:31.147Z</time></trkpt><trkpt lat="43.7217887" lon="11.4181411"><ele>392.0</ele><time>2026-03-29T09:43:32.147Z</time></trkpt><trkpt lat="43.7218309" lon="11.4178895"><ele>393.25</ele><time>2026-03-29T09:43:33.147Z</time></trkpt><trkpt lat="43.7218736" lon="11.4176726"><ele>394.5</ele><time>2026-03-29T09:43:34.146Z</time></trkpt><trkpt lat="43.7219137" lon="11.4174895"><ele>395.75</ele><time>2026-03-29T09:43:35.147Z</time></trkpt><trkpt lat="43.7219422" lon="11.4173486"><ele>397.0</ele><time>2026-03-29T09:43:36.147Z</time></trkpt><trkpt lat="43.7219547" lon="11.417231"><ele>397.50000000000006</ele><time>2026-03-29T09:43:37.147Z</time></trkpt><trkpt lat="43.7219898" lon="11.417117"><ele>398.0</ele><time>2026-03-29T09:43:38.147Z</time></trkpt><trkpt lat="43.7220383" lon="11.4170082"><ele>398.5</ele><time>2026-03-29T09:43:39.147Z</time></trkpt><trkpt lat="43.7221" lon="11.4169152"><ele>399.0</ele><time>2026-03-29T09:43:40.147Z</time></trkpt><trkpt lat="43.7221737" lon="11.4168601"><ele>399.50000000000006</ele><time>2026-03-29T09:43:41.147Z</time></trkpt><trkpt lat="43.7222553" lon="11.4168832"><ele>400.0</ele><time>2026-03-29T09:43:42.147Z</time></trkpt><trkpt lat="43.7223174" lon="11.4169771"><ele>400.0</ele><time>2026-03-29T09:43:43.147Z</time></trkpt><trkpt lat="43.7223715" lon="11.4171054"><ele>400.0</ele><time>2026-03-29T09:43:44.147Z</time></trkpt><trkpt lat="43.722433" lon="11.4172398"><ele>400.0</ele><time>2026-03-29T09:43:45.147Z</time></trkpt><trkpt lat="43.7224975" lon="11.4173962"><ele>400.0</ele><time>2026-03-29T09:43:46.147Z</time></trkpt><trkpt lat="43.7225812" lon="11.4175629"><ele>398.0</ele><time>2026-03-29T09:43:47.147Z</time></trkpt><trkpt lat="43.7226612" lon="11.4177448"><ele>396.0</ele><time>2026-03-29T09:43:48.147Z</time></trkpt><trkpt lat="43.7227466" lon="11.4179395"><ele>394.0</ele><time>2026-03-29T09:43:49.147Z</time></trkpt><trkpt lat="43.7228414" lon="11.4181322"><ele>399.0</ele><time>2026-03-29T09:43:50.147Z</time></trkpt><trkpt lat="43.722947" lon="11.41831"><ele>404.0</ele><time>2026-03-29T09:43:51.147Z</time></trkpt><trkpt lat="43.723067" lon="11.4184752"><ele>409.0</ele><time>2026-03-29T09:43:52.147Z</time></trkpt><trkpt lat="43.7231967" lon="11.4186356"><ele>407.33333333333337</ele><time>2026-03-29T09:43:53.147Z</time></trkpt><trkpt lat="43.723324" lon="11.4188191"><ele>405.66666666666663</ele><time>2026-03-29T09:43:54.147Z</time></trkpt><trkpt lat="43.7234572" lon="11.4190015"><ele>404.0</ele><time>2026-03-29T09:43:55.147Z</time></trkpt><trkpt lat="43.7235947" lon="11.4191899"><ele>404.0</ele><time>2026-03-29T09:43:56.146Z</time></trkpt><trkpt lat="43.7237234" lon="11.4193642"><ele>404.0</ele><time>2026-03-29T09:43:57.147Z</time></trkpt><trkpt lat="43.7238337" lon="11.419517"><ele>404.0</ele><time>2026-03-29T09:43:58.147Z</time></trkpt><trkpt lat="43.723936" lon="11.4196604"><ele>405.3333333333333</ele><time>2026-03-29T09:43:59.147Z</time></trkpt><trkpt lat="43.7240292" lon="11.4198432"><ele>406.66666666666663</ele><time>2026-03-29T09:44:00.147Z</time></trkpt><trkpt lat="43.7241193" lon="11.4200356"><ele>408.0</ele><time>2026-03-29T09:44:01.147Z</time></trkpt><trkpt lat="43.7242086" lon="11.420209"><ele>408.0</ele><time>2026-03-29T09:44:02.147Z</time></trkpt><trkpt lat="43.7243041" lon="11.4203649"><ele>408.0</ele><time>2026-03-29T09:44:03.146Z</time></trkpt><trkpt lat="43.7244126" lon="11.420494"><ele>408.0</ele><time>2026-03-29T09:44:04.147Z</time></trkpt><trkpt lat="43.7245544" lon="11.420607"><ele>405.33333333333337</ele><time>2026-03-29T09:44:05.147Z</time></trkpt><trkpt lat="43.7247013" lon="11.4207054"><ele>402.6666666666667</ele><time>2026-03-29T09:44:06.147Z</time></trkpt><trkpt lat="43.7248453" lon="11.4207879"><ele>400.0</ele><time>2026-03-29T09:44:07.147Z</time></trkpt><trkpt lat="43.7250028" lon="11.4208479"><ele>400.0</ele><time>2026-03-29T09:44:08.147Z</time></trkpt><trkpt lat="43.7251552" lon="11.4208529"><ele>400.0</ele><time>2026-03-29T09:44:09.147Z</time></trkpt><trkpt lat="43.7253135" lon="11.4208427"><ele>400.0</ele><time>2026-03-29T09:44:10.147Z</time></trkpt><trkpt lat="43.7254636" lon="11.4208231"><ele>397.33333333333337</ele><time>2026-03-29T09:44:11.147Z</time></trkpt><trkpt lat="43.7256063" lon="11.4207727"><ele>394.66666666666663</ele><time>2026-03-29T09:44:12.147Z</time></trkpt><trkpt lat="43.7257462" lon="11.4206809"><ele>392.0</ele><time>2026-03-29T09:44:13.147Z</time></trkpt><trkpt lat="43.7258931" lon="11.4205632"><ele>391.3333333333333</ele><time>2026-03-29T09:44:14.147Z</time></trkpt><trkpt lat="43.7260389" lon="11.4204428"><ele>390.66666666666663</ele><time>2026-03-29T09:44:15.147Z</time></trkpt><trkpt lat="43.7261821" lon="11.4203458"><ele>390.0</ele><time>2026-03-29T09:44:16.147Z</time></trkpt><trkpt lat="43.7263097" lon="11.4202567"><ele>390.0</ele><time>2026-03-29T09:44:17.147Z</time></trkpt><trkpt lat="43.7264248" lon="11.4201807"><ele>390.0</ele><time>2026-03-29T09:44:18.147Z</time></trkpt><trkpt lat="43.7265285" lon="11.4201292"><ele>390.0</ele><time>2026-03-29T09:44:19.147Z</time></trkpt><trkpt lat="43.7266413" lon="11.4200994"><ele>390.0</ele><time>2026-03-29T09:44:20.147Z</time></trkpt><trkpt lat="43.7267769" lon="11.4200802"><ele>390.25</ele><time>2026-03-29T09:44:21.147Z</time></trkpt><trkpt lat="43.7269273" lon="11.4200593"><ele>390.5</ele><time>2026-03-29T09:44:22.146Z</time></trkpt><trkpt lat="43.7270751" lon="11.4200397"><ele>390.75</ele><time>2026-03-29T09:44:23.147Z</time></trkpt><trkpt lat="43.7272072" lon="11.4200293"><ele>391.0</ele><time>2026-03-29T09:44:24.147Z</time></trkpt><trkpt lat="43.7273203" lon="11.4200081"><ele>391.0</ele><time>2026-03-29T09:44:25.147Z</time></trkpt><trkpt lat="43.727417" lon="11.4200031"><ele>391.0</ele><time>2026-03-29T09:44:26.147Z</time></trkpt><trkpt lat="43.7275044" lon="11.4200149"><ele>391.0</ele><time>2026-03-29T09:44:27.147Z</time></trkpt><trkpt lat="43.7275921" lon="11.4200297"><ele>391.0</ele><time>2026-03-29T09:44:28.147Z</time></trkpt><trkpt lat="43.7276853" lon="11.4200541"><ele>391.0</ele><time>2026-03-29T09:44:29.147Z</time></trkpt><trkpt lat="43.7277797" lon="11.4200887"><ele>391.6666666666667</ele><time>2026-03-29T09:44:30.147Z</time></trkpt><trkpt lat="43.7278758" lon="11.4201193"><ele>392.33333333333337</ele><time>2026-03-29T09:44:31.147Z</time></trkpt><trkpt lat="43.7279638" lon="11.4201504"><ele>393.0</ele><time>2026-03-29T09:44:32.147Z</time></trkpt><trkpt lat="43.7280442" lon="11.4201776"><ele>393.66666666666663</ele><time>2026-03-29T09:44:33.147Z</time></trkpt><trkpt lat="43.7281229" lon="11.4202076"><ele>394.3333333333333</ele><time>2026-03-29T09:44:34.147Z</time></trkpt><trkpt lat="43.728203" lon="11.4202395"><ele>395.0</ele><time>2026-03-29T09:44:35.147Z</time></trkpt><trkpt lat="43.7282908" lon="11.4202589"><ele>395.0</ele><time>2026-03-29T09:44:36.147Z</time></trkpt><trkpt lat="43.7283909" lon="11.4202497"><ele>395.0</ele><time>2026-03-29T09:44:37.147Z</time></trkpt><trkpt lat="43.7284915" lon="11.4202312"><ele>395.0</ele><time>2026-03-29T09:44:38.147Z</time></trkpt><trkpt lat="43.7286002" lon="11.4202181"><ele>395.0</ele><time>2026-03-29T09:44:39.147Z</time></trkpt><trkpt lat="43.7287144" lon="11.420222"><ele>395.0</ele><time>2026-03-29T09:44:40.147Z</time></trkpt><trkpt lat="43.7288263" lon="11.4202356"><ele>394.75</ele><time>2026-03-29T09:44:41.147Z</time></trkpt><trkpt lat="43.7289417" lon="11.4202556"><ele>394.5</ele><time>2026-03-29T09:44:42.147Z</time></trkpt><trkpt lat="43.7290568" lon="11.420299"><ele>394.25</ele><time>2026-03-29T09:44:43.147Z</time></trkpt><trkpt lat="43.7291708" lon="11.4203616"><ele>394.0</ele><time>2026-03-29T09:44:44.147Z</time></trkpt><trkpt lat="43.7292716" lon="11.4204354"><ele>394.0</ele><time>2026-03-29T09:44:45.147Z</time></trkpt><trkpt lat="43.7293639" lon="11.4205319"><ele>394.0</ele><time>2026-03-29T09:44:46.147Z</time></trkpt><trkpt lat="43.7294431" lon="11.4206517"><ele>394.0</ele><time>2026-03-29T09:44:47.147Z</time></trkpt><trkpt lat="43.7295117" lon="11.4207769"><ele>394.0</ele><time>2026-03-29T09:44:48.147Z</time></trkpt><trkpt lat="43.7295687" lon="11.4209031"><ele>394.0</ele><time>2026-03-29T09:44:49.147Z</time></trkpt><trkpt lat="43.7296184" lon="11.4210092"><ele>394.0</ele><time>2026-03-29T09:44:50.147Z</time></trkpt><trkpt lat="43.7296798" lon="11.4210984"><ele>394.0</ele><time>2026-03-29T09:44:51.147Z</time></trkpt><trkpt lat="43.7297566" lon="11.4211616"><ele>394.0</ele><time>2026-03-29T09:44:52.147Z</time></trkpt><trkpt lat="43.7298674" lon="11.4212146"><ele>394.0</ele><time>2026-03-29T09:44:53.147Z</time></trkpt><trkpt lat="43.7299881" lon="11.4212785"><ele>392.6</ele><time>2026-03-29T09:44:54.146Z</time></trkpt><trkpt lat="43.7301008" lon="11.4213507"><ele>391.2</ele><time>2026-03-29T09:44:55.147Z</time></trkpt><trkpt lat="43.7301905" lon="11.4214462"><ele>389.8</ele><time>2026-03-29T09:44:56.147Z</time></trkpt><trkpt lat="43.7302627" lon="11.4215402"><ele>388.40000000000003</ele><time>2026-03-29T09:44:57.147Z</time></trkpt><trkpt lat="43.7303419" lon="11.4216258"><ele>387.0</ele><time>2026-03-29T09:44:58.147Z</time></trkpt><trkpt lat="43.7304164" lon="11.4217022"><ele>387.0</ele><time>2026-03-29T09:44:59.147Z</time></trkpt><trkpt lat="43.7304828" lon="11.421763"><ele>387.0</ele><time>2026-03-29T09:45:00.147Z</time></trkpt><trkpt lat="43.7305551" lon="11.4218201"><ele>387.0</ele><time>2026-03-29T09:45:01.147Z</time></trkpt><trkpt lat="43.7306346" lon="11.421868"><ele>387.0</ele><time>2026-03-29T09:45:02.147Z</time></trkpt><trkpt lat="43.7307157" lon="11.421914"><ele>387.0</ele><time>2026-03-29T09:45:03.147Z</time></trkpt><trkpt lat="43.7307986" lon="11.4219766"><ele>387.0</ele><time>2026-03-29T09:45:04.146Z</time></trkpt><trkpt lat="43.7308853" lon="11.4220617"><ele>388.0</ele><time>2026-03-29T09:45:05.147Z</time></trkpt><trkpt lat="43.7309684" lon="11.4221714"><ele>389.0</ele><time>2026-03-29T09:45:06.147Z</time></trkpt><trkpt lat="43.7310601" lon="11.4222818"><ele>390.0</ele><time>2026-03-29T09:45:07.147Z</time></trkpt><trkpt lat="43.731166" lon="11.4223906"><ele>391.0</ele><time>2026-03-29T09:45:08.147Z</time></trkpt><trkpt lat="43.7312805" lon="11.4224857"><ele>389.0</ele><time>2026-03-29T09:45:09.147Z</time></trkpt><trkpt lat="43.7314013" lon="11.422569"><ele>387.0</ele><time>2026-03-29T09:45:10.147Z</time></trkpt><trkpt lat="43.7315138" lon="11.4226474"><ele>385.0</ele><time>2026-03-29T09:45:11.147Z</time></trkpt><trkpt lat="43.731609" lon="11.4227315"><ele>383.0</ele><time>2026-03-29T09:45:12.147Z</time></trkpt><trkpt lat="43.7317057" lon="11.4228292"><ele>383.0</ele><time>2026-03-29T09:45:13.146Z</time></trkpt><trkpt lat="43.7318072" lon="11.4229328"><ele>383.0</ele><time>2026-03-29T09:45:14.147Z</time></trkpt><trkpt lat="43.7319062" lon="11.4230402"><ele>383.0</ele><time>2026-03-29T09:45:15.147Z</time></trkpt><trkpt lat="43.7319953" lon="11.4231414"><ele>383.0</ele><time>2026-03-29T09:45:16.147Z</time></trkpt><trkpt lat="43.7321002" lon="11.4232404"><ele>383.0</ele><time>2026-03-29T09:45:17.147Z</time></trkpt><trkpt lat="43.7322094" lon="11.4233329"><ele>383.0</ele><time>2026-03-29T09:45:18.147Z</time></trkpt><trkpt lat="43.7323173" lon="11.4234046"><ele>383.0</ele><time>2026-03-29T09:45:19.146Z</time></trkpt><trkpt lat="43.7324343" lon="11.4234496"><ele>383.0</ele><time>2026-03-29T09:45:20.147Z</time></trkpt><trkpt lat="43.7325506" lon="11.4234797"><ele>383.0</ele><time>2026-03-29T09:45:21.147Z</time></trkpt><trkpt lat="43.7326737" lon="11.4235025"><ele>383.0</ele><time>2026-03-29T09:45:22.147Z</time></trkpt><trkpt lat="43.7328056" lon="11.4235176"><ele>383.0</ele><time>2026-03-29T09:45:23.147Z</time></trkpt><trkpt lat="43.7329393" lon="11.4235357"><ele>383.0</ele><time>2026-03-29T09:45:24.147Z</time></trkpt><trkpt lat="43.7330652" lon="11.4235539"><ele>383.25</ele><time>2026-03-29T09:45:25.147Z</time></trkpt><trkpt lat="43.7331807" lon="11.4235459"><ele>383.5</ele><time>2026-03-29T09:45:26.147Z</time></trkpt><trkpt lat="43.7333049" lon="11.4235085"><ele>383.75</ele><time>2026-03-29T09:45:27.146Z</time></trkpt><trkpt lat="43.7334285" lon="11.4234458"><ele>384.0</ele><time>2026-03-29T09:45:28.147Z</time></trkpt><trkpt lat="43.7335578" lon="11.4233616"><ele>385.25</ele><time>2026-03-29T09:45:29.147Z</time></trkpt><trkpt lat="43.733688" lon="11.423285"><ele>386.5</ele><time>2026-03-29T09:45:30.147Z</time></trkpt><trkpt lat="43.7338126" lon="11.4232171"><ele>387.75</ele><time>2026-03-29T09:45:31.147Z</time></trkpt><trkpt lat="43.7339212" lon="11.4231813"><ele>389.0</ele><time>2026-03-29T09:45:32.147Z</time></trkpt><trkpt lat="43.7340252" lon="11.4231657"><ele>389.0</ele><time>2026-03-29T09:45:33.147Z</time></trkpt><trkpt lat="43.7341332" lon="11.4231233"><ele>389.0</ele><time>2026-03-29T09:45:34.147Z</time></trkpt><trkpt lat="43.7342534" lon="11.4230625"><ele>389.0</ele><time>2026-03-29T09:45:35.147Z</time></trkpt><trkpt lat="43.7343704" lon="11.4230092"><ele>389.0</ele><time>2026-03-29T09:45:36.147Z</time></trkpt><trkpt lat="43.734477" lon="11.4229609"><ele>390.0</ele><time>2026-03-29T09:45:37.147Z</time></trkpt><trkpt lat="43.7345948" lon="11.4229198"><ele>391.0</ele><time>2026-03-29T09:45:38.147Z</time></trkpt><trkpt lat="43.7347033" lon="11.4228794"><ele>392.0</ele><time>2026-03-29T09:45:39.147Z</time></trkpt><trkpt lat="43.7348024" lon="11.4228172"><ele>393.0</ele><time>2026-03-29T09:45:40.147Z</time></trkpt><trkpt lat="43.734888" lon="11.4227362"><ele>394.0</ele><time>2026-03-29T09:45:41.147Z</time></trkpt><trkpt lat="43.7349562" lon="11.4226463"><ele>394.0</ele><time>2026-03-29T09:45:42.147Z</time></trkpt><trkpt lat="43.7350166" lon="11.4225515"><ele>394.0</ele><time>2026-03-29T09:45:43.147Z</time></trkpt><trkpt lat="43.7350924" lon="11.4224999"><ele>394.0</ele><time>2026-03-29T09:45:44.147Z</time></trkpt><trkpt lat="43.7351812" lon="11.4224898"><ele>394.0</ele><time>2026-03-29T09:45:45.147Z</time></trkpt><trkpt lat="43.7352999" lon="11.4225104"><ele>394.0</ele><time>2026-03-29T09:45:46.147Z</time></trkpt><trkpt lat="43.7354208" lon="11.4225379"><ele>394.00000000000006</ele><time>2026-03-29T09:45:47.147Z</time></trkpt><trkpt lat="43.7355173" lon="11.4225559"><ele>394.0</ele><time>2026-03-29T09:45:48.147Z</time></trkpt><trkpt lat="43.7355881" lon="11.4225488"><ele>394.0</ele><time>2026-03-29T09:45:49.147Z</time></trkpt><trkpt lat="43.7356872" lon="11.4225503"><ele>394.0</ele><time>2026-03-29T09:45:51.147Z</time></trkpt><trkpt lat="43.7357575" lon="11.4225973"><ele>394.00000000000006</ele><time>2026-03-29T09:46:01.147Z</time></trkpt><trkpt lat="43.7358071" lon="11.4225423"><ele>394.0</ele><time>2026-03-29T09:46:03.147Z</time></trkpt><trkpt lat="43.7358697" lon="11.4224839"><ele>394.0</ele><time>2026-03-29T09:46:05.147Z</time></trkpt><trkpt lat="43.7359328" lon="11.4224872"><ele>394.0</ele><time>2026-03-29T09:46:06.147Z</time></trkpt><trkpt lat="43.7360001" lon="11.4224947"><ele>394.0</ele><time>2026-03-29T09:46:07.147Z</time></trkpt><trkpt lat="43.7360652" lon="11.4225172"><ele>394.0</ele><time>2026-03-29T09:46:08.147Z</time></trkpt><trkpt lat="43.7361266" lon="11.4225603"><ele>394.0</ele><time>2026-03-29T09:46:09.146Z</time></trkpt><trkpt lat="43.736188" lon="11.4226163"><ele>394.0</ele><time>2026-03-29T09:46:10.146Z</time></trkpt><trkpt lat="43.7362533" lon="11.4226743"><ele>394.0</ele><time>2026-03-29T09:46:11.147Z</time></trkpt><trkpt lat="43.7363166" lon="11.4227276"><ele>393.1666666666667</ele><time>2026-03-29T09:46:12.147Z</time></trkpt><trkpt lat="43.7363735" lon="11.4227715"><ele>392.33333333333337</ele><time>2026-03-29T09:46:13.147Z</time></trkpt><trkpt lat="43.7364454" lon="11.4228116"><ele>391.5</ele><time>2026-03-29T09:46:15.147Z</time></trkpt><trkpt lat="43.7363899" lon="11.4227462"><ele>390.66666666666663</ele><time>2026-03-29T09:46:21.147Z</time></trkpt><trkpt lat="43.7363206" lon="11.4226891"><ele>389.8333333333333</ele><time>2026-03-29T09:46:22.146Z</time></trkpt><trkpt lat="43.7362213" lon="11.4226153"><ele>389.0</ele><time>2026-03-29T09:46:23.147Z</time></trkpt><trkpt lat="43.736141" lon="11.4225473"><ele>388.99999999999994</ele><time>2026-03-29T09:46:24.147Z</time></trkpt><trkpt lat="43.7360689" lon="11.4225022"><ele>389.0</ele><time>2026-03-29T09:46:25.147Z</time></trkpt><trkpt lat="43.7360033" lon="11.4224857"><ele>389.0</ele><time>2026-03-29T09:46:26.147Z</time></trkpt><trkpt lat="43.7358988" lon="11.4224829"><ele>389.0</ele><time>2026-03-29T09:46:28.147Z</time></trkpt><trkpt lat="43.7357998" lon="11.4225256"><ele>388.99999999999994</ele><time>2026-03-29T09:46:30.147Z</time></trkpt><trkpt lat="43.7357702" lon="11.4226141"><ele>389.0</ele><time>2026-03-29T09:46:32.147Z</time></trkpt><trkpt lat="43.735843" lon="11.4227192"><ele>389.8333333333333</ele><time>2026-03-29T09:46:34.147Z</time></trkpt><trkpt lat="43.7359018" lon="11.4227771"><ele>390.66666666666663</ele><time>2026-03-29T09:46:35.147Z</time></trkpt><trkpt lat="43.7359707" lon="11.4228419"><ele>391.5</ele><time>2026-03-29T09:46:36.147Z</time></trkpt><trkpt lat="43.7360432" lon="11.4229126"><ele>392.33333333333337</ele><time>2026-03-29T09:46:37.147Z</time></trkpt><trkpt lat="43.7361157" lon="11.4229814"><ele>393.1666666666667</ele><time>2026-03-29T09:46:38.147Z</time></trkpt><trkpt lat="43.7361783" lon="11.4230472"><ele>394.0</ele><time>2026-03-29T09:46:39.147Z</time></trkpt><trkpt lat="43.7362228" lon="11.4231218"><ele>394.83333333333337</ele><time>2026-03-29T09:46:40.147Z</time></trkpt><trkpt lat="43.7363113" lon="11.4232468"><ele>395.6666666666667</ele><time>2026-03-29T09:46:42.147Z</time></trkpt><trkpt lat="43.7363768" lon="11.4232938"><ele>396.5</ele><time>2026-03-29T09:46:43.147Z</time></trkpt><trkpt lat="43.7364486" lon="11.4233209"><ele>397.33333333333337</ele><time>2026-03-29T09:46:44.147Z</time></trkpt><trkpt lat="43.7365156" lon="11.4233405"><ele>398.1666666666667</ele><time>2026-03-29T09:46:45.147Z</time></trkpt><trkpt lat="43.736585" lon="11.4233575"><ele>399.0</ele><time>2026-03-29T09:46:46.147Z</time></trkpt><trkpt lat="43.7366556" lon="11.4233646"><ele>399.0</ele><time>2026-03-29T09:46:47.146Z</time></trkpt><trkpt lat="43.7367311" lon="11.4233731"><ele>399.0</ele><time>2026-03-29T09:46:48.147Z</time></trkpt><trkpt lat="43.736813" lon="11.42339"><ele>399.0</ele><time>2026-03-29T09:46:49.147Z</time></trkpt><trkpt lat="43.7368974" lon="11.4234159"><ele>399.0</ele><time>2026-03-29T09:46:50.147Z</time></trkpt><trkpt lat="43.7369816" lon="11.4234508"><ele>399.0</ele><time>2026-03-29T09:46:51.147Z</time></trkpt><trkpt lat="43.7370619" lon="11.4234944"><ele>399.0</ele><time>2026-03-29T09:46:52.147Z</time></trkpt><trkpt lat="43.7371366" lon="11.423544"><ele>398.8333333333333</ele><time>2026-03-29T09:46:53.147Z</time></trkpt><trkpt lat="43.7372026" lon="11.423594"><ele>398.66666666666663</ele><time>2026-03-29T09:46:54.147Z</time></trkpt><trkpt lat="43.7372618" lon="11.4236518"><ele>398.5</ele><time>2026-03-29T09:46:55.147Z</time></trkpt><trkpt lat="43.7373267" lon="11.4237325"><ele>398.3333333333333</ele><time>2026-03-29T09:46:56.147Z</time></trkpt><trkpt lat="43.7373892" lon="11.4238247"><ele>398.16666666666663</ele><time>2026-03-29T09:46:57.147Z</time></trkpt><trkpt lat="43.7374577" lon="11.4239116"><ele>398.0</ele><time>2026-03-29T09:46:58.147Z</time></trkpt><trkpt lat="43.7375308" lon="11.4239984"><ele>398.99999999999994</ele><time>2026-03-29T09:46:59.147Z</time></trkpt><trkpt lat="43.737604" lon="11.4240889"><ele>400.0</ele><time>2026-03-29T09:47:00.148Z</time></trkpt><trkpt lat="43.7376618" lon="11.4241665"><ele>401.0</ele><time>2026-03-29T09:47:01.148Z</time></trkpt><trkpt lat="43.7377175" lon="11.4242339"><ele>402.0</ele><time>2026-03-29T09:47:02.148Z</time></trkpt><trkpt lat="43.7377698" lon="11.4242969"><ele>402.99999999999994</ele><time>2026-03-29T09:47:03.148Z</time></trkpt><trkpt lat="43.7378784" lon="11.424364"><ele>404.0</ele><time>2026-03-29T09:47:05.148Z</time></trkpt><trkpt lat="43.7379352" lon="11.4244028"><ele>403.99999999999994</ele><time>2026-03-29T09:47:06.148Z</time></trkpt><trkpt lat="43.7379966" lon="11.424465"><ele>404.0</ele><time>2026-03-29T09:47:07.148Z</time></trkpt><trkpt lat="43.7380459" lon="11.424534"><ele>404.0</ele><time>2026-03-29T09:47:08.148Z</time></trkpt><trkpt lat="43.7380984" lon="11.4246116"><ele>404.0</ele><time>2026-03-29T09:47:09.148Z</time></trkpt><trkpt lat="43.7381504" lon="11.4246955"><ele>403.99999999999994</ele><time>2026-03-29T09:47:10.148Z</time></trkpt><trkpt lat="43.7381913" lon="11.4247969"><ele>404.0</ele><time>2026-03-29T09:47:11.148Z</time></trkpt><trkpt lat="43.7382342" lon="11.4249081"><ele>404.2</ele><time>2026-03-29T09:47:12.148Z</time></trkpt><trkpt lat="43.7382806" lon="11.4250328"><ele>404.4</ele><time>2026-03-29T09:47:13.148Z</time></trkpt><trkpt lat="43.7383223" lon="11.4251427"><ele>404.6</ele><time>2026-03-29T09:47:14.148Z</time></trkpt><trkpt lat="43.7383717" lon="11.4252447"><ele>404.8</ele><time>2026-03-29T09:47:15.148Z</time></trkpt><trkpt lat="43.7384206" lon="11.4253251"><ele>405.0</ele><time>2026-03-29T09:47:16.148Z</time></trkpt><trkpt lat="43.73851" lon="11.4253981"><ele>404.5</ele><time>2026-03-29T09:47:18.147Z</time></trkpt><trkpt lat="43.7386126" lon="11.4254497"><ele>404.0</ele><time>2026-03-29T09:47:20.148Z</time></trkpt><trkpt lat="43.7387244" lon="11.4254749"><ele>403.5</ele><time>2026-03-29T09:47:22.148Z</time></trkpt><trkpt lat="43.7387927" lon="11.4254761"><ele>403.0</ele><time>2026-03-29T09:47:23.148Z</time></trkpt><trkpt lat="43.7388561" lon="11.4254744"><ele>402.5</ele><time>2026-03-29T09:47:24.148Z</time></trkpt><trkpt lat="43.7389207" lon="11.425474"><ele>402.0</ele><time>2026-03-29T09:47:25.148Z</time></trkpt><trkpt lat="43.7389862" lon="11.4254827"><ele>402.0</ele><time>2026-03-29T09:47:26.148Z</time></trkpt><trkpt lat="43.7390837" lon="11.4254853"><ele>402.0</ele><time>2026-03-29T09:47:28.148Z</time></trkpt><trkpt lat="43.7391656" lon="11.4254823"><ele>402.0</ele><time>2026-03-29T09:47:31.148Z</time></trkpt><trkpt lat="43.7392601" lon="11.4254826"><ele>402.0</ele><time>2026-03-29T09:47:33.148Z</time></trkpt><trkpt lat="43.7393344" lon="11.4254684"><ele>402.0</ele><time>2026-03-29T09:47:34.148Z</time></trkpt><trkpt lat="43.739412" lon="11.4254748"><ele>402.0</ele><time>2026-03-29T09:47:35.148Z</time></trkpt><trkpt lat="43.7394919" lon="11.4254849"><ele>401.5</ele><time>2026-03-29T09:47:36.148Z</time></trkpt><trkpt lat="43.7395666" lon="11.4255026"><ele>401.0</ele><time>2026-03-29T09:47:37.148Z</time></trkpt><trkpt lat="43.7396433" lon="11.4255429"><ele>400.5</ele><time>2026-03-29T09:47:38.148Z</time></trkpt><trkpt lat="43.7397212" lon="11.4256006"><ele>400.0</ele><time>2026-03-29T09:47:39.148Z</time></trkpt><trkpt lat="43.7397872" lon="11.4256486"><ele>399.5</ele><time>2026-03-29T09:47:40.148Z</time></trkpt><trkpt lat="43.7398455" lon="11.4256989"><ele>399.0</ele><time>2026-03-29T09:47:41.148Z</time></trkpt><trkpt lat="43.7399067" lon="11.4257575"><ele>399.0</ele><time>2026-03-29T09:47:42.148Z</time></trkpt><trkpt lat="43.7399697" lon="11.4258299"><ele>399.0</ele><time>2026-03-29T09:47:43.148Z</time></trkpt><trkpt lat="43.7400226" lon="11.4258929"><ele>399.0</ele><time>2026-03-29T09:47:44.148Z</time></trkpt><trkpt lat="43.7400728" lon="11.4259612"><ele>399.0</ele><time>2026-03-29T09:47:45.148Z</time></trkpt><trkpt lat="43.7401238" lon="11.4260403"><ele>399.0</ele><time>2026-03-29T09:47:46.148Z</time></trkpt><trkpt lat="43.7401668" lon="11.426131"><ele>399.0</ele><time>2026-03-29T09:47:47.148Z</time></trkpt><trkpt lat="43.7402131" lon="11.4262179"><ele>397.3333333333333</ele><time>2026-03-29T09:47:48.148Z</time></trkpt><trkpt lat="43.7402611" lon="11.4262946"><ele>395.66666666666663</ele><time>2026-03-29T09:47:49.148Z</time></trkpt><trkpt lat="43.7403173" lon="11.4263786"><ele>394.0</ele><time>2026-03-29T09:47:50.148Z</time></trkpt><trkpt lat="43.7403674" lon="11.4264504"><ele>392.3333333333333</ele><time>2026-03-29T09:47:51.148Z</time></trkpt><trkpt lat="43.7404553" lon="11.4265014"><ele>390.66666666666663</ele><time>2026-03-29T09:47:53.148Z</time></trkpt><trkpt lat="43.7405258" lon="11.4264163"><ele>389.0</ele><time>2026-03-29T09:47:56.148Z</time></trkpt><trkpt lat="43.7405338" lon="11.4263231"><ele>389.0</ele><time>2026-03-29T09:47:57.148Z</time></trkpt><trkpt lat="43.7405376" lon="11.4261884"><ele>389.0</ele><time>2026-03-29T09:47:58.148Z</time></trkpt><trkpt lat="43.7405486" lon="11.4260514"><ele>389.0</ele><time>2026-03-29T09:47:59.148Z</time></trkpt><trkpt lat="43.7405519" lon="11.4259454"><ele>389.0</ele><time>2026-03-29T09:48:00.148Z</time></trkpt><trkpt lat="43.7405082" lon="11.4257952"><ele>389.0</ele><time>2026-03-29T09:48:02.148Z</time></trkpt><trkpt lat="43.7404704" lon="11.4257056"><ele>389.0</ele><time>2026-03-29T09:48:03.148Z</time></trkpt><trkpt lat="43.7403639" lon="11.4256022"><ele>389.0</ele><time>2026-03-29T09:48:05.148Z</time></trkpt><trkpt lat="43.7402922" lon="11.4255668"><ele>389.0</ele><time>2026-03-29T09:48:06.147Z</time></trkpt><trkpt lat="43.7401878" lon="11.4255298"><ele>389.0</ele><time>2026-03-29T09:48:07.148Z</time></trkpt><trkpt lat="43.7400927" lon="11.4254865"><ele>389.0</ele><time>2026-03-29T09:48:08.148Z</time></trkpt><trkpt lat="43.7399807" lon="11.4254125"><ele>389.4</ele><time>2026-03-29T09:48:09.148Z</time></trkpt><trkpt lat="43.7398811" lon="11.4253482"><ele>389.79999999999995</ele><time>2026-03-29T09:48:10.148Z</time></trkpt><trkpt lat="43.7397881" lon="11.4252814"><ele>390.20000000000005</ele><time>2026-03-29T09:48:11.148Z</time></trkpt><trkpt lat="43.7396972" lon="11.4252166"><ele>390.6</ele><time>2026-03-29T09:48:12.148Z</time></trkpt><trkpt lat="43.7396214" lon="11.4251538"><ele>391.0</ele><time>2026-03-29T09:48:13.148Z</time></trkpt><trkpt lat="43.739563" lon="11.4250847"><ele>391.00000000000006</ele><time>2026-03-29T09:48:14.148Z</time></trkpt><trkpt lat="43.7395087" lon="11.4250014"><ele>391.0</ele><time>2026-03-29T09:48:15.148Z</time></trkpt><trkpt lat="43.7394473" lon="11.4248964"><ele>391.0</ele><time>2026-03-29T09:48:16.148Z</time></trkpt><trkpt lat="43.7394014" lon="11.4247791"><ele>391.0</ele><time>2026-03-29T09:48:17.148Z</time></trkpt><trkpt lat="43.7393716" lon="11.4246733"><ele>391.00000000000006</ele><time>2026-03-29T09:48:18.148Z</time></trkpt><trkpt lat="43.7393495" lon="11.4245816"><ele>391.0</ele><time>2026-03-29T09:48:19.147Z</time></trkpt><trkpt lat="43.739327" lon="11.4244981"><ele>392.6</ele><time>2026-03-29T09:48:20.148Z</time></trkpt><trkpt lat="43.739312" lon="11.4244018"><ele>394.20000000000005</ele><time>2026-03-29T09:48:21.148Z</time></trkpt><trkpt lat="43.73931" lon="11.4242878"><ele>395.79999999999995</ele><time>2026-03-29T09:48:22.148Z</time></trkpt><trkpt lat="43.7393076" lon="11.4241265"><ele>397.4</ele><time>2026-03-29T09:48:23.148Z</time></trkpt><trkpt lat="43.7393051" lon="11.4239739"><ele>399.0</ele><time>2026-03-29T09:48:24.148Z</time></trkpt><trkpt lat="43.7393004" lon="11.4238252"><ele>398.2</ele><time>2026-03-29T09:48:25.148Z</time></trkpt><trkpt lat="43.7392967" lon="11.4236775"><ele>397.4</ele><time>2026-03-29T09:48:26.148Z</time></trkpt><trkpt lat="43.7392937" lon="11.4235308"><ele>396.6</ele><time>2026-03-29T09:48:27.148Z</time></trkpt><trkpt lat="43.7392789" lon="11.4233873"><ele>395.8</ele><time>2026-03-29T09:48:28.148Z</time></trkpt><trkpt lat="43.7392635" lon="11.4232605"><ele>395.0</ele><time>2026-03-29T09:48:29.148Z</time></trkpt><trkpt lat="43.7392563" lon="11.4231355"><ele>395.0</ele><time>2026-03-29T09:48:30.148Z</time></trkpt><trkpt lat="43.7392497" lon="11.4230068"><ele>395.0</ele><time>2026-03-29T09:48:31.147Z</time></trkpt><trkpt lat="43.7392523" lon="11.4228731"><ele>395.0</ele><time>2026-03-29T09:48:32.148Z</time></trkpt><trkpt lat="43.7392598" lon="11.4227359"><ele>395.0</ele><time>2026-03-29T09:48:33.148Z</time></trkpt><trkpt lat="43.7392802" lon="11.4225913"><ele>395.0</ele><time>2026-03-29T09:48:34.148Z</time></trkpt><trkpt lat="43.7393025" lon="11.4224528"><ele>394.2</ele><time>2026-03-29T09:48:35.148Z</time></trkpt><trkpt lat="43.7393352" lon="11.4223261"><ele>393.4</ele><time>2026-03-29T09:48:36.148Z</time></trkpt><trkpt lat="43.7393688" lon="11.4221988"><ele>392.6</ele><time>2026-03-29T09:48:37.148Z</time></trkpt><trkpt lat="43.7394161" lon="11.4220495"><ele>391.8</ele><time>2026-03-29T09:48:38.148Z</time></trkpt><trkpt lat="43.7394638" lon="11.4219006"><ele>391.0</ele><time>2026-03-29T09:48:39.148Z</time></trkpt><trkpt lat="43.7395063" lon="11.4217488"><ele>389.0</ele><time>2026-03-29T09:48:40.148Z</time></trkpt><trkpt lat="43.7395298" lon="11.4215844"><ele>387.0</ele><time>2026-03-29T09:48:41.148Z</time></trkpt><trkpt lat="43.739547" lon="11.4214177"><ele>385.0</ele><time>2026-03-29T09:48:42.148Z</time></trkpt><trkpt lat="43.7395534" lon="11.4212517"><ele>383.0</ele><time>2026-03-29T09:48:43.148Z</time></trkpt><trkpt lat="43.7395521" lon="11.4210876"><ele>383.0</ele><time>2026-03-29T09:48:44.148Z</time></trkpt><trkpt lat="43.739549" lon="11.4209232"><ele>383.0</ele><time>2026-03-29T09:48:45.148Z</time></trkpt><trkpt lat="43.7395383" lon="11.4207611"><ele>383.0</ele><time>2026-03-29T09:48:46.148Z</time></trkpt><trkpt lat="43.7395341" lon="11.4206226"><ele>383.0</ele><time>2026-03-29T09:48:47.148Z</time></trkpt><trkpt lat="43.7395062" lon="11.4204988"><ele>383.0</ele><time>2026-03-29T09:48:48.148Z</time></trkpt><trkpt lat="43.7394839" lon="11.4203905"><ele>384.6666666666667</ele><time>2026-03-29T09:48:49.148Z</time></trkpt><trkpt lat="43.7394765" lon="11.4202878"><ele>386.33333333333337</ele><time>2026-03-29T09:48:50.148Z</time></trkpt><trkpt lat="43.7394818" lon="11.4201857"><ele>388.0</ele><time>2026-03-29T09:48:51.148Z</time></trkpt><trkpt lat="43.7394792" lon="11.4200933"><ele>389.6666666666667</ele><time>2026-03-29T09:48:52.148Z</time></trkpt><trkpt lat="43.7394803" lon="11.4199248"><ele>391.3333333333333</ele><time>2026-03-29T09:48:54.148Z</time></trkpt><trkpt lat="43.7394968" lon="11.4198364"><ele>393.0</ele><time>2026-03-29T09:48:55.148Z</time></trkpt><trkpt lat="43.7395417" lon="11.419741"><ele>392.4</ele><time>2026-03-29T09:48:56.148Z</time></trkpt><trkpt lat="43.7395846" lon="11.4196428"><ele>391.79999999999995</ele><time>2026-03-29T09:48:57.148Z</time></trkpt><trkpt lat="43.7396141" lon="11.4195289"><ele>391.2</ele><time>2026-03-29T09:48:58.148Z</time></trkpt><trkpt lat="43.739598" lon="11.4193807"><ele>390.6</ele><time>2026-03-29T09:48:59.148Z</time></trkpt><trkpt lat="43.7395698" lon="11.4192247"><ele>390.0</ele><time>2026-03-29T09:49:00.147Z</time></trkpt><trkpt lat="43.7395227" lon="11.419077"><ele>390.0</ele><time>2026-03-29T09:49:01.148Z</time></trkpt><trkpt lat="43.7394672" lon="11.4189047"><ele>390.0</ele><time>2026-03-29T09:49:02.148Z</time></trkpt><trkpt lat="43.7394154" lon="11.4187088"><ele>390.0</ele><time>2026-03-29T09:49:03.148Z</time></trkpt><trkpt lat="43.7393558" lon="11.4185094"><ele>390.0</ele><time>2026-03-29T09:49:04.148Z</time></trkpt><trkpt lat="43.7392967" lon="11.4183124"><ele>387.3333333333333</ele><time>2026-03-29T09:49:05.148Z</time></trkpt><trkpt lat="43.7392388" lon="11.4181096"><ele>384.66666666666663</ele><time>2026-03-29T09:49:06.148Z</time></trkpt><trkpt lat="43.7391754" lon="11.4178907"><ele>382.0</ele><time>2026-03-29T09:49:07.148Z</time></trkpt><trkpt lat="43.7391065" lon="11.417674"><ele>380.66666666666663</ele><time>2026-03-29T09:49:08.148Z</time></trkpt><trkpt lat="43.7390384" lon="11.4174544"><ele>379.3333333333333</ele><time>2026-03-29T09:49:09.148Z</time></trkpt><trkpt lat="43.7389681" lon="11.4172322"><ele>378.0</ele><time>2026-03-29T09:49:10.148Z</time></trkpt><trkpt lat="43.7389004" lon="11.417016"><ele>377.0</ele><time>2026-03-29T09:49:11.148Z</time></trkpt><trkpt lat="43.738837" lon="11.4168133"><ele>376.0</ele><time>2026-03-29T09:49:12.148Z</time></trkpt><trkpt lat="43.7387858" lon="11.4166461"><ele>375.0</ele><time>2026-03-29T09:49:13.147Z</time></trkpt><trkpt lat="43.7387312" lon="11.4164975"><ele>374.0</ele><time>2026-03-29T09:49:14.148Z</time></trkpt><trkpt lat="43.7386954" lon="11.4163799"><ele>372.83333333333337</ele><time>2026-03-29T09:49:15.148Z</time></trkpt><trkpt lat="43.7386703" lon="11.4162904"><ele>371.6666666666667</ele><time>2026-03-29T09:49:16.148Z</time></trkpt><trkpt lat="43.7386411" lon="11.4161985"><ele>370.5</ele><time>2026-03-29T09:49:17.148Z</time></trkpt><trkpt lat="43.7386187" lon="11.4160889"><ele>369.3333333333333</ele><time>2026-03-29T09:49:18.148Z</time></trkpt><trkpt lat="43.7385913" lon="11.4159571"><ele>368.16666666666663</ele><time>2026-03-29T09:49:19.148Z</time></trkpt><trkpt lat="43.7385669" lon="11.4158136"><ele>367.0</ele><time>2026-03-29T09:49:20.148Z</time></trkpt><trkpt lat="43.7385413" lon="11.415669"><ele>371.6</ele><time>2026-03-29T09:49:21.148Z</time></trkpt><trkpt lat="43.738524" lon="11.4155175"><ele>376.20000000000005</ele><time>2026-03-29T09:49:22.148Z</time></trkpt><trkpt lat="43.7385035" lon="11.4153646"><ele>380.8</ele><time>2026-03-29T09:49:23.148Z</time></trkpt><trkpt lat="43.7384854" lon="11.4152217"><ele>385.4</ele><time>2026-03-29T09:49:24.148Z</time></trkpt><trkpt lat="43.7384719" lon="11.4150765"><ele>390.0</ele><time>2026-03-29T09:49:25.148Z</time></trkpt><trkpt lat="43.7384515" lon="11.4149432"><ele>390.0</ele><time>2026-03-29T09:49:26.148Z</time></trkpt><trkpt lat="43.7384382" lon="11.4148179"><ele>390.0</ele><time>2026-03-29T09:49:27.148Z</time></trkpt><trkpt lat="43.7384211" lon="11.4146988"><ele>390.0</ele><time>2026-03-29T09:49:28.148Z</time></trkpt><trkpt lat="43.7384061" lon="11.414587"><ele>390.0</ele><time>2026-03-29T09:49:29.147Z</time></trkpt><trkpt lat="43.7384044" lon="11.4144832"><ele>390.0</ele><time>2026-03-29T09:49:30.148Z</time></trkpt><trkpt lat="43.7384298" lon="11.414394"><ele>390.0</ele><time>2026-03-29T09:49:31.148Z</time></trkpt><trkpt lat="43.7384751" lon="11.4143045"><ele>389.2</ele><time>2026-03-29T09:49:32.148Z</time></trkpt><trkpt lat="43.7385201" lon="11.4142035"><ele>388.4</ele><time>2026-03-29T09:49:33.148Z</time></trkpt><trkpt lat="43.7385629" lon="11.4140761"><ele>387.6</ele><time>2026-03-29T09:49:34.148Z</time></trkpt><trkpt lat="43.7386056" lon="11.4139411"><ele>386.8</ele><time>2026-03-29T09:49:35.148Z</time></trkpt><trkpt lat="43.7386351" lon="11.4137603"><ele>386.0</ele><time>2026-03-29T09:49:36.148Z</time></trkpt><trkpt lat="43.7386619" lon="11.413562"><ele>383.4</ele><time>2026-03-29T09:49:37.148Z</time></trkpt><trkpt lat="43.738673" lon="11.4133824"><ele>380.8</ele><time>2026-03-29T09:49:38.148Z</time></trkpt><trkpt lat="43.7386838" lon="11.4132298"><ele>378.2</ele><time>2026-03-29T09:49:39.148Z</time></trkpt><trkpt lat="43.7386926" lon="11.4131088"><ele>375.59999999999997</ele><time>2026-03-29T09:49:40.148Z</time></trkpt><trkpt lat="43.7387191" lon="11.4130158"><ele>373.0</ele><time>2026-03-29T09:49:41.147Z</time></trkpt><trkpt lat="43.7387708" lon="11.4129397"><ele>373.0</ele><time>2026-03-29T09:49:42.148Z</time></trkpt><trkpt lat="43.7388454" lon="11.4128593"><ele>373.0</ele><time>2026-03-29T09:49:43.148Z</time></trkpt><trkpt lat="43.7389303" lon="11.412803"><ele>373.0</ele><time>2026-03-29T09:49:44.148Z</time></trkpt><trkpt lat="43.7390254" lon="11.4127417"><ele>373.0</ele><time>2026-03-29T09:49:45.148Z</time></trkpt><trkpt lat="43.7391185" lon="11.412674"><ele>373.0</ele><time>2026-03-29T09:49:46.147Z</time></trkpt><trkpt lat="43.7392246" lon="11.4125972"><ele>373.0</ele><time>2026-03-29T09:49:47.148Z</time></trkpt><trkpt lat="43.739345" lon="11.4124984"><ele>373.0</ele><time>2026-03-29T09:49:48.148Z</time></trkpt><trkpt lat="43.7394593" lon="11.4124034"><ele>373.0</ele><time>2026-03-29T09:49:49.148Z</time></trkpt><trkpt lat="43.7395777" lon="11.4123142"><ele>373.0</ele><time>2026-03-29T09:49:50.148Z</time></trkpt><trkpt lat="43.739678" lon="11.412233"><ele>370.0</ele><time>2026-03-29T09:49:51.148Z</time></trkpt><trkpt lat="43.7397773" lon="11.4121548"><ele>367.0</ele><time>2026-03-29T09:49:52.148Z</time></trkpt><trkpt lat="43.7398683" lon="11.4120581"><ele>364.0</ele><time>2026-03-29T09:49:53.147Z</time></trkpt><trkpt lat="43.7399559" lon="11.4119483"><ele>361.0</ele><time>2026-03-29T09:49:54.148Z</time></trkpt><trkpt lat="43.7400339" lon="11.4118176"><ele>361.0</ele><time>2026-03-29T09:49:55.148Z</time></trkpt><trkpt lat="43.7401102" lon="11.4116893"><ele>361.0</ele><time>2026-03-29T09:49:56.148Z</time></trkpt><trkpt lat="43.7401885" lon="11.4115678"><ele>361.0</ele><time>2026-03-29T09:49:57.148Z</time></trkpt><trkpt lat="43.7402798" lon="11.4114693"><ele>361.0</ele><time>2026-03-29T09:49:58.148Z</time></trkpt><trkpt lat="43.7403774" lon="11.4114003"><ele>359.66666666666663</ele><time>2026-03-29T09:49:59.148Z</time></trkpt><trkpt lat="43.7404683" lon="11.4113407"><ele>358.3333333333333</ele><time>2026-03-29T09:50:00.148Z</time></trkpt><trkpt lat="43.7405467" lon="11.4112813"><ele>357.0</ele><time>2026-03-29T09:50:01.148Z</time></trkpt><trkpt lat="43.7406309" lon="11.4112308"><ele>355.6666666666667</ele><time>2026-03-29T09:50:02.147Z</time></trkpt><trkpt lat="43.7407032" lon="11.4111781"><ele>354.33333333333337</ele><time>2026-03-29T09:50:03.148Z</time></trkpt><trkpt lat="43.7407744" lon="11.4111337"><ele>353.0</ele><time>2026-03-29T09:50:04.148Z</time></trkpt><trkpt lat="43.7408395" lon="11.4110834"><ele>353.0</ele><time>2026-03-29T09:50:05.148Z</time></trkpt><trkpt lat="43.7408997" lon="11.4110348"><ele>353.0</ele><time>2026-03-29T09:50:06.148Z</time></trkpt><trkpt lat="43.7409534" lon="11.4109654"><ele>353.0</ele><time>2026-03-29T09:50:07.148Z</time></trkpt><trkpt lat="43.7409974" lon="11.4108737"><ele>353.0</ele><time>2026-03-29T09:50:08.148Z</time></trkpt><trkpt lat="43.7410324" lon="11.4107757"><ele>353.0</ele><time>2026-03-29T09:50:09.148Z</time></trkpt><trkpt lat="43.7410606" lon="11.4106861"><ele>353.0</ele><time>2026-03-29T09:50:10.148Z</time></trkpt><trkpt lat="43.7410885" lon="11.4105941"><ele>353.0</ele><time>2026-03-29T09:50:11.148Z</time></trkpt><trkpt lat="43.7411321" lon="11.4104739"><ele>348.59999999999997</ele><time>2026-03-29T09:50:13.148Z</time></trkpt><trkpt lat="43.7412078" lon="11.410438"><ele>344.2</ele><time>2026-03-29T09:50:15.148Z</time></trkpt><trkpt lat="43.7412779" lon="11.4105288"><ele>339.8</ele><time>2026-03-29T09:50:17.148Z</time></trkpt><trkpt lat="43.7412609" lon="11.4107309"><ele>335.4</ele><time>2026-03-29T09:50:19.148Z</time></trkpt><trkpt lat="43.7412202" lon="11.41087"><ele>331.0</ele><time>2026-03-29T09:50:20.148Z</time></trkpt><trkpt lat="43.7411819" lon="11.4110019"><ele>330.3333333333333</ele><time>2026-03-29T09:50:21.148Z</time></trkpt><trkpt lat="43.7411508" lon="11.4111222"><ele>329.66666666666663</ele><time>2026-03-29T09:50:22.148Z</time></trkpt><trkpt lat="43.7411206" lon="11.411249"><ele>329.0</ele><time>2026-03-29T09:50:23.148Z</time></trkpt><trkpt lat="43.7410956" lon="11.411361"><ele>328.3333333333333</ele><time>2026-03-29T09:50:24.148Z</time></trkpt><trkpt lat="43.7410808" lon="11.4114662"><ele>327.6666666666667</ele><time>2026-03-29T09:50:25.148Z</time></trkpt><trkpt lat="43.7410705" lon="11.4115549"><ele>327.0</ele><time>2026-03-29T09:50:26.148Z</time></trkpt><trkpt lat="43.7411263" lon="11.4116751"><ele>327.0</ele><time>2026-03-29T09:50:28.148Z</time></trkpt><trkpt lat="43.74122" lon="11.4116555"><ele>327.0</ele><time>2026-03-29T09:50:30.148Z</time></trkpt><trkpt lat="43.7413103" lon="11.4115114"><ele>327.0</ele><time>2026-03-29T09:50:32.148Z</time></trkpt><trkpt lat="43.7413756" lon="11.4114205"><ele>327.0</ele><time>2026-03-29T09:50:33.148Z</time></trkpt><trkpt lat="43.7414416" lon="11.4113089"><ele>327.0</ele><time>2026-03-29T09:50:34.148Z</time></trkpt><trkpt lat="43.7415073" lon="11.4111949"><ele>327.0</ele><time>2026-03-29T09:50:35.148Z</time></trkpt><trkpt lat="43.7415637" lon="11.4110912"><ele>327.0</ele><time>2026-03-29T09:50:36.148Z</time></trkpt><trkpt lat="43.7416182" lon="11.41099"><ele>327.0</ele><time>2026-03-29T09:50:37.148Z</time></trkpt><trkpt lat="43.7416739" lon="11.4108938"><ele>327.0</ele><time>2026-03-29T09:50:38.148Z</time></trkpt><trkpt lat="43.7417325" lon="11.4108139"><ele>327.0</ele><time>2026-03-29T09:50:39.148Z</time></trkpt><trkpt lat="43.7417901" lon="11.4107608"><ele>327.0</ele><time>2026-03-29T09:50:40.148Z</time></trkpt><trkpt lat="43.7419142" lon="11.4107318"><ele>325.0</ele><time>2026-03-29T09:50:42.148Z</time></trkpt><trkpt lat="43.7420425" lon="11.4107392"><ele>323.0</ele><time>2026-03-29T09:50:44.148Z</time></trkpt><trkpt lat="43.7421144" lon="11.4107665"><ele>321.0</ele><time>2026-03-29T09:50:45.148Z</time></trkpt><trkpt lat="43.7421824" lon="11.4108027"><ele>319.0</ele><time>2026-03-29T09:50:46.148Z</time></trkpt><trkpt lat="43.742255" lon="11.4108455"><ele>317.0</ele><time>2026-03-29T09:50:47.148Z</time></trkpt><trkpt lat="43.7423287" lon="11.4108847"><ele>315.0</ele><time>2026-03-29T09:50:48.148Z</time></trkpt><trkpt lat="43.7423924" lon="11.4109159"><ele>315.0</ele><time>2026-03-29T09:50:49.148Z</time></trkpt><trkpt lat="43.7424906" lon="11.4109409"><ele>315.0</ele><time>2026-03-29T09:50:51.148Z</time></trkpt><trkpt lat="43.7425704" lon="11.4108993"><ele>315.0</ele><time>2026-03-29T09:50:53.148Z</time></trkpt><trkpt lat="43.7426288" lon="11.4108"><ele>315.0</ele><time>2026-03-29T09:50:55.148Z</time></trkpt><trkpt lat="43.7426931" lon="11.4106671"><ele>315.0</ele><time>2026-03-29T09:50:57.148Z</time></trkpt><trkpt lat="43.7427576" lon="11.4105626"><ele>310.8</ele><time>2026-03-29T09:50:59.148Z</time></trkpt><trkpt lat="43.7428514" lon="11.4105401"><ele>306.6</ele><time>2026-03-29T09:51:01.148Z</time></trkpt><trkpt lat="43.7429367" lon="11.4105436"><ele>302.4</ele><time>2026-03-29T09:51:02.148Z</time></trkpt><trkpt lat="43.743068" lon="11.4105374"><ele>298.2</ele><time>2026-03-29T09:51:03.148Z</time></trkpt><trkpt lat="43.7431912" lon="11.41053"><ele>294.0</ele><time>2026-03-29T09:51:04.148Z</time></trkpt><trkpt lat="43.7432825" lon="11.4105311"><ele>294.0</ele><time>2026-03-29T09:51:05.148Z</time></trkpt><trkpt lat="43.7433686" lon="11.4105262"><ele>294.0</ele><time>2026-03-29T09:51:06.148Z</time></trkpt><trkpt lat="43.7434433" lon="11.4105253"><ele>294.0</ele><time>2026-03-29T09:51:07.148Z</time></trkpt><trkpt lat="43.7435171" lon="11.4105249"><ele>294.0</ele><time>2026-03-29T09:51:08.148Z</time></trkpt><trkpt lat="43.7436301" lon="11.4105241"><ele>294.0</ele><time>2026-03-29T09:51:10.148Z</time></trkpt><trkpt lat="43.7436964" lon="11.4104937"><ele>294.0</ele><time>2026-03-29T09:51:19.148Z</time></trkpt><trkpt lat="43.7437594" lon="11.4104979"><ele>290.8</ele><time>2026-03-29T09:51:21.148Z</time></trkpt><trkpt lat="43.7438458" lon="11.4105238"><ele>287.59999999999997</ele><time>2026-03-29T09:51:23.148Z</time></trkpt><trkpt lat="43.743933" lon="11.4105339"><ele>284.4</ele><time>2026-03-29T09:51:25.148Z</time></trkpt><trkpt lat="43.744029" lon="11.410519"><ele>281.2</ele><time>2026-03-29T09:51:27.148Z</time></trkpt><trkpt lat="43.7441188" lon="11.4105075"><ele>278.0</ele><time>2026-03-29T09:51:29.148Z</time></trkpt><trkpt lat="43.7442335" lon="11.4105253"><ele>278.0</ele><time>2026-03-29T09:51:31.148Z</time></trkpt><trkpt lat="43.7443492" lon="11.4105564"><ele>278.0</ele><time>2026-03-29T09:51:33.148Z</time></trkpt><trkpt lat="43.7444558" lon="11.4105629"><ele>278.0</ele><time>2026-03-29T09:51:35.148Z</time></trkpt><trkpt lat="43.744519" lon="11.4105587"><ele>278.0</ele><time>2026-03-29T09:51:36.148Z</time></trkpt><trkpt lat="43.7445889" lon="11.4105546"><ele>278.0</ele><time>2026-03-29T09:51:37.148Z</time></trkpt><trkpt lat="43.7446911" lon="11.4105804"><ele>277.0</ele><time>2026-03-29T09:51:39.148Z</time></trkpt><trkpt lat="43.7447555" lon="11.4105941"><ele>276.0</ele><time>2026-03-29T09:51:40.148Z</time></trkpt><trkpt lat="43.7448778" lon="11.4105912"><ele>275.0</ele><time>2026-03-29T09:51:42.148Z</time></trkpt><trkpt lat="43.744972" lon="11.4105673"><ele>274.0</ele><time>2026-03-29T09:51:44.148Z</time></trkpt><trkpt lat="43.7450518" lon="11.4105065"><ele>273.0</ele><time>2026-03-29T09:51:46.148Z</time></trkpt><trkpt lat="43.7451102" lon="11.4104447"><ele>272.0</ele><time>2026-03-29T09:51:47.148Z</time></trkpt><trkpt lat="43.7451889" lon="11.410357"><ele>268.8</ele><time>2026-03-29T09:51:48.148Z</time></trkpt><trkpt lat="43.7452531" lon="11.4102508"><ele>265.6</ele><time>2026-03-29T09:51:49.148Z</time></trkpt><trkpt lat="43.7453093" lon="11.4101704"><ele>262.40000000000003</ele><time>2026-03-29T09:51:50.148Z</time></trkpt><trkpt lat="43.7453572" lon="11.410111"><ele>259.2</ele><time>2026-03-29T09:51:51.148Z</time></trkpt><trkpt lat="43.7454269" lon="11.4099707"><ele>256.0</ele><time>2026-03-29T09:51:53.148Z</time></trkpt><trkpt lat="43.7454951" lon="11.4098899"><ele>255.99999999999997</ele><time>2026-03-29T09:51:55.148Z</time></trkpt><trkpt lat="43.7455717" lon="11.4098249"><ele>256.0</ele><time>2026-03-29T09:51:57.148Z</time></trkpt><trkpt lat="43.7456109" lon="11.4097193"><ele>256.0</ele><time>2026-03-29T09:51:59.148Z</time></trkpt><trkpt lat="43.7456699" lon="11.4095745"><ele>256.0</ele><time>2026-03-29T09:52:01.148Z</time></trkpt><trkpt lat="43.7457005" lon="11.4094862"><ele>255.99999999999997</ele><time>2026-03-29T09:52:02.148Z</time></trkpt><trkpt lat="43.7457356" lon="11.4093828"><ele>256.0</ele><time>2026-03-29T09:52:03.148Z</time></trkpt><trkpt lat="43.7457764" lon="11.4092909"><ele>258.0</ele><time>2026-03-29T09:52:04.148Z</time></trkpt><trkpt lat="43.7458157" lon="11.4092066"><ele>260.0</ele><time>2026-03-29T09:52:05.148Z</time></trkpt><trkpt lat="43.7458567" lon="11.4091215"><ele>262.0</ele><time>2026-03-29T09:52:06.148Z</time></trkpt><trkpt lat="43.745898" lon="11.4090524"><ele>264.0</ele><time>2026-03-29T09:52:07.148Z</time></trkpt><trkpt lat="43.7459398" lon="11.4089814"><ele>266.0</ele><time>2026-03-29T09:52:08.148Z</time></trkpt><trkpt lat="43.7459801" lon="11.4089102"><ele>268.0</ele><time>2026-03-29T09:52:09.147Z</time></trkpt><trkpt lat="43.7460129" lon="11.4088322"><ele>270.0</ele><time>2026-03-29T09:52:10.148Z</time></trkpt><trkpt lat="43.7460343" lon="11.4086455"><ele>265.1666666666667</ele><time>2026-03-29T09:52:12.148Z</time></trkpt><trkpt lat="43.746052" lon="11.4085592"><ele>260.3333333333333</ele><time>2026-03-29T09:52:13.148Z</time></trkpt><trkpt lat="43.7460717" lon="11.4084282"><ele>255.5</ele><time>2026-03-29T09:52:15.148Z</time></trkpt><trkpt lat="43.7461369" lon="11.4083233"><ele>250.66666666666666</ele><time>2026-03-29T09:52:17.147Z</time></trkpt><trkpt lat="43.746195" lon="11.4082823"><ele>245.83333333333331</ele><time>2026-03-29T09:52:20.148Z</time></trkpt><trkpt lat="43.746244" lon="11.4081952"><ele>241.0</ele><time>2026-03-29T09:52:23.148Z</time></trkpt><trkpt lat="43.7463019" lon="11.408142"><ele>241.0</ele><time>2026-03-29T09:52:24.148Z</time></trkpt><trkpt lat="43.7463576" lon="11.4080977"><ele>241.00000000000003</ele><time>2026-03-29T09:52:25.148Z</time></trkpt><trkpt lat="43.7464092" lon="11.4080451"><ele>241.0</ele><time>2026-03-29T09:52:26.148Z</time></trkpt><trkpt lat="43.746455" lon="11.4079811"><ele>241.0</ele><time>2026-03-29T09:52:27.148Z</time></trkpt><trkpt lat="43.7465053" lon="11.4078904"><ele>241.00000000000003</ele><time>2026-03-29T09:52:28.148Z</time></trkpt><trkpt lat="43.7465549" lon="11.4078015"><ele>241.0</ele><time>2026-03-29T09:52:29.148Z</time></trkpt><trkpt lat="43.7465973" lon="11.4077083"><ele>241.0</ele><time>2026-03-29T09:52:30.148Z</time></trkpt><trkpt lat="43.746629" lon="11.4076172"><ele>243.60000000000002</ele><time>2026-03-29T09:52:31.148Z</time></trkpt><trkpt lat="43.7466614" lon="11.4074899"><ele>246.20000000000002</ele><time>2026-03-29T09:52:32.148Z</time></trkpt><trkpt lat="43.7466914" lon="11.4073856"><ele>248.79999999999998</ele><time>2026-03-29T09:52:33.148Z</time></trkpt><trkpt lat="43.7467248" lon="11.4073035"><ele>251.39999999999998</ele><time>2026-03-29T09:52:34.148Z</time></trkpt><trkpt lat="43.7467861" lon="11.4071785"><ele>254.0</ele><time>2026-03-29T09:52:36.148Z</time></trkpt><trkpt lat="43.7468571" lon="11.4070469"><ele>249.00000000000003</ele><time>2026-03-29T09:52:38.148Z</time></trkpt><trkpt lat="43.7468911" lon="11.4069613"><ele>244.0</ele><time>2026-03-29T09:52:39.148Z</time></trkpt><trkpt lat="43.7469271" lon="11.4068822"><ele>239.0</ele><time>2026-03-29T09:52:40.148Z</time></trkpt><trkpt lat="43.7469512" lon="11.4068"><ele>234.0</ele><time>2026-03-29T09:52:41.148Z</time></trkpt><trkpt lat="43.7469842" lon="11.4067187"><ele>229.00000000000003</ele><time>2026-03-29T09:52:42.148Z</time></trkpt><trkpt lat="43.7470219" lon="11.4066086"><ele>224.0</ele><time>2026-03-29T09:52:44.148Z</time></trkpt><trkpt lat="43.7470963" lon="11.4064792"><ele>224.00000000000003</ele><time>2026-03-29T09:52:46.148Z</time></trkpt><trkpt lat="43.7471363" lon="11.4063791"><ele>224.0</ele><time>2026-03-29T09:52:48.148Z</time></trkpt><trkpt lat="43.7471535" lon="11.4062633"><ele>224.0</ele><time>2026-03-29T09:52:50.148Z</time></trkpt><trkpt lat="43.7471177" lon="11.4061407"><ele>224.0</ele><time>2026-03-29T09:52:52.148Z</time></trkpt><trkpt lat="43.7470367" lon="11.4060341"><ele>224.00000000000003</ele><time>2026-03-29T09:52:54.148Z</time></trkpt><trkpt lat="43.7469949" lon="11.4059571"><ele>224.0</ele><time>2026-03-29T09:52:55.147Z</time></trkpt><trkpt lat="43.7469748" lon="11.4058371"><ele>224.33333333333334</ele><time>2026-03-29T09:52:57.148Z</time></trkpt><trkpt lat="43.747003" lon="11.4057294"><ele>224.66666666666669</ele><time>2026-03-29T09:52:59.148Z</time></trkpt><trkpt lat="43.7470467" lon="11.4055924"><ele>225.0</ele><time>2026-03-29T09:53:01.148Z</time></trkpt><trkpt lat="43.7471079" lon="11.4055012"><ele>225.33333333333331</ele><time>2026-03-29T09:53:02.148Z</time></trkpt><trkpt lat="43.747152" lon="11.4054287"><ele>225.66666666666666</ele><time>2026-03-29T09:53:03.148Z</time></trkpt><trkpt lat="43.747197" lon="11.4053653"><ele>226.0</ele><time>2026-03-29T09:53:04.148Z</time></trkpt><trkpt lat="43.7472446" lon="11.405302"><ele>226.66666666666666</ele><time>2026-03-29T09:53:05.147Z</time></trkpt><trkpt lat="43.7472908" lon="11.405236"><ele>227.33333333333331</ele><time>2026-03-29T09:53:06.148Z</time></trkpt><trkpt lat="43.747335" lon="11.4051645"><ele>228.0</ele><time>2026-03-29T09:53:07.148Z</time></trkpt><trkpt lat="43.7473877" lon="11.4050706"><ele>228.66666666666669</ele><time>2026-03-29T09:53:08.148Z</time></trkpt><trkpt lat="43.7474373" lon="11.4049671"><ele>229.33333333333334</ele><time>2026-03-29T09:53:09.148Z</time></trkpt><trkpt lat="43.7474869" lon="11.4048505"><ele>230.0</ele><time>2026-03-29T09:53:10.148Z</time></trkpt><trkpt lat="43.7475257" lon="11.4047274"><ele>229.50000000000003</ele><time>2026-03-29T09:53:11.148Z</time></trkpt><trkpt lat="43.7475578" lon="11.4046161"><ele>229.0</ele><time>2026-03-29T09:53:12.148Z</time></trkpt><trkpt lat="43.7475961" lon="11.4045159"><ele>228.5</ele><time>2026-03-29T09:53:13.148Z</time></trkpt><trkpt lat="43.7476289" lon="11.4044119"><ele>228.0</ele><time>2026-03-29T09:53:14.148Z</time></trkpt><trkpt lat="43.7476599" lon="11.4043067"><ele>227.50000000000003</ele><time>2026-03-29T09:53:15.148Z</time></trkpt><trkpt lat="43.747703" lon="11.4042206"><ele>227.0</ele><time>2026-03-29T09:53:16.148Z</time></trkpt><trkpt lat="43.747747" lon="11.4041279"><ele>227.0</ele><time>2026-03-29T09:53:17.147Z</time></trkpt><trkpt lat="43.7477885" lon="11.4040342"><ele>227.00000000000003</ele><time>2026-03-29T09:53:18.148Z</time></trkpt><trkpt lat="43.7478379" lon="11.4039497"><ele>227.0</ele><time>2026-03-29T09:53:19.148Z</time></trkpt><trkpt lat="43.7478825" lon="11.4038745"><ele>227.0</ele><time>2026-03-29T09:53:20.148Z</time></trkpt><trkpt lat="43.7479237" lon="11.4038006"><ele>227.00000000000003</ele><time>2026-03-29T09:53:21.148Z</time></trkpt><trkpt lat="43.7479631" lon="11.4037228"><ele>227.0</ele><time>2026-03-29T09:53:22.148Z</time></trkpt><trkpt lat="43.7480044" lon="11.4036498"><ele>227.0</ele><time>2026-03-29T09:53:23.148Z</time></trkpt><trkpt lat="43.7480621" lon="11.4035453"><ele>227.00000000000003</ele><time>2026-03-29T09:53:25.148Z</time></trkpt><trkpt lat="43.7481196" lon="11.4034815"><ele>227.0</ele><time>2026-03-29T09:53:28.148Z</time></trkpt><trkpt lat="43.7481879" lon="11.4034899"><ele>227.0</ele><time>2026-03-29T09:53:31.148Z</time></trkpt><trkpt lat="43.7482443" lon="11.4035635"><ele>227.0</ele><time>2026-03-29T09:53:34.148Z</time></trkpt><trkpt lat="43.7482588" lon="11.4036689"><ele>227.00000000000003</ele><time>2026-03-29T09:53:37.148Z</time></trkpt><trkpt lat="43.7482575" lon="11.4037653"><ele>227.0</ele><time>2026-03-29T09:53:39.148Z</time></trkpt><trkpt lat="43.7482496" lon="11.4039217"><ele>227.00000000000003</ele><time>2026-03-29T09:53:41.148Z</time></trkpt><trkpt lat="43.7482648" lon="11.4040405"><ele>227.0</ele><time>2026-03-29T09:53:42.148Z</time></trkpt><trkpt lat="43.7482696" lon="11.4041769"><ele>227.0</ele><time>2026-03-29T09:53:43.148Z</time></trkpt><trkpt lat="43.7482711" lon="11.4042963"><ele>227.0</ele><time>2026-03-29T09:53:44.148Z</time></trkpt><trkpt lat="43.7482585" lon="11.4044101"><ele>227.00000000000003</ele><time>2026-03-29T09:53:45.148Z</time></trkpt><trkpt lat="43.7482404" lon="11.4045273"><ele>227.0</ele><time>2026-03-29T09:53:46.148Z</time></trkpt><trkpt lat="43.7482214" lon="11.4046409"><ele>228.8</ele><time>2026-03-29T09:53:47.148Z</time></trkpt><trkpt lat="43.7482017" lon="11.4047801"><ele>230.6</ele><time>2026-03-29T09:53:48.148Z</time></trkpt><trkpt lat="43.7481821" lon="11.4049188"><ele>232.40000000000003</ele><time>2026-03-29T09:53:49.148Z</time></trkpt><trkpt lat="43.7481488" lon="11.4050653"><ele>234.20000000000002</ele><time>2026-03-29T09:53:50.147Z</time></trkpt><trkpt lat="43.7481166" lon="11.4052044"><ele>236.0</ele><time>2026-03-29T09:53:51.148Z</time></trkpt><trkpt lat="43.7480934" lon="11.40535"><ele>238.0</ele><time>2026-03-29T09:53:52.148Z</time></trkpt><trkpt lat="43.74808" lon="11.405511"><ele>240.00000000000003</ele><time>2026-03-29T09:53:53.147Z</time></trkpt><trkpt lat="43.7480774" lon="11.4056629"><ele>242.00000000000003</ele><time>2026-03-29T09:53:54.148Z</time></trkpt><trkpt lat="43.7480711" lon="11.4057976"><ele>244.0</ele><time>2026-03-29T09:53:55.148Z</time></trkpt><trkpt lat="43.7480648" lon="11.4059282"><ele>246.0</ele><time>2026-03-29T09:53:56.148Z</time></trkpt><trkpt lat="43.7480577" lon="11.4060814"><ele>246.0</ele><time>2026-03-29T09:53:57.148Z</time></trkpt><trkpt lat="43.7480548" lon="11.4062373"><ele>246.0</ele><time>2026-03-29T09:53:58.148Z</time></trkpt><trkpt lat="43.7480538" lon="11.4064001"><ele>246.0</ele><time>2026-03-29T09:53:59.147Z</time></trkpt><trkpt lat="43.7480474" lon="11.4065801"><ele>246.0</ele><time>2026-03-29T09:54:00.148Z</time></trkpt><trkpt lat="43.7480294" lon="11.406734"><ele>246.0</ele><time>2026-03-29T09:54:01.148Z</time></trkpt><trkpt lat="43.7480142" lon="11.4068777"><ele>246.00000000000003</ele><time>2026-03-29T09:54:02.148Z</time></trkpt><trkpt lat="43.7479958" lon="11.4070187"><ele>246.00000000000003</ele><time>2026-03-29T09:54:03.148Z</time></trkpt><trkpt lat="43.7479808" lon="11.407175"><ele>246.0</ele><time>2026-03-29T09:54:04.148Z</time></trkpt><trkpt lat="43.7479787" lon="11.4073199"><ele>246.0</ele><time>2026-03-29T09:54:05.148Z</time></trkpt><trkpt lat="43.7479622" lon="11.4074694"><ele>246.25</ele><time>2026-03-29T09:54:06.148Z</time></trkpt><trkpt lat="43.7479391" lon="11.4076246"><ele>246.5</ele><time>2026-03-29T09:54:07.148Z</time></trkpt><trkpt lat="43.7478955" lon="11.4077825"><ele>246.75</ele><time>2026-03-29T09:54:08.148Z</time></trkpt><trkpt lat="43.7478315" lon="11.407971"><ele>247.0</ele><time>2026-03-29T09:54:09.147Z</time></trkpt><trkpt lat="43.7477663" lon="11.4081603"><ele>248.2</ele><time>2026-03-29T09:54:10.147Z</time></trkpt><trkpt lat="43.7477234" lon="11.40833"><ele>249.39999999999998</ele><time>2026-03-29T09:54:11.148Z</time></trkpt><trkpt lat="43.7476905" lon="11.4084653"><ele>250.60000000000002</ele><time>2026-03-29T09:54:12.148Z</time></trkpt><trkpt lat="43.7476726" lon="11.4085585"><ele>251.8</ele><time>2026-03-29T09:54:13.148Z</time></trkpt><trkpt lat="43.7476513" lon="11.4086529"><ele>253.0</ele><time>2026-03-29T09:54:14.148Z</time></trkpt><trkpt lat="43.7476222" lon="11.408827"><ele>246.0</ele><time>2026-03-29T09:54:16.148Z</time></trkpt><trkpt lat="43.7475955" lon="11.4089274"><ele>239.0</ele><time>2026-03-29T09:54:17.148Z</time></trkpt><trkpt lat="43.747549" lon="11.4090494"><ele>232.0</ele><time>2026-03-29T09:54:18.148Z</time></trkpt><trkpt lat="43.7475062" lon="11.4092115"><ele>225.0</ele><time>2026-03-29T09:54:19.148Z</time></trkpt><trkpt lat="43.7474819" lon="11.4093594"><ele>218.0</ele><time>2026-03-29T09:54:20.148Z</time></trkpt><trkpt lat="43.7474687" lon="11.4094872"><ele>218.00000000000003</ele><time>2026-03-29T09:54:21.148Z</time></trkpt><trkpt lat="43.747468" lon="11.4096312"><ele>218.0</ele><time>2026-03-29T09:54:22.148Z</time></trkpt><trkpt lat="43.7474644" lon="11.4097567"><ele>218.0</ele><time>2026-03-29T09:54:23.148Z</time></trkpt><trkpt lat="43.7474536" lon="11.4098681"><ele>218.0</ele><time>2026-03-29T09:54:24.148Z</time></trkpt><trkpt lat="43.7474361" lon="11.409963"><ele>218.00000000000003</ele><time>2026-03-29T09:54:25.148Z</time></trkpt><trkpt lat="43.7474113" lon="11.4100495"><ele>218.0</ele><time>2026-03-29T09:54:26.148Z</time></trkpt><trkpt lat="43.7473916" lon="11.4101415"><ele>217.2</ele><time>2026-03-29T09:54:27.148Z</time></trkpt><trkpt lat="43.7473568" lon="11.4102407"><ele>216.4</ele><time>2026-03-29T09:54:28.148Z</time></trkpt><trkpt lat="43.7473052" lon="11.4103648"><ele>215.59999999999997</ele><time>2026-03-29T09:54:29.148Z</time></trkpt><trkpt lat="43.7472626" lon="11.4104943"><ele>214.79999999999998</ele><time>2026-03-29T09:54:30.147Z</time></trkpt><trkpt lat="43.747226" lon="11.4106079"><ele>214.0</ele><time>2026-03-29T09:54:31.148Z</time></trkpt><trkpt lat="43.7471898" lon="11.4107054"><ele>212.99999999999997</ele><time>2026-03-29T09:54:32.148Z</time></trkpt><trkpt lat="43.7471616" lon="11.4108035"><ele>212.0</ele><time>2026-03-29T09:54:33.148Z</time></trkpt><trkpt lat="43.7471588" lon="11.410912"><ele>211.0</ele><time>2026-03-29T09:54:34.148Z</time></trkpt><trkpt lat="43.7471613" lon="11.4110148"><ele>210.0</ele><time>2026-03-29T09:54:35.148Z</time></trkpt><trkpt lat="43.7471505" lon="11.4111143"><ele>208.99999999999997</ele><time>2026-03-29T09:54:36.148Z</time></trkpt><trkpt lat="43.7471393" lon="11.4112101"><ele>208.0</ele><time>2026-03-29T09:54:37.148Z</time></trkpt><trkpt lat="43.7471118" lon="11.4113622"><ele>207.0</ele><time>2026-03-29T09:54:39.148Z</time></trkpt><trkpt lat="43.7470872" lon="11.4115058"><ele>206.0</ele><time>2026-03-29T09:54:41.148Z</time></trkpt><trkpt lat="43.7470501" lon="11.4116279"><ele>205.0</ele><time>2026-03-29T09:54:43.148Z</time></trkpt><trkpt lat="43.7470554" lon="11.4117502"><ele>204.0</ele><time>2026-03-29T09:54:45.148Z</time></trkpt><trkpt lat="43.7470895" lon="11.4118696"><ele>203.0</ele><time>2026-03-29T09:54:47.148Z</time></trkpt><trkpt lat="43.7471076" lon="11.4119743"><ele>203.0</ele><time>2026-03-29T09:54:49.148Z</time></trkpt><trkpt lat="43.747118" lon="11.4120691"><ele>203.0</ele><time>2026-03-29T09:54:51.148Z</time></trkpt><trkpt lat="43.7471373" lon="11.412182"><ele>203.0</ele><time>2026-03-29T09:54:53.148Z</time></trkpt><trkpt lat="43.747203" lon="11.4122892"><ele>203.0</ele><time>2026-03-29T09:54:55.148Z</time></trkpt><trkpt lat="43.7473335" lon="11.4123555"><ele>203.0</ele><time>2026-03-29T09:54:57.148Z</time></trkpt><trkpt lat="43.747402" lon="11.4123975"><ele>203.60000000000002</ele><time>2026-03-29T09:54:58.148Z</time></trkpt><trkpt lat="43.7474632" lon="11.4124573"><ele>204.20000000000002</ele><time>2026-03-29T09:54:59.148Z</time></trkpt><trkpt lat="43.747538" lon="11.4125373"><ele>204.8</ele><time>2026-03-29T09:55:00.148Z</time></trkpt><trkpt lat="43.7476365" lon="11.4126112"><ele>205.4</ele><time>2026-03-29T09:55:01.148Z</time></trkpt><trkpt lat="43.7477326" lon="11.4126835"><ele>206.0</ele><time>2026-03-29T09:55:02.148Z</time></trkpt><trkpt lat="43.7478221" lon="11.4127675"><ele>206.0</ele><time>2026-03-29T09:55:03.148Z</time></trkpt><trkpt lat="43.7479111" lon="11.4128468"><ele>206.0</ele><time>2026-03-29T09:55:04.148Z</time></trkpt><trkpt lat="43.7480244" lon="11.4129175"><ele>206.0</ele><time>2026-03-29T09:55:05.148Z</time></trkpt><trkpt lat="43.7481378" lon="11.4129798"><ele>206.0</ele><time>2026-03-29T09:55:06.148Z</time></trkpt><trkpt lat="43.748237" lon="11.4130506"><ele>207.0</ele><time>2026-03-29T09:55:07.148Z</time></trkpt><trkpt lat="43.748326" lon="11.4131199"><ele>208.0</ele><time>2026-03-29T09:55:08.148Z</time></trkpt><trkpt lat="43.7484148" lon="11.4131884"><ele>209.0</ele><time>2026-03-29T09:55:09.148Z</time></trkpt><trkpt lat="43.7485057" lon="11.4132686"><ele>210.0</ele><time>2026-03-29T09:55:10.148Z</time></trkpt><trkpt lat="43.7485772" lon="11.4133786"><ele>211.0</ele><time>2026-03-29T09:55:11.148Z</time></trkpt><trkpt lat="43.7486468" lon="11.413514"><ele>211.0</ele><time>2026-03-29T09:55:12.148Z</time></trkpt><trkpt lat="43.7487034" lon="11.413632"><ele>211.0</ele><time>2026-03-29T09:55:13.148Z</time></trkpt><trkpt lat="43.74876" lon="11.4137279"><ele>211.0</ele><time>2026-03-29T09:55:14.147Z</time></trkpt><trkpt lat="43.7488182" lon="11.4138265"><ele>211.0</ele><time>2026-03-29T09:55:15.148Z</time></trkpt><trkpt lat="43.7488896" lon="11.4139129"><ele>211.0</ele><time>2026-03-29T09:55:16.148Z</time></trkpt><trkpt lat="43.748951" lon="11.4139985"><ele>209.99999999999997</ele><time>2026-03-29T09:55:17.148Z</time></trkpt><trkpt lat="43.7489952" lon="11.4140795"><ele>209.0</ele><time>2026-03-29T09:55:18.148Z</time></trkpt><trkpt lat="43.7490256" lon="11.4141735"><ele>208.0</ele><time>2026-03-29T09:55:19.148Z</time></trkpt><trkpt lat="43.7490399" lon="11.4142954"><ele>207.0</ele><time>2026-03-29T09:55:20.148Z</time></trkpt><trkpt lat="43.7490561" lon="11.4144218"><ele>205.99999999999997</ele><time>2026-03-29T09:55:21.148Z</time></trkpt><trkpt lat="43.7491017" lon="11.4145566"><ele>205.0</ele><time>2026-03-29T09:55:22.148Z</time></trkpt><trkpt lat="43.7491543" lon="11.4147041"><ele>203.5</ele><time>2026-03-29T09:55:23.147Z</time></trkpt><trkpt lat="43.7492064" lon="11.4148744"><ele>202.0</ele><time>2026-03-29T09:55:24.148Z</time></trkpt><trkpt lat="43.7492561" lon="11.4150456"><ele>200.5</ele><time>2026-03-29T09:55:25.148Z</time></trkpt><trkpt lat="43.7493061" lon="11.4152219"><ele>199.0</ele><time>2026-03-29T09:55:26.148Z</time></trkpt><trkpt lat="43.7493569" lon="11.4153952"><ele>201.6</ele><time>2026-03-29T09:55:27.148Z</time></trkpt><trkpt lat="43.7493888" lon="11.415554"><ele>204.2</ele><time>2026-03-29T09:55:28.148Z</time></trkpt><trkpt lat="43.7494231" lon="11.4156989"><ele>206.79999999999998</ele><time>2026-03-29T09:55:29.148Z</time></trkpt><trkpt lat="43.7494609" lon="11.4158287"><ele>209.39999999999998</ele><time>2026-03-29T09:55:30.148Z</time></trkpt><trkpt lat="43.7494855" lon="11.4159473"><ele>212.0</ele><time>2026-03-29T09:55:31.148Z</time></trkpt><trkpt lat="43.7495224" lon="11.4160557"><ele>212.0</ele><time>2026-03-29T09:55:32.148Z</time></trkpt><trkpt lat="43.7495845" lon="11.4161318"><ele>212.0</ele><time>2026-03-29T09:55:33.148Z</time></trkpt><trkpt lat="43.7496611" lon="11.416191"><ele>212.0</ele><time>2026-03-29T09:55:34.148Z</time></trkpt><trkpt lat="43.7497498" lon="11.4162377"><ele>212.0</ele><time>2026-03-29T09:55:35.148Z</time></trkpt><trkpt lat="43.7498628" lon="11.4162585"><ele>212.0</ele><time>2026-03-29T09:55:36.148Z</time></trkpt><trkpt lat="43.7499859" lon="11.4162758"><ele>212.0</ele><time>2026-03-29T09:55:37.148Z</time></trkpt><trkpt lat="43.7501038" lon="11.4162908"><ele>212.0</ele><time>2026-03-29T09:55:38.148Z</time></trkpt><trkpt lat="43.7502114" lon="11.4163159"><ele>212.0</ele><time>2026-03-29T09:55:39.148Z</time></trkpt><trkpt lat="43.750303" lon="11.4163423"><ele>212.0</ele><time>2026-03-29T09:55:40.148Z</time></trkpt><trkpt lat="43.750382" lon="11.4163576"><ele>212.0</ele><time>2026-03-29T09:55:41.148Z</time></trkpt><trkpt lat="43.7504901" lon="11.4163757"><ele>213.16666666666669</ele><time>2026-03-29T09:55:43.148Z</time></trkpt><trkpt lat="43.75059" lon="11.4164146"><ele>214.33333333333334</ele><time>2026-03-29T09:55:45.147Z</time></trkpt><trkpt lat="43.7506451" lon="11.4164773"><ele>215.5</ele><time>2026-03-29T09:55:46.148Z</time></trkpt><trkpt lat="43.7507" lon="11.4165616"><ele>216.66666666666669</ele><time>2026-03-29T09:55:47.148Z</time></trkpt><trkpt lat="43.7507573" lon="11.416671"><ele>217.83333333333334</ele><time>2026-03-29T09:55:48.148Z</time></trkpt><trkpt lat="43.7508074" lon="11.416781"><ele>219.0</ele><time>2026-03-29T09:55:49.148Z</time></trkpt><trkpt lat="43.7508227" lon="11.4169144"><ele>219.0</ele><time>2026-03-29T09:55:50.148Z</time></trkpt><trkpt lat="43.7508218" lon="11.4170468"><ele>218.99999999999997</ele><time>2026-03-29T09:55:51.148Z</time></trkpt><trkpt lat="43.7508153" lon="11.4171675"><ele>218.99999999999997</ele><time>2026-03-29T09:55:52.148Z</time></trkpt><trkpt lat="43.7508003" lon="11.4172921"><ele>219.0</ele><time>2026-03-29T09:55:53.148Z</time></trkpt><trkpt lat="43.7507888" lon="11.4174146"><ele>219.0</ele><time>2026-03-29T09:55:54.148Z</time></trkpt><trkpt lat="43.7507902" lon="11.4175363"><ele>217.0</ele><time>2026-03-29T09:55:55.148Z</time></trkpt><trkpt lat="43.7508047" lon="11.4176506"><ele>214.99999999999997</ele><time>2026-03-29T09:55:56.148Z</time></trkpt><trkpt lat="43.7508345" lon="11.4177686"><ele>213.0</ele><time>2026-03-29T09:55:57.148Z</time></trkpt><trkpt lat="43.7508775" lon="11.417895"><ele>211.0</ele><time>2026-03-29T09:55:58.148Z</time></trkpt><trkpt lat="43.7509285" lon="11.4180258"><ele>209.0</ele><time>2026-03-29T09:55:59.148Z</time></trkpt><trkpt lat="43.7509781" lon="11.4181637"><ele>209.00000000000003</ele><time>2026-03-29T09:56:00.148Z</time></trkpt><trkpt lat="43.7510282" lon="11.4182967"><ele>209.0</ele><time>2026-03-29T09:56:01.148Z</time></trkpt><trkpt lat="43.7510729" lon="11.4184104"><ele>209.0</ele><time>2026-03-29T09:56:02.148Z</time></trkpt><trkpt lat="43.7511091" lon="11.4185222"><ele>209.0</ele><time>2026-03-29T09:56:03.148Z</time></trkpt><trkpt lat="43.7511375" lon="11.4186217"><ele>209.00000000000003</ele><time>2026-03-29T09:56:04.148Z</time></trkpt><trkpt lat="43.7511462" lon="11.4187218"><ele>209.0</ele><time>2026-03-29T09:56:05.148Z</time></trkpt><trkpt lat="43.7511421" lon="11.4188252"><ele>209.0</ele><time>2026-03-29T09:56:06.148Z</time></trkpt><trkpt lat="43.7511313" lon="11.4189485"><ele>209.0</ele><time>2026-03-29T09:56:08.148Z</time></trkpt><trkpt lat="43.7510833" lon="11.4190497"><ele>209.0</ele><time>2026-03-29T09:56:11.148Z</time></trkpt><trkpt lat="43.7511382" lon="11.4189961"><ele>209.0</ele><time>2026-03-29T09:56:17.148Z</time></trkpt><trkpt lat="43.7511509" lon="11.4188444"><ele>209.0</ele><time>2026-03-29T09:56:18.148Z</time></trkpt><trkpt lat="43.7511532" lon="11.4187031"><ele>209.0</ele><time>2026-03-29T09:56:19.148Z</time></trkpt><trkpt lat="43.7511291" lon="11.4185525"><ele>209.0</ele><time>2026-03-29T09:56:20.148Z</time></trkpt><trkpt lat="43.7510678" lon="11.4183889"><ele>209.0</ele><time>2026-03-29T09:56:21.148Z</time></trkpt><trkpt lat="43.7510039" lon="11.4182238"><ele>209.0</ele><time>2026-03-29T09:56:22.148Z</time></trkpt><trkpt lat="43.7509427" lon="11.4180681"><ele>209.0</ele><time>2026-03-29T09:56:23.148Z</time></trkpt><trkpt lat="43.7508849" lon="11.4179101"><ele>209.0</ele><time>2026-03-29T09:56:24.148Z</time></trkpt><trkpt lat="43.7508497" lon="11.4177516"><ele>209.0</ele><time>2026-03-29T09:56:25.148Z</time></trkpt><trkpt lat="43.7508259" lon="11.4175941"><ele>209.0</ele><time>2026-03-29T09:56:26.148Z</time></trkpt><trkpt lat="43.7508136" lon="11.4174434"><ele>209.0</ele><time>2026-03-29T09:56:27.148Z</time></trkpt><trkpt lat="43.7508138" lon="11.4173316"><ele>209.0</ele><time>2026-03-29T09:56:28.148Z</time></trkpt><trkpt lat="43.7508011" lon="11.4172214"><ele>209.0</ele><time>2026-03-29T09:56:30.148Z</time></trkpt><trkpt lat="43.7508149" lon="11.4171197"><ele>209.0</ele><time>2026-03-29T09:56:32.148Z</time></trkpt><trkpt lat="43.7508311" lon="11.4169313"><ele>209.0</ele><time>2026-03-29T09:56:34.148Z</time></trkpt><trkpt lat="43.7508277" lon="11.416819"><ele>210.66666666666669</ele><time>2026-03-29T09:56:35.147Z</time></trkpt><trkpt lat="43.7507906" lon="11.4167099"><ele>212.33333333333334</ele><time>2026-03-29T09:56:36.148Z</time></trkpt><trkpt lat="43.7507373" lon="11.4166029"><ele>214.0</ele><time>2026-03-29T09:56:37.148Z</time></trkpt><trkpt lat="43.7506858" lon="11.4165275"><ele>215.66666666666669</ele><time>2026-03-29T09:56:38.148Z</time></trkpt><trkpt lat="43.7506443" lon="11.4164238"><ele>217.33333333333334</ele><time>2026-03-29T09:56:40.148Z</time></trkpt><trkpt lat="43.7507023" lon="11.4163742"><ele>219.0</ele><time>2026-03-29T09:56:42.148Z</time></trkpt><trkpt lat="43.7508042" lon="11.41645"><ele>219.0</ele><time>2026-03-29T09:56:44.148Z</time></trkpt><trkpt lat="43.7508661" lon="11.4165301"><ele>219.0</ele><time>2026-03-29T09:56:45.148Z</time></trkpt><trkpt lat="43.7509211" lon="11.4166301"><ele>219.0</ele><time>2026-03-29T09:56:46.148Z</time></trkpt><trkpt lat="43.7509541" lon="11.4167383"><ele>219.0</ele><time>2026-03-29T09:56:47.148Z</time></trkpt><trkpt lat="43.7509836" lon="11.4168443"><ele>219.0</ele><time>2026-03-29T09:56:48.147Z</time></trkpt><trkpt lat="43.7510184" lon="11.4169611"><ele>219.0</ele><time>2026-03-29T09:56:49.148Z</time></trkpt><trkpt lat="43.7510658" lon="11.4170808"><ele>220.75</ele><time>2026-03-29T09:56:50.148Z</time></trkpt><trkpt lat="43.7511459" lon="11.4171788"><ele>222.5</ele><time>2026-03-29T09:56:51.148Z</time></trkpt><trkpt lat="43.7512719" lon="11.417287"><ele>224.25</ele><time>2026-03-29T09:56:52.148Z</time></trkpt><trkpt lat="43.7513902" lon="11.4173883"><ele>226.0</ele><time>2026-03-29T09:56:53.148Z</time></trkpt><trkpt lat="43.7515121" lon="11.4175134"><ele>226.0</ele><time>2026-03-29T09:56:54.148Z</time></trkpt><trkpt lat="43.7516213" lon="11.4176485"><ele>226.0</ele><time>2026-03-29T09:56:55.148Z</time></trkpt><trkpt lat="43.7517396" lon="11.4177529"><ele>226.0</ele><time>2026-03-29T09:56:56.148Z</time></trkpt><trkpt lat="43.7518378" lon="11.4178442"><ele>226.0</ele><time>2026-03-29T09:56:57.148Z</time></trkpt><trkpt lat="43.7519409" lon="11.4179234"><ele>229.0</ele><time>2026-03-29T09:56:58.148Z</time></trkpt><trkpt lat="43.7520358" lon="11.417994"><ele>232.00000000000003</ele><time>2026-03-29T09:56:59.148Z</time></trkpt><trkpt lat="43.7521145" lon="11.4180486"><ele>235.00000000000003</ele><time>2026-03-29T09:57:00.148Z</time></trkpt><trkpt lat="43.7521888" lon="11.4180961"><ele>238.0</ele><time>2026-03-29T09:57:01.148Z</time></trkpt><trkpt lat="43.7522497" lon="11.4182051"><ele>241.0</ele><time>2026-03-29T09:57:02.148Z</time></trkpt><trkpt lat="43.7522999" lon="11.4183634"><ele>241.0</ele><time>2026-03-29T09:57:03.148Z</time></trkpt><trkpt lat="43.7523395" lon="11.4185354"><ele>241.0</ele><time>2026-03-29T09:57:04.148Z</time></trkpt><trkpt lat="43.7523436" lon="11.4186799"><ele>241.0</ele><time>2026-03-29T09:57:05.148Z</time></trkpt><trkpt lat="43.7523176" lon="11.4188239"><ele>241.0</ele><time>2026-03-29T09:57:06.148Z</time></trkpt><trkpt lat="43.7522706" lon="11.4189948"><ele>241.5</ele><time>2026-03-29T09:57:07.148Z</time></trkpt><trkpt lat="43.7522444" lon="11.4191787"><ele>242.0</ele><time>2026-03-29T09:57:08.148Z</time></trkpt><trkpt lat="43.7522467" lon="11.4193378"><ele>242.5</ele><time>2026-03-29T09:57:09.148Z</time></trkpt><trkpt lat="43.7522555" lon="11.4194901"><ele>243.0</ele><time>2026-03-29T09:57:10.148Z</time></trkpt><trkpt lat="43.7522831" lon="11.4196638"><ele>241.75</ele><time>2026-03-29T09:57:11.148Z</time></trkpt><trkpt lat="43.7523431" lon="11.419839"><ele>240.5</ele><time>2026-03-29T09:57:12.147Z</time></trkpt><trkpt lat="43.7524111" lon="11.4200091"><ele>239.25</ele><time>2026-03-29T09:57:13.148Z</time></trkpt><trkpt lat="43.7524812" lon="11.4201642"><ele>238.0</ele><time>2026-03-29T09:57:14.148Z</time></trkpt><trkpt lat="43.7525349" lon="11.4202989"><ele>238.0</ele><time>2026-03-29T09:57:15.148Z</time></trkpt><trkpt lat="43.7525858" lon="11.4204"><ele>238.0</ele><time>2026-03-29T09:57:16.148Z</time></trkpt><trkpt lat="43.7526276" lon="11.4204706"><ele>238.0</ele><time>2026-03-29T09:57:17.148Z</time></trkpt><trkpt lat="43.7526725" lon="11.420539"><ele>238.0</ele><time>2026-03-29T09:57:18.148Z</time></trkpt><trkpt lat="43.7527149" lon="11.4206038"><ele>238.0</ele><time>2026-03-29T09:57:19.148Z</time></trkpt><trkpt lat="43.7527694" lon="11.4206612"><ele>238.0</ele><time>2026-03-29T09:57:20.148Z</time></trkpt><trkpt lat="43.7528281" lon="11.4206997"><ele>238.0</ele><time>2026-03-29T09:57:21.148Z</time></trkpt><trkpt lat="43.7529048" lon="11.4207298"><ele>238.0</ele><time>2026-03-29T09:57:22.148Z</time></trkpt><trkpt lat="43.7529966" lon="11.4207472"><ele>238.0</ele><time>2026-03-29T09:57:23.147Z</time></trkpt><trkpt lat="43.7530908" lon="11.4207564"><ele>238.0</ele><time>2026-03-29T09:57:24.148Z</time></trkpt><trkpt lat="43.7531865" lon="11.4207638"><ele>238.0</ele><time>2026-03-29T09:57:25.148Z</time></trkpt><trkpt lat="43.7532781" lon="11.4207791"><ele>238.0</ele><time>2026-03-29T09:57:26.148Z</time></trkpt><trkpt lat="43.7533648" lon="11.4208011"><ele>238.0</ele><time>2026-03-29T09:57:27.148Z</time></trkpt><trkpt lat="43.7534404" lon="11.4208425"><ele>238.0</ele><time>2026-03-29T09:57:28.148Z</time></trkpt><trkpt lat="43.7535254" lon="11.4208985"><ele>238.0</ele><time>2026-03-29T09:57:29.148Z</time></trkpt><trkpt lat="43.7536189" lon="11.4209425"><ele>238.0</ele><time>2026-03-29T09:57:30.148Z</time></trkpt><trkpt lat="43.753713" lon="11.4209869"><ele>238.0</ele><time>2026-03-29T09:57:31.148Z</time></trkpt><trkpt lat="43.7538065" lon="11.4210105"><ele>237.2</ele><time>2026-03-29T09:57:32.148Z</time></trkpt><trkpt lat="43.7539045" lon="11.4210255"><ele>236.4</ele><time>2026-03-29T09:57:33.148Z</time></trkpt><trkpt lat="43.754" lon="11.4210385"><ele>235.59999999999997</ele><time>2026-03-29T09:57:34.148Z</time></trkpt><trkpt lat="43.7541094" lon="11.4210227"><ele>234.79999999999998</ele><time>2026-03-29T09:57:35.148Z</time></trkpt><trkpt lat="43.7542326" lon="11.4209905"><ele>234.0</ele><time>2026-03-29T09:57:36.148Z</time></trkpt><trkpt lat="43.7543605" lon="11.4209625"><ele>233.0</ele><time>2026-03-29T09:57:37.148Z</time></trkpt><trkpt lat="43.7544989" lon="11.4209293"><ele>232.0</ele><time>2026-03-29T09:57:38.148Z</time></trkpt><trkpt lat="43.7546324" lon="11.4208988"><ele>231.0</ele><time>2026-03-29T09:57:39.148Z</time></trkpt><trkpt lat="43.7547681" lon="11.4208714"><ele>230.0</ele><time>2026-03-29T09:57:40.148Z</time></trkpt><trkpt lat="43.7549055" lon="11.4208393"><ele>230.0</ele><time>2026-03-29T09:57:41.147Z</time></trkpt><trkpt lat="43.7550424" lon="11.4208225"><ele>230.0</ele><time>2026-03-29T09:57:42.148Z</time></trkpt><trkpt lat="43.7551827" lon="11.4208097"><ele>230.0</ele><time>2026-03-29T09:57:43.148Z</time></trkpt><trkpt lat="43.7553292" lon="11.4208024"><ele>230.0</ele><time>2026-03-29T09:57:44.148Z</time></trkpt><trkpt lat="43.7554485" lon="11.4208021"><ele>230.0</ele><time>2026-03-29T09:57:45.147Z</time></trkpt><trkpt lat="43.7555639" lon="11.4208054"><ele>230.0</ele><time>2026-03-29T09:57:46.148Z</time></trkpt><trkpt lat="43.755662" lon="11.4208095"><ele>230.0</ele><time>2026-03-29T09:57:47.148Z</time></trkpt><trkpt lat="43.7557664" lon="11.4208099"><ele>230.0</ele><time>2026-03-29T09:57:48.148Z</time></trkpt><trkpt lat="43.7558602" lon="11.4207912"><ele>230.0</ele><time>2026-03-29T09:57:49.148Z</time></trkpt><trkpt lat="43.7559526" lon="11.4207379"><ele>230.00000000000003</ele><time>2026-03-29T09:57:50.148Z</time></trkpt><trkpt lat="43.756034" lon="11.4206732"><ele>230.0</ele><time>2026-03-29T09:57:51.147Z</time></trkpt><trkpt lat="43.7561116" lon="11.4206292"><ele>230.0</ele><time>2026-03-29T09:57:52.148Z</time></trkpt><trkpt lat="43.7561816" lon="11.4205791"><ele>230.0</ele><time>2026-03-29T09:57:53.148Z</time></trkpt><trkpt lat="43.756233" lon="11.4205082"><ele>230.00000000000003</ele><time>2026-03-29T09:57:54.147Z</time></trkpt><trkpt lat="43.7562738" lon="11.4204214"><ele>230.0</ele><time>2026-03-29T09:57:55.148Z</time></trkpt><trkpt lat="43.7563142" lon="11.4203368"><ele>231.33333333333334</ele><time>2026-03-29T09:57:56.148Z</time></trkpt><trkpt lat="43.7563598" lon="11.4202464"><ele>232.66666666666669</ele><time>2026-03-29T09:57:57.148Z</time></trkpt><trkpt lat="43.7564099" lon="11.4201755"><ele>234.0</ele><time>2026-03-29T09:57:58.148Z</time></trkpt><trkpt lat="43.7564673" lon="11.420103"><ele>235.33333333333331</ele><time>2026-03-29T09:57:59.148Z</time></trkpt><trkpt lat="43.7565476" lon="11.4200236"><ele>236.66666666666666</ele><time>2026-03-29T09:58:00.148Z</time></trkpt><trkpt lat="43.7566458" lon="11.41996"><ele>238.0</ele><time>2026-03-29T09:58:01.148Z</time></trkpt><trkpt lat="43.7567404" lon="11.4198871"><ele>238.0</ele><time>2026-03-29T09:58:02.148Z</time></trkpt><trkpt lat="43.7568299" lon="11.4198428"><ele>238.0</ele><time>2026-03-29T09:58:03.148Z</time></trkpt><trkpt lat="43.75693" lon="11.4198099"><ele>238.0</ele><time>2026-03-29T09:58:04.148Z</time></trkpt><trkpt lat="43.7570279" lon="11.4197847"><ele>238.0</ele><time>2026-03-29T09:58:05.148Z</time></trkpt><trkpt lat="43.7571291" lon="11.4197563"><ele>238.0</ele><time>2026-03-29T09:58:06.147Z</time></trkpt><trkpt lat="43.757216" lon="11.4197158"><ele>239.2</ele><time>2026-03-29T09:58:07.148Z</time></trkpt><trkpt lat="43.757305" lon="11.4196765"><ele>240.4</ele><time>2026-03-29T09:58:08.148Z</time></trkpt><trkpt lat="43.7573936" lon="11.4196353"><ele>241.59999999999997</ele><time>2026-03-29T09:58:09.148Z</time></trkpt><trkpt lat="43.7574842" lon="11.4196032"><ele>242.79999999999998</ele><time>2026-03-29T09:58:10.148Z</time></trkpt><trkpt lat="43.7575732" lon="11.4195732"><ele>244.0</ele><time>2026-03-29T09:58:11.148Z</time></trkpt><trkpt lat="43.7576587" lon="11.4195314"><ele>237.39999999999998</ele><time>2026-03-29T09:58:12.148Z</time></trkpt><trkpt lat="43.7577428" lon="11.4194788"><ele>230.79999999999998</ele><time>2026-03-29T09:58:13.148Z</time></trkpt><trkpt lat="43.7578347" lon="11.419424"><ele>224.2</ele><time>2026-03-29T09:58:14.148Z</time></trkpt><trkpt lat="43.7579304" lon="11.4193581"><ele>217.60000000000002</ele><time>2026-03-29T09:58:15.148Z</time></trkpt><trkpt lat="43.7580354" lon="11.4192849"><ele>211.0</ele><time>2026-03-29T09:58:16.148Z</time></trkpt><trkpt lat="43.7581512" lon="11.4192327"><ele>211.0</ele><time>2026-03-29T09:58:17.148Z</time></trkpt><trkpt lat="43.7582623" lon="11.419168"><ele>211.0</ele><time>2026-03-29T09:58:18.148Z</time></trkpt><trkpt lat="43.758362" lon="11.4191078"><ele>211.0</ele><time>2026-03-29T09:58:19.148Z</time></trkpt><trkpt lat="43.7584495" lon="11.4190582"><ele>211.0</ele><time>2026-03-29T09:58:20.148Z</time></trkpt><trkpt lat="43.7585296" lon="11.4190056"><ele>211.0</ele><time>2026-03-29T09:58:21.148Z</time></trkpt><trkpt lat="43.7586028" lon="11.4189336"><ele>211.83333333333331</ele><time>2026-03-29T09:58:22.148Z</time></trkpt><trkpt lat="43.7586626" lon="11.4188506"><ele>212.66666666666666</ele><time>2026-03-29T09:58:23.148Z</time></trkpt><trkpt lat="43.7587105" lon="11.4187654"><ele>213.5</ele><time>2026-03-29T09:58:24.148Z</time></trkpt><trkpt lat="43.7587504" lon="11.4186742"><ele>214.33333333333331</ele><time>2026-03-29T09:58:25.148Z</time></trkpt><trkpt lat="43.7587785" lon="11.418555"><ele>215.16666666666666</ele><time>2026-03-29T09:58:26.148Z</time></trkpt><trkpt lat="43.7588221" lon="11.4184655"><ele>216.0</ele><time>2026-03-29T09:58:27.148Z</time></trkpt><trkpt lat="43.7588789" lon="11.4183784"><ele>216.0</ele><time>2026-03-29T09:58:28.148Z</time></trkpt><trkpt lat="43.7589432" lon="11.4183064"><ele>216.0</ele><time>2026-03-29T09:58:29.148Z</time></trkpt><trkpt lat="43.7590138" lon="11.4182481"><ele>216.0</ele><time>2026-03-29T09:58:30.148Z</time></trkpt><trkpt lat="43.7591372" lon="11.4182099"><ele>216.0</ele><time>2026-03-29T09:58:32.148Z</time></trkpt><trkpt lat="43.7592051" lon="11.4182626"><ele>216.0</ele><time>2026-03-29T09:58:33.148Z</time></trkpt><trkpt lat="43.7592585" lon="11.4183389"><ele>216.0</ele><time>2026-03-29T09:58:34.148Z</time></trkpt><trkpt lat="43.7593144" lon="11.4184098"><ele>215.20000000000002</ele><time>2026-03-29T09:58:35.148Z</time></trkpt><trkpt lat="43.7593679" lon="11.4185061"><ele>214.40000000000003</ele><time>2026-03-29T09:58:36.148Z</time></trkpt><trkpt lat="43.7594336" lon="11.4186064"><ele>213.6</ele><time>2026-03-29T09:58:37.148Z</time></trkpt><trkpt lat="43.7594995" lon="11.4187099"><ele>212.8</ele><time>2026-03-29T09:58:38.148Z</time></trkpt><trkpt lat="43.7595716" lon="11.4188441"><ele>212.0</ele><time>2026-03-29T09:58:39.147Z</time></trkpt><trkpt lat="43.7596548" lon="11.4189631"><ele>212.0</ele><time>2026-03-29T09:58:40.148Z</time></trkpt><trkpt lat="43.7597312" lon="11.4190702"><ele>212.0</ele><time>2026-03-29T09:58:41.148Z</time></trkpt><trkpt lat="43.7598022" lon="11.4191699"><ele>212.0</ele><time>2026-03-29T09:58:42.148Z</time></trkpt><trkpt lat="43.7598687" lon="11.4192586"><ele>212.0</ele><time>2026-03-29T09:58:43.148Z</time></trkpt><trkpt lat="43.7599303" lon="11.41934"><ele>212.0</ele><time>2026-03-29T09:58:44.148Z</time></trkpt><trkpt lat="43.7599886" lon="11.4194259"><ele>212.00000000000003</ele><time>2026-03-29T09:58:45.148Z</time></trkpt><trkpt lat="43.760035" lon="11.4194979"><ele>212.0</ele><time>2026-03-29T09:58:46.148Z</time></trkpt><trkpt lat="43.7601193" lon="11.4195775"><ele>212.0</ele><time>2026-03-29T09:58:48.148Z</time></trkpt><trkpt lat="43.7602322" lon="11.419589"><ele>212.0</ele><time>2026-03-29T09:58:50.148Z</time></trkpt><trkpt lat="43.7603028" lon="11.4195842"><ele>212.00000000000003</ele><time>2026-03-29T09:58:51.148Z</time></trkpt><trkpt lat="43.7603745" lon="11.4195716"><ele>212.0</ele><time>2026-03-29T09:58:52.148Z</time></trkpt><trkpt lat="43.7604508" lon="11.4195466"><ele>212.6</ele><time>2026-03-29T09:58:53.148Z</time></trkpt><trkpt lat="43.7605336" lon="11.4195237"><ele>213.2</ele><time>2026-03-29T09:58:54.148Z</time></trkpt><trkpt lat="43.7606179" lon="11.4194889"><ele>213.8</ele><time>2026-03-29T09:58:55.148Z</time></trkpt><trkpt lat="43.760722" lon="11.4194372"><ele>214.4</ele><time>2026-03-29T09:58:56.148Z</time></trkpt><trkpt lat="43.760843" lon="11.4193709"><ele>215.0</ele><time>2026-03-29T09:58:57.147Z</time></trkpt><trkpt lat="43.7609682" lon="11.4193144"><ele>215.0</ele><time>2026-03-29T09:58:58.148Z</time></trkpt><trkpt lat="43.7611061" lon="11.4192612"><ele>215.0</ele><time>2026-03-29T09:58:59.148Z</time></trkpt><trkpt lat="43.7612393" lon="11.4192035"><ele>215.0</ele><time>2026-03-29T09:59:00.148Z</time></trkpt><trkpt lat="43.7613568" lon="11.4191509"><ele>215.0</ele><time>2026-03-29T09:59:01.148Z</time></trkpt><trkpt lat="43.7614648" lon="11.4191077"><ele>215.00000000000003</ele><time>2026-03-29T09:59:02.148Z</time></trkpt><trkpt lat="43.7615511" lon="11.4190728"><ele>215.0</ele><time>2026-03-29T09:59:03.148Z</time></trkpt><trkpt lat="43.7616271" lon="11.4190445"><ele>215.0</ele><time>2026-03-29T09:59:04.148Z</time></trkpt><trkpt lat="43.7617052" lon="11.4190274"><ele>215.0</ele><time>2026-03-29T09:59:06.147Z</time></trkpt><trkpt lat="43.7618038" lon="11.4189722"><ele>215.00000000000003</ele><time>2026-03-29T09:59:09.148Z</time></trkpt><trkpt lat="43.7618951" lon="11.4190068"><ele>215.0</ele><time>2026-03-29T09:59:11.148Z</time></trkpt><trkpt lat="43.7619368" lon="11.419113"><ele>213.6</ele><time>2026-03-29T09:59:12.148Z</time></trkpt><trkpt lat="43.7619839" lon="11.4192011"><ele>212.2</ele><time>2026-03-29T09:59:13.148Z</time></trkpt><trkpt lat="43.7620386" lon="11.4193116"><ele>210.8</ele><time>2026-03-29T09:59:14.148Z</time></trkpt><trkpt lat="43.7620976" lon="11.4194221"><ele>209.4</ele><time>2026-03-29T09:59:15.148Z</time></trkpt><trkpt lat="43.7621584" lon="11.4195359"><ele>208.0</ele><time>2026-03-29T09:59:16.148Z</time></trkpt><trkpt lat="43.7622179" lon="11.4196497"><ele>208.66666666666666</ele><time>2026-03-29T09:59:17.148Z</time></trkpt><trkpt lat="43.7622708" lon="11.4197572"><ele>209.33333333333331</ele><time>2026-03-29T09:59:18.148Z</time></trkpt><trkpt lat="43.7623161" lon="11.4198572"><ele>210.0</ele><time>2026-03-29T09:59:19.148Z</time></trkpt><trkpt lat="43.7623475" lon="11.4199487"><ele>210.66666666666669</ele><time>2026-03-29T09:59:20.149Z</time></trkpt><trkpt lat="43.762367" lon="11.4200386"><ele>211.33333333333334</ele><time>2026-03-29T09:59:21.149Z</time></trkpt><trkpt lat="43.7623848" lon="11.4201234"><ele>212.0</ele><time>2026-03-29T09:59:22.149Z</time></trkpt><trkpt lat="43.7624037" lon="11.4202539"><ele>212.00000000000003</ele><time>2026-03-29T09:59:24.149Z</time></trkpt><trkpt lat="43.7624416" lon="11.4203315"><ele>212.0</ele><time>2026-03-29T09:59:26.149Z</time></trkpt><trkpt lat="43.7625301" lon="11.4202916"><ele>212.0</ele><time>2026-03-29T09:59:28.149Z</time></trkpt><trkpt lat="43.762599" lon="11.4202905"><ele>212.0</ele><time>2026-03-29T09:59:30.149Z</time></trkpt><trkpt lat="43.7626555" lon="11.4203639"><ele>212.00000000000003</ele><time>2026-03-29T09:59:32.149Z</time></trkpt><trkpt lat="43.7626851" lon="11.42054"><ele>212.0</ele><time>2026-03-29T09:59:34.149Z</time></trkpt><trkpt lat="43.7627141" lon="11.4206333"><ele>210.16666666666669</ele><time>2026-03-29T09:59:35.148Z</time></trkpt><trkpt lat="43.7627569" lon="11.4207281"><ele>208.33333333333334</ele><time>2026-03-29T09:59:36.149Z</time></trkpt><trkpt lat="43.762809" lon="11.420828"><ele>206.5</ele><time>2026-03-29T09:59:37.149Z</time></trkpt><trkpt lat="43.7628618" lon="11.4209352"><ele>204.66666666666669</ele><time>2026-03-29T09:59:38.149Z</time></trkpt><trkpt lat="43.7629099" lon="11.4210374"><ele>202.83333333333334</ele><time>2026-03-29T09:59:39.149Z</time></trkpt><trkpt lat="43.7629523" lon="11.4211399"><ele>201.0</ele><time>2026-03-29T09:59:40.149Z</time></trkpt><trkpt lat="43.7630044" lon="11.4212342"><ele>201.83333333333334</ele><time>2026-03-29T09:59:41.149Z</time></trkpt><trkpt lat="43.7630522" lon="11.4213271"><ele>202.66666666666669</ele><time>2026-03-29T09:59:42.149Z</time></trkpt><trkpt lat="43.7631022" lon="11.4214227"><ele>203.5</ele><time>2026-03-29T09:59:43.149Z</time></trkpt><trkpt lat="43.7631458" lon="11.4215197"><ele>204.33333333333334</ele><time>2026-03-29T09:59:44.149Z</time></trkpt><trkpt lat="43.7631903" lon="11.4216221"><ele>205.16666666666669</ele><time>2026-03-29T09:59:45.149Z</time></trkpt><trkpt lat="43.7632334" lon="11.4217206"><ele>206.0</ele><time>2026-03-29T09:59:46.149Z</time></trkpt><trkpt lat="43.763279" lon="11.4218056"><ele>206.00000000000003</ele><time>2026-03-29T09:59:47.149Z</time></trkpt><trkpt lat="43.7633265" lon="11.4218957"><ele>206.0</ele><time>2026-03-29T09:59:48.149Z</time></trkpt><trkpt lat="43.7633717" lon="11.4219699"><ele>206.0</ele><time>2026-03-29T09:59:49.149Z</time></trkpt><trkpt lat="43.7634203" lon="11.422037"><ele>206.0</ele><time>2026-03-29T09:59:50.149Z</time></trkpt><trkpt lat="43.7635142" lon="11.4221205"><ele>206.00000000000003</ele><time>2026-03-29T09:59:52.149Z</time></trkpt><trkpt lat="43.7635919" lon="11.4221874"><ele>206.0</ele><time>2026-03-29T09:59:54.149Z</time></trkpt><trkpt lat="43.763664" lon="11.4222422"><ele>204.00000000000003</ele><time>2026-03-29T09:59:56.149Z</time></trkpt><trkpt lat="43.7637567" lon="11.4222688"><ele>202.0</ele><time>2026-03-29T09:59:59.149Z</time></trkpt><trkpt lat="43.7638438" lon="11.4222179"><ele>200.0</ele><time>2026-03-29T10:00:01.148Z</time></trkpt><trkpt lat="43.7639003" lon="11.4221733"><ele>198.0</ele><time>2026-03-29T10:00:02.149Z</time></trkpt><trkpt lat="43.7639583" lon="11.4221129"><ele>196.00000000000003</ele><time>2026-03-29T10:00:03.149Z</time></trkpt><trkpt lat="43.7640222" lon="11.4220689"><ele>194.0</ele><time>2026-03-29T10:00:04.148Z</time></trkpt><trkpt lat="43.7640859" lon="11.4220196"><ele>194.00000000000003</ele><time>2026-03-29T10:00:05.149Z</time></trkpt><trkpt lat="43.7641535" lon="11.421982"><ele>194.0</ele><time>2026-03-29T10:00:06.149Z</time></trkpt><trkpt lat="43.764233" lon="11.4219434"><ele>194.0</ele><time>2026-03-29T10:00:07.149Z</time></trkpt><trkpt lat="43.7643155" lon="11.4219173"><ele>194.0</ele><time>2026-03-29T10:00:08.149Z</time></trkpt><trkpt lat="43.7643923" lon="11.4218867"><ele>194.00000000000003</ele><time>2026-03-29T10:00:09.149Z</time></trkpt><trkpt lat="43.7644667" lon="11.4218433"><ele>194.0</ele><time>2026-03-29T10:00:10.149Z</time></trkpt><trkpt lat="43.7645322" lon="11.4218092"><ele>193.16666666666669</ele><time>2026-03-29T10:00:11.149Z</time></trkpt><trkpt lat="43.7645975" lon="11.4217771"><ele>192.33333333333334</ele><time>2026-03-29T10:00:12.149Z</time></trkpt><trkpt lat="43.7646642" lon="11.4217456"><ele>191.5</ele><time>2026-03-29T10:00:14.149Z</time></trkpt><trkpt lat="43.7646978" lon="11.4216348"><ele>190.66666666666669</ele><time>2026-03-29T10:00:55.149Z</time></trkpt><trkpt lat="43.7647277" lon="11.4215466"><ele>189.83333333333334</ele><time>2026-03-29T10:00:57.149Z</time></trkpt><trkpt lat="43.7647565" lon="11.4214489"><ele>189.0</ele><time>2026-03-29T10:00:59.149Z</time></trkpt><trkpt lat="43.7647738" lon="11.4213227"><ele>187.83333333333334</ele><time>2026-03-29T10:01:01.149Z</time></trkpt><trkpt lat="43.764787" lon="11.4212044"><ele>186.66666666666666</ele><time>2026-03-29T10:01:03.149Z</time></trkpt><trkpt lat="43.7647612" lon="11.4210862"><ele>185.5</ele><time>2026-03-29T10:01:06.149Z</time></trkpt><trkpt lat="43.7647881" lon="11.4209953"><ele>184.33333333333331</ele><time>2026-03-29T10:01:09.149Z</time></trkpt><trkpt lat="43.7648507" lon="11.4209332"><ele>183.16666666666666</ele><time>2026-03-29T10:01:11.149Z</time></trkpt><trkpt lat="43.7649228" lon="11.4208481"><ele>182.0</ele><time>2026-03-29T10:01:13.149Z</time></trkpt><trkpt lat="43.7649886" lon="11.4207735"><ele>182.0</ele><time>2026-03-29T10:01:15.149Z</time></trkpt><trkpt lat="43.7650343" lon="11.4206903"><ele>182.0</ele><time>2026-03-29T10:01:17.149Z</time></trkpt><trkpt lat="43.7650675" lon="11.4205742"><ele>182.0</ele><time>2026-03-29T10:01:19.149Z</time></trkpt><trkpt lat="43.7650999" lon="11.4204571"><ele>182.0</ele><time>2026-03-29T10:01:21.149Z</time></trkpt><trkpt lat="43.7651525" lon="11.4203279"><ele>182.0</ele><time>2026-03-29T10:01:23.149Z</time></trkpt><trkpt lat="43.7652165" lon="11.4202063"><ele>179.0</ele><time>2026-03-29T10:01:25.149Z</time></trkpt><trkpt lat="43.7652761" lon="11.4200678"><ele>176.0</ele><time>2026-03-29T10:01:27.149Z</time></trkpt><trkpt lat="43.7653273" lon="11.4199363"><ele>173.0</ele><time>2026-03-29T10:01:29.149Z</time></trkpt><trkpt lat="43.7653861" lon="11.4198245"><ele>170.0</ele><time>2026-03-29T10:01:31.148Z</time></trkpt><trkpt lat="43.7654196" lon="11.4197316"><ele>167.0</ele><time>2026-03-29T10:01:33.149Z</time></trkpt><trkpt lat="43.7654542" lon="11.4196395"><ele>167.0</ele><time>2026-03-29T10:01:35.149Z</time></trkpt><trkpt lat="43.7655114" lon="11.4195965"><ele>167.0</ele><time>2026-03-29T10:01:37.148Z</time></trkpt><trkpt lat="43.7655725" lon="11.4196347"><ele>167.0</ele><time>2026-03-29T10:01:39.149Z</time></trkpt><trkpt lat="43.7656367" lon="11.4196832"><ele>167.0</ele><time>2026-03-29T10:01:41.149Z</time></trkpt><trkpt lat="43.7657086" lon="11.4196924"><ele>167.0</ele><time>2026-03-29T10:01:43.149Z</time></trkpt><trkpt lat="43.7657822" lon="11.4196314"><ele>167.0</ele><time>2026-03-29T10:01:45.149Z</time></trkpt><trkpt lat="43.7658528" lon="11.4195486"><ele>163.33333333333331</ele><time>2026-03-29T10:01:47.149Z</time></trkpt><trkpt lat="43.7659267" lon="11.4194595"><ele>159.66666666666666</ele><time>2026-03-29T10:01:49.149Z</time></trkpt><trkpt lat="43.7659862" lon="11.4193704"><ele>156.0</ele><time>2026-03-29T10:01:51.149Z</time></trkpt><trkpt lat="43.7660502" lon="11.4192968"><ele>152.33333333333334</ele><time>2026-03-29T10:01:53.149Z</time></trkpt><trkpt lat="43.7661024" lon="11.4192353"><ele>148.66666666666669</ele><time>2026-03-29T10:01:55.149Z</time></trkpt><trkpt lat="43.7661685" lon="11.4191914"><ele>145.0</ele><time>2026-03-29T10:01:57.149Z</time></trkpt><trkpt lat="43.7662458" lon="11.41915"><ele>143.6</ele><time>2026-03-29T10:01:59.149Z</time></trkpt><trkpt lat="43.7663276" lon="11.4191198"><ele>142.2</ele><time>2026-03-29T10:02:01.149Z</time></trkpt><trkpt lat="43.7664095" lon="11.4190806"><ele>140.8</ele><time>2026-03-29T10:02:03.149Z</time></trkpt><trkpt lat="43.7664991" lon="11.4190421"><ele>139.4</ele><time>2026-03-29T10:02:05.149Z</time></trkpt><trkpt lat="43.7665935" lon="11.4189984"><ele>138.0</ele><time>2026-03-29T10:02:07.149Z</time></trkpt><trkpt lat="43.7666813" lon="11.4189606"><ele>138.0</ele><time>2026-03-29T10:02:09.149Z</time></trkpt><trkpt lat="43.7667829" lon="11.4189157"><ele>138.0</ele><time>2026-03-29T10:02:11.149Z</time></trkpt><trkpt lat="43.7668429" lon="11.4188878"><ele>138.0</ele><time>2026-03-29T10:02:12.149Z</time></trkpt><trkpt lat="43.766952" lon="11.4188291"><ele>138.0</ele><time>2026-03-29T10:02:14.149Z</time></trkpt><trkpt lat="43.7670466" lon="11.4187824"><ele>138.0</ele><time>2026-03-29T10:02:16.149Z</time></trkpt><trkpt lat="43.7671442" lon="11.4187731"><ele>133.8</ele><time>2026-03-29T10:02:18.149Z</time></trkpt><trkpt lat="43.7672335" lon="11.4187969"><ele>129.60000000000002</ele><time>2026-03-29T10:02:21.149Z</time></trkpt><trkpt lat="43.7673303" lon="11.4187651"><ele>125.39999999999999</ele><time>2026-03-29T10:02:23.149Z</time></trkpt><trkpt lat="43.7674297" lon="11.4187305"><ele>121.19999999999999</ele><time>2026-03-29T10:02:25.149Z</time></trkpt><trkpt lat="43.7675242" lon="11.4186903"><ele>117.0</ele><time>2026-03-29T10:02:27.149Z</time></trkpt><trkpt lat="43.7676371" lon="11.418636"><ele>113.39999999999999</ele><time>2026-03-29T10:02:29.149Z</time></trkpt><trkpt lat="43.7677291" lon="11.4185564"><ele>109.79999999999998</ele><time>2026-03-29T10:02:31.149Z</time></trkpt><trkpt lat="43.7678096" lon="11.4185239"><ele>106.2</ele><time>2026-03-29T10:02:33.149Z</time></trkpt><trkpt lat="43.7678467" lon="11.4186839"><ele>102.6</ele><time>2026-03-29T10:02:35.149Z</time></trkpt><trkpt lat="43.7678348" lon="11.4188013"><ele>99.0</ele><time>2026-03-29T10:02:36.149Z</time></trkpt><trkpt lat="43.7678214" lon="11.4189153"><ele>99.0</ele><time>2026-03-29T10:02:37.149Z</time></trkpt><trkpt lat="43.7678158" lon="11.4190134"><ele>99.0</ele><time>2026-03-29T10:02:38.149Z</time></trkpt><trkpt lat="43.7678405" lon="11.4191167"><ele>99.0</ele><time>2026-03-29T10:02:39.149Z</time></trkpt><trkpt lat="43.7679061" lon="11.4192378"><ele>99.0</ele><time>2026-03-29T10:02:40.149Z</time></trkpt><trkpt lat="43.7679836" lon="11.4193359"><ele>99.0</ele><time>2026-03-29T10:02:41.149Z</time></trkpt><trkpt lat="43.7680541" lon="11.4194407"><ele>99.0</ele><time>2026-03-29T10:02:42.149Z</time></trkpt><trkpt lat="43.7681019" lon="11.4195653"><ele>99.0</ele><time>2026-03-29T10:02:43.149Z</time></trkpt><trkpt lat="43.7681344" lon="11.4196895"><ele>99.0</ele><time>2026-03-29T10:02:44.149Z</time></trkpt><trkpt lat="43.7681532" lon="11.419819"><ele>99.0</ele><time>2026-03-29T10:02:45.149Z</time></trkpt><trkpt lat="43.7681686" lon="11.4199472"><ele>99.0</ele><time>2026-03-29T10:02:46.149Z</time></trkpt><trkpt lat="43.7681895" lon="11.4200663"><ele>99.0</ele><time>2026-03-29T10:02:47.149Z</time></trkpt><trkpt lat="43.7682144" lon="11.4201836"><ele>99.0</ele><time>2026-03-29T10:02:48.149Z</time></trkpt><trkpt lat="43.768259" lon="11.4203013"><ele>99.0</ele><time>2026-03-29T10:02:49.148Z</time></trkpt><trkpt lat="43.7683169" lon="11.4204202"><ele>99.0</ele><time>2026-03-29T10:02:50.148Z</time></trkpt><trkpt lat="43.7683831" lon="11.4205489"><ele>99.0</ele><time>2026-03-29T10:02:51.149Z</time></trkpt><trkpt lat="43.7684539" lon="11.4206821"><ele>98.25</ele><time>2026-03-29T10:02:52.149Z</time></trkpt><trkpt lat="43.7685212" lon="11.420821"><ele>97.5</ele><time>2026-03-29T10:02:53.149Z</time></trkpt><trkpt lat="43.7685949" lon="11.4209582"><ele>96.75</ele><time>2026-03-29T10:02:54.148Z</time></trkpt><trkpt lat="43.7686675" lon="11.4210898"><ele>96.0</ele><time>2026-03-29T10:02:55.149Z</time></trkpt><trkpt lat="43.7687406" lon="11.4212103"><ele>93.8</ele><time>2026-03-29T10:02:56.149Z</time></trkpt><trkpt lat="43.7688076" lon="11.4213248"><ele>91.6</ele><time>2026-03-29T10:02:57.149Z</time></trkpt><trkpt lat="43.7688756" lon="11.4214388"><ele>89.4</ele><time>2026-03-29T10:02:58.149Z</time></trkpt><trkpt lat="43.7689572" lon="11.4215354"><ele>87.2</ele><time>2026-03-29T10:02:59.149Z</time></trkpt><trkpt lat="43.7690509" lon="11.4216201"><ele>85.0</ele><time>2026-03-29T10:03:00.149Z</time></trkpt><trkpt lat="43.7691676" lon="11.4216828"><ele>85.0</ele><time>2026-03-29T10:03:01.149Z</time></trkpt><trkpt lat="43.7692847" lon="11.4217404"><ele>85.0</ele><time>2026-03-29T10:03:02.149Z</time></trkpt><trkpt lat="43.7694005" lon="11.4217932"><ele>85.0</ele><time>2026-03-29T10:03:03.149Z</time></trkpt><trkpt lat="43.7695022" lon="11.4218417"><ele>85.0</ele><time>2026-03-29T10:03:04.149Z</time></trkpt><trkpt lat="43.7695838" lon="11.4218787"><ele>85.0</ele><time>2026-03-29T10:03:05.148Z</time></trkpt><trkpt lat="43.769647" lon="11.4219074"><ele>84.6</ele><time>2026-03-29T10:03:06.149Z</time></trkpt><trkpt lat="43.7697126" lon="11.4219499"><ele>84.2</ele><time>2026-03-29T10:03:08.149Z</time></trkpt><trkpt lat="43.7697966" lon="11.4220333"><ele>83.80000000000001</ele><time>2026-03-29T10:03:11.148Z</time></trkpt><trkpt lat="43.7698685" lon="11.4220856"><ele>83.4</ele><time>2026-03-29T10:03:13.149Z</time></trkpt><trkpt lat="43.7700004" lon="11.4221288"><ele>83.0</ele><time>2026-03-29T10:03:15.149Z</time></trkpt><trkpt lat="43.7700753" lon="11.4221562"><ele>83.0</ele><time>2026-03-29T10:03:16.149Z</time></trkpt><trkpt lat="43.7701441" lon="11.4221811"><ele>83.0</ele><time>2026-03-29T10:03:17.149Z</time></trkpt><trkpt lat="43.7702061" lon="11.4222016"><ele>83.0</ele><time>2026-03-29T10:03:18.149Z</time></trkpt><trkpt lat="43.7702971" lon="11.4222224"><ele>83.0</ele><time>2026-03-29T10:03:20.149Z</time></trkpt><trkpt lat="43.7703573" lon="11.4221951"><ele>83.0</ele><time>2026-03-29T10:03:30.149Z</time></trkpt><trkpt lat="43.7703983" lon="11.4221135"><ele>83.0</ele><time>2026-03-29T10:03:36.149Z</time></trkpt><trkpt lat="43.7704078" lon="11.4219997"><ele>83.0</ele><time>2026-03-29T10:03:37.149Z</time></trkpt><trkpt lat="43.7704157" lon="11.4218582"><ele>81.5</ele><time>2026-03-29T10:03:38.149Z</time></trkpt><trkpt lat="43.7704302" lon="11.4217007"><ele>80.0</ele><time>2026-03-29T10:03:39.149Z</time></trkpt><trkpt lat="43.7704621" lon="11.421539"><ele>78.5</ele><time>2026-03-29T10:03:40.148Z</time></trkpt><trkpt lat="43.7705008" lon="11.4213619"><ele>77.0</ele><time>2026-03-29T10:03:41.149Z</time></trkpt><trkpt lat="43.770538" lon="11.4211542"><ele>77.0</ele><time>2026-03-29T10:03:42.149Z</time></trkpt><trkpt lat="43.7705864" lon="11.4209347"><ele>77.0</ele><time>2026-03-29T10:03:43.148Z</time></trkpt><trkpt lat="43.77064" lon="11.4207129"><ele>77.0</ele><time>2026-03-29T10:03:44.149Z</time></trkpt><trkpt lat="43.7707007" lon="11.4204792"><ele>77.0</ele><time>2026-03-29T10:03:45.149Z</time></trkpt><trkpt lat="43.7707597" lon="11.4202459"><ele>77.0</ele><time>2026-03-29T10:03:46.149Z</time></trkpt><trkpt lat="43.7708214" lon="11.4200057"><ele>77.0</ele><time>2026-03-29T10:03:47.149Z</time></trkpt><trkpt lat="43.7708846" lon="11.4197607"><ele>77.33333333333334</ele><time>2026-03-29T10:03:48.149Z</time></trkpt><trkpt lat="43.7709454" lon="11.4195155"><ele>77.66666666666667</ele><time>2026-03-29T10:03:49.149Z</time></trkpt><trkpt lat="43.7710013" lon="11.41929"><ele>78.0</ele><time>2026-03-29T10:03:50.149Z</time></trkpt><trkpt lat="43.7710539" lon="11.41908"><ele>78.0</ele><time>2026-03-29T10:03:51.149Z</time></trkpt><trkpt lat="43.7711065" lon="11.4188613"><ele>78.0</ele><time>2026-03-29T10:03:52.149Z</time></trkpt><trkpt lat="43.7711644" lon="11.4186379"><ele>78.0</ele><time>2026-03-29T10:03:53.149Z</time></trkpt><trkpt lat="43.7712275" lon="11.4184034"><ele>78.0</ele><time>2026-03-29T10:03:54.149Z</time></trkpt><trkpt lat="43.7712901" lon="11.4181687"><ele>78.0</ele><time>2026-03-29T10:03:55.149Z</time></trkpt><trkpt lat="43.771358" lon="11.4179375"><ele>78.0</ele><time>2026-03-29T10:03:56.149Z</time></trkpt><trkpt lat="43.7714285" lon="11.4177012"><ele>78.33333333333333</ele><time>2026-03-29T10:03:57.149Z</time></trkpt><trkpt lat="43.7715072" lon="11.4174556"><ele>78.66666666666666</ele><time>2026-03-29T10:03:58.149Z</time></trkpt><trkpt lat="43.7715894" lon="11.4172071"><ele>79.0</ele><time>2026-03-29T10:03:59.149Z</time></trkpt><trkpt lat="43.771678" lon="11.4169517"><ele>79.0</ele><time>2026-03-29T10:04:00.149Z</time></trkpt><trkpt lat="43.7717693" lon="11.4166948"><ele>79.0</ele><time>2026-03-29T10:04:01.149Z</time></trkpt><trkpt lat="43.7718589" lon="11.4164346"><ele>79.0</ele><time>2026-03-29T10:04:02.149Z</time></trkpt><trkpt lat="43.7719455" lon="11.4161727"><ele>78.0</ele><time>2026-03-29T10:04:03.149Z</time></trkpt><trkpt lat="43.7720283" lon="11.4159094"><ele>77.0</ele><time>2026-03-29T10:04:04.149Z</time></trkpt><trkpt lat="43.7721034" lon="11.4156425"><ele>76.0</ele><time>2026-03-29T10:04:05.149Z</time></trkpt><trkpt lat="43.7721716" lon="11.4153641"><ele>76.0</ele><time>2026-03-29T10:04:06.149Z</time></trkpt><trkpt lat="43.7722324" lon="11.4150861"><ele>76.0</ele><time>2026-03-29T10:04:07.149Z</time></trkpt><trkpt lat="43.7722942" lon="11.414829"><ele>76.0</ele><time>2026-03-29T10:04:08.148Z</time></trkpt><trkpt lat="43.7723716" lon="11.414599"><ele>76.0</ele><time>2026-03-29T10:04:09.149Z</time></trkpt><trkpt lat="43.7724726" lon="11.4144196"><ele>76.0</ele><time>2026-03-29T10:04:10.149Z</time></trkpt><trkpt lat="43.7725698" lon="11.4143011"><ele>76.0</ele><time>2026-03-29T10:04:11.148Z</time></trkpt><trkpt lat="43.7726607" lon="11.4141909"><ele>76.0</ele><time>2026-03-29T10:04:12.149Z</time></trkpt><trkpt lat="43.7727572" lon="11.4140571"><ele>76.0</ele><time>2026-03-29T10:04:13.149Z</time></trkpt><trkpt lat="43.7728511" lon="11.4138926"><ele>76.0</ele><time>2026-03-29T10:04:14.149Z</time></trkpt><trkpt lat="43.7729437" lon="11.413696"><ele>76.0</ele><time>2026-03-29T10:04:15.148Z</time></trkpt><trkpt lat="43.7730253" lon="11.4134957"><ele>77.0</ele><time>2026-03-29T10:04:16.149Z</time></trkpt><trkpt lat="43.7731126" lon="11.4133188"><ele>78.0</ele><time>2026-03-29T10:04:17.149Z</time></trkpt><trkpt lat="43.7731891" lon="11.4131534"><ele>79.0</ele><time>2026-03-29T10:04:18.149Z</time></trkpt><trkpt lat="43.7732711" lon="11.41301"><ele>80.0</ele><time>2026-03-29T10:04:19.149Z</time></trkpt><trkpt lat="43.7733653" lon="11.4128825"><ele>80.0</ele><time>2026-03-29T10:04:20.149Z</time></trkpt><trkpt lat="43.7734793" lon="11.4127795"><ele>80.0</ele><time>2026-03-29T10:04:21.149Z</time></trkpt><trkpt lat="43.7736061" lon="11.4127036"><ele>80.0</ele><time>2026-03-29T10:04:22.149Z</time></trkpt><trkpt lat="43.7737109" lon="11.4126153"><ele>80.0</ele><time>2026-03-29T10:04:23.149Z</time></trkpt><trkpt lat="43.7738144" lon="11.4125555"><ele>79.8</ele><time>2026-03-29T10:04:24.149Z</time></trkpt><trkpt lat="43.7739026" lon="11.4125244"><ele>79.6</ele><time>2026-03-29T10:04:25.149Z</time></trkpt><trkpt lat="43.7739832" lon="11.4125466"><ele>79.4</ele><time>2026-03-29T10:04:26.149Z</time></trkpt><trkpt lat="43.7740494" lon="11.4125998"><ele>79.2</ele><time>2026-03-29T10:04:27.149Z</time></trkpt><trkpt lat="43.7740996" lon="11.4126905"><ele>79.0</ele><time>2026-03-29T10:04:28.149Z</time></trkpt><trkpt lat="43.7741255" lon="11.4128561"><ele>78.66666666666666</ele><time>2026-03-29T10:04:29.149Z</time></trkpt><trkpt lat="43.7741254" lon="11.4130486"><ele>78.33333333333333</ele><time>2026-03-29T10:04:30.149Z</time></trkpt><trkpt lat="43.7741404" lon="11.4132755"><ele>78.0</ele><time>2026-03-29T10:04:31.149Z</time></trkpt><trkpt lat="43.7741687" lon="11.4135293"><ele>78.0</ele><time>2026-03-29T10:04:32.149Z</time></trkpt><trkpt lat="43.7741971" lon="11.4138058"><ele>78.0</ele><time>2026-03-29T10:04:33.149Z</time></trkpt><trkpt lat="43.7742222" lon="11.414081"><ele>78.0</ele><time>2026-03-29T10:04:34.149Z</time></trkpt><trkpt lat="43.7742507" lon="11.4143457"><ele>78.0</ele><time>2026-03-29T10:04:35.149Z</time></trkpt><trkpt lat="43.7742782" lon="11.4146156"><ele>78.0</ele><time>2026-03-29T10:04:36.149Z</time></trkpt><trkpt lat="43.7743022" lon="11.4148778"><ele>78.0</ele><time>2026-03-29T10:04:37.149Z</time></trkpt><trkpt lat="43.7743335" lon="11.4151147"><ele>78.0</ele><time>2026-03-29T10:04:38.149Z</time></trkpt><trkpt lat="43.7743524" lon="11.4153232"><ele>78.0</ele><time>2026-03-29T10:04:39.149Z</time></trkpt><trkpt lat="43.7743663" lon="11.4155185"><ele>78.0</ele><time>2026-03-29T10:04:40.149Z</time></trkpt><trkpt lat="43.7743547" lon="11.415707"><ele>78.0</ele><time>2026-03-29T10:04:41.149Z</time></trkpt><trkpt lat="43.7743459" lon="11.4158599"><ele>78.16666666666667</ele><time>2026-03-29T10:04:42.149Z</time></trkpt><trkpt lat="43.7743159" lon="11.4159947"><ele>78.33333333333333</ele><time>2026-03-29T10:04:43.149Z</time></trkpt><trkpt lat="43.7742933" lon="11.4160959"><ele>78.5</ele><time>2026-03-29T10:04:44.149Z</time></trkpt><trkpt lat="43.774266" lon="11.416175"><ele>78.66666666666666</ele><time>2026-03-29T10:04:46.149Z</time></trkpt><trkpt lat="43.7742372" lon="11.4162529"><ele>78.83333333333333</ele><time>2026-03-29T10:04:48.149Z</time></trkpt><trkpt lat="43.7742148" lon="11.416354"><ele>79.0</ele><time>2026-03-29T10:04:49.149Z</time></trkpt><trkpt lat="43.7741886" lon="11.4164878"><ele>79.33333333333333</ele><time>2026-03-29T10:04:50.149Z</time></trkpt><trkpt lat="43.7741706" lon="11.4166244"><ele>79.66666666666666</ele><time>2026-03-29T10:04:51.149Z</time></trkpt><trkpt lat="43.774176" lon="11.4167415"><ele>80.0</ele><time>2026-03-29T10:04:52.149Z</time></trkpt><trkpt lat="43.7742086" lon="11.4168406"><ele>80.33333333333333</ele><time>2026-03-29T10:04:53.149Z</time></trkpt><trkpt lat="43.774251" lon="11.4169281"><ele>80.66666666666667</ele><time>2026-03-29T10:04:54.149Z</time></trkpt><trkpt lat="43.7743152" lon="11.4169948"><ele>81.0</ele><time>2026-03-29T10:04:55.149Z</time></trkpt><trkpt lat="43.774393" lon="11.4170295"><ele>81.16666666666667</ele><time>2026-03-29T10:04:56.149Z</time></trkpt><trkpt lat="43.7744635" lon="11.4170425"><ele>81.33333333333333</ele><time>2026-03-29T10:04:57.149Z</time></trkpt><trkpt lat="43.77453" lon="11.4170233"><ele>81.5</ele><time>2026-03-29T10:04:58.149Z</time></trkpt><trkpt lat="43.7745926" lon="11.4169717"><ele>81.66666666666666</ele><time>2026-03-29T10:04:59.148Z</time></trkpt><trkpt lat="43.7746606" lon="11.416909"><ele>81.83333333333333</ele><time>2026-03-29T10:05:00.148Z</time></trkpt><trkpt lat="43.774742" lon="11.4168279"><ele>82.0</ele><time>2026-03-29T10:05:01.149Z</time></trkpt><trkpt lat="43.77485" lon="11.4167171"><ele>82.0</ele><time>2026-03-29T10:05:02.149Z</time></trkpt><trkpt lat="43.7749607" lon="11.4166149"><ele>82.0</ele><time>2026-03-29T10:05:03.149Z</time></trkpt><trkpt lat="43.7750783" lon="11.4165204"><ele>82.0</ele><time>2026-03-29T10:05:04.149Z</time></trkpt><trkpt lat="43.7752095" lon="11.4164408"><ele>82.0</ele><time>2026-03-29T10:05:05.149Z</time></trkpt><trkpt lat="43.7753451" lon="11.4163666"><ele>81.33333333333333</ele><time>2026-03-29T10:05:06.148Z</time></trkpt><trkpt lat="43.7754812" lon="11.4162924"><ele>80.66666666666667</ele><time>2026-03-29T10:05:07.149Z</time></trkpt><trkpt lat="43.7756232" lon="11.4162172"><ele>80.0</ele><time>2026-03-29T10:05:08.149Z</time></trkpt><trkpt lat="43.7757662" lon="11.4161364"><ele>80.0</ele><time>2026-03-29T10:05:09.149Z</time></trkpt><trkpt lat="43.7759095" lon="11.4160561"><ele>80.0</ele><time>2026-03-29T10:05:10.149Z</time></trkpt><trkpt lat="43.7760529" lon="11.4159588"><ele>80.0</ele><time>2026-03-29T10:05:11.149Z</time></trkpt><trkpt lat="43.7761905" lon="11.4158425"><ele>81.0</ele><time>2026-03-29T10:05:12.149Z</time></trkpt><trkpt lat="43.7763254" lon="11.4157117"><ele>82.0</ele><time>2026-03-29T10:05:13.149Z</time></trkpt><trkpt lat="43.7764511" lon="11.4155498"><ele>83.0</ele><time>2026-03-29T10:05:14.149Z</time></trkpt><trkpt lat="43.7765576" lon="11.4153572"><ele>83.0</ele><time>2026-03-29T10:05:15.149Z</time></trkpt><trkpt lat="43.7766554" lon="11.4151595"><ele>83.0</ele><time>2026-03-29T10:05:16.149Z</time></trkpt><trkpt lat="43.776741" lon="11.4149551"><ele>83.0</ele><time>2026-03-29T10:05:17.149Z</time></trkpt><trkpt lat="43.7768181" lon="11.4147427"><ele>88.33333333333334</ele><time>2026-03-29T10:05:18.149Z</time></trkpt><trkpt lat="43.7768953" lon="11.4145312"><ele>93.66666666666667</ele><time>2026-03-29T10:05:19.148Z</time></trkpt><trkpt lat="43.7769748" lon="11.4143263"><ele>99.0</ele><time>2026-03-29T10:05:20.149Z</time></trkpt><trkpt lat="43.7770521" lon="11.4141364"><ele>99.0</ele><time>2026-03-29T10:05:21.149Z</time></trkpt><trkpt lat="43.7771236" lon="11.4139567"><ele>99.0</ele><time>2026-03-29T10:05:22.149Z</time></trkpt><trkpt lat="43.7771989" lon="11.4137814"><ele>99.0</ele><time>2026-03-29T10:05:23.149Z</time></trkpt><trkpt lat="43.7772752" lon="11.4136013"><ele>99.0</ele><time>2026-03-29T10:05:24.149Z</time></trkpt><trkpt lat="43.7773555" lon="11.413414"><ele>95.33333333333333</ele><time>2026-03-29T10:05:25.148Z</time></trkpt><trkpt lat="43.7774446" lon="11.4132261"><ele>91.66666666666666</ele><time>2026-03-29T10:05:26.149Z</time></trkpt><trkpt lat="43.7775296" lon="11.4130392"><ele>88.0</ele><time>2026-03-29T10:05:27.149Z</time></trkpt><trkpt lat="43.777621" lon="11.4128554"><ele>92.66666666666666</ele><time>2026-03-29T10:05:28.149Z</time></trkpt><trkpt lat="43.7777168" lon="11.4126809"><ele>97.33333333333333</ele><time>2026-03-29T10:05:29.149Z</time></trkpt><trkpt lat="43.7778164" lon="11.4125064"><ele>102.0</ele><time>2026-03-29T10:05:30.149Z</time></trkpt><trkpt lat="43.7779114" lon="11.4123322"><ele>102.0</ele><time>2026-03-29T10:05:31.149Z</time></trkpt><trkpt lat="43.7780006" lon="11.4121596"><ele>102.0</ele><time>2026-03-29T10:05:32.149Z</time></trkpt><trkpt lat="43.7780919" lon="11.4119864"><ele>102.0</ele><time>2026-03-29T10:05:33.149Z</time></trkpt><trkpt lat="43.7781794" lon="11.4118087"><ele>95.33333333333333</ele><time>2026-03-29T10:05:34.149Z</time></trkpt><trkpt lat="43.7782719" lon="11.4116432"><ele>88.66666666666666</ele><time>2026-03-29T10:05:35.149Z</time></trkpt><trkpt lat="43.7783703" lon="11.4114749"><ele>82.0</ele><time>2026-03-29T10:05:36.149Z</time></trkpt><trkpt lat="43.7784687" lon="11.4113034"><ele>82.66666666666666</ele><time>2026-03-29T10:05:37.149Z</time></trkpt><trkpt lat="43.7785715" lon="11.411125"><ele>83.33333333333333</ele><time>2026-03-29T10:05:38.149Z</time></trkpt><trkpt lat="43.7786751" lon="11.4109563"><ele>84.0</ele><time>2026-03-29T10:05:39.149Z</time></trkpt><trkpt lat="43.7787771" lon="11.4107988"><ele>84.0</ele><time>2026-03-29T10:05:40.149Z</time></trkpt><trkpt lat="43.7788761" lon="11.4106544"><ele>84.0</ele><time>2026-03-29T10:05:41.149Z</time></trkpt><trkpt lat="43.7789733" lon="11.4105084"><ele>84.0</ele><time>2026-03-29T10:05:42.149Z</time></trkpt><trkpt lat="43.7790722" lon="11.4103559"><ele>84.0</ele><time>2026-03-29T10:05:43.149Z</time></trkpt><trkpt lat="43.7791662" lon="11.4101937"><ele>84.0</ele><time>2026-03-29T10:05:44.149Z</time></trkpt><trkpt lat="43.7792538" lon="11.4100219"><ele>84.0</ele><time>2026-03-29T10:05:45.149Z</time></trkpt><trkpt lat="43.7793312" lon="11.4098326"><ele>84.0</ele><time>2026-03-29T10:05:46.148Z</time></trkpt><trkpt lat="43.7794044" lon="11.4096312"><ele>84.0</ele><time>2026-03-29T10:05:47.149Z</time></trkpt><trkpt lat="43.7794726" lon="11.4094252"><ele>84.0</ele><time>2026-03-29T10:05:48.149Z</time></trkpt><trkpt lat="43.7795413" lon="11.4092192"><ele>84.0</ele><time>2026-03-29T10:05:49.149Z</time></trkpt><trkpt lat="43.7796073" lon="11.4090121"><ele>83.0</ele><time>2026-03-29T10:05:50.149Z</time></trkpt><trkpt lat="43.7796772" lon="11.4088162"><ele>82.0</ele><time>2026-03-29T10:05:51.149Z</time></trkpt><trkpt lat="43.779757" lon="11.4086441"><ele>81.0</ele><time>2026-03-29T10:05:52.149Z</time></trkpt><trkpt lat="43.779856" lon="11.4085116"><ele>80.0</ele><time>2026-03-29T10:05:53.149Z</time></trkpt><trkpt lat="43.7799559" lon="11.4084066"><ele>80.0</ele><time>2026-03-29T10:05:54.149Z</time></trkpt><trkpt lat="43.7800608" lon="11.4083064"><ele>80.0</ele><time>2026-03-29T10:05:55.149Z</time></trkpt><trkpt lat="43.7801712" lon="11.4082059"><ele>80.0</ele><time>2026-03-29T10:05:56.149Z</time></trkpt><trkpt lat="43.7802824" lon="11.4081044"><ele>80.0</ele><time>2026-03-29T10:05:57.149Z</time></trkpt><trkpt lat="43.7804043" lon="11.4079895"><ele>80.75</ele><time>2026-03-29T10:05:58.149Z</time></trkpt><trkpt lat="43.7805267" lon="11.4078753"><ele>81.5</ele><time>2026-03-29T10:05:59.149Z</time></trkpt><trkpt lat="43.7806457" lon="11.4077621"><ele>82.25</ele><time>2026-03-29T10:06:00.149Z</time></trkpt><trkpt lat="43.780765" lon="11.4076475"><ele>83.0</ele><time>2026-03-29T10:06:01.149Z</time></trkpt><trkpt lat="43.7808802" lon="11.4075378"><ele>83.0</ele><time>2026-03-29T10:06:02.149Z</time></trkpt><trkpt lat="43.7809949" lon="11.4074332"><ele>83.0</ele><time>2026-03-29T10:06:03.148Z</time></trkpt><trkpt lat="43.7811099" lon="11.4073262"><ele>83.0</ele><time>2026-03-29T10:06:04.149Z</time></trkpt><trkpt lat="43.7812209" lon="11.407223"><ele>83.0</ele><time>2026-03-29T10:06:05.149Z</time></trkpt><trkpt lat="43.7813307" lon="11.4071287"><ele>83.0</ele><time>2026-03-29T10:06:06.149Z</time></trkpt><trkpt lat="43.7814416" lon="11.4070394"><ele>83.0</ele><time>2026-03-29T10:06:07.148Z</time></trkpt><trkpt lat="43.7815548" lon="11.4069549"><ele>83.0</ele><time>2026-03-29T10:06:08.149Z</time></trkpt><trkpt lat="43.7816711" lon="11.406875"><ele>83.0</ele><time>2026-03-29T10:06:09.149Z</time></trkpt><trkpt lat="43.7817876" lon="11.4067965"><ele>83.0</ele><time>2026-03-29T10:06:10.149Z</time></trkpt><trkpt lat="43.7818995" lon="11.406726"><ele>83.0</ele><time>2026-03-29T10:06:11.149Z</time></trkpt><trkpt lat="43.7820061" lon="11.4066623"><ele>83.0</ele><time>2026-03-29T10:06:12.149Z</time></trkpt><trkpt lat="43.7821223" lon="11.4066018"><ele>83.0</ele><time>2026-03-29T10:06:13.149Z</time></trkpt><trkpt lat="43.782229" lon="11.406533"><ele>83.0</ele><time>2026-03-29T10:06:14.149Z</time></trkpt><trkpt lat="43.7823365" lon="11.4064448"><ele>83.0</ele><time>2026-03-29T10:06:15.148Z</time></trkpt><trkpt lat="43.782437" lon="11.406328"><ele>83.0</ele><time>2026-03-29T10:06:16.149Z</time></trkpt><trkpt lat="43.7825193" lon="11.4061894"><ele>83.0</ele><time>2026-03-29T10:06:17.149Z</time></trkpt><trkpt lat="43.78261" lon="11.4060352"><ele>83.33333333333334</ele><time>2026-03-29T10:06:18.149Z</time></trkpt><trkpt lat="43.7827012" lon="11.4058695"><ele>83.66666666666667</ele><time>2026-03-29T10:06:19.149Z</time></trkpt><trkpt lat="43.7827909" lon="11.4056949"><ele>84.0</ele><time>2026-03-29T10:06:20.149Z</time></trkpt><trkpt lat="43.7828827" lon="11.4055203"><ele>84.33333333333333</ele><time>2026-03-29T10:06:21.149Z</time></trkpt><trkpt lat="43.7829725" lon="11.4053492"><ele>84.66666666666666</ele><time>2026-03-29T10:06:22.149Z</time></trkpt><trkpt lat="43.783057" lon="11.4051711"><ele>85.0</ele><time>2026-03-29T10:06:23.149Z</time></trkpt><trkpt lat="43.7831381" lon="11.4050011"><ele>85.0</ele><time>2026-03-29T10:06:24.149Z</time></trkpt><trkpt lat="43.7832093" lon="11.4048351"><ele>85.0</ele><time>2026-03-29T10:06:25.149Z</time></trkpt><trkpt lat="43.7832844" lon="11.4046597"><ele>85.0</ele><time>2026-03-29T10:06:26.149Z</time></trkpt><trkpt lat="43.7833524" lon="11.4044868"><ele>85.0</ele><time>2026-03-29T10:06:27.149Z</time></trkpt><trkpt lat="43.7834311" lon="11.404316"><ele>84.75</ele><time>2026-03-29T10:06:28.149Z</time></trkpt><trkpt lat="43.783509" lon="11.4041464"><ele>84.5</ele><time>2026-03-29T10:06:29.149Z</time></trkpt><trkpt lat="43.7835931" lon="11.4039784"><ele>84.25</ele><time>2026-03-29T10:06:30.149Z</time></trkpt><trkpt lat="43.7836855" lon="11.4038191"><ele>84.0</ele><time>2026-03-29T10:06:31.149Z</time></trkpt><trkpt lat="43.7837762" lon="11.4036633"><ele>84.0</ele><time>2026-03-29T10:06:32.149Z</time></trkpt><trkpt lat="43.7838623" lon="11.4035198"><ele>84.0</ele><time>2026-03-29T10:06:33.149Z</time></trkpt><trkpt lat="43.783946" lon="11.4033776"><ele>84.0</ele><time>2026-03-29T10:06:34.149Z</time></trkpt><trkpt lat="43.784029" lon="11.4032374"><ele>84.0</ele><time>2026-03-29T10:06:35.149Z</time></trkpt><trkpt lat="43.7841142" lon="11.403094"><ele>83.75</ele><time>2026-03-29T10:06:36.149Z</time></trkpt><trkpt lat="43.7841979" lon="11.4029462"><ele>83.5</ele><time>2026-03-29T10:06:37.149Z</time></trkpt><trkpt lat="43.7842809" lon="11.4027934"><ele>83.25</ele><time>2026-03-29T10:06:38.149Z</time></trkpt><trkpt lat="43.7843564" lon="11.4026381"><ele>83.0</ele><time>2026-03-29T10:06:39.149Z</time></trkpt><trkpt lat="43.7844303" lon="11.4024725"><ele>83.0</ele><time>2026-03-29T10:06:40.149Z</time></trkpt><trkpt lat="43.7845038" lon="11.402311"><ele>83.0</ele><time>2026-03-29T10:06:41.149Z</time></trkpt><trkpt lat="43.7845703" lon="11.4021555"><ele>83.0</ele><time>2026-03-29T10:06:42.149Z</time></trkpt><trkpt lat="43.7846356" lon="11.4020031"><ele>83.0</ele><time>2026-03-29T10:06:43.149Z</time></trkpt><trkpt lat="43.7847018" lon="11.4018591"><ele>83.0</ele><time>2026-03-29T10:06:44.149Z</time></trkpt><trkpt lat="43.7847675" lon="11.4017155"><ele>83.0</ele><time>2026-03-29T10:06:45.149Z</time></trkpt><trkpt lat="43.7848309" lon="11.4015706"><ele>83.0</ele><time>2026-03-29T10:06:46.149Z</time></trkpt><trkpt lat="43.7848903" lon="11.4014217"><ele>83.0</ele><time>2026-03-29T10:06:47.148Z</time></trkpt><trkpt lat="43.7849516" lon="11.4012566"><ele>83.0</ele><time>2026-03-29T10:06:48.149Z</time></trkpt><trkpt lat="43.7850223" lon="11.4011089"><ele>83.0</ele><time>2026-03-29T10:06:49.149Z</time></trkpt><trkpt lat="43.7850938" lon="11.4009532"><ele>83.0</ele><time>2026-03-29T10:06:50.149Z</time></trkpt><trkpt lat="43.7851718" lon="11.4008038"><ele>83.0</ele><time>2026-03-29T10:06:51.149Z</time></trkpt><trkpt lat="43.7852539" lon="11.4006474"><ele>82.75</ele><time>2026-03-29T10:06:52.148Z</time></trkpt><trkpt lat="43.7853263" lon="11.4004846"><ele>82.5</ele><time>2026-03-29T10:06:53.149Z</time></trkpt><trkpt lat="43.7854013" lon="11.4003314"><ele>82.25</ele><time>2026-03-29T10:06:54.149Z</time></trkpt><trkpt lat="43.7854705" lon="11.4001853"><ele>82.0</ele><time>2026-03-29T10:06:55.149Z</time></trkpt><trkpt lat="43.7855362" lon="11.4000423"><ele>82.0</ele><time>2026-03-29T10:06:56.149Z</time></trkpt><trkpt lat="43.7856033" lon="11.3999009"><ele>82.0</ele><time>2026-03-29T10:06:57.149Z</time></trkpt><trkpt lat="43.7856636" lon="11.3997663"><ele>82.0</ele><time>2026-03-29T10:06:58.149Z</time></trkpt><trkpt lat="43.7857266" lon="11.3996382"><ele>82.0</ele><time>2026-03-29T10:06:59.149Z</time></trkpt><trkpt lat="43.7857832" lon="11.3995166"><ele>81.39999999999999</ele><time>2026-03-29T10:07:00.149Z</time></trkpt><trkpt lat="43.7858426" lon="11.3994018"><ele>80.8</ele><time>2026-03-29T10:07:01.149Z</time></trkpt><trkpt lat="43.7858983" lon="11.3992819"><ele>80.2</ele><time>2026-03-29T10:07:02.149Z</time></trkpt><trkpt lat="43.785948" lon="11.3991671"><ele>79.6</ele><time>2026-03-29T10:07:03.149Z</time></trkpt><trkpt lat="43.7859989" lon="11.3990595"><ele>79.0</ele><time>2026-03-29T10:07:04.149Z</time></trkpt><trkpt lat="43.7860467" lon="11.3989505"><ele>79.0</ele><time>2026-03-29T10:07:05.149Z</time></trkpt><trkpt lat="43.786088" lon="11.398843"><ele>79.0</ele><time>2026-03-29T10:07:06.149Z</time></trkpt><trkpt lat="43.7861301" lon="11.3987406"><ele>79.0</ele><time>2026-03-29T10:07:07.149Z</time></trkpt><trkpt lat="43.7861652" lon="11.3986365"><ele>79.0</ele><time>2026-03-29T10:07:08.149Z</time></trkpt><trkpt lat="43.7862008" lon="11.3985465"><ele>79.0</ele><time>2026-03-29T10:07:09.149Z</time></trkpt><trkpt lat="43.7862303" lon="11.3984689"><ele>79.0</ele><time>2026-03-29T10:07:10.149Z</time></trkpt><trkpt lat="43.7862722" lon="11.3983381"><ele>79.0</ele><time>2026-03-29T10:07:12.149Z</time></trkpt><trkpt lat="43.7863018" lon="11.3982282"><ele>79.0</ele><time>2026-03-29T10:07:14.149Z</time></trkpt><trkpt lat="43.7863565" lon="11.3981346"><ele>79.0</ele><time>2026-03-29T10:07:16.149Z</time></trkpt><trkpt lat="43.7864294" lon="11.3980173"><ele>79.0</ele><time>2026-03-29T10:07:18.149Z</time></trkpt><trkpt lat="43.7864633" lon="11.3979347"><ele>79.0</ele><time>2026-03-29T10:07:19.149Z</time></trkpt><trkpt lat="43.7864962" lon="11.3978422"><ele>79.0</ele><time>2026-03-29T10:07:20.149Z</time></trkpt><trkpt lat="43.7865341" lon="11.3977391"><ele>78.60000000000001</ele><time>2026-03-29T10:07:21.149Z</time></trkpt><trkpt lat="43.7865836" lon="11.3976411"><ele>78.2</ele><time>2026-03-29T10:07:22.148Z</time></trkpt><trkpt lat="43.786626" lon="11.3975404"><ele>77.80000000000001</ele><time>2026-03-29T10:07:23.149Z</time></trkpt><trkpt lat="43.786672" lon="11.3974296"><ele>77.4</ele><time>2026-03-29T10:07:24.149Z</time></trkpt><trkpt lat="43.7867177" lon="11.3973085"><ele>77.0</ele><time>2026-03-29T10:07:25.148Z</time></trkpt><trkpt lat="43.7867687" lon="11.3971805"><ele>77.2</ele><time>2026-03-29T10:07:26.149Z</time></trkpt><trkpt lat="43.7868201" lon="11.3970461"><ele>77.4</ele><time>2026-03-29T10:07:27.149Z</time></trkpt><trkpt lat="43.7868772" lon="11.3969067"><ele>77.6</ele><time>2026-03-29T10:07:28.149Z</time></trkpt><trkpt lat="43.7869311" lon="11.3967694"><ele>77.8</ele><time>2026-03-29T10:07:29.149Z</time></trkpt><trkpt lat="43.786984" lon="11.3966349"><ele>78.0</ele><time>2026-03-29T10:07:30.149Z</time></trkpt><trkpt lat="43.7870392" lon="11.3965038"><ele>78.0</ele><time>2026-03-29T10:07:31.149Z</time></trkpt><trkpt lat="43.7870895" lon="11.3963816"><ele>78.0</ele><time>2026-03-29T10:07:32.149Z</time></trkpt><trkpt lat="43.7871448" lon="11.3962437"><ele>78.0</ele><time>2026-03-29T10:07:33.149Z</time></trkpt><trkpt lat="43.7872011" lon="11.3961029"><ele>78.0</ele><time>2026-03-29T10:07:34.149Z</time></trkpt><trkpt lat="43.7872499" lon="11.395962"><ele>78.0</ele><time>2026-03-29T10:07:35.149Z</time></trkpt><trkpt lat="43.7873077" lon="11.3958303"><ele>78.0</ele><time>2026-03-29T10:07:36.149Z</time></trkpt><trkpt lat="43.7873648" lon="11.3957052"><ele>78.0</ele><time>2026-03-29T10:07:37.149Z</time></trkpt><trkpt lat="43.7874125" lon="11.3956036"><ele>78.0</ele><time>2026-03-29T10:07:38.149Z</time></trkpt><trkpt lat="43.7874594" lon="11.3954961"><ele>78.0</ele><time>2026-03-29T10:07:39.149Z</time></trkpt><trkpt lat="43.7875118" lon="11.3953855"><ele>78.0</ele><time>2026-03-29T10:07:40.149Z</time></trkpt><trkpt lat="43.7875639" lon="11.3952813"><ele>78.0</ele><time>2026-03-29T10:07:41.149Z</time></trkpt><trkpt lat="43.7876215" lon="11.3951878"><ele>78.0</ele><time>2026-03-29T10:07:42.149Z</time></trkpt><trkpt lat="43.7876818" lon="11.3951026"><ele>78.0</ele><time>2026-03-29T10:07:43.149Z</time></trkpt><trkpt lat="43.7877407" lon="11.3950261"><ele>78.0</ele><time>2026-03-29T10:07:44.149Z</time></trkpt><trkpt lat="43.7877991" lon="11.3949686"><ele>78.0</ele><time>2026-03-29T10:07:45.149Z</time></trkpt><trkpt lat="43.7878526" lon="11.3949197"><ele>78.0</ele><time>2026-03-29T10:07:46.149Z</time></trkpt><trkpt lat="43.7879617" lon="11.3948387"><ele>78.0</ele><time>2026-03-29T10:07:48.149Z</time></trkpt><trkpt lat="43.7880185" lon="11.3947966"><ele>78.0</ele><time>2026-03-29T10:07:49.149Z</time></trkpt><trkpt lat="43.7880775" lon="11.3947618"><ele>78.0</ele><time>2026-03-29T10:07:50.149Z</time></trkpt><trkpt lat="43.7881648" lon="11.3947051"><ele>78.0</ele><time>2026-03-29T10:07:52.149Z</time></trkpt><trkpt lat="43.7882307" lon="11.3946696"><ele>78.0</ele><time>2026-03-29T10:07:54.149Z</time></trkpt><trkpt lat="43.7883275" lon="11.3945934"><ele>78.0</ele><time>2026-03-29T10:08:06.149Z</time></trkpt><trkpt lat="43.7884033" lon="11.3945317"><ele>78.0</ele><time>2026-03-29T10:08:07.148Z</time></trkpt><trkpt lat="43.7884875" lon="11.3944593"><ele>78.0</ele><time>2026-03-29T10:08:08.149Z</time></trkpt><trkpt lat="43.7885841" lon="11.3943898"><ele>78.0</ele><time>2026-03-29T10:08:09.149Z</time></trkpt><trkpt lat="43.7887007" lon="11.3943086"><ele>78.0</ele><time>2026-03-29T10:08:10.149Z</time></trkpt><trkpt lat="43.7888195" lon="11.3942235"><ele>78.0</ele><time>2026-03-29T10:08:11.149Z</time></trkpt><trkpt lat="43.7889499" lon="11.3941319"><ele>78.0</ele><time>2026-03-29T10:08:12.149Z</time></trkpt><trkpt lat="43.7890739" lon="11.3940425"><ele>78.0</ele><time>2026-03-29T10:08:13.149Z</time></trkpt><trkpt lat="43.7891969" lon="11.3939572"><ele>78.0</ele><time>2026-03-29T10:08:14.149Z</time></trkpt><trkpt lat="43.7893189" lon="11.3938694"><ele>78.25</ele><time>2026-03-29T10:08:15.149Z</time></trkpt><trkpt lat="43.7894436" lon="11.3937799"><ele>78.5</ele><time>2026-03-29T10:08:16.149Z</time></trkpt><trkpt lat="43.7895652" lon="11.3936854"><ele>78.75</ele><time>2026-03-29T10:08:17.148Z</time></trkpt><trkpt lat="43.7896741" lon="11.3935831"><ele>79.0</ele><time>2026-03-29T10:08:18.149Z</time></trkpt><trkpt lat="43.789779" lon="11.3934733"><ele>79.0</ele><time>2026-03-29T10:08:19.149Z</time></trkpt><trkpt lat="43.7898819" lon="11.3933566"><ele>79.0</ele><time>2026-03-29T10:08:20.149Z</time></trkpt><trkpt lat="43.7899878" lon="11.3932367"><ele>79.0</ele><time>2026-03-29T10:08:21.149Z</time></trkpt><trkpt lat="43.790097" lon="11.3931138"><ele>79.0</ele><time>2026-03-29T10:08:22.149Z</time></trkpt><trkpt lat="43.7902146" lon="11.3929974"><ele>78.25</ele><time>2026-03-29T10:08:23.149Z</time></trkpt><trkpt lat="43.7903277" lon="11.3928977"><ele>77.5</ele><time>2026-03-29T10:08:24.149Z</time></trkpt><trkpt lat="43.7904494" lon="11.3928353"><ele>76.75</ele><time>2026-03-29T10:08:25.149Z</time></trkpt><trkpt lat="43.790558" lon="11.3927856"><ele>76.0</ele><time>2026-03-29T10:08:26.149Z</time></trkpt><trkpt lat="43.7906646" lon="11.3927444"><ele>76.0</ele><time>2026-03-29T10:08:27.148Z</time></trkpt><trkpt lat="43.790765" lon="11.3927105"><ele>76.0</ele><time>2026-03-29T10:08:28.149Z</time></trkpt><trkpt lat="43.7908656" lon="11.3926875"><ele>76.0</ele><time>2026-03-29T10:08:29.149Z</time></trkpt><trkpt lat="43.7909694" lon="11.3926562"><ele>76.0</ele><time>2026-03-29T10:08:30.149Z</time></trkpt><trkpt lat="43.7910686" lon="11.3926156"><ele>76.0</ele><time>2026-03-29T10:08:31.149Z</time></trkpt><trkpt lat="43.7911658" lon="11.3925426"><ele>76.25</ele><time>2026-03-29T10:08:32.149Z</time></trkpt><trkpt lat="43.7912467" lon="11.392419"><ele>76.5</ele><time>2026-03-29T10:08:33.149Z</time></trkpt><trkpt lat="43.7912926" lon="11.3922556"><ele>76.75</ele><time>2026-03-29T10:08:34.149Z</time></trkpt><trkpt lat="43.7913149" lon="11.392082"><ele>77.0</ele><time>2026-03-29T10:08:35.149Z</time></trkpt><trkpt lat="43.7913099" lon="11.3918738"><ele>77.0</ele><time>2026-03-29T10:08:36.149Z</time></trkpt><trkpt lat="43.7913147" lon="11.3916741"><ele>77.0</ele><time>2026-03-29T10:08:37.149Z</time></trkpt><trkpt lat="43.79131" lon="11.3914806"><ele>77.0</ele><time>2026-03-29T10:08:38.149Z</time></trkpt><trkpt lat="43.7913181" lon="11.3912945"><ele>77.0</ele><time>2026-03-29T10:08:39.149Z</time></trkpt><trkpt lat="43.7913932" lon="11.3911295"><ele>76.5</ele><time>2026-03-29T10:08:40.149Z</time></trkpt><trkpt lat="43.7915023" lon="11.3910059"><ele>76.0</ele><time>2026-03-29T10:08:41.149Z</time></trkpt><trkpt lat="43.7915978" lon="11.3909081"><ele>75.5</ele><time>2026-03-29T10:08:42.149Z</time></trkpt><trkpt lat="43.7916886" lon="11.3908325"><ele>75.0</ele><time>2026-03-29T10:08:43.149Z</time></trkpt><trkpt lat="43.7917698" lon="11.3907636"><ele>75.0</ele><time>2026-03-29T10:08:44.149Z</time></trkpt><trkpt lat="43.7918366" lon="11.3907042"><ele>75.0</ele><time>2026-03-29T10:08:45.149Z</time></trkpt><trkpt lat="43.7919011" lon="11.3906586"><ele>75.0</ele><time>2026-03-29T10:08:46.149Z</time></trkpt><trkpt lat="43.7919929" lon="11.3905502"><ele>75.0</ele><time>2026-03-29T10:08:48.149Z</time></trkpt><trkpt lat="43.7920802" lon="11.3904333"><ele>75.0</ele><time>2026-03-29T10:08:50.149Z</time></trkpt><trkpt lat="43.7921578" lon="11.390324"><ele>75.16666666666667</ele><time>2026-03-29T10:08:52.149Z</time></trkpt><trkpt lat="43.7922018" lon="11.3902577"><ele>75.33333333333333</ele><time>2026-03-29T10:08:53.149Z</time></trkpt><trkpt lat="43.7922509" lon="11.3901834"><ele>75.5</ele><time>2026-03-29T10:08:54.149Z</time></trkpt><trkpt lat="43.7922969" lon="11.390109"><ele>75.66666666666666</ele><time>2026-03-29T10:08:55.149Z</time></trkpt><trkpt lat="43.792343" lon="11.3900375"><ele>75.83333333333333</ele><time>2026-03-29T10:08:56.149Z</time></trkpt><trkpt lat="43.7924216" lon="11.3899149"><ele>76.0</ele><time>2026-03-29T10:08:58.149Z</time></trkpt><trkpt lat="43.7924907" lon="11.3898211"><ele>76.0</ele><time>2026-03-29T10:09:00.148Z</time></trkpt><trkpt lat="43.7925446" lon="11.3897539"><ele>76.0</ele><time>2026-03-29T10:09:03.149Z</time></trkpt><trkpt lat="43.7926525" lon="11.3896318"><ele>76.0</ele><time>2026-03-29T10:09:10.149Z</time></trkpt><trkpt lat="43.7927139" lon="11.3895419"><ele>76.0</ele><time>2026-03-29T10:09:11.149Z</time></trkpt><trkpt lat="43.7927712" lon="11.3894175"><ele>76.0</ele><time>2026-03-29T10:09:12.149Z</time></trkpt><trkpt lat="43.7928184" lon="11.3892663"><ele>75.75</ele><time>2026-03-29T10:09:13.148Z</time></trkpt><trkpt lat="43.7928547" lon="11.3891095"><ele>75.5</ele><time>2026-03-29T10:09:14.149Z</time></trkpt><trkpt lat="43.792891" lon="11.3889455"><ele>75.25</ele><time>2026-03-29T10:09:15.149Z</time></trkpt><trkpt lat="43.7929276" lon="11.3887717"><ele>75.0</ele><time>2026-03-29T10:09:16.149Z</time></trkpt><trkpt lat="43.7929574" lon="11.3885856"><ele>75.0</ele><time>2026-03-29T10:09:17.149Z</time></trkpt><trkpt lat="43.7929816" lon="11.3884044"><ele>75.0</ele><time>2026-03-29T10:09:18.149Z</time></trkpt><trkpt lat="43.7929974" lon="11.388218"><ele>75.0</ele><time>2026-03-29T10:09:19.149Z</time></trkpt><trkpt lat="43.7929925" lon="11.3880114"><ele>75.0</ele><time>2026-03-29T10:09:20.149Z</time></trkpt><trkpt lat="43.7929759" lon="11.3877898"><ele>76.0</ele><time>2026-03-29T10:09:21.149Z</time></trkpt><trkpt lat="43.7929453" lon="11.3875633"><ele>77.0</ele><time>2026-03-29T10:09:22.149Z</time></trkpt><trkpt lat="43.7928866" lon="11.3873264"><ele>78.0</ele><time>2026-03-29T10:09:23.149Z</time></trkpt><trkpt lat="43.7928278" lon="11.3870917"><ele>79.0</ele><time>2026-03-29T10:09:24.149Z</time></trkpt><trkpt lat="43.7927729" lon="11.3868728"><ele>80.0</ele><time>2026-03-29T10:09:25.149Z</time></trkpt><trkpt lat="43.792725" lon="11.3866746"><ele>81.0</ele><time>2026-03-29T10:09:26.149Z</time></trkpt><trkpt lat="43.7926829" lon="11.3864821"><ele>78.25</ele><time>2026-03-29T10:09:27.149Z</time></trkpt><trkpt lat="43.7926349" lon="11.3863079"><ele>75.5</ele><time>2026-03-29T10:09:28.149Z</time></trkpt><trkpt lat="43.792598" lon="11.3861266"><ele>72.75</ele><time>2026-03-29T10:09:29.149Z</time></trkpt><trkpt lat="43.7925616" lon="11.3859564"><ele>70.0</ele><time>2026-03-29T10:09:30.149Z</time></trkpt><trkpt lat="43.7925286" lon="11.3857827"><ele>70.0</ele><time>2026-03-29T10:09:31.149Z</time></trkpt><trkpt lat="43.7924969" lon="11.3856028"><ele>70.0</ele><time>2026-03-29T10:09:32.148Z</time></trkpt><trkpt lat="43.792461" lon="11.385425"><ele>70.0</ele><time>2026-03-29T10:09:33.149Z</time></trkpt><trkpt lat="43.7924231" lon="11.3852535"><ele>70.0</ele><time>2026-03-29T10:09:34.149Z</time></trkpt><trkpt lat="43.7923858" lon="11.3850986"><ele>71.0</ele><time>2026-03-29T10:09:35.149Z</time></trkpt><trkpt lat="43.7923529" lon="11.3849573"><ele>72.0</ele><time>2026-03-29T10:09:36.149Z</time></trkpt><trkpt lat="43.7923142" lon="11.3848355"><ele>73.0</ele><time>2026-03-29T10:09:37.149Z</time></trkpt><trkpt lat="43.7922684" lon="11.3847199"><ele>74.0</ele><time>2026-03-29T10:09:38.149Z</time></trkpt><trkpt lat="43.7922156" lon="11.3846279"><ele>75.0</ele><time>2026-03-29T10:09:39.149Z</time></trkpt><trkpt lat="43.7921988" lon="11.3844729"><ele>76.0</ele><time>2026-03-29T10:09:41.149Z</time></trkpt><trkpt lat="43.7922608" lon="11.3844077"><ele>77.0</ele><time>2026-03-29T10:09:42.149Z</time></trkpt><trkpt lat="43.7923346" lon="11.3843389"><ele>78.0</ele><time>2026-03-29T10:09:43.149Z</time></trkpt><trkpt lat="43.7924003" lon="11.3842638"><ele>79.0</ele><time>2026-03-29T10:09:44.149Z</time></trkpt><trkpt lat="43.7924302" lon="11.3841315"><ele>80.0</ele><time>2026-03-29T10:09:45.149Z</time></trkpt><trkpt lat="43.7924136" lon="11.3839611"><ele>81.5</ele><time>2026-03-29T10:09:46.149Z</time></trkpt><trkpt lat="43.7923784" lon="11.3837788"><ele>83.0</ele><time>2026-03-29T10:09:47.149Z</time></trkpt><trkpt lat="43.792295" lon="11.383623"><ele>84.5</ele><time>2026-03-29T10:09:48.149Z</time></trkpt><trkpt lat="43.792191" lon="11.3835376"><ele>86.0</ele><time>2026-03-29T10:09:49.149Z</time></trkpt><trkpt lat="43.7920691" lon="11.383496"><ele>86.0</ele><time>2026-03-29T10:09:50.149Z</time></trkpt><trkpt lat="43.7919347" lon="11.3834883"><ele>86.0</ele><time>2026-03-29T10:09:51.148Z</time></trkpt><trkpt lat="43.791808" lon="11.3834504"><ele>86.0</ele><time>2026-03-29T10:09:52.149Z</time></trkpt><trkpt lat="43.7916796" lon="11.3833478"><ele>86.0</ele><time>2026-03-29T10:09:53.149Z</time></trkpt><trkpt lat="43.7915723" lon="11.3831858"><ele>84.66666666666667</ele><time>2026-03-29T10:09:54.149Z</time></trkpt><trkpt lat="43.7914492" lon="11.383018"><ele>83.33333333333333</ele><time>2026-03-29T10:09:55.149Z</time></trkpt><trkpt lat="43.7913284" lon="11.3828557"><ele>82.0</ele><time>2026-03-29T10:09:56.149Z</time></trkpt><trkpt lat="43.7912065" lon="11.3826952"><ele>83.5</ele><time>2026-03-29T10:09:57.149Z</time></trkpt><trkpt lat="43.7910949" lon="11.3825373"><ele>85.0</ele><time>2026-03-29T10:09:58.149Z</time></trkpt><trkpt lat="43.7910067" lon="11.3823827"><ele>86.5</ele><time>2026-03-29T10:09:59.149Z</time></trkpt><trkpt lat="43.7909442" lon="11.3822206"><ele>88.0</ele><time>2026-03-29T10:10:00.149Z</time></trkpt><trkpt lat="43.7908963" lon="11.3820454"><ele>90.5</ele><time>2026-03-29T10:10:01.149Z</time></trkpt><trkpt lat="43.7908863" lon="11.3818528"><ele>93.0</ele><time>2026-03-29T10:10:02.149Z</time></trkpt><trkpt lat="43.790886" lon="11.3816472"><ele>95.5</ele><time>2026-03-29T10:10:03.149Z</time></trkpt><trkpt lat="43.7908794" lon="11.3814489"><ele>98.0</ele><time>2026-03-29T10:10:04.149Z</time></trkpt><trkpt lat="43.790848" lon="11.3812436"><ele>101.0</ele><time>2026-03-29T10:10:05.149Z</time></trkpt><trkpt lat="43.7907886" lon="11.3810357"><ele>104.0</ele><time>2026-03-29T10:10:06.149Z</time></trkpt><trkpt lat="43.7907078" lon="11.3808245"><ele>107.0</ele><time>2026-03-29T10:10:07.149Z</time></trkpt><trkpt lat="43.7906337" lon="11.3805942"><ele>112.0</ele><time>2026-03-29T10:10:08.149Z</time></trkpt><trkpt lat="43.7905542" lon="11.3803412"><ele>117.0</ele><time>2026-03-29T10:10:09.148Z</time></trkpt><trkpt lat="43.7904802" lon="11.3800981"><ele>122.0</ele><time>2026-03-29T10:10:10.149Z</time></trkpt><trkpt lat="43.7904001" lon="11.3798711"><ele>122.0</ele><time>2026-03-29T10:10:11.149Z</time></trkpt><trkpt lat="43.7902992" lon="11.379691"><ele>122.0</ele><time>2026-03-29T10:10:12.149Z</time></trkpt><trkpt lat="43.7902091" lon="11.3795209"><ele>122.0</ele><time>2026-03-29T10:10:13.149Z</time></trkpt><trkpt lat="43.7901334" lon="11.3793609"><ele>119.0</ele><time>2026-03-29T10:10:14.149Z</time></trkpt><trkpt lat="43.7900813" lon="11.3792127"><ele>115.99999999999999</ele><time>2026-03-29T10:10:15.149Z</time></trkpt><trkpt lat="43.790051" lon="11.3790855"><ele>112.99999999999999</ele><time>2026-03-29T10:10:16.149Z</time></trkpt><trkpt lat="43.7900367" lon="11.3789747"><ele>110.0</ele><time>2026-03-29T10:10:17.148Z</time></trkpt><trkpt lat="43.7900149" lon="11.3788669"><ele>107.0</ele><time>2026-03-29T10:10:18.149Z</time></trkpt><trkpt lat="43.7899908" lon="11.3787707"><ele>106.6</ele><time>2026-03-29T10:10:19.149Z</time></trkpt><trkpt lat="43.7899877" lon="11.3786285"><ele>106.19999999999999</ele><time>2026-03-29T10:10:21.149Z</time></trkpt><trkpt lat="43.7900915" lon="11.3785688"><ele>105.8</ele><time>2026-03-29T10:10:23.149Z</time></trkpt><trkpt lat="43.7901605" lon="11.3785757"><ele>105.4</ele><time>2026-03-29T10:10:24.149Z</time></trkpt><trkpt lat="43.7902614" lon="11.3786102"><ele>105.0</ele><time>2026-03-29T10:10:26.149Z</time></trkpt><trkpt lat="43.7901672" lon="11.3785886"><ele>105.0</ele><time>2026-03-29T10:10:46.149Z</time></trkpt><trkpt lat="43.7900705" lon="11.3785872"><ele>105.0</ele><time>2026-03-29T10:10:48.149Z</time></trkpt><trkpt lat="43.7899902" lon="11.3785652"><ele>105.0</ele><time>2026-03-29T10:10:50.149Z</time></trkpt><trkpt lat="43.7898971" lon="11.3784869"><ele>105.0</ele><time>2026-03-29T10:10:52.149Z</time></trkpt><trkpt lat="43.7897994" lon="11.3783875"><ele>105.0</ele><time>2026-03-29T10:10:54.149Z</time></trkpt><trkpt lat="43.7897285" lon="11.3782825"><ele>105.0</ele><time>2026-03-29T10:10:56.149Z</time></trkpt><trkpt lat="43.789749" lon="11.3781554"><ele>105.0</ele><time>2026-03-29T10:10:59.149Z</time></trkpt><trkpt lat="43.7898833" lon="11.3780883"><ele>105.0</ele><time>2026-03-29T10:11:01.149Z</time></trkpt><trkpt lat="43.7899867" lon="11.3780709"><ele>105.0</ele><time>2026-03-29T10:11:02.149Z</time></trkpt><trkpt lat="43.7900939" lon="11.3780514"><ele>105.0</ele><time>2026-03-29T10:11:03.149Z</time></trkpt><trkpt lat="43.790212" lon="11.3780249"><ele>103.5</ele><time>2026-03-29T10:11:04.149Z</time></trkpt><trkpt lat="43.7903428" lon="11.3779975"><ele>102.0</ele><time>2026-03-29T10:11:05.149Z</time></trkpt><trkpt lat="43.7904809" lon="11.3779647"><ele>100.5</ele><time>2026-03-29T10:11:06.149Z</time></trkpt><trkpt lat="43.7906333" lon="11.3779273"><ele>99.0</ele><time>2026-03-29T10:11:07.149Z</time></trkpt><trkpt lat="43.7907888" lon="11.3778978"><ele>99.0</ele><time>2026-03-29T10:11:08.149Z</time></trkpt><trkpt lat="43.7909497" lon="11.3778588"><ele>99.0</ele><time>2026-03-29T10:11:09.149Z</time></trkpt><trkpt lat="43.7911111" lon="11.37782"><ele>99.0</ele><time>2026-03-29T10:11:10.149Z</time></trkpt><trkpt lat="43.7912748" lon="11.3777841"><ele>102.0</ele><time>2026-03-29T10:11:11.149Z</time></trkpt><trkpt lat="43.7914348" lon="11.3777477"><ele>105.0</ele><time>2026-03-29T10:11:12.149Z</time></trkpt><trkpt lat="43.791585" lon="11.377708"><ele>108.0</ele><time>2026-03-29T10:11:13.149Z</time></trkpt><trkpt lat="43.7917363" lon="11.3776822"><ele>107.75</ele><time>2026-03-29T10:11:14.149Z</time></trkpt><trkpt lat="43.79188" lon="11.3776697"><ele>107.5</ele><time>2026-03-29T10:11:15.149Z</time></trkpt><trkpt lat="43.7920205" lon="11.3776591"><ele>107.25</ele><time>2026-03-29T10:11:16.149Z</time></trkpt><trkpt lat="43.792157" lon="11.3776599"><ele>107.0</ele><time>2026-03-29T10:11:17.149Z</time></trkpt><trkpt lat="43.7922748" lon="11.3776782"><ele>107.0</ele><time>2026-03-29T10:11:18.149Z</time></trkpt><trkpt lat="43.7923651" lon="11.3777817"><ele>107.0</ele><time>2026-03-29T10:11:19.149Z</time></trkpt><trkpt lat="43.792424" lon="11.3779438"><ele>107.0</ele><time>2026-03-29T10:11:20.149Z</time></trkpt><trkpt lat="43.7924562" lon="11.3781293"><ele>107.0</ele><time>2026-03-29T10:11:21.149Z</time></trkpt><trkpt lat="43.7924727" lon="11.3783187"><ele>110.66666666666666</ele><time>2026-03-29T10:11:22.149Z</time></trkpt><trkpt lat="43.7924859" lon="11.3785148"><ele>114.33333333333334</ele><time>2026-03-29T10:11:23.149Z</time></trkpt><trkpt lat="43.7925089" lon="11.3787339"><ele>118.0</ele><time>2026-03-29T10:11:24.149Z</time></trkpt><trkpt lat="43.7925378" lon="11.3789537"><ele>118.66666666666667</ele><time>2026-03-29T10:11:25.149Z</time></trkpt><trkpt lat="43.7925747" lon="11.3791634"><ele>119.33333333333334</ele><time>2026-03-29T10:11:26.149Z</time></trkpt><trkpt lat="43.7926327" lon="11.3793726"><ele>120.0</ele><time>2026-03-29T10:11:27.149Z</time></trkpt><trkpt lat="43.7927244" lon="11.3795657"><ele>123.33333333333334</ele><time>2026-03-29T10:11:28.149Z</time></trkpt><trkpt lat="43.7928418" lon="11.379742"><ele>126.66666666666667</ele><time>2026-03-29T10:11:29.149Z</time></trkpt><trkpt lat="43.792966" lon="11.3799036"><ele>130.0</ele><time>2026-03-29T10:11:30.149Z</time></trkpt><trkpt lat="43.7930848" lon="11.3800532"><ele>130.0</ele><time>2026-03-29T10:11:31.149Z</time></trkpt><trkpt lat="43.7932123" lon="11.38017"><ele>130.0</ele><time>2026-03-29T10:11:32.149Z</time></trkpt><trkpt lat="43.7933615" lon="11.3802482"><ele>130.0</ele><time>2026-03-29T10:11:33.149Z</time></trkpt><trkpt lat="43.7935222" lon="11.3803156"><ele>132.0</ele><time>2026-03-29T10:11:34.149Z</time></trkpt><trkpt lat="43.7936836" lon="11.3803722"><ele>134.0</ele><time>2026-03-29T10:11:35.149Z</time></trkpt><trkpt lat="43.7938591" lon="11.380398"><ele>136.0</ele><time>2026-03-29T10:11:36.149Z</time></trkpt><trkpt lat="43.7940511" lon="11.3803818"><ele>136.0</ele><time>2026-03-29T10:11:37.149Z</time></trkpt><trkpt lat="43.7942313" lon="11.3803656"><ele>136.0</ele><time>2026-03-29T10:11:38.148Z</time></trkpt><trkpt lat="43.7944161" lon="11.3803483"><ele>136.0</ele><time>2026-03-29T10:11:39.149Z</time></trkpt><trkpt lat="43.7946048" lon="11.3803383"><ele>138.66666666666669</ele><time>2026-03-29T10:11:40.149Z</time></trkpt><trkpt lat="43.7947981" lon="11.3803349"><ele>141.33333333333334</ele><time>2026-03-29T10:11:41.149Z</time></trkpt><trkpt lat="43.7949811" lon="11.3803333"><ele>144.0</ele><time>2026-03-29T10:11:42.149Z</time></trkpt><trkpt lat="43.7951487" lon="11.380335"><ele>146.75</ele><time>2026-03-29T10:11:43.149Z</time></trkpt><trkpt lat="43.7953" lon="11.3803441"><ele>149.5</ele><time>2026-03-29T10:11:44.149Z</time></trkpt><trkpt lat="43.7954407" lon="11.3803615"><ele>152.25</ele><time>2026-03-29T10:11:45.149Z</time></trkpt><trkpt lat="43.7955741" lon="11.3803287"><ele>155.0</ele><time>2026-03-29T10:11:46.149Z</time></trkpt><trkpt lat="43.7956967" lon="11.3802454"><ele>155.0</ele><time>2026-03-29T10:11:47.149Z</time></trkpt><trkpt lat="43.7958133" lon="11.3801466"><ele>155.0</ele><time>2026-03-29T10:11:48.149Z</time></trkpt><trkpt lat="43.7959368" lon="11.3800408"><ele>155.0</ele><time>2026-03-29T10:11:49.149Z</time></trkpt><trkpt lat="43.7960659" lon="11.3799226"><ele>155.0</ele><time>2026-03-29T10:11:50.149Z</time></trkpt><trkpt lat="43.7962013" lon="11.3798016"><ele>158.66666666666666</ele><time>2026-03-29T10:11:51.149Z</time></trkpt><trkpt lat="43.7963437" lon="11.379692"><ele>162.33333333333334</ele><time>2026-03-29T10:11:52.149Z</time></trkpt><trkpt lat="43.7964821" lon="11.3795913"><ele>166.0</ele><time>2026-03-29T10:11:53.149Z</time></trkpt><trkpt lat="43.796626" lon="11.3794971"><ele>166.0</ele><time>2026-03-29T10:11:54.149Z</time></trkpt><trkpt lat="43.796754" lon="11.3793984"><ele>166.0</ele><time>2026-03-29T10:11:55.149Z</time></trkpt><trkpt lat="43.7968752" lon="11.3792883"><ele>166.0</ele><time>2026-03-29T10:11:56.149Z</time></trkpt><trkpt lat="43.7969752" lon="11.3791448"><ele>166.0</ele><time>2026-03-29T10:11:57.149Z</time></trkpt><trkpt lat="43.7970687" lon="11.3789677"><ele>170.25</ele><time>2026-03-29T10:11:58.149Z</time></trkpt><trkpt lat="43.7971355" lon="11.3787764"><ele>174.5</ele><time>2026-03-29T10:11:59.149Z</time></trkpt><trkpt lat="43.7972013" lon="11.378582"><ele>178.75</ele><time>2026-03-29T10:12:00.149Z</time></trkpt><trkpt lat="43.7972585" lon="11.3784085"><ele>183.0</ele><time>2026-03-29T10:12:01.149Z</time></trkpt><trkpt lat="43.7973058" lon="11.3782509"><ele>183.0</ele><time>2026-03-29T10:12:02.149Z</time></trkpt><trkpt lat="43.7973547" lon="11.3781263"><ele>183.0</ele><time>2026-03-29T10:12:03.149Z</time></trkpt><trkpt lat="43.7973975" lon="11.3780263"><ele>183.0</ele><time>2026-03-29T10:12:04.149Z</time></trkpt><trkpt lat="43.7974634" lon="11.3780031"><ele>183.0</ele><time>2026-03-29T10:12:05.149Z</time></trkpt><trkpt lat="43.7975328" lon="11.3780414"><ele>183.0</ele><time>2026-03-29T10:12:06.149Z</time></trkpt><trkpt lat="43.7975916" lon="11.3781199"><ele>183.0</ele><time>2026-03-29T10:12:07.149Z</time></trkpt><trkpt lat="43.7976167" lon="11.3782265"><ele>183.0</ele><time>2026-03-29T10:12:08.149Z</time></trkpt><trkpt lat="43.7975669" lon="11.3783857"><ele>183.0</ele><time>2026-03-29T10:12:09.149Z</time></trkpt><trkpt lat="43.7975149" lon="11.3785689"><ele>183.0</ele><time>2026-03-29T10:12:10.149Z</time></trkpt><trkpt lat="43.7974588" lon="11.3787288"><ele>183.0</ele><time>2026-03-29T10:12:11.149Z</time></trkpt><trkpt lat="43.7974294" lon="11.3788465"><ele>183.0</ele><time>2026-03-29T10:12:12.149Z</time></trkpt><trkpt lat="43.797394" lon="11.3789413"><ele>183.0</ele><time>2026-03-29T10:12:13.149Z</time></trkpt><trkpt lat="43.7974692" lon="11.3788336"><ele>183.0</ele><time>2026-03-29T10:12:20.149Z</time></trkpt><trkpt lat="43.7975133" lon="11.3787378"><ele>183.0</ele><time>2026-03-29T10:12:21.149Z</time></trkpt><trkpt lat="43.7975714" lon="11.3786234"><ele>183.0</ele><time>2026-03-29T10:12:22.149Z</time></trkpt><trkpt lat="43.7976318" lon="11.3785097"><ele>186.83333333333334</ele><time>2026-03-29T10:12:23.149Z</time></trkpt><trkpt lat="43.797698" lon="11.3784012"><ele>190.66666666666669</ele><time>2026-03-29T10:12:24.149Z</time></trkpt><trkpt lat="43.7977612" lon="11.3783285"><ele>194.5</ele><time>2026-03-29T10:12:25.149Z</time></trkpt><trkpt lat="43.7978294" lon="11.3783326"><ele>198.33333333333334</ele><time>2026-03-29T10:12:26.148Z</time></trkpt><trkpt lat="43.7979208" lon="11.3783259"><ele>202.16666666666669</ele><time>2026-03-29T10:12:28.149Z</time></trkpt><trkpt lat="43.7979783" lon="11.378286"><ele>206.0</ele><time>2026-03-29T10:12:30.149Z</time></trkpt><trkpt lat="43.7981025" lon="11.3782167"><ele>206.00000000000003</ele><time>2026-03-29T10:12:32.149Z</time></trkpt><trkpt lat="43.7981899" lon="11.3781853"><ele>206.0</ele><time>2026-03-29T10:12:33.149Z</time></trkpt><trkpt lat="43.7982777" lon="11.37814"><ele>206.0</ele><time>2026-03-29T10:12:34.149Z</time></trkpt><trkpt lat="43.7983492" lon="11.3780934"><ele>206.0</ele><time>2026-03-29T10:12:35.149Z</time></trkpt><trkpt lat="43.7984024" lon="11.3780405"><ele>206.00000000000003</ele><time>2026-03-29T10:12:36.149Z</time></trkpt><trkpt lat="43.7984273" lon="11.3779264"><ele>206.0</ele><time>2026-03-29T10:12:37.149Z</time></trkpt><trkpt lat="43.7984181" lon="11.3778017"><ele>206.0</ele><time>2026-03-29T10:12:38.149Z</time></trkpt><trkpt lat="43.7983983" lon="11.3776776"><ele>206.0</ele><time>2026-03-29T10:12:39.149Z</time></trkpt><trkpt lat="43.7983777" lon="11.3775375"><ele>206.0</ele><time>2026-03-29T10:12:40.149Z</time></trkpt><trkpt lat="43.7983536" lon="11.3773832"><ele>206.0</ele><time>2026-03-29T10:12:41.148Z</time></trkpt><trkpt lat="43.798336" lon="11.3772494"><ele>206.0</ele><time>2026-03-29T10:12:42.149Z</time></trkpt><trkpt lat="43.7983305" lon="11.3771217"><ele>205.60000000000002</ele><time>2026-03-29T10:12:43.149Z</time></trkpt><trkpt lat="43.7983382" lon="11.376976"><ele>205.2</ele><time>2026-03-29T10:12:44.149Z</time></trkpt><trkpt lat="43.798367" lon="11.3768348"><ele>204.8</ele><time>2026-03-29T10:12:45.149Z</time></trkpt><trkpt lat="43.798406" lon="11.3767024"><ele>204.39999999999998</ele><time>2026-03-29T10:12:46.148Z</time></trkpt><trkpt lat="43.7984712" lon="11.3765579"><ele>204.0</ele><time>2026-03-29T10:12:47.149Z</time></trkpt><trkpt lat="43.7985638" lon="11.3764216"><ele>210.75</ele><time>2026-03-29T10:12:48.149Z</time></trkpt><trkpt lat="43.7986701" lon="11.3762908"><ele>217.5</ele><time>2026-03-29T10:12:49.149Z</time></trkpt><trkpt lat="43.7987594" lon="11.3761619"><ele>224.25</ele><time>2026-03-29T10:12:50.149Z</time></trkpt><trkpt lat="43.7988142" lon="11.3760075"><ele>231.0</ele><time>2026-03-29T10:12:51.149Z</time></trkpt><trkpt lat="43.7988603" lon="11.3758698"><ele>231.0</ele><time>2026-03-29T10:12:52.149Z</time></trkpt><trkpt lat="43.7988769" lon="11.3757467"><ele>231.00000000000003</ele><time>2026-03-29T10:12:53.149Z</time></trkpt><trkpt lat="43.798918" lon="11.3756375"><ele>231.00000000000003</ele><time>2026-03-29T10:12:54.149Z</time></trkpt><trkpt lat="43.798963" lon="11.3755127"><ele>231.0</ele><time>2026-03-29T10:12:55.149Z</time></trkpt><trkpt lat="43.799024" lon="11.3753862"><ele>231.0</ele><time>2026-03-29T10:12:56.149Z</time></trkpt><trkpt lat="43.7990967" lon="11.3752423"><ele>232.75</ele><time>2026-03-29T10:12:57.149Z</time></trkpt><trkpt lat="43.7991745" lon="11.3750935"><ele>234.5</ele><time>2026-03-29T10:12:58.149Z</time></trkpt><trkpt lat="43.7992635" lon="11.3749332"><ele>236.25</ele><time>2026-03-29T10:12:59.149Z</time></trkpt><trkpt lat="43.7993427" lon="11.374765"><ele>238.0</ele><time>2026-03-29T10:13:00.149Z</time></trkpt><trkpt lat="43.7994168" lon="11.3746112"><ele>232.75</ele><time>2026-03-29T10:13:01.149Z</time></trkpt><trkpt lat="43.799497" lon="11.3744744"><ele>227.5</ele><time>2026-03-29T10:13:02.149Z</time></trkpt><trkpt lat="43.7995903" lon="11.3743471"><ele>222.25</ele><time>2026-03-29T10:13:03.149Z</time></trkpt><trkpt lat="43.7997064" lon="11.3742276"><ele>217.0</ele><time>2026-03-29T10:13:04.149Z</time></trkpt><trkpt lat="43.799829" lon="11.3741175"><ele>217.0</ele><time>2026-03-29T10:13:05.149Z</time></trkpt><trkpt lat="43.7999429" lon="11.374025"><ele>217.0</ele><time>2026-03-29T10:13:06.149Z</time></trkpt><trkpt lat="43.8000437" lon="11.3739646"><ele>217.0</ele><time>2026-03-29T10:13:07.149Z</time></trkpt><trkpt lat="43.8001456" lon="11.3739122"><ele>217.0</ele><time>2026-03-29T10:13:08.149Z</time></trkpt><trkpt lat="43.8002567" lon="11.3738868"><ele>220.75</ele><time>2026-03-29T10:13:09.149Z</time></trkpt><trkpt lat="43.8003802" lon="11.3738739"><ele>224.5</ele><time>2026-03-29T10:13:10.149Z</time></trkpt><trkpt lat="43.8005095" lon="11.373888"><ele>228.25</ele><time>2026-03-29T10:13:11.149Z</time></trkpt><trkpt lat="43.8006251" lon="11.3739243"><ele>232.0</ele><time>2026-03-29T10:13:12.149Z</time></trkpt><trkpt lat="43.800725" lon="11.3739534"><ele>232.0</ele><time>2026-03-29T10:13:13.149Z</time></trkpt><trkpt lat="43.8008074" lon="11.3739803"><ele>232.0</ele><time>2026-03-29T10:13:14.149Z</time></trkpt><trkpt lat="43.8008947" lon="11.3738741"><ele>232.0</ele><time>2026-03-29T10:13:16.149Z</time></trkpt><trkpt lat="43.8009253" lon="11.3737499"><ele>232.0</ele><time>2026-03-29T10:13:17.148Z</time></trkpt><trkpt lat="43.8009346" lon="11.3735937"><ele>232.0</ele><time>2026-03-29T10:13:18.149Z</time></trkpt><trkpt lat="43.80096" lon="11.3734492"><ele>231.39999999999998</ele><time>2026-03-29T10:13:19.149Z</time></trkpt><trkpt lat="43.8010146" lon="11.3733193"><ele>230.79999999999998</ele><time>2026-03-29T10:13:20.149Z</time></trkpt><trkpt lat="43.8010853" lon="11.3732274"><ele>230.2</ele><time>2026-03-29T10:13:21.149Z</time></trkpt><trkpt lat="43.8011812" lon="11.3731711"><ele>229.6</ele><time>2026-03-29T10:13:22.149Z</time></trkpt><trkpt lat="43.8012907" lon="11.3731397"><ele>229.0</ele><time>2026-03-29T10:13:23.149Z</time></trkpt><trkpt lat="43.8014116" lon="11.373124"><ele>229.0</ele><time>2026-03-29T10:13:24.149Z</time></trkpt><trkpt lat="43.8015595" lon="11.3731057"><ele>229.0</ele><time>2026-03-29T10:13:25.149Z</time></trkpt><trkpt lat="43.8017366" lon="11.3730691"><ele>229.0</ele><time>2026-03-29T10:13:26.149Z</time></trkpt><trkpt lat="43.8019273" lon="11.3730095"><ele>226.75</ele><time>2026-03-29T10:13:27.149Z</time></trkpt><trkpt lat="43.8020895" lon="11.3729701"><ele>224.5</ele><time>2026-03-29T10:13:28.148Z</time></trkpt><trkpt lat="43.8022185" lon="11.372946"><ele>222.25</ele><time>2026-03-29T10:13:29.149Z</time></trkpt><trkpt lat="43.8023316" lon="11.3729104"><ele>220.0</ele><time>2026-03-29T10:13:30.149Z</time></trkpt><trkpt lat="43.8024275" lon="11.3728341"><ele>220.0</ele><time>2026-03-29T10:13:31.149Z</time></trkpt><trkpt lat="43.8025165" lon="11.3726932"><ele>220.0</ele><time>2026-03-29T10:13:32.148Z</time></trkpt><trkpt lat="43.8025785" lon="11.3725554"><ele>220.0</ele><time>2026-03-29T10:13:33.148Z</time></trkpt><trkpt lat="43.8026101" lon="11.3724316"><ele>220.0</ele><time>2026-03-29T10:13:34.149Z</time></trkpt><trkpt lat="43.8026454" lon="11.3723128"><ele>220.0</ele><time>2026-03-29T10:13:35.149Z</time></trkpt><trkpt lat="43.8026806" lon="11.3721917"><ele>223.0</ele><time>2026-03-29T10:13:36.149Z</time></trkpt><trkpt lat="43.8027341" lon="11.3720608"><ele>226.0</ele><time>2026-03-29T10:13:37.149Z</time></trkpt><trkpt lat="43.8028106" lon="11.3719308"><ele>229.0</ele><time>2026-03-29T10:13:38.149Z</time></trkpt><trkpt lat="43.802901" lon="11.3717797"><ele>232.0</ele><time>2026-03-29T10:13:39.149Z</time></trkpt><trkpt lat="43.8029823" lon="11.3716249"><ele>232.0</ele><time>2026-03-29T10:13:40.149Z</time></trkpt><trkpt lat="43.8030578" lon="11.3714838"><ele>232.0</ele><time>2026-03-29T10:13:41.149Z</time></trkpt><trkpt lat="43.8031261" lon="11.3713633"><ele>232.0</ele><time>2026-03-29T10:13:42.149Z</time></trkpt><trkpt lat="43.8032216" lon="11.3712681"><ele>232.0</ele><time>2026-03-29T10:13:43.149Z</time></trkpt><trkpt lat="43.8033192" lon="11.3711838"><ele>234.2</ele><time>2026-03-29T10:13:44.149Z</time></trkpt><trkpt lat="43.8034229" lon="11.3711261"><ele>236.39999999999998</ele><time>2026-03-29T10:13:45.149Z</time></trkpt><trkpt lat="43.8035238" lon="11.371105"><ele>238.60000000000002</ele><time>2026-03-29T10:13:46.149Z</time></trkpt><trkpt lat="43.8036061" lon="11.3711079"><ele>240.8</ele><time>2026-03-29T10:13:47.149Z</time></trkpt><trkpt lat="43.8037081" lon="11.371023"><ele>243.0</ele><time>2026-03-29T10:13:49.149Z</time></trkpt><trkpt lat="43.8037435" lon="11.3708838"><ele>243.0</ele><time>2026-03-29T10:13:50.149Z</time></trkpt><trkpt lat="43.8037779" lon="11.3707401"><ele>243.0</ele><time>2026-03-29T10:13:51.149Z</time></trkpt><trkpt lat="43.8038218" lon="11.3705961"><ele>243.0</ele><time>2026-03-29T10:13:52.149Z</time></trkpt><trkpt lat="43.8038794" lon="11.3704664"><ele>243.0</ele><time>2026-03-29T10:13:53.149Z</time></trkpt><trkpt lat="43.8039442" lon="11.37035"><ele>243.0</ele><time>2026-03-29T10:13:54.149Z</time></trkpt><trkpt lat="43.8040105" lon="11.3702516"><ele>245.0</ele><time>2026-03-29T10:13:55.149Z</time></trkpt><trkpt lat="43.8040906" lon="11.3701366"><ele>247.0</ele><time>2026-03-29T10:13:56.149Z</time></trkpt><trkpt lat="43.8041795" lon="11.370049"><ele>249.0</ele><time>2026-03-29T10:13:57.149Z</time></trkpt><trkpt lat="43.8042639" lon="11.3699816"><ele>251.0</ele><time>2026-03-29T10:13:58.149Z</time></trkpt><trkpt lat="43.8043492" lon="11.3699538"><ele>253.0</ele><time>2026-03-29T10:13:59.149Z</time></trkpt><trkpt lat="43.8044348" lon="11.3699328"><ele>253.0</ele><time>2026-03-29T10:14:00.149Z</time></trkpt><trkpt lat="43.8045237" lon="11.3699216"><ele>253.0</ele><time>2026-03-29T10:14:01.149Z</time></trkpt><trkpt lat="43.8045986" lon="11.3699193"><ele>253.0</ele><time>2026-03-29T10:14:02.149Z</time></trkpt><trkpt lat="43.804689" lon="11.3698518"><ele>253.0</ele><time>2026-03-29T10:14:04.149Z</time></trkpt><trkpt lat="43.8047072" lon="11.3697365"><ele>253.0</ele><time>2026-03-29T10:14:05.149Z</time></trkpt><trkpt lat="43.8047552" lon="11.3695896"><ele>249.25</ele><time>2026-03-29T10:14:06.149Z</time></trkpt><trkpt lat="43.8048517" lon="11.3694532"><ele>245.5</ele><time>2026-03-29T10:14:07.149Z</time></trkpt><trkpt lat="43.8049486" lon="11.3693491"><ele>241.75</ele><time>2026-03-29T10:14:08.149Z</time></trkpt><trkpt lat="43.8050248" lon="11.3692439"><ele>238.0</ele><time>2026-03-29T10:14:09.149Z</time></trkpt><trkpt lat="43.8050932" lon="11.3691261"><ele>238.0</ele><time>2026-03-29T10:14:10.148Z</time></trkpt><trkpt lat="43.8051424" lon="11.3689701"><ele>238.0</ele><time>2026-03-29T10:14:11.149Z</time></trkpt><trkpt lat="43.8051843" lon="11.3688136"><ele>238.0</ele><time>2026-03-29T10:14:12.149Z</time></trkpt><trkpt lat="43.8052712" lon="11.3687056"><ele>238.0</ele><time>2026-03-29T10:14:13.149Z</time></trkpt><trkpt lat="43.8053871" lon="11.3686064"><ele>243.0</ele><time>2026-03-29T10:14:14.149Z</time></trkpt><trkpt lat="43.805528" lon="11.3684825"><ele>248.0</ele><time>2026-03-29T10:14:15.149Z</time></trkpt><trkpt lat="43.8056535" lon="11.3683229"><ele>253.0</ele><time>2026-03-29T10:14:16.149Z</time></trkpt><trkpt lat="43.8057616" lon="11.3681685"><ele>253.0</ele><time>2026-03-29T10:14:17.149Z</time></trkpt><trkpt lat="43.8058481" lon="11.3680532"><ele>253.0</ele><time>2026-03-29T10:14:18.149Z</time></trkpt><trkpt lat="43.8059132" lon="11.3679537"><ele>253.0</ele><time>2026-03-29T10:14:19.149Z</time></trkpt><trkpt lat="43.8059703" lon="11.367876"><ele>253.0</ele><time>2026-03-29T10:14:20.149Z</time></trkpt><trkpt lat="43.8060584" lon="11.3678411"><ele>253.0</ele><time>2026-03-29T10:14:21.149Z</time></trkpt><trkpt lat="43.8061764" lon="11.3678346"><ele>255.5</ele><time>2026-03-29T10:14:22.149Z</time></trkpt><trkpt lat="43.8063" lon="11.3678301"><ele>258.0</ele><time>2026-03-29T10:14:23.149Z</time></trkpt><trkpt lat="43.8064195" lon="11.3678338"><ele>260.5</ele><time>2026-03-29T10:14:24.149Z</time></trkpt><trkpt lat="43.8065344" lon="11.3678213"><ele>263.0</ele><time>2026-03-29T10:14:25.149Z</time></trkpt><trkpt lat="43.8066532" lon="11.3677866"><ele>263.0</ele><time>2026-03-29T10:14:26.149Z</time></trkpt><trkpt lat="43.8067747" lon="11.3677357"><ele>263.0</ele><time>2026-03-29T10:14:27.148Z</time></trkpt><trkpt lat="43.806902" lon="11.3676739"><ele>263.0</ele><time>2026-03-29T10:14:28.149Z</time></trkpt><trkpt lat="43.8070209" lon="11.3676232"><ele>263.0</ele><time>2026-03-29T10:14:29.149Z</time></trkpt><trkpt lat="43.8071284" lon="11.3675725"><ele>268.25</ele><time>2026-03-29T10:14:30.149Z</time></trkpt><trkpt lat="43.8072394" lon="11.3675365"><ele>273.5</ele><time>2026-03-29T10:14:31.148Z</time></trkpt><trkpt lat="43.8073427" lon="11.3675188"><ele>278.75</ele><time>2026-03-29T10:14:32.149Z</time></trkpt><trkpt lat="43.8074768" lon="11.3675056"><ele>284.0</ele><time>2026-03-29T10:14:33.149Z</time></trkpt><trkpt lat="43.8076473" lon="11.3675191"><ele>287.33333333333337</ele><time>2026-03-29T10:14:34.149Z</time></trkpt><trkpt lat="43.8078045" lon="11.3675554"><ele>290.6666666666667</ele><time>2026-03-29T10:14:35.149Z</time></trkpt><trkpt lat="43.8079572" lon="11.3676018"><ele>294.0</ele><time>2026-03-29T10:14:36.149Z</time></trkpt><trkpt lat="43.808097" lon="11.3676384"><ele>294.0</ele><time>2026-03-29T10:14:37.149Z</time></trkpt><trkpt lat="43.8081921" lon="11.3676592"><ele>294.0</ele><time>2026-03-29T10:14:38.149Z</time></trkpt><trkpt lat="43.8082722" lon="11.3676366"><ele>294.0</ele><time>2026-03-29T10:14:39.149Z</time></trkpt><trkpt lat="43.8083632" lon="11.3674994"><ele>294.0</ele><time>2026-03-29T10:14:40.149Z</time></trkpt><trkpt lat="43.8084795" lon="11.3672744"><ele>290.3333333333333</ele><time>2026-03-29T10:14:41.149Z</time></trkpt><trkpt lat="43.8086002" lon="11.3670945"><ele>286.66666666666663</ele><time>2026-03-29T10:14:42.149Z</time></trkpt><trkpt lat="43.8087324" lon="11.3669223"><ele>283.0</ele><time>2026-03-29T10:14:43.149Z</time></trkpt><trkpt lat="43.8088541" lon="11.366767"><ele>283.0</ele><time>2026-03-29T10:14:44.149Z</time></trkpt><trkpt lat="43.8089618" lon="11.366625"><ele>283.0</ele><time>2026-03-29T10:14:45.149Z</time></trkpt><trkpt lat="43.8090599" lon="11.3664947"><ele>283.0</ele><time>2026-03-29T10:14:46.149Z</time></trkpt><trkpt lat="43.8091314" lon="11.3663927"><ele>283.0</ele><time>2026-03-29T10:14:47.149Z</time></trkpt><trkpt lat="43.8091992" lon="11.3663085"><ele>283.2</ele><time>2026-03-29T10:14:48.149Z</time></trkpt><trkpt lat="43.8092577" lon="11.36625"><ele>283.4</ele><time>2026-03-29T10:14:49.149Z</time></trkpt><trkpt lat="43.8093691" lon="11.3662477"><ele>283.59999999999997</ele><time>2026-03-29T10:14:51.149Z</time></trkpt><trkpt lat="43.8094185" lon="11.3663199"><ele>283.8</ele><time>2026-03-29T10:14:52.149Z</time></trkpt><trkpt lat="43.8094719" lon="11.3664423"><ele>284.0</ele><time>2026-03-29T10:14:53.149Z</time></trkpt><trkpt lat="43.8095198" lon="11.3665735"><ele>285.4</ele><time>2026-03-29T10:14:54.149Z</time></trkpt><trkpt lat="43.8095749" lon="11.3667048"><ele>286.79999999999995</ele><time>2026-03-29T10:14:55.149Z</time></trkpt><trkpt lat="43.8096353" lon="11.3668296"><ele>288.20000000000005</ele><time>2026-03-29T10:14:56.149Z</time></trkpt><trkpt lat="43.8097039" lon="11.3669357"><ele>289.6</ele><time>2026-03-29T10:14:57.149Z</time></trkpt><trkpt lat="43.809783" lon="11.367015"><ele>291.0</ele><time>2026-03-29T10:14:58.149Z</time></trkpt><trkpt lat="43.80986" lon="11.367066"><ele>291.0</ele><time>2026-03-29T10:14:59.149Z</time></trkpt><trkpt lat="43.8099217" lon="11.3671031"><ele>291.0</ele><time>2026-03-29T10:15:00.149Z</time></trkpt><trkpt lat="43.8099951" lon="11.3671394"><ele>291.0</ele><time>2026-03-29T10:15:02.149Z</time></trkpt><trkpt lat="43.8100284" lon="11.367217"><ele>291.0</ele><time>2026-03-29T10:15:04.148Z</time></trkpt><trkpt lat="43.8100935" lon="11.3673066"><ele>291.0</ele><time>2026-03-29T10:15:06.149Z</time></trkpt><trkpt lat="43.8101372" lon="11.3673916"><ele>291.0</ele><time>2026-03-29T10:15:12.149Z</time></trkpt><trkpt lat="43.8100804" lon="11.3675259"><ele>292.1666666666667</ele><time>2026-03-29T10:15:14.149Z</time></trkpt><trkpt lat="43.8100359" lon="11.3676359"><ele>293.3333333333333</ele><time>2026-03-29T10:15:16.149Z</time></trkpt><trkpt lat="43.8099669" lon="11.3677747"><ele>294.5</ele><time>2026-03-29T10:15:18.149Z</time></trkpt><trkpt lat="43.8099252" lon="11.3678444"><ele>295.66666666666663</ele><time>2026-03-29T10:15:19.149Z</time></trkpt><trkpt lat="43.8098857" lon="11.3679144"><ele>296.8333333333333</ele><time>2026-03-29T10:15:20.149Z</time></trkpt><trkpt lat="43.8098487" lon="11.3679879"><ele>298.0</ele><time>2026-03-29T10:15:21.149Z</time></trkpt><trkpt lat="43.8098163" lon="11.3680655"><ele>301.2</ele><time>2026-03-29T10:15:22.149Z</time></trkpt><trkpt lat="43.8097491" lon="11.3682044"><ele>304.4</ele><time>2026-03-29T10:15:24.149Z</time></trkpt><trkpt lat="43.8097042" lon="11.368272"><ele>307.59999999999997</ele><time>2026-03-29T10:15:25.149Z</time></trkpt><trkpt lat="43.8096237" lon="11.3683463"><ele>310.8</ele><time>2026-03-29T10:15:27.149Z</time></trkpt><trkpt lat="43.8095268" lon="11.368408"><ele>314.0</ele><time>2026-03-29T10:15:29.149Z</time></trkpt><trkpt lat="43.8094242" lon="11.3684853"><ele>314.0</ele><time>2026-03-29T10:15:31.149Z</time></trkpt><trkpt lat="43.8093654" lon="11.3685309"><ele>314.0</ele><time>2026-03-29T10:15:32.149Z</time></trkpt><trkpt lat="43.8092576" lon="11.3685634"><ele>314.0</ele><time>2026-03-29T10:15:34.149Z</time></trkpt><trkpt lat="43.8093313" lon="11.3684937"><ele>314.0</ele><time>2026-03-29T10:15:42.149Z</time></trkpt><trkpt lat="43.8094011" lon="11.3684653"><ele>314.0</ele><time>2026-03-29T10:15:43.149Z</time></trkpt><trkpt lat="43.8094647" lon="11.3684446"><ele>314.0</ele><time>2026-03-29T10:15:44.149Z</time></trkpt><trkpt lat="43.8095265" lon="11.3684184"><ele>314.0</ele><time>2026-03-29T10:15:45.149Z</time></trkpt><trkpt lat="43.8096296" lon="11.3683573"><ele>314.0</ele><time>2026-03-29T10:15:47.148Z</time></trkpt><trkpt lat="43.8097253" lon="11.3682561"><ele>314.0</ele><time>2026-03-29T10:15:49.149Z</time></trkpt><trkpt lat="43.8097919" lon="11.3681213"><ele>314.0</ele><time>2026-03-29T10:15:51.149Z</time></trkpt><trkpt lat="43.809821" lon="11.3680404"><ele>314.0</ele><time>2026-03-29T10:15:52.149Z</time></trkpt><trkpt lat="43.8098563" lon="11.3679542"><ele>310.8</ele><time>2026-03-29T10:15:53.148Z</time></trkpt><trkpt lat="43.8099209" lon="11.3678144"><ele>307.59999999999997</ele><time>2026-03-29T10:15:55.148Z</time></trkpt><trkpt lat="43.8099916" lon="11.367696"><ele>304.4</ele><time>2026-03-29T10:15:57.149Z</time></trkpt><trkpt lat="43.8100634" lon="11.3675938"><ele>301.2</ele><time>2026-03-29T10:15:59.149Z</time></trkpt><trkpt lat="43.8101028" lon="11.3675059"><ele>298.0</ele><time>2026-03-29T10:16:01.149Z</time></trkpt><trkpt lat="43.8101456" lon="11.3674172"><ele>298.0</ele><time>2026-03-29T10:16:04.149Z</time></trkpt><trkpt lat="43.810136" lon="11.367301"><ele>298.0</ele><time>2026-03-29T10:16:07.149Z</time></trkpt><trkpt lat="43.810075" lon="11.367243"><ele>298.0</ele><time>2026-03-29T10:16:09.149Z</time></trkpt><trkpt lat="43.8100678" lon="11.3671389"><ele>298.0</ele><time>2026-03-29T10:16:12.149Z</time></trkpt><trkpt lat="43.8101169" lon="11.3670751"><ele>298.0</ele><time>2026-03-29T10:16:14.149Z</time></trkpt><trkpt lat="43.8102056" lon="11.3669975"><ele>298.0</ele><time>2026-03-29T10:16:16.149Z</time></trkpt><trkpt lat="43.8103106" lon="11.3669377"><ele>298.0</ele><time>2026-03-29T10:16:18.149Z</time></trkpt><trkpt lat="43.8104043" lon="11.3669236"><ele>298.0</ele><time>2026-03-29T10:16:20.148Z</time></trkpt><trkpt lat="43.8105017" lon="11.3669568"><ele>298.0</ele><time>2026-03-29T10:16:22.149Z</time></trkpt><trkpt lat="43.8105868" lon="11.3670322"><ele>298.0</ele><time>2026-03-29T10:16:24.149Z</time></trkpt><trkpt lat="43.8106763" lon="11.3671338"><ele>298.0</ele><time>2026-03-29T10:16:26.149Z</time></trkpt><trkpt lat="43.8107778" lon="11.3672327"><ele>299.4</ele><time>2026-03-29T10:16:28.149Z</time></trkpt><trkpt lat="43.8108811" lon="11.3673162"><ele>300.8</ele><time>2026-03-29T10:16:30.149Z</time></trkpt><trkpt lat="43.8109715" lon="11.3674124"><ele>302.2</ele><time>2026-03-29T10:16:32.149Z</time></trkpt><trkpt lat="43.8110375" lon="11.3675138"><ele>303.6</ele><time>2026-03-29T10:16:34.149Z</time></trkpt><trkpt lat="43.8110907" lon="11.3676106"><ele>305.0</ele><time>2026-03-29T10:16:36.149Z</time></trkpt><trkpt lat="43.8111448" lon="11.3677435"><ele>306.1666666666667</ele><time>2026-03-29T10:16:38.149Z</time></trkpt><trkpt lat="43.8111739" lon="11.3678444"><ele>307.33333333333337</ele><time>2026-03-29T10:16:39.149Z</time></trkpt><trkpt lat="43.8112025" lon="11.3679553"><ele>308.5</ele><time>2026-03-29T10:16:40.149Z</time></trkpt><trkpt lat="43.8112369" lon="11.3680723"><ele>309.6666666666667</ele><time>2026-03-29T10:16:41.149Z</time></trkpt><trkpt lat="43.8112678" lon="11.3681894"><ele>310.8333333333333</ele><time>2026-03-29T10:16:42.149Z</time></trkpt><trkpt lat="43.8113049" lon="11.3683117"><ele>312.0</ele><time>2026-03-29T10:16:43.149Z</time></trkpt><trkpt lat="43.8113422" lon="11.368442"><ele>313.4</ele><time>2026-03-29T10:16:44.149Z</time></trkpt><trkpt lat="43.811376" lon="11.3685783"><ele>314.79999999999995</ele><time>2026-03-29T10:16:45.149Z</time></trkpt><trkpt lat="43.811415" lon="11.3687135"><ele>316.2</ele><time>2026-03-29T10:16:46.149Z</time></trkpt><trkpt lat="43.8114512" lon="11.3688376"><ele>317.59999999999997</ele><time>2026-03-29T10:16:47.149Z</time></trkpt><trkpt lat="43.8114871" lon="11.3689621"><ele>319.0</ele><time>2026-03-29T10:16:48.149Z</time></trkpt><trkpt lat="43.8115188" lon="11.3690823"><ele>321.2</ele><time>2026-03-29T10:16:49.149Z</time></trkpt><trkpt lat="43.8115504" lon="11.3691907"><ele>323.4</ele><time>2026-03-29T10:16:50.149Z</time></trkpt><trkpt lat="43.811574" lon="11.3692824"><ele>325.6</ele><time>2026-03-29T10:16:51.149Z</time></trkpt><trkpt lat="43.8116161" lon="11.3694228"><ele>327.8</ele><time>2026-03-29T10:16:53.149Z</time></trkpt><trkpt lat="43.81174" lon="11.3694962"><ele>330.0</ele><time>2026-03-29T10:16:55.149Z</time></trkpt><trkpt lat="43.8118225" lon="11.3695154"><ele>332.5</ele><time>2026-03-29T10:16:56.149Z</time></trkpt><trkpt lat="43.8119099" lon="11.3695331"><ele>335.0</ele><time>2026-03-29T10:16:57.149Z</time></trkpt><trkpt lat="43.8120004" lon="11.3695507"><ele>337.5</ele><time>2026-03-29T10:16:58.149Z</time></trkpt><trkpt lat="43.8120904" lon="11.3695709"><ele>340.0</ele><time>2026-03-29T10:16:59.149Z</time></trkpt><trkpt lat="43.8121674" lon="11.369588"><ele>342.5</ele><time>2026-03-29T10:17:00.149Z</time></trkpt><trkpt lat="43.8122505" lon="11.3695777"><ele>345.0</ele><time>2026-03-29T10:17:01.149Z</time></trkpt><trkpt lat="43.8123379" lon="11.3695445"><ele>345.0</ele><time>2026-03-29T10:17:02.149Z</time></trkpt><trkpt lat="43.8124233" lon="11.3694848"><ele>345.0</ele><time>2026-03-29T10:17:03.149Z</time></trkpt><trkpt lat="43.812504" lon="11.3694038"><ele>345.0</ele><time>2026-03-29T10:17:04.149Z</time></trkpt><trkpt lat="43.8125832" lon="11.3693305"><ele>345.0</ele><time>2026-03-29T10:17:05.148Z</time></trkpt><trkpt lat="43.8126596" lon="11.3692624"><ele>345.0</ele><time>2026-03-29T10:17:06.149Z</time></trkpt><trkpt lat="43.8127221" lon="11.3692052"><ele>346.5</ele><time>2026-03-29T10:17:07.149Z</time></trkpt><trkpt lat="43.8127806" lon="11.3691167"><ele>348.0</ele><time>2026-03-29T10:17:08.149Z</time></trkpt><trkpt lat="43.8128305" lon="11.3690301"><ele>349.5</ele><time>2026-03-29T10:17:09.149Z</time></trkpt><trkpt lat="43.8128644" lon="11.3689272"><ele>351.0</ele><time>2026-03-29T10:17:10.149Z</time></trkpt><trkpt lat="43.8128972" lon="11.3688178"><ele>352.5</ele><time>2026-03-29T10:17:11.149Z</time></trkpt><trkpt lat="43.8129345" lon="11.3687147"><ele>354.0</ele><time>2026-03-29T10:17:12.149Z</time></trkpt><trkpt lat="43.8129843" lon="11.3686041"><ele>354.0</ele><time>2026-03-29T10:17:13.149Z</time></trkpt><trkpt lat="43.8130326" lon="11.3684764"><ele>354.0</ele><time>2026-03-29T10:17:14.149Z</time></trkpt><trkpt lat="43.8130779" lon="11.3683342"><ele>354.0</ele><time>2026-03-29T10:17:15.149Z</time></trkpt><trkpt lat="43.8131364" lon="11.3682169"><ele>354.0</ele><time>2026-03-29T10:17:16.149Z</time></trkpt><trkpt lat="43.8131802" lon="11.3680972"><ele>354.0</ele><time>2026-03-29T10:17:17.149Z</time></trkpt><trkpt lat="43.8132162" lon="11.3679934"><ele>352.0</ele><time>2026-03-29T10:17:18.149Z</time></trkpt><trkpt lat="43.813232" lon="11.3678983"><ele>350.0</ele><time>2026-03-29T10:17:19.149Z</time></trkpt><trkpt lat="43.8132692" lon="11.3678082"><ele>348.0</ele><time>2026-03-29T10:17:21.149Z</time></trkpt><trkpt lat="43.8133003" lon="11.3677094"><ele>346.0</ele><time>2026-03-29T10:17:29.149Z</time></trkpt><trkpt lat="43.813314" lon="11.3676021"><ele>344.0</ele><time>2026-03-29T10:17:31.149Z</time></trkpt><trkpt lat="43.8133056" lon="11.3675084"><ele>342.0</ele><time>2026-03-29T10:17:34.149Z</time></trkpt><trkpt lat="43.8133285" lon="11.3676203"><ele>342.0</ele><time>2026-03-29T10:17:40.149Z</time></trkpt><trkpt lat="43.8133062" lon="11.3677191"><ele>342.0</ele><time>2026-03-29T10:17:41.149Z</time></trkpt><trkpt lat="43.8132863" lon="11.3678233"><ele>342.0</ele><time>2026-03-29T10:17:42.149Z</time></trkpt><trkpt lat="43.8132609" lon="11.3679258"><ele>342.0</ele><time>2026-03-29T10:17:43.149Z</time></trkpt><trkpt lat="43.8132288" lon="11.3680304"><ele>342.0</ele><time>2026-03-29T10:17:44.149Z</time></trkpt><trkpt lat="43.8131956" lon="11.3681295"><ele>342.0</ele><time>2026-03-29T10:17:45.149Z</time></trkpt><trkpt lat="43.8131663" lon="11.3682241"><ele>343.71428571428567</ele><time>2026-03-29T10:17:46.149Z</time></trkpt><trkpt lat="43.8131365" lon="11.3683162"><ele>345.42857142857144</ele><time>2026-03-29T10:17:47.149Z</time></trkpt><trkpt lat="43.8130949" lon="11.3683983"><ele>347.1428571428571</ele><time>2026-03-29T10:17:48.149Z</time></trkpt><trkpt lat="43.8130566" lon="11.3684798"><ele>348.85714285714283</ele><time>2026-03-29T10:17:49.148Z</time></trkpt><trkpt lat="43.8130213" lon="11.3685614"><ele>350.57142857142856</ele><time>2026-03-29T10:17:50.149Z</time></trkpt><trkpt lat="43.8129887" lon="11.3686467"><ele>352.2857142857143</ele><time>2026-03-29T10:17:51.149Z</time></trkpt><trkpt lat="43.8129548" lon="11.368728"><ele>354.0</ele><time>2026-03-29T10:17:52.149Z</time></trkpt><trkpt lat="43.8129196" lon="11.3688046"><ele>354.0</ele><time>2026-03-29T10:17:53.149Z</time></trkpt><trkpt lat="43.8128624" lon="11.3689163"><ele>354.0</ele><time>2026-03-29T10:17:55.149Z</time></trkpt><trkpt lat="43.8129425" lon="11.3689237"><ele>354.0</ele><time>2026-03-29T10:18:01.149Z</time></trkpt><trkpt lat="43.8130145" lon="11.3688727"><ele>354.0</ele><time>2026-03-29T10:18:03.149Z</time></trkpt><trkpt lat="43.8130822" lon="11.3687938"><ele>354.0</ele><time>2026-03-29T10:18:05.149Z</time></trkpt><trkpt lat="43.8131468" lon="11.3687053"><ele>354.0</ele><time>2026-03-29T10:18:07.149Z</time></trkpt><trkpt lat="43.8132216" lon="11.3685907"><ele>354.0</ele><time>2026-03-29T10:18:09.149Z</time></trkpt><trkpt lat="43.8132938" lon="11.3684898"><ele>354.0</ele><time>2026-03-29T10:18:11.149Z</time></trkpt><trkpt lat="43.8133779" lon="11.3684085"><ele>354.0</ele><time>2026-03-29T10:18:13.149Z</time></trkpt><trkpt lat="43.8134929" lon="11.368336"><ele>354.0</ele><time>2026-03-29T10:18:15.149Z</time></trkpt><trkpt lat="43.8135956" lon="11.3682742"><ele>354.0</ele><time>2026-03-29T10:18:17.149Z</time></trkpt><trkpt lat="43.8136761" lon="11.3681876"><ele>354.3333333333333</ele><time>2026-03-29T10:18:19.148Z</time></trkpt><trkpt lat="43.813733" lon="11.3681161"><ele>354.6666666666667</ele><time>2026-03-29T10:18:21.149Z</time></trkpt><trkpt lat="43.8137922" lon="11.3680293"><ele>355.0</ele><time>2026-03-29T10:18:28.149Z</time></trkpt><trkpt lat="43.8138726" lon="11.3679496"><ele>355.33333333333337</ele><time>2026-03-29T10:18:30.149Z</time></trkpt><trkpt lat="43.8139456" lon="11.3679191"><ele>355.6666666666667</ele><time>2026-03-29T10:18:32.149Z</time></trkpt><trkpt lat="43.8140242" lon="11.3679432"><ele>356.0</ele><time>2026-03-29T10:18:34.149Z</time></trkpt><trkpt lat="43.8140989" lon="11.3680094"><ele>357.6666666666667</ele><time>2026-03-29T10:18:36.149Z</time></trkpt><trkpt lat="43.8141659" lon="11.3680841"><ele>359.33333333333337</ele><time>2026-03-29T10:18:38.149Z</time></trkpt><trkpt lat="43.8142533" lon="11.3681514"><ele>361.0</ele><time>2026-03-29T10:18:40.149Z</time></trkpt><trkpt lat="43.8143376" lon="11.3681819"><ele>362.6666666666667</ele><time>2026-03-29T10:18:42.149Z</time></trkpt><trkpt lat="43.814392" lon="11.3682334"><ele>364.3333333333333</ele><time>2026-03-29T10:18:46.149Z</time></trkpt><trkpt lat="43.8144282" lon="11.3683376"><ele>366.0</ele><time>2026-03-29T10:18:48.149Z</time></trkpt><trkpt lat="43.814491" lon="11.3684669"><ele>366.0</ele><time>2026-03-29T10:18:50.149Z</time></trkpt><trkpt lat="43.814544" lon="11.3686071"><ele>366.0</ele><time>2026-03-29T10:18:52.149Z</time></trkpt><trkpt lat="43.8146181" lon="11.3687378"><ele>366.0</ele><time>2026-03-29T10:18:54.149Z</time></trkpt><trkpt lat="43.8147099" lon="11.3688556"><ele>366.0</ele><time>2026-03-29T10:18:56.148Z</time></trkpt><trkpt lat="43.8147916" lon="11.3689678"><ele>366.6</ele><time>2026-03-29T10:18:58.149Z</time></trkpt><trkpt lat="43.8148676" lon="11.3690491"><ele>367.20000000000005</ele><time>2026-03-29T10:19:00.149Z</time></trkpt><trkpt lat="43.8149795" lon="11.369102"><ele>367.79999999999995</ele><time>2026-03-29T10:19:02.149Z</time></trkpt><trkpt lat="43.8150746" lon="11.3691612"><ele>368.4</ele><time>2026-03-29T10:19:04.149Z</time></trkpt><trkpt lat="43.8151218" lon="11.3692265"><ele>369.0</ele><time>2026-03-29T10:19:06.149Z</time></trkpt><trkpt lat="43.8151894" lon="11.3693045"><ele>369.0</ele><time>2026-03-29T10:19:09.149Z</time></trkpt><trkpt lat="43.8152429" lon="11.3693569"><ele>369.0</ele><time>2026-03-29T10:19:11.149Z</time></trkpt><trkpt lat="43.8153121" lon="11.3694167"><ele>369.0</ele><time>2026-03-29T10:19:13.149Z</time></trkpt><trkpt lat="43.8153519" lon="11.3694938"><ele>369.0</ele><time>2026-03-29T10:19:15.149Z</time></trkpt><trkpt lat="43.8154011" lon="11.3696172"><ele>369.0</ele><time>2026-03-29T10:19:17.149Z</time></trkpt><trkpt lat="43.815462" lon="11.3697484"><ele>369.0</ele><time>2026-03-29T10:19:19.149Z</time></trkpt><trkpt lat="43.8155344" lon="11.3698837"><ele>371.6666666666667</ele><time>2026-03-29T10:19:21.149Z</time></trkpt><trkpt lat="43.815587" lon="11.3699575"><ele>374.33333333333337</ele><time>2026-03-29T10:19:22.149Z</time></trkpt><trkpt lat="43.8156362" lon="11.3700347"><ele>377.0</ele><time>2026-03-29T10:19:23.149Z</time></trkpt><trkpt lat="43.8156954" lon="11.3701331"><ele>379.6666666666667</ele><time>2026-03-29T10:19:25.149Z</time></trkpt><trkpt lat="43.8157431" lon="11.3702154"><ele>382.33333333333337</ele><time>2026-03-29T10:19:27.149Z</time></trkpt><trkpt lat="43.8157722" lon="11.37033"><ele>385.0</ele><time>2026-03-29T10:19:29.149Z</time></trkpt><trkpt lat="43.8157969" lon="11.3704117"><ele>385.00000000000006</ele><time>2026-03-29T10:19:31.149Z</time></trkpt><trkpt lat="43.8158203" lon="11.3705054"><ele>385.0</ele><time>2026-03-29T10:19:33.149Z</time></trkpt><trkpt lat="43.8158628" lon="11.3705934"><ele>385.0</ele><time>2026-03-29T10:19:35.149Z</time></trkpt><trkpt lat="43.8159127" lon="11.3706574"><ele>385.0</ele><time>2026-03-29T10:19:39.149Z</time></trkpt><trkpt lat="43.8159524" lon="11.3707477"><ele>385.00000000000006</ele><time>2026-03-29T10:19:42.149Z</time></trkpt><trkpt lat="43.8159711" lon="11.3708375"><ele>385.0</ele><time>2026-03-29T10:19:44.149Z</time></trkpt><trkpt lat="43.8159955" lon="11.3709604"><ele>386.6666666666667</ele><time>2026-03-29T10:19:47.149Z</time></trkpt><trkpt lat="43.8159859" lon="11.3710545"><ele>388.33333333333337</ele><time>2026-03-29T10:19:49.149Z</time></trkpt><trkpt lat="43.8159642" lon="11.3711572"><ele>390.0</ele><time>2026-03-29T10:19:52.149Z</time></trkpt><trkpt lat="43.8159498" lon="11.3712995"><ele>391.66666666666663</ele><time>2026-03-29T10:19:56.149Z</time></trkpt><trkpt lat="43.8159392" lon="11.3714143"><ele>393.3333333333333</ele><time>2026-03-29T10:19:59.149Z</time></trkpt><trkpt lat="43.8159539" lon="11.3715"><ele>395.0</ele><time>2026-03-29T10:20:01.149Z</time></trkpt><trkpt lat="43.8160042" lon="11.3715927"><ele>395.99999999999994</ele><time>2026-03-29T10:20:04.149Z</time></trkpt><trkpt lat="43.8160393" lon="11.3716688"><ele>397.0</ele><time>2026-03-29T10:20:07.149Z</time></trkpt><trkpt lat="43.8160785" lon="11.3717408"><ele>398.0</ele><time>2026-03-29T10:20:09.149Z</time></trkpt><trkpt lat="43.8161275" lon="11.3718398"><ele>399.0</ele><time>2026-03-29T10:20:11.149Z</time></trkpt><trkpt lat="43.8161872" lon="11.3719367"><ele>399.99999999999994</ele><time>2026-03-29T10:20:13.148Z</time></trkpt><trkpt lat="43.8162415" lon="11.3720335"><ele>401.0</ele><time>2026-03-29T10:20:15.149Z</time></trkpt><trkpt lat="43.8163011" lon="11.372128"><ele>403.0</ele><time>2026-03-29T10:20:17.149Z</time></trkpt><trkpt lat="43.8163622" lon="11.3722351"><ele>405.0</ele><time>2026-03-29T10:20:19.149Z</time></trkpt><trkpt lat="43.8164387" lon="11.3723564"><ele>407.0</ele><time>2026-03-29T10:20:21.149Z</time></trkpt><trkpt lat="43.8165059" lon="11.3724621"><ele>409.0</ele><time>2026-03-29T10:20:23.149Z</time></trkpt><trkpt lat="43.8165609" lon="11.372552"><ele>411.0</ele><time>2026-03-29T10:20:25.148Z</time></trkpt><trkpt lat="43.8166143" lon="11.3726517"><ele>411.0</ele><time>2026-03-29T10:20:27.149Z</time></trkpt><trkpt lat="43.816672" lon="11.3727256"><ele>411.0</ele><time>2026-03-29T10:20:29.149Z</time></trkpt><trkpt lat="43.8167011" lon="11.372803"><ele>411.0</ele><time>2026-03-29T10:20:30.148Z</time></trkpt><trkpt lat="43.8167338" lon="11.3728892"><ele>411.0</ele><time>2026-03-29T10:20:31.149Z</time></trkpt><trkpt lat="43.8167852" lon="11.3729708"><ele>411.0</ele><time>2026-03-29T10:20:32.149Z</time></trkpt><trkpt lat="43.8168346" lon="11.3730524"><ele>411.0</ele><time>2026-03-29T10:20:33.149Z</time></trkpt><trkpt lat="43.8168886" lon="11.3731349"><ele>411.0</ele><time>2026-03-29T10:20:34.149Z</time></trkpt><trkpt lat="43.816941" lon="11.3732332"><ele>412.4</ele><time>2026-03-29T10:20:35.149Z</time></trkpt><trkpt lat="43.8169827" lon="11.3733205"><ele>413.8</ele><time>2026-03-29T10:20:36.15Z</time></trkpt><trkpt lat="43.8170558" lon="11.3734358"><ele>415.2</ele><time>2026-03-29T10:20:38.15Z</time></trkpt><trkpt lat="43.8171122" lon="11.3735327"><ele>416.59999999999997</ele><time>2026-03-29T10:20:40.15Z</time></trkpt><trkpt lat="43.8171704" lon="11.3736549"><ele>418.0</ele><time>2026-03-29T10:20:42.15Z</time></trkpt><trkpt lat="43.8172167" lon="11.3737741"><ele>418.0</ele><time>2026-03-29T10:20:44.15Z</time></trkpt><trkpt lat="43.8173069" lon="11.3737943"><ele>418.0</ele><time>2026-03-29T10:20:48.15Z</time></trkpt><trkpt lat="43.8174291" lon="11.3736955"><ele>418.0</ele><time>2026-03-29T10:20:50.15Z</time></trkpt><trkpt lat="43.8174969" lon="11.3736557"><ele>418.0</ele><time>2026-03-29T10:20:51.15Z</time></trkpt><trkpt lat="43.8175699" lon="11.3736135"><ele>418.0</ele><time>2026-03-29T10:20:52.15Z</time></trkpt><trkpt lat="43.8176551" lon="11.3735824"><ele>417.79999999999995</ele><time>2026-03-29T10:20:53.15Z</time></trkpt><trkpt lat="43.8177507" lon="11.3735243"><ele>417.6</ele><time>2026-03-29T10:20:54.15Z</time></trkpt><trkpt lat="43.8178465" lon="11.3734747"><ele>417.4</ele><time>2026-03-29T10:20:55.15Z</time></trkpt><trkpt lat="43.8179278" lon="11.373444"><ele>417.20000000000005</ele><time>2026-03-29T10:20:56.15Z</time></trkpt><trkpt lat="43.8179927" lon="11.3734161"><ele>417.0</ele><time>2026-03-29T10:20:57.15Z</time></trkpt><trkpt lat="43.8180784" lon="11.3733558"><ele>417.0</ele><time>2026-03-29T10:20:59.15Z</time></trkpt><trkpt lat="43.8181775" lon="11.3733172"><ele>417.0</ele><time>2026-03-29T10:21:01.15Z</time></trkpt><trkpt lat="43.8182561" lon="11.3732694"><ele>417.0</ele><time>2026-03-29T10:21:02.15Z</time></trkpt><trkpt lat="43.8183427" lon="11.373212"><ele>417.0</ele><time>2026-03-29T10:21:03.15Z</time></trkpt><trkpt lat="43.8184381" lon="11.3731406"><ele>417.0</ele><time>2026-03-29T10:21:04.149Z</time></trkpt><trkpt lat="43.8185441" lon="11.3730771"><ele>417.5</ele><time>2026-03-29T10:21:05.15Z</time></trkpt><trkpt lat="43.8186579" lon="11.3729986"><ele>418.0</ele><time>2026-03-29T10:21:06.15Z</time></trkpt><trkpt lat="43.8187709" lon="11.3728984"><ele>418.5</ele><time>2026-03-29T10:21:07.15Z</time></trkpt><trkpt lat="43.8188683" lon="11.3727485"><ele>419.0</ele><time>2026-03-29T10:21:08.15Z</time></trkpt><trkpt lat="43.818968" lon="11.3725677"><ele>419.0</ele><time>2026-03-29T10:21:09.15Z</time></trkpt><trkpt lat="43.8190603" lon="11.3723721"><ele>419.0</ele><time>2026-03-29T10:21:10.15Z</time></trkpt><trkpt lat="43.8191626" lon="11.3721684"><ele>419.0</ele><time>2026-03-29T10:21:11.15Z</time></trkpt><trkpt lat="43.8192675" lon="11.3719618"><ele>418.66666666666663</ele><time>2026-03-29T10:21:12.15Z</time></trkpt><trkpt lat="43.8193732" lon="11.3717511"><ele>418.33333333333337</ele><time>2026-03-29T10:21:13.15Z</time></trkpt><trkpt lat="43.8194853" lon="11.3715446"><ele>418.0</ele><time>2026-03-29T10:21:14.15Z</time></trkpt><trkpt lat="43.8195923" lon="11.3713547"><ele>418.0</ele><time>2026-03-29T10:21:15.15Z</time></trkpt><trkpt lat="43.819692" lon="11.3711781"><ele>418.0</ele><time>2026-03-29T10:21:16.15Z</time></trkpt><trkpt lat="43.8197971" lon="11.3710107"><ele>418.0</ele><time>2026-03-29T10:21:17.15Z</time></trkpt><trkpt lat="43.8199266" lon="11.3708462"><ele>418.0</ele><time>2026-03-29T10:21:18.15Z</time></trkpt><trkpt lat="43.8200771" lon="11.3706843"><ele>418.0</ele><time>2026-03-29T10:21:19.149Z</time></trkpt><trkpt lat="43.820221" lon="11.3705159"><ele>418.0</ele><time>2026-03-29T10:21:20.15Z</time></trkpt><trkpt lat="43.8203479" lon="11.3703535"><ele>417.0</ele><time>2026-03-29T10:21:21.15Z</time></trkpt><trkpt lat="43.8204784" lon="11.3701927"><ele>416.0</ele><time>2026-03-29T10:21:22.15Z</time></trkpt><trkpt lat="43.8206102" lon="11.3700537"><ele>415.0</ele><time>2026-03-29T10:21:23.15Z</time></trkpt><trkpt lat="43.8207288" lon="11.3699225"><ele>415.0</ele><time>2026-03-29T10:21:24.15Z</time></trkpt><trkpt lat="43.8208515" lon="11.3697814"><ele>415.0</ele><time>2026-03-29T10:21:25.15Z</time></trkpt><trkpt lat="43.8209821" lon="11.3696209"><ele>415.0</ele><time>2026-03-29T10:21:26.15Z</time></trkpt><trkpt lat="43.8211165" lon="11.3694414"><ele>414.6666666666667</ele><time>2026-03-29T10:21:27.15Z</time></trkpt><trkpt lat="43.8212584" lon="11.3692493"><ele>414.33333333333337</ele><time>2026-03-29T10:21:28.15Z</time></trkpt><trkpt lat="43.8214099" lon="11.3690444"><ele>414.0</ele><time>2026-03-29T10:21:29.15Z</time></trkpt><trkpt lat="43.8215694" lon="11.3688071"><ele>413.5</ele><time>2026-03-29T10:21:30.15Z</time></trkpt><trkpt lat="43.8217387" lon="11.3685673"><ele>413.0</ele><time>2026-03-29T10:21:31.149Z</time></trkpt><trkpt lat="43.8219142" lon="11.36832"><ele>413.0</ele><time>2026-03-29T10:21:32.15Z</time></trkpt><trkpt lat="43.8220899" lon="11.3680643"><ele>413.0</ele><time>2026-03-29T10:21:33.15Z</time></trkpt><trkpt lat="43.8222577" lon="11.3678051"><ele>411.5</ele><time>2026-03-29T10:21:34.15Z</time></trkpt><trkpt lat="43.8224129" lon="11.367532"><ele>410.0</ele><time>2026-03-29T10:21:35.15Z</time></trkpt><trkpt lat="43.8225472" lon="11.3672607"><ele>411.66666666666663</ele><time>2026-03-29T10:21:36.15Z</time></trkpt><trkpt lat="43.822673" lon="11.367013"><ele>413.33333333333337</ele><time>2026-03-29T10:21:37.15Z</time></trkpt><trkpt lat="43.8227933" lon="11.3667693"><ele>415.0</ele><time>2026-03-29T10:21:38.15Z</time></trkpt><trkpt lat="43.8229163" lon="11.3665486"><ele>414.0</ele><time>2026-03-29T10:21:39.15Z</time></trkpt><trkpt lat="43.8230351" lon="11.3663353"><ele>413.0</ele><time>2026-03-29T10:21:40.15Z</time></trkpt><trkpt lat="43.8231503" lon="11.3661413"><ele>412.0</ele><time>2026-03-29T10:21:41.15Z</time></trkpt><trkpt lat="43.8232669" lon="11.3659728"><ele>412.0</ele><time>2026-03-29T10:21:42.15Z</time></trkpt><trkpt lat="43.823396" lon="11.3658201"><ele>412.0</ele><time>2026-03-29T10:21:43.15Z</time></trkpt><trkpt lat="43.8235439" lon="11.3656784"><ele>412.0</ele><time>2026-03-29T10:21:44.15Z</time></trkpt><trkpt lat="43.8237051" lon="11.3655374"><ele>411.0</ele><time>2026-03-29T10:21:45.15Z</time></trkpt><trkpt lat="43.8238803" lon="11.3654076"><ele>410.0</ele><time>2026-03-29T10:21:46.15Z</time></trkpt><trkpt lat="43.8240655" lon="11.3652709"><ele>409.0</ele><time>2026-03-29T10:21:47.15Z</time></trkpt><trkpt lat="43.8242698" lon="11.3651376"><ele>410.0</ele><time>2026-03-29T10:21:48.15Z</time></trkpt><trkpt lat="43.8244856" lon="11.3650247"><ele>411.0</ele><time>2026-03-29T10:21:49.15Z</time></trkpt><trkpt lat="43.8247032" lon="11.3649094"><ele>411.0</ele><time>2026-03-29T10:21:50.15Z</time></trkpt><trkpt lat="43.8249266" lon="11.3647906"><ele>411.0</ele><time>2026-03-29T10:21:51.15Z</time></trkpt><trkpt lat="43.8251505" lon="11.3646705"><ele>412.33333333333337</ele><time>2026-03-29T10:21:52.15Z</time></trkpt><trkpt lat="43.825363" lon="11.3645569"><ele>413.6666666666667</ele><time>2026-03-29T10:21:53.15Z</time></trkpt><trkpt lat="43.8255525" lon="11.3644504"><ele>415.0</ele><time>2026-03-29T10:21:54.15Z</time></trkpt><trkpt lat="43.8257214" lon="11.364361"><ele>415.0</ele><time>2026-03-29T10:21:55.15Z</time></trkpt><trkpt lat="43.8258801" lon="11.3642791"><ele>415.0</ele><time>2026-03-29T10:21:56.15Z</time></trkpt><trkpt lat="43.8260146" lon="11.3641931"><ele>415.0</ele><time>2026-03-29T10:21:57.149Z</time></trkpt><trkpt lat="43.8261304" lon="11.3641199"><ele>415.0</ele><time>2026-03-29T10:21:58.15Z</time></trkpt><trkpt lat="43.826236" lon="11.3640458"><ele>415.5</ele><time>2026-03-29T10:21:59.15Z</time></trkpt><trkpt lat="43.826345" lon="11.3639286"><ele>416.0</ele><time>2026-03-29T10:22:00.15Z</time></trkpt><trkpt lat="43.826448" lon="11.3637871"><ele>416.5</ele><time>2026-03-29T10:22:01.15Z</time></trkpt><trkpt lat="43.8265313" lon="11.3636143"><ele>417.0</ele><time>2026-03-29T10:22:02.15Z</time></trkpt><trkpt lat="43.8265978" lon="11.3634077"><ele>417.66666666666663</ele><time>2026-03-29T10:22:03.15Z</time></trkpt><trkpt lat="43.8266793" lon="11.3631928"><ele>418.3333333333333</ele><time>2026-03-29T10:22:04.15Z</time></trkpt><trkpt lat="43.8267633" lon="11.3629684"><ele>419.0</ele><time>2026-03-29T10:22:05.15Z</time></trkpt><trkpt lat="43.8268566" lon="11.3627614"><ele>417.0</ele><time>2026-03-29T10:22:06.15Z</time></trkpt><trkpt lat="43.8269609" lon="11.3625485"><ele>415.0</ele><time>2026-03-29T10:22:07.15Z</time></trkpt><trkpt lat="43.8270812" lon="11.3623392"><ele>413.0</ele><time>2026-03-29T10:22:08.15Z</time></trkpt><trkpt lat="43.8271996" lon="11.3621401"><ele>418.0</ele><time>2026-03-29T10:22:09.15Z</time></trkpt><trkpt lat="43.8273039" lon="11.3619403"><ele>423.0</ele><time>2026-03-29T10:22:10.15Z</time></trkpt><trkpt lat="43.827395" lon="11.3617375"><ele>428.0</ele><time>2026-03-29T10:22:11.15Z</time></trkpt><trkpt lat="43.8274831" lon="11.361533"><ele>427.3333333333333</ele><time>2026-03-29T10:22:12.15Z</time></trkpt><trkpt lat="43.8275826" lon="11.3613606"><ele>426.66666666666663</ele><time>2026-03-29T10:22:13.15Z</time></trkpt><trkpt lat="43.8277208" lon="11.3612133"><ele>426.0</ele><time>2026-03-29T10:22:14.15Z</time></trkpt><trkpt lat="43.8278617" lon="11.3610752"><ele>426.0</ele><time>2026-03-29T10:22:15.15Z</time></trkpt><trkpt lat="43.8280107" lon="11.3609367"><ele>426.0</ele><time>2026-03-29T10:22:16.15Z</time></trkpt><trkpt lat="43.8281492" lon="11.3608018"><ele>426.0</ele><time>2026-03-29T10:22:17.15Z</time></trkpt><trkpt lat="43.8282706" lon="11.3606685"><ele>424.0</ele><time>2026-03-29T10:22:18.15Z</time></trkpt><trkpt lat="43.8283677" lon="11.3604864"><ele>422.0</ele><time>2026-03-29T10:22:19.15Z</time></trkpt><trkpt lat="43.8284498" lon="11.3602771"><ele>420.0</ele><time>2026-03-29T10:22:20.15Z</time></trkpt><trkpt lat="43.8285246" lon="11.3600582"><ele>420.0</ele><time>2026-03-29T10:22:21.15Z</time></trkpt><trkpt lat="43.8286186" lon="11.3598386"><ele>420.0</ele><time>2026-03-29T10:22:22.149Z</time></trkpt><trkpt lat="43.8287297" lon="11.3596425"><ele>420.0</ele><time>2026-03-29T10:22:23.15Z</time></trkpt><trkpt lat="43.8288484" lon="11.359474"><ele>425.0</ele><time>2026-03-29T10:22:24.15Z</time></trkpt><trkpt lat="43.8289712" lon="11.359339"><ele>430.0</ele><time>2026-03-29T10:22:25.15Z</time></trkpt><trkpt lat="43.8291021" lon="11.3592391"><ele>435.0</ele><time>2026-03-29T10:22:26.149Z</time></trkpt><trkpt lat="43.8292598" lon="11.3591592"><ele>436.75</ele><time>2026-03-29T10:22:27.15Z</time></trkpt><trkpt lat="43.829411" lon="11.3590964"><ele>438.5</ele><time>2026-03-29T10:22:28.15Z</time></trkpt><trkpt lat="43.8295385" lon="11.3590455"><ele>440.25</ele><time>2026-03-29T10:22:29.15Z</time></trkpt><trkpt lat="43.8296182" lon="11.3589708"><ele>442.0</ele><time>2026-03-29T10:22:30.15Z</time></trkpt><trkpt lat="43.8296693" lon="11.3588645"><ele>442.0</ele><time>2026-03-29T10:22:31.15Z</time></trkpt><trkpt lat="43.8297177" lon="11.3587283"><ele>442.00000000000006</ele><time>2026-03-29T10:22:32.15Z</time></trkpt><trkpt lat="43.8297769" lon="11.3585951"><ele>442.00000000000006</ele><time>2026-03-29T10:22:33.15Z</time></trkpt><trkpt lat="43.8298459" lon="11.358472"><ele>442.0</ele><time>2026-03-29T10:22:34.15Z</time></trkpt><trkpt lat="43.8299321" lon="11.358385"><ele>442.0</ele><time>2026-03-29T10:22:35.15Z</time></trkpt><trkpt lat="43.8300443" lon="11.3583254"><ele>439.5</ele><time>2026-03-29T10:22:36.15Z</time></trkpt><trkpt lat="43.8301704" lon="11.3582854"><ele>437.0</ele><time>2026-03-29T10:22:37.149Z</time></trkpt><trkpt lat="43.8303006" lon="11.358241"><ele>434.5</ele><time>2026-03-29T10:22:38.15Z</time></trkpt><trkpt lat="43.8304341" lon="11.3581818"><ele>432.0</ele><time>2026-03-29T10:22:39.15Z</time></trkpt><trkpt lat="43.8305593" lon="11.358089"><ele>435.6</ele><time>2026-03-29T10:22:40.15Z</time></trkpt><trkpt lat="43.8306666" lon="11.3579972"><ele>439.20000000000005</ele><time>2026-03-29T10:22:41.15Z</time></trkpt><trkpt lat="43.8307459" lon="11.3579194"><ele>442.8</ele><time>2026-03-29T10:22:42.15Z</time></trkpt><trkpt lat="43.8308053" lon="11.3578825"><ele>446.4</ele><time>2026-03-29T10:22:43.15Z</time></trkpt><trkpt lat="43.830886" lon="11.3578329"><ele>450.0</ele><time>2026-03-29T10:22:45.15Z</time></trkpt><trkpt lat="43.8308107" lon="11.3578344"><ele>450.0</ele><time>2026-03-29T10:22:49.15Z</time></trkpt><trkpt lat="43.8306886" lon="11.3579447"><ele>450.0</ele><time>2026-03-29T10:22:51.15Z</time></trkpt><trkpt lat="43.8305743" lon="11.3580412"><ele>450.0</ele><time>2026-03-29T10:22:52.15Z</time></trkpt><trkpt lat="43.8304339" lon="11.3581411"><ele>450.0</ele><time>2026-03-29T10:22:53.15Z</time></trkpt><trkpt lat="43.8302766" lon="11.3582203"><ele>447.33333333333337</ele><time>2026-03-29T10:22:54.15Z</time></trkpt><trkpt lat="43.8301185" lon="11.3582928"><ele>444.6666666666667</ele><time>2026-03-29T10:22:55.15Z</time></trkpt><trkpt lat="43.8299766" lon="11.3583608"><ele>442.0</ele><time>2026-03-29T10:22:56.15Z</time></trkpt><trkpt lat="43.8298549" lon="11.3584493"><ele>442.0</ele><time>2026-03-29T10:22:57.15Z</time></trkpt><trkpt lat="43.8297644" lon="11.358573"><ele>442.00000000000006</ele><time>2026-03-29T10:22:58.15Z</time></trkpt><trkpt lat="43.8297088" lon="11.3587073"><ele>442.00000000000006</ele><time>2026-03-29T10:22:59.15Z</time></trkpt><trkpt lat="43.8296684" lon="11.3587972"><ele>442.0</ele><time>2026-03-29T10:23:00.15Z</time></trkpt><trkpt lat="43.8296282" lon="11.3589133"><ele>442.0</ele><time>2026-03-29T10:23:02.15Z</time></trkpt><trkpt lat="43.8297108" lon="11.3588831"><ele>442.0</ele><time>2026-03-29T10:23:05.15Z</time></trkpt><trkpt lat="43.8298138" lon="11.3587317"><ele>442.00000000000006</ele><time>2026-03-29T10:23:07.15Z</time></trkpt><trkpt lat="43.8298657" lon="11.3586454"><ele>442.00000000000006</ele><time>2026-03-29T10:23:08.15Z</time></trkpt><trkpt lat="43.8299312" lon="11.3585719"><ele>442.0</ele><time>2026-03-29T10:23:09.15Z</time></trkpt><trkpt lat="43.8300233" lon="11.3585145"><ele>442.0</ele><time>2026-03-29T10:23:10.15Z</time></trkpt><trkpt lat="43.8301119" lon="11.3585"><ele>440.0</ele><time>2026-03-29T10:23:11.15Z</time></trkpt><trkpt lat="43.8302068" lon="11.3585327"><ele>438.00000000000006</ele><time>2026-03-29T10:23:12.15Z</time></trkpt><trkpt lat="43.8302993" lon="11.3585612"><ele>436.00000000000006</ele><time>2026-03-29T10:23:13.15Z</time></trkpt><trkpt lat="43.8303895" lon="11.3585876"><ele>434.0</ele><time>2026-03-29T10:23:14.149Z</time></trkpt><trkpt lat="43.8304706" lon="11.3585978"><ele>432.0</ele><time>2026-03-29T10:23:15.15Z</time></trkpt><trkpt lat="43.8305608" lon="11.3585859"><ele>432.0</ele><time>2026-03-29T10:23:16.15Z</time></trkpt><trkpt lat="43.8306528" lon="11.3585223"><ele>432.0</ele><time>2026-03-29T10:23:17.15Z</time></trkpt><trkpt lat="43.8307639" lon="11.358442"><ele>432.0</ele><time>2026-03-29T10:23:18.15Z</time></trkpt><trkpt lat="43.8308771" lon="11.3583506"><ele>432.0</ele><time>2026-03-29T10:23:19.15Z</time></trkpt><trkpt lat="43.8309988" lon="11.3582783"><ele>433.25</ele><time>2026-03-29T10:23:20.15Z</time></trkpt><trkpt lat="43.831117" lon="11.3582154"><ele>434.5</ele><time>2026-03-29T10:23:21.15Z</time></trkpt><trkpt lat="43.8312308" lon="11.3581358"><ele>435.75</ele><time>2026-03-29T10:23:22.15Z</time></trkpt><trkpt lat="43.8313503" lon="11.3580536"><ele>437.0</ele><time>2026-03-29T10:23:23.15Z</time></trkpt><trkpt lat="43.8314596" lon="11.3579734"><ele>437.0</ele><time>2026-03-29T10:23:24.15Z</time></trkpt><trkpt lat="43.8315704" lon="11.3578947"><ele>437.0</ele><time>2026-03-29T10:23:25.15Z</time></trkpt><trkpt lat="43.8316787" lon="11.3578168"><ele>437.0</ele><time>2026-03-29T10:23:26.149Z</time></trkpt><trkpt lat="43.8317901" lon="11.3577355"><ele>437.0</ele><time>2026-03-29T10:23:27.15Z</time></trkpt><trkpt lat="43.8318945" lon="11.3576573"><ele>430.25</ele><time>2026-03-29T10:23:28.15Z</time></trkpt><trkpt lat="43.8319987" lon="11.357579"><ele>423.5</ele><time>2026-03-29T10:23:29.15Z</time></trkpt><trkpt lat="43.8321007" lon="11.3574922"><ele>416.75</ele><time>2026-03-29T10:23:30.15Z</time></trkpt><trkpt lat="43.8322002" lon="11.357407"><ele>410.0</ele><time>2026-03-29T10:23:31.15Z</time></trkpt><trkpt lat="43.8322959" lon="11.3573228"><ele>410.0</ele><time>2026-03-29T10:23:32.15Z</time></trkpt><trkpt lat="43.8323964" lon="11.3572378"><ele>410.0</ele><time>2026-03-29T10:23:33.149Z</time></trkpt><trkpt lat="43.832494" lon="11.3571508"><ele>410.0</ele><time>2026-03-29T10:23:34.15Z</time></trkpt><trkpt lat="43.8325933" lon="11.3570642"><ele>410.0</ele><time>2026-03-29T10:23:35.15Z</time></trkpt><trkpt lat="43.8326859" lon="11.3569916"><ele>409.66666666666663</ele><time>2026-03-29T10:23:36.15Z</time></trkpt><trkpt lat="43.8327637" lon="11.3569465"><ele>409.3333333333333</ele><time>2026-03-29T10:23:37.15Z</time></trkpt><trkpt lat="43.8328353" lon="11.3569058"><ele>409.0</ele><time>2026-03-29T10:23:38.15Z</time></trkpt><trkpt lat="43.832904" lon="11.3568735"><ele>408.66666666666663</ele><time>2026-03-29T10:23:39.15Z</time></trkpt><trkpt lat="43.8329771" lon="11.3568299"><ele>408.3333333333333</ele><time>2026-03-29T10:23:40.15Z</time></trkpt><trkpt lat="43.8330525" lon="11.3567825"><ele>408.0</ele><time>2026-03-29T10:23:41.15Z</time></trkpt><trkpt lat="43.833138" lon="11.3567286"><ele>408.0</ele><time>2026-03-29T10:23:42.15Z</time></trkpt><trkpt lat="43.8332425" lon="11.3566727"><ele>408.0</ele><time>2026-03-29T10:23:43.15Z</time></trkpt><trkpt lat="43.8333509" lon="11.356614"><ele>408.0</ele><time>2026-03-29T10:23:44.15Z</time></trkpt><trkpt lat="43.8334537" lon="11.3565662"><ele>408.0</ele><time>2026-03-29T10:23:45.15Z</time></trkpt><trkpt lat="43.8335443" lon="11.356531"><ele>408.0</ele><time>2026-03-29T10:23:46.15Z</time></trkpt><trkpt lat="43.8336244" lon="11.3565062"><ele>406.4</ele><time>2026-03-29T10:23:47.15Z</time></trkpt><trkpt lat="43.8337162" lon="11.3564831"><ele>404.79999999999995</ele><time>2026-03-29T10:23:48.15Z</time></trkpt><trkpt lat="43.8338073" lon="11.3565016"><ele>403.2</ele><time>2026-03-29T10:23:49.15Z</time></trkpt><trkpt lat="43.8338845" lon="11.3565924"><ele>401.6</ele><time>2026-03-29T10:23:50.15Z</time></trkpt><trkpt lat="43.8339536" lon="11.3566939"><ele>400.0</ele><time>2026-03-29T10:23:51.15Z</time></trkpt><trkpt lat="43.8340245" lon="11.3567552"><ele>400.0</ele><time>2026-03-29T10:23:52.15Z</time></trkpt><trkpt lat="43.8340993" lon="11.3567827"><ele>400.0</ele><time>2026-03-29T10:23:53.15Z</time></trkpt><trkpt lat="43.8341869" lon="11.3567883"><ele>400.0</ele><time>2026-03-29T10:23:54.15Z</time></trkpt><trkpt lat="43.8342848" lon="11.356791"><ele>400.0</ele><time>2026-03-29T10:23:55.15Z</time></trkpt><trkpt lat="43.8343972" lon="11.3567798"><ele>400.0</ele><time>2026-03-29T10:23:56.15Z</time></trkpt><trkpt lat="43.8345025" lon="11.3567762"><ele>399.1666666666667</ele><time>2026-03-29T10:23:57.15Z</time></trkpt><trkpt lat="43.8345941" lon="11.3567879"><ele>398.33333333333337</ele><time>2026-03-29T10:23:58.15Z</time></trkpt><trkpt lat="43.8346791" lon="11.3568101"><ele>397.5</ele><time>2026-03-29T10:23:59.15Z</time></trkpt><trkpt lat="43.8347703" lon="11.3568191"><ele>396.66666666666663</ele><time>2026-03-29T10:24:00.15Z</time></trkpt><trkpt lat="43.8348549" lon="11.3568177"><ele>395.8333333333333</ele><time>2026-03-29T10:24:01.15Z</time></trkpt><trkpt lat="43.8349427" lon="11.3568217"><ele>395.0</ele><time>2026-03-29T10:24:02.15Z</time></trkpt><trkpt lat="43.8350186" lon="11.3567915"><ele>395.0</ele><time>2026-03-29T10:24:03.15Z</time></trkpt><trkpt lat="43.835095" lon="11.35676"><ele>395.0</ele><time>2026-03-29T10:24:04.15Z</time></trkpt><trkpt lat="43.8351663" lon="11.3567217"><ele>395.0</ele><time>2026-03-29T10:24:05.15Z</time></trkpt><trkpt lat="43.8352303" lon="11.3566757"><ele>395.0</ele><time>2026-03-29T10:24:06.15Z</time></trkpt><trkpt lat="43.8352957" lon="11.3566562"><ele>395.0</ele><time>2026-03-29T10:24:07.15Z</time></trkpt><trkpt lat="43.835363" lon="11.3566554"><ele>395.0</ele><time>2026-03-29T10:24:08.15Z</time></trkpt><trkpt lat="43.8354441" lon="11.3566898"><ele>395.0</ele><time>2026-03-29T10:24:09.15Z</time></trkpt><trkpt lat="43.8355311" lon="11.3567502"><ele>394.8</ele><time>2026-03-29T10:24:10.15Z</time></trkpt><trkpt lat="43.8356143" lon="11.3568205"><ele>394.6</ele><time>2026-03-29T10:24:11.15Z</time></trkpt><trkpt lat="43.8357021" lon="11.3568867"><ele>394.4</ele><time>2026-03-29T10:24:12.15Z</time></trkpt><trkpt lat="43.8357983" lon="11.3569576"><ele>394.2</ele><time>2026-03-29T10:24:13.15Z</time></trkpt><trkpt lat="43.8358952" lon="11.3570299"><ele>394.0</ele><time>2026-03-29T10:24:14.15Z</time></trkpt><trkpt lat="43.8359942" lon="11.3571019"><ele>394.5</ele><time>2026-03-29T10:24:15.15Z</time></trkpt><trkpt lat="43.8360962" lon="11.3571848"><ele>395.0</ele><time>2026-03-29T10:24:16.15Z</time></trkpt><trkpt lat="43.8362002" lon="11.3572594"><ele>395.5</ele><time>2026-03-29T10:24:17.15Z</time></trkpt><trkpt lat="43.836309" lon="11.3573488"><ele>396.0</ele><time>2026-03-29T10:24:18.15Z</time></trkpt><trkpt lat="43.8364245" lon="11.3574394"><ele>396.0</ele><time>2026-03-29T10:24:19.15Z</time></trkpt><trkpt lat="43.8365294" lon="11.3575192"><ele>396.0</ele><time>2026-03-29T10:24:20.15Z</time></trkpt><trkpt lat="43.8366165" lon="11.3575766"><ele>396.0</ele><time>2026-03-29T10:24:21.15Z</time></trkpt><trkpt lat="43.8366831" lon="11.3576231"><ele>396.0</ele><time>2026-03-29T10:24:22.15Z</time></trkpt><trkpt lat="43.8367795" lon="11.357695"><ele>396.0</ele><time>2026-03-29T10:24:24.15Z</time></trkpt><trkpt lat="43.8368876" lon="11.3577812"><ele>397.0</ele><time>2026-03-29T10:24:26.15Z</time></trkpt><trkpt lat="43.8369465" lon="11.357839"><ele>398.0</ele><time>2026-03-29T10:24:27.149Z</time></trkpt><trkpt lat="43.8370084" lon="11.357894"><ele>399.0</ele><time>2026-03-29T10:24:28.15Z</time></trkpt><trkpt lat="43.8371139" lon="11.3579292"><ele>400.0</ele><time>2026-03-29T10:24:30.15Z</time></trkpt><trkpt lat="43.8371643" lon="11.3578719"><ele>401.0</ele><time>2026-03-29T10:24:31.149Z</time></trkpt><trkpt lat="43.8372114" lon="11.3577855"><ele>402.0</ele><time>2026-03-29T10:24:32.15Z</time></trkpt><trkpt lat="43.837286" lon="11.3576978"><ele>402.0</ele><time>2026-03-29T10:24:34.15Z</time></trkpt><trkpt lat="43.837362" lon="11.3576281"><ele>402.0</ele><time>2026-03-29T10:24:36.15Z</time></trkpt><trkpt lat="43.8374361" lon="11.3575125"><ele>402.0</ele><time>2026-03-29T10:24:38.15Z</time></trkpt><trkpt lat="43.8374654" lon="11.3574258"><ele>402.0</ele><time>2026-03-29T10:24:39.15Z</time></trkpt><trkpt lat="43.8375062" lon="11.3573256"><ele>402.0</ele><time>2026-03-29T10:24:40.149Z</time></trkpt><trkpt lat="43.8375548" lon="11.3572149"><ele>402.0</ele><time>2026-03-29T10:24:41.15Z</time></trkpt><trkpt lat="43.8376116" lon="11.357105"><ele>403.1666666666667</ele><time>2026-03-29T10:24:42.15Z</time></trkpt><trkpt lat="43.8376564" lon="11.3569915"><ele>404.33333333333337</ele><time>2026-03-29T10:24:43.15Z</time></trkpt><trkpt lat="43.8376972" lon="11.356887"><ele>405.5</ele><time>2026-03-29T10:24:44.15Z</time></trkpt><trkpt lat="43.8377316" lon="11.356788"><ele>406.6666666666667</ele><time>2026-03-29T10:24:45.15Z</time></trkpt><trkpt lat="43.8377571" lon="11.3567025"><ele>407.83333333333337</ele><time>2026-03-29T10:24:46.15Z</time></trkpt><trkpt lat="43.8377952" lon="11.3565619"><ele>409.0</ele><time>2026-03-29T10:24:48.15Z</time></trkpt><trkpt lat="43.8378742" lon="11.3565217"><ele>409.0</ele><time>2026-03-29T10:24:51.149Z</time></trkpt><trkpt lat="43.8379951" lon="11.3566217"><ele>409.0</ele><time>2026-03-29T10:24:52.149Z</time></trkpt><trkpt lat="43.8382932" lon="11.3567463"><ele>409.0</ele><time>2026-03-29T10:24:54.15Z</time></trkpt><trkpt lat="43.8384433" lon="11.356823"><ele>409.0</ele><time>2026-03-29T10:24:55.15Z</time></trkpt><trkpt lat="43.8385798" lon="11.3569021"><ele>409.0</ele><time>2026-03-29T10:24:56.15Z</time></trkpt><trkpt lat="43.8386995" lon="11.3569794"><ele>409.0</ele><time>2026-03-29T10:24:57.15Z</time></trkpt><trkpt lat="43.8388264" lon="11.3570418"><ele>412.0</ele><time>2026-03-29T10:24:58.15Z</time></trkpt><trkpt lat="43.838966" lon="11.3570787"><ele>415.0</ele><time>2026-03-29T10:24:59.15Z</time></trkpt><trkpt lat="43.8391132" lon="11.3570947"><ele>418.0</ele><time>2026-03-29T10:25:00.15Z</time></trkpt><trkpt lat="43.8392709" lon="11.3571118"><ele>421.0</ele><time>2026-03-29T10:25:01.15Z</time></trkpt><trkpt lat="43.8394496" lon="11.3571104"><ele>422.33333333333337</ele><time>2026-03-29T10:25:02.149Z</time></trkpt><trkpt lat="43.8396346" lon="11.3570765"><ele>423.66666666666663</ele><time>2026-03-29T10:25:03.15Z</time></trkpt><trkpt lat="43.83983" lon="11.3570384"><ele>425.0</ele><time>2026-03-29T10:25:04.15Z</time></trkpt><trkpt lat="43.8400353" lon="11.3570047"><ele>426.0</ele><time>2026-03-29T10:25:05.15Z</time></trkpt><trkpt lat="43.8402386" lon="11.3569734"><ele>427.0</ele><time>2026-03-29T10:25:06.15Z</time></trkpt><trkpt lat="43.840444" lon="11.3569334"><ele>428.0</ele><time>2026-03-29T10:25:07.15Z</time></trkpt><trkpt lat="43.8406338" lon="11.3568919"><ele>428.0</ele><time>2026-03-29T10:25:08.15Z</time></trkpt><trkpt lat="43.8408049" lon="11.3568585"><ele>428.0</ele><time>2026-03-29T10:25:09.15Z</time></trkpt><trkpt lat="43.8409496" lon="11.3568297"><ele>428.0</ele><time>2026-03-29T10:25:10.15Z</time></trkpt><trkpt lat="43.8410747" lon="11.3568134"><ele>428.0</ele><time>2026-03-29T10:25:11.15Z</time></trkpt><trkpt lat="43.8411688" lon="11.3567994"><ele>428.79999999999995</ele><time>2026-03-29T10:25:12.15Z</time></trkpt><trkpt lat="43.8412413" lon="11.3567963"><ele>429.59999999999997</ele><time>2026-03-29T10:25:13.15Z</time></trkpt><trkpt lat="43.8413125" lon="11.3567234"><ele>430.40000000000003</ele><time>2026-03-29T10:25:15.15Z</time></trkpt><trkpt lat="43.8413237" lon="11.3565835"><ele>431.20000000000005</ele><time>2026-03-29T10:25:17.15Z</time></trkpt><trkpt lat="43.8412955" lon="11.3564273"><ele>432.0</ele><time>2026-03-29T10:25:19.15Z</time></trkpt><trkpt lat="43.8412761" lon="11.3563291"><ele>433.40000000000003</ele><time>2026-03-29T10:25:20.15Z</time></trkpt><trkpt lat="43.8412552" lon="11.3562179"><ele>434.80000000000007</ele><time>2026-03-29T10:25:22.15Z</time></trkpt><trkpt lat="43.8411619" lon="11.3561336"><ele>436.2</ele><time>2026-03-29T10:25:24.15Z</time></trkpt><trkpt lat="43.8410687" lon="11.3560845"><ele>437.6</ele><time>2026-03-29T10:25:25.15Z</time></trkpt><trkpt lat="43.8409677" lon="11.3560381"><ele>439.0</ele><time>2026-03-29T10:25:26.15Z</time></trkpt><trkpt lat="43.8408597" lon="11.3559854"><ele>439.5</ele><time>2026-03-29T10:25:27.15Z</time></trkpt><trkpt lat="43.8407362" lon="11.3559267"><ele>440.0</ele><time>2026-03-29T10:25:28.15Z</time></trkpt><trkpt lat="43.8406165" lon="11.3558665"><ele>440.5</ele><time>2026-03-29T10:25:29.15Z</time></trkpt><trkpt lat="43.8404987" lon="11.3558082"><ele>441.0</ele><time>2026-03-29T10:25:30.15Z</time></trkpt><trkpt lat="43.8403726" lon="11.3557424"><ele>441.0</ele><time>2026-03-29T10:25:31.15Z</time></trkpt><trkpt lat="43.8402449" lon="11.3556639"><ele>441.0</ele><time>2026-03-29T10:25:32.15Z</time></trkpt><trkpt lat="43.8401303" lon="11.355604"><ele>441.0</ele><time>2026-03-29T10:25:33.15Z</time></trkpt><trkpt lat="43.8400389" lon="11.355555"><ele>441.0</ele><time>2026-03-29T10:25:34.15Z</time></trkpt><trkpt lat="43.8399747" lon="11.3555256"><ele>441.0</ele><time>2026-03-29T10:25:35.15Z</time></trkpt><trkpt lat="43.839893" lon="11.3554818"><ele>442.5</ele><time>2026-03-29T10:25:37.15Z</time></trkpt><trkpt lat="43.8398664" lon="11.3553814"><ele>444.0</ele><time>2026-03-29T10:25:41.15Z</time></trkpt><trkpt lat="43.8399148" lon="11.3552925"><ele>445.5</ele><time>2026-03-29T10:25:43.15Z</time></trkpt><trkpt lat="43.8399812" lon="11.3552241"><ele>447.0</ele><time>2026-03-29T10:25:45.15Z</time></trkpt><trkpt lat="43.8400521" lon="11.3551599"><ele>448.5</ele><time>2026-03-29T10:25:47.15Z</time></trkpt><trkpt lat="43.8401011" lon="11.3550785"><ele>450.0</ele><time>2026-03-29T10:25:49.15Z</time></trkpt><trkpt lat="43.8400834" lon="11.3549563"><ele>450.0</ele><time>2026-03-29T10:25:51.15Z</time></trkpt><trkpt lat="43.8400456" lon="11.3548086"><ele>450.0</ele><time>2026-03-29T10:25:53.15Z</time></trkpt><trkpt lat="43.8400142" lon="11.3546539"><ele>450.0</ele><time>2026-03-29T10:25:55.15Z</time></trkpt><trkpt lat="43.8399671" lon="11.3544908"><ele>450.0</ele><time>2026-03-29T10:25:57.15Z</time></trkpt><trkpt lat="43.8399469" lon="11.3543282"><ele>452.2</ele><time>2026-03-29T10:25:59.15Z</time></trkpt><trkpt lat="43.8399533" lon="11.3541671"><ele>454.4</ele><time>2026-03-29T10:26:01.15Z</time></trkpt><trkpt lat="43.8399626" lon="11.3540806"><ele>456.6</ele><time>2026-03-29T10:26:02.15Z</time></trkpt><trkpt lat="43.8399682" lon="11.3539209"><ele>458.8</ele><time>2026-03-29T10:26:04.15Z</time></trkpt><trkpt lat="43.8399648" lon="11.3537665"><ele>461.0</ele><time>2026-03-29T10:26:06.15Z</time></trkpt><trkpt lat="43.8399565" lon="11.3536696"><ele>464.0</ele><time>2026-03-29T10:26:07.15Z</time></trkpt><trkpt lat="43.8399467" lon="11.3535827"><ele>467.0</ele><time>2026-03-29T10:26:08.15Z</time></trkpt><trkpt lat="43.8399273" lon="11.3534317"><ele>470.0</ele><time>2026-03-29T10:26:10.15Z</time></trkpt><trkpt lat="43.8399139" lon="11.3532795"><ele>473.0</ele><time>2026-03-29T10:26:12.15Z</time></trkpt><trkpt lat="43.8399251" lon="11.3531361"><ele>476.0</ele><time>2026-03-29T10:26:14.15Z</time></trkpt><trkpt lat="43.8399767" lon="11.353005"><ele>477.3333333333333</ele><time>2026-03-29T10:26:16.15Z</time></trkpt><trkpt lat="43.840071" lon="11.352909"><ele>478.66666666666663</ele><time>2026-03-29T10:26:18.15Z</time></trkpt><trkpt lat="43.8401308" lon="11.3528397"><ele>480.0</ele><time>2026-03-29T10:26:19.15Z</time></trkpt><trkpt lat="43.8401937" lon="11.3527736"><ele>481.33333333333337</ele><time>2026-03-29T10:26:20.149Z</time></trkpt><trkpt lat="43.8402522" lon="11.3527043"><ele>482.6666666666667</ele><time>2026-03-29T10:26:21.15Z</time></trkpt><trkpt lat="43.8403054" lon="11.3526439"><ele>484.0</ele><time>2026-03-29T10:26:22.15Z</time></trkpt><trkpt lat="43.8403554" lon="11.3525865"><ele>484.0</ele><time>2026-03-29T10:26:23.15Z</time></trkpt><trkpt lat="43.8403963" lon="11.3525143"><ele>483.99999999999994</ele><time>2026-03-29T10:26:24.15Z</time></trkpt><trkpt lat="43.8404255" lon="11.3524245"><ele>484.0</ele><time>2026-03-29T10:26:25.149Z</time></trkpt><trkpt lat="43.8404431" lon="11.3523324"><ele>484.0</ele><time>2026-03-29T10:26:26.15Z</time></trkpt><trkpt lat="43.8404562" lon="11.3522359"><ele>483.99999999999994</ele><time>2026-03-29T10:26:27.15Z</time></trkpt><trkpt lat="43.8404661" lon="11.3521303"><ele>484.0</ele><time>2026-03-29T10:26:28.15Z</time></trkpt><trkpt lat="43.8404813" lon="11.352008"><ele>484.0</ele><time>2026-03-29T10:26:29.15Z</time></trkpt><trkpt lat="43.8405032" lon="11.3518886"><ele>485.2</ele><time>2026-03-29T10:26:30.15Z</time></trkpt><trkpt lat="43.8405418" lon="11.3517646"><ele>486.4</ele><time>2026-03-29T10:26:31.149Z</time></trkpt><trkpt lat="43.8405949" lon="11.351658"><ele>487.6</ele><time>2026-03-29T10:26:32.15Z</time></trkpt><trkpt lat="43.8406546" lon="11.351556"><ele>488.8</ele><time>2026-03-29T10:26:33.15Z</time></trkpt><trkpt lat="43.8407282" lon="11.3514627"><ele>490.0</ele><time>2026-03-29T10:26:34.15Z</time></trkpt><trkpt lat="43.8408079" lon="11.3513999"><ele>489.00000000000006</ele><time>2026-03-29T10:26:35.15Z</time></trkpt><trkpt lat="43.8408928" lon="11.3513634"><ele>488.0</ele><time>2026-03-29T10:26:36.15Z</time></trkpt><trkpt lat="43.8409817" lon="11.3513584"><ele>487.0</ele><time>2026-03-29T10:26:37.15Z</time></trkpt><trkpt lat="43.841071" lon="11.3513733"><ele>486.0</ele><time>2026-03-29T10:26:38.15Z</time></trkpt><trkpt lat="43.8411546" lon="11.3513949"><ele>485.00000000000006</ele><time>2026-03-29T10:26:39.15Z</time></trkpt><trkpt lat="43.8412309" lon="11.3514277"><ele>484.0</ele><time>2026-03-29T10:26:40.15Z</time></trkpt><trkpt lat="43.8413056" lon="11.3514592"><ele>484.00000000000006</ele><time>2026-03-29T10:26:41.15Z</time></trkpt><trkpt lat="43.8413812" lon="11.3514835"><ele>484.0</ele><time>2026-03-29T10:26:42.15Z</time></trkpt><trkpt lat="43.8414525" lon="11.3515065"><ele>484.0</ele><time>2026-03-29T10:26:43.15Z</time></trkpt><trkpt lat="43.8415229" lon="11.3515207"><ele>484.0</ele><time>2026-03-29T10:26:44.15Z</time></trkpt><trkpt lat="43.8415945" lon="11.3515199"><ele>484.00000000000006</ele><time>2026-03-29T10:26:45.15Z</time></trkpt><trkpt lat="43.8416747" lon="11.3514898"><ele>484.0</ele><time>2026-03-29T10:26:46.15Z</time></trkpt><trkpt lat="43.8417599" lon="11.3514444"><ele>485.0</ele><time>2026-03-29T10:26:47.15Z</time></trkpt><trkpt lat="43.8418498" lon="11.351381"><ele>486.0</ele><time>2026-03-29T10:26:48.15Z</time></trkpt><trkpt lat="43.8419351" lon="11.3512777"><ele>487.0</ele><time>2026-03-29T10:26:49.15Z</time></trkpt><trkpt lat="43.8420224" lon="11.3511744"><ele>488.0</ele><time>2026-03-29T10:26:50.15Z</time></trkpt><trkpt lat="43.8421175" lon="11.3510602"><ele>488.0</ele><time>2026-03-29T10:26:51.15Z</time></trkpt><trkpt lat="43.8422196" lon="11.3509666"><ele>487.99999999999994</ele><time>2026-03-29T10:26:52.15Z</time></trkpt><trkpt lat="43.8423159" lon="11.3508945"><ele>487.99999999999994</ele><time>2026-03-29T10:26:53.15Z</time></trkpt><trkpt lat="43.842389" lon="11.3508399"><ele>488.0</ele><time>2026-03-29T10:26:54.15Z</time></trkpt><trkpt lat="43.8424498" lon="11.3507713"><ele>488.0</ele><time>2026-03-29T10:26:55.15Z</time></trkpt><trkpt lat="43.8425045" lon="11.3506904"><ele>488.0</ele><time>2026-03-29T10:26:56.149Z</time></trkpt><trkpt lat="43.8425607" lon="11.3505995"><ele>487.99999999999994</ele><time>2026-03-29T10:26:57.15Z</time></trkpt><trkpt lat="43.842612" lon="11.3505075"><ele>487.99999999999994</ele><time>2026-03-29T10:26:58.15Z</time></trkpt><trkpt lat="43.8426644" lon="11.3503947"><ele>488.0</ele><time>2026-03-29T10:26:59.15Z</time></trkpt><trkpt lat="43.8427254" lon="11.3502516"><ele>488.0</ele><time>2026-03-29T10:27:00.15Z</time></trkpt><trkpt lat="43.8427718" lon="11.3500995"><ele>489.0</ele><time>2026-03-29T10:27:01.15Z</time></trkpt><trkpt lat="43.842814" lon="11.3499254"><ele>490.0</ele><time>2026-03-29T10:27:02.15Z</time></trkpt><trkpt lat="43.8428548" lon="11.3497466"><ele>491.0</ele><time>2026-03-29T10:27:03.15Z</time></trkpt><trkpt lat="43.8429037" lon="11.3496006"><ele>492.0</ele><time>2026-03-29T10:27:04.15Z</time></trkpt><trkpt lat="43.8429686" lon="11.3494736"><ele>492.0</ele><time>2026-03-29T10:27:05.15Z</time></trkpt><trkpt lat="43.8430409" lon="11.349364"><ele>492.0</ele><time>2026-03-29T10:27:06.15Z</time></trkpt><trkpt lat="43.8431318" lon="11.3492723"><ele>492.0</ele><time>2026-03-29T10:27:07.149Z</time></trkpt><trkpt lat="43.8432266" lon="11.349193"><ele>492.0</ele><time>2026-03-29T10:27:08.15Z</time></trkpt><trkpt lat="43.8433367" lon="11.3491185"><ele>492.0</ele><time>2026-03-29T10:27:09.15Z</time></trkpt><trkpt lat="43.8434517" lon="11.3490493"><ele>492.0</ele><time>2026-03-29T10:27:10.15Z</time></trkpt><trkpt lat="43.8435743" lon="11.3489919"><ele>492.0</ele><time>2026-03-29T10:27:11.15Z</time></trkpt><trkpt lat="43.8437058" lon="11.348937"><ele>492.0</ele><time>2026-03-29T10:27:12.15Z</time></trkpt><trkpt lat="43.8438445" lon="11.348891"><ele>493.5</ele><time>2026-03-29T10:27:13.15Z</time></trkpt><trkpt lat="43.8439928" lon="11.3488469"><ele>495.0</ele><time>2026-03-29T10:27:14.15Z</time></trkpt><trkpt lat="43.8441245" lon="11.3487947"><ele>496.5</ele><time>2026-03-29T10:27:15.15Z</time></trkpt><trkpt lat="43.8442596" lon="11.3487454"><ele>498.0</ele><time>2026-03-29T10:27:16.15Z</time></trkpt><trkpt lat="43.8443985" lon="11.3486843"><ele>498.25</ele><time>2026-03-29T10:27:17.15Z</time></trkpt><trkpt lat="43.8445369" lon="11.3486286"><ele>498.5</ele><time>2026-03-29T10:27:18.15Z</time></trkpt><trkpt lat="43.8446712" lon="11.3485936"><ele>498.75</ele><time>2026-03-29T10:27:19.15Z</time></trkpt><trkpt lat="43.8448133" lon="11.3485646"><ele>499.0</ele><time>2026-03-29T10:27:20.15Z</time></trkpt><trkpt lat="43.8449593" lon="11.3485359"><ele>499.0</ele><time>2026-03-29T10:27:21.15Z</time></trkpt><trkpt lat="43.8451066" lon="11.3485097"><ele>499.0</ele><time>2026-03-29T10:27:22.15Z</time></trkpt><trkpt lat="43.8452598" lon="11.3484923"><ele>499.0</ele><time>2026-03-29T10:27:23.15Z</time></trkpt><trkpt lat="43.8454228" lon="11.3484684"><ele>499.33333333333337</ele><time>2026-03-29T10:27:24.15Z</time></trkpt><trkpt lat="43.8455878" lon="11.3484392"><ele>499.66666666666663</ele><time>2026-03-29T10:27:25.15Z</time></trkpt><trkpt lat="43.8457531" lon="11.3484113"><ele>500.0</ele><time>2026-03-29T10:27:26.15Z</time></trkpt><trkpt lat="43.845927" lon="11.3483802"><ele>503.66666666666663</ele><time>2026-03-29T10:27:27.15Z</time></trkpt><trkpt lat="43.8460938" lon="11.3483491"><ele>507.33333333333337</ele><time>2026-03-29T10:27:28.15Z</time></trkpt><trkpt lat="43.8462515" lon="11.34832"><ele>511.0</ele><time>2026-03-29T10:27:29.15Z</time></trkpt><trkpt lat="43.846412" lon="11.3482896"><ele>511.0</ele><time>2026-03-29T10:27:30.15Z</time></trkpt><trkpt lat="43.8465633" lon="11.348249"><ele>511.0</ele><time>2026-03-29T10:27:31.15Z</time></trkpt><trkpt lat="43.8467042" lon="11.3482086"><ele>511.0</ele><time>2026-03-29T10:27:32.15Z</time></trkpt><trkpt lat="43.8468417" lon="11.3481808"><ele>511.0</ele><time>2026-03-29T10:27:33.15Z</time></trkpt><trkpt lat="43.8469603" lon="11.3481771"><ele>511.75</ele><time>2026-03-29T10:27:34.15Z</time></trkpt><trkpt lat="43.8470758" lon="11.3481851"><ele>512.5</ele><time>2026-03-29T10:27:35.15Z</time></trkpt><trkpt lat="43.8471894" lon="11.3482031"><ele>513.25</ele><time>2026-03-29T10:27:36.15Z</time></trkpt><trkpt lat="43.8472941" lon="11.3482236"><ele>514.0</ele><time>2026-03-29T10:27:37.15Z</time></trkpt><trkpt lat="43.8474067" lon="11.3482576"><ele>514.0</ele><time>2026-03-29T10:27:38.15Z</time></trkpt><trkpt lat="43.8475297" lon="11.3483044"><ele>514.0</ele><time>2026-03-29T10:27:39.15Z</time></trkpt><trkpt lat="43.8476611" lon="11.348359"><ele>514.0</ele><time>2026-03-29T10:27:40.15Z</time></trkpt><trkpt lat="43.8477919" lon="11.3484118"><ele>514.0</ele><time>2026-03-29T10:27:41.15Z</time></trkpt><trkpt lat="43.8479136" lon="11.3484607"><ele>513.0</ele><time>2026-03-29T10:27:42.15Z</time></trkpt><trkpt lat="43.8480381" lon="11.3485063"><ele>512.0</ele><time>2026-03-29T10:27:43.15Z</time></trkpt><trkpt lat="43.8481618" lon="11.3485294"><ele>511.0</ele><time>2026-03-29T10:27:44.15Z</time></trkpt><trkpt lat="43.848291" lon="11.3485304"><ele>510.0</ele><time>2026-03-29T10:27:45.15Z</time></trkpt><trkpt lat="43.8484228" lon="11.3485292"><ele>508.5</ele><time>2026-03-29T10:27:46.15Z</time></trkpt><trkpt lat="43.8485571" lon="11.3485216"><ele>507.0</ele><time>2026-03-29T10:27:47.15Z</time></trkpt><trkpt lat="43.8487021" lon="11.3485229"><ele>505.5</ele><time>2026-03-29T10:27:48.15Z</time></trkpt><trkpt lat="43.8488512" lon="11.3485365"><ele>504.0</ele><time>2026-03-29T10:27:49.15Z</time></trkpt><trkpt lat="43.8490003" lon="11.3485552"><ele>504.0</ele><time>2026-03-29T10:27:50.15Z</time></trkpt><trkpt lat="43.8491452" lon="11.3485684"><ele>504.0</ele><time>2026-03-29T10:27:51.15Z</time></trkpt><trkpt lat="43.8492919" lon="11.3485604"><ele>504.0</ele><time>2026-03-29T10:27:52.15Z</time></trkpt><trkpt lat="43.8494334" lon="11.3485329"><ele>504.0</ele><time>2026-03-29T10:27:53.15Z</time></trkpt><trkpt lat="43.8495645" lon="11.3485053"><ele>503.0</ele><time>2026-03-29T10:27:54.15Z</time></trkpt><trkpt lat="43.8496771" lon="11.3484807"><ele>502.0</ele><time>2026-03-29T10:27:55.15Z</time></trkpt><trkpt lat="43.8497805" lon="11.3484585"><ele>501.0</ele><time>2026-03-29T10:27:56.15Z</time></trkpt><trkpt lat="43.8498849" lon="11.3484193"><ele>500.0</ele><time>2026-03-29T10:27:57.15Z</time></trkpt><trkpt lat="43.8499891" lon="11.3483798"><ele>499.0</ele><time>2026-03-29T10:27:58.15Z</time></trkpt><trkpt lat="43.8500935" lon="11.3483516"><ele>498.6666666666667</ele><time>2026-03-29T10:27:59.15Z</time></trkpt><trkpt lat="43.8501835" lon="11.3483947"><ele>498.33333333333337</ele><time>2026-03-29T10:28:00.15Z</time></trkpt><trkpt lat="43.8502652" lon="11.348461"><ele>498.0</ele><time>2026-03-29T10:28:01.15Z</time></trkpt><trkpt lat="43.8503416" lon="11.3485119"><ele>497.66666666666663</ele><time>2026-03-29T10:28:02.15Z</time></trkpt><trkpt lat="43.8504034" lon="11.3485286"><ele>497.3333333333333</ele><time>2026-03-29T10:28:03.15Z</time></trkpt><trkpt lat="43.85049" lon="11.3484994"><ele>497.0</ele><time>2026-03-29T10:28:04.15Z</time></trkpt><trkpt lat="43.850586" lon="11.3483966"><ele>497.0</ele><time>2026-03-29T10:28:05.15Z</time></trkpt><trkpt lat="43.8506983" lon="11.3482744"><ele>497.0</ele><time>2026-03-29T10:28:06.15Z</time></trkpt><trkpt lat="43.8508257" lon="11.3481415"><ele>497.0</ele><time>2026-03-29T10:28:07.15Z</time></trkpt><trkpt lat="43.8509704" lon="11.3480051"><ele>499.3333333333333</ele><time>2026-03-29T10:28:08.15Z</time></trkpt><trkpt lat="43.8511081" lon="11.3478614"><ele>501.66666666666663</ele><time>2026-03-29T10:28:09.15Z</time></trkpt><trkpt lat="43.8512538" lon="11.3477265"><ele>504.0</ele><time>2026-03-29T10:28:10.15Z</time></trkpt><trkpt lat="43.8514034" lon="11.3475882"><ele>504.0</ele><time>2026-03-29T10:28:11.15Z</time></trkpt><trkpt lat="43.8515495" lon="11.3474478"><ele>504.0</ele><time>2026-03-29T10:28:12.15Z</time></trkpt><trkpt lat="43.85169" lon="11.3473354"><ele>504.0</ele><time>2026-03-29T10:28:13.15Z</time></trkpt><trkpt lat="43.8518391" lon="11.347257"><ele>504.66666666666663</ele><time>2026-03-29T10:28:14.15Z</time></trkpt><trkpt lat="43.8519956" lon="11.3472155"><ele>505.3333333333333</ele><time>2026-03-29T10:28:15.15Z</time></trkpt><trkpt lat="43.8521595" lon="11.3471989"><ele>506.0</ele><time>2026-03-29T10:28:16.149Z</time></trkpt><trkpt lat="43.8523255" lon="11.3471949"><ele>507.66666666666663</ele><time>2026-03-29T10:28:17.15Z</time></trkpt><trkpt lat="43.8524942" lon="11.3471896"><ele>509.33333333333337</ele><time>2026-03-29T10:28:18.15Z</time></trkpt><trkpt lat="43.8526589" lon="11.3472005"><ele>511.0</ele><time>2026-03-29T10:28:19.15Z</time></trkpt><trkpt lat="43.8528154" lon="11.347223"><ele>511.0</ele><time>2026-03-29T10:28:20.15Z</time></trkpt><trkpt lat="43.8529577" lon="11.3472445"><ele>511.0</ele><time>2026-03-29T10:28:21.149Z</time></trkpt><trkpt lat="43.8530962" lon="11.3472592"><ele>511.0</ele><time>2026-03-29T10:28:22.15Z</time></trkpt><trkpt lat="43.8532269" lon="11.347221"><ele>511.0</ele><time>2026-03-29T10:28:23.15Z</time></trkpt><trkpt lat="43.853364" lon="11.3471601"><ele>521.6666666666667</ele><time>2026-03-29T10:28:24.15Z</time></trkpt><trkpt lat="43.8535045" lon="11.3470966"><ele>532.3333333333334</ele><time>2026-03-29T10:28:25.15Z</time></trkpt><trkpt lat="43.85365" lon="11.3470885"><ele>543.0</ele><time>2026-03-29T10:28:26.15Z</time></trkpt><trkpt lat="43.8538067" lon="11.3471556"><ele>535.0</ele><time>2026-03-29T10:28:27.15Z</time></trkpt><trkpt lat="43.8539568" lon="11.3472803"><ele>527.0</ele><time>2026-03-29T10:28:28.15Z</time></trkpt><trkpt lat="43.8540781" lon="11.3474228"><ele>519.0</ele><time>2026-03-29T10:28:29.15Z</time></trkpt><trkpt lat="43.8541907" lon="11.3475551"><ele>522.0</ele><time>2026-03-29T10:28:30.15Z</time></trkpt><trkpt lat="43.8543181" lon="11.3476306"><ele>525.0</ele><time>2026-03-29T10:28:31.15Z</time></trkpt><trkpt lat="43.8544753" lon="11.3476626"><ele>528.0</ele><time>2026-03-29T10:28:32.15Z</time></trkpt><trkpt lat="43.8546539" lon="11.3476796"><ele>528.0</ele><time>2026-03-29T10:28:33.15Z</time></trkpt><trkpt lat="43.8548439" lon="11.3476893"><ele>528.0</ele><time>2026-03-29T10:28:34.15Z</time></trkpt><trkpt lat="43.8550114" lon="11.3476964"><ele>528.0</ele><time>2026-03-29T10:28:35.15Z</time></trkpt><trkpt lat="43.8551943" lon="11.3476881"><ele>526.6666666666666</ele><time>2026-03-29T10:28:36.15Z</time></trkpt><trkpt lat="43.8553751" lon="11.347653"><ele>525.3333333333333</ele><time>2026-03-29T10:28:37.15Z</time></trkpt><trkpt lat="43.8555489" lon="11.3475897"><ele>524.0</ele><time>2026-03-29T10:28:38.15Z</time></trkpt><trkpt lat="43.8557302" lon="11.34754"><ele>524.0</ele><time>2026-03-29T10:28:39.15Z</time></trkpt><trkpt lat="43.8559144" lon="11.3474964"><ele>524.0</ele><time>2026-03-29T10:28:40.15Z</time></trkpt><trkpt lat="43.8560909" lon="11.3474465"><ele>524.0</ele><time>2026-03-29T10:28:41.15Z</time></trkpt><trkpt lat="43.8562577" lon="11.3473968"><ele>522.25</ele><time>2026-03-29T10:28:42.15Z</time></trkpt><trkpt lat="43.856406" lon="11.3473529"><ele>520.5</ele><time>2026-03-29T10:28:43.15Z</time></trkpt><trkpt lat="43.8565495" lon="11.3473128"><ele>518.75</ele><time>2026-03-29T10:28:44.15Z</time></trkpt><trkpt lat="43.8566782" lon="11.3472554"><ele>517.0</ele><time>2026-03-29T10:28:45.15Z</time></trkpt><trkpt lat="43.8567944" lon="11.3472012"><ele>517.0</ele><time>2026-03-29T10:28:46.15Z</time></trkpt><trkpt lat="43.8568967" lon="11.347146"><ele>517.0</ele><time>2026-03-29T10:28:47.15Z</time></trkpt><trkpt lat="43.8569825" lon="11.3470987"><ele>517.0</ele><time>2026-03-29T10:28:48.15Z</time></trkpt><trkpt lat="43.8570596" lon="11.3470557"><ele>517.0</ele><time>2026-03-29T10:28:49.15Z</time></trkpt><trkpt lat="43.8571383" lon="11.3469893"><ele>517.0</ele><time>2026-03-29T10:28:50.15Z</time></trkpt><trkpt lat="43.857201" lon="11.3468922"><ele>517.0</ele><time>2026-03-29T10:28:51.149Z</time></trkpt><trkpt lat="43.8572519" lon="11.3467606"><ele>517.0</ele><time>2026-03-29T10:28:52.15Z</time></trkpt><trkpt lat="43.8572743" lon="11.3466179"><ele>517.0</ele><time>2026-03-29T10:28:53.15Z</time></trkpt><trkpt lat="43.8572614" lon="11.3464403"><ele>517.0</ele><time>2026-03-29T10:28:54.15Z</time></trkpt><trkpt lat="43.8572084" lon="11.34627"><ele>513.0</ele><time>2026-03-29T10:28:55.15Z</time></trkpt><trkpt lat="43.8571116" lon="11.3461081"><ele>509.0</ele><time>2026-03-29T10:28:56.15Z</time></trkpt><trkpt lat="43.8569854" lon="11.3459611"><ele>505.0</ele><time>2026-03-29T10:28:57.15Z</time></trkpt><trkpt lat="43.856847" lon="11.3458317"><ele>505.6666666666667</ele><time>2026-03-29T10:28:58.15Z</time></trkpt><trkpt lat="43.8567106" lon="11.3457073"><ele>506.33333333333337</ele><time>2026-03-29T10:28:59.15Z</time></trkpt><trkpt lat="43.8565772" lon="11.3455774"><ele>507.0</ele><time>2026-03-29T10:29:00.15Z</time></trkpt><trkpt lat="43.8564547" lon="11.3454277"><ele>504.66666666666663</ele><time>2026-03-29T10:29:01.15Z</time></trkpt><trkpt lat="43.8563489" lon="11.345253"><ele>502.3333333333333</ele><time>2026-03-29T10:29:02.15Z</time></trkpt><trkpt lat="43.8562481" lon="11.3450672"><ele>500.0</ele><time>2026-03-29T10:29:03.15Z</time></trkpt><trkpt lat="43.8561483" lon="11.3448702"><ele>500.3333333333333</ele><time>2026-03-29T10:29:04.15Z</time></trkpt><trkpt lat="43.8560577" lon="11.3446563"><ele>500.66666666666663</ele><time>2026-03-29T10:29:05.15Z</time></trkpt><trkpt lat="43.8559807" lon="11.3444347"><ele>501.0</ele><time>2026-03-29T10:29:06.15Z</time></trkpt><trkpt lat="43.8559025" lon="11.3441933"><ele>501.0</ele><time>2026-03-29T10:29:07.15Z</time></trkpt><trkpt lat="43.8558172" lon="11.3439353"><ele>501.0</ele><time>2026-03-29T10:29:08.15Z</time></trkpt><trkpt lat="43.8557444" lon="11.3436738"><ele>501.0</ele><time>2026-03-29T10:29:09.15Z</time></trkpt><trkpt lat="43.8556625" lon="11.3434118"><ele>495.66666666666663</ele><time>2026-03-29T10:29:10.15Z</time></trkpt><trkpt lat="43.8555701" lon="11.343167"><ele>490.3333333333333</ele><time>2026-03-29T10:29:11.15Z</time></trkpt><trkpt lat="43.8554579" lon="11.3429436"><ele>485.0</ele><time>2026-03-29T10:29:12.15Z</time></trkpt><trkpt lat="43.8553586" lon="11.3427126"><ele>481.66666666666663</ele><time>2026-03-29T10:29:13.149Z</time></trkpt><trkpt lat="43.8552851" lon="11.3424917"><ele>478.33333333333337</ele><time>2026-03-29T10:29:14.15Z</time></trkpt><trkpt lat="43.8552297" lon="11.3422764"><ele>475.0</ele><time>2026-03-29T10:29:15.15Z</time></trkpt><trkpt lat="43.8551995" lon="11.3420977"><ele>473.8</ele><time>2026-03-29T10:29:16.15Z</time></trkpt><trkpt lat="43.855167" lon="11.3419424"><ele>472.6</ele><time>2026-03-29T10:29:17.15Z</time></trkpt><trkpt lat="43.8551465" lon="11.3418018"><ele>471.4</ele><time>2026-03-29T10:29:18.15Z</time></trkpt><trkpt lat="43.8551433" lon="11.341688"><ele>470.2</ele><time>2026-03-29T10:29:19.149Z</time></trkpt><trkpt lat="43.8551426" lon="11.3415886"><ele>469.0</ele><time>2026-03-29T10:29:21.15Z</time></trkpt><trkpt lat="43.8552306" lon="11.3415188"><ele>469.0</ele><time>2026-03-29T10:29:24.15Z</time></trkpt><trkpt lat="43.8553135" lon="11.3415445"><ele>469.0</ele><time>2026-03-29T10:29:25.15Z</time></trkpt><trkpt lat="43.8554103" lon="11.341622"><ele>469.0</ele><time>2026-03-29T10:29:26.15Z</time></trkpt><trkpt lat="43.8555046" lon="11.3417172"><ele>469.0</ele><time>2026-03-29T10:29:27.15Z</time></trkpt><trkpt lat="43.8556046" lon="11.3418387"><ele>469.0</ele><time>2026-03-29T10:29:28.15Z</time></trkpt><trkpt lat="43.8556989" lon="11.3419888"><ele>469.0</ele><time>2026-03-29T10:29:29.15Z</time></trkpt><trkpt lat="43.8557874" lon="11.3421469"><ele>469.0</ele><time>2026-03-29T10:29:30.15Z</time></trkpt><trkpt lat="43.8558792" lon="11.3423059"><ele>469.0</ele><time>2026-03-29T10:29:31.15Z</time></trkpt><trkpt lat="43.8559656" lon="11.3424542"><ele>469.0</ele><time>2026-03-29T10:29:32.15Z</time></trkpt><trkpt lat="43.856078" lon="11.3425853"><ele>470.33333333333337</ele><time>2026-03-29T10:29:33.15Z</time></trkpt><trkpt lat="43.8562184" lon="11.3426863"><ele>471.66666666666663</ele><time>2026-03-29T10:29:34.15Z</time></trkpt><trkpt lat="43.8563704" lon="11.3427653"><ele>473.0</ele><time>2026-03-29T10:29:35.15Z</time></trkpt><trkpt lat="43.856535" lon="11.3427722"><ele>473.0</ele><time>2026-03-29T10:29:36.15Z</time></trkpt><trkpt lat="43.8567093" lon="11.3427592"><ele>473.0</ele><time>2026-03-29T10:29:37.15Z</time></trkpt><trkpt lat="43.856885" lon="11.3427243"><ele>473.0</ele><time>2026-03-29T10:29:38.15Z</time></trkpt><trkpt lat="43.8570387" lon="11.34267"><ele>473.66666666666663</ele><time>2026-03-29T10:29:39.15Z</time></trkpt><trkpt lat="43.8571855" lon="11.3426256"><ele>474.33333333333337</ele><time>2026-03-29T10:29:40.149Z</time></trkpt><trkpt lat="43.8573396" lon="11.342581"><ele>475.0</ele><time>2026-03-29T10:29:41.149Z</time></trkpt><trkpt lat="43.8574963" lon="11.3425502"><ele>474.33333333333337</ele><time>2026-03-29T10:29:42.15Z</time></trkpt><trkpt lat="43.8576561" lon="11.3425511"><ele>473.66666666666663</ele><time>2026-03-29T10:29:43.15Z</time></trkpt><trkpt lat="43.8578205" lon="11.3425939"><ele>473.0</ele><time>2026-03-29T10:29:44.15Z</time></trkpt><trkpt lat="43.8579904" lon="11.3427219"><ele>473.0</ele><time>2026-03-29T10:29:45.15Z</time></trkpt><trkpt lat="43.858141" lon="11.3428669"><ele>473.0</ele><time>2026-03-29T10:29:46.15Z</time></trkpt><trkpt lat="43.8582674" lon="11.34303"><ele>473.0</ele><time>2026-03-29T10:29:47.15Z</time></trkpt><trkpt lat="43.8583802" lon="11.3431838"><ele>476.25</ele><time>2026-03-29T10:29:48.15Z</time></trkpt><trkpt lat="43.8584906" lon="11.3432982"><ele>479.5</ele><time>2026-03-29T10:29:49.15Z</time></trkpt><trkpt lat="43.8586124" lon="11.3433585"><ele>482.75</ele><time>2026-03-29T10:29:50.15Z</time></trkpt><trkpt lat="43.8587305" lon="11.3433903"><ele>486.0</ele><time>2026-03-29T10:29:51.149Z</time></trkpt><trkpt lat="43.858856" lon="11.3433892"><ele>486.0</ele><time>2026-03-29T10:29:52.15Z</time></trkpt><trkpt lat="43.8589725" lon="11.3433405"><ele>486.0</ele><time>2026-03-29T10:29:53.15Z</time></trkpt><trkpt lat="43.8590685" lon="11.3432463"><ele>486.0</ele><time>2026-03-29T10:29:54.15Z</time></trkpt><trkpt lat="43.8591528" lon="11.3431452"><ele>486.0</ele><time>2026-03-29T10:29:55.15Z</time></trkpt><trkpt lat="43.8592407" lon="11.3430506"><ele>486.5</ele><time>2026-03-29T10:29:56.15Z</time></trkpt><trkpt lat="43.8593213" lon="11.3429508"><ele>487.0</ele><time>2026-03-29T10:29:57.15Z</time></trkpt><trkpt lat="43.859408" lon="11.3428486"><ele>487.5</ele><time>2026-03-29T10:29:58.15Z</time></trkpt><trkpt lat="43.8594966" lon="11.3427507"><ele>488.0</ele><time>2026-03-29T10:29:59.15Z</time></trkpt><trkpt lat="43.8595891" lon="11.3426486"><ele>488.0</ele><time>2026-03-29T10:30:00.15Z</time></trkpt><trkpt lat="43.8596806" lon="11.3425475"><ele>488.0</ele><time>2026-03-29T10:30:01.15Z</time></trkpt><trkpt lat="43.8597777" lon="11.3424433"><ele>488.0</ele><time>2026-03-29T10:30:02.15Z</time></trkpt><trkpt lat="43.8598804" lon="11.3423212"><ele>488.0</ele><time>2026-03-29T10:30:03.15Z</time></trkpt><trkpt lat="43.85998" lon="11.342205"><ele>488.75</ele><time>2026-03-29T10:30:04.15Z</time></trkpt><trkpt lat="43.8600892" lon="11.3420972"><ele>489.5</ele><time>2026-03-29T10:30:05.15Z</time></trkpt><trkpt lat="43.8602109" lon="11.3420031"><ele>490.25</ele><time>2026-03-29T10:30:06.15Z</time></trkpt><trkpt lat="43.8603398" lon="11.3419247"><ele>491.0</ele><time>2026-03-29T10:30:07.15Z</time></trkpt><trkpt lat="43.8604735" lon="11.3418379"><ele>491.0</ele><time>2026-03-29T10:30:08.15Z</time></trkpt><trkpt lat="43.8605952" lon="11.341758"><ele>491.0</ele><time>2026-03-29T10:30:09.15Z</time></trkpt><trkpt lat="43.8607058" lon="11.3416777"><ele>491.0</ele><time>2026-03-29T10:30:10.15Z</time></trkpt><trkpt lat="43.8608012" lon="11.341591"><ele>491.0</ele><time>2026-03-29T10:30:11.15Z</time></trkpt><trkpt lat="43.8608893" lon="11.3415027"><ele>491.0</ele><time>2026-03-29T10:30:12.15Z</time></trkpt><trkpt lat="43.8609841" lon="11.341412"><ele>491.0</ele><time>2026-03-29T10:30:13.15Z</time></trkpt><trkpt lat="43.86109" lon="11.3413381"><ele>491.0</ele><time>2026-03-29T10:30:14.15Z</time></trkpt><trkpt lat="43.8611997" lon="11.3412777"><ele>491.0</ele><time>2026-03-29T10:30:15.15Z</time></trkpt><trkpt lat="43.8613221" lon="11.3412426"><ele>491.0</ele><time>2026-03-29T10:30:16.15Z</time></trkpt><trkpt lat="43.8614508" lon="11.3412135"><ele>491.0</ele><time>2026-03-29T10:30:17.15Z</time></trkpt><trkpt lat="43.8615624" lon="11.3411904"><ele>491.0</ele><time>2026-03-29T10:30:18.15Z</time></trkpt><trkpt lat="43.8616535" lon="11.3411656"><ele>491.0</ele><time>2026-03-29T10:30:19.15Z</time></trkpt><trkpt lat="43.8617338" lon="11.341152"><ele>491.0</ele><time>2026-03-29T10:30:20.15Z</time></trkpt><trkpt lat="43.8618119" lon="11.3411336"><ele>491.66666666666663</ele><time>2026-03-29T10:30:21.15Z</time></trkpt><trkpt lat="43.8618849" lon="11.3411324"><ele>492.3333333333333</ele><time>2026-03-29T10:30:22.15Z</time></trkpt><trkpt lat="43.8619507" lon="11.3411076"><ele>493.0</ele><time>2026-03-29T10:30:23.15Z</time></trkpt><trkpt lat="43.8620038" lon="11.3410269"><ele>493.66666666666663</ele><time>2026-03-29T10:30:24.15Z</time></trkpt><trkpt lat="43.8620443" lon="11.3409119"><ele>494.3333333333333</ele><time>2026-03-29T10:30:25.15Z</time></trkpt><trkpt lat="43.8620647" lon="11.3407877"><ele>495.0</ele><time>2026-03-29T10:30:26.15Z</time></trkpt><trkpt lat="43.8620582" lon="11.3406698"><ele>495.0</ele><time>2026-03-29T10:30:27.15Z</time></trkpt><trkpt lat="43.8620367" lon="11.3405693"><ele>495.0</ele><time>2026-03-29T10:30:28.15Z</time></trkpt><trkpt lat="43.8619951" lon="11.3404869"><ele>495.0</ele><time>2026-03-29T10:30:29.15Z</time></trkpt><trkpt lat="43.8619495" lon="11.3404187"><ele>495.0</ele><time>2026-03-29T10:30:30.15Z</time></trkpt><trkpt lat="43.8618769" lon="11.3402801"><ele>495.0</ele><time>2026-03-29T10:30:32.15Z</time></trkpt><trkpt lat="43.8618169" lon="11.3401522"><ele>495.0</ele><time>2026-03-29T10:30:34.15Z</time></trkpt><trkpt lat="43.8617851" lon="11.3400595"><ele>493.8333333333333</ele><time>2026-03-29T10:30:36.15Z</time></trkpt><trkpt lat="43.8617619" lon="11.3399442"><ele>492.66666666666663</ele><time>2026-03-29T10:30:39.15Z</time></trkpt><trkpt lat="43.8617268" lon="11.3398551"><ele>491.5</ele><time>2026-03-29T10:30:41.15Z</time></trkpt><trkpt lat="43.8616967" lon="11.3397738"><ele>490.3333333333333</ele><time>2026-03-29T10:30:42.15Z</time></trkpt><trkpt lat="43.8616464" lon="11.3396419"><ele>489.16666666666663</ele><time>2026-03-29T10:30:44.15Z</time></trkpt><trkpt lat="43.8616212" lon="11.3395316"><ele>488.0</ele><time>2026-03-29T10:30:46.15Z</time></trkpt><trkpt lat="43.8616034" lon="11.339447"><ele>487.79999999999995</ele><time>2026-03-29T10:30:48.15Z</time></trkpt><trkpt lat="43.8615336" lon="11.3393458"><ele>487.59999999999997</ele><time>2026-03-29T10:30:51.15Z</time></trkpt><trkpt lat="43.8614777" lon="11.3392976"><ele>487.40000000000003</ele><time>2026-03-29T10:30:52.15Z</time></trkpt><trkpt lat="43.8613747" lon="11.3392564"><ele>487.20000000000005</ele><time>2026-03-29T10:30:53.15Z</time></trkpt><trkpt lat="43.861273" lon="11.3392098"><ele>487.0</ele><time>2026-03-29T10:30:54.15Z</time></trkpt><trkpt lat="43.861161" lon="11.3391383"><ele>487.0</ele><time>2026-03-29T10:30:55.15Z</time></trkpt><trkpt lat="43.8610277" lon="11.3390679"><ele>487.0</ele><time>2026-03-29T10:30:56.15Z</time></trkpt><trkpt lat="43.8609043" lon="11.3390095"><ele>487.0</ele><time>2026-03-29T10:30:57.15Z</time></trkpt><trkpt lat="43.8607908" lon="11.3389558"><ele>487.0</ele><time>2026-03-29T10:30:58.149Z</time></trkpt><trkpt lat="43.8606815" lon="11.3388892"><ele>484.8</ele><time>2026-03-29T10:30:59.15Z</time></trkpt><trkpt lat="43.8605822" lon="11.3388276"><ele>482.6</ele><time>2026-03-29T10:31:00.15Z</time></trkpt><trkpt lat="43.8604821" lon="11.3387584"><ele>480.40000000000003</ele><time>2026-03-29T10:31:01.15Z</time></trkpt><trkpt lat="43.860391" lon="11.3387015"><ele>478.20000000000005</ele><time>2026-03-29T10:31:02.15Z</time></trkpt><trkpt lat="43.8603039" lon="11.3386367"><ele>476.0</ele><time>2026-03-29T10:31:03.149Z</time></trkpt><trkpt lat="43.8602229" lon="11.3385877"><ele>476.0</ele><time>2026-03-29T10:31:04.15Z</time></trkpt><trkpt lat="43.8601426" lon="11.3385356"><ele>476.0</ele><time>2026-03-29T10:31:05.15Z</time></trkpt><trkpt lat="43.8600637" lon="11.3384736"><ele>476.0</ele><time>2026-03-29T10:31:06.15Z</time></trkpt><trkpt lat="43.8599855" lon="11.3384019"><ele>476.0</ele><time>2026-03-29T10:31:07.15Z</time></trkpt><trkpt lat="43.8599029" lon="11.338323"><ele>476.0</ele><time>2026-03-29T10:31:08.15Z</time></trkpt><trkpt lat="43.8598137" lon="11.3382426"><ele>474.0</ele><time>2026-03-29T10:31:09.15Z</time></trkpt><trkpt lat="43.8597321" lon="11.338155"><ele>472.0</ele><time>2026-03-29T10:31:10.15Z</time></trkpt><trkpt lat="43.8596485" lon="11.3380655"><ele>470.0</ele><time>2026-03-29T10:31:11.149Z</time></trkpt><trkpt lat="43.8595647" lon="11.3379943"><ele>468.0</ele><time>2026-03-29T10:31:12.15Z</time></trkpt><trkpt lat="43.859483" lon="11.3379358"><ele>466.0</ele><time>2026-03-29T10:31:13.15Z</time></trkpt><trkpt lat="43.859402" lon="11.3378755"><ele>465.00000000000006</ele><time>2026-03-29T10:31:14.15Z</time></trkpt><trkpt lat="43.8593201" lon="11.3378299"><ele>464.0</ele><time>2026-03-29T10:31:15.15Z</time></trkpt><trkpt lat="43.8592429" lon="11.3377801"><ele>463.0</ele><time>2026-03-29T10:31:16.15Z</time></trkpt><trkpt lat="43.8591681" lon="11.33773"><ele>462.0</ele><time>2026-03-29T10:31:17.15Z</time></trkpt><trkpt lat="43.8590853" lon="11.3376781"><ele>461.00000000000006</ele><time>2026-03-29T10:31:18.15Z</time></trkpt><trkpt lat="43.858999" lon="11.3376233"><ele>460.0</ele><time>2026-03-29T10:31:19.15Z</time></trkpt><trkpt lat="43.85891" lon="11.3375634"><ele>458.6</ele><time>2026-03-29T10:31:20.15Z</time></trkpt><trkpt lat="43.8588181" lon="11.3375103"><ele>457.2</ele><time>2026-03-29T10:31:21.15Z</time></trkpt><trkpt lat="43.8587365" lon="11.337444"><ele>455.79999999999995</ele><time>2026-03-29T10:31:22.15Z</time></trkpt><trkpt lat="43.8586584" lon="11.3373766"><ele>454.4</ele><time>2026-03-29T10:31:23.15Z</time></trkpt><trkpt lat="43.8585742" lon="11.3373027"><ele>453.0</ele><time>2026-03-29T10:31:24.15Z</time></trkpt><trkpt lat="43.8585029" lon="11.3372215"><ele>449.79999999999995</ele><time>2026-03-29T10:31:25.149Z</time></trkpt><trkpt lat="43.8584349" lon="11.3371379"><ele>446.59999999999997</ele><time>2026-03-29T10:31:26.15Z</time></trkpt><trkpt lat="43.8583804" lon="11.3370393"><ele>443.40000000000003</ele><time>2026-03-29T10:31:27.15Z</time></trkpt><trkpt lat="43.8583271" lon="11.3369422"><ele>440.20000000000005</ele><time>2026-03-29T10:31:28.15Z</time></trkpt><trkpt lat="43.858279" lon="11.3368579"><ele>437.0</ele><time>2026-03-29T10:31:29.15Z</time></trkpt><trkpt lat="43.8582141" lon="11.33674"><ele>437.0</ele><time>2026-03-29T10:31:31.15Z</time></trkpt><trkpt lat="43.8581827" lon="11.3366441"><ele>437.00000000000006</ele><time>2026-03-29T10:31:33.15Z</time></trkpt><trkpt lat="43.8581682" lon="11.3365537"><ele>437.00000000000006</ele><time>2026-03-29T10:31:35.15Z</time></trkpt><trkpt lat="43.8581677" lon="11.3364317"><ele>437.0</ele><time>2026-03-29T10:31:36.15Z</time></trkpt><trkpt lat="43.8581734" lon="11.3362855"><ele>437.0</ele><time>2026-03-29T10:31:37.15Z</time></trkpt><trkpt lat="43.8582089" lon="11.3361263"><ele>435.0</ele><time>2026-03-29T10:31:38.15Z</time></trkpt><trkpt lat="43.8582723" lon="11.335979"><ele>433.0</ele><time>2026-03-29T10:31:39.15Z</time></trkpt><trkpt lat="43.8583491" lon="11.3358355"><ele>431.0</ele><time>2026-03-29T10:31:40.15Z</time></trkpt><trkpt lat="43.8584368" lon="11.3356728"><ele>429.0</ele><time>2026-03-29T10:31:41.15Z</time></trkpt><trkpt lat="43.8585331" lon="11.335532"><ele>429.0</ele><time>2026-03-29T10:31:42.15Z</time></trkpt><trkpt lat="43.858622" lon="11.3353859"><ele>429.0</ele><time>2026-03-29T10:31:43.15Z</time></trkpt><trkpt lat="43.8587054" lon="11.3352442"><ele>429.0</ele><time>2026-03-29T10:31:44.15Z</time></trkpt><trkpt lat="43.8587647" lon="11.3350965"><ele>429.0</ele><time>2026-03-29T10:31:45.15Z</time></trkpt><trkpt lat="43.8587776" lon="11.3349271"><ele>429.0</ele><time>2026-03-29T10:31:46.15Z</time></trkpt><trkpt lat="43.8587407" lon="11.3347571"><ele>429.0</ele><time>2026-03-29T10:31:47.15Z</time></trkpt><trkpt lat="43.8586702" lon="11.3346358"><ele>429.0</ele><time>2026-03-29T10:31:48.15Z</time></trkpt><trkpt lat="43.8585983" lon="11.3345337"><ele>429.0</ele><time>2026-03-29T10:31:49.15Z</time></trkpt><trkpt lat="43.8585321" lon="11.3344832"><ele>429.0</ele><time>2026-03-29T10:31:50.15Z</time></trkpt><trkpt lat="43.8584466" lon="11.3344499"><ele>427.0</ele><time>2026-03-29T10:31:52.15Z</time></trkpt><trkpt lat="43.8584462" lon="11.3343597"><ele>425.0</ele><time>2026-03-29T10:31:54.15Z</time></trkpt><trkpt lat="43.8585584" lon="11.334235"><ele>423.0</ele><time>2026-03-29T10:31:56.15Z</time></trkpt><trkpt lat="43.8586424" lon="11.3341605"><ele>421.0</ele><time>2026-03-29T10:31:57.15Z</time></trkpt><trkpt lat="43.8587365" lon="11.334095"><ele>419.0</ele><time>2026-03-29T10:31:58.15Z</time></trkpt><trkpt lat="43.8588244" lon="11.3340313"><ele>419.0</ele><time>2026-03-29T10:31:59.15Z</time></trkpt><trkpt lat="43.8589046" lon="11.3339702"><ele>419.0</ele><time>2026-03-29T10:32:00.149Z</time></trkpt><trkpt lat="43.8589718" lon="11.333899"><ele>419.0</ele><time>2026-03-29T10:32:01.15Z</time></trkpt><trkpt lat="43.8590396" lon="11.333827"><ele>419.0</ele><time>2026-03-29T10:32:02.15Z</time></trkpt><trkpt lat="43.859107" lon="11.3337345"><ele>419.0</ele><time>2026-03-29T10:32:03.15Z</time></trkpt><trkpt lat="43.8591791" lon="11.3336384"><ele>418.0</ele><time>2026-03-29T10:32:04.15Z</time></trkpt><trkpt lat="43.8592548" lon="11.3335401"><ele>417.0</ele><time>2026-03-29T10:32:05.15Z</time></trkpt><trkpt lat="43.8593345" lon="11.3334494"><ele>416.0</ele><time>2026-03-29T10:32:06.15Z</time></trkpt><trkpt lat="43.8594126" lon="11.3333551"><ele>415.0</ele><time>2026-03-29T10:32:07.15Z</time></trkpt><trkpt lat="43.8594877" lon="11.3332611"><ele>414.0</ele><time>2026-03-29T10:32:08.15Z</time></trkpt><trkpt lat="43.8595529" lon="11.3331765"><ele>414.0</ele><time>2026-03-29T10:32:09.15Z</time></trkpt><trkpt lat="43.8596194" lon="11.3330935"><ele>414.0</ele><time>2026-03-29T10:32:10.15Z</time></trkpt><trkpt lat="43.8596838" lon="11.3330212"><ele>414.0</ele><time>2026-03-29T10:32:11.15Z</time></trkpt><trkpt lat="43.8597388" lon="11.3329633"><ele>414.0</ele><time>2026-03-29T10:32:12.15Z</time></trkpt><trkpt lat="43.859845" lon="11.3328741"><ele>414.0</ele><time>2026-03-29T10:32:14.149Z</time></trkpt><trkpt lat="43.859947" lon="11.3328861"><ele>415.25</ele><time>2026-03-29T10:32:16.15Z</time></trkpt><trkpt lat="43.8600831" lon="11.3328838"><ele>416.5</ele><time>2026-03-29T10:32:18.15Z</time></trkpt><trkpt lat="43.860165" lon="11.3328109"><ele>417.75</ele><time>2026-03-29T10:32:19.149Z</time></trkpt><trkpt lat="43.8602553" lon="11.3327332"><ele>419.0</ele><time>2026-03-29T10:32:20.15Z</time></trkpt><trkpt lat="43.8603493" lon="11.3326409"><ele>419.0</ele><time>2026-03-29T10:32:21.15Z</time></trkpt><trkpt lat="43.8604303" lon="11.3325591"><ele>419.0</ele><time>2026-03-29T10:32:22.15Z</time></trkpt><trkpt lat="43.8605134" lon="11.3324863"><ele>419.0</ele><time>2026-03-29T10:32:23.15Z</time></trkpt><trkpt lat="43.8606022" lon="11.3324125"><ele>419.0</ele><time>2026-03-29T10:32:24.15Z</time></trkpt><trkpt lat="43.8606852" lon="11.3323497"><ele>419.0</ele><time>2026-03-29T10:32:25.15Z</time></trkpt><trkpt lat="43.8607522" lon="11.332302"><ele>419.49999999999994</ele><time>2026-03-29T10:32:26.149Z</time></trkpt><trkpt lat="43.8607943" lon="11.3321651"><ele>420.0</ele><time>2026-03-29T10:32:28.15Z</time></trkpt><trkpt lat="43.8608002" lon="11.3320542"><ele>420.5</ele><time>2026-03-29T10:32:29.15Z</time></trkpt><trkpt lat="43.8608165" lon="11.3319399"><ele>421.0</ele><time>2026-03-29T10:32:30.15Z</time></trkpt><trkpt lat="43.8608217" lon="11.3318277"><ele>421.49999999999994</ele><time>2026-03-29T10:32:31.15Z</time></trkpt><trkpt lat="43.8608091" lon="11.3317349"><ele>422.0</ele><time>2026-03-29T10:32:32.15Z</time></trkpt><trkpt lat="43.8608456" lon="11.3316267"><ele>425.8</ele><time>2026-03-29T10:32:34.15Z</time></trkpt><trkpt lat="43.8609833" lon="11.3316158"><ele>429.6</ele><time>2026-03-29T10:32:36.15Z</time></trkpt><trkpt lat="43.8610746" lon="11.3316229"><ele>433.40000000000003</ele><time>2026-03-29T10:32:37.15Z</time></trkpt><trkpt lat="43.861175" lon="11.3316164"><ele>437.20000000000005</ele><time>2026-03-29T10:32:38.15Z</time></trkpt><trkpt lat="43.8612706" lon="11.3316196"><ele>441.0</ele><time>2026-03-29T10:32:39.15Z</time></trkpt><trkpt lat="43.8613612" lon="11.331622"><ele>441.0</ele><time>2026-03-29T10:32:40.15Z</time></trkpt><trkpt lat="43.8614432" lon="11.3316134"><ele>441.0</ele><time>2026-03-29T10:32:41.15Z</time></trkpt><trkpt lat="43.8615112" lon="11.3315956"><ele>441.0</ele><time>2026-03-29T10:32:42.15Z</time></trkpt><trkpt lat="43.861563" lon="11.331474"><ele>441.0</ele><time>2026-03-29T10:32:44.15Z</time></trkpt><trkpt lat="43.8615596" lon="11.3313835"><ele>441.0</ele><time>2026-03-29T10:32:45.15Z</time></trkpt><trkpt lat="43.8615526" lon="11.3312863"><ele>441.0</ele><time>2026-03-29T10:32:46.15Z</time></trkpt><trkpt lat="43.8615369" lon="11.3311922"><ele>441.4</ele><time>2026-03-29T10:32:47.15Z</time></trkpt><trkpt lat="43.8615144" lon="11.3310333"><ele>441.8</ele><time>2026-03-29T10:32:49.15Z</time></trkpt><trkpt lat="43.861523" lon="11.3308968"><ele>442.19999999999993</ele><time>2026-03-29T10:32:51.15Z</time></trkpt><trkpt lat="43.8615477" lon="11.3307542"><ele>442.59999999999997</ele><time>2026-03-29T10:32:53.15Z</time></trkpt><trkpt lat="43.8615631" lon="11.3306057"><ele>443.0</ele><time>2026-03-29T10:32:55.15Z</time></trkpt><trkpt lat="43.8616257" lon="11.3305303"><ele>443.0</ele><time>2026-03-29T10:32:58.15Z</time></trkpt><trkpt lat="43.8616966" lon="11.3305838"><ele>442.99999999999994</ele><time>2026-03-29T10:33:00.15Z</time></trkpt><trkpt lat="43.861766" lon="11.3306504"><ele>442.99999999999994</ele><time>2026-03-29T10:33:01.15Z</time></trkpt><trkpt lat="43.8618506" lon="11.3307314"><ele>443.0</ele><time>2026-03-29T10:33:02.15Z</time></trkpt><trkpt lat="43.8619303" lon="11.3308086"><ele>443.0</ele><time>2026-03-29T10:33:03.15Z</time></trkpt><trkpt lat="43.8620128" lon="11.3308997"><ele>444.59999999999997</ele><time>2026-03-29T10:33:04.15Z</time></trkpt><trkpt lat="43.8620981" lon="11.3309906"><ele>446.19999999999993</ele><time>2026-03-29T10:33:05.15Z</time></trkpt><trkpt lat="43.8621884" lon="11.331078"><ele>447.8</ele><time>2026-03-29T10:33:06.15Z</time></trkpt><trkpt lat="43.8622759" lon="11.3311696"><ele>449.4</ele><time>2026-03-29T10:33:07.15Z</time></trkpt><trkpt lat="43.8623599" lon="11.3312563"><ele>451.0</ele><time>2026-03-29T10:33:08.15Z</time></trkpt><trkpt lat="43.8624391" lon="11.3313418"><ele>452.50000000000006</ele><time>2026-03-29T10:33:09.15Z</time></trkpt><trkpt lat="43.8625259" lon="11.3314172"><ele>454.0</ele><time>2026-03-29T10:33:10.15Z</time></trkpt><trkpt lat="43.8626052" lon="11.3314746"><ele>455.5</ele><time>2026-03-29T10:33:11.15Z</time></trkpt><trkpt lat="43.8626817" lon="11.3315174"><ele>457.0</ele><time>2026-03-29T10:33:12.15Z</time></trkpt><trkpt lat="43.8627549" lon="11.3315396"><ele>458.50000000000006</ele><time>2026-03-29T10:33:13.151Z</time></trkpt><trkpt lat="43.8628425" lon="11.3315332"><ele>460.0</ele><time>2026-03-29T10:33:14.151Z</time></trkpt><trkpt lat="43.8629273" lon="11.3315077"><ele>463.8</ele><time>2026-03-29T10:33:15.15Z</time></trkpt><trkpt lat="43.8630172" lon="11.3314704"><ele>467.6</ele><time>2026-03-29T10:33:16.15Z</time></trkpt><trkpt lat="43.8631156" lon="11.331462"><ele>471.4</ele><time>2026-03-29T10:33:17.151Z</time></trkpt><trkpt lat="43.863219" lon="11.3314873"><ele>475.2</ele><time>2026-03-29T10:33:18.151Z</time></trkpt><trkpt lat="43.8633297" lon="11.3315281"><ele>479.0</ele><time>2026-03-29T10:33:19.151Z</time></trkpt><trkpt lat="43.8634321" lon="11.3315717"><ele>481.25</ele><time>2026-03-29T10:33:20.151Z</time></trkpt><trkpt lat="43.8635358" lon="11.331646"><ele>483.5</ele><time>2026-03-29T10:33:21.151Z</time></trkpt><trkpt lat="43.8636419" lon="11.3317305"><ele>485.75</ele><time>2026-03-29T10:33:22.151Z</time></trkpt><trkpt lat="43.8637441" lon="11.3318319"><ele>488.0</ele><time>2026-03-29T10:33:23.151Z</time></trkpt><trkpt lat="43.8638585" lon="11.33194"><ele>488.0</ele><time>2026-03-29T10:33:24.151Z</time></trkpt><trkpt lat="43.8639657" lon="11.3320505"><ele>488.0</ele><time>2026-03-29T10:33:25.151Z</time></trkpt><trkpt lat="43.8640659" lon="11.3321601"><ele>488.0</ele><time>2026-03-29T10:33:26.151Z</time></trkpt><trkpt lat="43.8641492" lon="11.3322458"><ele>488.0</ele><time>2026-03-29T10:33:27.151Z</time></trkpt><trkpt lat="43.864219" lon="11.3323298"><ele>489.3333333333333</ele><time>2026-03-29T10:33:28.151Z</time></trkpt><trkpt lat="43.8642932" lon="11.3324222"><ele>490.66666666666663</ele><time>2026-03-29T10:33:29.151Z</time></trkpt><trkpt lat="43.8643595" lon="11.3325211"><ele>492.0</ele><time>2026-03-29T10:33:30.151Z</time></trkpt><trkpt lat="43.8644356" lon="11.3325686"><ele>493.33333333333337</ele><time>2026-03-29T10:33:31.151Z</time></trkpt><trkpt lat="43.8645064" lon="11.3325909"><ele>494.6666666666667</ele><time>2026-03-29T10:33:32.151Z</time></trkpt><trkpt lat="43.8645724" lon="11.3326378"><ele>496.0</ele><time>2026-03-29T10:33:33.151Z</time></trkpt><trkpt lat="43.8646323" lon="11.3327216"><ele>496.0</ele><time>2026-03-29T10:33:34.15Z</time></trkpt><trkpt lat="43.8647057" lon="11.3328479"><ele>496.0</ele><time>2026-03-29T10:33:35.151Z</time></trkpt><trkpt lat="43.8647749" lon="11.3329846"><ele>496.0</ele><time>2026-03-29T10:33:36.151Z</time></trkpt><trkpt lat="43.8648272" lon="11.333088"><ele>496.0</ele><time>2026-03-29T10:33:37.151Z</time></trkpt><trkpt lat="43.8648776" lon="11.3331709"><ele>496.0</ele><time>2026-03-29T10:33:39.151Z</time></trkpt><trkpt lat="43.8650384" lon="11.3331823"><ele>501.25</ele><time>2026-03-29T10:33:42.151Z</time></trkpt><trkpt lat="43.8651543" lon="11.3331676"><ele>506.5</ele><time>2026-03-29T10:33:43.151Z</time></trkpt><trkpt lat="43.8652848" lon="11.3331548"><ele>511.75</ele><time>2026-03-29T10:33:44.151Z</time></trkpt><trkpt lat="43.8654305" lon="11.3331385"><ele>517.0</ele><time>2026-03-29T10:33:45.151Z</time></trkpt><trkpt lat="43.8656014" lon="11.3331502"><ele>517.0</ele><time>2026-03-29T10:33:46.151Z</time></trkpt><trkpt lat="43.865768" lon="11.3331705"><ele>517.0</ele><time>2026-03-29T10:33:47.151Z</time></trkpt><trkpt lat="43.8659319" lon="11.3332201"><ele>517.0</ele><time>2026-03-29T10:33:48.15Z</time></trkpt><trkpt lat="43.8661102" lon="11.3333009"><ele>516.0</ele><time>2026-03-29T10:33:49.151Z</time></trkpt><trkpt lat="43.8662916" lon="11.3334009"><ele>515.0</ele><time>2026-03-29T10:33:50.151Z</time></trkpt><trkpt lat="43.8664752" lon="11.3335002"><ele>514.0</ele><time>2026-03-29T10:33:51.151Z</time></trkpt><trkpt lat="43.8666641" lon="11.3335962"><ele>511.6666666666667</ele><time>2026-03-29T10:33:52.151Z</time></trkpt><trkpt lat="43.8668576" lon="11.3336935"><ele>509.33333333333337</ele><time>2026-03-29T10:33:53.151Z</time></trkpt><trkpt lat="43.8670599" lon="11.3337803"><ele>507.0</ele><time>2026-03-29T10:33:54.151Z</time></trkpt><trkpt lat="43.8672646" lon="11.3338432"><ele>511.0</ele><time>2026-03-29T10:33:55.151Z</time></trkpt><trkpt lat="43.867469" lon="11.3338916"><ele>515.0</ele><time>2026-03-29T10:33:56.151Z</time></trkpt><trkpt lat="43.8676693" lon="11.3339345"><ele>519.0</ele><time>2026-03-29T10:33:57.151Z</time></trkpt><trkpt lat="43.8678581" lon="11.3339706"><ele>520.3333333333334</ele><time>2026-03-29T10:33:58.151Z</time></trkpt><trkpt lat="43.8680426" lon="11.3339846"><ele>521.6666666666667</ele><time>2026-03-29T10:33:59.151Z</time></trkpt><trkpt lat="43.8682173" lon="11.3339993"><ele>523.0</ele><time>2026-03-29T10:34:00.151Z</time></trkpt><trkpt lat="43.8683766" lon="11.3340056"><ele>522.6666666666667</ele><time>2026-03-29T10:34:01.151Z</time></trkpt><trkpt lat="43.8685359" lon="11.3339696"><ele>522.3333333333334</ele><time>2026-03-29T10:34:02.151Z</time></trkpt><trkpt lat="43.868681" lon="11.3338654"><ele>522.0</ele><time>2026-03-29T10:34:03.151Z</time></trkpt><trkpt lat="43.8688103" lon="11.3337197"><ele>522.0</ele><time>2026-03-29T10:34:04.151Z</time></trkpt><trkpt lat="43.8689405" lon="11.3335716"><ele>522.0</ele><time>2026-03-29T10:34:05.15Z</time></trkpt><trkpt lat="43.8690702" lon="11.3335087"><ele>522.0</ele><time>2026-03-29T10:34:06.151Z</time></trkpt><trkpt lat="43.8691873" lon="11.3335091"><ele>522.0</ele><time>2026-03-29T10:34:07.151Z</time></trkpt><trkpt lat="43.8692805" lon="11.3335992"><ele>523.0</ele><time>2026-03-29T10:34:08.151Z</time></trkpt><trkpt lat="43.8693834" lon="11.3337131"><ele>524.0</ele><time>2026-03-29T10:34:09.151Z</time></trkpt><trkpt lat="43.8695094" lon="11.3338354"><ele>525.0</ele><time>2026-03-29T10:34:10.151Z</time></trkpt><trkpt lat="43.8696384" lon="11.3339389"><ele>526.0</ele><time>2026-03-29T10:34:11.151Z</time></trkpt><trkpt lat="43.8698005" lon="11.3340063"><ele>529.6666666666667</ele><time>2026-03-29T10:34:12.151Z</time></trkpt><trkpt lat="43.8699678" lon="11.334063"><ele>533.3333333333334</ele><time>2026-03-29T10:34:13.151Z</time></trkpt><trkpt lat="43.8701433" lon="11.3341106"><ele>537.0</ele><time>2026-03-29T10:34:14.151Z</time></trkpt><trkpt lat="43.8703056" lon="11.3341513"><ele>537.75</ele><time>2026-03-29T10:34:15.151Z</time></trkpt><trkpt lat="43.870437" lon="11.3341716"><ele>538.5</ele><time>2026-03-29T10:34:16.151Z</time></trkpt><trkpt lat="43.8705641" lon="11.3341076"><ele>539.25</ele><time>2026-03-29T10:34:17.151Z</time></trkpt><trkpt lat="43.8706914" lon="11.3339681"><ele>540.0</ele><time>2026-03-29T10:34:18.151Z</time></trkpt><trkpt lat="43.8707937" lon="11.3337796"><ele>540.0</ele><time>2026-03-29T10:34:19.151Z</time></trkpt><trkpt lat="43.8708618" lon="11.3335533"><ele>540.0</ele><time>2026-03-29T10:34:20.151Z</time></trkpt><trkpt lat="43.8709106" lon="11.3333304"><ele>540.0</ele><time>2026-03-29T10:34:21.151Z</time></trkpt><trkpt lat="43.8709533" lon="11.3331195"><ele>539.4</ele><time>2026-03-29T10:34:22.151Z</time></trkpt><trkpt lat="43.8710087" lon="11.333001"><ele>538.8</ele><time>2026-03-29T10:34:23.151Z</time></trkpt><trkpt lat="43.871093" lon="11.3329917"><ele>538.2</ele><time>2026-03-29T10:34:24.151Z</time></trkpt><trkpt lat="43.8712011" lon="11.3330397"><ele>537.6</ele><time>2026-03-29T10:34:25.151Z</time></trkpt><trkpt lat="43.8713192" lon="11.3330931"><ele>537.0</ele><time>2026-03-29T10:34:26.151Z</time></trkpt><trkpt lat="43.8714492" lon="11.3331354"><ele>541.3333333333334</ele><time>2026-03-29T10:34:27.151Z</time></trkpt><trkpt lat="43.8715991" lon="11.3331745"><ele>545.6666666666667</ele><time>2026-03-29T10:34:28.151Z</time></trkpt><trkpt lat="43.8717509" lon="11.3332128"><ele>550.0</ele><time>2026-03-29T10:34:29.151Z</time></trkpt><trkpt lat="43.8719119" lon="11.3332686"><ele>550.75</ele><time>2026-03-29T10:34:30.151Z</time></trkpt><trkpt lat="43.8720524" lon="11.3333458"><ele>551.5</ele><time>2026-03-29T10:34:31.151Z</time></trkpt><trkpt lat="43.8721732" lon="11.3334353"><ele>552.25</ele><time>2026-03-29T10:34:32.151Z</time></trkpt><trkpt lat="43.8723114" lon="11.3334765"><ele>553.0</ele><time>2026-03-29T10:34:33.151Z</time></trkpt><trkpt lat="43.8724638" lon="11.3334643"><ele>555.6666666666667</ele><time>2026-03-29T10:34:34.15Z</time></trkpt><trkpt lat="43.8726238" lon="11.3334046"><ele>558.3333333333334</ele><time>2026-03-29T10:34:35.151Z</time></trkpt><trkpt lat="43.8727708" lon="11.333322"><ele>561.0</ele><time>2026-03-29T10:34:36.151Z</time></trkpt><trkpt lat="43.8729014" lon="11.3331833"><ele>559.6666666666666</ele><time>2026-03-29T10:34:37.15Z</time></trkpt><trkpt lat="43.8730118" lon="11.332961"><ele>558.3333333333333</ele><time>2026-03-29T10:34:38.151Z</time></trkpt><trkpt lat="43.8730888" lon="11.3327131"><ele>557.0</ele><time>2026-03-29T10:34:39.151Z</time></trkpt><trkpt lat="43.8731441" lon="11.3324513"><ele>557.0</ele><time>2026-03-29T10:34:40.151Z</time></trkpt><trkpt lat="43.8732032" lon="11.3321858"><ele>557.0</ele><time>2026-03-29T10:34:41.151Z</time></trkpt><trkpt lat="43.8732599" lon="11.3319443"><ele>557.0</ele><time>2026-03-29T10:34:42.151Z</time></trkpt><trkpt lat="43.8733168" lon="11.3317183"><ele>557.0</ele><time>2026-03-29T10:34:43.151Z</time></trkpt><trkpt lat="43.8733744" lon="11.3315247"><ele>557.0</ele><time>2026-03-29T10:34:44.151Z</time></trkpt><trkpt lat="43.8734254" lon="11.3313495"><ele>557.0</ele><time>2026-03-29T10:34:45.151Z</time></trkpt><trkpt lat="43.8734674" lon="11.3312123"><ele>557.0</ele><time>2026-03-29T10:34:46.151Z</time></trkpt><trkpt lat="43.8735007" lon="11.3310994"><ele>559.0</ele><time>2026-03-29T10:34:47.151Z</time></trkpt><trkpt lat="43.8735527" lon="11.3309785"><ele>561.0</ele><time>2026-03-29T10:34:49.151Z</time></trkpt><trkpt lat="43.8736174" lon="11.3310187"><ele>563.0</ele><time>2026-03-29T10:34:51.151Z</time></trkpt><trkpt lat="43.8736387" lon="11.3311829"><ele>565.0</ele><time>2026-03-29T10:34:53.151Z</time></trkpt><trkpt lat="43.8736556" lon="11.3313091"><ele>567.0</ele><time>2026-03-29T10:34:54.15Z</time></trkpt><trkpt lat="43.8736808" lon="11.3314365"><ele>567.2</ele><time>2026-03-29T10:34:55.151Z</time></trkpt><trkpt lat="43.8737061" lon="11.3315755"><ele>567.4000000000001</ele><time>2026-03-29T10:34:56.151Z</time></trkpt><trkpt lat="43.8737188" lon="11.3317282"><ele>567.5999999999999</ele><time>2026-03-29T10:34:57.151Z</time></trkpt><trkpt lat="43.8737318" lon="11.3318903"><ele>567.8</ele><time>2026-03-29T10:34:58.151Z</time></trkpt><trkpt lat="43.8737475" lon="11.3320411"><ele>568.0</ele><time>2026-03-29T10:34:59.151Z</time></trkpt><trkpt lat="43.8737559" lon="11.332181"><ele>568.0</ele><time>2026-03-29T10:35:00.151Z</time></trkpt><trkpt lat="43.8737717" lon="11.3323105"><ele>568.0</ele><time>2026-03-29T10:35:01.151Z</time></trkpt><trkpt lat="43.8738065" lon="11.3324244"><ele>568.0</ele><time>2026-03-29T10:35:02.151Z</time></trkpt><trkpt lat="43.8738736" lon="11.332524"><ele>568.0</ele><time>2026-03-29T10:35:03.151Z</time></trkpt><trkpt lat="43.8739659" lon="11.3326394"><ele>568.0</ele><time>2026-03-29T10:35:04.151Z</time></trkpt><trkpt lat="43.8740758" lon="11.3327739"><ele>568.0</ele><time>2026-03-29T10:35:05.151Z</time></trkpt><trkpt lat="43.8741813" lon="11.332915"><ele>568.0</ele><time>2026-03-29T10:35:06.151Z</time></trkpt><trkpt lat="43.8742916" lon="11.3330571"><ele>568.0</ele><time>2026-03-29T10:35:07.151Z</time></trkpt><trkpt lat="43.8743949" lon="11.3331934"><ele>568.0</ele><time>2026-03-29T10:35:08.151Z</time></trkpt><trkpt lat="43.8745042" lon="11.3333279"><ele>571.25</ele><time>2026-03-29T10:35:09.151Z</time></trkpt><trkpt lat="43.8746126" lon="11.3334648"><ele>574.5</ele><time>2026-03-29T10:35:10.151Z</time></trkpt><trkpt lat="43.8747193" lon="11.3336014"><ele>577.75</ele><time>2026-03-29T10:35:11.151Z</time></trkpt><trkpt lat="43.8748131" lon="11.3337212"><ele>581.0</ele><time>2026-03-29T10:35:12.151Z</time></trkpt><trkpt lat="43.8749021" lon="11.3338435"><ele>581.1666666666666</ele><time>2026-03-29T10:35:13.151Z</time></trkpt><trkpt lat="43.87497" lon="11.3339677"><ele>581.3333333333333</ele><time>2026-03-29T10:35:14.151Z</time></trkpt><trkpt lat="43.8750144" lon="11.3340724"><ele>581.5</ele><time>2026-03-29T10:35:15.151Z</time></trkpt><trkpt lat="43.8750464" lon="11.3341653"><ele>581.6666666666666</ele><time>2026-03-29T10:35:16.151Z</time></trkpt><trkpt lat="43.8750779" lon="11.334241"><ele>581.8333333333334</ele><time>2026-03-29T10:35:17.151Z</time></trkpt><trkpt lat="43.8751216" lon="11.3343124"><ele>582.0</ele><time>2026-03-29T10:35:19.151Z</time></trkpt><trkpt lat="43.8751728" lon="11.3342406"><ele>582.6</ele><time>2026-03-29T10:35:32.151Z</time></trkpt><trkpt lat="43.8752265" lon="11.3341183"><ele>583.2</ele><time>2026-03-29T10:35:34.151Z</time></trkpt><trkpt lat="43.8752906" lon="11.3340275"><ele>583.8</ele><time>2026-03-29T10:35:35.151Z</time></trkpt><trkpt lat="43.8753594" lon="11.3339396"><ele>584.4</ele><time>2026-03-29T10:35:36.151Z</time></trkpt><trkpt lat="43.8754221" lon="11.3338519"><ele>585.0</ele><time>2026-03-29T10:35:37.151Z</time></trkpt><trkpt lat="43.8754887" lon="11.3337737"><ele>585.8</ele><time>2026-03-29T10:35:38.151Z</time></trkpt><trkpt lat="43.8755606" lon="11.3336962"><ele>586.6</ele><time>2026-03-29T10:35:39.151Z</time></trkpt><trkpt lat="43.8756329" lon="11.3336156"><ele>587.4</ele><time>2026-03-29T10:35:40.151Z</time></trkpt><trkpt lat="43.8757066" lon="11.3335332"><ele>588.2</ele><time>2026-03-29T10:35:41.151Z</time></trkpt><trkpt lat="43.8757869" lon="11.3334582"><ele>589.0</ele><time>2026-03-29T10:35:42.151Z</time></trkpt><trkpt lat="43.8758579" lon="11.3333955"><ele>589.0</ele><time>2026-03-29T10:35:43.151Z</time></trkpt><trkpt lat="43.8759268" lon="11.3333489"><ele>589.0</ele><time>2026-03-29T10:35:44.151Z</time></trkpt><trkpt lat="43.8760004" lon="11.3332973"><ele>589.0</ele><time>2026-03-29T10:35:45.151Z</time></trkpt><trkpt lat="43.8760763" lon="11.3332387"><ele>589.0</ele><time>2026-03-29T10:35:46.151Z</time></trkpt><trkpt lat="43.876154" lon="11.3331796"><ele>589.0</ele><time>2026-03-29T10:35:47.151Z</time></trkpt><trkpt lat="43.8762315" lon="11.333124"><ele>589.0</ele><time>2026-03-29T10:35:48.15Z</time></trkpt><trkpt lat="43.8763118" lon="11.3330641"><ele>591.2</ele><time>2026-03-29T10:35:49.151Z</time></trkpt><trkpt lat="43.8763935" lon="11.333002"><ele>593.4</ele><time>2026-03-29T10:35:50.15Z</time></trkpt><trkpt lat="43.8764762" lon="11.3329422"><ele>595.6</ele><time>2026-03-29T10:35:51.151Z</time></trkpt><trkpt lat="43.8765562" lon="11.3328824"><ele>597.8</ele><time>2026-03-29T10:35:52.151Z</time></trkpt><trkpt lat="43.8766407" lon="11.3328244"><ele>600.0</ele><time>2026-03-29T10:35:53.151Z</time></trkpt><trkpt lat="43.8767286" lon="11.3327819"><ele>601.0</ele><time>2026-03-29T10:35:54.151Z</time></trkpt><trkpt lat="43.8768162" lon="11.3327383"><ele>602.0</ele><time>2026-03-29T10:35:55.151Z</time></trkpt><trkpt lat="43.8768962" lon="11.3326997"><ele>603.0</ele><time>2026-03-29T10:35:56.151Z</time></trkpt><trkpt lat="43.8769775" lon="11.332665"><ele>604.0</ele><time>2026-03-29T10:35:57.151Z</time></trkpt><trkpt lat="43.8770627" lon="11.3326291"><ele>605.0</ele><time>2026-03-29T10:35:58.151Z</time></trkpt><trkpt lat="43.8771471" lon="11.3325942"><ele>606.0</ele><time>2026-03-29T10:35:59.151Z</time></trkpt><trkpt lat="43.8772352" lon="11.3325545"><ele>606.0</ele><time>2026-03-29T10:36:00.151Z</time></trkpt><trkpt lat="43.8773294" lon="11.3325116"><ele>606.0</ele><time>2026-03-29T10:36:01.151Z</time></trkpt><trkpt lat="43.8774244" lon="11.3324745"><ele>606.0</ele><time>2026-03-29T10:36:02.151Z</time></trkpt><trkpt lat="43.8775167" lon="11.3324354"><ele>606.0</ele><time>2026-03-29T10:36:03.151Z</time></trkpt><trkpt lat="43.8776104" lon="11.3323965"><ele>606.0</ele><time>2026-03-29T10:36:04.151Z</time></trkpt><trkpt lat="43.8776983" lon="11.3323569"><ele>607.3333333333334</ele><time>2026-03-29T10:36:05.15Z</time></trkpt><trkpt lat="43.8777835" lon="11.3323164"><ele>608.6666666666666</ele><time>2026-03-29T10:36:06.151Z</time></trkpt><trkpt lat="43.8778654" lon="11.3322824"><ele>610.0</ele><time>2026-03-29T10:36:07.151Z</time></trkpt><trkpt lat="43.8779418" lon="11.3322586"><ele>611.3333333333333</ele><time>2026-03-29T10:36:08.151Z</time></trkpt><trkpt lat="43.8780077" lon="11.3322409"><ele>612.6666666666666</ele><time>2026-03-29T10:36:09.151Z</time></trkpt><trkpt lat="43.878116" lon="11.332211"><ele>614.0</ele><time>2026-03-29T10:36:11.151Z</time></trkpt><trkpt lat="43.8781919" lon="11.332149"><ele>614.8333333333333</ele><time>2026-03-29T10:36:13.151Z</time></trkpt><trkpt lat="43.8782502" lon="11.3320392"><ele>615.6666666666666</ele><time>2026-03-29T10:36:15.151Z</time></trkpt><trkpt lat="43.8782571" lon="11.331934"><ele>616.5</ele><time>2026-03-29T10:36:21.151Z</time></trkpt><trkpt lat="43.878169" lon="11.3319313"><ele>617.3333333333334</ele><time>2026-03-29T10:36:24.151Z</time></trkpt><trkpt lat="43.8782078" lon="11.3320038"><ele>618.1666666666667</ele><time>2026-03-29T10:38:44.15Z</time></trkpt><trkpt lat="43.8782957" lon="11.3319841"><ele>619.0</ele><time>2026-03-29T10:40:01.151Z</time></trkpt><trkpt lat="43.8783606" lon="11.3319975"><ele>619.8333333333334</ele><time>2026-03-29T10:40:07.151Z</time></trkpt><trkpt lat="43.8784584" lon="11.332051"><ele>620.6666666666667</ele><time>2026-03-29T10:40:09.151Z</time></trkpt><trkpt lat="43.8785753" lon="11.3320883"><ele>621.5</ele><time>2026-03-29T10:40:11.151Z</time></trkpt><trkpt lat="43.8786629" lon="11.3321017"><ele>622.3333333333334</ele><time>2026-03-29T10:40:13.151Z</time></trkpt><trkpt lat="43.8787262" lon="11.3321204"><ele>623.1666666666666</ele><time>2026-03-29T10:40:15.151Z</time></trkpt><trkpt lat="43.8787955" lon="11.332114"><ele>624.0</ele><time>2026-03-29T10:40:17.151Z</time></trkpt><trkpt lat="43.8788713" lon="11.3321204"><ele>624.0</ele><time>2026-03-29T10:40:21.151Z</time></trkpt><trkpt lat="43.8789393" lon="11.3321451"><ele>624.0</ele><time>2026-03-29T10:40:28.151Z</time></trkpt><trkpt lat="43.8790346" lon="11.3321986"><ele>624.0</ele><time>2026-03-29T10:40:30.151Z</time></trkpt><trkpt lat="43.8791395" lon="11.3322662"><ele>624.0</ele><time>2026-03-29T10:40:32.151Z</time></trkpt><trkpt lat="43.8792383" lon="11.3323466"><ele>624.0</ele><time>2026-03-29T10:40:34.151Z</time></trkpt><trkpt lat="43.8793499" lon="11.332432"><ele>625.5714285714286</ele><time>2026-03-29T10:40:36.151Z</time></trkpt><trkpt lat="43.879413" lon="11.3324758"><ele>627.1428571428571</ele><time>2026-03-29T10:40:37.151Z</time></trkpt><trkpt lat="43.8794811" lon="11.33252"><ele>628.7142857142857</ele><time>2026-03-29T10:40:38.151Z</time></trkpt><trkpt lat="43.8795529" lon="11.3325578"><ele>630.2857142857142</ele><time>2026-03-29T10:40:39.151Z</time></trkpt><trkpt lat="43.879617" lon="11.3325966"><ele>631.8571428571429</ele><time>2026-03-29T10:40:40.151Z</time></trkpt><trkpt lat="43.8796772" lon="11.3326278"><ele>633.4285714285713</ele><time>2026-03-29T10:40:41.151Z</time></trkpt><trkpt lat="43.8797386" lon="11.3326622"><ele>635.0</ele><time>2026-03-29T10:40:42.151Z</time></trkpt><trkpt lat="43.8797993" lon="11.3326974"><ele>635.0</ele><time>2026-03-29T10:40:43.151Z</time></trkpt><trkpt lat="43.8798598" lon="11.332732"><ele>635.0</ele><time>2026-03-29T10:40:44.151Z</time></trkpt><trkpt lat="43.879944" lon="11.3327969"><ele>635.0</ele><time>2026-03-29T10:40:46.151Z</time></trkpt><trkpt lat="43.8799997" lon="11.3328804"><ele>635.0</ele><time>2026-03-29T10:40:48.151Z</time></trkpt><trkpt lat="43.8800647" lon="11.3329708"><ele>635.0</ele><time>2026-03-29T10:40:50.15Z</time></trkpt><trkpt lat="43.8801261" lon="11.3330339"><ele>635.0</ele><time>2026-03-29T10:40:52.151Z</time></trkpt><trkpt lat="43.8801909" lon="11.3330602"><ele>635.0</ele><time>2026-03-29T10:41:06.151Z</time></trkpt><trkpt lat="43.8801179" lon="11.3330132"><ele>635.0</ele><time>2026-03-29T10:41:18.151Z</time></trkpt><trkpt lat="43.8800464" lon="11.3329398"><ele>635.0</ele><time>2026-03-29T10:41:20.151Z</time></trkpt><trkpt lat="43.8799786" lon="11.3328586"><ele>635.0</ele><time>2026-03-29T10:41:22.151Z</time></trkpt><trkpt lat="43.8799292" lon="11.3327576"><ele>635.0</ele><time>2026-03-29T10:41:24.151Z</time></trkpt><trkpt lat="43.87995" lon="11.3326679"><ele>635.0</ele><time>2026-03-29T10:41:27.151Z</time></trkpt><trkpt lat="43.8800313" lon="11.3326781"><ele>635.0</ele><time>2026-03-29T10:41:29.151Z</time></trkpt><trkpt lat="43.880096" lon="11.332713"><ele>635.0</ele><time>2026-03-29T10:41:30.151Z</time></trkpt><trkpt lat="43.8801664" lon="11.3327475"><ele>635.0</ele><time>2026-03-29T10:41:31.151Z</time></trkpt><trkpt lat="43.8802554" lon="11.3327655"><ele>635.0</ele><time>2026-03-29T10:41:32.151Z</time></trkpt><trkpt lat="43.8803411" lon="11.332789"><ele>635.0</ele><time>2026-03-29T10:41:33.151Z</time></trkpt><trkpt lat="43.880421" lon="11.3328202"><ele>635.0</ele><time>2026-03-29T10:41:34.151Z</time></trkpt><trkpt lat="43.8805061" lon="11.3328621"><ele>634.6666666666666</ele><time>2026-03-29T10:41:35.151Z</time></trkpt><trkpt lat="43.880589" lon="11.332916"><ele>634.3333333333333</ele><time>2026-03-29T10:41:36.151Z</time></trkpt><trkpt lat="43.8806652" lon="11.3329694"><ele>634.0</ele><time>2026-03-29T10:41:37.151Z</time></trkpt><trkpt lat="43.880731" lon="11.333028"><ele>633.6666666666666</ele><time>2026-03-29T10:41:38.151Z</time></trkpt><trkpt lat="43.8807825" lon="11.3330875"><ele>633.3333333333334</ele><time>2026-03-29T10:41:39.151Z</time></trkpt><trkpt lat="43.8808649" lon="11.333191"><ele>633.0</ele><time>2026-03-29T10:41:41.151Z</time></trkpt><trkpt lat="43.8809134" lon="11.3332619"><ele>634.1999999999999</ele><time>2026-03-29T10:41:42.151Z</time></trkpt><trkpt lat="43.8809752" lon="11.3333258"><ele>635.4</ele><time>2026-03-29T10:41:43.151Z</time></trkpt><trkpt lat="43.8810566" lon="11.3333851"><ele>636.5999999999999</ele><time>2026-03-29T10:41:44.151Z</time></trkpt><trkpt lat="43.8811546" lon="11.3334472"><ele>637.8</ele><time>2026-03-29T10:41:45.151Z</time></trkpt><trkpt lat="43.881261" lon="11.3335023"><ele>639.0</ele><time>2026-03-29T10:41:46.151Z</time></trkpt><trkpt lat="43.8813704" lon="11.3335457"><ele>639.0</ele><time>2026-03-29T10:41:47.151Z</time></trkpt><trkpt lat="43.881489" lon="11.3335914"><ele>639.0</ele><time>2026-03-29T10:41:48.151Z</time></trkpt><trkpt lat="43.8816084" lon="11.3336341"><ele>639.0</ele><time>2026-03-29T10:41:49.151Z</time></trkpt><trkpt lat="43.8817303" lon="11.3336744"><ele>639.0</ele><time>2026-03-29T10:41:50.151Z</time></trkpt><trkpt lat="43.8818566" lon="11.3337179"><ele>638.0</ele><time>2026-03-29T10:41:51.151Z</time></trkpt><trkpt lat="43.8819948" lon="11.3337769"><ele>637.0</ele><time>2026-03-29T10:41:52.151Z</time></trkpt><trkpt lat="43.8821434" lon="11.3338356"><ele>636.0</ele><time>2026-03-29T10:41:53.151Z</time></trkpt><trkpt lat="43.8822946" lon="11.3338918"><ele>637.5</ele><time>2026-03-29T10:41:54.151Z</time></trkpt><trkpt lat="43.8824364" lon="11.3339483"><ele>639.0</ele><time>2026-03-29T10:41:55.151Z</time></trkpt><trkpt lat="43.8825761" lon="11.3339984"><ele>640.5</ele><time>2026-03-29T10:41:56.151Z</time></trkpt><trkpt lat="43.8827138" lon="11.3340446"><ele>642.0</ele><time>2026-03-29T10:41:57.151Z</time></trkpt><trkpt lat="43.8828522" lon="11.3340842"><ele>643.5</ele><time>2026-03-29T10:41:58.151Z</time></trkpt><trkpt lat="43.8829827" lon="11.3340935"><ele>645.0</ele><time>2026-03-29T10:41:59.151Z</time></trkpt><trkpt lat="43.8831188" lon="11.3340633"><ele>646.5</ele><time>2026-03-29T10:42:00.151Z</time></trkpt><trkpt lat="43.8832548" lon="11.3339995"><ele>648.0</ele><time>2026-03-29T10:42:01.151Z</time></trkpt><trkpt lat="43.8833919" lon="11.3339498"><ele>650.75</ele><time>2026-03-29T10:42:02.151Z</time></trkpt><trkpt lat="43.8835314" lon="11.3339058"><ele>653.5</ele><time>2026-03-29T10:42:03.151Z</time></trkpt><trkpt lat="43.8836786" lon="11.333893"><ele>656.25</ele><time>2026-03-29T10:42:04.151Z</time></trkpt><trkpt lat="43.8838093" lon="11.3339092"><ele>659.0</ele><time>2026-03-29T10:42:05.151Z</time></trkpt><trkpt lat="43.8839185" lon="11.3339432"><ele>659.0</ele><time>2026-03-29T10:42:06.151Z</time></trkpt><trkpt lat="43.8840264" lon="11.3339417"><ele>659.0</ele><time>2026-03-29T10:42:07.151Z</time></trkpt><trkpt lat="43.8841257" lon="11.3338837"><ele>659.0</ele><time>2026-03-29T10:42:08.151Z</time></trkpt><trkpt lat="43.8842282" lon="11.333803"><ele>659.0</ele><time>2026-03-29T10:42:09.151Z</time></trkpt><trkpt lat="43.8843217" lon="11.3337032"><ele>659.0</ele><time>2026-03-29T10:42:10.151Z</time></trkpt><trkpt lat="43.8844263" lon="11.3335886"><ele>659.0</ele><time>2026-03-29T10:42:11.151Z</time></trkpt><trkpt lat="43.88454" lon="11.333461"><ele>659.0</ele><time>2026-03-29T10:42:12.151Z</time></trkpt><trkpt lat="43.8846693" lon="11.3333421"><ele>659.0</ele><time>2026-03-29T10:42:13.151Z</time></trkpt><trkpt lat="43.8848076" lon="11.3332433"><ele>659.0</ele><time>2026-03-29T10:42:14.151Z</time></trkpt><trkpt lat="43.8849643" lon="11.333149"><ele>659.0</ele><time>2026-03-29T10:42:15.151Z</time></trkpt><trkpt lat="43.885136" lon="11.3330718"><ele>659.0</ele><time>2026-03-29T10:42:16.151Z</time></trkpt><trkpt lat="43.8853033" lon="11.3329904"><ele>657.6666666666666</ele><time>2026-03-29T10:42:17.151Z</time></trkpt><trkpt lat="43.8854682" lon="11.3329106"><ele>656.3333333333334</ele><time>2026-03-29T10:42:18.151Z</time></trkpt><trkpt lat="43.8856113" lon="11.3328259"><ele>655.0</ele><time>2026-03-29T10:42:19.151Z</time></trkpt><trkpt lat="43.8857527" lon="11.3327503"><ele>655.0</ele><time>2026-03-29T10:42:20.151Z</time></trkpt><trkpt lat="43.8859026" lon="11.3326778"><ele>655.0</ele><time>2026-03-29T10:42:21.151Z</time></trkpt><trkpt lat="43.8860478" lon="11.3326377"><ele>655.0</ele><time>2026-03-29T10:42:22.151Z</time></trkpt><trkpt lat="43.8861924" lon="11.3325973"><ele>655.3333333333334</ele><time>2026-03-29T10:42:23.151Z</time></trkpt><trkpt lat="43.886342" lon="11.3325239"><ele>655.6666666666666</ele><time>2026-03-29T10:42:24.151Z</time></trkpt><trkpt lat="43.886484" lon="11.3324102"><ele>656.0</ele><time>2026-03-29T10:42:25.151Z</time></trkpt><trkpt lat="43.8866095" lon="11.3322927"><ele>655.25</ele><time>2026-03-29T10:42:26.151Z</time></trkpt><trkpt lat="43.886716" lon="11.3322012"><ele>654.5</ele><time>2026-03-29T10:42:27.151Z</time></trkpt><trkpt lat="43.8868465" lon="11.3321573"><ele>653.75</ele><time>2026-03-29T10:42:28.151Z</time></trkpt><trkpt lat="43.8869942" lon="11.3321437"><ele>653.0</ele><time>2026-03-29T10:42:29.151Z</time></trkpt><trkpt lat="43.8871537" lon="11.3321485"><ele>652.0</ele><time>2026-03-29T10:42:30.151Z</time></trkpt><trkpt lat="43.8873227" lon="11.3321631"><ele>651.0</ele><time>2026-03-29T10:42:31.151Z</time></trkpt><trkpt lat="43.8875041" lon="11.3321928"><ele>650.0</ele><time>2026-03-29T10:42:32.151Z</time></trkpt><trkpt lat="43.8876859" lon="11.3322297"><ele>653.0</ele><time>2026-03-29T10:42:33.151Z</time></trkpt><trkpt lat="43.8878568" lon="11.3322574"><ele>656.0</ele><time>2026-03-29T10:42:34.151Z</time></trkpt><trkpt lat="43.888022" lon="11.3322712"><ele>659.0</ele><time>2026-03-29T10:42:35.151Z</time></trkpt><trkpt lat="43.8881797" lon="11.3322816"><ele>659.0</ele><time>2026-03-29T10:42:36.151Z</time></trkpt><trkpt lat="43.8883343" lon="11.3323471"><ele>659.0</ele><time>2026-03-29T10:42:37.151Z</time></trkpt><trkpt lat="43.8884634" lon="11.3324791"><ele>659.0</ele><time>2026-03-29T10:42:38.151Z</time></trkpt><trkpt lat="43.8885764" lon="11.3326275"><ele>662.0</ele><time>2026-03-29T10:42:39.151Z</time></trkpt><trkpt lat="43.8886834" lon="11.3327498"><ele>665.0</ele><time>2026-03-29T10:42:40.151Z</time></trkpt><trkpt lat="43.8888162" lon="11.3328098"><ele>668.0</ele><time>2026-03-29T10:42:41.151Z</time></trkpt><trkpt lat="43.8889745" lon="11.3328187"><ele>671.0</ele><time>2026-03-29T10:42:42.151Z</time></trkpt><trkpt lat="43.8891349" lon="11.3327777"><ele>681.0</ele><time>2026-03-29T10:42:43.151Z</time></trkpt><trkpt lat="43.8893033" lon="11.3327205"><ele>691.0</ele><time>2026-03-29T10:42:44.151Z</time></trkpt><trkpt lat="43.8894583" lon="11.3326124"><ele>701.0</ele><time>2026-03-29T10:42:45.151Z</time></trkpt><trkpt lat="43.8895775" lon="11.3324477"><ele>701.0</ele><time>2026-03-29T10:42:46.151Z</time></trkpt><trkpt lat="43.889695" lon="11.3322653"><ele>701.0</ele><time>2026-03-29T10:42:47.151Z</time></trkpt><trkpt lat="43.8898051" lon="11.3321074"><ele>701.0</ele><time>2026-03-29T10:42:48.151Z</time></trkpt><trkpt lat="43.8899099" lon="11.3319608"><ele>703.75</ele><time>2026-03-29T10:42:49.151Z</time></trkpt><trkpt lat="43.8900087" lon="11.3318025"><ele>706.5</ele><time>2026-03-29T10:42:50.151Z</time></trkpt><trkpt lat="43.8900903" lon="11.33163"><ele>709.25</ele><time>2026-03-29T10:42:51.151Z</time></trkpt><trkpt lat="43.8901636" lon="11.3314629"><ele>712.0</ele><time>2026-03-29T10:42:52.151Z</time></trkpt><trkpt lat="43.8902374" lon="11.331318"><ele>707.4000000000001</ele><time>2026-03-29T10:42:53.151Z</time></trkpt><trkpt lat="43.8903218" lon="11.3311886"><ele>702.8000000000001</ele><time>2026-03-29T10:42:54.151Z</time></trkpt><trkpt lat="43.8904047" lon="11.3311038"><ele>698.2</ele><time>2026-03-29T10:42:55.151Z</time></trkpt><trkpt lat="43.8904871" lon="11.3310632"><ele>693.6</ele><time>2026-03-29T10:42:56.151Z</time></trkpt><trkpt lat="43.8905568" lon="11.3310367"><ele>689.0</ele><time>2026-03-29T10:42:57.151Z</time></trkpt><trkpt lat="43.89068" lon="11.3310612"><ele>689.0</ele><time>2026-03-29T10:42:59.151Z</time></trkpt><trkpt lat="43.8907717" lon="11.3310947"><ele>689.0</ele><time>2026-03-29T10:43:00.151Z</time></trkpt><trkpt lat="43.8909036" lon="11.3311088"><ele>689.0</ele><time>2026-03-29T10:43:01.151Z</time></trkpt><trkpt lat="43.8910476" lon="11.331078"><ele>689.0</ele><time>2026-03-29T10:43:02.151Z</time></trkpt><trkpt lat="43.8912058" lon="11.3310324"><ele>691.3333333333333</ele><time>2026-03-29T10:43:03.151Z</time></trkpt><trkpt lat="43.8913779" lon="11.3309787"><ele>693.6666666666666</ele><time>2026-03-29T10:43:04.151Z</time></trkpt><trkpt lat="43.8915655" lon="11.3309231"><ele>696.0</ele><time>2026-03-29T10:43:05.151Z</time></trkpt><trkpt lat="43.8917537" lon="11.3308667"><ele>697.3333333333334</ele><time>2026-03-29T10:43:06.151Z</time></trkpt><trkpt lat="43.8919435" lon="11.3308035"><ele>698.6666666666667</ele><time>2026-03-29T10:43:07.151Z</time></trkpt><trkpt lat="43.8921423" lon="11.3307407"><ele>700.0</ele><time>2026-03-29T10:43:08.151Z</time></trkpt><trkpt lat="43.8923385" lon="11.3306874"><ele>700.0</ele><time>2026-03-29T10:43:09.151Z</time></trkpt><trkpt lat="43.892518" lon="11.3306204"><ele>700.0</ele><time>2026-03-29T10:43:10.151Z</time></trkpt><trkpt lat="43.8926887" lon="11.3305326"><ele>700.0</ele><time>2026-03-29T10:43:11.151Z</time></trkpt><trkpt lat="43.8928521" lon="11.3303794"><ele>697.0</ele><time>2026-03-29T10:43:12.151Z</time></trkpt><trkpt lat="43.8930057" lon="11.3301951"><ele>694.0</ele><time>2026-03-29T10:43:13.151Z</time></trkpt><trkpt lat="43.8931576" lon="11.3300075"><ele>691.0</ele><time>2026-03-29T10:43:14.151Z</time></trkpt><trkpt lat="43.8933042" lon="11.329823"><ele>689.3333333333334</ele><time>2026-03-29T10:43:15.151Z</time></trkpt><trkpt lat="43.8934348" lon="11.3296661"><ele>687.6666666666666</ele><time>2026-03-29T10:43:16.151Z</time></trkpt><trkpt lat="43.893566" lon="11.3295347"><ele>686.0</ele><time>2026-03-29T10:43:17.151Z</time></trkpt><trkpt lat="43.8937101" lon="11.3294048"><ele>686.0</ele><time>2026-03-29T10:43:18.151Z</time></trkpt><trkpt lat="43.8938709" lon="11.3292769"><ele>686.0</ele><time>2026-03-29T10:43:19.151Z</time></trkpt><trkpt lat="43.8940423" lon="11.3291631"><ele>686.0</ele><time>2026-03-29T10:43:20.151Z</time></trkpt><trkpt lat="43.8942144" lon="11.3290429"><ele>684.6666666666666</ele><time>2026-03-29T10:43:21.151Z</time></trkpt><trkpt lat="43.8943833" lon="11.3289219"><ele>683.3333333333334</ele><time>2026-03-29T10:43:22.151Z</time></trkpt><trkpt lat="43.8945535" lon="11.3288118"><ele>682.0</ele><time>2026-03-29T10:43:23.151Z</time></trkpt><trkpt lat="43.8947133" lon="11.3286898"><ele>682.0</ele><time>2026-03-29T10:43:24.151Z</time></trkpt><trkpt lat="43.8948544" lon="11.3285608"><ele>682.0</ele><time>2026-03-29T10:43:25.151Z</time></trkpt><trkpt lat="43.8949662" lon="11.3284152"><ele>682.0</ele><time>2026-03-29T10:43:26.151Z</time></trkpt><trkpt lat="43.8950513" lon="11.3282272"><ele>680.3333333333334</ele><time>2026-03-29T10:43:27.151Z</time></trkpt><trkpt lat="43.8951289" lon="11.3279842"><ele>678.6666666666666</ele><time>2026-03-29T10:43:28.151Z</time></trkpt><trkpt lat="43.8952167" lon="11.3277354"><ele>677.0</ele><time>2026-03-29T10:43:29.15Z</time></trkpt><trkpt lat="43.8953043" lon="11.3274966"><ele>677.0</ele><time>2026-03-29T10:43:30.151Z</time></trkpt><trkpt lat="43.8953726" lon="11.3272671"><ele>677.0</ele><time>2026-03-29T10:43:31.151Z</time></trkpt><trkpt lat="43.8954313" lon="11.3270642"><ele>677.0</ele><time>2026-03-29T10:43:32.151Z</time></trkpt><trkpt lat="43.8954931" lon="11.3268626"><ele>675.4000000000001</ele><time>2026-03-29T10:43:33.151Z</time></trkpt><trkpt lat="43.8955516" lon="11.3266791"><ele>673.8000000000001</ele><time>2026-03-29T10:43:34.151Z</time></trkpt><trkpt lat="43.8955982" lon="11.3265455"><ele>672.2</ele><time>2026-03-29T10:43:35.151Z</time></trkpt><trkpt lat="43.8956395" lon="11.3264332"><ele>670.6</ele><time>2026-03-29T10:43:36.151Z</time></trkpt><trkpt lat="43.8956898" lon="11.3263358"><ele>669.0</ele><time>2026-03-29T10:43:37.151Z</time></trkpt><trkpt lat="43.8957456" lon="11.3262461"><ele>667.6</ele><time>2026-03-29T10:43:38.151Z</time></trkpt><trkpt lat="43.8958162" lon="11.3261844"><ele>666.2</ele><time>2026-03-29T10:43:39.151Z</time></trkpt><trkpt lat="43.8959011" lon="11.3261388"><ele>664.8000000000001</ele><time>2026-03-29T10:43:40.151Z</time></trkpt><trkpt lat="43.8959928" lon="11.326108"><ele>663.4000000000001</ele><time>2026-03-29T10:43:41.151Z</time></trkpt><trkpt lat="43.8960861" lon="11.3260861"><ele>662.0</ele><time>2026-03-29T10:43:42.151Z</time></trkpt><trkpt lat="43.8961792" lon="11.3260759"><ele>662.0</ele><time>2026-03-29T10:43:43.151Z</time></trkpt><trkpt lat="43.8962683" lon="11.3260457"><ele>662.0</ele><time>2026-03-29T10:43:44.15Z</time></trkpt><trkpt lat="43.8963435" lon="11.3259827"><ele>662.0</ele><time>2026-03-29T10:43:45.151Z</time></trkpt><trkpt lat="43.8963808" lon="11.3258818"><ele>662.0</ele><time>2026-03-29T10:43:46.151Z</time></trkpt><trkpt lat="43.8963449" lon="11.3257628"><ele>662.0</ele><time>2026-03-29T10:43:47.151Z</time></trkpt><trkpt lat="43.8962721" lon="11.3256771"><ele>662.0</ele><time>2026-03-29T10:43:48.151Z</time></trkpt><trkpt lat="43.8961672" lon="11.3256572"><ele>662.0</ele><time>2026-03-29T10:43:49.151Z</time></trkpt><trkpt lat="43.8960546" lon="11.325652"><ele>662.0</ele><time>2026-03-29T10:43:50.151Z</time></trkpt><trkpt lat="43.895935" lon="11.3256604"><ele>662.0</ele><time>2026-03-29T10:43:51.151Z</time></trkpt><trkpt lat="43.8958278" lon="11.3256644"><ele>662.0</ele><time>2026-03-29T10:43:52.151Z</time></trkpt><trkpt lat="43.8957131" lon="11.3256598"><ele>660.8</ele><time>2026-03-29T10:43:53.151Z</time></trkpt><trkpt lat="43.895612" lon="11.3256518"><ele>659.6</ele><time>2026-03-29T10:43:54.151Z</time></trkpt><trkpt lat="43.8955087" lon="11.3256502"><ele>658.4</ele><time>2026-03-29T10:43:55.151Z</time></trkpt><trkpt lat="43.8954052" lon="11.3256521"><ele>657.1999999999999</ele><time>2026-03-29T10:43:56.151Z</time></trkpt><trkpt lat="43.8953118" lon="11.3256526"><ele>656.0</ele><time>2026-03-29T10:43:57.151Z</time></trkpt><trkpt lat="43.8952198" lon="11.3256438"><ele>656.0</ele><time>2026-03-29T10:43:58.151Z</time></trkpt><trkpt lat="43.8951364" lon="11.3256334"><ele>656.0</ele><time>2026-03-29T10:43:59.151Z</time></trkpt><trkpt lat="43.8950641" lon="11.3256159"><ele>656.0</ele><time>2026-03-29T10:44:00.151Z</time></trkpt><trkpt lat="43.8950044" lon="11.3255743"><ele>656.0</ele><time>2026-03-29T10:44:01.151Z</time></trkpt><trkpt lat="43.8949681" lon="11.3254847"><ele>656.0</ele><time>2026-03-29T10:44:02.151Z</time></trkpt><trkpt lat="43.8949856" lon="11.3253943"><ele>656.0</ele><time>2026-03-29T10:44:03.151Z</time></trkpt><trkpt lat="43.8950357" lon="11.3252973"><ele>654.5999999999999</ele><time>2026-03-29T10:44:04.151Z</time></trkpt><trkpt lat="43.895113" lon="11.3252281"><ele>653.2</ele><time>2026-03-29T10:44:05.151Z</time></trkpt><trkpt lat="43.895214" lon="11.3252267"><ele>651.8</ele><time>2026-03-29T10:44:06.151Z</time></trkpt><trkpt lat="43.8953334" lon="11.325205"><ele>650.4000000000001</ele><time>2026-03-29T10:44:07.151Z</time></trkpt><trkpt lat="43.8954351" lon="11.3251528"><ele>649.0</ele><time>2026-03-29T10:44:08.151Z</time></trkpt><trkpt lat="43.895517" lon="11.3250423"><ele>649.0</ele><time>2026-03-29T10:44:09.151Z</time></trkpt><trkpt lat="43.8955887" lon="11.3248981"><ele>649.0</ele><time>2026-03-29T10:44:10.151Z</time></trkpt><trkpt lat="43.8956545" lon="11.3247434"><ele>649.0</ele><time>2026-03-29T10:44:11.151Z</time></trkpt><trkpt lat="43.8957154" lon="11.3245947"><ele>649.0</ele><time>2026-03-29T10:44:12.151Z</time></trkpt><trkpt lat="43.8957853" lon="11.3244501"><ele>647.0</ele><time>2026-03-29T10:44:13.15Z</time></trkpt><trkpt lat="43.8958721" lon="11.3243036"><ele>645.0</ele><time>2026-03-29T10:44:14.151Z</time></trkpt><trkpt lat="43.8959607" lon="11.3241728"><ele>643.0</ele><time>2026-03-29T10:44:15.151Z</time></trkpt><trkpt lat="43.8960435" lon="11.3240468"><ele>641.0</ele><time>2026-03-29T10:44:16.151Z</time></trkpt><trkpt lat="43.8961123" lon="11.3239663"><ele>641.0</ele><time>2026-03-29T10:44:17.151Z</time></trkpt><trkpt lat="43.8961835" lon="11.3239088"><ele>641.0</ele><time>2026-03-29T10:44:18.151Z</time></trkpt><trkpt lat="43.8962719" lon="11.3239279"><ele>641.0</ele><time>2026-03-29T10:44:19.151Z</time></trkpt><trkpt lat="43.8963634" lon="11.3239529"><ele>641.0</ele><time>2026-03-29T10:44:20.151Z</time></trkpt><trkpt lat="43.8964357" lon="11.323935"><ele>641.0</ele><time>2026-03-29T10:44:21.151Z</time></trkpt><trkpt lat="43.8964978" lon="11.323839"><ele>641.0</ele><time>2026-03-29T10:44:22.151Z</time></trkpt><trkpt lat="43.8965138" lon="11.3237277"><ele>637.25</ele><time>2026-03-29T10:44:23.151Z</time></trkpt><trkpt lat="43.8964625" lon="11.3236213"><ele>633.5</ele><time>2026-03-29T10:44:24.151Z</time></trkpt><trkpt lat="43.8963667" lon="11.3235686"><ele>629.75</ele><time>2026-03-29T10:44:25.151Z</time></trkpt><trkpt lat="43.896237" lon="11.3235685"><ele>626.0</ele><time>2026-03-29T10:44:26.151Z</time></trkpt><trkpt lat="43.8960992" lon="11.3235955"><ele>626.0</ele><time>2026-03-29T10:44:27.151Z</time></trkpt><trkpt lat="43.895954" lon="11.3236375"><ele>626.0</ele><time>2026-03-29T10:44:28.151Z</time></trkpt><trkpt lat="43.8958279" lon="11.3236744"><ele>626.0</ele><time>2026-03-29T10:44:29.151Z</time></trkpt><trkpt lat="43.8957053" lon="11.3237022"><ele>626.0</ele><time>2026-03-29T10:44:30.151Z</time></trkpt><trkpt lat="43.8955947" lon="11.3237269"><ele>624.0</ele><time>2026-03-29T10:44:31.151Z</time></trkpt><trkpt lat="43.895482" lon="11.3237702"><ele>622.0</ele><time>2026-03-29T10:44:32.152Z</time></trkpt><trkpt lat="43.8953748" lon="11.3238099"><ele>620.0</ele><time>2026-03-29T10:44:33.152Z</time></trkpt><trkpt lat="43.8952694" lon="11.3238538"><ele>618.0</ele><time>2026-03-29T10:44:34.151Z</time></trkpt><trkpt lat="43.8951756" lon="11.32387"><ele>616.0</ele><time>2026-03-29T10:44:35.152Z</time></trkpt><trkpt lat="43.8951062" lon="11.3238696"><ele>615.0</ele><time>2026-03-29T10:44:36.152Z</time></trkpt><trkpt lat="43.8950439" lon="11.3238445"><ele>614.0</ele><time>2026-03-29T10:44:37.152Z</time></trkpt><trkpt lat="43.8949834" lon="11.3237892"><ele>613.0</ele><time>2026-03-29T10:44:38.152Z</time></trkpt><trkpt lat="43.8949338" lon="11.323711"><ele>612.0</ele><time>2026-03-29T10:44:39.152Z</time></trkpt><trkpt lat="43.8949095" lon="11.3236162"><ele>611.0</ele><time>2026-03-29T10:44:40.152Z</time></trkpt><trkpt lat="43.8949317" lon="11.3235152"><ele>610.0</ele><time>2026-03-29T10:44:41.152Z</time></trkpt><trkpt lat="43.8949904" lon="11.3234391"><ele>609.0</ele><time>2026-03-29T10:44:42.152Z</time></trkpt><trkpt lat="43.8950755" lon="11.3233831"><ele>610.4</ele><time>2026-03-29T10:44:43.152Z</time></trkpt><trkpt lat="43.8951792" lon="11.3233222"><ele>611.8</ele><time>2026-03-29T10:44:44.152Z</time></trkpt><trkpt lat="43.8952779" lon="11.3232634"><ele>613.2</ele><time>2026-03-29T10:44:45.152Z</time></trkpt><trkpt lat="43.8953783" lon="11.3231973"><ele>614.6</ele><time>2026-03-29T10:44:46.152Z</time></trkpt><trkpt lat="43.8954814" lon="11.3231317"><ele>616.0</ele><time>2026-03-29T10:44:47.152Z</time></trkpt><trkpt lat="43.8955858" lon="11.3230664"><ele>612.75</ele><time>2026-03-29T10:44:48.152Z</time></trkpt><trkpt lat="43.8957011" lon="11.3230051"><ele>609.5</ele><time>2026-03-29T10:44:49.152Z</time></trkpt><trkpt lat="43.8958257" lon="11.322935"><ele>606.25</ele><time>2026-03-29T10:44:50.151Z</time></trkpt><trkpt lat="43.8959389" lon="11.3228667"><ele>603.0</ele><time>2026-03-29T10:44:51.152Z</time></trkpt><trkpt lat="43.8960416" lon="11.3228024"><ele>603.0</ele><time>2026-03-29T10:44:52.152Z</time></trkpt><trkpt lat="43.8961279" lon="11.322738"><ele>603.0</ele><time>2026-03-29T10:44:53.152Z</time></trkpt><trkpt lat="43.8962053" lon="11.3226802"><ele>603.0</ele><time>2026-03-29T10:44:54.152Z</time></trkpt><trkpt lat="43.8962698" lon="11.322616"><ele>603.0</ele><time>2026-03-29T10:44:55.152Z</time></trkpt><trkpt lat="43.8963183" lon="11.3225363"><ele>603.0</ele><time>2026-03-29T10:44:56.152Z</time></trkpt><trkpt lat="43.8963419" lon="11.3224199"><ele>603.0</ele><time>2026-03-29T10:44:57.152Z</time></trkpt><trkpt lat="43.8963394" lon="11.3222908"><ele>601.6</ele><time>2026-03-29T10:44:58.152Z</time></trkpt><trkpt lat="43.8963222" lon="11.3221444"><ele>600.1999999999999</ele><time>2026-03-29T10:44:59.152Z</time></trkpt><trkpt lat="43.8962947" lon="11.3219997"><ele>598.8</ele><time>2026-03-29T10:45:00.152Z</time></trkpt><trkpt lat="43.8962792" lon="11.3218521"><ele>597.4</ele><time>2026-03-29T10:45:01.152Z</time></trkpt><trkpt lat="43.896268" lon="11.3217115"><ele>596.0</ele><time>2026-03-29T10:45:02.152Z</time></trkpt><trkpt lat="43.8962513" lon="11.3215879"><ele>596.0</ele><time>2026-03-29T10:45:03.151Z</time></trkpt><trkpt lat="43.8962277" lon="11.3214891"><ele>596.0</ele><time>2026-03-29T10:45:04.152Z</time></trkpt><trkpt lat="43.8962106" lon="11.3213938"><ele>596.0</ele><time>2026-03-29T10:45:05.152Z</time></trkpt><trkpt lat="43.8961787" lon="11.3212948"><ele>596.0</ele><time>2026-03-29T10:45:06.152Z</time></trkpt><trkpt lat="43.8961274" lon="11.3211687"><ele>596.0</ele><time>2026-03-29T10:45:08.152Z</time></trkpt><trkpt lat="43.8960898" lon="11.3210944"><ele>596.0</ele><time>2026-03-29T10:45:10.152Z</time></trkpt><trkpt lat="43.8961743" lon="11.3209494"><ele>594.6</ele><time>2026-03-29T10:45:13.152Z</time></trkpt><trkpt lat="43.8962634" lon="11.3209067"><ele>593.2</ele><time>2026-03-29T10:45:14.152Z</time></trkpt><trkpt lat="43.896368" lon="11.3208671"><ele>591.8</ele><time>2026-03-29T10:45:15.152Z</time></trkpt><trkpt lat="43.8964725" lon="11.320815"><ele>590.4</ele><time>2026-03-29T10:45:16.152Z</time></trkpt><trkpt lat="43.8965781" lon="11.3207443"><ele>589.0</ele><time>2026-03-29T10:45:17.152Z</time></trkpt><trkpt lat="43.8966947" lon="11.3206568"><ele>586.0</ele><time>2026-03-29T10:45:18.152Z</time></trkpt><trkpt lat="43.8968285" lon="11.3205581"><ele>583.0</ele><time>2026-03-29T10:45:19.152Z</time></trkpt><trkpt lat="43.896975" lon="11.320438"><ele>580.0</ele><time>2026-03-29T10:45:20.152Z</time></trkpt><trkpt lat="43.8971247" lon="11.3203076"><ele>580.0</ele><time>2026-03-29T10:45:21.152Z</time></trkpt><trkpt lat="43.8972666" lon="11.3201935"><ele>580.0</ele><time>2026-03-29T10:45:22.152Z</time></trkpt><trkpt lat="43.8974042" lon="11.3200798"><ele>580.0</ele><time>2026-03-29T10:45:23.152Z</time></trkpt><trkpt lat="43.8975266" lon="11.3199719"><ele>580.75</ele><time>2026-03-29T10:45:24.152Z</time></trkpt><trkpt lat="43.8976449" lon="11.3198689"><ele>581.5</ele><time>2026-03-29T10:45:25.152Z</time></trkpt><trkpt lat="43.8977501" lon="11.3197721"><ele>582.25</ele><time>2026-03-29T10:45:26.152Z</time></trkpt><trkpt lat="43.8978314" lon="11.3196748"><ele>583.0</ele><time>2026-03-29T10:45:27.152Z</time></trkpt><trkpt lat="43.8978858" lon="11.3195539"><ele>583.0</ele><time>2026-03-29T10:45:28.152Z</time></trkpt><trkpt lat="43.8979209" lon="11.319446"><ele>583.0</ele><time>2026-03-29T10:45:29.152Z</time></trkpt><trkpt lat="43.8979232" lon="11.3193421"><ele>583.0</ele><time>2026-03-29T10:45:30.152Z</time></trkpt><trkpt lat="43.8979016" lon="11.3192147"><ele>583.0</ele><time>2026-03-29T10:45:31.152Z</time></trkpt><trkpt lat="43.8978725" lon="11.3190888"><ele>583.0</ele><time>2026-03-29T10:45:32.152Z</time></trkpt><trkpt lat="43.8978337" lon="11.3189634"><ele>583.0</ele><time>2026-03-29T10:45:33.152Z</time></trkpt><trkpt lat="43.8977746" lon="11.3188712"><ele>581.3333333333334</ele><time>2026-03-29T10:45:34.152Z</time></trkpt><trkpt lat="43.8976976" lon="11.3188132"><ele>579.6666666666667</ele><time>2026-03-29T10:45:35.152Z</time></trkpt><trkpt lat="43.8976217" lon="11.3187624"><ele>578.0</ele><time>2026-03-29T10:45:36.152Z</time></trkpt><trkpt lat="43.8975719" lon="11.3186827"><ele>576.3333333333334</ele><time>2026-03-29T10:45:37.152Z</time></trkpt><trkpt lat="43.8975492" lon="11.318562"><ele>574.6666666666666</ele><time>2026-03-29T10:45:38.152Z</time></trkpt><trkpt lat="43.8975735" lon="11.318445"><ele>573.0</ele><time>2026-03-29T10:45:39.152Z</time></trkpt><trkpt lat="43.8976286" lon="11.3183198"><ele>573.0</ele><time>2026-03-29T10:45:40.152Z</time></trkpt><trkpt lat="43.8976802" lon="11.3181869"><ele>573.0</ele><time>2026-03-29T10:45:41.152Z</time></trkpt><trkpt lat="43.8977231" lon="11.3180626"><ele>573.0</ele><time>2026-03-29T10:45:42.152Z</time></trkpt><trkpt lat="43.8977661" lon="11.3179404"><ele>573.0</ele><time>2026-03-29T10:45:43.152Z</time></trkpt><trkpt lat="43.897807" lon="11.3178117"><ele>573.0</ele><time>2026-03-29T10:45:44.152Z</time></trkpt><trkpt lat="43.897863" lon="11.3176522"><ele>570.75</ele><time>2026-03-29T10:45:45.152Z</time></trkpt><trkpt lat="43.8979296" lon="11.3174834"><ele>568.5</ele><time>2026-03-29T10:45:46.152Z</time></trkpt><trkpt lat="43.8979917" lon="11.3173204"><ele>566.25</ele><time>2026-03-29T10:45:47.152Z</time></trkpt><trkpt lat="43.8980565" lon="11.3171681"><ele>564.0</ele><time>2026-03-29T10:45:48.152Z</time></trkpt><trkpt lat="43.8981294" lon="11.3170183"><ele>561.8</ele><time>2026-03-29T10:45:49.152Z</time></trkpt><trkpt lat="43.8981988" lon="11.3168692"><ele>559.5999999999999</ele><time>2026-03-29T10:45:50.152Z</time></trkpt><trkpt lat="43.8982422" lon="11.3167322"><ele>557.4</ele><time>2026-03-29T10:45:51.152Z</time></trkpt><trkpt lat="43.8982416" lon="11.316604"><ele>555.1999999999999</ele><time>2026-03-29T10:45:52.152Z</time></trkpt><trkpt lat="43.8982125" lon="11.3164568"><ele>553.0</ele><time>2026-03-29T10:45:53.152Z</time></trkpt><trkpt lat="43.8981573" lon="11.3163361"><ele>549.5</ele><time>2026-03-29T10:45:54.152Z</time></trkpt><trkpt lat="43.8980832" lon="11.3162195"><ele>546.0</ele><time>2026-03-29T10:45:55.152Z</time></trkpt><trkpt lat="43.8979675" lon="11.3161532"><ele>542.5</ele><time>2026-03-29T10:45:56.152Z</time></trkpt><trkpt lat="43.8978457" lon="11.3161656"><ele>539.0</ele><time>2026-03-29T10:45:57.151Z</time></trkpt><trkpt lat="43.8977418" lon="11.3161809"><ele>539.0</ele><time>2026-03-29T10:45:58.152Z</time></trkpt><trkpt lat="43.897642" lon="11.3161744"><ele>539.0</ele><time>2026-03-29T10:45:59.152Z</time></trkpt><trkpt lat="43.8975711" lon="11.3160727"><ele>539.0</ele><time>2026-03-29T10:46:00.152Z</time></trkpt><trkpt lat="43.8975263" lon="11.3159486"><ele>539.0</ele><time>2026-03-29T10:46:01.152Z</time></trkpt><trkpt lat="43.8974973" lon="11.3158365"><ele>539.0</ele><time>2026-03-29T10:46:02.152Z</time></trkpt><trkpt lat="43.8974828" lon="11.3157398"><ele>539.0</ele><time>2026-03-29T10:46:03.152Z</time></trkpt><trkpt lat="43.8975131" lon="11.315643"><ele>539.0</ele><time>2026-03-29T10:46:04.152Z</time></trkpt><trkpt lat="43.8975988" lon="11.315586"><ele>539.0</ele><time>2026-03-29T10:46:05.152Z</time></trkpt><trkpt lat="43.8977092" lon="11.3155385"><ele>539.0</ele><time>2026-03-29T10:46:06.152Z</time></trkpt><trkpt lat="43.8978413" lon="11.3154539"><ele>539.0</ele><time>2026-03-29T10:46:07.152Z</time></trkpt><trkpt lat="43.8979493" lon="11.3153392"><ele>537.25</ele><time>2026-03-29T10:46:08.152Z</time></trkpt><trkpt lat="43.8980635" lon="11.315221"><ele>535.5</ele><time>2026-03-29T10:46:09.152Z</time></trkpt><trkpt lat="43.8981745" lon="11.3150862"><ele>533.75</ele><time>2026-03-29T10:46:10.152Z</time></trkpt><trkpt lat="43.8982814" lon="11.3149602"><ele>532.0</ele><time>2026-03-29T10:46:11.152Z</time></trkpt><trkpt lat="43.8983714" lon="11.3148501"><ele>532.6</ele><time>2026-03-29T10:46:12.152Z</time></trkpt><trkpt lat="43.8984402" lon="11.3147476"><ele>533.2</ele><time>2026-03-29T10:46:13.152Z</time></trkpt><trkpt lat="43.8984756" lon="11.3146317"><ele>533.8</ele><time>2026-03-29T10:46:14.152Z</time></trkpt><trkpt lat="43.8985076" lon="11.3144992"><ele>534.4</ele><time>2026-03-29T10:46:15.152Z</time></trkpt><trkpt lat="43.8985275" lon="11.3143431"><ele>535.0</ele><time>2026-03-29T10:46:16.152Z</time></trkpt><trkpt lat="43.8985468" lon="11.3141788"><ele>535.0</ele><time>2026-03-29T10:46:17.152Z</time></trkpt><trkpt lat="43.8985961" lon="11.3140035"><ele>535.0</ele><time>2026-03-29T10:46:18.152Z</time></trkpt><trkpt lat="43.8986837" lon="11.3138227"><ele>535.0</ele><time>2026-03-29T10:46:19.152Z</time></trkpt><trkpt lat="43.8987945" lon="11.3136045"><ele>531.3333333333334</ele><time>2026-03-29T10:46:20.152Z</time></trkpt><trkpt lat="43.8989032" lon="11.313384"><ele>527.6666666666666</ele><time>2026-03-29T10:46:21.152Z</time></trkpt><trkpt lat="43.8990185" lon="11.3131472"><ele>524.0</ele><time>2026-03-29T10:46:22.152Z</time></trkpt><trkpt lat="43.8991363" lon="11.3129171"><ele>522.0</ele><time>2026-03-29T10:46:23.152Z</time></trkpt><trkpt lat="43.899244" lon="11.3127128"><ele>520.0</ele><time>2026-03-29T10:46:24.152Z</time></trkpt><trkpt lat="43.8993445" lon="11.3125225"><ele>518.0</ele><time>2026-03-29T10:46:25.152Z</time></trkpt><trkpt lat="43.8994316" lon="11.3123529"><ele>521.0</ele><time>2026-03-29T10:46:26.152Z</time></trkpt><trkpt lat="43.8995227" lon="11.3121917"><ele>524.0</ele><time>2026-03-29T10:46:27.151Z</time></trkpt><trkpt lat="43.8996285" lon="11.3120299"><ele>527.0</ele><time>2026-03-29T10:46:28.152Z</time></trkpt><trkpt lat="43.8997517" lon="11.3118828"><ele>527.0</ele><time>2026-03-29T10:46:29.152Z</time></trkpt><trkpt lat="43.8998903" lon="11.3117396"><ele>527.0</ele><time>2026-03-29T10:46:30.152Z</time></trkpt><trkpt lat="43.9000265" lon="11.3116109"><ele>527.0</ele><time>2026-03-29T10:46:31.152Z</time></trkpt><trkpt lat="43.900156" lon="11.3114937"><ele>529.75</ele><time>2026-03-29T10:46:32.152Z</time></trkpt><trkpt lat="43.9002781" lon="11.3113876"><ele>532.5</ele><time>2026-03-29T10:46:33.152Z</time></trkpt><trkpt lat="43.9003861" lon="11.3112575"><ele>535.25</ele><time>2026-03-29T10:46:34.152Z</time></trkpt><trkpt lat="43.9004811" lon="11.3111067"><ele>538.0</ele><time>2026-03-29T10:46:35.152Z</time></trkpt><trkpt lat="43.9005571" lon="11.3109527"><ele>538.0</ele><time>2026-03-29T10:46:36.152Z</time></trkpt><trkpt lat="43.9006182" lon="11.3108089"><ele>538.0</ele><time>2026-03-29T10:46:37.152Z</time></trkpt><trkpt lat="43.9006836" lon="11.3106847"><ele>538.0</ele><time>2026-03-29T10:46:38.152Z</time></trkpt><trkpt lat="43.9007374" lon="11.3105655"><ele>538.0</ele><time>2026-03-29T10:46:39.152Z</time></trkpt><trkpt lat="43.9007855" lon="11.3104541"><ele>538.0</ele><time>2026-03-29T10:46:40.152Z</time></trkpt><trkpt lat="43.9008369" lon="11.3103601"><ele>536.0</ele><time>2026-03-29T10:46:41.152Z</time></trkpt><trkpt lat="43.9008735" lon="11.3102749"><ele>534.0</ele><time>2026-03-29T10:46:42.152Z</time></trkpt><trkpt lat="43.9008903" lon="11.3101161"><ele>532.0</ele><time>2026-03-29T10:46:44.152Z</time></trkpt><trkpt lat="43.9008505" lon="11.3099678"><ele>530.0</ele><time>2026-03-29T10:46:46.152Z</time></trkpt><trkpt lat="43.900828" lon="11.3098233"><ele>528.0</ele><time>2026-03-29T10:46:48.152Z</time></trkpt><trkpt lat="43.9008364" lon="11.3097181"><ele>526.6</ele><time>2026-03-29T10:46:49.152Z</time></trkpt><trkpt lat="43.9008612" lon="11.3095864"><ele>525.1999999999999</ele><time>2026-03-29T10:46:50.152Z</time></trkpt><trkpt lat="43.900878" lon="11.3094409"><ele>523.8</ele><time>2026-03-29T10:46:51.152Z</time></trkpt><trkpt lat="43.9009072" lon="11.3092937"><ele>522.4</ele><time>2026-03-29T10:46:52.152Z</time></trkpt><trkpt lat="43.9009329" lon="11.3091565"><ele>521.0</ele><time>2026-03-29T10:46:53.152Z</time></trkpt><trkpt lat="43.9009583" lon="11.3090245"><ele>524.2</ele><time>2026-03-29T10:46:54.152Z</time></trkpt><trkpt lat="43.9009834" lon="11.3088972"><ele>527.4000000000001</ele><time>2026-03-29T10:46:55.152Z</time></trkpt><trkpt lat="43.901005" lon="11.3087773"><ele>530.6</ele><time>2026-03-29T10:46:56.152Z</time></trkpt><trkpt lat="43.901013" lon="11.3086573"><ele>533.8000000000001</ele><time>2026-03-29T10:46:57.152Z</time></trkpt><trkpt lat="43.9009939" lon="11.3085318"><ele>537.0</ele><time>2026-03-29T10:46:58.152Z</time></trkpt><trkpt lat="43.9009421" lon="11.3084021"><ele>533.4</ele><time>2026-03-29T10:46:59.152Z</time></trkpt><trkpt lat="43.9008855" lon="11.3082872"><ele>529.8000000000001</ele><time>2026-03-29T10:47:00.152Z</time></trkpt><trkpt lat="43.9008272" lon="11.3081805"><ele>526.2</ele><time>2026-03-29T10:47:01.152Z</time></trkpt><trkpt lat="43.9007649" lon="11.3080779"><ele>522.6</ele><time>2026-03-29T10:47:02.151Z</time></trkpt><trkpt lat="43.9007111" lon="11.3079751"><ele>519.0</ele><time>2026-03-29T10:47:03.152Z</time></trkpt><trkpt lat="43.9006631" lon="11.3078813"><ele>518.3333333333334</ele><time>2026-03-29T10:47:04.152Z</time></trkpt><trkpt lat="43.9006132" lon="11.3077972"><ele>517.6666666666666</ele><time>2026-03-29T10:47:05.152Z</time></trkpt><trkpt lat="43.9005597" lon="11.307712"><ele>517.0</ele><time>2026-03-29T10:47:06.152Z</time></trkpt><trkpt lat="43.900495" lon="11.3076236"><ele>516.3333333333333</ele><time>2026-03-29T10:47:07.152Z</time></trkpt><trkpt lat="43.9004287" lon="11.307551"><ele>515.6666666666666</ele><time>2026-03-29T10:47:08.152Z</time></trkpt><trkpt lat="43.9003607" lon="11.3074879"><ele>515.0</ele><time>2026-03-29T10:47:09.152Z</time></trkpt><trkpt lat="43.9002968" lon="11.3074482"><ele>515.0</ele><time>2026-03-29T10:47:10.152Z</time></trkpt><trkpt lat="43.9001945" lon="11.3074503"><ele>515.0</ele><time>2026-03-29T10:47:12.152Z</time></trkpt><trkpt lat="43.9001148" lon="11.3075551"><ele>515.0</ele><time>2026-03-29T10:47:14.152Z</time></trkpt><trkpt lat="43.9000538" lon="11.307712"><ele>515.0</ele><time>2026-03-29T10:47:16.152Z</time></trkpt><trkpt lat="43.9000235" lon="11.3078166"><ele>515.0</ele><time>2026-03-29T10:47:17.152Z</time></trkpt><trkpt lat="43.9000082" lon="11.3079143"><ele>512.6666666666666</ele><time>2026-03-29T10:47:18.152Z</time></trkpt><trkpt lat="43.8999892" lon="11.3080203"><ele>510.3333333333333</ele><time>2026-03-29T10:47:19.152Z</time></trkpt><trkpt lat="43.8999719" lon="11.3081349"><ele>508.0</ele><time>2026-03-29T10:47:20.152Z</time></trkpt><trkpt lat="43.8999651" lon="11.3082549"><ele>505.66666666666663</ele><time>2026-03-29T10:47:21.152Z</time></trkpt><trkpt lat="43.899957" lon="11.308366"><ele>503.3333333333333</ele><time>2026-03-29T10:47:22.152Z</time></trkpt><trkpt lat="43.8999436" lon="11.3084753"><ele>501.0</ele><time>2026-03-29T10:47:23.152Z</time></trkpt><trkpt lat="43.8999296" lon="11.3085716"><ele>501.0</ele><time>2026-03-29T10:47:24.152Z</time></trkpt><trkpt lat="43.8998999" lon="11.3086523"><ele>501.0</ele><time>2026-03-29T10:47:25.152Z</time></trkpt><trkpt lat="43.8998606" lon="11.3087366"><ele>501.0</ele><time>2026-03-29T10:47:26.151Z</time></trkpt><trkpt lat="43.8997957" lon="11.3088159"><ele>501.0</ele><time>2026-03-29T10:47:27.152Z</time></trkpt><trkpt lat="43.8997248" lon="11.3089021"><ele>501.0</ele><time>2026-03-29T10:47:28.152Z</time></trkpt><trkpt lat="43.8996548" lon="11.3089673"><ele>501.0</ele><time>2026-03-29T10:47:29.152Z</time></trkpt><trkpt lat="43.8995873" lon="11.3090423"><ele>501.1666666666667</ele><time>2026-03-29T10:47:30.152Z</time></trkpt><trkpt lat="43.8995212" lon="11.3091101"><ele>501.33333333333337</ele><time>2026-03-29T10:47:31.152Z</time></trkpt><trkpt lat="43.8994557" lon="11.3091736"><ele>501.5</ele><time>2026-03-29T10:47:32.152Z</time></trkpt><trkpt lat="43.89938" lon="11.3092129"><ele>501.6666666666667</ele><time>2026-03-29T10:47:33.152Z</time></trkpt><trkpt lat="43.8993017" lon="11.3092319"><ele>501.83333333333337</ele><time>2026-03-29T10:47:34.152Z</time></trkpt><trkpt lat="43.8992111" lon="11.3092488"><ele>502.0</ele><time>2026-03-29T10:47:35.151Z</time></trkpt><trkpt lat="43.8991394" lon="11.3092714"><ele>499.20000000000005</ele><time>2026-03-29T10:47:36.152Z</time></trkpt><trkpt lat="43.8990367" lon="11.3092749"><ele>496.40000000000003</ele><time>2026-03-29T10:47:38.151Z</time></trkpt><trkpt lat="43.8989415" lon="11.3091529"><ele>493.59999999999997</ele><time>2026-03-29T10:47:40.152Z</time></trkpt><trkpt lat="43.8989084" lon="11.3090456"><ele>490.79999999999995</ele><time>2026-03-29T10:47:41.151Z</time></trkpt><trkpt lat="43.8988868" lon="11.3089264"><ele>488.0</ele><time>2026-03-29T10:47:42.152Z</time></trkpt><trkpt lat="43.898859" lon="11.3088148"><ele>487.66666666666663</ele><time>2026-03-29T10:47:43.152Z</time></trkpt><trkpt lat="43.8988255" lon="11.3086933"><ele>487.3333333333333</ele><time>2026-03-29T10:47:44.152Z</time></trkpt><trkpt lat="43.8987878" lon="11.3085722"><ele>487.0</ele><time>2026-03-29T10:47:45.152Z</time></trkpt><trkpt lat="43.8987494" lon="11.3084611"><ele>486.66666666666663</ele><time>2026-03-29T10:47:46.152Z</time></trkpt><trkpt lat="43.898724" lon="11.3083489"><ele>486.3333333333333</ele><time>2026-03-29T10:47:47.152Z</time></trkpt><trkpt lat="43.8987048" lon="11.3082583"><ele>486.0</ele><time>2026-03-29T10:47:48.152Z</time></trkpt><trkpt lat="43.8986832" lon="11.3081679"><ele>485.1666666666667</ele><time>2026-03-29T10:47:49.152Z</time></trkpt><trkpt lat="43.8986678" lon="11.308072"><ele>484.33333333333337</ele><time>2026-03-29T10:47:50.151Z</time></trkpt><trkpt lat="43.8986136" lon="11.3079362"><ele>483.5</ele><time>2026-03-29T10:47:52.152Z</time></trkpt><trkpt lat="43.8985098" lon="11.307919"><ele>482.6666666666667</ele><time>2026-03-29T10:47:54.152Z</time></trkpt><trkpt lat="43.8984559" lon="11.3079643"><ele>481.83333333333337</ele><time>2026-03-29T10:47:55.152Z</time></trkpt><trkpt lat="43.8984191" lon="11.308052"><ele>481.0</ele><time>2026-03-29T10:47:56.152Z</time></trkpt><trkpt lat="43.8983948" lon="11.3081707"><ele>479.00000000000006</ele><time>2026-03-29T10:47:57.152Z</time></trkpt><trkpt lat="43.8983624" lon="11.3082997"><ele>477.0</ele><time>2026-03-29T10:47:58.152Z</time></trkpt><trkpt lat="43.8983298" lon="11.3084118"><ele>475.0</ele><time>2026-03-29T10:47:59.152Z</time></trkpt><trkpt lat="43.8982946" lon="11.3085182"><ele>473.0</ele><time>2026-03-29T10:48:00.152Z</time></trkpt><trkpt lat="43.8982572" lon="11.3086097"><ele>471.00000000000006</ele><time>2026-03-29T10:48:01.152Z</time></trkpt><trkpt lat="43.8982196" lon="11.3086889"><ele>469.0</ele><time>2026-03-29T10:48:02.152Z</time></trkpt><trkpt lat="43.8981659" lon="11.308741"><ele>469.00000000000006</ele><time>2026-03-29T10:48:03.151Z</time></trkpt><trkpt lat="43.8980513" lon="11.3087281"><ele>469.0</ele><time>2026-03-29T10:48:05.152Z</time></trkpt><trkpt lat="43.897996" lon="11.3086639"><ele>469.0</ele><time>2026-03-29T10:48:06.152Z</time></trkpt><trkpt lat="43.8979558" lon="11.3085763"><ele>469.0</ele><time>2026-03-29T10:48:07.152Z</time></trkpt><trkpt lat="43.8979349" lon="11.3084577"><ele>469.00000000000006</ele><time>2026-03-29T10:48:08.152Z</time></trkpt><trkpt lat="43.8979274" lon="11.3083295"><ele>469.0</ele><time>2026-03-29T10:48:09.152Z</time></trkpt><trkpt lat="43.8979214" lon="11.3081984"><ele>468.2</ele><time>2026-03-29T10:48:10.152Z</time></trkpt><trkpt lat="43.8979058" lon="11.3080668"><ele>467.4</ele><time>2026-03-29T10:48:11.152Z</time></trkpt><trkpt lat="43.8978882" lon="11.3079303"><ele>466.6</ele><time>2026-03-29T10:48:12.152Z</time></trkpt><trkpt lat="43.8978686" lon="11.3077889"><ele>465.8</ele><time>2026-03-29T10:48:13.152Z</time></trkpt><trkpt lat="43.8978524" lon="11.3076523"><ele>465.0</ele><time>2026-03-29T10:48:14.152Z</time></trkpt><trkpt lat="43.8978378" lon="11.3075107"><ele>465.0</ele><time>2026-03-29T10:48:15.152Z</time></trkpt><trkpt lat="43.8978187" lon="11.3073781"><ele>465.0</ele><time>2026-03-29T10:48:16.152Z</time></trkpt><trkpt lat="43.8978043" lon="11.3072424"><ele>465.0</ele><time>2026-03-29T10:48:17.152Z</time></trkpt><trkpt lat="43.8977846" lon="11.3071145"><ele>465.0</ele><time>2026-03-29T10:48:18.152Z</time></trkpt><trkpt lat="43.8977455" lon="11.306994"><ele>465.0</ele><time>2026-03-29T10:48:19.152Z</time></trkpt><trkpt lat="43.8977008" lon="11.3068867"><ele>464.8</ele><time>2026-03-29T10:48:20.152Z</time></trkpt><trkpt lat="43.8976297" lon="11.3067944"><ele>464.6</ele><time>2026-03-29T10:48:21.152Z</time></trkpt><trkpt lat="43.8975464" lon="11.3067102"><ele>464.4</ele><time>2026-03-29T10:48:22.152Z</time></trkpt><trkpt lat="43.8974549" lon="11.3066248"><ele>464.2</ele><time>2026-03-29T10:48:23.152Z</time></trkpt><trkpt lat="43.897357" lon="11.3065486"><ele>464.0</ele><time>2026-03-29T10:48:24.151Z</time></trkpt><trkpt lat="43.8972616" lon="11.3064669"><ele>461.79999999999995</ele><time>2026-03-29T10:48:25.152Z</time></trkpt><trkpt lat="43.8971743" lon="11.3063858"><ele>459.59999999999997</ele><time>2026-03-29T10:48:26.152Z</time></trkpt><trkpt lat="43.897097" lon="11.3062914"><ele>457.4</ele><time>2026-03-29T10:48:27.152Z</time></trkpt><trkpt lat="43.897019" lon="11.3061954"><ele>455.2</ele><time>2026-03-29T10:48:28.152Z</time></trkpt><trkpt lat="43.8969361" lon="11.3061069"><ele>453.0</ele><time>2026-03-29T10:48:29.152Z</time></trkpt><trkpt lat="43.8968488" lon="11.3060327"><ele>451.2</ele><time>2026-03-29T10:48:30.152Z</time></trkpt><trkpt lat="43.8967461" lon="11.3059699"><ele>449.4</ele><time>2026-03-29T10:48:31.152Z</time></trkpt><trkpt lat="43.8966443" lon="11.3059148"><ele>447.59999999999997</ele><time>2026-03-29T10:48:32.152Z</time></trkpt><trkpt lat="43.8965444" lon="11.3058646"><ele>445.79999999999995</ele><time>2026-03-29T10:48:33.152Z</time></trkpt><trkpt lat="43.8964439" lon="11.3058101"><ele>444.0</ele><time>2026-03-29T10:48:34.152Z</time></trkpt><trkpt lat="43.8963455" lon="11.3057539"><ele>444.0</ele><time>2026-03-29T10:48:35.152Z</time></trkpt><trkpt lat="43.8962572" lon="11.3057008"><ele>444.0</ele><time>2026-03-29T10:48:36.152Z</time></trkpt><trkpt lat="43.896178" lon="11.3056533"><ele>444.0</ele><time>2026-03-29T10:48:37.152Z</time></trkpt><trkpt lat="43.8961028" lon="11.3056069"><ele>444.0</ele><time>2026-03-29T10:48:38.152Z</time></trkpt><trkpt lat="43.8960303" lon="11.3055437"><ele>444.0</ele><time>2026-03-29T10:48:39.152Z</time></trkpt><trkpt lat="43.8959614" lon="11.3054605"><ele>444.0</ele><time>2026-03-29T10:48:40.152Z</time></trkpt><trkpt lat="43.895908" lon="11.3053592"><ele>442.4</ele><time>2026-03-29T10:48:41.152Z</time></trkpt><trkpt lat="43.8958768" lon="11.3052512"><ele>440.79999999999995</ele><time>2026-03-29T10:48:42.152Z</time></trkpt><trkpt lat="43.8958724" lon="11.3051273"><ele>439.20000000000005</ele><time>2026-03-29T10:48:43.152Z</time></trkpt><trkpt lat="43.8958866" lon="11.3049826"><ele>437.6</ele><time>2026-03-29T10:48:44.151Z</time></trkpt><trkpt lat="43.8959064" lon="11.304823"><ele>436.0</ele><time>2026-03-29T10:48:45.152Z</time></trkpt><trkpt lat="43.8959232" lon="11.3046752"><ele>436.00000000000006</ele><time>2026-03-29T10:48:46.152Z</time></trkpt><trkpt lat="43.8959373" lon="11.3045358"><ele>436.0</ele><time>2026-03-29T10:48:47.152Z</time></trkpt><trkpt lat="43.8959434" lon="11.3044161"><ele>436.0</ele><time>2026-03-29T10:48:48.152Z</time></trkpt><trkpt lat="43.8959412" lon="11.3042949"><ele>436.0</ele><time>2026-03-29T10:48:49.151Z</time></trkpt><trkpt lat="43.8959303" lon="11.30418"><ele>436.00000000000006</ele><time>2026-03-29T10:48:50.151Z</time></trkpt><trkpt lat="43.8959062" lon="11.3040763"><ele>436.0</ele><time>2026-03-29T10:48:51.152Z</time></trkpt><trkpt lat="43.8958667" lon="11.3039722"><ele>431.6</ele><time>2026-03-29T10:48:52.152Z</time></trkpt><trkpt lat="43.895812" lon="11.3038826"><ele>427.20000000000005</ele><time>2026-03-29T10:48:53.152Z</time></trkpt><trkpt lat="43.8957261" lon="11.3038128"><ele>422.79999999999995</ele><time>2026-03-29T10:48:54.152Z</time></trkpt><trkpt lat="43.8956176" lon="11.3037657"><ele>418.4</ele><time>2026-03-29T10:48:55.152Z</time></trkpt><trkpt lat="43.895497" lon="11.3037277"><ele>414.0</ele><time>2026-03-29T10:48:56.152Z</time></trkpt><trkpt lat="43.8953818" lon="11.3036876"><ele>414.0</ele><time>2026-03-29T10:48:57.152Z</time></trkpt><trkpt lat="43.8952697" lon="11.3036242"><ele>414.0</ele><time>2026-03-29T10:48:58.152Z</time></trkpt><trkpt lat="43.895156" lon="11.3035448"><ele>414.0</ele><time>2026-03-29T10:48:59.152Z</time></trkpt><trkpt lat="43.8950405" lon="11.3034473"><ele>414.0</ele><time>2026-03-29T10:49:00.152Z</time></trkpt><trkpt lat="43.8949255" lon="11.3033546"><ele>413.75</ele><time>2026-03-29T10:49:01.152Z</time></trkpt><trkpt lat="43.8948137" lon="11.3032655"><ele>413.5</ele><time>2026-03-29T10:49:02.152Z</time></trkpt><trkpt lat="43.8947063" lon="11.3031849"><ele>413.25</ele><time>2026-03-29T10:49:03.152Z</time></trkpt><trkpt lat="43.8946045" lon="11.3031093"><ele>413.0</ele><time>2026-03-29T10:49:04.152Z</time></trkpt><trkpt lat="43.8945124" lon="11.3030338"><ele>411.79999999999995</ele><time>2026-03-29T10:49:05.152Z</time></trkpt><trkpt lat="43.8944284" lon="11.3029676"><ele>410.6</ele><time>2026-03-29T10:49:06.152Z</time></trkpt><trkpt lat="43.8943404" lon="11.3028989"><ele>409.4</ele><time>2026-03-29T10:49:07.152Z</time></trkpt><trkpt lat="43.8942561" lon="11.3028316"><ele>408.20000000000005</ele><time>2026-03-29T10:49:08.152Z</time></trkpt><trkpt lat="43.8941659" lon="11.3027746"><ele>407.0</ele><time>2026-03-29T10:49:09.152Z</time></trkpt><trkpt lat="43.8940718" lon="11.3027282"><ele>405.8</ele><time>2026-03-29T10:49:10.152Z</time></trkpt><trkpt lat="43.8939718" lon="11.3026937"><ele>404.6</ele><time>2026-03-29T10:49:11.151Z</time></trkpt><trkpt lat="43.8938683" lon="11.3026636"><ele>403.40000000000003</ele><time>2026-03-29T10:49:12.152Z</time></trkpt><trkpt lat="43.893761" lon="11.3026422"><ele>402.20000000000005</ele><time>2026-03-29T10:49:13.152Z</time></trkpt><trkpt lat="43.8936529" lon="11.3026317"><ele>401.0</ele><time>2026-03-29T10:49:14.152Z</time></trkpt><trkpt lat="43.8935463" lon="11.3026244"><ele>401.0</ele><time>2026-03-29T10:49:15.152Z</time></trkpt><trkpt lat="43.893444" lon="11.3026156"><ele>401.0</ele><time>2026-03-29T10:49:16.152Z</time></trkpt><trkpt lat="43.8933434" lon="11.3025886"><ele>401.0</ele><time>2026-03-29T10:49:17.151Z</time></trkpt><trkpt lat="43.893246" lon="11.3025365"><ele>401.0</ele><time>2026-03-29T10:49:18.152Z</time></trkpt><trkpt lat="43.8931558" lon="11.3024832"><ele>401.0</ele><time>2026-03-29T10:49:19.152Z</time></trkpt><trkpt lat="43.8930733" lon="11.3024108"><ele>399.6</ele><time>2026-03-29T10:49:20.152Z</time></trkpt><trkpt lat="43.8929923" lon="11.3023203"><ele>398.20000000000005</ele><time>2026-03-29T10:49:21.152Z</time></trkpt><trkpt lat="43.8929239" lon="11.3022157"><ele>396.79999999999995</ele><time>2026-03-29T10:49:22.152Z</time></trkpt><trkpt lat="43.8928749" lon="11.3020936"><ele>395.4</ele><time>2026-03-29T10:49:23.152Z</time></trkpt><trkpt lat="43.8928443" lon="11.301955"><ele>394.0</ele><time>2026-03-29T10:49:24.152Z</time></trkpt><trkpt lat="43.892833" lon="11.3018135"><ele>392.5</ele><time>2026-03-29T10:49:25.152Z</time></trkpt><trkpt lat="43.8928356" lon="11.3016685"><ele>391.0</ele><time>2026-03-29T10:49:26.152Z</time></trkpt><trkpt lat="43.8928497" lon="11.3015169"><ele>389.5</ele><time>2026-03-29T10:49:27.152Z</time></trkpt><trkpt lat="43.8928759" lon="11.3013604"><ele>388.0</ele><time>2026-03-29T10:49:28.151Z</time></trkpt><trkpt lat="43.8929094" lon="11.3011947"><ele>386.5</ele><time>2026-03-29T10:49:29.151Z</time></trkpt><trkpt lat="43.8929407" lon="11.30103"><ele>385.0</ele><time>2026-03-29T10:49:30.151Z</time></trkpt><trkpt lat="43.8929699" lon="11.3008752"><ele>383.5</ele><time>2026-03-29T10:49:31.152Z</time></trkpt><trkpt lat="43.8929977" lon="11.3007245"><ele>382.0</ele><time>2026-03-29T10:49:32.151Z</time></trkpt><trkpt lat="43.8930246" lon="11.3005727"><ele>381.20000000000005</ele><time>2026-03-29T10:49:33.151Z</time></trkpt><trkpt lat="43.8930568" lon="11.3004388"><ele>380.4</ele><time>2026-03-29T10:49:34.152Z</time></trkpt><trkpt lat="43.8931007" lon="11.3003174"><ele>379.6</ele><time>2026-03-29T10:49:35.152Z</time></trkpt><trkpt lat="43.8931521" lon="11.3002136"><ele>378.79999999999995</ele><time>2026-03-29T10:49:36.152Z</time></trkpt><trkpt lat="43.8932207" lon="11.3001313"><ele>378.0</ele><time>2026-03-29T10:49:37.152Z</time></trkpt><trkpt lat="43.8933119" lon="11.3000701"><ele>378.0</ele><time>2026-03-29T10:49:38.152Z</time></trkpt><trkpt lat="43.8934076" lon="11.3000169"><ele>378.0</ele><time>2026-03-29T10:49:39.152Z</time></trkpt><trkpt lat="43.8935018" lon="11.2999844"><ele>378.0</ele><time>2026-03-29T10:49:40.152Z</time></trkpt><trkpt lat="43.8935936" lon="11.2999593"><ele>378.0</ele><time>2026-03-29T10:49:41.152Z</time></trkpt><trkpt lat="43.8936781" lon="11.2999292"><ele>378.0</ele><time>2026-03-29T10:49:42.152Z</time></trkpt><trkpt lat="43.8937545" lon="11.299889"><ele>378.1666666666667</ele><time>2026-03-29T10:49:43.152Z</time></trkpt><trkpt lat="43.8938221" lon="11.2998339"><ele>378.3333333333333</ele><time>2026-03-29T10:49:44.152Z</time></trkpt><trkpt lat="43.8938831" lon="11.2997624"><ele>378.5</ele><time>2026-03-29T10:49:45.152Z</time></trkpt><trkpt lat="43.8939365" lon="11.2996659"><ele>378.66666666666663</ele><time>2026-03-29T10:49:46.151Z</time></trkpt><trkpt lat="43.8939689" lon="11.2995459"><ele>378.8333333333333</ele><time>2026-03-29T10:49:47.151Z</time></trkpt><trkpt lat="43.8939804" lon="11.2994145"><ele>379.0</ele><time>2026-03-29T10:49:48.152Z</time></trkpt><trkpt lat="43.8939715" lon="11.2992993"><ele>378.0</ele><time>2026-03-29T10:49:49.152Z</time></trkpt><trkpt lat="43.8939385" lon="11.2991863"><ele>377.0</ele><time>2026-03-29T10:49:50.152Z</time></trkpt><trkpt lat="43.8938718" lon="11.2990657"><ele>376.0</ele><time>2026-03-29T10:49:51.152Z</time></trkpt><trkpt lat="43.8937942" lon="11.2989636"><ele>375.0</ele><time>2026-03-29T10:49:52.152Z</time></trkpt><trkpt lat="43.8936897" lon="11.2988861"><ele>374.0</ele><time>2026-03-29T10:49:53.152Z</time></trkpt><trkpt lat="43.8935747" lon="11.2988129"><ele>371.5</ele><time>2026-03-29T10:49:54.151Z</time></trkpt><trkpt lat="43.8934626" lon="11.2987415"><ele>369.0</ele><time>2026-03-29T10:49:55.152Z</time></trkpt><trkpt lat="43.8933492" lon="11.2986799"><ele>366.5</ele><time>2026-03-29T10:49:56.151Z</time></trkpt><trkpt lat="43.8932357" lon="11.2986104"><ele>364.0</ele><time>2026-03-29T10:49:57.152Z</time></trkpt><trkpt lat="43.8931229" lon="11.2985445"><ele>363.75</ele><time>2026-03-29T10:49:58.152Z</time></trkpt><trkpt lat="43.8930118" lon="11.2984877"><ele>363.5</ele><time>2026-03-29T10:49:59.152Z</time></trkpt><trkpt lat="43.8929051" lon="11.2984263"><ele>363.25</ele><time>2026-03-29T10:50:00.152Z</time></trkpt><trkpt lat="43.8927971" lon="11.2983632"><ele>363.0</ele><time>2026-03-29T10:50:01.152Z</time></trkpt><trkpt lat="43.8926904" lon="11.298303"><ele>362.59999999999997</ele><time>2026-03-29T10:50:02.152Z</time></trkpt><trkpt lat="43.8925858" lon="11.2982455"><ele>362.2</ele><time>2026-03-29T10:50:03.152Z</time></trkpt><trkpt lat="43.8924818" lon="11.2981832"><ele>361.8</ele><time>2026-03-29T10:50:04.152Z</time></trkpt><trkpt lat="43.8923821" lon="11.2981211"><ele>361.4</ele><time>2026-03-29T10:50:05.152Z</time></trkpt><trkpt lat="43.8922857" lon="11.2980609"><ele>361.0</ele><time>2026-03-29T10:50:06.152Z</time></trkpt><trkpt lat="43.8921906" lon="11.2979975"><ele>359.20000000000005</ele><time>2026-03-29T10:50:07.152Z</time></trkpt><trkpt lat="43.8920945" lon="11.2979417"><ele>357.40000000000003</ele><time>2026-03-29T10:50:08.152Z</time></trkpt><trkpt lat="43.8919957" lon="11.2978939"><ele>355.6</ele><time>2026-03-29T10:50:09.152Z</time></trkpt><trkpt lat="43.8918935" lon="11.2978711"><ele>353.8</ele><time>2026-03-29T10:50:10.151Z</time></trkpt><trkpt lat="43.8917932" lon="11.2978713"><ele>352.0</ele><time>2026-03-29T10:50:11.152Z</time></trkpt><trkpt lat="43.8916975" lon="11.2979058"><ele>352.0</ele><time>2026-03-29T10:50:12.152Z</time></trkpt><trkpt lat="43.8916069" lon="11.2979535"><ele>352.0</ele><time>2026-03-29T10:50:13.152Z</time></trkpt><trkpt lat="43.8915243" lon="11.2980299"><ele>352.0</ele><time>2026-03-29T10:50:14.152Z</time></trkpt><trkpt lat="43.891442" lon="11.2981455"><ele>352.0</ele><time>2026-03-29T10:50:15.152Z</time></trkpt><trkpt lat="43.8913773" lon="11.2982903"><ele>352.0</ele><time>2026-03-29T10:50:16.152Z</time></trkpt><trkpt lat="43.8913063" lon="11.2984506"><ele>352.0</ele><time>2026-03-29T10:50:17.152Z</time></trkpt><trkpt lat="43.891233" lon="11.2985989"><ele>352.0</ele><time>2026-03-29T10:50:18.152Z</time></trkpt><trkpt lat="43.8911651" lon="11.2987315"><ele>352.0</ele><time>2026-03-29T10:50:19.152Z</time></trkpt><trkpt lat="43.8911045" lon="11.2988605"><ele>352.0</ele><time>2026-03-29T10:50:20.152Z</time></trkpt><trkpt lat="43.8910496" lon="11.2989841"><ele>351.3333333333333</ele><time>2026-03-29T10:50:21.152Z</time></trkpt><trkpt lat="43.8909902" lon="11.2990992"><ele>350.66666666666663</ele><time>2026-03-29T10:50:22.152Z</time></trkpt><trkpt lat="43.8909288" lon="11.2991942"><ele>350.0</ele><time>2026-03-29T10:50:23.152Z</time></trkpt><trkpt lat="43.8908546" lon="11.2992568"><ele>349.3333333333333</ele><time>2026-03-29T10:50:24.152Z</time></trkpt><trkpt lat="43.8907774" lon="11.2992912"><ele>348.6666666666667</ele><time>2026-03-29T10:50:25.152Z</time></trkpt><trkpt lat="43.8906967" lon="11.2992848"><ele>348.0</ele><time>2026-03-29T10:50:26.152Z</time></trkpt><trkpt lat="43.8906241" lon="11.299249"><ele>348.0</ele><time>2026-03-29T10:50:27.151Z</time></trkpt><trkpt lat="43.8905578" lon="11.299182"><ele>348.0</ele><time>2026-03-29T10:50:28.151Z</time></trkpt><trkpt lat="43.8905056" lon="11.2990889"><ele>348.0</ele><time>2026-03-29T10:50:29.152Z</time></trkpt><trkpt lat="43.8904758" lon="11.2989781"><ele>348.0</ele><time>2026-03-29T10:50:30.152Z</time></trkpt><trkpt lat="43.8904756" lon="11.298865"><ele>348.0</ele><time>2026-03-29T10:50:31.152Z</time></trkpt><trkpt lat="43.890499" lon="11.2987533"><ele>348.0</ele><time>2026-03-29T10:50:32.152Z</time></trkpt><trkpt lat="43.8905412" lon="11.2986307"><ele>346.2</ele><time>2026-03-29T10:50:33.152Z</time></trkpt><trkpt lat="43.8905923" lon="11.2985048"><ele>344.4</ele><time>2026-03-29T10:50:34.152Z</time></trkpt><trkpt lat="43.8906488" lon="11.2983741"><ele>342.59999999999997</ele><time>2026-03-29T10:50:35.152Z</time></trkpt><trkpt lat="43.8907171" lon="11.2982451"><ele>340.79999999999995</ele><time>2026-03-29T10:50:36.152Z</time></trkpt><trkpt lat="43.8907854" lon="11.2981107"><ele>339.0</ele><time>2026-03-29T10:50:37.152Z</time></trkpt><trkpt lat="43.8908508" lon="11.2979754"><ele>340.0</ele><time>2026-03-29T10:50:38.152Z</time></trkpt><trkpt lat="43.8909204" lon="11.2978318"><ele>341.0</ele><time>2026-03-29T10:50:39.152Z</time></trkpt><trkpt lat="43.8909848" lon="11.2976916"><ele>342.0</ele><time>2026-03-29T10:50:40.152Z</time></trkpt><trkpt lat="43.8910436" lon="11.2975453"><ele>343.0</ele><time>2026-03-29T10:50:41.152Z</time></trkpt><trkpt lat="43.8910986" lon="11.2974007"><ele>341.25</ele><time>2026-03-29T10:50:42.152Z</time></trkpt><trkpt lat="43.8911455" lon="11.2972337"><ele>339.5</ele><time>2026-03-29T10:50:43.152Z</time></trkpt><trkpt lat="43.8911762" lon="11.2970376"><ele>337.75</ele><time>2026-03-29T10:50:44.152Z</time></trkpt><trkpt lat="43.8911965" lon="11.2968303"><ele>336.0</ele><time>2026-03-29T10:50:45.152Z</time></trkpt><trkpt lat="43.8912184" lon="11.2966285"><ele>336.0</ele><time>2026-03-29T10:50:46.152Z</time></trkpt><trkpt lat="43.8912397" lon="11.2964283"><ele>336.0</ele><time>2026-03-29T10:50:47.152Z</time></trkpt><trkpt lat="43.8912647" lon="11.2962373"><ele>336.0</ele><time>2026-03-29T10:50:48.152Z</time></trkpt><trkpt lat="43.891292" lon="11.2960566"><ele>336.0</ele><time>2026-03-29T10:50:49.152Z</time></trkpt><trkpt lat="43.8913322" lon="11.2958978"><ele>334.25</ele><time>2026-03-29T10:50:50.152Z</time></trkpt><trkpt lat="43.8913927" lon="11.2957467"><ele>332.5</ele><time>2026-03-29T10:50:51.152Z</time></trkpt><trkpt lat="43.8914657" lon="11.2956058"><ele>330.75</ele><time>2026-03-29T10:50:52.152Z</time></trkpt><trkpt lat="43.8915466" lon="11.2954921"><ele>329.0</ele><time>2026-03-29T10:50:53.152Z</time></trkpt><trkpt lat="43.8916547" lon="11.2954023"><ele>327.5</ele><time>2026-03-29T10:50:54.152Z</time></trkpt><trkpt lat="43.8917666" lon="11.2953099"><ele>326.0</ele><time>2026-03-29T10:50:55.152Z</time></trkpt><trkpt lat="43.8918887" lon="11.295214"><ele>324.5</ele><time>2026-03-29T10:50:56.152Z</time></trkpt><trkpt lat="43.8920032" lon="11.2951137"><ele>323.0</ele><time>2026-03-29T10:50:57.152Z</time></trkpt><trkpt lat="43.8921249" lon="11.295025"><ele>323.0</ele><time>2026-03-29T10:50:58.152Z</time></trkpt><trkpt lat="43.8922422" lon="11.2949372"><ele>323.0</ele><time>2026-03-29T10:50:59.152Z</time></trkpt><trkpt lat="43.8923569" lon="11.2948517"><ele>323.0</ele><time>2026-03-29T10:51:00.152Z</time></trkpt><trkpt lat="43.8924659" lon="11.2947637"><ele>323.0</ele><time>2026-03-29T10:51:01.152Z</time></trkpt><trkpt lat="43.8925631" lon="11.294681"><ele>324.0</ele><time>2026-03-29T10:51:02.152Z</time></trkpt><trkpt lat="43.8926534" lon="11.2946158"><ele>325.0</ele><time>2026-03-29T10:51:03.152Z</time></trkpt><trkpt lat="43.8927311" lon="11.2945614"><ele>326.0</ele><time>2026-03-29T10:51:04.151Z</time></trkpt><trkpt lat="43.8928056" lon="11.2945123"><ele>327.0</ele><time>2026-03-29T10:51:05.152Z</time></trkpt><trkpt lat="43.8928695" lon="11.2944554"><ele>328.0</ele><time>2026-03-29T10:51:06.152Z</time></trkpt><trkpt lat="43.8929204" lon="11.2943637"><ele>329.0</ele><time>2026-03-29T10:51:07.152Z</time></trkpt><trkpt lat="43.8929527" lon="11.2942296"><ele>329.0</ele><time>2026-03-29T10:51:08.152Z</time></trkpt><trkpt lat="43.8929779" lon="11.2940685"><ele>329.0</ele><time>2026-03-29T10:51:09.152Z</time></trkpt><trkpt lat="43.8930178" lon="11.2939403"><ele>329.0</ele><time>2026-03-29T10:51:10.152Z</time></trkpt><trkpt lat="43.8930689" lon="11.2938447"><ele>329.0</ele><time>2026-03-29T10:51:11.151Z</time></trkpt><trkpt lat="43.8931323" lon="11.2937721"><ele>329.0</ele><time>2026-03-29T10:51:12.152Z</time></trkpt><trkpt lat="43.8932156" lon="11.293715"><ele>329.2</ele><time>2026-03-29T10:51:13.152Z</time></trkpt><trkpt lat="43.8933004" lon="11.2936652"><ele>329.4</ele><time>2026-03-29T10:51:14.152Z</time></trkpt><trkpt lat="43.8933916" lon="11.2936108"><ele>329.6</ele><time>2026-03-29T10:51:15.152Z</time></trkpt><trkpt lat="43.8934858" lon="11.293526"><ele>329.8</ele><time>2026-03-29T10:51:16.152Z</time></trkpt><trkpt lat="43.8935755" lon="11.2934285"><ele>330.0</ele><time>2026-03-29T10:51:17.152Z</time></trkpt><trkpt lat="43.893647" lon="11.2933408"><ele>330.0</ele><time>2026-03-29T10:51:18.152Z</time></trkpt><trkpt lat="43.8937067" lon="11.293256"><ele>330.0</ele><time>2026-03-29T10:51:19.152Z</time></trkpt><trkpt lat="43.8937523" lon="11.2931695"><ele>330.0</ele><time>2026-03-29T10:51:20.152Z</time></trkpt><trkpt lat="43.8937878" lon="11.2930189"><ele>330.0</ele><time>2026-03-29T10:51:22.152Z</time></trkpt><trkpt lat="43.8938099" lon="11.2929277"><ele>330.0</ele><time>2026-03-29T10:51:24.152Z</time></trkpt><trkpt lat="43.8938121" lon="11.2928024"><ele>330.0</ele><time>2026-03-29T10:51:26.152Z</time></trkpt><trkpt lat="43.8938078" lon="11.2926864"><ele>329.25</ele><time>2026-03-29T10:51:27.152Z</time></trkpt><trkpt lat="43.8937919" lon="11.2925237"><ele>328.5</ele><time>2026-03-29T10:51:28.152Z</time></trkpt><trkpt lat="43.8937644" lon="11.2923302"><ele>327.75</ele><time>2026-03-29T10:51:29.152Z</time></trkpt><trkpt lat="43.8937366" lon="11.2921512"><ele>327.0</ele><time>2026-03-29T10:51:30.151Z</time></trkpt><trkpt lat="43.8937432" lon="11.2919542"><ele>325.75</ele><time>2026-03-29T10:51:31.152Z</time></trkpt><trkpt lat="43.8937643" lon="11.2917698"><ele>324.5</ele><time>2026-03-29T10:51:32.152Z</time></trkpt><trkpt lat="43.8937884" lon="11.2915828"><ele>323.25</ele><time>2026-03-29T10:51:33.152Z</time></trkpt><trkpt lat="43.8938185" lon="11.2913863"><ele>322.0</ele><time>2026-03-29T10:51:34.152Z</time></trkpt><trkpt lat="43.8938401" lon="11.2912018"><ele>321.0</ele><time>2026-03-29T10:51:35.152Z</time></trkpt><trkpt lat="43.893853" lon="11.2910216"><ele>320.0</ele><time>2026-03-29T10:51:36.152Z</time></trkpt><trkpt lat="43.8938632" lon="11.2908446"><ele>319.0</ele><time>2026-03-29T10:51:37.152Z</time></trkpt><trkpt lat="43.8938608" lon="11.2906682"><ele>318.0</ele><time>2026-03-29T10:51:38.152Z</time></trkpt><trkpt lat="43.8938451" lon="11.2904802"><ele>318.0</ele><time>2026-03-29T10:51:39.152Z</time></trkpt><trkpt lat="43.8938297" lon="11.290303"><ele>318.0</ele><time>2026-03-29T10:51:40.152Z</time></trkpt><trkpt lat="43.8938121" lon="11.2901284"><ele>318.0</ele><time>2026-03-29T10:51:41.152Z</time></trkpt><trkpt lat="43.8937961" lon="11.289953"><ele>318.0</ele><time>2026-03-29T10:51:42.152Z</time></trkpt><trkpt lat="43.8937742" lon="11.2897846"><ele>319.2</ele><time>2026-03-29T10:51:43.152Z</time></trkpt><trkpt lat="43.8937378" lon="11.2896327"><ele>320.4</ele><time>2026-03-29T10:51:44.151Z</time></trkpt><trkpt lat="43.8936917" lon="11.2895053"><ele>321.59999999999997</ele><time>2026-03-29T10:51:45.152Z</time></trkpt><trkpt lat="43.8936405" lon="11.2893827"><ele>322.8</ele><time>2026-03-29T10:51:46.152Z</time></trkpt><trkpt lat="43.8935797" lon="11.289263"><ele>324.0</ele><time>2026-03-29T10:51:47.152Z</time></trkpt><trkpt lat="43.8935097" lon="11.289148"><ele>324.0</ele><time>2026-03-29T10:51:48.152Z</time></trkpt><trkpt lat="43.8934347" lon="11.2890429"><ele>324.0</ele><time>2026-03-29T10:51:49.152Z</time></trkpt><trkpt lat="43.8933606" lon="11.2889484"><ele>324.0</ele><time>2026-03-29T10:51:50.152Z</time></trkpt><trkpt lat="43.893287" lon="11.2888603"><ele>324.0</ele><time>2026-03-29T10:51:51.152Z</time></trkpt><trkpt lat="43.8932258" lon="11.2887619"><ele>324.0</ele><time>2026-03-29T10:51:52.152Z</time></trkpt><trkpt lat="43.8931769" lon="11.2886459"><ele>320.5</ele><time>2026-03-29T10:51:53.152Z</time></trkpt><trkpt lat="43.8931346" lon="11.2885096"><ele>317.0</ele><time>2026-03-29T10:51:54.152Z</time></trkpt><trkpt lat="43.8930988" lon="11.2883442"><ele>313.5</ele><time>2026-03-29T10:51:55.152Z</time></trkpt><trkpt lat="43.8930778" lon="11.2881602"><ele>310.0</ele><time>2026-03-29T10:51:56.152Z</time></trkpt><trkpt lat="43.8930603" lon="11.2879728"><ele>310.0</ele><time>2026-03-29T10:51:57.152Z</time></trkpt><trkpt lat="43.8930369" lon="11.2877867"><ele>310.0</ele><time>2026-03-29T10:51:58.151Z</time></trkpt><trkpt lat="43.8930072" lon="11.2876194"><ele>310.0</ele><time>2026-03-29T10:51:59.152Z</time></trkpt><trkpt lat="43.8929768" lon="11.2874645"><ele>310.0</ele><time>2026-03-29T10:52:00.152Z</time></trkpt><trkpt lat="43.8929439" lon="11.2873236"><ele>310.4</ele><time>2026-03-29T10:52:01.152Z</time></trkpt><trkpt lat="43.8928971" lon="11.2871884"><ele>310.8</ele><time>2026-03-29T10:52:02.152Z</time></trkpt><trkpt lat="43.8928334" lon="11.2870647"><ele>311.2</ele><time>2026-03-29T10:52:03.152Z</time></trkpt><trkpt lat="43.8927695" lon="11.2869452"><ele>311.6</ele><time>2026-03-29T10:52:04.152Z</time></trkpt><trkpt lat="43.892709" lon="11.2868513"><ele>312.0</ele><time>2026-03-29T10:52:05.152Z</time></trkpt><trkpt lat="43.8926635" lon="11.2867406"><ele>312.0</ele><time>2026-03-29T10:52:06.152Z</time></trkpt><trkpt lat="43.8926504" lon="11.2866454"><ele>312.0</ele><time>2026-03-29T10:52:07.152Z</time></trkpt><trkpt lat="43.8926702" lon="11.2865425"><ele>312.0</ele><time>2026-03-29T10:52:08.152Z</time></trkpt><trkpt lat="43.8927122" lon="11.2864367"><ele>312.0</ele><time>2026-03-29T10:52:09.152Z</time></trkpt><trkpt lat="43.8927532" lon="11.2863317"><ele>312.0</ele><time>2026-03-29T10:52:10.152Z</time></trkpt><trkpt lat="43.8927652" lon="11.2862242"><ele>312.0</ele><time>2026-03-29T10:52:11.152Z</time></trkpt><trkpt lat="43.8927444" lon="11.2861226"><ele>311.0</ele><time>2026-03-29T10:52:12.152Z</time></trkpt><trkpt lat="43.8926525" lon="11.2860466"><ele>310.0</ele><time>2026-03-29T10:52:14.152Z</time></trkpt><trkpt lat="43.8925806" lon="11.2860364"><ele>309.0</ele><time>2026-03-29T10:52:15.152Z</time></trkpt><trkpt lat="43.8925116" lon="11.2860444"><ele>308.0</ele><time>2026-03-29T10:52:16.152Z</time></trkpt><trkpt lat="43.892401" lon="11.2861221"><ele>307.0</ele><time>2026-03-29T10:52:18.151Z</time></trkpt><trkpt lat="43.8923501" lon="11.2862068"><ele>306.16666666666663</ele><time>2026-03-29T10:52:19.152Z</time></trkpt><trkpt lat="43.8923032" lon="11.286291"><ele>305.3333333333333</ele><time>2026-03-29T10:52:20.152Z</time></trkpt><trkpt lat="43.8922553" lon="11.286352"><ele>304.5</ele><time>2026-03-29T10:52:21.152Z</time></trkpt><trkpt lat="43.892191" lon="11.2863817"><ele>303.6666666666667</ele><time>2026-03-29T10:52:22.152Z</time></trkpt><trkpt lat="43.892101" lon="11.2863827"><ele>302.83333333333337</ele><time>2026-03-29T10:52:23.152Z</time></trkpt><trkpt lat="43.8920002" lon="11.2863532"><ele>302.0</ele><time>2026-03-29T10:52:24.152Z</time></trkpt><trkpt lat="43.8919244" lon="11.2863346"><ele>302.0</ele><time>2026-03-29T10:52:25.152Z</time></trkpt><trkpt lat="43.8918337" lon="11.2862695"><ele>302.0</ele><time>2026-03-29T10:52:27.152Z</time></trkpt><trkpt lat="43.8918412" lon="11.2861334"><ele>302.0</ele><time>2026-03-29T10:52:29.152Z</time></trkpt><trkpt lat="43.8918991" lon="11.2860204"><ele>302.0</ele><time>2026-03-29T10:52:30.152Z</time></trkpt><trkpt lat="43.8919913" lon="11.2858841"><ele>302.0</ele><time>2026-03-29T10:52:31.152Z</time></trkpt><trkpt lat="43.8920985" lon="11.2857399"><ele>306.33333333333337</ele><time>2026-03-29T10:52:32.152Z</time></trkpt><trkpt lat="43.8922238" lon="11.2855788"><ele>310.6666666666667</ele><time>2026-03-29T10:52:33.152Z</time></trkpt><trkpt lat="43.8923699" lon="11.2854192"><ele>315.0</ele><time>2026-03-29T10:52:34.151Z</time></trkpt><trkpt lat="43.8925425" lon="11.2852974"><ele>311.0</ele><time>2026-03-29T10:52:35.152Z</time></trkpt><trkpt lat="43.8927404" lon="11.2851816"><ele>307.0</ele><time>2026-03-29T10:52:36.152Z</time></trkpt><trkpt lat="43.892945" lon="11.285081"><ele>303.0</ele><time>2026-03-29T10:52:37.152Z</time></trkpt><trkpt lat="43.8931499" lon="11.2849757"><ele>303.0</ele><time>2026-03-29T10:52:38.152Z</time></trkpt><trkpt lat="43.8933656" lon="11.2848434"><ele>303.0</ele><time>2026-03-29T10:52:39.152Z</time></trkpt><trkpt lat="43.8935832" lon="11.2847049"><ele>301.5</ele><time>2026-03-29T10:52:40.151Z</time></trkpt><trkpt lat="43.8938082" lon="11.2845665"><ele>300.0</ele><time>2026-03-29T10:52:41.152Z</time></trkpt><trkpt lat="43.8940376" lon="11.2844307"><ele>302.0</ele><time>2026-03-29T10:52:42.152Z</time></trkpt><trkpt lat="43.8942688" lon="11.2842922"><ele>304.0</ele><time>2026-03-29T10:52:43.152Z</time></trkpt><trkpt lat="43.8944999" lon="11.2841528"><ele>304.0</ele><time>2026-03-29T10:52:44.151Z</time></trkpt><trkpt lat="43.8947323" lon="11.2840142"><ele>304.0</ele><time>2026-03-29T10:52:45.152Z</time></trkpt><trkpt lat="43.89496" lon="11.2838791"><ele>301.5</ele><time>2026-03-29T10:52:46.152Z</time></trkpt><trkpt lat="43.8951847" lon="11.2837463"><ele>299.0</ele><time>2026-03-29T10:52:47.152Z</time></trkpt><trkpt lat="43.8953958" lon="11.2836186"><ele>299.0</ele><time>2026-03-29T10:52:48.152Z</time></trkpt><trkpt lat="43.8955943" lon="11.2835019"><ele>299.0</ele><time>2026-03-29T10:52:49.152Z</time></trkpt><trkpt lat="43.8957766" lon="11.2833933"><ele>299.0</ele><time>2026-03-29T10:52:50.152Z</time></trkpt><trkpt lat="43.8959478" lon="11.2832933"><ele>299.0</ele><time>2026-03-29T10:52:51.152Z</time></trkpt><trkpt lat="43.8961006" lon="11.2832004"><ele>299.0</ele><time>2026-03-29T10:52:52.151Z</time></trkpt><trkpt lat="43.8962338" lon="11.2831205"><ele>299.0</ele><time>2026-03-29T10:52:53.152Z</time></trkpt><trkpt lat="43.8963592" lon="11.283052"><ele>299.0</ele><time>2026-03-29T10:52:54.152Z</time></trkpt><trkpt lat="43.8964797" lon="11.2829883"><ele>299.0</ele><time>2026-03-29T10:52:55.152Z</time></trkpt><trkpt lat="43.896604" lon="11.28293"><ele>299.0</ele><time>2026-03-29T10:52:56.152Z</time></trkpt><trkpt lat="43.8967287" lon="11.282889"><ele>299.0</ele><time>2026-03-29T10:52:57.151Z</time></trkpt><trkpt lat="43.8968506" lon="11.2828774"><ele>299.0</ele><time>2026-03-29T10:52:58.152Z</time></trkpt><trkpt lat="43.8969575" lon="11.28288"><ele>301.8</ele><time>2026-03-29T10:52:59.152Z</time></trkpt><trkpt lat="43.8970536" lon="11.2829001"><ele>304.59999999999997</ele><time>2026-03-29T10:53:00.152Z</time></trkpt><trkpt lat="43.8971319" lon="11.2829188"><ele>307.4</ele><time>2026-03-29T10:53:01.152Z</time></trkpt><trkpt lat="43.8972155" lon="11.282801"><ele>310.2</ele><time>2026-03-29T10:53:03.152Z</time></trkpt><trkpt lat="43.8972227" lon="11.2826784"><ele>313.0</ele><time>2026-03-29T10:53:04.152Z</time></trkpt><trkpt lat="43.8972184" lon="11.2825331"><ele>313.0</ele><time>2026-03-29T10:53:05.152Z</time></trkpt><trkpt lat="43.89722" lon="11.28235"><ele>313.0</ele><time>2026-03-29T10:53:06.152Z</time></trkpt><trkpt lat="43.8972391" lon="11.2821469"><ele>313.0</ele><time>2026-03-29T10:53:07.152Z</time></trkpt><trkpt lat="43.8972624" lon="11.2819042"><ele>314.66666666666663</ele><time>2026-03-29T10:53:08.152Z</time></trkpt><trkpt lat="43.8972793" lon="11.281647"><ele>316.3333333333333</ele><time>2026-03-29T10:53:09.152Z</time></trkpt><trkpt lat="43.8973004" lon="11.281358"><ele>318.0</ele><time>2026-03-29T10:53:10.152Z</time></trkpt><trkpt lat="43.8973113" lon="11.2810462"><ele>318.0</ele><time>2026-03-29T10:53:11.152Z</time></trkpt><trkpt lat="43.8973054" lon="11.280711"><ele>318.0</ele><time>2026-03-29T10:53:12.152Z</time></trkpt><trkpt lat="43.8972855" lon="11.2803681"><ele>318.5</ele><time>2026-03-29T10:53:13.152Z</time></trkpt><trkpt lat="43.8972573" lon="11.280015"><ele>319.0</ele><time>2026-03-29T10:53:14.152Z</time></trkpt><trkpt lat="43.897228" lon="11.2796706"><ele>322.0</ele><time>2026-03-29T10:53:15.152Z</time></trkpt><trkpt lat="43.8971801" lon="11.2793332"><ele>325.0</ele><time>2026-03-29T10:53:16.152Z</time></trkpt><trkpt lat="43.8970952" lon="11.2790065"><ele>332.5</ele><time>2026-03-29T10:53:17.152Z</time></trkpt><trkpt lat="43.8969519" lon="11.2787041"><ele>340.0</ele><time>2026-03-29T10:53:18.152Z</time></trkpt><trkpt lat="43.8967954" lon="11.2784369"><ele>331.0</ele><time>2026-03-29T10:53:19.152Z</time></trkpt><trkpt lat="43.8966449" lon="11.2781901"><ele>322.0</ele><time>2026-03-29T10:53:20.152Z</time></trkpt><trkpt lat="43.8965043" lon="11.2779277"><ele>322.0</ele><time>2026-03-29T10:53:21.152Z</time></trkpt><trkpt lat="43.8963936" lon="11.2776397"><ele>322.0</ele><time>2026-03-29T10:53:22.152Z</time></trkpt><trkpt lat="43.8963096" lon="11.2773355"><ele>324.0</ele><time>2026-03-29T10:53:23.152Z</time></trkpt><trkpt lat="43.8962541" lon="11.2770052"><ele>326.0</ele><time>2026-03-29T10:53:24.151Z</time></trkpt><trkpt lat="43.8962332" lon="11.276663"><ele>326.5</ele><time>2026-03-29T10:53:25.152Z</time></trkpt><trkpt lat="43.8962471" lon="11.2763226"><ele>327.0</ele><time>2026-03-29T10:53:26.152Z</time></trkpt><trkpt lat="43.8962723" lon="11.2759977"><ele>327.0</ele><time>2026-03-29T10:53:27.152Z</time></trkpt><trkpt lat="43.8962913" lon="11.2756906"><ele>327.0</ele><time>2026-03-29T10:53:28.152Z</time></trkpt><trkpt lat="43.8963022" lon="11.2753998"><ele>327.0</ele><time>2026-03-29T10:53:29.152Z</time></trkpt><trkpt lat="43.8963018" lon="11.2751186"><ele>328.6666666666667</ele><time>2026-03-29T10:53:30.152Z</time></trkpt><trkpt lat="43.8962676" lon="11.2748571"><ele>330.33333333333337</ele><time>2026-03-29T10:53:31.152Z</time></trkpt><trkpt lat="43.8961748" lon="11.274621"><ele>332.0</ele><time>2026-03-29T10:53:32.152Z</time></trkpt><trkpt lat="43.8960411" lon="11.2744089"><ele>328.0</ele><time>2026-03-29T10:53:33.151Z</time></trkpt><trkpt lat="43.8958951" lon="11.274212"><ele>324.0</ele><time>2026-03-29T10:53:34.152Z</time></trkpt><trkpt lat="43.8957663" lon="11.2739707"><ele>320.0</ele><time>2026-03-29T10:53:35.152Z</time></trkpt><trkpt lat="43.8956811" lon="11.2736969"><ele>320.0</ele><time>2026-03-29T10:53:36.152Z</time></trkpt><trkpt lat="43.8956442" lon="11.273417"><ele>320.0</ele><time>2026-03-29T10:53:37.152Z</time></trkpt><trkpt lat="43.8956588" lon="11.2731438"><ele>320.0</ele><time>2026-03-29T10:53:38.152Z</time></trkpt><trkpt lat="43.8956721" lon="11.2729018"><ele>322.33333333333337</ele><time>2026-03-29T10:53:39.151Z</time></trkpt><trkpt lat="43.8956751" lon="11.272664"><ele>324.6666666666667</ele><time>2026-03-29T10:53:40.151Z</time></trkpt><trkpt lat="43.8956437" lon="11.2724332"><ele>327.0</ele><time>2026-03-29T10:53:41.152Z</time></trkpt><trkpt lat="43.8955811" lon="11.2722011"><ele>329.6666666666667</ele><time>2026-03-29T10:53:42.152Z</time></trkpt><trkpt lat="43.895497" lon="11.2719559"><ele>332.33333333333337</ele><time>2026-03-29T10:53:43.152Z</time></trkpt><trkpt lat="43.8954002" lon="11.2716908"><ele>335.0</ele><time>2026-03-29T10:53:44.152Z</time></trkpt><trkpt lat="43.8952976" lon="11.2714171"><ele>340.6666666666667</ele><time>2026-03-29T10:53:45.152Z</time></trkpt><trkpt lat="43.8951888" lon="11.2711457"><ele>346.3333333333333</ele><time>2026-03-29T10:53:46.152Z</time></trkpt><trkpt lat="43.8950783" lon="11.2708823"><ele>352.0</ele><time>2026-03-29T10:53:47.152Z</time></trkpt><trkpt lat="43.8949734" lon="11.2706374"><ele>341.0</ele><time>2026-03-29T10:53:48.152Z</time></trkpt><trkpt lat="43.8948848" lon="11.2704028"><ele>330.0</ele><time>2026-03-29T10:53:49.152Z</time></trkpt><trkpt lat="43.8948033" lon="11.2701631"><ele>319.0</ele><time>2026-03-29T10:53:50.152Z</time></trkpt><trkpt lat="43.8947353" lon="11.2698903"><ele>320.66666666666663</ele><time>2026-03-29T10:53:51.152Z</time></trkpt><trkpt lat="43.894676" lon="11.2695934"><ele>322.3333333333333</ele><time>2026-03-29T10:53:52.152Z</time></trkpt><trkpt lat="43.8946179" lon="11.2693044"><ele>324.0</ele><time>2026-03-29T10:53:53.152Z</time></trkpt><trkpt lat="43.8945526" lon="11.2690131"><ele>329.6666666666667</ele><time>2026-03-29T10:53:54.152Z</time></trkpt><trkpt lat="43.8945047" lon="11.268747"><ele>335.33333333333337</ele><time>2026-03-29T10:53:55.152Z</time></trkpt><trkpt lat="43.8944778" lon="11.2684921"><ele>341.0</ele><time>2026-03-29T10:53:56.152Z</time></trkpt><trkpt lat="43.8944741" lon="11.2682415"><ele>348.33333333333337</ele><time>2026-03-29T10:53:57.152Z</time></trkpt><trkpt lat="43.8944832" lon="11.2680214"><ele>355.6666666666667</ele><time>2026-03-29T10:53:58.152Z</time></trkpt><trkpt lat="43.8944745" lon="11.2678167"><ele>363.0</ele><time>2026-03-29T10:53:59.151Z</time></trkpt><trkpt lat="43.8944408" lon="11.2676085"><ele>363.0</ele><time>2026-03-29T10:54:00.152Z</time></trkpt><trkpt lat="43.8943579" lon="11.267406"><ele>363.0</ele><time>2026-03-29T10:54:01.152Z</time></trkpt><trkpt lat="43.894228" lon="11.2672566"><ele>363.0</ele><time>2026-03-29T10:54:02.152Z</time></trkpt><trkpt lat="43.8940755" lon="11.2671351"><ele>357.6666666666667</ele><time>2026-03-29T10:54:03.152Z</time></trkpt><trkpt lat="43.8939062" lon="11.2670623"><ele>352.33333333333337</ele><time>2026-03-29T10:54:04.152Z</time></trkpt><trkpt lat="43.8937128" lon="11.2670577"><ele>347.0</ele><time>2026-03-29T10:54:05.152Z</time></trkpt><trkpt lat="43.8935154" lon="11.2671087"><ele>341.6666666666667</ele><time>2026-03-29T10:54:06.151Z</time></trkpt><trkpt lat="43.8933157" lon="11.2671889"><ele>336.3333333333333</ele><time>2026-03-29T10:54:07.151Z</time></trkpt><trkpt lat="43.8931161" lon="11.2672552"><ele>331.0</ele><time>2026-03-29T10:54:08.152Z</time></trkpt><trkpt lat="43.8929153" lon="11.2672549"><ele>331.0</ele><time>2026-03-29T10:54:09.152Z</time></trkpt><trkpt lat="43.8927254" lon="11.2671726"><ele>331.0</ele><time>2026-03-29T10:54:10.152Z</time></trkpt><trkpt lat="43.8925646" lon="11.2670359"><ele>331.0</ele><time>2026-03-29T10:54:11.152Z</time></trkpt><trkpt lat="43.8924292" lon="11.2668593"><ele>332.3333333333333</ele><time>2026-03-29T10:54:12.152Z</time></trkpt><trkpt lat="43.8923078" lon="11.2666734"><ele>333.6666666666667</ele><time>2026-03-29T10:54:13.152Z</time></trkpt><trkpt lat="43.8921796" lon="11.2665201"><ele>335.0</ele><time>2026-03-29T10:54:14.152Z</time></trkpt><trkpt lat="43.8920315" lon="11.2664186"><ele>336.6666666666667</ele><time>2026-03-29T10:54:15.152Z</time></trkpt><trkpt lat="43.8918679" lon="11.2663742"><ele>338.3333333333333</ele><time>2026-03-29T10:54:16.152Z</time></trkpt><trkpt lat="43.8916917" lon="11.2663828"><ele>340.0</ele><time>2026-03-29T10:54:17.152Z</time></trkpt><trkpt lat="43.8914934" lon="11.2664637"><ele>340.0</ele><time>2026-03-29T10:54:18.152Z</time></trkpt><trkpt lat="43.8913086" lon="11.2665875"><ele>340.0</ele><time>2026-03-29T10:54:19.152Z</time></trkpt><trkpt lat="43.8911178" lon="11.2667478"><ele>340.0</ele><time>2026-03-29T10:54:20.152Z</time></trkpt><trkpt lat="43.8909233" lon="11.2669005"><ele>341.3333333333333</ele><time>2026-03-29T10:54:21.152Z</time></trkpt><trkpt lat="43.8907425" lon="11.2669972"><ele>342.6666666666667</ele><time>2026-03-29T10:54:22.152Z</time></trkpt><trkpt lat="43.8905727" lon="11.2670469"><ele>344.0</ele><time>2026-03-29T10:54:23.152Z</time></trkpt><trkpt lat="43.8904166" lon="11.2670483"><ele>344.0</ele><time>2026-03-29T10:54:24.152Z</time></trkpt><trkpt lat="43.8902649" lon="11.2669987"><ele>344.0</ele><time>2026-03-29T10:54:25.151Z</time></trkpt><trkpt lat="43.8900935" lon="11.2669077"><ele>344.0</ele><time>2026-03-29T10:54:26.152Z</time></trkpt><trkpt lat="43.8899145" lon="11.2668423"><ele>345.0</ele><time>2026-03-29T10:54:27.152Z</time></trkpt><trkpt lat="43.889732" lon="11.2668177"><ele>346.0</ele><time>2026-03-29T10:54:28.153Z</time></trkpt><trkpt lat="43.889556" lon="11.2668164"><ele>347.0</ele><time>2026-03-29T10:54:29.153Z</time></trkpt><trkpt lat="43.8894023" lon="11.2668367"><ele>346.25</ele><time>2026-03-29T10:54:30.153Z</time></trkpt><trkpt lat="43.8892589" lon="11.266896"><ele>345.5</ele><time>2026-03-29T10:54:31.153Z</time></trkpt><trkpt lat="43.8891227" lon="11.2669682"><ele>344.75</ele><time>2026-03-29T10:54:32.153Z</time></trkpt><trkpt lat="43.8890066" lon="11.2670899"><ele>344.0</ele><time>2026-03-29T10:54:33.153Z</time></trkpt><trkpt lat="43.8888859" lon="11.2672282"><ele>342.25</ele><time>2026-03-29T10:54:34.153Z</time></trkpt><trkpt lat="43.8887624" lon="11.2673665"><ele>340.5</ele><time>2026-03-29T10:54:35.153Z</time></trkpt><trkpt lat="43.888648" lon="11.2674926"><ele>338.75</ele><time>2026-03-29T10:54:36.153Z</time></trkpt><trkpt lat="43.8885239" lon="11.2675851"><ele>337.0</ele><time>2026-03-29T10:54:37.153Z</time></trkpt><trkpt lat="43.8883869" lon="11.2676349"><ele>336.5</ele><time>2026-03-29T10:54:38.153Z</time></trkpt><trkpt lat="43.8882539" lon="11.2676467"><ele>336.0</ele><time>2026-03-29T10:54:39.153Z</time></trkpt><trkpt lat="43.888127" lon="11.2675977"><ele>335.5</ele><time>2026-03-29T10:54:40.153Z</time></trkpt><trkpt lat="43.8880054" lon="11.2674955"><ele>335.0</ele><time>2026-03-29T10:54:41.153Z</time></trkpt><trkpt lat="43.8878905" lon="11.2673721"><ele>335.4</ele><time>2026-03-29T10:54:42.152Z</time></trkpt><trkpt lat="43.8877963" lon="11.2672677"><ele>335.8</ele><time>2026-03-29T10:54:43.153Z</time></trkpt><trkpt lat="43.8877318" lon="11.2671816"><ele>336.20000000000005</ele><time>2026-03-29T10:54:44.153Z</time></trkpt><trkpt lat="43.8876624" lon="11.2671015"><ele>336.6</ele><time>2026-03-29T10:54:45.153Z</time></trkpt><trkpt lat="43.8876003" lon="11.2670329"><ele>337.0</ele><time>2026-03-29T10:54:46.153Z</time></trkpt><trkpt lat="43.8875381" lon="11.2669837"><ele>337.0</ele><time>2026-03-29T10:54:47.153Z</time></trkpt><trkpt lat="43.8874792" lon="11.2669429"><ele>337.0</ele><time>2026-03-29T10:54:48.153Z</time></trkpt><trkpt lat="43.8874452" lon="11.266849"><ele>337.0</ele><time>2026-03-29T10:54:49.153Z</time></trkpt><trkpt lat="43.8874337" lon="11.2667392"><ele>337.0</ele><time>2026-03-29T10:54:50.153Z</time></trkpt><trkpt lat="43.8874181" lon="11.2666004"><ele>337.0</ele><time>2026-03-29T10:54:51.153Z</time></trkpt><trkpt lat="43.8873796" lon="11.2664455"><ele>337.0</ele><time>2026-03-29T10:54:52.153Z</time></trkpt><trkpt lat="43.8873168" lon="11.2662678"><ele>338.25</ele><time>2026-03-29T10:54:53.153Z</time></trkpt><trkpt lat="43.8872581" lon="11.2660851"><ele>339.5</ele><time>2026-03-29T10:54:54.153Z</time></trkpt><trkpt lat="43.8872038" lon="11.2658984"><ele>340.75</ele><time>2026-03-29T10:54:55.153Z</time></trkpt><trkpt lat="43.8871442" lon="11.2657113"><ele>342.0</ele><time>2026-03-29T10:54:56.153Z</time></trkpt><trkpt lat="43.887079" lon="11.2655261"><ele>344.6666666666667</ele><time>2026-03-29T10:54:57.153Z</time></trkpt><trkpt lat="43.8870347" lon="11.2653316"><ele>347.33333333333337</ele><time>2026-03-29T10:54:58.152Z</time></trkpt><trkpt lat="43.88702" lon="11.2651218"><ele>350.0</ele><time>2026-03-29T10:54:59.153Z</time></trkpt><trkpt lat="43.8870353" lon="11.2649045"><ele>353.33333333333337</ele><time>2026-03-29T10:55:00.153Z</time></trkpt><trkpt lat="43.8870638" lon="11.2646743"><ele>356.6666666666667</ele><time>2026-03-29T10:55:01.153Z</time></trkpt><trkpt lat="43.8870977" lon="11.2644154"><ele>360.0</ele><time>2026-03-29T10:55:02.153Z</time></trkpt><trkpt lat="43.8871387" lon="11.2641472"><ele>360.0</ele><time>2026-03-29T10:55:03.153Z</time></trkpt><trkpt lat="43.8871907" lon="11.2638671"><ele>360.0</ele><time>2026-03-29T10:55:04.153Z</time></trkpt><trkpt lat="43.8872491" lon="11.2635803"><ele>360.0</ele><time>2026-03-29T10:55:05.153Z</time></trkpt><trkpt lat="43.8872963" lon="11.2632975"><ele>359.3333333333333</ele><time>2026-03-29T10:55:06.153Z</time></trkpt><trkpt lat="43.8873335" lon="11.2630129"><ele>358.66666666666663</ele><time>2026-03-29T10:55:07.153Z</time></trkpt><trkpt lat="43.8873593" lon="11.2627253"><ele>358.0</ele><time>2026-03-29T10:55:08.153Z</time></trkpt><trkpt lat="43.8873888" lon="11.2624579"><ele>356.3333333333333</ele><time>2026-03-29T10:55:09.153Z</time></trkpt><trkpt lat="43.8874334" lon="11.2622331"><ele>354.6666666666667</ele><time>2026-03-29T10:55:10.153Z</time></trkpt><trkpt lat="43.8874803" lon="11.2620259"><ele>353.0</ele><time>2026-03-29T10:55:11.153Z</time></trkpt><trkpt lat="43.8875301" lon="11.2618288"><ele>353.0</ele><time>2026-03-29T10:55:12.153Z</time></trkpt><trkpt lat="43.8875821" lon="11.2616678"><ele>353.0</ele><time>2026-03-29T10:55:13.153Z</time></trkpt><trkpt lat="43.8876328" lon="11.2615109"><ele>353.0</ele><time>2026-03-29T10:55:14.153Z</time></trkpt><trkpt lat="43.8876825" lon="11.2613554"><ele>353.0</ele><time>2026-03-29T10:55:15.153Z</time></trkpt><trkpt lat="43.8877381" lon="11.2611927"><ele>356.0</ele><time>2026-03-29T10:55:16.153Z</time></trkpt><trkpt lat="43.8877935" lon="11.261012"><ele>359.0</ele><time>2026-03-29T10:55:17.153Z</time></trkpt><trkpt lat="43.8878548" lon="11.2608329"><ele>362.0</ele><time>2026-03-29T10:55:18.153Z</time></trkpt><trkpt lat="43.8879154" lon="11.26065"><ele>365.0</ele><time>2026-03-29T10:55:19.153Z</time></trkpt><trkpt lat="43.8879672" lon="11.260465"><ele>365.0</ele><time>2026-03-29T10:55:20.153Z</time></trkpt><trkpt lat="43.8880184" lon="11.2603029"><ele>365.0</ele><time>2026-03-29T10:55:21.153Z</time></trkpt><trkpt lat="43.8880747" lon="11.2601644"><ele>365.0</ele><time>2026-03-29T10:55:22.153Z</time></trkpt><trkpt lat="43.8881458" lon="11.2600634"><ele>365.0</ele><time>2026-03-29T10:55:23.153Z</time></trkpt><trkpt lat="43.8882237" lon="11.2599699"><ele>365.0</ele><time>2026-03-29T10:55:24.153Z</time></trkpt><trkpt lat="43.8882953" lon="11.2598933"><ele>365.0</ele><time>2026-03-29T10:55:25.153Z</time></trkpt><trkpt lat="43.8883653" lon="11.2598257"><ele>365.0</ele><time>2026-03-29T10:55:26.153Z</time></trkpt><trkpt lat="43.8884384" lon="11.2597495"><ele>365.0</ele><time>2026-03-29T10:55:27.153Z</time></trkpt><trkpt lat="43.8885166" lon="11.2596345"><ele>365.0</ele><time>2026-03-29T10:55:28.153Z</time></trkpt><trkpt lat="43.8886264" lon="11.259457"><ele>365.5</ele><time>2026-03-29T10:55:29.153Z</time></trkpt><trkpt lat="43.8887227" lon="11.2592897"><ele>366.0</ele><time>2026-03-29T10:55:30.153Z</time></trkpt><trkpt lat="43.8888222" lon="11.259126"><ele>366.5</ele><time>2026-03-29T10:55:31.153Z</time></trkpt><trkpt lat="43.8889102" lon="11.258982"><ele>367.0</ele><time>2026-03-29T10:55:32.152Z</time></trkpt><trkpt lat="43.8889808" lon="11.2588446"><ele>367.0</ele><time>2026-03-29T10:55:33.153Z</time></trkpt><trkpt lat="43.8890378" lon="11.2586893"><ele>367.0</ele><time>2026-03-29T10:55:34.153Z</time></trkpt><trkpt lat="43.8890877" lon="11.2585509"><ele>367.0</ele><time>2026-03-29T10:55:35.153Z</time></trkpt><trkpt lat="43.8891371" lon="11.2584252"><ele>367.0</ele><time>2026-03-29T10:55:36.153Z</time></trkpt><trkpt lat="43.8892001" lon="11.2583079"><ele>367.0</ele><time>2026-03-29T10:55:37.153Z</time></trkpt><trkpt lat="43.8892769" lon="11.2581914"><ele>368.25</ele><time>2026-03-29T10:55:38.153Z</time></trkpt><trkpt lat="43.8893694" lon="11.2580792"><ele>369.5</ele><time>2026-03-29T10:55:39.153Z</time></trkpt><trkpt lat="43.8894726" lon="11.2579662"><ele>370.75</ele><time>2026-03-29T10:55:40.153Z</time></trkpt><trkpt lat="43.8895914" lon="11.2578668"><ele>372.0</ele><time>2026-03-29T10:55:41.153Z</time></trkpt><trkpt lat="43.8897205" lon="11.2577627"><ele>372.0</ele><time>2026-03-29T10:55:42.153Z</time></trkpt><trkpt lat="43.8898317" lon="11.2576424"><ele>372.0</ele><time>2026-03-29T10:55:43.153Z</time></trkpt><trkpt lat="43.8899403" lon="11.2575264"><ele>372.0</ele><time>2026-03-29T10:55:44.153Z</time></trkpt><trkpt lat="43.8900452" lon="11.2574518"><ele>372.0</ele><time>2026-03-29T10:55:45.153Z</time></trkpt><trkpt lat="43.8901601" lon="11.2573837"><ele>371.25</ele><time>2026-03-29T10:55:46.153Z</time></trkpt><trkpt lat="43.8903006" lon="11.2573294"><ele>370.5</ele><time>2026-03-29T10:55:47.153Z</time></trkpt><trkpt lat="43.8904576" lon="11.2573047"><ele>369.75</ele><time>2026-03-29T10:55:48.153Z</time></trkpt><trkpt lat="43.890591" lon="11.257263"><ele>369.0</ele><time>2026-03-29T10:55:49.153Z</time></trkpt><trkpt lat="43.8907088" lon="11.2572265"><ele>369.0</ele><time>2026-03-29T10:55:50.153Z</time></trkpt><trkpt lat="43.8908275" lon="11.2572004"><ele>369.0</ele><time>2026-03-29T10:55:51.153Z</time></trkpt><trkpt lat="43.8909303" lon="11.2572006"><ele>369.0</ele><time>2026-03-29T10:55:52.153Z</time></trkpt><trkpt lat="43.8910461" lon="11.2572026"><ele>369.0</ele><time>2026-03-29T10:55:53.153Z</time></trkpt><trkpt lat="43.8911832" lon="11.2571755"><ele>374.33333333333337</ele><time>2026-03-29T10:55:54.153Z</time></trkpt><trkpt lat="43.8913258" lon="11.2571258"><ele>379.6666666666667</ele><time>2026-03-29T10:55:55.153Z</time></trkpt><trkpt lat="43.8915015" lon="11.2570925"><ele>385.0</ele><time>2026-03-29T10:55:56.153Z</time></trkpt><trkpt lat="43.8916754" lon="11.2570728"><ele>388.25</ele><time>2026-03-29T10:55:57.153Z</time></trkpt><trkpt lat="43.8918215" lon="11.2570435"><ele>391.5</ele><time>2026-03-29T10:55:58.153Z</time></trkpt><trkpt lat="43.8919675" lon="11.2570228"><ele>394.75</ele><time>2026-03-29T10:55:59.153Z</time></trkpt><trkpt lat="43.8920914" lon="11.2570357"><ele>398.0</ele><time>2026-03-29T10:56:00.153Z</time></trkpt><trkpt lat="43.8922113" lon="11.2570767"><ele>398.0</ele><time>2026-03-29T10:56:01.153Z</time></trkpt><trkpt lat="43.8923397" lon="11.2571203"><ele>398.0</ele><time>2026-03-29T10:56:02.153Z</time></trkpt><trkpt lat="43.8924462" lon="11.2571276"><ele>398.0</ele><time>2026-03-29T10:56:03.153Z</time></trkpt><trkpt lat="43.8925607" lon="11.2570918"><ele>398.0</ele><time>2026-03-29T10:56:04.153Z</time></trkpt><trkpt lat="43.8926774" lon="11.2570581"><ele>398.0</ele><time>2026-03-29T10:56:05.153Z</time></trkpt><trkpt lat="43.8927889" lon="11.2570081"><ele>398.0</ele><time>2026-03-29T10:56:06.153Z</time></trkpt><trkpt lat="43.8928995" lon="11.2569265"><ele>398.0</ele><time>2026-03-29T10:56:07.153Z</time></trkpt><trkpt lat="43.8930167" lon="11.256841"><ele>398.0</ele><time>2026-03-29T10:56:08.153Z</time></trkpt><trkpt lat="43.8931265" lon="11.2567403"><ele>398.0</ele><time>2026-03-29T10:56:09.153Z</time></trkpt><trkpt lat="43.8932162" lon="11.2566327"><ele>398.0</ele><time>2026-03-29T10:56:10.153Z</time></trkpt><trkpt lat="43.8932901" lon="11.2565446"><ele>398.0</ele><time>2026-03-29T10:56:11.153Z</time></trkpt><trkpt lat="43.8933478" lon="11.256475"><ele>398.0</ele><time>2026-03-29T10:56:12.153Z</time></trkpt><trkpt lat="43.8933358" lon="11.2563335"><ele>398.0</ele><time>2026-03-29T10:56:14.153Z</time></trkpt><trkpt lat="43.8932608" lon="11.2563063"><ele>403.0</ele><time>2026-03-29T10:56:15.153Z</time></trkpt><trkpt lat="43.8931535" lon="11.2562967"><ele>408.0</ele><time>2026-03-29T10:56:16.153Z</time></trkpt><trkpt lat="43.8930313" lon="11.256304"><ele>413.0</ele><time>2026-03-29T10:56:17.153Z</time></trkpt><trkpt lat="43.8928928" lon="11.2563079"><ele>418.0</ele><time>2026-03-29T10:56:18.153Z</time></trkpt><trkpt lat="43.8927609" lon="11.2563118"><ele>418.0</ele><time>2026-03-29T10:56:19.153Z</time></trkpt><trkpt lat="43.8926366" lon="11.2563075"><ele>418.0</ele><time>2026-03-29T10:56:20.153Z</time></trkpt><trkpt lat="43.8925233" lon="11.2562926"><ele>418.0</ele><time>2026-03-29T10:56:21.153Z</time></trkpt><trkpt lat="43.8924146" lon="11.2562715"><ele>418.0</ele><time>2026-03-29T10:56:22.153Z</time></trkpt><trkpt lat="43.8923235" lon="11.256239"><ele>418.0</ele><time>2026-03-29T10:56:23.153Z</time></trkpt><trkpt lat="43.8923196" lon="11.2560815"><ele>418.0</ele><time>2026-03-29T10:56:25.153Z</time></trkpt><trkpt lat="43.8923783" lon="11.255998"><ele>418.0</ele><time>2026-03-29T10:56:26.153Z</time></trkpt><trkpt lat="43.8924729" lon="11.2559475"><ele>418.0</ele><time>2026-03-29T10:56:27.153Z</time></trkpt><trkpt lat="43.8925697" lon="11.2558942"><ele>418.0</ele><time>2026-03-29T10:56:28.153Z</time></trkpt><trkpt lat="43.892655" lon="11.2557987"><ele>418.0</ele><time>2026-03-29T10:56:29.153Z</time></trkpt><trkpt lat="43.892727" lon="11.2556623"><ele>421.2</ele><time>2026-03-29T10:56:30.153Z</time></trkpt><trkpt lat="43.8927722" lon="11.2555176"><ele>424.4</ele><time>2026-03-29T10:56:31.153Z</time></trkpt><trkpt lat="43.8927952" lon="11.2553803"><ele>427.59999999999997</ele><time>2026-03-29T10:56:32.153Z</time></trkpt><trkpt lat="43.8928078" lon="11.2552567"><ele>430.79999999999995</ele><time>2026-03-29T10:56:33.153Z</time></trkpt><trkpt lat="43.8928122" lon="11.255145"><ele>434.0</ele><time>2026-03-29T10:56:34.153Z</time></trkpt><trkpt lat="43.8928212" lon="11.2550442"><ele>434.0</ele><time>2026-03-29T10:56:35.153Z</time></trkpt><trkpt lat="43.8928998" lon="11.254896"><ele>434.0</ele><time>2026-03-29T10:56:37.153Z</time></trkpt><trkpt lat="43.8929528" lon="11.2548013"><ele>434.0</ele><time>2026-03-29T10:56:38.152Z</time></trkpt><trkpt lat="43.8930195" lon="11.2547177"><ele>434.0</ele><time>2026-03-29T10:56:39.153Z</time></trkpt><trkpt lat="43.8930886" lon="11.2546269"><ele>434.0</ele><time>2026-03-29T10:56:40.153Z</time></trkpt><trkpt lat="43.8931765" lon="11.2545195"><ele>435.6</ele><time>2026-03-29T10:56:41.152Z</time></trkpt><trkpt lat="43.8932567" lon="11.2544206"><ele>437.2</ele><time>2026-03-29T10:56:42.153Z</time></trkpt><trkpt lat="43.8933027" lon="11.2543402"><ele>438.80000000000007</ele><time>2026-03-29T10:56:43.153Z</time></trkpt><trkpt lat="43.8933554" lon="11.2541946"><ele>440.40000000000003</ele><time>2026-03-29T10:56:45.153Z</time></trkpt><trkpt lat="43.8933678" lon="11.2540722"><ele>442.0</ele><time>2026-03-29T10:56:47.153Z</time></trkpt><trkpt lat="43.8933442" lon="11.2539787"><ele>442.40000000000003</ele><time>2026-03-29T10:56:49.153Z</time></trkpt><trkpt lat="43.8933815" lon="11.2538587"><ele>442.80000000000007</ele><time>2026-03-29T10:56:51.153Z</time></trkpt><trkpt lat="43.8934693" lon="11.2537702"><ele>443.2</ele><time>2026-03-29T10:56:53.153Z</time></trkpt><trkpt lat="43.8935541" lon="11.2537153"><ele>443.6</ele><time>2026-03-29T10:56:55.153Z</time></trkpt><trkpt lat="43.8936593" lon="11.2536495"><ele>444.0</ele><time>2026-03-29T10:56:57.153Z</time></trkpt><trkpt lat="43.8937288" lon="11.2536092"><ele>445.79999999999995</ele><time>2026-03-29T10:56:58.153Z</time></trkpt><trkpt lat="43.8938164" lon="11.2535662"><ele>447.59999999999997</ele><time>2026-03-29T10:56:59.153Z</time></trkpt><trkpt lat="43.8938938" lon="11.2535228"><ele>449.4</ele><time>2026-03-29T10:57:00.152Z</time></trkpt><trkpt lat="43.8939468" lon="11.2534645"><ele>451.2</ele><time>2026-03-29T10:57:01.152Z</time></trkpt><trkpt lat="43.8939891" lon="11.2533314"><ele>453.0</ele><time>2026-03-29T10:57:03.153Z</time></trkpt><trkpt lat="43.893937" lon="11.2531951"><ele>454.8333333333333</ele><time>2026-03-29T10:57:05.153Z</time></trkpt><trkpt lat="43.8938653" lon="11.2530945"><ele>456.66666666666663</ele><time>2026-03-29T10:57:07.153Z</time></trkpt><trkpt lat="43.8938252" lon="11.2529471"><ele>458.5</ele><time>2026-03-29T10:57:09.153Z</time></trkpt><trkpt lat="43.893835" lon="11.2528416"><ele>460.3333333333333</ele><time>2026-03-29T10:57:10.153Z</time></trkpt><trkpt lat="43.8938531" lon="11.2527403"><ele>462.16666666666663</ele><time>2026-03-29T10:57:11.153Z</time></trkpt><trkpt lat="43.8938801" lon="11.2526397"><ele>464.0</ele><time>2026-03-29T10:57:12.153Z</time></trkpt><trkpt lat="43.8939151" lon="11.2525352"><ele>463.99999999999994</ele><time>2026-03-29T10:57:13.153Z</time></trkpt><trkpt lat="43.8939598" lon="11.2524389"><ele>464.0</ele><time>2026-03-29T10:57:14.153Z</time></trkpt><trkpt lat="43.894022" lon="11.2523514"><ele>464.0</ele><time>2026-03-29T10:57:15.153Z</time></trkpt><trkpt lat="43.894093" lon="11.2522786"><ele>464.0</ele><time>2026-03-29T10:57:16.153Z</time></trkpt><trkpt lat="43.8941574" lon="11.2522073"><ele>463.99999999999994</ele><time>2026-03-29T10:57:17.153Z</time></trkpt><trkpt lat="43.894218" lon="11.2521236"><ele>464.0</ele><time>2026-03-29T10:57:18.153Z</time></trkpt><trkpt lat="43.8942723" lon="11.2520111"><ele>468.6</ele><time>2026-03-29T10:57:19.153Z</time></trkpt><trkpt lat="43.8943232" lon="11.2518991"><ele>473.2</ele><time>2026-03-29T10:57:20.153Z</time></trkpt><trkpt lat="43.8943686" lon="11.2517874"><ele>477.80000000000007</ele><time>2026-03-29T10:57:21.153Z</time></trkpt><trkpt lat="43.8944099" lon="11.2516739"><ele>482.40000000000003</ele><time>2026-03-29T10:57:22.153Z</time></trkpt><trkpt lat="43.894449" lon="11.2515657"><ele>487.0</ele><time>2026-03-29T10:57:23.153Z</time></trkpt><trkpt lat="43.894485" lon="11.2514401"><ele>488.6</ele><time>2026-03-29T10:57:24.153Z</time></trkpt><trkpt lat="43.8945299" lon="11.2512976"><ele>490.20000000000005</ele><time>2026-03-29T10:57:25.153Z</time></trkpt><trkpt lat="43.8945852" lon="11.2511666"><ele>491.8</ele><time>2026-03-29T10:57:26.153Z</time></trkpt><trkpt lat="43.8946492" lon="11.2510478"><ele>493.4</ele><time>2026-03-29T10:57:27.153Z</time></trkpt><trkpt lat="43.8947064" lon="11.2509224"><ele>495.0</ele><time>2026-03-29T10:57:28.153Z</time></trkpt><trkpt lat="43.8947798" lon="11.2507965"><ele>495.0</ele><time>2026-03-29T10:57:29.153Z</time></trkpt><trkpt lat="43.8948422" lon="11.2506731"><ele>495.0</ele><time>2026-03-29T10:57:30.153Z</time></trkpt><trkpt lat="43.8949062" lon="11.2505631"><ele>495.0</ele><time>2026-03-29T10:57:31.153Z</time></trkpt><trkpt lat="43.894962" lon="11.2504673"><ele>495.0</ele><time>2026-03-29T10:57:32.153Z</time></trkpt><trkpt lat="43.8950153" lon="11.2503935"><ele>495.0</ele><time>2026-03-29T10:57:33.153Z</time></trkpt><trkpt lat="43.8950499" lon="11.2503154"><ele>495.0</ele><time>2026-03-29T10:57:34.153Z</time></trkpt><trkpt lat="43.8950626" lon="11.2501642"><ele>496.1666666666667</ele><time>2026-03-29T10:57:36.153Z</time></trkpt><trkpt lat="43.8950285" lon="11.2500795"><ele>497.33333333333337</ele><time>2026-03-29T10:57:37.153Z</time></trkpt><trkpt lat="43.8949747" lon="11.2499977"><ele>498.5</ele><time>2026-03-29T10:57:38.153Z</time></trkpt><trkpt lat="43.8948909" lon="11.2499207"><ele>499.6666666666667</ele><time>2026-03-29T10:57:39.153Z</time></trkpt><trkpt lat="43.8948067" lon="11.2498514"><ele>500.83333333333337</ele><time>2026-03-29T10:57:40.153Z</time></trkpt><trkpt lat="43.8947332" lon="11.2497936"><ele>502.0</ele><time>2026-03-29T10:57:41.153Z</time></trkpt><trkpt lat="43.8946608" lon="11.2497527"><ele>502.00000000000006</ele><time>2026-03-29T10:57:42.153Z</time></trkpt><trkpt lat="43.8945726" lon="11.2497502"><ele>502.0</ele><time>2026-03-29T10:57:43.153Z</time></trkpt><trkpt lat="43.894506" lon="11.2497988"><ele>502.0</ele><time>2026-03-29T10:57:44.152Z</time></trkpt><trkpt lat="43.8944466" lon="11.2498811"><ele>502.0</ele><time>2026-03-29T10:57:45.153Z</time></trkpt><trkpt lat="43.8943909" lon="11.2499631"><ele>502.00000000000006</ele><time>2026-03-29T10:57:46.153Z</time></trkpt><trkpt lat="43.894289" lon="11.250031"><ele>502.0</ele><time>2026-03-29T10:57:48.153Z</time></trkpt><trkpt lat="43.8941682" lon="11.2500182"><ele>503.00000000000006</ele><time>2026-03-29T10:57:50.153Z</time></trkpt><trkpt lat="43.8941034" lon="11.2499488"><ele>504.0</ele><time>2026-03-29T10:57:51.153Z</time></trkpt><trkpt lat="43.8940407" lon="11.2498643"><ele>505.0</ele><time>2026-03-29T10:57:52.153Z</time></trkpt><trkpt lat="43.8939873" lon="11.2497594"><ele>506.0</ele><time>2026-03-29T10:57:53.153Z</time></trkpt><trkpt lat="43.8939504" lon="11.2496491"><ele>507.00000000000006</ele><time>2026-03-29T10:57:54.153Z</time></trkpt><trkpt lat="43.8939131" lon="11.249561"><ele>508.0</ele><time>2026-03-29T10:57:56.153Z</time></trkpt><trkpt lat="43.8938152" lon="11.2494939"><ele>511.0</ele><time>2026-03-29T10:58:03.153Z</time></trkpt><trkpt lat="43.8937474" lon="11.2494444"><ele>514.0</ele><time>2026-03-29T10:58:04.153Z</time></trkpt><trkpt lat="43.8936756" lon="11.2493976"><ele>517.0</ele><time>2026-03-29T10:58:05.153Z</time></trkpt><trkpt lat="43.8935695" lon="11.2493235"><ele>520.0</ele><time>2026-03-29T10:58:07.153Z</time></trkpt><trkpt lat="43.8935239" lon="11.2492506"><ele>523.0</ele><time>2026-03-29T10:58:08.153Z</time></trkpt><trkpt lat="43.8934686" lon="11.2491141"><ele>523.0</ele><time>2026-03-29T10:58:10.153Z</time></trkpt><trkpt lat="43.8935117" lon="11.249038"><ele>523.0</ele><time>2026-03-29T10:58:12.153Z</time></trkpt><trkpt lat="43.8935818" lon="11.2490829"><ele>523.0</ele><time>2026-03-29T10:58:14.153Z</time></trkpt><trkpt lat="43.8936648" lon="11.2491252"><ele>523.0</ele><time>2026-03-29T10:58:16.153Z</time></trkpt><trkpt lat="43.8937533" lon="11.2490544"><ele>523.0</ele><time>2026-03-29T10:58:18.153Z</time></trkpt><trkpt lat="43.8937979" lon="11.2489897"><ele>523.0</ele><time>2026-03-29T10:58:19.153Z</time></trkpt><trkpt lat="43.8938657" lon="11.2489087"><ele>523.6666666666667</ele><time>2026-03-29T10:58:20.153Z</time></trkpt><trkpt lat="43.8939314" lon="11.2488544"><ele>524.3333333333334</ele><time>2026-03-29T10:58:21.153Z</time></trkpt><trkpt lat="43.8939988" lon="11.2488"><ele>525.0</ele><time>2026-03-29T10:58:22.153Z</time></trkpt><trkpt lat="43.8940669" lon="11.2487423"><ele>525.6666666666666</ele><time>2026-03-29T10:58:23.153Z</time></trkpt><trkpt lat="43.8941367" lon="11.2486865"><ele>526.3333333333333</ele><time>2026-03-29T10:58:24.153Z</time></trkpt><trkpt lat="43.8942047" lon="11.2486077"><ele>527.0</ele><time>2026-03-29T10:58:25.153Z</time></trkpt><trkpt lat="43.8942686" lon="11.248523"><ele>527.8333333333333</ele><time>2026-03-29T10:58:26.152Z</time></trkpt><trkpt lat="43.8943347" lon="11.2484416"><ele>528.6666666666666</ele><time>2026-03-29T10:58:27.152Z</time></trkpt><trkpt lat="43.8943893" lon="11.2483457"><ele>529.5</ele><time>2026-03-29T10:58:28.153Z</time></trkpt><trkpt lat="43.8944296" lon="11.2482448"><ele>530.3333333333334</ele><time>2026-03-29T10:58:29.153Z</time></trkpt><trkpt lat="43.894481" lon="11.2481484"><ele>531.1666666666667</ele><time>2026-03-29T10:58:30.153Z</time></trkpt><trkpt lat="43.8945284" lon="11.2480707"><ele>532.0</ele><time>2026-03-29T10:58:31.153Z</time></trkpt><trkpt lat="43.8945747" lon="11.2480075"><ele>533.8000000000001</ele><time>2026-03-29T10:58:32.153Z</time></trkpt><trkpt lat="43.8946666" lon="11.2479365"><ele>535.6</ele><time>2026-03-29T10:58:34.152Z</time></trkpt><trkpt lat="43.8947804" lon="11.2479442"><ele>537.4000000000001</ele><time>2026-03-29T10:58:36.153Z</time></trkpt><trkpt lat="43.8948474" lon="11.2479651"><ele>539.2</ele><time>2026-03-29T10:58:37.153Z</time></trkpt><trkpt lat="43.8949196" lon="11.2479614"><ele>541.0</ele><time>2026-03-29T10:58:38.153Z</time></trkpt><trkpt lat="43.8950038" lon="11.2479033"><ele>542.8</ele><time>2026-03-29T10:58:39.153Z</time></trkpt><trkpt lat="43.8951046" lon="11.2478308"><ele>544.6</ele><time>2026-03-29T10:58:41.153Z</time></trkpt><trkpt lat="43.8951958" lon="11.2477915"><ele>546.4</ele><time>2026-03-29T10:58:43.153Z</time></trkpt><trkpt lat="43.8952829" lon="11.2477454"><ele>548.2</ele><time>2026-03-29T10:58:45.153Z</time></trkpt><trkpt lat="43.8953846" lon="11.2476961"><ele>550.0</ele><time>2026-03-29T10:58:47.153Z</time></trkpt><trkpt lat="43.8954512" lon="11.2476636"><ele>550.0</ele><time>2026-03-29T10:58:48.153Z</time></trkpt><trkpt lat="43.8955356" lon="11.2476347"><ele>550.0</ele><time>2026-03-29T10:58:49.153Z</time></trkpt><trkpt lat="43.89561" lon="11.2476305"><ele>550.0</ele><time>2026-03-29T10:58:50.153Z</time></trkpt><trkpt lat="43.895682" lon="11.247631"><ele>550.0</ele><time>2026-03-29T10:58:51.153Z</time></trkpt><trkpt lat="43.8957473" lon="11.2476247"><ele>550.0</ele><time>2026-03-29T10:58:52.153Z</time></trkpt><trkpt lat="43.8958338" lon="11.2476298"><ele>550.0</ele><time>2026-03-29T10:58:54.153Z</time></trkpt><trkpt lat="43.8959045" lon="11.2476321"><ele>549.5</ele><time>2026-03-29T10:58:56.153Z</time></trkpt><trkpt lat="43.8960023" lon="11.2476459"><ele>549.0</ele><time>2026-03-29T10:58:58.153Z</time></trkpt><trkpt lat="43.8960666" lon="11.2476531"><ele>548.5</ele><time>2026-03-29T10:58:59.153Z</time></trkpt><trkpt lat="43.8961306" lon="11.2476842"><ele>548.0</ele><time>2026-03-29T10:59:00.153Z</time></trkpt><trkpt lat="43.8961971" lon="11.2477361"><ele>547.5</ele><time>2026-03-29T10:59:01.153Z</time></trkpt><trkpt lat="43.8962645" lon="11.2477802"><ele>547.0</ele><time>2026-03-29T10:59:02.153Z</time></trkpt><trkpt lat="43.8963311" lon="11.247808"><ele>547.0</ele><time>2026-03-29T10:59:03.153Z</time></trkpt><trkpt lat="43.8964195" lon="11.247862"><ele>547.0</ele><time>2026-03-29T10:59:05.153Z</time></trkpt><trkpt lat="43.8964934" lon="11.2479445"><ele>547.0</ele><time>2026-03-29T10:59:07.153Z</time></trkpt><trkpt lat="43.8965452" lon="11.2480198"><ele>547.0</ele><time>2026-03-29T10:59:09.153Z</time></trkpt><trkpt lat="43.8966022" lon="11.2480736"><ele>547.0</ele><time>2026-03-29T10:59:12.153Z</time></trkpt><trkpt lat="43.8966922" lon="11.2481422"><ele>547.0</ele><time>2026-03-29T10:59:15.153Z</time></trkpt><trkpt lat="43.8967567" lon="11.2481923"><ele>546.0</ele><time>2026-03-29T10:59:17.153Z</time></trkpt><trkpt lat="43.8968357" lon="11.2482499"><ele>545.0</ele><time>2026-03-29T10:59:20.153Z</time></trkpt><trkpt lat="43.8969041" lon="11.2483134"><ele>544.0</ele><time>2026-03-29T10:59:21.153Z</time></trkpt><trkpt lat="43.8969644" lon="11.2483605"><ele>543.0</ele><time>2026-03-29T10:59:22.153Z</time></trkpt><trkpt lat="43.8970442" lon="11.2484345"><ele>542.0</ele><time>2026-03-29T10:59:24.153Z</time></trkpt><trkpt lat="43.8971135" lon="11.2484958"><ele>541.0</ele><time>2026-03-29T10:59:28.153Z</time></trkpt><trkpt lat="43.8971691" lon="11.2486001"><ele>541.0000000000001</ele><time>2026-03-29T10:59:36.153Z</time></trkpt><trkpt lat="43.8972328" lon="11.2486463"><ele>541.0</ele><time>2026-03-29T10:59:40.153Z</time></trkpt><trkpt lat="43.8973105" lon="11.2486516"><ele>541.0</ele><time>2026-03-29T10:59:45.153Z</time></trkpt><trkpt lat="43.8973733" lon="11.2486646"><ele>541.0</ele><time>2026-03-29T10:59:46.153Z</time></trkpt><trkpt lat="43.8974517" lon="11.2486837"><ele>541.0</ele><time>2026-03-29T10:59:48.153Z</time></trkpt><trkpt lat="43.8975207" lon="11.2486689"><ele>541.0000000000001</ele><time>2026-03-29T10:59:51.153Z</time></trkpt><trkpt lat="43.8975703" lon="11.2485953"><ele>541.0</ele><time>2026-03-29T10:59:55.153Z</time></trkpt><trkpt lat="43.8976347" lon="11.2485588"><ele>540.2</ele><time>2026-03-29T10:59:57.153Z</time></trkpt><trkpt lat="43.897741" lon="11.248485"><ele>539.4000000000001</ele><time>2026-03-29T10:59:59.153Z</time></trkpt><trkpt lat="43.897826" lon="11.2484342"><ele>538.6</ele><time>2026-03-29T11:00:00.153Z</time></trkpt><trkpt lat="43.8978897" lon="11.2483847"><ele>537.8000000000001</ele><time>2026-03-29T11:00:01.153Z</time></trkpt><trkpt lat="43.8979908" lon="11.2482782"><ele>537.0</ele><time>2026-03-29T11:00:03.153Z</time></trkpt><trkpt lat="43.8980515" lon="11.2482379"><ele>537.0</ele><time>2026-03-29T11:00:04.153Z</time></trkpt><trkpt lat="43.8981121" lon="11.2481894"><ele>537.0</ele><time>2026-03-29T11:00:05.153Z</time></trkpt><trkpt lat="43.8981875" lon="11.248135"><ele>537.0</ele><time>2026-03-29T11:00:06.153Z</time></trkpt><trkpt lat="43.8982713" lon="11.248101"><ele>537.0</ele><time>2026-03-29T11:00:07.153Z</time></trkpt><trkpt lat="43.8983513" lon="11.2480556"><ele>537.0</ele><time>2026-03-29T11:00:08.153Z</time></trkpt><trkpt lat="43.8984084" lon="11.2480151"><ele>537.0</ele><time>2026-03-29T11:00:09.153Z</time></trkpt><trkpt lat="43.898466" lon="11.2479645"><ele>532.8000000000001</ele><time>2026-03-29T11:00:10.153Z</time></trkpt><trkpt lat="43.898561" lon="11.2478699"><ele>528.6</ele><time>2026-03-29T11:00:12.153Z</time></trkpt><trkpt lat="43.8986502" lon="11.2477909"><ele>524.4000000000001</ele><time>2026-03-29T11:00:14.153Z</time></trkpt><trkpt lat="43.8987279" lon="11.2477122"><ele>520.2</ele><time>2026-03-29T11:00:16.152Z</time></trkpt><trkpt lat="43.8987993" lon="11.2476427"><ele>516.0</ele><time>2026-03-29T11:00:18.152Z</time></trkpt><trkpt lat="43.8989013" lon="11.247626"><ele>516.0</ele><time>2026-03-29T11:00:20.153Z</time></trkpt><trkpt lat="43.899004" lon="11.2476517"><ele>516.0</ele><time>2026-03-29T11:00:22.153Z</time></trkpt><trkpt lat="43.8990819" lon="11.2476639"><ele>516.0</ele><time>2026-03-29T11:00:24.153Z</time></trkpt><trkpt lat="43.8991504" lon="11.2476416"><ele>516.0</ele><time>2026-03-29T11:00:26.153Z</time></trkpt><trkpt lat="43.8991971" lon="11.2475546"><ele>516.0</ele><time>2026-03-29T11:00:28.153Z</time></trkpt><trkpt lat="43.8992424" lon="11.2474695"><ele>516.0</ele><time>2026-03-29T11:00:30.153Z</time></trkpt><trkpt lat="43.8992647" lon="11.2473785"><ele>513.8</ele><time>2026-03-29T11:00:32.152Z</time></trkpt><trkpt lat="43.8992672" lon="11.2472624"><ele>511.6</ele><time>2026-03-29T11:00:35.153Z</time></trkpt><trkpt lat="43.8993021" lon="11.2471817"><ele>509.4</ele><time>2026-03-29T11:00:37.153Z</time></trkpt><trkpt lat="43.8993546" lon="11.2471161"><ele>507.2</ele><time>2026-03-29T11:00:38.153Z</time></trkpt><trkpt lat="43.8994624" lon="11.2470192"><ele>505.0</ele><time>2026-03-29T11:00:40.153Z</time></trkpt><trkpt lat="43.8995514" lon="11.2469386"><ele>505.00000000000006</ele><time>2026-03-29T11:00:42.153Z</time></trkpt><trkpt lat="43.8996252" lon="11.246842"><ele>505.0</ele><time>2026-03-29T11:00:44.154Z</time></trkpt><trkpt lat="43.8996805" lon="11.2467548"><ele>505.0</ele><time>2026-03-29T11:00:46.154Z</time></trkpt><trkpt lat="43.8997212" lon="11.2466769"><ele>505.0</ele><time>2026-03-29T11:00:48.154Z</time></trkpt><trkpt lat="43.8997512" lon="11.2465612"><ele>505.00000000000006</ele><time>2026-03-29T11:00:51.154Z</time></trkpt><trkpt lat="43.8997925" lon="11.2464822"><ele>505.0</ele><time>2026-03-29T11:00:53.154Z</time></trkpt><trkpt lat="43.8998804" lon="11.2464144"><ele>503.6666666666667</ele><time>2026-03-29T11:00:55.154Z</time></trkpt><trkpt lat="43.8999361" lon="11.2463388"><ele>502.33333333333337</ele><time>2026-03-29T11:00:57.154Z</time></trkpt><trkpt lat="43.899909" lon="11.2462513"><ele>501.0</ele><time>2026-03-29T11:01:03.154Z</time></trkpt><trkpt lat="43.8998353" lon="11.2462224"><ele>499.66666666666663</ele><time>2026-03-29T11:01:05.154Z</time></trkpt><trkpt lat="43.8997675" lon="11.2461967"><ele>498.3333333333333</ele><time>2026-03-29T11:01:06.153Z</time></trkpt><trkpt lat="43.8996962" lon="11.246156"><ele>497.0</ele><time>2026-03-29T11:01:07.154Z</time></trkpt><trkpt lat="43.8996259" lon="11.2460991"><ele>497.0</ele><time>2026-03-29T11:01:08.154Z</time></trkpt><trkpt lat="43.8995608" lon="11.2460522"><ele>497.00000000000006</ele><time>2026-03-29T11:01:09.154Z</time></trkpt><trkpt lat="43.8994455" lon="11.2459914"><ele>497.00000000000006</ele><time>2026-03-29T11:01:11.154Z</time></trkpt><trkpt lat="43.8993405" lon="11.2458907"><ele>497.0</ele><time>2026-03-29T11:01:13.154Z</time></trkpt><trkpt lat="43.8992891" lon="11.2458176"><ele>497.0</ele><time>2026-03-29T11:01:14.154Z</time></trkpt><trkpt lat="43.8992524" lon="11.2457381"><ele>497.1428571428571</ele><time>2026-03-29T11:01:15.154Z</time></trkpt><trkpt lat="43.899213" lon="11.2456619"><ele>497.2857142857143</ele><time>2026-03-29T11:01:16.154Z</time></trkpt><trkpt lat="43.8991861" lon="11.2455785"><ele>497.42857142857144</ele><time>2026-03-29T11:01:17.153Z</time></trkpt><trkpt lat="43.8991558" lon="11.2454951"><ele>497.57142857142856</ele><time>2026-03-29T11:01:18.154Z</time></trkpt><trkpt lat="43.89911" lon="11.2454091"><ele>497.71428571428567</ele><time>2026-03-29T11:01:19.154Z</time></trkpt><trkpt lat="43.8990611" lon="11.2453382"><ele>497.85714285714283</ele><time>2026-03-29T11:01:20.153Z</time></trkpt><trkpt lat="43.8990201" lon="11.2452563"><ele>498.0</ele><time>2026-03-29T11:01:21.154Z</time></trkpt><trkpt lat="43.8989755" lon="11.2451668"><ele>496.0</ele><time>2026-03-29T11:01:22.153Z</time></trkpt><trkpt lat="43.8989163" lon="11.2450575"><ele>493.99999999999994</ele><time>2026-03-29T11:01:23.154Z</time></trkpt><trkpt lat="43.8988555" lon="11.2449343"><ele>491.99999999999994</ele><time>2026-03-29T11:01:24.154Z</time></trkpt><trkpt lat="43.8987914" lon="11.2448242"><ele>490.0</ele><time>2026-03-29T11:01:25.154Z</time></trkpt><trkpt lat="43.8987401" lon="11.2447359"><ele>488.0</ele><time>2026-03-29T11:01:26.154Z</time></trkpt><trkpt lat="43.8986972" lon="11.2446587"><ele>486.16666666666663</ele><time>2026-03-29T11:01:27.154Z</time></trkpt><trkpt lat="43.8986538" lon="11.2445874"><ele>484.3333333333333</ele><time>2026-03-29T11:01:28.154Z</time></trkpt><trkpt lat="43.8986195" lon="11.2445045"><ele>482.5</ele><time>2026-03-29T11:01:29.154Z</time></trkpt><trkpt lat="43.898607" lon="11.2444182"><ele>480.66666666666663</ele><time>2026-03-29T11:01:30.154Z</time></trkpt><trkpt lat="43.8986197" lon="11.2442974"><ele>478.8333333333333</ele><time>2026-03-29T11:01:31.154Z</time></trkpt><trkpt lat="43.898616" lon="11.2441636"><ele>477.0</ele><time>2026-03-29T11:01:32.154Z</time></trkpt><trkpt lat="43.8986108" lon="11.2440195"><ele>475.5</ele><time>2026-03-29T11:01:33.154Z</time></trkpt><trkpt lat="43.8986095" lon="11.2438776"><ele>474.0</ele><time>2026-03-29T11:01:34.154Z</time></trkpt><trkpt lat="43.8986022" lon="11.2437428"><ele>472.5</ele><time>2026-03-29T11:01:35.154Z</time></trkpt><trkpt lat="43.8985934" lon="11.2436333"><ele>471.0</ele><time>2026-03-29T11:01:36.154Z</time></trkpt><trkpt lat="43.898579" lon="11.2435185"><ele>469.5</ele><time>2026-03-29T11:01:37.154Z</time></trkpt><trkpt lat="43.8985444" lon="11.2434107"><ele>468.0</ele><time>2026-03-29T11:01:38.154Z</time></trkpt><trkpt lat="43.898487" lon="11.2433076"><ele>468.59999999999997</ele><time>2026-03-29T11:01:39.154Z</time></trkpt><trkpt lat="43.8984091" lon="11.243211"><ele>469.19999999999993</ele><time>2026-03-29T11:01:40.154Z</time></trkpt><trkpt lat="43.8983351" lon="11.2431146"><ele>469.8</ele><time>2026-03-29T11:01:41.154Z</time></trkpt><trkpt lat="43.8982594" lon="11.243024"><ele>470.4</ele><time>2026-03-29T11:01:42.154Z</time></trkpt><trkpt lat="43.8981887" lon="11.2429384"><ele>471.0</ele><time>2026-03-29T11:01:43.154Z</time></trkpt><trkpt lat="43.8981196" lon="11.2428537"><ele>471.0</ele><time>2026-03-29T11:01:44.154Z</time></trkpt><trkpt lat="43.8980538" lon="11.2427694"><ele>471.0</ele><time>2026-03-29T11:01:45.154Z</time></trkpt><trkpt lat="43.8979893" lon="11.2426894"><ele>471.0</ele><time>2026-03-29T11:01:46.154Z</time></trkpt><trkpt lat="43.8979295" lon="11.2426235"><ele>471.0</ele><time>2026-03-29T11:01:47.154Z</time></trkpt><trkpt lat="43.897849" lon="11.242573"><ele>471.0</ele><time>2026-03-29T11:01:48.154Z</time></trkpt><trkpt lat="43.8977561" lon="11.2425227"><ele>471.0</ele><time>2026-03-29T11:01:49.154Z</time></trkpt><trkpt lat="43.8976964" lon="11.2424866"><ele>471.0</ele><time>2026-03-29T11:01:50.154Z</time></trkpt><trkpt lat="43.8976636" lon="11.2423345"><ele>471.0</ele><time>2026-03-29T11:01:52.154Z</time></trkpt><trkpt lat="43.897658" lon="11.2422129"><ele>471.0</ele><time>2026-03-29T11:01:53.154Z</time></trkpt><trkpt lat="43.8976624" lon="11.2420629"><ele>471.0</ele><time>2026-03-29T11:01:54.154Z</time></trkpt><trkpt lat="43.8976596" lon="11.2418868"><ele>471.0</ele><time>2026-03-29T11:01:55.154Z</time></trkpt><trkpt lat="43.8976622" lon="11.24171"><ele>468.75</ele><time>2026-03-29T11:01:56.154Z</time></trkpt><trkpt lat="43.8976596" lon="11.2415228"><ele>466.5</ele><time>2026-03-29T11:01:57.154Z</time></trkpt><trkpt lat="43.8976522" lon="11.2413324"><ele>464.25</ele><time>2026-03-29T11:01:58.154Z</time></trkpt><trkpt lat="43.8976497" lon="11.2411294"><ele>462.0</ele><time>2026-03-29T11:01:59.154Z</time></trkpt><trkpt lat="43.897647" lon="11.2409595"><ele>460.25</ele><time>2026-03-29T11:02:00.154Z</time></trkpt><trkpt lat="43.8976483" lon="11.2407934"><ele>458.5</ele><time>2026-03-29T11:02:01.154Z</time></trkpt><trkpt lat="43.8976639" lon="11.2406471"><ele>456.75</ele><time>2026-03-29T11:02:02.154Z</time></trkpt><trkpt lat="43.8976944" lon="11.2405067"><ele>455.0</ele><time>2026-03-29T11:02:03.154Z</time></trkpt><trkpt lat="43.8977413" lon="11.2403569"><ele>455.0</ele><time>2026-03-29T11:02:04.154Z</time></trkpt><trkpt lat="43.8978102" lon="11.2401978"><ele>455.0</ele><time>2026-03-29T11:02:05.154Z</time></trkpt><trkpt lat="43.8978594" lon="11.2400364"><ele>455.0</ele><time>2026-03-29T11:02:06.154Z</time></trkpt><trkpt lat="43.8979066" lon="11.2398656"><ele>455.0</ele><time>2026-03-29T11:02:07.154Z</time></trkpt><trkpt lat="43.8979463" lon="11.2397083"><ele>455.0</ele><time>2026-03-29T11:02:08.154Z</time></trkpt><trkpt lat="43.8979892" lon="11.2395694"><ele>455.0</ele><time>2026-03-29T11:02:09.153Z</time></trkpt><trkpt lat="43.8980261" lon="11.2394494"><ele>455.0</ele><time>2026-03-29T11:02:10.154Z</time></trkpt><trkpt lat="43.8980539" lon="11.2393064"><ele>455.0</ele><time>2026-03-29T11:02:11.154Z</time></trkpt><trkpt lat="43.8980639" lon="11.2391806"><ele>455.0</ele><time>2026-03-29T11:02:12.154Z</time></trkpt><trkpt lat="43.8980691" lon="11.239061"><ele>453.3333333333333</ele><time>2026-03-29T11:02:13.154Z</time></trkpt><trkpt lat="43.898068" lon="11.2389542"><ele>451.66666666666663</ele><time>2026-03-29T11:02:14.154Z</time></trkpt><trkpt lat="43.8980533" lon="11.2388412"><ele>450.0</ele><time>2026-03-29T11:02:15.154Z</time></trkpt><trkpt lat="43.8980227" lon="11.2387289"><ele>448.33333333333337</ele><time>2026-03-29T11:02:16.154Z</time></trkpt><trkpt lat="43.8979816" lon="11.2386276"><ele>446.6666666666667</ele><time>2026-03-29T11:02:17.154Z</time></trkpt><trkpt lat="43.8979446" lon="11.2385156"><ele>445.0</ele><time>2026-03-29T11:02:18.154Z</time></trkpt><trkpt lat="43.8979034" lon="11.2384253"><ele>445.0</ele><time>2026-03-29T11:02:19.154Z</time></trkpt><trkpt lat="43.8978499" lon="11.2383592"><ele>445.0</ele><time>2026-03-29T11:02:20.154Z</time></trkpt><trkpt lat="43.8977994" lon="11.2383052"><ele>445.0</ele><time>2026-03-29T11:02:21.154Z</time></trkpt><trkpt lat="43.8977419" lon="11.2382536"><ele>445.0</ele><time>2026-03-29T11:02:22.154Z</time></trkpt><trkpt lat="43.897669" lon="11.2382179"><ele>445.0</ele><time>2026-03-29T11:02:23.154Z</time></trkpt><trkpt lat="43.8976013" lon="11.2381942"><ele>445.0</ele><time>2026-03-29T11:02:24.154Z</time></trkpt><trkpt lat="43.8975277" lon="11.2381799"><ele>445.0</ele><time>2026-03-29T11:02:25.154Z</time></trkpt><trkpt lat="43.8974538" lon="11.2381651"><ele>448.50000000000006</ele><time>2026-03-29T11:02:26.154Z</time></trkpt><trkpt lat="43.8973797" lon="11.2381518"><ele>452.0</ele><time>2026-03-29T11:02:27.154Z</time></trkpt><trkpt lat="43.8973041" lon="11.2381541"><ele>455.5</ele><time>2026-03-29T11:02:28.154Z</time></trkpt><trkpt lat="43.8972302" lon="11.2381633"><ele>459.0</ele><time>2026-03-29T11:02:29.154Z</time></trkpt><trkpt lat="43.897165" lon="11.2381857"><ele>462.50000000000006</ele><time>2026-03-29T11:02:30.154Z</time></trkpt><trkpt lat="43.8970463" lon="11.2382443"><ele>466.0</ele><time>2026-03-29T11:02:32.153Z</time></trkpt><trkpt lat="43.8969522" lon="11.2382922"><ele>466.0</ele><time>2026-03-29T11:02:34.154Z</time></trkpt><trkpt lat="43.8968856" lon="11.2382243"><ele>466.0</ele><time>2026-03-29T11:02:36.154Z</time></trkpt><trkpt lat="43.8968867" lon="11.2381361"><ele>466.0</ele><time>2026-03-29T11:02:37.154Z</time></trkpt><trkpt lat="43.8968951" lon="11.2380061"><ele>466.0</ele><time>2026-03-29T11:02:38.153Z</time></trkpt><trkpt lat="43.8968964" lon="11.2378579"><ele>466.0</ele><time>2026-03-29T11:02:39.154Z</time></trkpt><trkpt lat="43.8968912" lon="11.2376952"><ele>461.20000000000005</ele><time>2026-03-29T11:02:40.154Z</time></trkpt><trkpt lat="43.896897" lon="11.2375352"><ele>456.40000000000003</ele><time>2026-03-29T11:02:41.154Z</time></trkpt><trkpt lat="43.896899" lon="11.2373976"><ele>451.6</ele><time>2026-03-29T11:02:42.154Z</time></trkpt><trkpt lat="43.896903" lon="11.23726"><ele>446.8</ele><time>2026-03-29T11:02:43.154Z</time></trkpt><trkpt lat="43.8969063" lon="11.2371224"><ele>442.0</ele><time>2026-03-29T11:02:44.154Z</time></trkpt><trkpt lat="43.8969134" lon="11.2370084"><ele>438.20000000000005</ele><time>2026-03-29T11:02:45.154Z</time></trkpt><trkpt lat="43.896927" lon="11.2368948"><ele>434.40000000000003</ele><time>2026-03-29T11:02:46.154Z</time></trkpt><trkpt lat="43.8969077" lon="11.2367343"><ele>430.6</ele><time>2026-03-29T11:02:48.154Z</time></trkpt><trkpt lat="43.896862" lon="11.2365957"><ele>426.79999999999995</ele><time>2026-03-29T11:02:50.154Z</time></trkpt><trkpt lat="43.8968075" lon="11.2364683"><ele>423.0</ele><time>2026-03-29T11:02:52.154Z</time></trkpt><trkpt lat="43.8968018" lon="11.2363325"><ele>421.59999999999997</ele><time>2026-03-29T11:02:54.154Z</time></trkpt><trkpt lat="43.896833" lon="11.2361844"><ele>420.2</ele><time>2026-03-29T11:02:56.154Z</time></trkpt><trkpt lat="43.8968729" lon="11.2360437"><ele>418.8</ele><time>2026-03-29T11:02:58.154Z</time></trkpt><trkpt lat="43.8968882" lon="11.2358958"><ele>417.4</ele><time>2026-03-29T11:03:00.154Z</time></trkpt><trkpt lat="43.8968651" lon="11.2357428"><ele>416.0</ele><time>2026-03-29T11:03:02.153Z</time></trkpt><trkpt lat="43.896864" lon="11.2355443"><ele>415.0</ele><time>2026-03-29T11:03:04.154Z</time></trkpt><trkpt lat="43.896876" lon="11.2354299"><ele>414.0</ele><time>2026-03-29T11:03:05.154Z</time></trkpt><trkpt lat="43.8968848" lon="11.2353366"><ele>413.0</ele><time>2026-03-29T11:03:06.154Z</time></trkpt><trkpt lat="43.8968854" lon="11.2351544"><ele>412.0</ele><time>2026-03-29T11:03:08.154Z</time></trkpt><trkpt lat="43.8968661" lon="11.2349855"><ele>411.0</ele><time>2026-03-29T11:03:10.154Z</time></trkpt><trkpt lat="43.8968639" lon="11.2348867"><ele>408.4</ele><time>2026-03-29T11:03:11.154Z</time></trkpt><trkpt lat="43.8968567" lon="11.2347888"><ele>405.8</ele><time>2026-03-29T11:03:12.154Z</time></trkpt><trkpt lat="43.8968415" lon="11.2347026"><ele>403.2</ele><time>2026-03-29T11:03:13.154Z</time></trkpt><trkpt lat="43.896812" lon="11.2345382"><ele>400.59999999999997</ele><time>2026-03-29T11:03:15.154Z</time></trkpt><trkpt lat="43.8967337" lon="11.2344175"><ele>398.0</ele><time>2026-03-29T11:03:17.154Z</time></trkpt><trkpt lat="43.8966421" lon="11.2343413"><ele>402.59999999999997</ele><time>2026-03-29T11:03:19.154Z</time></trkpt><trkpt lat="43.8965483" lon="11.2342913"><ele>407.2</ele><time>2026-03-29T11:03:21.154Z</time></trkpt><trkpt lat="43.8964717" lon="11.2342754"><ele>411.8</ele><time>2026-03-29T11:03:23.154Z</time></trkpt><trkpt lat="43.8964152" lon="11.2341984"><ele>416.4</ele><time>2026-03-29T11:03:25.153Z</time></trkpt><trkpt lat="43.8964372" lon="11.2340312"><ele>421.0</ele><time>2026-03-29T11:03:27.154Z</time></trkpt><trkpt lat="43.8964786" lon="11.2339122"><ele>421.0</ele><time>2026-03-29T11:03:28.154Z</time></trkpt><trkpt lat="43.8965156" lon="11.2337797"><ele>421.0</ele><time>2026-03-29T11:03:29.154Z</time></trkpt><trkpt lat="43.8965525" lon="11.2336563"><ele>421.0</ele><time>2026-03-29T11:03:30.154Z</time></trkpt><trkpt lat="43.8965837" lon="11.2335245"><ele>421.0</ele><time>2026-03-29T11:03:31.154Z</time></trkpt><trkpt lat="43.8966208" lon="11.2334025"><ele>421.0</ele><time>2026-03-29T11:03:32.154Z</time></trkpt><trkpt lat="43.8966527" lon="11.2332861"><ele>421.00000000000006</ele><time>2026-03-29T11:03:33.154Z</time></trkpt><trkpt lat="43.8966881" lon="11.2331873"><ele>421.0</ele><time>2026-03-29T11:03:34.154Z</time></trkpt><trkpt lat="43.8967138" lon="11.2331052"><ele>421.0</ele><time>2026-03-29T11:03:35.154Z</time></trkpt><trkpt lat="43.8967372" lon="11.2330217"><ele>421.0</ele><time>2026-03-29T11:03:36.154Z</time></trkpt><trkpt lat="43.8967622" lon="11.23294"><ele>421.00000000000006</ele><time>2026-03-29T11:03:37.154Z</time></trkpt><trkpt lat="43.8968021" lon="11.2327815"><ele>421.0</ele><time>2026-03-29T11:03:39.154Z</time></trkpt><trkpt lat="43.8968328" lon="11.2326187"><ele>417.42857142857144</ele><time>2026-03-29T11:03:41.154Z</time></trkpt><trkpt lat="43.8968377" lon="11.2325251"><ele>413.8571428571429</ele><time>2026-03-29T11:03:42.154Z</time></trkpt><trkpt lat="43.8968315" lon="11.2324283"><ele>410.28571428571433</ele><time>2026-03-29T11:03:43.154Z</time></trkpt><trkpt lat="43.8968001" lon="11.2323252"><ele>406.7142857142857</ele><time>2026-03-29T11:03:44.154Z</time></trkpt><trkpt lat="43.8967682" lon="11.2322296"><ele>403.1428571428571</ele><time>2026-03-29T11:03:45.153Z</time></trkpt><trkpt lat="43.8967315" lon="11.2321538"><ele>399.5714285714286</ele><time>2026-03-29T11:03:46.154Z</time></trkpt><trkpt lat="43.8966833" lon="11.2320805"><ele>396.0</ele><time>2026-03-29T11:03:47.154Z</time></trkpt><trkpt lat="43.8966346" lon="11.2320051"><ele>396.0</ele><time>2026-03-29T11:03:48.153Z</time></trkpt><trkpt lat="43.8965846" lon="11.231936"><ele>396.0</ele><time>2026-03-29T11:03:49.154Z</time></trkpt><trkpt lat="43.8965312" lon="11.2318668"><ele>396.0</ele><time>2026-03-29T11:03:50.154Z</time></trkpt><trkpt lat="43.896477" lon="11.2318031"><ele>396.0</ele><time>2026-03-29T11:03:51.154Z</time></trkpt><trkpt lat="43.8964123" lon="11.2317429"><ele>396.0</ele><time>2026-03-29T11:03:52.154Z</time></trkpt><trkpt lat="43.8963512" lon="11.2316822"><ele>396.0</ele><time>2026-03-29T11:03:53.154Z</time></trkpt><trkpt lat="43.8962901" lon="11.2316152"><ele>396.0</ele><time>2026-03-29T11:03:54.154Z</time></trkpt><trkpt lat="43.8962332" lon="11.2315551"><ele>396.0</ele><time>2026-03-29T11:03:55.154Z</time></trkpt><trkpt lat="43.8961469" lon="11.2314807"><ele>396.0</ele><time>2026-03-29T11:03:57.154Z</time></trkpt><trkpt lat="43.8961125" lon="11.2313809"><ele>396.0</ele><time>2026-03-29T11:03:59.154Z</time></trkpt><trkpt lat="43.8961508" lon="11.2312493"><ele>396.0</ele><time>2026-03-29T11:04:01.154Z</time></trkpt><trkpt lat="43.8961926" lon="11.2311692"><ele>396.0</ele><time>2026-03-29T11:04:02.154Z</time></trkpt><trkpt lat="43.896246" lon="11.2310864"><ele>396.0</ele><time>2026-03-29T11:04:03.153Z</time></trkpt><trkpt lat="43.8962888" lon="11.2309961"><ele>395.0</ele><time>2026-03-29T11:04:04.154Z</time></trkpt><trkpt lat="43.8963406" lon="11.2309033"><ele>394.0</ele><time>2026-03-29T11:04:05.154Z</time></trkpt><trkpt lat="43.8963936" lon="11.2307981"><ele>393.0</ele><time>2026-03-29T11:04:06.154Z</time></trkpt><trkpt lat="43.8964479" lon="11.2306938"><ele>392.0</ele><time>2026-03-29T11:04:07.154Z</time></trkpt><trkpt lat="43.8965061" lon="11.2305843"><ele>391.0</ele><time>2026-03-29T11:04:08.154Z</time></trkpt><trkpt lat="43.8965571" lon="11.2304927"><ele>390.99999999999994</ele><time>2026-03-29T11:04:09.154Z</time></trkpt><trkpt lat="43.896599" lon="11.2303998"><ele>391.0</ele><time>2026-03-29T11:04:10.154Z</time></trkpt><trkpt lat="43.8966366" lon="11.2302983"><ele>391.0</ele><time>2026-03-29T11:04:11.154Z</time></trkpt><trkpt lat="43.8966718" lon="11.2302004"><ele>391.0</ele><time>2026-03-29T11:04:12.154Z</time></trkpt><trkpt lat="43.8966942" lon="11.2301059"><ele>391.0</ele><time>2026-03-29T11:04:13.154Z</time></trkpt><trkpt lat="43.8967026" lon="11.2300165"><ele>390.99999999999994</ele><time>2026-03-29T11:04:14.154Z</time></trkpt><trkpt lat="43.8967059" lon="11.2299251"><ele>391.0</ele><time>2026-03-29T11:04:15.154Z</time></trkpt><trkpt lat="43.8967085" lon="11.2298248"><ele>391.00000000000006</ele><time>2026-03-29T11:04:16.154Z</time></trkpt><trkpt lat="43.8967175" lon="11.2297342"><ele>391.0</ele><time>2026-03-29T11:04:17.154Z</time></trkpt><trkpt lat="43.8967452" lon="11.2295945"><ele>391.0</ele><time>2026-03-29T11:04:19.154Z</time></trkpt><trkpt lat="43.896832" lon="11.2294936"><ele>391.0</ele><time>2026-03-29T11:04:21.154Z</time></trkpt><trkpt lat="43.8969013" lon="11.2294665"><ele>391.00000000000006</ele><time>2026-03-29T11:04:22.154Z</time></trkpt><trkpt lat="43.8969674" lon="11.2294327"><ele>391.0</ele><time>2026-03-29T11:04:23.154Z</time></trkpt><trkpt lat="43.8970242" lon="11.2293866"><ele>387.1666666666667</ele><time>2026-03-29T11:04:24.154Z</time></trkpt><trkpt lat="43.8970997" lon="11.2292767"><ele>383.33333333333337</ele><time>2026-03-29T11:04:26.154Z</time></trkpt><trkpt lat="43.8971309" lon="11.2291757"><ele>379.5</ele><time>2026-03-29T11:04:27.154Z</time></trkpt><trkpt lat="43.8971644" lon="11.2290799"><ele>375.6666666666667</ele><time>2026-03-29T11:04:28.154Z</time></trkpt><trkpt lat="43.8971823" lon="11.2289939"><ele>371.83333333333337</ele><time>2026-03-29T11:04:29.154Z</time></trkpt><trkpt lat="43.8971977" lon="11.2288963"><ele>368.0</ele><time>2026-03-29T11:04:30.154Z</time></trkpt><trkpt lat="43.8972004" lon="11.2287261"><ele>368.33333333333337</ele><time>2026-03-29T11:04:32.154Z</time></trkpt><trkpt lat="43.8971962" lon="11.2286293"><ele>368.6666666666667</ele><time>2026-03-29T11:04:33.154Z</time></trkpt><trkpt lat="43.8971824" lon="11.228542"><ele>369.0</ele><time>2026-03-29T11:04:34.154Z</time></trkpt><trkpt lat="43.8971527" lon="11.2283918"><ele>369.3333333333333</ele><time>2026-03-29T11:04:36.154Z</time></trkpt><trkpt lat="43.8971221" lon="11.2282606"><ele>369.66666666666663</ele><time>2026-03-29T11:04:38.154Z</time></trkpt><trkpt lat="43.8970798" lon="11.2281347"><ele>370.0</ele><time>2026-03-29T11:04:40.154Z</time></trkpt><trkpt lat="43.8970856" lon="11.2280232"><ele>370.0</ele><time>2026-03-29T11:04:42.154Z</time></trkpt><trkpt lat="43.8971167" lon="11.2279285"><ele>370.0</ele><time>2026-03-29T11:04:44.154Z</time></trkpt><trkpt lat="43.8972062" lon="11.2278596"><ele>370.0</ele><time>2026-03-29T11:04:46.154Z</time></trkpt><trkpt lat="43.89731" lon="11.2277853"><ele>370.0</ele><time>2026-03-29T11:04:48.154Z</time></trkpt><trkpt lat="43.8973796" lon="11.2277434"><ele>370.0</ele><time>2026-03-29T11:04:49.154Z</time></trkpt><trkpt lat="43.8974433" lon="11.2276975"><ele>370.0</ele><time>2026-03-29T11:04:50.154Z</time></trkpt><trkpt lat="43.8975118" lon="11.2276543"><ele>370.0</ele><time>2026-03-29T11:04:51.154Z</time></trkpt><trkpt lat="43.8975675" lon="11.2275987"><ele>370.0</ele><time>2026-03-29T11:04:52.154Z</time></trkpt><trkpt lat="43.897661" lon="11.2274924"><ele>370.0</ele><time>2026-03-29T11:04:54.154Z</time></trkpt><trkpt lat="43.8977569" lon="11.2274117"><ele>370.0</ele><time>2026-03-29T11:04:56.154Z</time></trkpt><trkpt lat="43.8978106" lon="11.2273546"><ele>370.0</ele><time>2026-03-29T11:04:57.154Z</time></trkpt><trkpt lat="43.8978621" lon="11.2272939"><ele>370.0</ele><time>2026-03-29T11:04:58.154Z</time></trkpt><trkpt lat="43.8979097" lon="11.227228"><ele>367.2857142857143</ele><time>2026-03-29T11:04:59.154Z</time></trkpt><trkpt lat="43.8979539" lon="11.227151"><ele>364.57142857142856</ele><time>2026-03-29T11:05:00.154Z</time></trkpt><trkpt lat="43.8979899" lon="11.2270721"><ele>361.8571428571429</ele><time>2026-03-29T11:05:01.154Z</time></trkpt><trkpt lat="43.8980352" lon="11.2270044"><ele>359.1428571428571</ele><time>2026-03-29T11:05:02.154Z</time></trkpt><trkpt lat="43.8980871" lon="11.2269529"><ele>356.42857142857144</ele><time>2026-03-29T11:05:03.154Z</time></trkpt><trkpt lat="43.8981435" lon="11.2269086"><ele>353.7142857142857</ele><time>2026-03-29T11:05:04.154Z</time></trkpt><trkpt lat="43.8982054" lon="11.2268734"><ele>351.0</ele><time>2026-03-29T11:05:05.154Z</time></trkpt><trkpt lat="43.8982676" lon="11.2268447"><ele>351.0</ele><time>2026-03-29T11:05:06.154Z</time></trkpt><trkpt lat="43.8983329" lon="11.226816"><ele>351.0</ele><time>2026-03-29T11:05:07.154Z</time></trkpt><trkpt lat="43.8984406" lon="11.2267622"><ele>351.0</ele><time>2026-03-29T11:05:09.153Z</time></trkpt><trkpt lat="43.8985453" lon="11.2267297"><ele>351.0</ele><time>2026-03-29T11:05:11.154Z</time></trkpt><trkpt lat="43.8986362" lon="11.2266995"><ele>351.0</ele><time>2026-03-29T11:05:13.154Z</time></trkpt><trkpt lat="43.8987189" lon="11.2266462"><ele>347.0</ele><time>2026-03-29T11:05:15.154Z</time></trkpt><trkpt lat="43.8987822" lon="11.2265696"><ele>343.0</ele><time>2026-03-29T11:05:17.154Z</time></trkpt><trkpt lat="43.8988508" lon="11.2264524"><ele>339.0</ele><time>2026-03-29T11:05:19.154Z</time></trkpt><trkpt lat="43.8989191" lon="11.2263211"><ele>335.0</ele><time>2026-03-29T11:05:21.154Z</time></trkpt><trkpt lat="43.8989824" lon="11.2262122"><ele>331.0</ele><time>2026-03-29T11:05:23.154Z</time></trkpt><trkpt lat="43.8990576" lon="11.2261359"><ele>331.0</ele><time>2026-03-29T11:05:25.154Z</time></trkpt><trkpt lat="43.8991389" lon="11.2260786"><ele>331.0</ele><time>2026-03-29T11:05:27.153Z</time></trkpt><trkpt lat="43.8992308" lon="11.2260417"><ele>331.0</ele><time>2026-03-29T11:05:29.154Z</time></trkpt><trkpt lat="43.899328" lon="11.2260304"><ele>331.0</ele><time>2026-03-29T11:05:31.154Z</time></trkpt><trkpt lat="43.8994081" lon="11.2260087"><ele>331.0</ele><time>2026-03-29T11:05:33.154Z</time></trkpt><trkpt lat="43.8994678" lon="11.2259531"><ele>331.0</ele><time>2026-03-29T11:05:35.154Z</time></trkpt><trkpt lat="43.8995275" lon="11.2258434"><ele>326.8333333333333</ele><time>2026-03-29T11:05:37.154Z</time></trkpt><trkpt lat="43.8995944" lon="11.2257517"><ele>322.66666666666663</ele><time>2026-03-29T11:05:39.154Z</time></trkpt><trkpt lat="43.8996547" lon="11.2256688"><ele>318.5</ele><time>2026-03-29T11:05:41.154Z</time></trkpt><trkpt lat="43.8996919" lon="11.2255683"><ele>314.3333333333333</ele><time>2026-03-29T11:05:43.154Z</time></trkpt><trkpt lat="43.8996401" lon="11.2254487"><ele>310.1666666666667</ele><time>2026-03-29T11:05:45.154Z</time></trkpt><trkpt lat="43.8995862" lon="11.2253908"><ele>306.0</ele><time>2026-03-29T11:05:46.154Z</time></trkpt><trkpt lat="43.8995398" lon="11.2253309"><ele>305.5</ele><time>2026-03-29T11:05:47.154Z</time></trkpt><trkpt lat="43.8995152" lon="11.2251709"><ele>305.0</ele><time>2026-03-29T11:05:49.154Z</time></trkpt><trkpt lat="43.8995404" lon="11.2250738"><ele>304.5</ele><time>2026-03-29T11:05:50.154Z</time></trkpt><trkpt lat="43.8995587" lon="11.2249845"><ele>304.0</ele><time>2026-03-29T11:05:51.154Z</time></trkpt><trkpt lat="43.8995778" lon="11.2248265"><ele>303.5</ele><time>2026-03-29T11:05:53.154Z</time></trkpt><trkpt lat="43.8996025" lon="11.2247419"><ele>303.0</ele><time>2026-03-29T11:05:54.154Z</time></trkpt><trkpt lat="43.8996283" lon="11.2246565"><ele>301.5</ele><time>2026-03-29T11:05:55.154Z</time></trkpt><trkpt lat="43.8996389" lon="11.2245701"><ele>300.0</ele><time>2026-03-29T11:05:56.154Z</time></trkpt><trkpt lat="43.8996436" lon="11.2243968"><ele>298.5</ele><time>2026-03-29T11:05:58.154Z</time></trkpt><trkpt lat="43.8996162" lon="11.224221"><ele>297.0</ele><time>2026-03-29T11:06:00.154Z</time></trkpt><trkpt lat="43.8996036" lon="11.2241349"><ele>295.5</ele><time>2026-03-29T11:06:01.154Z</time></trkpt><trkpt lat="43.8995927" lon="11.2240474"><ele>294.0</ele><time>2026-03-29T11:06:02.154Z</time></trkpt><trkpt lat="43.8995674" lon="11.2238757"><ele>294.0</ele><time>2026-03-29T11:06:04.154Z</time></trkpt><trkpt lat="43.8995778" lon="11.2237806"><ele>294.0</ele><time>2026-03-29T11:06:05.154Z</time></trkpt><trkpt lat="43.8996109" lon="11.2236754"><ele>294.0</ele><time>2026-03-29T11:06:06.154Z</time></trkpt><trkpt lat="43.8996497" lon="11.2235858"><ele>294.0</ele><time>2026-03-29T11:06:07.154Z</time></trkpt><trkpt lat="43.8996934" lon="11.2234975"><ele>294.0</ele><time>2026-03-29T11:06:08.153Z</time></trkpt><trkpt lat="43.8997346" lon="11.2234269"><ele>294.0</ele><time>2026-03-29T11:06:09.154Z</time></trkpt><trkpt lat="43.8997803" lon="11.2233632"><ele>294.0</ele><time>2026-03-29T11:06:10.153Z</time></trkpt><trkpt lat="43.8999013" lon="11.2232813"><ele>294.0</ele><time>2026-03-29T11:06:12.154Z</time></trkpt><trkpt lat="43.8999646" lon="11.2232652"><ele>294.0</ele><time>2026-03-29T11:06:13.154Z</time></trkpt><trkpt lat="43.9000264" lon="11.223241"><ele>294.0</ele><time>2026-03-29T11:06:14.154Z</time></trkpt><trkpt lat="43.9000868" lon="11.2232158"><ele>294.0</ele><time>2026-03-29T11:06:15.154Z</time></trkpt><trkpt lat="43.9001485" lon="11.223183"><ele>294.0</ele><time>2026-03-29T11:06:16.154Z</time></trkpt><trkpt lat="43.9002558" lon="11.2230882"><ele>294.0</ele><time>2026-03-29T11:06:18.154Z</time></trkpt><trkpt lat="43.9003046" lon="11.2230192"><ele>291.2857142857143</ele><time>2026-03-29T11:06:19.154Z</time></trkpt><trkpt lat="43.9003556" lon="11.2229379"><ele>288.57142857142856</ele><time>2026-03-29T11:06:20.154Z</time></trkpt><trkpt lat="43.9003982" lon="11.2228648"><ele>285.8571428571429</ele><time>2026-03-29T11:06:21.154Z</time></trkpt><trkpt lat="43.9004319" lon="11.2227764"><ele>283.1428571428571</ele><time>2026-03-29T11:06:22.154Z</time></trkpt><trkpt lat="43.9004629" lon="11.2226899"><ele>280.42857142857144</ele><time>2026-03-29T11:06:23.154Z</time></trkpt><trkpt lat="43.9004879" lon="11.2226053"><ele>277.7142857142857</ele><time>2026-03-29T11:06:24.154Z</time></trkpt><trkpt lat="43.9005142" lon="11.2225148"><ele>275.0</ele><time>2026-03-29T11:06:25.154Z</time></trkpt><trkpt lat="43.9005419" lon="11.2224309"><ele>275.0</ele><time>2026-03-29T11:06:26.154Z</time></trkpt><trkpt lat="43.900619" lon="11.222344"><ele>275.0</ele><time>2026-03-29T11:06:28.154Z</time></trkpt><trkpt lat="43.9007341" lon="11.2223843"><ele>275.0</ele><time>2026-03-29T11:06:30.154Z</time></trkpt><trkpt lat="43.900854" lon="11.2223999"><ele>275.0</ele><time>2026-03-29T11:06:32.154Z</time></trkpt><trkpt lat="43.9009575" lon="11.2222955"><ele>275.8571428571429</ele><time>2026-03-29T11:06:34.154Z</time></trkpt><trkpt lat="43.9009996" lon="11.2222009"><ele>276.7142857142857</ele><time>2026-03-29T11:06:35.154Z</time></trkpt><trkpt lat="43.9010447" lon="11.2221106"><ele>277.57142857142856</ele><time>2026-03-29T11:06:36.154Z</time></trkpt><trkpt lat="43.9010866" lon="11.222036"><ele>278.42857142857144</ele><time>2026-03-29T11:06:37.154Z</time></trkpt><trkpt lat="43.9011326" lon="11.2219718"><ele>279.2857142857143</ele><time>2026-03-29T11:06:38.153Z</time></trkpt><trkpt lat="43.9011881" lon="11.2219034"><ele>280.14285714285717</ele><time>2026-03-29T11:06:39.154Z</time></trkpt><trkpt lat="43.9012496" lon="11.2218425"><ele>281.0</ele><time>2026-03-29T11:06:40.154Z</time></trkpt><trkpt lat="43.9013127" lon="11.2217821"><ele>281.0</ele><time>2026-03-29T11:06:41.154Z</time></trkpt><trkpt lat="43.9013796" lon="11.2217537"><ele>281.0</ele><time>2026-03-29T11:06:42.154Z</time></trkpt><trkpt lat="43.901463" lon="11.2217668"><ele>281.0</ele><time>2026-03-29T11:06:43.154Z</time></trkpt><trkpt lat="43.9015614" lon="11.2217831"><ele>281.0</ele><time>2026-03-29T11:06:44.154Z</time></trkpt><trkpt lat="43.9016899" lon="11.221819"><ele>281.0</ele><time>2026-03-29T11:06:45.154Z</time></trkpt><trkpt lat="43.9018083" lon="11.2218529"><ele>280.2</ele><time>2026-03-29T11:06:46.154Z</time></trkpt><trkpt lat="43.9019243" lon="11.2218998"><ele>279.40000000000003</ele><time>2026-03-29T11:06:47.154Z</time></trkpt><trkpt lat="43.9020328" lon="11.2219461"><ele>278.6</ele><time>2026-03-29T11:06:48.154Z</time></trkpt><trkpt lat="43.902121" lon="11.2219988"><ele>277.8</ele><time>2026-03-29T11:06:49.153Z</time></trkpt><trkpt lat="43.9022005" lon="11.2220452"><ele>277.0</ele><time>2026-03-29T11:06:50.154Z</time></trkpt><trkpt lat="43.9022821" lon="11.2220728"><ele>277.0</ele><time>2026-03-29T11:06:51.154Z</time></trkpt><trkpt lat="43.9023904" lon="11.2220712"><ele>277.0</ele><time>2026-03-29T11:06:52.154Z</time></trkpt><trkpt lat="43.9025127" lon="11.2220512"><ele>277.0</ele><time>2026-03-29T11:06:53.154Z</time></trkpt><trkpt lat="43.9026236" lon="11.2220365"><ele>277.0</ele><time>2026-03-29T11:06:54.154Z</time></trkpt><trkpt lat="43.9027138" lon="11.2220321"><ele>277.0</ele><time>2026-03-29T11:06:55.154Z</time></trkpt><trkpt lat="43.9027823" lon="11.2220192"><ele>274.0</ele><time>2026-03-29T11:06:56.154Z</time></trkpt><trkpt lat="43.9028988" lon="11.2219992"><ele>271.0</ele><time>2026-03-29T11:06:58.154Z</time></trkpt><trkpt lat="43.9029703" lon="11.2220064"><ele>268.0</ele><time>2026-03-29T11:06:59.154Z</time></trkpt><trkpt lat="43.9030403" lon="11.2220376"><ele>265.0</ele><time>2026-03-29T11:07:00.153Z</time></trkpt><trkpt lat="43.9031357" lon="11.2220684"><ele>262.0</ele><time>2026-03-29T11:07:01.154Z</time></trkpt><trkpt lat="43.9032394" lon="11.2220994"><ele>262.0</ele><time>2026-03-29T11:07:02.154Z</time></trkpt><trkpt lat="43.9033426" lon="11.222137"><ele>262.0</ele><time>2026-03-29T11:07:03.154Z</time></trkpt><trkpt lat="43.9034278" lon="11.2221737"><ele>262.0</ele><time>2026-03-29T11:07:04.154Z</time></trkpt><trkpt lat="43.9035139" lon="11.2222129"><ele>262.0</ele><time>2026-03-29T11:07:05.154Z</time></trkpt><trkpt lat="43.9035958" lon="11.2222427"><ele>262.0</ele><time>2026-03-29T11:07:06.154Z</time></trkpt><trkpt lat="43.9036741" lon="11.2222758"><ele>261.16666666666663</ele><time>2026-03-29T11:07:07.154Z</time></trkpt><trkpt lat="43.9037473" lon="11.2223129"><ele>260.3333333333333</ele><time>2026-03-29T11:07:08.154Z</time></trkpt><trkpt lat="43.9038179" lon="11.2223468"><ele>259.5</ele><time>2026-03-29T11:07:09.154Z</time></trkpt><trkpt lat="43.9038866" lon="11.2223857"><ele>258.6666666666667</ele><time>2026-03-29T11:07:10.154Z</time></trkpt><trkpt lat="43.9039536" lon="11.2224235"><ele>257.83333333333337</ele><time>2026-03-29T11:07:11.154Z</time></trkpt><trkpt lat="43.9040119" lon="11.2224617"><ele>257.0</ele><time>2026-03-29T11:07:12.153Z</time></trkpt><trkpt lat="43.904112" lon="11.2225079"><ele>257.0</ele><time>2026-03-29T11:07:14.154Z</time></trkpt><trkpt lat="43.9042195" lon="11.2224442"><ele>257.0</ele><time>2026-03-29T11:07:16.154Z</time></trkpt><trkpt lat="43.9042746" lon="11.2223493"><ele>257.0</ele><time>2026-03-29T11:07:17.154Z</time></trkpt><trkpt lat="43.9043427" lon="11.2222395"><ele>257.0</ele><time>2026-03-29T11:07:18.154Z</time></trkpt><trkpt lat="43.9044316" lon="11.2221519"><ele>257.0</ele><time>2026-03-29T11:07:19.154Z</time></trkpt><trkpt lat="43.904524" lon="11.2220758"><ele>256.4</ele><time>2026-03-29T11:07:20.154Z</time></trkpt><trkpt lat="43.9046202" lon="11.2220215"><ele>255.79999999999998</ele><time>2026-03-29T11:07:21.154Z</time></trkpt><trkpt lat="43.9047106" lon="11.2219719"><ele>255.2</ele><time>2026-03-29T11:07:22.154Z</time></trkpt><trkpt lat="43.9048001" lon="11.2219345"><ele>254.6</ele><time>2026-03-29T11:07:23.154Z</time></trkpt><trkpt lat="43.9048873" lon="11.2218986"><ele>254.0</ele><time>2026-03-29T11:07:24.154Z</time></trkpt><trkpt lat="43.9049611" lon="11.2218823"><ele>254.00000000000003</ele><time>2026-03-29T11:07:25.153Z</time></trkpt><trkpt lat="43.9050382" lon="11.2218733"><ele>254.0</ele><time>2026-03-29T11:07:26.154Z</time></trkpt><trkpt lat="43.9051047" lon="11.221866"><ele>254.0</ele><time>2026-03-29T11:07:27.154Z</time></trkpt><trkpt lat="43.9051705" lon="11.2218591"><ele>254.0</ele><time>2026-03-29T11:07:28.154Z</time></trkpt><trkpt lat="43.9052947" lon="11.2217951"><ele>254.00000000000003</ele><time>2026-03-29T11:07:30.154Z</time></trkpt><trkpt lat="43.9053605" lon="11.2217632"><ele>254.0</ele><time>2026-03-29T11:07:31.154Z</time></trkpt><trkpt lat="43.9054403" lon="11.2217378"><ele>252.33333333333334</ele><time>2026-03-29T11:07:32.154Z</time></trkpt><trkpt lat="43.9055143" lon="11.2217048"><ele>250.66666666666669</ele><time>2026-03-29T11:07:33.154Z</time></trkpt><trkpt lat="43.905579" lon="11.2216781"><ele>249.0</ele><time>2026-03-29T11:07:34.154Z</time></trkpt><trkpt lat="43.9056798" lon="11.2216312"><ele>247.33333333333331</ele><time>2026-03-29T11:07:36.153Z</time></trkpt><trkpt lat="43.9058002" lon="11.2216016"><ele>245.66666666666666</ele><time>2026-03-29T11:07:38.153Z</time></trkpt><trkpt lat="43.9058691" lon="11.2216211"><ele>244.0</ele><time>2026-03-29T11:07:39.154Z</time></trkpt><trkpt lat="43.9059389" lon="11.2216321"><ele>239.79999999999998</ele><time>2026-03-29T11:07:40.154Z</time></trkpt><trkpt lat="43.9060091" lon="11.2216488"><ele>235.59999999999997</ele><time>2026-03-29T11:07:41.154Z</time></trkpt><trkpt lat="43.906116" lon="11.2216952"><ele>231.4</ele><time>2026-03-29T11:07:43.154Z</time></trkpt><trkpt lat="43.9062122" lon="11.2217136"><ele>227.2</ele><time>2026-03-29T11:07:45.154Z</time></trkpt><trkpt lat="43.9062751" lon="11.2215958"><ele>223.0</ele><time>2026-03-29T11:07:47.154Z</time></trkpt><trkpt lat="43.9062692" lon="11.2214315"><ele>222.4</ele><time>2026-03-29T11:07:49.154Z</time></trkpt><trkpt lat="43.9061962" lon="11.2212892"><ele>221.8</ele><time>2026-03-29T11:07:51.154Z</time></trkpt><trkpt lat="43.9061299" lon="11.2212329"><ele>221.2</ele><time>2026-03-29T11:07:52.154Z</time></trkpt><trkpt lat="43.9060554" lon="11.2211626"><ele>220.6</ele><time>2026-03-29T11:07:53.154Z</time></trkpt><trkpt lat="43.9059899" lon="11.2211"><ele>220.0</ele><time>2026-03-29T11:07:54.154Z</time></trkpt><trkpt lat="43.9059243" lon="11.2210302"><ele>219.83333333333331</ele><time>2026-03-29T11:07:55.154Z</time></trkpt><trkpt lat="43.9058606" lon="11.2209606"><ele>219.66666666666666</ele><time>2026-03-29T11:07:56.154Z</time></trkpt><trkpt lat="43.9057904" lon="11.2208866"><ele>219.5</ele><time>2026-03-29T11:07:57.154Z</time></trkpt><trkpt lat="43.9057247" lon="11.220827"><ele>219.33333333333331</ele><time>2026-03-29T11:07:58.153Z</time></trkpt><trkpt lat="43.9056622" lon="11.2207615"><ele>219.16666666666666</ele><time>2026-03-29T11:07:59.154Z</time></trkpt><trkpt lat="43.9056094" lon="11.2206985"><ele>219.0</ele><time>2026-03-29T11:08:00.154Z</time></trkpt><trkpt lat="43.905555" lon="11.2206251"><ele>219.0</ele><time>2026-03-29T11:08:01.154Z</time></trkpt><trkpt lat="43.9054918" lon="11.2205399"><ele>219.0</ele><time>2026-03-29T11:08:02.154Z</time></trkpt><trkpt lat="43.9054278" lon="11.2204603"><ele>219.0</ele><time>2026-03-29T11:08:03.154Z</time></trkpt><trkpt lat="43.9053784" lon="11.220391"><ele>219.0</ele><time>2026-03-29T11:08:04.153Z</time></trkpt><trkpt lat="43.9053107" lon="11.2202944"><ele>219.0</ele><time>2026-03-29T11:08:06.154Z</time></trkpt><trkpt lat="43.9052428" lon="11.2202082"><ele>219.0</ele><time>2026-03-29T11:08:08.153Z</time></trkpt><trkpt lat="43.905221" lon="11.2201225"><ele>219.0</ele><time>2026-03-29T11:08:10.154Z</time></trkpt><trkpt lat="43.9053007" lon="11.2200675"><ele>219.0</ele><time>2026-03-29T11:08:13.154Z</time></trkpt><trkpt lat="43.9054039" lon="11.2201229"><ele>219.0</ele><time>2026-03-29T11:08:15.154Z</time></trkpt><trkpt lat="43.9054774" lon="11.2201339"><ele>219.0</ele><time>2026-03-29T11:08:16.154Z</time></trkpt><trkpt lat="43.9055615" lon="11.220133"><ele>219.0</ele><time>2026-03-29T11:08:17.154Z</time></trkpt><trkpt lat="43.9056455" lon="11.2201238"><ele>219.0</ele><time>2026-03-29T11:08:18.154Z</time></trkpt><trkpt lat="43.9057301" lon="11.2201074"><ele>219.0</ele><time>2026-03-29T11:08:19.154Z</time></trkpt><trkpt lat="43.9058147" lon="11.2200869"><ele>219.0</ele><time>2026-03-29T11:08:20.154Z</time></trkpt><trkpt lat="43.9059001" lon="11.2200572"><ele>219.0</ele><time>2026-03-29T11:08:21.154Z</time></trkpt><trkpt lat="43.9059824" lon="11.2200253"><ele>219.0</ele><time>2026-03-29T11:08:22.154Z</time></trkpt><trkpt lat="43.9060688" lon="11.219993"><ele>219.0</ele><time>2026-03-29T11:08:23.154Z</time></trkpt><trkpt lat="43.9061541" lon="11.2199443"><ele>219.0</ele><time>2026-03-29T11:08:24.154Z</time></trkpt><trkpt lat="43.9062395" lon="11.2198852"><ele>216.79999999999998</ele><time>2026-03-29T11:08:25.154Z</time></trkpt><trkpt lat="43.9063278" lon="11.2198189"><ele>214.59999999999997</ele><time>2026-03-29T11:08:26.154Z</time></trkpt><trkpt lat="43.9064143" lon="11.2197709"><ele>212.4</ele><time>2026-03-29T11:08:27.154Z</time></trkpt><trkpt lat="43.9064959" lon="11.2197278"><ele>210.2</ele><time>2026-03-29T11:08:28.154Z</time></trkpt><trkpt lat="43.9065783" lon="11.2196803"><ele>208.0</ele><time>2026-03-29T11:08:29.154Z</time></trkpt><trkpt lat="43.9066589" lon="11.2196283"><ele>206.8</ele><time>2026-03-29T11:08:30.154Z</time></trkpt><trkpt lat="43.9067425" lon="11.2195897"><ele>205.60000000000002</ele><time>2026-03-29T11:08:31.154Z</time></trkpt><trkpt lat="43.9068297" lon="11.2195488"><ele>204.39999999999998</ele><time>2026-03-29T11:08:32.154Z</time></trkpt><trkpt lat="43.9069183" lon="11.2195335"><ele>203.2</ele><time>2026-03-29T11:08:33.154Z</time></trkpt><trkpt lat="43.9070166" lon="11.2195297"><ele>202.0</ele><time>2026-03-29T11:08:34.154Z</time></trkpt><trkpt lat="43.9071309" lon="11.2195483"><ele>199.16666666666666</ele><time>2026-03-29T11:08:35.154Z</time></trkpt><trkpt lat="43.9072231" lon="11.2195652"><ele>196.33333333333331</ele><time>2026-03-29T11:08:36.154Z</time></trkpt><trkpt lat="43.9073134" lon="11.2195864"><ele>193.5</ele><time>2026-03-29T11:08:37.154Z</time></trkpt><trkpt lat="43.9073931" lon="11.2196143"><ele>190.66666666666666</ele><time>2026-03-29T11:08:38.154Z</time></trkpt><trkpt lat="43.9074687" lon="11.2196239"><ele>187.83333333333331</ele><time>2026-03-29T11:08:39.153Z</time></trkpt><trkpt lat="43.907547" lon="11.219646"><ele>185.0</ele><time>2026-03-29T11:08:40.154Z</time></trkpt><trkpt lat="43.9076224" lon="11.219645"><ele>183.66666666666666</ele><time>2026-03-29T11:08:41.154Z</time></trkpt><trkpt lat="43.9076882" lon="11.2196404"><ele>182.33333333333331</ele><time>2026-03-29T11:08:42.154Z</time></trkpt><trkpt lat="43.9077513" lon="11.2196035"><ele>181.0</ele><time>2026-03-29T11:08:43.154Z</time></trkpt><trkpt lat="43.9078051" lon="11.2195208"><ele>179.66666666666666</ele><time>2026-03-29T11:08:44.154Z</time></trkpt><trkpt lat="43.907855" lon="11.219419"><ele>178.33333333333334</ele><time>2026-03-29T11:08:45.154Z</time></trkpt><trkpt lat="43.9079092" lon="11.2193153"><ele>177.0</ele><time>2026-03-29T11:08:46.154Z</time></trkpt><trkpt lat="43.907978" lon="11.219208"><ele>177.0</ele><time>2026-03-29T11:08:47.154Z</time></trkpt><trkpt lat="43.9080616" lon="11.2191068"><ele>177.0</ele><time>2026-03-29T11:08:48.154Z</time></trkpt><trkpt lat="43.9081485" lon="11.219021"><ele>177.0</ele><time>2026-03-29T11:08:49.154Z</time></trkpt><trkpt lat="43.9082372" lon="11.2189351"><ele>177.0</ele><time>2026-03-29T11:08:50.153Z</time></trkpt><trkpt lat="43.9083261" lon="11.2188476"><ele>177.0</ele><time>2026-03-29T11:08:51.154Z</time></trkpt><trkpt lat="43.9084111" lon="11.2187667"><ele>177.0</ele><time>2026-03-29T11:08:52.154Z</time></trkpt><trkpt lat="43.9084885" lon="11.218685"><ele>177.0</ele><time>2026-03-29T11:08:53.154Z</time></trkpt><trkpt lat="43.9085616" lon="11.2186064"><ele>177.0</ele><time>2026-03-29T11:08:54.154Z</time></trkpt><trkpt lat="43.9086393" lon="11.2185269"><ele>177.0</ele><time>2026-03-29T11:08:55.154Z</time></trkpt><trkpt lat="43.9087241" lon="11.2184551"><ele>177.0</ele><time>2026-03-29T11:08:56.154Z</time></trkpt><trkpt lat="43.9088009" lon="11.2183893"><ele>177.0</ele><time>2026-03-29T11:08:57.154Z</time></trkpt><trkpt lat="43.9088748" lon="11.2183239"><ele>177.0</ele><time>2026-03-29T11:08:58.154Z</time></trkpt><trkpt lat="43.9089485" lon="11.2182468"><ele>177.0</ele><time>2026-03-29T11:08:59.154Z</time></trkpt><trkpt lat="43.9090264" lon="11.2181662"><ele>177.0</ele><time>2026-03-29T11:09:00.154Z</time></trkpt><trkpt lat="43.9091166" lon="11.2180753"><ele>177.0</ele><time>2026-03-29T11:09:01.154Z</time></trkpt><trkpt lat="43.9092134" lon="11.2179773"><ele>178.2</ele><time>2026-03-29T11:09:02.154Z</time></trkpt><trkpt lat="43.9093032" lon="11.2178906"><ele>179.39999999999998</ele><time>2026-03-29T11:09:03.154Z</time></trkpt><trkpt lat="43.9093813" lon="11.2178094"><ele>180.60000000000002</ele><time>2026-03-29T11:09:04.154Z</time></trkpt><trkpt lat="43.9094485" lon="11.2177373"><ele>181.8</ele><time>2026-03-29T11:09:05.154Z</time></trkpt><trkpt lat="43.9095075" lon="11.2176407"><ele>183.0</ele><time>2026-03-29T11:09:07.154Z</time></trkpt><trkpt lat="43.9094981" lon="11.2175288"><ele>183.0</ele><time>2026-03-29T11:09:10.154Z</time></trkpt><trkpt lat="43.9094132" lon="11.2174485"><ele>183.0</ele><time>2026-03-29T11:09:11.154Z</time></trkpt><trkpt lat="43.9093129" lon="11.2173594"><ele>183.0</ele><time>2026-03-29T11:09:12.154Z</time></trkpt><trkpt lat="43.9092205" lon="11.2172647"><ele>183.0</ele><time>2026-03-29T11:09:13.154Z</time></trkpt><trkpt lat="43.9091181" lon="11.2171564"><ele>181.75</ele><time>2026-03-29T11:09:14.154Z</time></trkpt><trkpt lat="43.9090171" lon="11.217041"><ele>180.5</ele><time>2026-03-29T11:09:15.154Z</time></trkpt><trkpt lat="43.9089247" lon="11.2169398"><ele>179.25</ele><time>2026-03-29T11:09:16.154Z</time></trkpt><trkpt lat="43.9088354" lon="11.2168507"><ele>178.0</ele><time>2026-03-29T11:09:17.153Z</time></trkpt><trkpt lat="43.9087608" lon="11.2167715"><ele>178.0</ele><time>2026-03-29T11:09:18.154Z</time></trkpt><trkpt lat="43.9087082" lon="11.2167057"><ele>178.0</ele><time>2026-03-29T11:09:19.154Z</time></trkpt><trkpt lat="43.9086439" lon="11.2165846"><ele>178.0</ele><time>2026-03-29T11:09:21.154Z</time></trkpt><trkpt lat="43.9086585" lon="11.216447"><ele>178.0</ele><time>2026-03-29T11:09:23.154Z</time></trkpt><trkpt lat="43.9086758" lon="11.2163576"><ele>178.0</ele><time>2026-03-29T11:09:24.154Z</time></trkpt><trkpt lat="43.9086938" lon="11.2162659"><ele>178.0</ele><time>2026-03-29T11:09:25.154Z</time></trkpt><trkpt lat="43.908712" lon="11.2161488"><ele>181.2</ele><time>2026-03-29T11:09:26.154Z</time></trkpt><trkpt lat="43.908738" lon="11.2160176"><ele>184.4</ele><time>2026-03-29T11:09:27.154Z</time></trkpt><trkpt lat="43.9087612" lon="11.2158935"><ele>187.6</ele><time>2026-03-29T11:09:28.154Z</time></trkpt><trkpt lat="43.9087428" lon="11.2158007"><ele>190.79999999999998</ele><time>2026-03-29T11:09:29.154Z</time></trkpt><trkpt lat="43.9086777" lon="11.2157083"><ele>194.0</ele><time>2026-03-29T11:09:30.154Z</time></trkpt><trkpt lat="43.908562" lon="11.2156351"><ele>195.2</ele><time>2026-03-29T11:09:31.154Z</time></trkpt><trkpt lat="43.9084519" lon="11.2155497"><ele>196.39999999999998</ele><time>2026-03-29T11:09:32.154Z</time></trkpt><trkpt lat="43.908341" lon="11.2154682"><ele>197.6</ele><time>2026-03-29T11:09:33.154Z</time></trkpt><trkpt lat="43.9082541" lon="11.2153975"><ele>198.8</ele><time>2026-03-29T11:09:34.154Z</time></trkpt><trkpt lat="43.9081869" lon="11.2153325"><ele>200.0</ele><time>2026-03-29T11:09:35.154Z</time></trkpt><trkpt lat="43.9081418" lon="11.2152315"><ele>200.00000000000003</ele><time>2026-03-29T11:09:36.154Z</time></trkpt><trkpt lat="43.9081234" lon="11.2151169"><ele>200.0</ele><time>2026-03-29T11:09:37.154Z</time></trkpt><trkpt lat="43.9081821" lon="11.2150449"><ele>200.0</ele><time>2026-03-29T11:09:39.154Z</time></trkpt><trkpt lat="43.9082844" lon="11.2151018"><ele>200.0</ele><time>2026-03-29T11:09:41.154Z</time></trkpt><trkpt lat="43.9082266" lon="11.2150645"><ele>200.00000000000003</ele><time>2026-03-29T11:11:31.154Z</time></trkpt><trkpt lat="43.9082883" lon="11.2151561"><ele>200.0</ele><time>2026-03-29T11:12:39.155Z</time></trkpt><trkpt lat="43.9084074" lon="11.2152102"><ele>203.2</ele><time>2026-03-29T11:12:41.155Z</time></trkpt><trkpt lat="43.9084722" lon="11.2152405"><ele>206.4</ele><time>2026-03-29T11:12:42.155Z</time></trkpt><trkpt lat="43.9085871" lon="11.2152892"><ele>209.60000000000002</ele><time>2026-03-29T11:12:44.155Z</time></trkpt><trkpt lat="43.9087077" lon="11.2153311"><ele>212.8</ele><time>2026-03-29T11:12:46.155Z</time></trkpt><trkpt lat="43.9087734" lon="11.2153486"><ele>216.0</ele><time>2026-03-29T11:12:47.155Z</time></trkpt><trkpt lat="43.9088776" lon="11.2153676"><ele>216.0</ele><time>2026-03-29T11:12:49.155Z</time></trkpt><trkpt lat="43.9089589" lon="11.2153899"><ele>216.0</ele><time>2026-03-29T11:12:51.155Z</time></trkpt><trkpt lat="43.9090287" lon="11.2154335"><ele>216.0</ele><time>2026-03-29T11:12:54.155Z</time></trkpt><trkpt lat="43.9089599" lon="11.2154355"><ele>216.0</ele><time>2026-03-29T11:12:58.155Z</time></trkpt><trkpt lat="43.9088475" lon="11.2153783"><ele>216.0</ele><time>2026-03-29T11:13:00.155Z</time></trkpt><trkpt lat="43.90878" lon="11.2153593"><ele>216.0</ele><time>2026-03-29T11:13:01.155Z</time></trkpt><trkpt lat="43.9087128" lon="11.2153485"><ele>216.0</ele><time>2026-03-29T11:13:02.155Z</time></trkpt><trkpt lat="43.9086436" lon="11.2153221"><ele>216.0</ele><time>2026-03-29T11:13:03.155Z</time></trkpt><trkpt lat="43.908576" lon="11.2152809"><ele>216.0</ele><time>2026-03-29T11:13:04.155Z</time></trkpt><trkpt lat="43.908512" lon="11.2152508"><ele>216.0</ele><time>2026-03-29T11:13:05.155Z</time></trkpt><trkpt lat="43.9084419" lon="11.2152219"><ele>216.0</ele><time>2026-03-29T11:13:06.155Z</time></trkpt><trkpt lat="43.9083759" lon="11.2151991"><ele>216.0</ele><time>2026-03-29T11:13:07.155Z</time></trkpt><trkpt lat="43.9082686" lon="11.2151454"><ele>215.8</ele><time>2026-03-29T11:13:09.155Z</time></trkpt><trkpt lat="43.9081979" lon="11.2150742"><ele>215.60000000000002</ele><time>2026-03-29T11:13:11.155Z</time></trkpt><trkpt lat="43.9081423" lon="11.2149905"><ele>215.4</ele><time>2026-03-29T11:13:14.155Z</time></trkpt><trkpt lat="43.9081424" lon="11.214874"><ele>215.2</ele><time>2026-03-29T11:13:16.155Z</time></trkpt><trkpt lat="43.9081379" lon="11.2147344"><ele>215.0</ele><time>2026-03-29T11:13:18.155Z</time></trkpt><trkpt lat="43.9081285" lon="11.2145928"><ele>215.0</ele><time>2026-03-29T11:13:20.155Z</time></trkpt><trkpt lat="43.9081084" lon="11.214498"><ele>215.0</ele><time>2026-03-29T11:13:22.155Z</time></trkpt><trkpt lat="43.9080549" lon="11.2144111"><ele>215.0</ele><time>2026-03-29T11:13:24.155Z</time></trkpt><trkpt lat="43.9080051" lon="11.2142952"><ele>215.0</ele><time>2026-03-29T11:13:26.155Z</time></trkpt><trkpt lat="43.9079582" lon="11.2141602"><ele>215.0</ele><time>2026-03-29T11:13:28.155Z</time></trkpt><trkpt lat="43.9079165" lon="11.2140369"><ele>216.0</ele><time>2026-03-29T11:13:30.154Z</time></trkpt><trkpt lat="43.9078832" lon="11.2139107"><ele>217.0</ele><time>2026-03-29T11:13:32.155Z</time></trkpt><trkpt lat="43.9078935" lon="11.2137728"><ele>218.0</ele><time>2026-03-29T11:13:34.155Z</time></trkpt><trkpt lat="43.9079186" lon="11.2136311"><ele>219.0</ele><time>2026-03-29T11:13:36.155Z</time></trkpt><trkpt lat="43.9079445" lon="11.2135012"><ele>220.0</ele><time>2026-03-29T11:13:38.155Z</time></trkpt><trkpt lat="43.9079767" lon="11.2134034"><ele>219.99999999999997</ele><time>2026-03-29T11:13:40.155Z</time></trkpt><trkpt lat="43.9080601" lon="11.2133822"><ele>220.0</ele><time>2026-03-29T11:13:49.155Z</time></trkpt><trkpt lat="43.9081179" lon="11.2134326"><ele>220.0</ele><time>2026-03-29T11:13:51.155Z</time></trkpt><trkpt lat="43.9081839" lon="11.213499"><ele>220.0</ele><time>2026-03-29T11:13:53.155Z</time></trkpt><trkpt lat="43.9082414" lon="11.2134428"><ele>219.99999999999997</ele><time>2026-03-29T11:13:56.155Z</time></trkpt><trkpt lat="43.9082544" lon="11.2133302"><ele>220.0</ele><time>2026-03-29T11:13:58.155Z</time></trkpt><trkpt lat="43.9083088" lon="11.2132442"><ele>220.2</ele><time>2026-03-29T11:14:01.155Z</time></trkpt><trkpt lat="43.908323" lon="11.2130377"><ele>220.4</ele><time>2026-03-29T11:14:07.155Z</time></trkpt><trkpt lat="43.9083362" lon="11.2129442"><ele>220.60000000000002</ele><time>2026-03-29T11:14:08.155Z</time></trkpt><trkpt lat="43.9083549" lon="11.2127836"><ele>220.8</ele><time>2026-03-29T11:14:10.155Z</time></trkpt><trkpt lat="43.9083626" lon="11.2126267"><ele>221.0</ele><time>2026-03-29T11:14:12.155Z</time></trkpt><trkpt lat="43.9083594" lon="11.2125369"><ele>221.0</ele><time>2026-03-29T11:14:13.155Z</time></trkpt><trkpt lat="43.9083574" lon="11.2123651"><ele>221.00000000000003</ele><time>2026-03-29T11:14:15.155Z</time></trkpt><trkpt lat="43.9083483" lon="11.212261"><ele>221.00000000000003</ele><time>2026-03-29T11:14:16.155Z</time></trkpt><trkpt lat="43.9083383" lon="11.2121497"><ele>221.0</ele><time>2026-03-29T11:14:17.155Z</time></trkpt><trkpt lat="43.9083221" lon="11.2120323"><ele>221.0</ele><time>2026-03-29T11:14:18.155Z</time></trkpt><trkpt lat="43.9082989" lon="11.2119031"><ele>222.16666666666669</ele><time>2026-03-29T11:14:19.155Z</time></trkpt><trkpt lat="43.9082784" lon="11.2117863"><ele>223.33333333333334</ele><time>2026-03-29T11:14:20.155Z</time></trkpt><trkpt lat="43.9082519" lon="11.2116701"><ele>224.5</ele><time>2026-03-29T11:14:21.155Z</time></trkpt><trkpt lat="43.9082189" lon="11.2115676"><ele>225.66666666666669</ele><time>2026-03-29T11:14:22.155Z</time></trkpt><trkpt lat="43.9081802" lon="11.2114773"><ele>226.83333333333334</ele><time>2026-03-29T11:14:23.155Z</time></trkpt><trkpt lat="43.9081365" lon="11.2113874"><ele>228.0</ele><time>2026-03-29T11:14:24.155Z</time></trkpt><trkpt lat="43.9080906" lon="11.2112914"><ele>232.0</ele><time>2026-03-29T11:14:25.155Z</time></trkpt><trkpt lat="43.908037" lon="11.2111942"><ele>236.0</ele><time>2026-03-29T11:14:26.155Z</time></trkpt><trkpt lat="43.9079875" lon="11.2110885"><ele>240.0</ele><time>2026-03-29T11:14:27.155Z</time></trkpt><trkpt lat="43.907929" lon="11.2109871"><ele>244.0</ele><time>2026-03-29T11:14:28.155Z</time></trkpt><trkpt lat="43.9078729" lon="11.2109016"><ele>248.0</ele><time>2026-03-29T11:14:29.155Z</time></trkpt><trkpt lat="43.9077961" lon="11.2107669"><ele>248.00000000000003</ele><time>2026-03-29T11:14:31.155Z</time></trkpt><trkpt lat="43.9077482" lon="11.2106952"><ele>248.0</ele><time>2026-03-29T11:14:32.155Z</time></trkpt><trkpt lat="43.9076787" lon="11.2106242"><ele>248.0</ele><time>2026-03-29T11:14:33.155Z</time></trkpt><trkpt lat="43.9076119" lon="11.2105608"><ele>248.0</ele><time>2026-03-29T11:14:34.155Z</time></trkpt><trkpt lat="43.9075522" lon="11.2104966"><ele>248.00000000000003</ele><time>2026-03-29T11:14:35.155Z</time></trkpt><trkpt lat="43.9074985" lon="11.2104334"><ele>248.0</ele><time>2026-03-29T11:14:36.155Z</time></trkpt><trkpt lat="43.9074398" lon="11.2103578"><ele>249.16666666666669</ele><time>2026-03-29T11:14:37.155Z</time></trkpt><trkpt lat="43.9073906" lon="11.2102725"><ele>250.33333333333334</ele><time>2026-03-29T11:14:38.155Z</time></trkpt><trkpt lat="43.9073299" lon="11.2102206"><ele>251.5</ele><time>2026-03-29T11:14:39.155Z</time></trkpt><trkpt lat="43.9072641" lon="11.2101709"><ele>252.66666666666669</ele><time>2026-03-29T11:14:40.155Z</time></trkpt><trkpt lat="43.907193" lon="11.2101226"><ele>253.83333333333334</ele><time>2026-03-29T11:14:41.155Z</time></trkpt><trkpt lat="43.9071233" lon="11.2100817"><ele>255.0</ele><time>2026-03-29T11:14:42.155Z</time></trkpt><trkpt lat="43.9070495" lon="11.2100454"><ele>255.0</ele><time>2026-03-29T11:14:43.155Z</time></trkpt><trkpt lat="43.9069801" lon="11.2099991"><ele>255.0</ele><time>2026-03-29T11:14:44.155Z</time></trkpt><trkpt lat="43.9069115" lon="11.2099412"><ele>255.0</ele><time>2026-03-29T11:14:45.155Z</time></trkpt><trkpt lat="43.9068431" lon="11.2098732"><ele>255.0</ele><time>2026-03-29T11:14:46.155Z</time></trkpt><trkpt lat="43.9067733" lon="11.2097878"><ele>255.0</ele><time>2026-03-29T11:14:47.155Z</time></trkpt><trkpt lat="43.906709" lon="11.209715"><ele>255.0</ele><time>2026-03-29T11:14:48.155Z</time></trkpt><trkpt lat="43.9066392" lon="11.2096524"><ele>257.8</ele><time>2026-03-29T11:14:49.155Z</time></trkpt><trkpt lat="43.906567" lon="11.2095821"><ele>260.6</ele><time>2026-03-29T11:14:50.155Z</time></trkpt><trkpt lat="43.9064992" lon="11.2095193"><ele>263.4</ele><time>2026-03-29T11:14:51.155Z</time></trkpt><trkpt lat="43.9064248" lon="11.2094567"><ele>266.2</ele><time>2026-03-29T11:14:52.155Z</time></trkpt><trkpt lat="43.9063403" lon="11.2093899"><ele>269.0</ele><time>2026-03-29T11:14:53.155Z</time></trkpt><trkpt lat="43.9062362" lon="11.2093132"><ele>269.0</ele><time>2026-03-29T11:14:54.155Z</time></trkpt><trkpt lat="43.9061422" lon="11.2092304"><ele>269.0</ele><time>2026-03-29T11:14:55.155Z</time></trkpt><trkpt lat="43.9060786" lon="11.2091595"><ele>269.0</ele><time>2026-03-29T11:14:56.154Z</time></trkpt><trkpt lat="43.9060239" lon="11.2091015"><ele>269.0</ele><time>2026-03-29T11:14:57.154Z</time></trkpt><trkpt lat="43.9059735" lon="11.2090443"><ele>269.0</ele><time>2026-03-29T11:14:58.155Z</time></trkpt><trkpt lat="43.9059265" lon="11.208984"><ele>269.0</ele><time>2026-03-29T11:14:59.155Z</time></trkpt><trkpt lat="43.9058774" lon="11.2088254"><ele>269.2857142857143</ele><time>2026-03-29T11:15:01.155Z</time></trkpt><trkpt lat="43.9058456" lon="11.2087421"><ele>269.5714285714286</ele><time>2026-03-29T11:15:02.155Z</time></trkpt><trkpt lat="43.9058002" lon="11.2086627"><ele>269.8571428571429</ele><time>2026-03-29T11:15:03.155Z</time></trkpt><trkpt lat="43.9057492" lon="11.208589"><ele>270.14285714285717</ele><time>2026-03-29T11:15:04.155Z</time></trkpt><trkpt lat="43.9056799" lon="11.208532"><ele>270.42857142857144</ele><time>2026-03-29T11:15:05.155Z</time></trkpt><trkpt lat="43.905608" lon="11.2084998"><ele>270.7142857142857</ele><time>2026-03-29T11:15:06.155Z</time></trkpt><trkpt lat="43.9055412" lon="11.2084693"><ele>271.0</ele><time>2026-03-29T11:15:07.155Z</time></trkpt><trkpt lat="43.9054218" lon="11.2084376"><ele>271.0</ele><time>2026-03-29T11:15:09.155Z</time></trkpt><trkpt lat="43.9053157" lon="11.2083393"><ele>271.0</ele><time>2026-03-29T11:15:11.155Z</time></trkpt><trkpt lat="43.9052495" lon="11.208242"><ele>271.0</ele><time>2026-03-29T11:15:12.155Z</time></trkpt><trkpt lat="43.9051968" lon="11.2081744"><ele>271.0</ele><time>2026-03-29T11:15:13.155Z</time></trkpt><trkpt lat="43.9051458" lon="11.2081161"><ele>271.0</ele><time>2026-03-29T11:15:14.155Z</time></trkpt><trkpt lat="43.9050881" lon="11.2080253"><ele>271.0</ele><time>2026-03-29T11:15:15.155Z</time></trkpt><trkpt lat="43.9050259" lon="11.2079523"><ele>271.6</ele><time>2026-03-29T11:15:16.155Z</time></trkpt><trkpt lat="43.9049507" lon="11.2078802"><ele>272.20000000000005</ele><time>2026-03-29T11:15:17.155Z</time></trkpt><trkpt lat="43.9048548" lon="11.207797"><ele>272.79999999999995</ele><time>2026-03-29T11:15:18.155Z</time></trkpt><trkpt lat="43.9047605" lon="11.2077022"><ele>273.4</ele><time>2026-03-29T11:15:19.154Z</time></trkpt><trkpt lat="43.9046772" lon="11.2075975"><ele>274.0</ele><time>2026-03-29T11:15:20.155Z</time></trkpt><trkpt lat="43.9045928" lon="11.2074819"><ele>274.0</ele><time>2026-03-29T11:15:21.155Z</time></trkpt><trkpt lat="43.9045231" lon="11.2073561"><ele>274.0</ele><time>2026-03-29T11:15:22.155Z</time></trkpt><trkpt lat="43.9044752" lon="11.2072365"><ele>274.0</ele><time>2026-03-29T11:15:23.155Z</time></trkpt><trkpt lat="43.9044387" lon="11.2071323"><ele>274.0</ele><time>2026-03-29T11:15:24.155Z</time></trkpt><trkpt lat="43.9044179" lon="11.2070451"><ele>274.0</ele><time>2026-03-29T11:15:25.155Z</time></trkpt><trkpt lat="43.9043569" lon="11.2068488"><ele>272.0</ele><time>2026-03-29T11:15:27.155Z</time></trkpt><trkpt lat="43.9043121" lon="11.2067139"><ele>270.0</ele><time>2026-03-29T11:15:28.155Z</time></trkpt><trkpt lat="43.9042802" lon="11.2066295"><ele>268.0</ele><time>2026-03-29T11:15:29.155Z</time></trkpt><trkpt lat="43.9042315" lon="11.2065623"><ele>266.0</ele><time>2026-03-29T11:15:30.155Z</time></trkpt><trkpt lat="43.9041808" lon="11.2064993"><ele>264.0</ele><time>2026-03-29T11:15:31.155Z</time></trkpt><trkpt lat="43.9041166" lon="11.2064418"><ele>262.0</ele><time>2026-03-29T11:15:32.154Z</time></trkpt><trkpt lat="43.9040498" lon="11.2063864"><ele>266.16666666666663</ele><time>2026-03-29T11:15:33.155Z</time></trkpt><trkpt lat="43.9039795" lon="11.2063338"><ele>270.3333333333333</ele><time>2026-03-29T11:15:34.154Z</time></trkpt><trkpt lat="43.9039217" lon="11.2062822"><ele>274.5</ele><time>2026-03-29T11:15:35.155Z</time></trkpt><trkpt lat="43.9038314" lon="11.2061688"><ele>278.6666666666667</ele><time>2026-03-29T11:15:37.155Z</time></trkpt><trkpt lat="43.9037858" lon="11.206084"><ele>282.83333333333337</ele><time>2026-03-29T11:15:38.155Z</time></trkpt><trkpt lat="43.9037365" lon="11.205986"><ele>287.0</ele><time>2026-03-29T11:15:39.155Z</time></trkpt><trkpt lat="43.9036891" lon="11.2059062"><ele>287.0</ele><time>2026-03-29T11:15:40.155Z</time></trkpt><trkpt lat="43.9036405" lon="11.2058056"><ele>287.0</ele><time>2026-03-29T11:15:41.155Z</time></trkpt><trkpt lat="43.9035989" lon="11.2057123"><ele>287.0</ele><time>2026-03-29T11:15:42.155Z</time></trkpt><trkpt lat="43.9035626" lon="11.2056211"><ele>287.0</ele><time>2026-03-29T11:15:43.154Z</time></trkpt><trkpt lat="43.9035312" lon="11.2055412"><ele>287.0</ele><time>2026-03-29T11:15:44.154Z</time></trkpt><trkpt lat="43.9034978" lon="11.2054177"><ele>287.0</ele><time>2026-03-29T11:15:46.155Z</time></trkpt><trkpt lat="43.903456" lon="11.2053126"><ele>284.6</ele><time>2026-03-29T11:15:48.155Z</time></trkpt><trkpt lat="43.9033905" lon="11.2051702"><ele>282.2</ele><time>2026-03-29T11:15:50.155Z</time></trkpt><trkpt lat="43.9033663" lon="11.2050888"><ele>279.8</ele><time>2026-03-29T11:15:51.155Z</time></trkpt><trkpt lat="43.9033555" lon="11.2049801"><ele>277.4</ele><time>2026-03-29T11:15:52.155Z</time></trkpt><trkpt lat="43.9033554" lon="11.2048697"><ele>275.0</ele><time>2026-03-29T11:15:53.155Z</time></trkpt><trkpt lat="43.9033084" lon="11.2046961"><ele>275.0</ele><time>2026-03-29T11:15:55.155Z</time></trkpt><trkpt lat="43.9032591" lon="11.2045651"><ele>275.0</ele><time>2026-03-29T11:15:56.154Z</time></trkpt><trkpt lat="43.9031989" lon="11.204448"><ele>275.0</ele><time>2026-03-29T11:15:57.155Z</time></trkpt><trkpt lat="43.9031341" lon="11.2043256"><ele>275.0</ele><time>2026-03-29T11:15:58.155Z</time></trkpt><trkpt lat="43.9030756" lon="11.2042141"><ele>275.0</ele><time>2026-03-29T11:15:59.155Z</time></trkpt><trkpt lat="43.9030323" lon="11.204124"><ele>275.0</ele><time>2026-03-29T11:16:00.155Z</time></trkpt><trkpt lat="43.9029996" lon="11.204013"><ele>275.0</ele><time>2026-03-29T11:16:01.155Z</time></trkpt><trkpt lat="43.9029849" lon="11.2039078"><ele>275.0</ele><time>2026-03-29T11:16:02.155Z</time></trkpt><trkpt lat="43.902973" lon="11.2037925"><ele>275.0</ele><time>2026-03-29T11:16:03.155Z</time></trkpt><trkpt lat="43.9029632" lon="11.2036766"><ele>275.0</ele><time>2026-03-29T11:16:04.154Z</time></trkpt><trkpt lat="43.9029647" lon="11.2035619"><ele>275.0</ele><time>2026-03-29T11:16:05.155Z</time></trkpt><trkpt lat="43.9029572" lon="11.2034423"><ele>277.4</ele><time>2026-03-29T11:16:06.155Z</time></trkpt><trkpt lat="43.9029497" lon="11.2033096"><ele>279.8</ele><time>2026-03-29T11:16:07.155Z</time></trkpt><trkpt lat="43.9029452" lon="11.2031632"><ele>282.2</ele><time>2026-03-29T11:16:08.155Z</time></trkpt><trkpt lat="43.9029425" lon="11.2030268"><ele>284.6</ele><time>2026-03-29T11:16:09.155Z</time></trkpt><trkpt lat="43.9029444" lon="11.20291"><ele>287.0</ele><time>2026-03-29T11:16:10.155Z</time></trkpt><trkpt lat="43.90294" lon="11.2027872"><ele>287.83333333333337</ele><time>2026-03-29T11:16:11.155Z</time></trkpt><trkpt lat="43.9029256" lon="11.2026831"><ele>288.6666666666667</ele><time>2026-03-29T11:16:12.155Z</time></trkpt><trkpt lat="43.902887" lon="11.2025673"><ele>289.5</ele><time>2026-03-29T11:16:13.155Z</time></trkpt><trkpt lat="43.9028212" lon="11.2024784"><ele>290.3333333333333</ele><time>2026-03-29T11:16:14.155Z</time></trkpt><trkpt lat="43.9027555" lon="11.2024097"><ele>291.16666666666663</ele><time>2026-03-29T11:16:15.155Z</time></trkpt><trkpt lat="43.9026973" lon="11.2023351"><ele>292.0</ele><time>2026-03-29T11:16:16.155Z</time></trkpt><trkpt lat="43.9026342" lon="11.2022526"><ele>289.0</ele><time>2026-03-29T11:16:17.155Z</time></trkpt><trkpt lat="43.9025635" lon="11.2021553"><ele>286.0</ele><time>2026-03-29T11:16:18.155Z</time></trkpt><trkpt lat="43.9024696" lon="11.2020579"><ele>283.0</ele><time>2026-03-29T11:16:19.155Z</time></trkpt><trkpt lat="43.9023726" lon="11.2019533"><ele>280.0</ele><time>2026-03-29T11:16:20.155Z</time></trkpt><trkpt lat="43.9022759" lon="11.20183"><ele>280.0</ele><time>2026-03-29T11:16:21.154Z</time></trkpt><trkpt lat="43.9021954" lon="11.2017361"><ele>280.0</ele><time>2026-03-29T11:16:22.155Z</time></trkpt><trkpt lat="43.9021333" lon="11.201656"><ele>280.0</ele><time>2026-03-29T11:16:23.155Z</time></trkpt><trkpt lat="43.9020644" lon="11.2015756"><ele>280.0</ele><time>2026-03-29T11:16:24.154Z</time></trkpt><trkpt lat="43.9019897" lon="11.2014756"><ele>280.0</ele><time>2026-03-29T11:16:25.155Z</time></trkpt><trkpt lat="43.9019103" lon="11.2013511"><ele>280.6</ele><time>2026-03-29T11:16:26.154Z</time></trkpt><trkpt lat="43.9018434" lon="11.2012133"><ele>281.2</ele><time>2026-03-29T11:16:27.155Z</time></trkpt><trkpt lat="43.9017831" lon="11.2010862"><ele>281.8</ele><time>2026-03-29T11:16:28.155Z</time></trkpt><trkpt lat="43.9017322" lon="11.2009985"><ele>282.4</ele><time>2026-03-29T11:16:29.155Z</time></trkpt><trkpt lat="43.9016986" lon="11.2009232"><ele>283.0</ele><time>2026-03-29T11:16:30.155Z</time></trkpt><trkpt lat="43.9016834" lon="11.2007818"><ele>281.16666666666663</ele><time>2026-03-29T11:16:32.155Z</time></trkpt><trkpt lat="43.9017001" lon="11.2006759"><ele>279.3333333333333</ele><time>2026-03-29T11:16:34.155Z</time></trkpt><trkpt lat="43.9016994" lon="11.2005747"><ele>277.5</ele><time>2026-03-29T11:16:39.155Z</time></trkpt><trkpt lat="43.9016183" lon="11.2005075"><ele>275.6666666666667</ele><time>2026-03-29T11:16:41.155Z</time></trkpt><trkpt lat="43.9015591" lon="11.2004768"><ele>273.83333333333337</ele><time>2026-03-29T11:16:42.155Z</time></trkpt><trkpt lat="43.9014941" lon="11.2004362"><ele>272.0</ele><time>2026-03-29T11:16:43.155Z</time></trkpt><trkpt lat="43.9014244" lon="11.2003968"><ele>271.4285714285714</ele><time>2026-03-29T11:16:44.155Z</time></trkpt><trkpt lat="43.9013661" lon="11.2003573"><ele>270.85714285714283</ele><time>2026-03-29T11:16:45.155Z</time></trkpt><trkpt lat="43.9013051" lon="11.200319"><ele>270.2857142857143</ele><time>2026-03-29T11:16:46.155Z</time></trkpt><trkpt lat="43.9012428" lon="11.2002777"><ele>269.71428571428567</ele><time>2026-03-29T11:16:47.155Z</time></trkpt><trkpt lat="43.9011797" lon="11.2002322"><ele>269.1428571428571</ele><time>2026-03-29T11:16:48.155Z</time></trkpt><trkpt lat="43.9011163" lon="11.2001858"><ele>268.57142857142856</ele><time>2026-03-29T11:16:49.155Z</time></trkpt><trkpt lat="43.9010511" lon="11.2001442"><ele>268.0</ele><time>2026-03-29T11:16:50.155Z</time></trkpt><trkpt lat="43.9009848" lon="11.2001107"><ele>268.0</ele><time>2026-03-29T11:16:51.155Z</time></trkpt><trkpt lat="43.9009194" lon="11.2000836"><ele>268.0</ele><time>2026-03-29T11:16:52.155Z</time></trkpt><trkpt lat="43.9007976" lon="11.2000513"><ele>268.0</ele><time>2026-03-29T11:16:54.155Z</time></trkpt><trkpt lat="43.9007287" lon="11.2000388"><ele>268.0</ele><time>2026-03-29T11:16:55.155Z</time></trkpt><trkpt lat="43.9006582" lon="11.2000278"><ele>268.0</ele><time>2026-03-29T11:16:56.155Z</time></trkpt><trkpt lat="43.9005841" lon="11.2000139"><ele>268.0</ele><time>2026-03-29T11:16:57.155Z</time></trkpt><trkpt lat="43.900505" lon="11.2000108"><ele>269.0</ele><time>2026-03-29T11:16:58.155Z</time></trkpt><trkpt lat="43.9004195" lon="11.2000015"><ele>270.0</ele><time>2026-03-29T11:16:59.155Z</time></trkpt><trkpt lat="43.9003373" lon="11.1999832"><ele>271.0</ele><time>2026-03-29T11:17:00.155Z</time></trkpt><trkpt lat="43.9002559" lon="11.1999778"><ele>272.0</ele><time>2026-03-29T11:17:01.155Z</time></trkpt><trkpt lat="43.9001766" lon="11.1999832"><ele>273.0</ele><time>2026-03-29T11:17:02.155Z</time></trkpt><trkpt lat="43.9000984" lon="11.1999843"><ele>274.0</ele><time>2026-03-29T11:17:03.155Z</time></trkpt><trkpt lat="43.9000286" lon="11.1999851"><ele>274.59999999999997</ele><time>2026-03-29T11:17:04.155Z</time></trkpt><trkpt lat="43.8999617" lon="11.1999852"><ele>275.2</ele><time>2026-03-29T11:17:05.155Z</time></trkpt><trkpt lat="43.8998263" lon="11.1999703"><ele>275.79999999999995</ele><time>2026-03-29T11:17:07.155Z</time></trkpt><trkpt lat="43.8997339" lon="11.1999584"><ele>276.4</ele><time>2026-03-29T11:17:08.155Z</time></trkpt><trkpt lat="43.8996324" lon="11.1999496"><ele>277.0</ele><time>2026-03-29T11:17:09.155Z</time></trkpt><trkpt lat="43.8995281" lon="11.1999334"><ele>277.0</ele><time>2026-03-29T11:17:10.155Z</time></trkpt><trkpt lat="43.899407" lon="11.1999165"><ele>277.0</ele><time>2026-03-29T11:17:11.155Z</time></trkpt><trkpt lat="43.8992825" lon="11.1998846"><ele>277.0</ele><time>2026-03-29T11:17:12.154Z</time></trkpt><trkpt lat="43.89916" lon="11.1998292"><ele>277.0</ele><time>2026-03-29T11:17:13.155Z</time></trkpt><trkpt lat="43.8990289" lon="11.199746"><ele>273.75</ele><time>2026-03-29T11:17:14.155Z</time></trkpt><trkpt lat="43.8988972" lon="11.1996704"><ele>270.5</ele><time>2026-03-29T11:17:15.155Z</time></trkpt><trkpt lat="43.8987748" lon="11.1995969"><ele>267.25</ele><time>2026-03-29T11:17:16.155Z</time></trkpt><trkpt lat="43.8986515" lon="11.199508"><ele>264.0</ele><time>2026-03-29T11:17:17.155Z</time></trkpt><trkpt lat="43.8985527" lon="11.1994182"><ele>264.0</ele><time>2026-03-29T11:17:18.155Z</time></trkpt><trkpt lat="43.8984646" lon="11.1993168"><ele>264.0</ele><time>2026-03-29T11:17:19.155Z</time></trkpt><trkpt lat="43.8983842" lon="11.1992177"><ele>264.0</ele><time>2026-03-29T11:17:20.155Z</time></trkpt><trkpt lat="43.8983146" lon="11.1990978"><ele>264.0</ele><time>2026-03-29T11:17:21.155Z</time></trkpt><trkpt lat="43.8982496" lon="11.1989826"><ele>264.0</ele><time>2026-03-29T11:17:22.155Z</time></trkpt><trkpt lat="43.8981796" lon="11.1988441"><ele>263.25</ele><time>2026-03-29T11:17:23.155Z</time></trkpt><trkpt lat="43.8981064" lon="11.1986917"><ele>262.5</ele><time>2026-03-29T11:17:24.155Z</time></trkpt><trkpt lat="43.8980148" lon="11.1985552"><ele>261.75</ele><time>2026-03-29T11:17:25.155Z</time></trkpt><trkpt lat="43.8979285" lon="11.1984094"><ele>261.0</ele><time>2026-03-29T11:17:26.155Z</time></trkpt><trkpt lat="43.8978399" lon="11.1982775"><ele>262.75</ele><time>2026-03-29T11:17:27.155Z</time></trkpt><trkpt lat="43.8977595" lon="11.1981493"><ele>264.5</ele><time>2026-03-29T11:17:28.155Z</time></trkpt><trkpt lat="43.8976882" lon="11.1980257"><ele>266.25</ele><time>2026-03-29T11:17:29.155Z</time></trkpt><trkpt lat="43.8976182" lon="11.197905"><ele>268.0</ele><time>2026-03-29T11:17:30.155Z</time></trkpt><trkpt lat="43.8975475" lon="11.1977994"><ele>268.0</ele><time>2026-03-29T11:17:31.155Z</time></trkpt><trkpt lat="43.8974795" lon="11.1976932"><ele>268.0</ele><time>2026-03-29T11:17:32.155Z</time></trkpt><trkpt lat="43.8974157" lon="11.1976044"><ele>268.0</ele><time>2026-03-29T11:17:33.155Z</time></trkpt><trkpt lat="43.8973448" lon="11.1975265"><ele>268.0</ele><time>2026-03-29T11:17:34.155Z</time></trkpt><trkpt lat="43.8972579" lon="11.1974808"><ele>268.0</ele><time>2026-03-29T11:17:35.155Z</time></trkpt><trkpt lat="43.8971554" lon="11.1974537"><ele>268.0</ele><time>2026-03-29T11:17:36.155Z</time></trkpt><trkpt lat="43.8970489" lon="11.1974548"><ele>268.0</ele><time>2026-03-29T11:17:37.155Z</time></trkpt><trkpt lat="43.8969358" lon="11.1974639"><ele>268.0</ele><time>2026-03-29T11:17:38.155Z</time></trkpt><trkpt lat="43.8968338" lon="11.1974964"><ele>268.0</ele><time>2026-03-29T11:17:39.155Z</time></trkpt><trkpt lat="43.8967348" lon="11.1975243"><ele>268.0</ele><time>2026-03-29T11:17:40.155Z</time></trkpt><trkpt lat="43.8966294" lon="11.1975577"><ele>267.8</ele><time>2026-03-29T11:17:41.155Z</time></trkpt><trkpt lat="43.8965268" lon="11.1975783"><ele>267.6</ele><time>2026-03-29T11:17:42.155Z</time></trkpt><trkpt lat="43.896428" lon="11.1975731"><ele>267.4</ele><time>2026-03-29T11:17:43.155Z</time></trkpt><trkpt lat="43.8963389" lon="11.1975059"><ele>267.2</ele><time>2026-03-29T11:17:44.155Z</time></trkpt><trkpt lat="43.8962632" lon="11.1974114"><ele>267.0</ele><time>2026-03-29T11:17:45.155Z</time></trkpt><trkpt lat="43.8961787" lon="11.1973068"><ele>265.2</ele><time>2026-03-29T11:17:46.155Z</time></trkpt><trkpt lat="43.8961002" lon="11.1972151"><ele>263.4</ele><time>2026-03-29T11:17:47.155Z</time></trkpt><trkpt lat="43.8960225" lon="11.1971382"><ele>261.6</ele><time>2026-03-29T11:17:48.155Z</time></trkpt><trkpt lat="43.8959614" lon="11.1970759"><ele>259.8</ele><time>2026-03-29T11:17:49.155Z</time></trkpt><trkpt lat="43.8958858" lon="11.1969348"><ele>258.0</ele><time>2026-03-29T11:17:51.155Z</time></trkpt><trkpt lat="43.8958466" lon="11.196841"><ele>258.0</ele><time>2026-03-29T11:17:52.155Z</time></trkpt><trkpt lat="43.895809" lon="11.1967353"><ele>258.0</ele><time>2026-03-29T11:17:53.155Z</time></trkpt><trkpt lat="43.8957724" lon="11.1966287"><ele>258.0</ele><time>2026-03-29T11:17:54.155Z</time></trkpt><trkpt lat="43.8957446" lon="11.1965225"><ele>258.0</ele><time>2026-03-29T11:17:55.155Z</time></trkpt><trkpt lat="43.8957365" lon="11.1964106"><ele>258.0</ele><time>2026-03-29T11:17:56.155Z</time></trkpt><trkpt lat="43.8957299" lon="11.1962764"><ele>258.0</ele><time>2026-03-29T11:17:57.155Z</time></trkpt><trkpt lat="43.8957337" lon="11.1961509"><ele>257.8333333333333</ele><time>2026-03-29T11:17:58.155Z</time></trkpt><trkpt lat="43.8957341" lon="11.1960486"><ele>257.6666666666667</ele><time>2026-03-29T11:17:59.155Z</time></trkpt><trkpt lat="43.8957328" lon="11.195947"><ele>257.5</ele><time>2026-03-29T11:18:00.155Z</time></trkpt><trkpt lat="43.8957345" lon="11.1958482"><ele>257.33333333333337</ele><time>2026-03-29T11:18:01.155Z</time></trkpt><trkpt lat="43.8957374" lon="11.1957483"><ele>257.1666666666667</ele><time>2026-03-29T11:18:02.155Z</time></trkpt><trkpt lat="43.8957357" lon="11.1956559"><ele>257.0</ele><time>2026-03-29T11:18:03.155Z</time></trkpt><trkpt lat="43.8957146" lon="11.1954864"><ele>255.50000000000003</ele><time>2026-03-29T11:18:05.155Z</time></trkpt><trkpt lat="43.8956735" lon="11.195414"><ele>254.0</ele><time>2026-03-29T11:18:06.155Z</time></trkpt><trkpt lat="43.8956157" lon="11.1953454"><ele>252.5</ele><time>2026-03-29T11:18:07.155Z</time></trkpt><trkpt lat="43.8955585" lon="11.1952974"><ele>251.0</ele><time>2026-03-29T11:18:08.155Z</time></trkpt><trkpt lat="43.8954877" lon="11.1952308"><ele>249.50000000000003</ele><time>2026-03-29T11:18:09.155Z</time></trkpt><trkpt lat="43.8954037" lon="11.1951634"><ele>248.0</ele><time>2026-03-29T11:18:10.155Z</time></trkpt><trkpt lat="43.8953051" lon="11.1950837"><ele>248.0</ele><time>2026-03-29T11:18:11.155Z</time></trkpt><trkpt lat="43.8952082" lon="11.1949952"><ele>248.0</ele><time>2026-03-29T11:18:12.154Z</time></trkpt><trkpt lat="43.8951138" lon="11.1949021"><ele>248.0</ele><time>2026-03-29T11:18:13.154Z</time></trkpt><trkpt lat="43.895039" lon="11.1948049"><ele>248.0</ele><time>2026-03-29T11:18:14.154Z</time></trkpt><trkpt lat="43.8949686" lon="11.1947004"><ele>248.0</ele><time>2026-03-29T11:18:15.155Z</time></trkpt><trkpt lat="43.8949116" lon="11.1945896"><ele>245.4</ele><time>2026-03-29T11:18:16.155Z</time></trkpt><trkpt lat="43.8948675" lon="11.194483"><ele>242.8</ele><time>2026-03-29T11:18:17.155Z</time></trkpt><trkpt lat="43.8948236" lon="11.1943812"><ele>240.2</ele><time>2026-03-29T11:18:18.155Z</time></trkpt><trkpt lat="43.8947571" lon="11.194236"><ele>237.6</ele><time>2026-03-29T11:18:20.155Z</time></trkpt><trkpt lat="43.894717" lon="11.1941671"><ele>235.0</ele><time>2026-03-29T11:18:21.155Z</time></trkpt><trkpt lat="43.8946656" lon="11.1940353"><ele>232.99999999999997</ele><time>2026-03-29T11:18:23.155Z</time></trkpt><trkpt lat="43.8946233" lon="11.193901"><ele>231.0</ele><time>2026-03-29T11:18:25.155Z</time></trkpt><trkpt lat="43.8946082" lon="11.1938071"><ele>229.0</ele><time>2026-03-29T11:18:26.155Z</time></trkpt><trkpt lat="43.8945938" lon="11.193698"><ele>227.0</ele><time>2026-03-29T11:18:27.155Z</time></trkpt><trkpt lat="43.8945776" lon="11.1936001"><ele>224.99999999999997</ele><time>2026-03-29T11:18:28.155Z</time></trkpt><trkpt lat="43.8945439" lon="11.1934896"><ele>223.0</ele><time>2026-03-29T11:18:29.155Z</time></trkpt><trkpt lat="43.8945243" lon="11.1933761"><ele>223.0</ele><time>2026-03-29T11:18:30.155Z</time></trkpt><trkpt lat="43.8944954" lon="11.1932673"><ele>223.0</ele><time>2026-03-29T11:18:31.155Z</time></trkpt><trkpt lat="43.8944625" lon="11.193128"><ele>223.0</ele><time>2026-03-29T11:18:32.155Z</time></trkpt><trkpt lat="43.8944439" lon="11.1930269"><ele>223.0</ele><time>2026-03-29T11:18:33.155Z</time></trkpt><trkpt lat="43.8944222" lon="11.1929351"><ele>223.0</ele><time>2026-03-29T11:18:34.155Z</time></trkpt><trkpt lat="43.8943662" lon="11.1927705"><ele>221.66666666666666</ele><time>2026-03-29T11:18:36.155Z</time></trkpt><trkpt lat="43.8943339" lon="11.1926882"><ele>220.33333333333331</ele><time>2026-03-29T11:18:37.155Z</time></trkpt><trkpt lat="43.8942892" lon="11.1925828"><ele>219.0</ele><time>2026-03-29T11:18:39.155Z</time></trkpt><trkpt lat="43.8942263" lon="11.192494"><ele>217.66666666666669</ele><time>2026-03-29T11:18:41.155Z</time></trkpt><trkpt lat="43.8941978" lon="11.192386"><ele>216.33333333333334</ele><time>2026-03-29T11:18:42.155Z</time></trkpt><trkpt lat="43.8941702" lon="11.1922812"><ele>215.0</ele><time>2026-03-29T11:18:43.155Z</time></trkpt><trkpt lat="43.8941267" lon="11.1921613"><ele>214.16666666666669</ele><time>2026-03-29T11:18:44.155Z</time></trkpt><trkpt lat="43.8940701" lon="11.1920642"><ele>213.33333333333334</ele><time>2026-03-29T11:18:45.155Z</time></trkpt><trkpt lat="43.8940226" lon="11.1919702"><ele>212.5</ele><time>2026-03-29T11:18:46.155Z</time></trkpt><trkpt lat="43.8939681" lon="11.1918904"><ele>211.66666666666669</ele><time>2026-03-29T11:18:47.155Z</time></trkpt><trkpt lat="43.8939039" lon="11.1918028"><ele>210.83333333333334</ele><time>2026-03-29T11:18:48.155Z</time></trkpt><trkpt lat="43.8938359" lon="11.1917191"><ele>210.0</ele><time>2026-03-29T11:18:49.155Z</time></trkpt><trkpt lat="43.8937853" lon="11.1916384"><ele>210.0</ele><time>2026-03-29T11:18:50.155Z</time></trkpt><trkpt lat="43.8937327" lon="11.1915693"><ele>210.0</ele><time>2026-03-29T11:18:51.155Z</time></trkpt><trkpt lat="43.8936825" lon="11.1915102"><ele>210.0</ele><time>2026-03-29T11:18:52.155Z</time></trkpt><trkpt lat="43.893597" lon="11.191421"><ele>210.0</ele><time>2026-03-29T11:18:54.155Z</time></trkpt><trkpt lat="43.893526" lon="11.1913822"><ele>210.0</ele><time>2026-03-29T11:18:55.155Z</time></trkpt><trkpt lat="43.8934413" lon="11.191332"><ele>210.0</ele><time>2026-03-29T11:18:56.155Z</time></trkpt><trkpt lat="43.8933771" lon="11.191292"><ele>209.0</ele><time>2026-03-29T11:18:57.155Z</time></trkpt><trkpt lat="43.8932698" lon="11.191237"><ele>208.0</ele><time>2026-03-29T11:18:59.155Z</time></trkpt><trkpt lat="43.8931826" lon="11.1911972"><ele>207.0</ele><time>2026-03-29T11:19:01.155Z</time></trkpt><trkpt lat="43.8930925" lon="11.1911509"><ele>206.0</ele><time>2026-03-29T11:19:03.155Z</time></trkpt><trkpt lat="43.8929901" lon="11.1910886"><ele>205.0</ele><time>2026-03-29T11:19:05.155Z</time></trkpt><trkpt lat="43.8929308" lon="11.191056"><ele>205.0</ele><time>2026-03-29T11:19:06.155Z</time></trkpt><trkpt lat="43.8928701" lon="11.1910017"><ele>205.0</ele><time>2026-03-29T11:19:07.155Z</time></trkpt><trkpt lat="43.8928163" lon="11.1909446"><ele>205.0</ele><time>2026-03-29T11:19:08.155Z</time></trkpt><trkpt lat="43.8927571" lon="11.1908806"><ele>205.0</ele><time>2026-03-29T11:19:09.155Z</time></trkpt><trkpt lat="43.8927003" lon="11.1908215"><ele>205.0</ele><time>2026-03-29T11:19:10.155Z</time></trkpt><trkpt lat="43.8926443" lon="11.1907686"><ele>205.0</ele><time>2026-03-29T11:19:11.155Z</time></trkpt><trkpt lat="43.8925932" lon="11.1907171"><ele>205.0</ele><time>2026-03-29T11:19:12.155Z</time></trkpt><trkpt lat="43.8925371" lon="11.1906627"><ele>204.66666666666666</ele><time>2026-03-29T11:19:13.155Z</time></trkpt><trkpt lat="43.8924699" lon="11.1905963"><ele>204.33333333333331</ele><time>2026-03-29T11:19:14.155Z</time></trkpt><trkpt lat="43.8924115" lon="11.1905476"><ele>204.0</ele><time>2026-03-29T11:19:15.155Z</time></trkpt><trkpt lat="43.8923537" lon="11.1905061"><ele>203.66666666666669</ele><time>2026-03-29T11:19:16.155Z</time></trkpt><trkpt lat="43.8922342" lon="11.1904285"><ele>203.33333333333334</ele><time>2026-03-29T11:19:18.155Z</time></trkpt><trkpt lat="43.892176" lon="11.1903794"><ele>203.0</ele><time>2026-03-29T11:19:19.155Z</time></trkpt><trkpt lat="43.8921131" lon="11.1903102"><ele>203.00000000000003</ele><time>2026-03-29T11:19:20.155Z</time></trkpt><trkpt lat="43.892047" lon="11.1902338"><ele>203.0</ele><time>2026-03-29T11:19:21.155Z</time></trkpt><trkpt lat="43.891994" lon="11.190142"><ele>203.0</ele><time>2026-03-29T11:19:22.155Z</time></trkpt><trkpt lat="43.8919468" lon="11.1900548"><ele>203.0</ele><time>2026-03-29T11:19:23.155Z</time></trkpt><trkpt lat="43.8918945" lon="11.189973"><ele>203.00000000000003</ele><time>2026-03-29T11:19:24.155Z</time></trkpt><trkpt lat="43.8918466" lon="11.1899008"><ele>203.0</ele><time>2026-03-29T11:19:25.155Z</time></trkpt><trkpt lat="43.8917968" lon="11.1898249"><ele>201.00000000000003</ele><time>2026-03-29T11:19:26.155Z</time></trkpt><trkpt lat="43.8917515" lon="11.1897552"><ele>199.0</ele><time>2026-03-29T11:19:27.155Z</time></trkpt><trkpt lat="43.8917044" lon="11.1896788"><ele>197.0</ele><time>2026-03-29T11:19:28.155Z</time></trkpt><trkpt lat="43.8916465" lon="11.1896056"><ele>195.0</ele><time>2026-03-29T11:19:29.155Z</time></trkpt><trkpt lat="43.8915894" lon="11.1895395"><ele>193.0</ele><time>2026-03-29T11:19:30.155Z</time></trkpt><trkpt lat="43.8915199" lon="11.1894831"><ele>191.0</ele><time>2026-03-29T11:19:31.155Z</time></trkpt><trkpt lat="43.8914307" lon="11.1894369"><ele>191.0</ele><time>2026-03-29T11:19:32.155Z</time></trkpt><trkpt lat="43.8913503" lon="11.1893962"><ele>191.0</ele><time>2026-03-29T11:19:33.155Z</time></trkpt><trkpt lat="43.8912799" lon="11.1893608"><ele>191.0</ele><time>2026-03-29T11:19:34.155Z</time></trkpt><trkpt lat="43.8912164" lon="11.1893334"><ele>191.0</ele><time>2026-03-29T11:19:35.155Z</time></trkpt><trkpt lat="43.8910943" lon="11.1893092"><ele>191.0</ele><time>2026-03-29T11:19:37.155Z</time></trkpt><trkpt lat="43.8909841" lon="11.1892747"><ele>189.83333333333331</ele><time>2026-03-29T11:19:39.154Z</time></trkpt><trkpt lat="43.8908797" lon="11.1892463"><ele>188.66666666666666</ele><time>2026-03-29T11:19:41.155Z</time></trkpt><trkpt lat="43.8908063" lon="11.1892169"><ele>187.5</ele><time>2026-03-29T11:19:43.155Z</time></trkpt><trkpt lat="43.8907498" lon="11.1891483"><ele>186.33333333333334</ele><time>2026-03-29T11:19:45.154Z</time></trkpt><trkpt lat="43.8906805" lon="11.1890281"><ele>185.16666666666669</ele><time>2026-03-29T11:19:47.155Z</time></trkpt><trkpt lat="43.8906599" lon="11.1889388"><ele>184.0</ele><time>2026-03-29T11:19:48.155Z</time></trkpt><trkpt lat="43.8906891" lon="11.1887655"><ele>183.0</ele><time>2026-03-29T11:19:50.155Z</time></trkpt><trkpt lat="43.8907529" lon="11.1886242"><ele>182.0</ele><time>2026-03-29T11:19:52.155Z</time></trkpt><trkpt lat="43.8908068" lon="11.1884938"><ele>181.0</ele><time>2026-03-29T11:19:54.155Z</time></trkpt><trkpt lat="43.8908238" lon="11.1883505"><ele>180.0</ele><time>2026-03-29T11:19:56.155Z</time></trkpt><trkpt lat="43.8908092" lon="11.1882255"><ele>179.0</ele><time>2026-03-29T11:19:58.155Z</time></trkpt><trkpt lat="43.8907505" lon="11.1881333"><ele>178.0</ele><time>2026-03-29T11:20:00.155Z</time></trkpt><trkpt lat="43.8906957" lon="11.1880734"><ele>177.0</ele><time>2026-03-29T11:20:01.155Z</time></trkpt><trkpt lat="43.8906496" lon="11.1879882"><ele>176.0</ele><time>2026-03-29T11:20:04.155Z</time></trkpt><trkpt lat="43.8906013" lon="11.187904"><ele>175.0</ele><time>2026-03-29T11:20:06.155Z</time></trkpt><trkpt lat="43.8905219" lon="11.1878287"><ele>174.0</ele><time>2026-03-29T11:20:07.155Z</time></trkpt><trkpt lat="43.8904355" lon="11.1877443"><ele>173.0</ele><time>2026-03-29T11:20:08.155Z</time></trkpt><trkpt lat="43.8903745" lon="11.1876715"><ele>173.0</ele><time>2026-03-29T11:20:09.155Z</time></trkpt><trkpt lat="43.8902849" lon="11.1875714"><ele>173.0</ele><time>2026-03-29T11:20:11.155Z</time></trkpt><trkpt lat="43.8902023" lon="11.1875159"><ele>173.0</ele><time>2026-03-29T11:20:13.155Z</time></trkpt><trkpt lat="43.8901323" lon="11.1874402"><ele>173.0</ele><time>2026-03-29T11:26:29.154Z</time></trkpt><trkpt lat="43.8900984" lon="11.1873017"><ele>173.0</ele><time>2026-03-29T11:26:34.155Z</time></trkpt><trkpt lat="43.8900751" lon="11.1872046"><ele>171.16666666666666</ele><time>2026-03-29T11:26:35.155Z</time></trkpt><trkpt lat="43.8900569" lon="11.1870973"><ele>169.33333333333331</ele><time>2026-03-29T11:26:36.154Z</time></trkpt><trkpt lat="43.8900217" lon="11.1869932"><ele>167.5</ele><time>2026-03-29T11:26:37.155Z</time></trkpt><trkpt lat="43.8899801" lon="11.186882"><ele>165.66666666666666</ele><time>2026-03-29T11:26:38.155Z</time></trkpt><trkpt lat="43.8899261" lon="11.1867728"><ele>163.83333333333334</ele><time>2026-03-29T11:26:39.155Z</time></trkpt><trkpt lat="43.8898647" lon="11.1866631"><ele>162.0</ele><time>2026-03-29T11:26:40.155Z</time></trkpt><trkpt lat="43.8897986" lon="11.1865565"><ele>159.79999999999998</ele><time>2026-03-29T11:26:41.155Z</time></trkpt><trkpt lat="43.8897312" lon="11.1864499"><ele>157.6</ele><time>2026-03-29T11:26:42.154Z</time></trkpt><trkpt lat="43.8896674" lon="11.1863591"><ele>155.39999999999998</ele><time>2026-03-29T11:26:43.155Z</time></trkpt><trkpt lat="43.8895975" lon="11.1862801"><ele>153.2</ele><time>2026-03-29T11:26:44.155Z</time></trkpt><trkpt lat="43.8895133" lon="11.1862177"><ele>151.0</ele><time>2026-03-29T11:26:45.155Z</time></trkpt><trkpt lat="43.8894174" lon="11.186174"><ele>151.0</ele><time>2026-03-29T11:26:46.155Z</time></trkpt><trkpt lat="43.8893214" lon="11.1861403"><ele>151.0</ele><time>2026-03-29T11:26:47.155Z</time></trkpt><trkpt lat="43.8892108" lon="11.1861079"><ele>151.0</ele><time>2026-03-29T11:26:48.155Z</time></trkpt><trkpt lat="43.8890985" lon="11.186075"><ele>151.0</ele><time>2026-03-29T11:26:49.155Z</time></trkpt><trkpt lat="43.8889748" lon="11.1860352"><ele>152.0</ele><time>2026-03-29T11:26:50.155Z</time></trkpt><trkpt lat="43.8888562" lon="11.1860021"><ele>153.0</ele><time>2026-03-29T11:26:51.155Z</time></trkpt><trkpt lat="43.8887445" lon="11.1859642"><ele>154.0</ele><time>2026-03-29T11:26:52.155Z</time></trkpt><trkpt lat="43.8886328" lon="11.185926"><ele>155.0</ele><time>2026-03-29T11:26:53.155Z</time></trkpt><trkpt lat="43.8885223" lon="11.1858667"><ele>151.75</ele><time>2026-03-29T11:26:54.154Z</time></trkpt><trkpt lat="43.8884113" lon="11.1857552"><ele>148.5</ele><time>2026-03-29T11:26:55.155Z</time></trkpt><trkpt lat="43.8883095" lon="11.1856291"><ele>145.25</ele><time>2026-03-29T11:26:56.155Z</time></trkpt><trkpt lat="43.8882188" lon="11.1855091"><ele>142.0</ele><time>2026-03-29T11:26:57.155Z</time></trkpt><trkpt lat="43.8881392" lon="11.18538"><ele>141.83333333333334</ele><time>2026-03-29T11:26:58.155Z</time></trkpt><trkpt lat="43.8880646" lon="11.1852598"><ele>141.66666666666669</ele><time>2026-03-29T11:26:59.155Z</time></trkpt><trkpt lat="43.8880039" lon="11.1851674"><ele>141.5</ele><time>2026-03-29T11:27:00.155Z</time></trkpt><trkpt lat="43.8879398" lon="11.1850972"><ele>141.33333333333334</ele><time>2026-03-29T11:27:01.155Z</time></trkpt><trkpt lat="43.8878737" lon="11.1850582"><ele>141.16666666666666</ele><time>2026-03-29T11:27:02.155Z</time></trkpt><trkpt lat="43.8878034" lon="11.1850609"><ele>141.0</ele><time>2026-03-29T11:27:03.155Z</time></trkpt><trkpt lat="43.8877347" lon="11.1850822"><ele>141.0</ele><time>2026-03-29T11:27:04.155Z</time></trkpt><trkpt lat="43.8876694" lon="11.1850566"><ele>141.0</ele><time>2026-03-29T11:27:05.155Z</time></trkpt><trkpt lat="43.8876292" lon="11.1849831"><ele>141.0</ele><time>2026-03-29T11:27:06.155Z</time></trkpt><trkpt lat="43.8876084" lon="11.1848874"><ele>141.0</ele><time>2026-03-29T11:27:07.155Z</time></trkpt><trkpt lat="43.8875954" lon="11.1847827"><ele>141.0</ele><time>2026-03-29T11:27:08.155Z</time></trkpt><trkpt lat="43.8876403" lon="11.1845221"><ele>139.2</ele><time>2026-03-29T11:27:10.155Z</time></trkpt><trkpt lat="43.8876764" lon="11.1843966"><ele>137.39999999999998</ele><time>2026-03-29T11:27:11.155Z</time></trkpt><trkpt lat="43.8877186" lon="11.1842808"><ele>135.6</ele><time>2026-03-29T11:27:12.155Z</time></trkpt><trkpt lat="43.8877621" lon="11.1841538"><ele>133.79999999999998</ele><time>2026-03-29T11:27:13.155Z</time></trkpt><trkpt lat="43.8877789" lon="11.1840295"><ele>132.0</ele><time>2026-03-29T11:27:14.155Z</time></trkpt><trkpt lat="43.8877984" lon="11.1839284"><ele>128.25</ele><time>2026-03-29T11:27:15.155Z</time></trkpt><trkpt lat="43.8878628" lon="11.1838116"><ele>124.5</ele><time>2026-03-29T11:27:16.155Z</time></trkpt><trkpt lat="43.8880014" lon="11.1837379"><ele>120.75</ele><time>2026-03-29T11:27:17.155Z</time></trkpt><trkpt lat="43.8881237" lon="11.1836466"><ele>117.0</ele><time>2026-03-29T11:27:18.155Z</time></trkpt><trkpt lat="43.888253" lon="11.1835712"><ele>117.0</ele><time>2026-03-29T11:27:19.155Z</time></trkpt><trkpt lat="43.8883687" lon="11.1835027"><ele>116.99999999999999</ele><time>2026-03-29T11:27:20.155Z</time></trkpt><trkpt lat="43.8884643" lon="11.1834128"><ele>116.99999999999999</ele><time>2026-03-29T11:27:21.155Z</time></trkpt><trkpt lat="43.8885377" lon="11.1833252"><ele>117.0</ele><time>2026-03-29T11:27:22.155Z</time></trkpt><trkpt lat="43.8886157" lon="11.1832267"><ele>117.0</ele><time>2026-03-29T11:27:23.155Z</time></trkpt><trkpt lat="43.8886948" lon="11.1831424"><ele>114.19999999999999</ele><time>2026-03-29T11:27:24.155Z</time></trkpt><trkpt lat="43.8887773" lon="11.1830782"><ele>111.39999999999999</ele><time>2026-03-29T11:27:25.154Z</time></trkpt><trkpt lat="43.8888617" lon="11.1830204"><ele>108.6</ele><time>2026-03-29T11:27:26.155Z</time></trkpt><trkpt lat="43.8889532" lon="11.182968"><ele>105.80000000000001</ele><time>2026-03-29T11:27:27.155Z</time></trkpt><trkpt lat="43.8890381" lon="11.1829405"><ele>103.0</ele><time>2026-03-29T11:27:28.155Z</time></trkpt><trkpt lat="43.8891207" lon="11.1829152"><ele>103.00000000000001</ele><time>2026-03-29T11:27:29.155Z</time></trkpt><trkpt lat="43.8891997" lon="11.1828953"><ele>103.0</ele><time>2026-03-29T11:27:30.155Z</time></trkpt><trkpt lat="43.8892786" lon="11.182878"><ele>103.0</ele><time>2026-03-29T11:27:31.155Z</time></trkpt><trkpt lat="43.8893645" lon="11.1828673"><ele>103.0</ele><time>2026-03-29T11:27:32.155Z</time></trkpt><trkpt lat="43.8894517" lon="11.182855"><ele>103.00000000000001</ele><time>2026-03-29T11:27:33.155Z</time></trkpt><trkpt lat="43.8895372" lon="11.1828285"><ele>103.0</ele><time>2026-03-29T11:27:34.155Z</time></trkpt><trkpt lat="43.8896194" lon="11.1827924"><ele>102.66666666666667</ele><time>2026-03-29T11:27:35.155Z</time></trkpt><trkpt lat="43.8897039" lon="11.1827729"><ele>102.33333333333334</ele><time>2026-03-29T11:27:36.155Z</time></trkpt><trkpt lat="43.8897856" lon="11.1827618"><ele>102.0</ele><time>2026-03-29T11:27:37.154Z</time></trkpt><trkpt lat="43.8898504" lon="11.1827489"><ele>101.66666666666666</ele><time>2026-03-29T11:27:38.155Z</time></trkpt><trkpt lat="43.8899565" lon="11.1827107"><ele>101.33333333333333</ele><time>2026-03-29T11:27:40.155Z</time></trkpt><trkpt lat="43.8899709" lon="11.1826056"><ele>101.0</ele><time>2026-03-29T11:27:43.155Z</time></trkpt><trkpt lat="43.8898461" lon="11.1825522"><ele>101.0</ele><time>2026-03-29T11:27:45.155Z</time></trkpt><trkpt lat="43.8897262" lon="11.1825439"><ele>101.0</ele><time>2026-03-29T11:27:46.155Z</time></trkpt><trkpt lat="43.8895825" lon="11.182535"><ele>101.0</ele><time>2026-03-29T11:27:47.155Z</time></trkpt><trkpt lat="43.8894187" lon="11.1825213"><ele>101.0</ele><time>2026-03-29T11:27:48.155Z</time></trkpt><trkpt lat="43.8892465" lon="11.1825048"><ele>101.66666666666666</ele><time>2026-03-29T11:27:49.155Z</time></trkpt><trkpt lat="43.8890667" lon="11.1824762"><ele>102.33333333333334</ele><time>2026-03-29T11:27:50.155Z</time></trkpt><trkpt lat="43.8888742" lon="11.1824579"><ele>103.0</ele><time>2026-03-29T11:27:51.155Z</time></trkpt><trkpt lat="43.8886777" lon="11.182442"><ele>103.0</ele><time>2026-03-29T11:27:52.155Z</time></trkpt><trkpt lat="43.8884728" lon="11.1824061"><ele>103.0</ele><time>2026-03-29T11:27:53.155Z</time></trkpt><trkpt lat="43.888254" lon="11.1823587"><ele>103.0</ele><time>2026-03-29T11:27:54.155Z</time></trkpt><trkpt lat="43.8880196" lon="11.182295"><ele>98.5</ele><time>2026-03-29T11:27:55.155Z</time></trkpt><trkpt lat="43.8877815" lon="11.182236"><ele>94.0</ele><time>2026-03-29T11:27:56.155Z</time></trkpt><trkpt lat="43.8875359" lon="11.1821782"><ele>94.0</ele><time>2026-03-29T11:27:57.155Z</time></trkpt><trkpt lat="43.8872919" lon="11.1821241"><ele>94.0</ele><time>2026-03-29T11:27:58.155Z</time></trkpt><trkpt lat="43.8870521" lon="11.1820627"><ele>94.0</ele><time>2026-03-29T11:27:59.155Z</time></trkpt><trkpt lat="43.8868216" lon="11.1819776"><ele>94.0</ele><time>2026-03-29T11:28:00.155Z</time></trkpt><trkpt lat="43.8866017" lon="11.1818436"><ele>94.0</ele><time>2026-03-29T11:28:01.155Z</time></trkpt><trkpt lat="43.8863811" lon="11.1816872"><ele>94.0</ele><time>2026-03-29T11:28:02.155Z</time></trkpt><trkpt lat="43.8861651" lon="11.1815354"><ele>93.5</ele><time>2026-03-29T11:28:03.155Z</time></trkpt><trkpt lat="43.8859474" lon="11.1813936"><ele>93.0</ele><time>2026-03-29T11:28:04.155Z</time></trkpt><trkpt lat="43.8857285" lon="11.1812694"><ele>92.0</ele><time>2026-03-29T11:28:05.155Z</time></trkpt><trkpt lat="43.8855088" lon="11.1811576"><ele>91.0</ele><time>2026-03-29T11:28:06.155Z</time></trkpt><trkpt lat="43.8852799" lon="11.1810791"><ele>91.0</ele><time>2026-03-29T11:28:07.155Z</time></trkpt><trkpt lat="43.8850514" lon="11.1810205"><ele>91.0</ele><time>2026-03-29T11:28:08.155Z</time></trkpt><trkpt lat="43.8848342" lon="11.1809752"><ele>91.0</ele><time>2026-03-29T11:28:09.155Z</time></trkpt><trkpt lat="43.8846269" lon="11.180953"><ele>91.0</ele><time>2026-03-29T11:28:10.155Z</time></trkpt><trkpt lat="43.8844266" lon="11.180939"><ele>91.0</ele><time>2026-03-29T11:28:11.154Z</time></trkpt><trkpt lat="43.8842517" lon="11.1809248"><ele>91.0</ele><time>2026-03-29T11:28:12.155Z</time></trkpt><trkpt lat="43.8841025" lon="11.1809129"><ele>91.0</ele><time>2026-03-29T11:28:13.155Z</time></trkpt><trkpt lat="43.8839726" lon="11.180891"><ele>91.0</ele><time>2026-03-29T11:28:14.155Z</time></trkpt><trkpt lat="43.8838527" lon="11.1808496"><ele>91.0</ele><time>2026-03-29T11:28:15.155Z</time></trkpt><trkpt lat="43.8837464" lon="11.1807737"><ele>91.0</ele><time>2026-03-29T11:28:16.155Z</time></trkpt><trkpt lat="43.8836408" lon="11.1806973"><ele>91.0</ele><time>2026-03-29T11:28:17.155Z</time></trkpt><trkpt lat="43.8835282" lon="11.1806708"><ele>91.0</ele><time>2026-03-29T11:28:18.155Z</time></trkpt><trkpt lat="43.8833979" lon="11.1806998"><ele>91.0</ele><time>2026-03-29T11:28:19.154Z</time></trkpt><trkpt lat="43.8832436" lon="11.1807032"><ele>91.0</ele><time>2026-03-29T11:28:20.155Z</time></trkpt><trkpt lat="43.8830924" lon="11.1806488"><ele>91.0</ele><time>2026-03-29T11:28:21.155Z</time></trkpt><trkpt lat="43.8829524" lon="11.1805883"><ele>91.0</ele><time>2026-03-29T11:28:22.155Z</time></trkpt><trkpt lat="43.8828182" lon="11.1805249"><ele>91.0</ele><time>2026-03-29T11:28:23.155Z</time></trkpt><trkpt lat="43.8826869" lon="11.1804673"><ele>91.0</ele><time>2026-03-29T11:28:24.155Z</time></trkpt><trkpt lat="43.8825574" lon="11.1804041"><ele>91.0</ele><time>2026-03-29T11:28:25.155Z</time></trkpt><trkpt lat="43.8824256" lon="11.1803533"><ele>91.0</ele><time>2026-03-29T11:28:26.155Z</time></trkpt><trkpt lat="43.8822979" lon="11.1803183"><ele>91.0</ele><time>2026-03-29T11:28:27.155Z</time></trkpt><trkpt lat="43.882182" lon="11.1802921"><ele>91.0</ele><time>2026-03-29T11:28:28.155Z</time></trkpt><trkpt lat="43.8820739" lon="11.1802572"><ele>91.0</ele><time>2026-03-29T11:28:29.155Z</time></trkpt><trkpt lat="43.8819792" lon="11.180205"><ele>91.0</ele><time>2026-03-29T11:28:30.155Z</time></trkpt><trkpt lat="43.8818961" lon="11.1801444"><ele>91.0</ele><time>2026-03-29T11:28:31.155Z</time></trkpt><trkpt lat="43.8818384" lon="11.180056"><ele>91.0</ele><time>2026-03-29T11:28:32.155Z</time></trkpt><trkpt lat="43.8818141" lon="11.1799436"><ele>91.0</ele><time>2026-03-29T11:28:33.155Z</time></trkpt><trkpt lat="43.8818301" lon="11.1798516"><ele>91.0</ele><time>2026-03-29T11:28:34.155Z</time></trkpt><trkpt lat="43.8818683" lon="11.1797617"><ele>91.0</ele><time>2026-03-29T11:28:35.155Z</time></trkpt><trkpt lat="43.8819317" lon="11.1796287"><ele>91.0</ele><time>2026-03-29T11:28:37.155Z</time></trkpt><trkpt lat="43.8819683" lon="11.1795067"><ele>91.0</ele><time>2026-03-29T11:28:39.155Z</time></trkpt><trkpt lat="43.8819617" lon="11.1794104"><ele>91.0</ele><time>2026-03-29T11:28:40.155Z</time></trkpt><trkpt lat="43.8819263" lon="11.1793028"><ele>91.33333333333333</ele><time>2026-03-29T11:28:41.155Z</time></trkpt><trkpt lat="43.881891" lon="11.1791985"><ele>91.66666666666666</ele><time>2026-03-29T11:28:42.155Z</time></trkpt><trkpt lat="43.8818506" lon="11.179087"><ele>92.0</ele><time>2026-03-29T11:28:43.155Z</time></trkpt><trkpt lat="43.8818078" lon="11.1789878"><ele>92.33333333333333</ele><time>2026-03-29T11:28:44.155Z</time></trkpt><trkpt lat="43.8817614" lon="11.1788883"><ele>92.66666666666667</ele><time>2026-03-29T11:28:45.155Z</time></trkpt><trkpt lat="43.8817067" lon="11.1788008"><ele>93.0</ele><time>2026-03-29T11:28:46.155Z</time></trkpt><trkpt lat="43.8816328" lon="11.1787124"><ele>96.25</ele><time>2026-03-29T11:28:47.155Z</time></trkpt><trkpt lat="43.8815445" lon="11.1786017"><ele>99.5</ele><time>2026-03-29T11:28:48.155Z</time></trkpt><trkpt lat="43.8814552" lon="11.1784722"><ele>102.75</ele><time>2026-03-29T11:28:49.155Z</time></trkpt><trkpt lat="43.8813642" lon="11.1783277"><ele>106.0</ele><time>2026-03-29T11:28:50.155Z</time></trkpt><trkpt lat="43.8812734" lon="11.1781813"><ele>113.66666666666667</ele><time>2026-03-29T11:28:51.155Z</time></trkpt><trkpt lat="43.8811818" lon="11.1780128"><ele>121.33333333333334</ele><time>2026-03-29T11:28:52.155Z</time></trkpt><trkpt lat="43.8811014" lon="11.177827"><ele>129.0</ele><time>2026-03-29T11:28:53.155Z</time></trkpt><trkpt lat="43.8810272" lon="11.1776284"><ele>129.0</ele><time>2026-03-29T11:28:54.155Z</time></trkpt><trkpt lat="43.8809585" lon="11.1774266"><ele>129.0</ele><time>2026-03-29T11:28:55.154Z</time></trkpt><trkpt lat="43.880896" lon="11.1772276"><ele>129.0</ele><time>2026-03-29T11:28:56.155Z</time></trkpt><trkpt lat="43.8808341" lon="11.177026"><ele>123.5</ele><time>2026-03-29T11:28:57.155Z</time></trkpt><trkpt lat="43.8807708" lon="11.1768433"><ele>118.0</ele><time>2026-03-29T11:28:58.155Z</time></trkpt><trkpt lat="43.880704" lon="11.1766812"><ele>112.5</ele><time>2026-03-29T11:28:59.155Z</time></trkpt><trkpt lat="43.8806438" lon="11.1765419"><ele>107.0</ele><time>2026-03-29T11:29:00.155Z</time></trkpt><trkpt lat="43.8805869" lon="11.1764177"><ele>107.0</ele><time>2026-03-29T11:29:01.155Z</time></trkpt><trkpt lat="43.8805334" lon="11.1762906"><ele>107.0</ele><time>2026-03-29T11:29:02.155Z</time></trkpt><trkpt lat="43.8804641" lon="11.1761548"><ele>107.0</ele><time>2026-03-29T11:29:03.155Z</time></trkpt><trkpt lat="43.8803871" lon="11.1759935"><ele>107.0</ele><time>2026-03-29T11:29:04.154Z</time></trkpt><trkpt lat="43.8803155" lon="11.1758219"><ele>104.25</ele><time>2026-03-29T11:29:05.155Z</time></trkpt><trkpt lat="43.8802372" lon="11.175651"><ele>101.5</ele><time>2026-03-29T11:29:06.155Z</time></trkpt><trkpt lat="43.8801637" lon="11.1754877"><ele>98.75</ele><time>2026-03-29T11:29:07.155Z</time></trkpt><trkpt lat="43.8801028" lon="11.1753275"><ele>96.0</ele><time>2026-03-29T11:29:08.155Z</time></trkpt><trkpt lat="43.880035" lon="11.1751919"><ele>96.0</ele><time>2026-03-29T11:29:09.155Z</time></trkpt><trkpt lat="43.8799707" lon="11.1750694"><ele>96.0</ele><time>2026-03-29T11:29:10.155Z</time></trkpt><trkpt lat="43.8799055" lon="11.1749446"><ele>96.0</ele><time>2026-03-29T11:29:11.155Z</time></trkpt><trkpt lat="43.879833" lon="11.1748085"><ele>96.0</ele><time>2026-03-29T11:29:12.155Z</time></trkpt><trkpt lat="43.879756" lon="11.174679"><ele>97.75</ele><time>2026-03-29T11:29:13.155Z</time></trkpt><trkpt lat="43.8796773" lon="11.174539"><ele>99.5</ele><time>2026-03-29T11:29:14.155Z</time></trkpt><trkpt lat="43.8795927" lon="11.1744031"><ele>101.25</ele><time>2026-03-29T11:29:15.155Z</time></trkpt><trkpt lat="43.8795101" lon="11.174289"><ele>103.0</ele><time>2026-03-29T11:29:16.155Z</time></trkpt><trkpt lat="43.8794334" lon="11.1741891"><ele>103.0</ele><time>2026-03-29T11:29:17.155Z</time></trkpt><trkpt lat="43.87936" lon="11.1740885"><ele>103.0</ele><time>2026-03-29T11:29:18.155Z</time></trkpt><trkpt lat="43.8792938" lon="11.1739946"><ele>103.0</ele><time>2026-03-29T11:29:19.155Z</time></trkpt><trkpt lat="43.8792375" lon="11.1739111"><ele>103.0</ele><time>2026-03-29T11:29:20.154Z</time></trkpt><trkpt lat="43.8792139" lon="11.1738262"><ele>103.0</ele><time>2026-03-29T11:29:21.155Z</time></trkpt><trkpt lat="43.879234" lon="11.1736681"><ele>102.66666666666667</ele><time>2026-03-29T11:29:23.155Z</time></trkpt><trkpt lat="43.8792826" lon="11.1735977"><ele>102.33333333333334</ele><time>2026-03-29T11:29:24.155Z</time></trkpt><trkpt lat="43.8793427" lon="11.1735206"><ele>102.0</ele><time>2026-03-29T11:29:25.155Z</time></trkpt><trkpt lat="43.8794089" lon="11.1734382"><ele>101.66666666666666</ele><time>2026-03-29T11:29:26.155Z</time></trkpt><trkpt lat="43.879496" lon="11.1733607"><ele>101.33333333333333</ele><time>2026-03-29T11:29:27.155Z</time></trkpt><trkpt lat="43.8795642" lon="11.1732904"><ele>101.0</ele><time>2026-03-29T11:29:28.154Z</time></trkpt><trkpt lat="43.8796429" lon="11.1732207"><ele>101.0</ele><time>2026-03-29T11:29:30.155Z</time></trkpt><trkpt lat="43.8796875" lon="11.173153"><ele>101.0</ele><time>2026-03-29T11:29:33.155Z</time></trkpt><trkpt lat="43.8796167" lon="11.1732343"><ele>101.0</ele><time>2026-03-29T11:29:39.155Z</time></trkpt><trkpt lat="43.8795369" lon="11.1733173"><ele>101.0</ele><time>2026-03-29T11:29:41.155Z</time></trkpt><trkpt lat="43.87943" lon="11.1734353"><ele>101.0</ele><time>2026-03-29T11:29:43.155Z</time></trkpt><trkpt lat="43.8793368" lon="11.1735425"><ele>98.99999999999999</ele><time>2026-03-29T11:29:45.155Z</time></trkpt><trkpt lat="43.8792521" lon="11.1736378"><ele>97.0</ele><time>2026-03-29T11:29:47.155Z</time></trkpt><trkpt lat="43.8792131" lon="11.1737177"><ele>95.0</ele><time>2026-03-29T11:29:49.155Z</time></trkpt><trkpt lat="43.8792194" lon="11.1738136"><ele>93.0</ele><time>2026-03-29T11:29:51.155Z</time></trkpt><trkpt lat="43.8792232" lon="11.1739169"><ele>91.0</ele><time>2026-03-29T11:29:54.155Z</time></trkpt><trkpt lat="43.8791465" lon="11.1739462"><ele>89.0</ele><time>2026-03-29T11:29:58.155Z</time></trkpt><trkpt lat="43.8791023" lon="11.1738507"><ele>89.0</ele><time>2026-03-29T11:30:00.155Z</time></trkpt><trkpt lat="43.879078" lon="11.1736745"><ele>89.0</ele><time>2026-03-29T11:30:02.155Z</time></trkpt><trkpt lat="43.8790683" lon="11.1735808"><ele>89.0</ele><time>2026-03-29T11:30:03.155Z</time></trkpt><trkpt lat="43.8790457" lon="11.173486"><ele>89.0</ele><time>2026-03-29T11:30:04.155Z</time></trkpt><trkpt lat="43.8790287" lon="11.1733942"><ele>89.0</ele><time>2026-03-29T11:30:05.155Z</time></trkpt><trkpt lat="43.8790182" lon="11.1733064"><ele>89.0</ele><time>2026-03-29T11:30:06.155Z</time></trkpt><trkpt lat="43.8789963" lon="11.1731335"><ele>89.6</ele><time>2026-03-29T11:30:08.155Z</time></trkpt><trkpt lat="43.8789793" lon="11.1730333"><ele>90.2</ele><time>2026-03-29T11:30:09.155Z</time></trkpt><trkpt lat="43.8789567" lon="11.1729224"><ele>90.8</ele><time>2026-03-29T11:30:10.155Z</time></trkpt><trkpt lat="43.8789354" lon="11.172827"><ele>91.39999999999999</ele><time>2026-03-29T11:30:11.155Z</time></trkpt><trkpt lat="43.8788966" lon="11.1726745"><ele>92.0</ele><time>2026-03-29T11:30:13.155Z</time></trkpt><trkpt lat="43.8788399" lon="11.1725174"><ele>92.0</ele><time>2026-03-29T11:30:15.154Z</time></trkpt><trkpt lat="43.878796" lon="11.17244"><ele>92.0</ele><time>2026-03-29T11:30:16.155Z</time></trkpt><trkpt lat="43.8787544" lon="11.1723569"><ele>92.0</ele><time>2026-03-29T11:30:17.155Z</time></trkpt><trkpt lat="43.8787145" lon="11.172272"><ele>92.0</ele><time>2026-03-29T11:30:18.155Z</time></trkpt><trkpt lat="43.8786659" lon="11.1721775"><ele>92.0</ele><time>2026-03-29T11:30:19.155Z</time></trkpt><trkpt lat="43.8786198" lon="11.1720845"><ele>92.0</ele><time>2026-03-29T11:30:20.155Z</time></trkpt><trkpt lat="43.8785609" lon="11.1719787"><ele>91.8</ele><time>2026-03-29T11:30:21.155Z</time></trkpt><trkpt lat="43.8785063" lon="11.1718817"><ele>91.6</ele><time>2026-03-29T11:30:22.155Z</time></trkpt><trkpt lat="43.8784431" lon="11.1717694"><ele>91.39999999999999</ele><time>2026-03-29T11:30:23.155Z</time></trkpt><trkpt lat="43.878381" lon="11.1716505"><ele>91.19999999999999</ele><time>2026-03-29T11:30:24.155Z</time></trkpt><trkpt lat="43.8783135" lon="11.1715132"><ele>91.0</ele><time>2026-03-29T11:30:25.155Z</time></trkpt><trkpt lat="43.8782469" lon="11.1713869"><ele>92.6</ele><time>2026-03-29T11:30:26.155Z</time></trkpt><trkpt lat="43.8781844" lon="11.1712655"><ele>94.19999999999999</ele><time>2026-03-29T11:30:27.155Z</time></trkpt><trkpt lat="43.8781267" lon="11.1711645"><ele>95.80000000000001</ele><time>2026-03-29T11:30:28.155Z</time></trkpt><trkpt lat="43.8780771" lon="11.1710613"><ele>97.4</ele><time>2026-03-29T11:30:29.155Z</time></trkpt><trkpt lat="43.878027" lon="11.1709653"><ele>99.0</ele><time>2026-03-29T11:30:30.155Z</time></trkpt><trkpt lat="43.8779687" lon="11.1708727"><ele>99.0</ele><time>2026-03-29T11:30:31.155Z</time></trkpt><trkpt lat="43.8779041" lon="11.1707748"><ele>99.0</ele><time>2026-03-29T11:30:32.155Z</time></trkpt><trkpt lat="43.8778443" lon="11.1706761"><ele>99.0</ele><time>2026-03-29T11:30:33.155Z</time></trkpt><trkpt lat="43.8777955" lon="11.1705817"><ele>99.0</ele><time>2026-03-29T11:30:34.155Z</time></trkpt><trkpt lat="43.8777542" lon="11.1705015"><ele>99.0</ele><time>2026-03-29T11:30:35.155Z</time></trkpt><trkpt lat="43.8777166" lon="11.1704186"><ele>99.0</ele><time>2026-03-29T11:30:36.155Z</time></trkpt><trkpt lat="43.8776804" lon="11.1703395"><ele>97.6</ele><time>2026-03-29T11:30:37.155Z</time></trkpt><trkpt lat="43.8776233" lon="11.1702142"><ele>96.2</ele><time>2026-03-29T11:30:39.155Z</time></trkpt><trkpt lat="43.877594" lon="11.170121"><ele>94.8</ele><time>2026-03-29T11:30:41.155Z</time></trkpt><trkpt lat="43.8775561" lon="11.1700257"><ele>93.39999999999999</ele><time>2026-03-29T11:30:43.155Z</time></trkpt><trkpt lat="43.8775231" lon="11.1698657"><ele>92.0</ele><time>2026-03-29T11:30:45.155Z</time></trkpt><trkpt lat="43.8775127" lon="11.1697335"><ele>92.0</ele><time>2026-03-29T11:30:47.155Z</time></trkpt><trkpt lat="43.8774885" lon="11.1695723"><ele>92.0</ele><time>2026-03-29T11:30:49.155Z</time></trkpt><trkpt lat="43.8774562" lon="11.16944"><ele>92.0</ele><time>2026-03-29T11:30:51.155Z</time></trkpt><trkpt lat="43.8774037" lon="11.1693337"><ele>92.0</ele><time>2026-03-29T11:30:54.155Z</time></trkpt><trkpt lat="43.8773981" lon="11.1692428"><ele>92.0</ele><time>2026-03-29T11:30:56.155Z</time></trkpt><trkpt lat="43.8774164" lon="11.16915"><ele>92.0</ele><time>2026-03-29T11:30:58.155Z</time></trkpt><trkpt lat="43.8774101" lon="11.1690615"><ele>93.16666666666667</ele><time>2026-03-29T11:31:00.155Z</time></trkpt><trkpt lat="43.877396" lon="11.168968"><ele>94.33333333333334</ele><time>2026-03-29T11:31:02.155Z</time></trkpt><trkpt lat="43.8773935" lon="11.1688343"><ele>95.5</ele><time>2026-03-29T11:31:10.155Z</time></trkpt><trkpt lat="43.8773939" lon="11.1687257"><ele>96.66666666666667</ele><time>2026-03-29T11:31:14.155Z</time></trkpt><trkpt lat="43.8774023" lon="11.168618"><ele>97.83333333333333</ele><time>2026-03-29T11:31:17.155Z</time></trkpt><trkpt lat="43.8773905" lon="11.1685292"><ele>99.0</ele><time>2026-03-29T11:31:19.155Z</time></trkpt><trkpt lat="43.8773726" lon="11.1684424"><ele>99.0</ele><time>2026-03-29T11:31:21.154Z</time></trkpt><trkpt lat="43.8773551" lon="11.1683565"><ele>99.0</ele><time>2026-03-29T11:31:23.155Z</time></trkpt><trkpt lat="43.8773368" lon="11.1682619"><ele>99.0</ele><time>2026-03-29T11:31:35.155Z</time></trkpt><trkpt lat="43.8773404" lon="11.168162"><ele>99.0</ele><time>2026-03-29T11:31:40.155Z</time></trkpt><trkpt lat="43.8773428" lon="11.1680581"><ele>99.0</ele><time>2026-03-29T11:31:43.155Z</time></trkpt><trkpt lat="43.8773404" lon="11.1679667"><ele>99.0</ele><time>2026-03-29T11:31:45.155Z</time></trkpt><trkpt lat="43.877348" lon="11.1678398"><ele>99.0</ele><time>2026-03-29T11:31:47.155Z</time></trkpt><trkpt lat="43.8773489" lon="11.1677263"><ele>100.0</ele><time>2026-03-29T11:31:49.154Z</time></trkpt><trkpt lat="43.8773187" lon="11.1676385"><ele>101.0</ele><time>2026-03-29T11:31:51.155Z</time></trkpt><trkpt lat="43.8773121" lon="11.1675141"><ele>102.0</ele><time>2026-03-29T11:31:54.155Z</time></trkpt><trkpt lat="43.8773123" lon="11.1674079"><ele>103.0</ele><time>2026-03-29T11:31:57.155Z</time></trkpt><trkpt lat="43.8772943" lon="11.1672953"><ele>104.0</ele><time>2026-03-29T11:31:59.155Z</time></trkpt><trkpt lat="43.8772944" lon="11.1671618"><ele>105.0</ele><time>2026-03-29T11:32:02.155Z</time></trkpt><trkpt lat="43.8773037" lon="11.1670516"><ele>105.33333333333333</ele><time>2026-03-29T11:32:04.155Z</time></trkpt><trkpt lat="43.8772988" lon="11.1668733"><ele>105.66666666666666</ele><time>2026-03-29T11:32:06.155Z</time></trkpt><trkpt lat="43.8773004" lon="11.166785"><ele>106.0</ele><time>2026-03-29T11:32:07.155Z</time></trkpt><trkpt lat="43.8773105" lon="11.1666927"><ele>106.33333333333333</ele><time>2026-03-29T11:32:08.155Z</time></trkpt><trkpt lat="43.877331" lon="11.1665366"><ele>106.66666666666666</ele><time>2026-03-29T11:32:10.155Z</time></trkpt><trkpt lat="43.8773443" lon="11.1664425"><ele>107.0</ele><time>2026-03-29T11:32:11.155Z</time></trkpt><trkpt lat="43.8773642" lon="11.1662703"><ele>106.0</ele><time>2026-03-29T11:32:13.155Z</time></trkpt><trkpt lat="43.8773747" lon="11.1660871"><ele>104.99999999999999</ele><time>2026-03-29T11:32:15.155Z</time></trkpt><trkpt lat="43.8773817" lon="11.1659254"><ele>104.0</ele><time>2026-03-29T11:32:17.155Z</time></trkpt><trkpt lat="43.8773758" lon="11.1657667"><ele>103.0</ele><time>2026-03-29T11:32:19.155Z</time></trkpt><trkpt lat="43.8773882" lon="11.1656771"><ele>102.0</ele><time>2026-03-29T11:32:20.155Z</time></trkpt><trkpt lat="43.8774019" lon="11.1655771"><ele>102.0</ele><time>2026-03-29T11:32:21.155Z</time></trkpt><trkpt lat="43.8774137" lon="11.1654584"><ele>102.0</ele><time>2026-03-29T11:32:22.155Z</time></trkpt><trkpt lat="43.8774295" lon="11.1653417"><ele>102.0</ele><time>2026-03-29T11:32:23.155Z</time></trkpt><trkpt lat="43.8774389" lon="11.1652436"><ele>102.0</ele><time>2026-03-29T11:32:24.155Z</time></trkpt><trkpt lat="43.8774413" lon="11.165148"><ele>102.0</ele><time>2026-03-29T11:32:25.155Z</time></trkpt><trkpt lat="43.8774356" lon="11.1650562"><ele>102.0</ele><time>2026-03-29T11:32:26.155Z</time></trkpt><trkpt lat="43.8773958" lon="11.1649004"><ele>103.33333333333333</ele><time>2026-03-29T11:32:28.155Z</time></trkpt><trkpt lat="43.8773394" lon="11.1647483"><ele>104.66666666666666</ele><time>2026-03-29T11:32:30.155Z</time></trkpt><trkpt lat="43.8773104" lon="11.1646638"><ele>106.0</ele><time>2026-03-29T11:32:31.155Z</time></trkpt><trkpt lat="43.8772857" lon="11.1645677"><ele>107.33333333333333</ele><time>2026-03-29T11:32:32.155Z</time></trkpt><trkpt lat="43.8772599" lon="11.1644761"><ele>108.66666666666666</ele><time>2026-03-29T11:32:33.155Z</time></trkpt><trkpt lat="43.8772299" lon="11.1643903"><ele>110.0</ele><time>2026-03-29T11:32:34.155Z</time></trkpt><trkpt lat="43.8772109" lon="11.164306"><ele>109.99999999999999</ele><time>2026-03-29T11:32:35.155Z</time></trkpt><trkpt lat="43.8771807" lon="11.1642235"><ele>110.0</ele><time>2026-03-29T11:32:36.155Z</time></trkpt><trkpt lat="43.877154" lon="11.1640743"><ele>110.0</ele><time>2026-03-29T11:32:38.155Z</time></trkpt><trkpt lat="43.8771681" lon="11.1639764"><ele>110.0</ele><time>2026-03-29T11:32:40.155Z</time></trkpt><trkpt lat="43.8771614" lon="11.1638749"><ele>109.99999999999999</ele><time>2026-03-29T11:32:41.155Z</time></trkpt><trkpt lat="43.8771359" lon="11.1637377"><ele>110.0</ele><time>2026-03-29T11:32:42.155Z</time></trkpt><trkpt lat="43.8770976" lon="11.1636254"><ele>111.49999999999999</ele><time>2026-03-29T11:32:43.155Z</time></trkpt><trkpt lat="43.8770699" lon="11.1634646"><ele>113.0</ele><time>2026-03-29T11:32:45.155Z</time></trkpt><trkpt lat="43.8770491" lon="11.1633672"><ele>114.5</ele><time>2026-03-29T11:32:48.155Z</time></trkpt><trkpt lat="43.8770396" lon="11.1632602"><ele>116.0</ele><time>2026-03-29T11:32:51.155Z</time></trkpt><trkpt lat="43.8770336" lon="11.1631682"><ele>117.49999999999999</ele><time>2026-03-29T11:32:53.155Z</time></trkpt><trkpt lat="43.8770206" lon="11.1630519"><ele>119.0</ele><time>2026-03-29T11:32:56.155Z</time></trkpt><trkpt lat="43.8770043" lon="11.1629508"><ele>119.0</ele><time>2026-03-29T11:32:59.155Z</time></trkpt><trkpt lat="43.8769944" lon="11.1628174"><ele>119.0</ele><time>2026-03-29T11:33:02.154Z</time></trkpt><trkpt lat="43.8769823" lon="11.1627047"><ele>119.0</ele><time>2026-03-29T11:33:04.155Z</time></trkpt><trkpt lat="43.8769848" lon="11.1625696"><ele>119.0</ele><time>2026-03-29T11:33:06.155Z</time></trkpt><trkpt lat="43.8769986" lon="11.1624004"><ele>119.0</ele><time>2026-03-29T11:33:08.155Z</time></trkpt><trkpt lat="43.877025" lon="11.1622355"><ele>117.57142857142857</ele><time>2026-03-29T11:33:10.155Z</time></trkpt><trkpt lat="43.8770403" lon="11.1621451"><ele>116.14285714285714</ele><time>2026-03-29T11:33:11.155Z</time></trkpt><trkpt lat="43.8770754" lon="11.1620029"><ele>114.71428571428572</ele><time>2026-03-29T11:33:13.155Z</time></trkpt><trkpt lat="43.8771144" lon="11.1619251"><ele>113.28571428571428</ele><time>2026-03-29T11:33:15.155Z</time></trkpt><trkpt lat="43.8771519" lon="11.1618462"><ele>111.85714285714286</ele><time>2026-03-29T11:33:17.155Z</time></trkpt><trkpt lat="43.8771809" lon="11.1617657"><ele>110.42857142857143</ele><time>2026-03-29T11:33:19.155Z</time></trkpt><trkpt lat="43.8771646" lon="11.1616759"><ele>109.0</ele><time>2026-03-29T11:33:32.155Z</time></trkpt><trkpt lat="43.8771489" lon="11.1615912"><ele>106.66666666666667</ele><time>2026-03-29T11:33:37.155Z</time></trkpt><trkpt lat="43.8771653" lon="11.1615068"><ele>104.33333333333334</ele><time>2026-03-29T11:33:53.155Z</time></trkpt><trkpt lat="43.8771786" lon="11.1614037"><ele>102.0</ele><time>2026-03-29T11:34:01.155Z</time></trkpt><trkpt lat="43.8771786" lon="11.1612909"><ele>99.66666666666667</ele><time>2026-03-29T11:34:03.155Z</time></trkpt><trkpt lat="43.8771847" lon="11.1611699"><ele>97.33333333333334</ele><time>2026-03-29T11:34:07.155Z</time></trkpt><trkpt lat="43.877193" lon="11.1610808"><ele>95.0</ele><time>2026-03-29T11:34:09.155Z</time></trkpt><trkpt lat="43.8771948" lon="11.1609655"><ele>95.0</ele><time>2026-03-29T11:34:12.155Z</time></trkpt><trkpt lat="43.8772326" lon="11.1608704"><ele>95.0</ele><time>2026-03-29T11:34:17.155Z</time></trkpt><trkpt lat="43.8773397" lon="11.1608176"><ele>95.0</ele><time>2026-03-29T11:34:19.155Z</time></trkpt><trkpt lat="43.8774064" lon="11.1607854"><ele>95.0</ele><time>2026-03-29T11:34:20.155Z</time></trkpt><trkpt lat="43.8774761" lon="11.1607508"><ele>95.0</ele><time>2026-03-29T11:34:21.155Z</time></trkpt><trkpt lat="43.8775754" lon="11.1607067"><ele>95.0</ele><time>2026-03-29T11:34:23.155Z</time></trkpt><trkpt lat="43.8776532" lon="11.1606849"><ele>95.0</ele><time>2026-03-29T11:34:25.155Z</time></trkpt><trkpt lat="43.877549" lon="11.1607593"><ele>95.0</ele><time>2026-03-29T11:35:07.155Z</time></trkpt><trkpt lat="43.8774489" lon="11.1608029"><ele>95.0</ele><time>2026-03-29T11:35:09.155Z</time></trkpt><trkpt lat="43.8773864" lon="11.160829"><ele>95.0</ele><time>2026-03-29T11:35:10.155Z</time></trkpt><trkpt lat="43.8772938" lon="11.1608774"><ele>95.0</ele><time>2026-03-29T11:35:12.155Z</time></trkpt><trkpt lat="43.8772332" lon="11.1609088"><ele>95.0</ele><time>2026-03-29T11:35:15.155Z</time></trkpt><trkpt lat="43.8771671" lon="11.1608777"><ele>95.0</ele><time>2026-03-29T11:35:23.155Z</time></trkpt><trkpt lat="43.8772065" lon="11.1607627"><ele>95.0</ele><time>2026-03-29T11:35:25.155Z</time></trkpt><trkpt lat="43.8772529" lon="11.1606719"><ele>95.0</ele><time>2026-03-29T11:35:26.155Z</time></trkpt><trkpt lat="43.8773005" lon="11.1605659"><ele>95.0</ele><time>2026-03-29T11:35:27.155Z</time></trkpt><trkpt lat="43.8773532" lon="11.1604489"><ele>95.0</ele><time>2026-03-29T11:35:28.154Z</time></trkpt><trkpt lat="43.8773976" lon="11.1603162"><ele>91.8</ele><time>2026-03-29T11:35:29.155Z</time></trkpt><trkpt lat="43.8774472" lon="11.1601789"><ele>88.6</ele><time>2026-03-29T11:35:30.155Z</time></trkpt><trkpt lat="43.8775003" lon="11.1600458"><ele>85.4</ele><time>2026-03-29T11:35:31.155Z</time></trkpt><trkpt lat="43.8775435" lon="11.1599156"><ele>82.2</ele><time>2026-03-29T11:35:32.155Z</time></trkpt><trkpt lat="43.8775529" lon="11.1597773"><ele>79.0</ele><time>2026-03-29T11:35:33.155Z</time></trkpt><trkpt lat="43.8775293" lon="11.1596504"><ele>77.66666666666666</ele><time>2026-03-29T11:35:34.155Z</time></trkpt><trkpt lat="43.8774947" lon="11.1595305"><ele>76.33333333333333</ele><time>2026-03-29T11:35:35.154Z</time></trkpt><trkpt lat="43.8774748" lon="11.1594266"><ele>75.0</ele><time>2026-03-29T11:35:36.155Z</time></trkpt><trkpt lat="43.8774682" lon="11.1593341"><ele>73.66666666666667</ele><time>2026-03-29T11:35:37.155Z</time></trkpt><trkpt lat="43.8774705" lon="11.159215"><ele>72.33333333333334</ele><time>2026-03-29T11:35:40.155Z</time></trkpt><trkpt lat="43.8774353" lon="11.1591208"><ele>71.0</ele><time>2026-03-29T11:35:47.155Z</time></trkpt><trkpt lat="43.877368" lon="11.1591423"><ele>71.0</ele><time>2026-03-29T11:35:50.155Z</time></trkpt><trkpt lat="43.8772258" lon="11.1592253"><ele>71.0</ele><time>2026-03-29T11:35:52.155Z</time></trkpt><trkpt lat="43.8771325" lon="11.1593116"><ele>71.0</ele><time>2026-03-29T11:35:53.155Z</time></trkpt><trkpt lat="43.8770187" lon="11.1594206"><ele>71.0</ele><time>2026-03-29T11:35:54.155Z</time></trkpt><trkpt lat="43.8768936" lon="11.1595353"><ele>70.66666666666667</ele><time>2026-03-29T11:35:55.155Z</time></trkpt><trkpt lat="43.876766" lon="11.1596562"><ele>70.33333333333333</ele><time>2026-03-29T11:35:56.155Z</time></trkpt><trkpt lat="43.8766276" lon="11.1597847"><ele>70.0</ele><time>2026-03-29T11:35:57.155Z</time></trkpt><trkpt lat="43.8764989" lon="11.1599103"><ele>70.0</ele><time>2026-03-29T11:35:58.155Z</time></trkpt><trkpt lat="43.8763769" lon="11.1600254"><ele>70.0</ele><time>2026-03-29T11:35:59.155Z</time></trkpt><trkpt lat="43.8762665" lon="11.1601549"><ele>70.0</ele><time>2026-03-29T11:36:00.155Z</time></trkpt><trkpt lat="43.8761685" lon="11.1602932"><ele>70.0</ele><time>2026-03-29T11:36:01.155Z</time></trkpt><trkpt lat="43.876079" lon="11.160442"><ele>70.0</ele><time>2026-03-29T11:36:02.155Z</time></trkpt><trkpt lat="43.8760068" lon="11.1605856"><ele>70.0</ele><time>2026-03-29T11:36:03.155Z</time></trkpt><trkpt lat="43.875949" lon="11.1607176"><ele>70.0</ele><time>2026-03-29T11:36:04.155Z</time></trkpt><trkpt lat="43.8758874" lon="11.1607962"><ele>70.0</ele><time>2026-03-29T11:36:05.155Z</time></trkpt><trkpt lat="43.8758142" lon="11.1608134"><ele>70.0</ele><time>2026-03-29T11:36:06.155Z</time></trkpt><trkpt lat="43.8757315" lon="11.16075"><ele>69.25</ele><time>2026-03-29T11:36:07.154Z</time></trkpt><trkpt lat="43.875645" lon="11.1606458"><ele>68.5</ele><time>2026-03-29T11:36:08.155Z</time></trkpt><trkpt lat="43.8755521" lon="11.1605268"><ele>67.75</ele><time>2026-03-29T11:36:09.155Z</time></trkpt><trkpt lat="43.8754446" lon="11.1604151"><ele>67.0</ele><time>2026-03-29T11:36:10.155Z</time></trkpt><trkpt lat="43.8753638" lon="11.1603171"><ele>67.0</ele><time>2026-03-29T11:36:11.155Z</time></trkpt><trkpt lat="43.8752964" lon="11.1602457"><ele>67.0</ele><time>2026-03-29T11:36:12.155Z</time></trkpt><trkpt lat="43.8752112" lon="11.1602383"><ele>67.0</ele><time>2026-03-29T11:36:13.155Z</time></trkpt><trkpt lat="43.8751275" lon="11.1603094"><ele>67.0</ele><time>2026-03-29T11:36:14.155Z</time></trkpt><trkpt lat="43.8750284" lon="11.1604161"><ele>67.0</ele><time>2026-03-29T11:36:15.155Z</time></trkpt><trkpt lat="43.8749181" lon="11.1605394"><ele>67.0</ele><time>2026-03-29T11:36:16.155Z</time></trkpt><trkpt lat="43.8748132" lon="11.1606499"><ele>67.0</ele><time>2026-03-29T11:36:17.155Z</time></trkpt><trkpt lat="43.8746935" lon="11.1607513"><ele>67.0</ele><time>2026-03-29T11:36:18.155Z</time></trkpt><trkpt lat="43.874572" lon="11.1608546"><ele>67.0</ele><time>2026-03-29T11:36:19.155Z</time></trkpt><trkpt lat="43.8744582" lon="11.160973"><ele>67.0</ele><time>2026-03-29T11:36:20.155Z</time></trkpt><trkpt lat="43.8743474" lon="11.1611059"><ele>67.0</ele><time>2026-03-29T11:36:21.155Z</time></trkpt><trkpt lat="43.8742442" lon="11.1612311"><ele>67.0</ele><time>2026-03-29T11:36:22.155Z</time></trkpt><trkpt lat="43.8741533" lon="11.1613535"><ele>67.0</ele><time>2026-03-29T11:36:23.155Z</time></trkpt><trkpt lat="43.8740721" lon="11.1614641"><ele>67.0</ele><time>2026-03-29T11:36:24.155Z</time></trkpt><trkpt lat="43.8739993" lon="11.1615577"><ele>67.0</ele><time>2026-03-29T11:36:25.155Z</time></trkpt><trkpt lat="43.8739289" lon="11.1615915"><ele>67.0</ele><time>2026-03-29T11:36:26.154Z</time></trkpt><trkpt lat="43.8738415" lon="11.1615779"><ele>67.0</ele><time>2026-03-29T11:36:27.155Z</time></trkpt><trkpt lat="43.8737453" lon="11.1614743"><ele>67.0</ele><time>2026-03-29T11:36:28.155Z</time></trkpt><trkpt lat="43.873647" lon="11.1613537"><ele>67.0</ele><time>2026-03-29T11:36:29.155Z</time></trkpt><trkpt lat="43.8735352" lon="11.1612198"><ele>67.0</ele><time>2026-03-29T11:36:30.155Z</time></trkpt><trkpt lat="43.8734183" lon="11.161088"><ele>67.0</ele><time>2026-03-29T11:36:31.155Z</time></trkpt><trkpt lat="43.873322" lon="11.1609767"><ele>67.0</ele><time>2026-03-29T11:36:32.155Z</time></trkpt><trkpt lat="43.8732218" lon="11.1608658"><ele>67.0</ele><time>2026-03-29T11:36:33.155Z</time></trkpt><trkpt lat="43.8730951" lon="11.1607787"><ele>67.0</ele><time>2026-03-29T11:36:34.155Z</time></trkpt><trkpt lat="43.8729318" lon="11.1607191"><ele>67.0</ele><time>2026-03-29T11:36:35.155Z</time></trkpt><trkpt lat="43.8727501" lon="11.1606668"><ele>67.33333333333333</ele><time>2026-03-29T11:36:36.155Z</time></trkpt><trkpt lat="43.8725685" lon="11.1605921"><ele>67.66666666666667</ele><time>2026-03-29T11:36:37.155Z</time></trkpt><trkpt lat="43.8723923" lon="11.1605001"><ele>68.0</ele><time>2026-03-29T11:36:38.155Z</time></trkpt><trkpt lat="43.8722169" lon="11.1603902"><ele>68.0</ele><time>2026-03-29T11:36:39.155Z</time></trkpt><trkpt lat="43.8720427" lon="11.1602525"><ele>68.0</ele><time>2026-03-29T11:36:40.155Z</time></trkpt><trkpt lat="43.8718736" lon="11.1600805"><ele>68.0</ele><time>2026-03-29T11:36:41.155Z</time></trkpt><trkpt lat="43.8716998" lon="11.1598878"><ele>67.0</ele><time>2026-03-29T11:36:42.155Z</time></trkpt><trkpt lat="43.871524" lon="11.1596856"><ele>66.0</ele><time>2026-03-29T11:36:43.155Z</time></trkpt><trkpt lat="43.8713441" lon="11.159485"><ele>66.0</ele><time>2026-03-29T11:36:44.155Z</time></trkpt><trkpt lat="43.8711678" lon="11.1592732"><ele>66.0</ele><time>2026-03-29T11:36:45.155Z</time></trkpt><trkpt lat="43.8710101" lon="11.1590703"><ele>66.0</ele><time>2026-03-29T11:36:46.155Z</time></trkpt><trkpt lat="43.8708684" lon="11.1588964"><ele>65.66666666666667</ele><time>2026-03-29T11:36:47.155Z</time></trkpt><trkpt lat="43.8707494" lon="11.1587383"><ele>65.33333333333334</ele><time>2026-03-29T11:36:48.155Z</time></trkpt><trkpt lat="43.870629" lon="11.1586001"><ele>65.0</ele><time>2026-03-29T11:36:49.155Z</time></trkpt><trkpt lat="43.8704906" lon="11.1584802"><ele>65.0</ele><time>2026-03-29T11:36:50.155Z</time></trkpt><trkpt lat="43.8703284" lon="11.1584001"><ele>65.0</ele><time>2026-03-29T11:36:51.155Z</time></trkpt><trkpt lat="43.8701511" lon="11.1583486"><ele>65.0</ele><time>2026-03-29T11:36:52.155Z</time></trkpt><trkpt lat="43.8699863" lon="11.1582993"><ele>64.33333333333334</ele><time>2026-03-29T11:36:53.155Z</time></trkpt><trkpt lat="43.8698369" lon="11.1582194"><ele>63.66666666666667</ele><time>2026-03-29T11:36:54.155Z</time></trkpt><trkpt lat="43.8696975" lon="11.1580885"><ele>63.0</ele><time>2026-03-29T11:36:55.155Z</time></trkpt><trkpt lat="43.8695588" lon="11.1579168"><ele>63.0</ele><time>2026-03-29T11:36:56.155Z</time></trkpt><trkpt lat="43.8694363" lon="11.1577489"><ele>63.0</ele><time>2026-03-29T11:36:57.154Z</time></trkpt><trkpt lat="43.8693118" lon="11.1576067"><ele>63.0</ele><time>2026-03-29T11:36:58.155Z</time></trkpt><trkpt lat="43.8691865" lon="11.1574857"><ele>63.0</ele><time>2026-03-29T11:36:59.155Z</time></trkpt><trkpt lat="43.8690589" lon="11.1573944"><ele>63.0</ele><time>2026-03-29T11:37:00.155Z</time></trkpt><trkpt lat="43.8689293" lon="11.1573492"><ele>63.0</ele><time>2026-03-29T11:37:01.155Z</time></trkpt><trkpt lat="43.8687988" lon="11.1573387"><ele>63.0</ele><time>2026-03-29T11:37:02.155Z</time></trkpt><trkpt lat="43.8686624" lon="11.157301"><ele>62.33333333333333</ele><time>2026-03-29T11:37:03.155Z</time></trkpt><trkpt lat="43.8685164" lon="11.1571825"><ele>61.666666666666664</ele><time>2026-03-29T11:37:04.155Z</time></trkpt><trkpt lat="43.8683415" lon="11.1570216"><ele>61.0</ele><time>2026-03-29T11:37:05.155Z</time></trkpt><trkpt lat="43.8681588" lon="11.1568761"><ele>61.0</ele><time>2026-03-29T11:37:06.155Z</time></trkpt><trkpt lat="43.8679884" lon="11.1567258"><ele>61.0</ele><time>2026-03-29T11:37:07.155Z</time></trkpt><trkpt lat="43.8678148" lon="11.1565782"><ele>61.0</ele><time>2026-03-29T11:37:08.155Z</time></trkpt><trkpt lat="43.8676453" lon="11.1564455"><ele>61.0</ele><time>2026-03-29T11:37:09.155Z</time></trkpt><trkpt lat="43.8674885" lon="11.1563255"><ele>61.0</ele><time>2026-03-29T11:37:10.155Z</time></trkpt><trkpt lat="43.8673381" lon="11.1562092"><ele>61.0</ele><time>2026-03-29T11:37:11.155Z</time></trkpt><trkpt lat="43.8671961" lon="11.1561046"><ele>61.0</ele><time>2026-03-29T11:37:12.154Z</time></trkpt><trkpt lat="43.8670599" lon="11.1560292"><ele>61.0</ele><time>2026-03-29T11:37:13.155Z</time></trkpt><trkpt lat="43.8669289" lon="11.1559716"><ele>61.0</ele><time>2026-03-29T11:37:14.154Z</time></trkpt><trkpt lat="43.8667962" lon="11.1559204"><ele>61.0</ele><time>2026-03-29T11:37:15.155Z</time></trkpt><trkpt lat="43.8666746" lon="11.1558781"><ele>61.166666666666664</ele><time>2026-03-29T11:37:16.155Z</time></trkpt><trkpt lat="43.8665804" lon="11.1558369"><ele>61.33333333333333</ele><time>2026-03-29T11:37:17.155Z</time></trkpt><trkpt lat="43.8664975" lon="11.1557927"><ele>61.5</ele><time>2026-03-29T11:37:18.155Z</time></trkpt><trkpt lat="43.8664278" lon="11.1557453"><ele>61.66666666666667</ele><time>2026-03-29T11:37:19.154Z</time></trkpt><trkpt lat="43.8663932" lon="11.155656"><ele>61.833333333333336</ele><time>2026-03-29T11:37:20.155Z</time></trkpt><trkpt lat="43.866414" lon="11.1555572"><ele>62.0</ele><time>2026-03-29T11:37:21.155Z</time></trkpt><trkpt lat="43.8664494" lon="11.1554753"><ele>62.0</ele><time>2026-03-29T11:37:22.155Z</time></trkpt><trkpt lat="43.8664829" lon="11.1553323"><ele>62.0</ele><time>2026-03-29T11:37:24.155Z</time></trkpt><trkpt lat="43.8663928" lon="11.1551927"><ele>62.0</ele><time>2026-03-29T11:37:26.155Z</time></trkpt><trkpt lat="43.866277" lon="11.1551268"><ele>62.0</ele><time>2026-03-29T11:37:27.155Z</time></trkpt><trkpt lat="43.8661795" lon="11.1550568"><ele>62.0</ele><time>2026-03-29T11:37:28.155Z</time></trkpt><trkpt lat="43.8660893" lon="11.1550464"><ele>62.0</ele><time>2026-03-29T11:37:29.155Z</time></trkpt><trkpt lat="43.8659939" lon="11.1550964"><ele>62.0</ele><time>2026-03-29T11:37:30.155Z</time></trkpt><trkpt lat="43.8658889" lon="11.1551816"><ele>62.0</ele><time>2026-03-29T11:37:31.155Z</time></trkpt><trkpt lat="43.8657941" lon="11.1552572"><ele>62.0</ele><time>2026-03-29T11:37:32.155Z</time></trkpt><trkpt lat="43.865705" lon="11.1553148"><ele>61.8</ele><time>2026-03-29T11:37:33.155Z</time></trkpt><trkpt lat="43.8656054" lon="11.1553293"><ele>61.6</ele><time>2026-03-29T11:37:34.155Z</time></trkpt><trkpt lat="43.8655067" lon="11.1552859"><ele>61.39999999999999</ele><time>2026-03-29T11:37:35.155Z</time></trkpt><trkpt lat="43.8654163" lon="11.15522"><ele>61.199999999999996</ele><time>2026-03-29T11:37:36.155Z</time></trkpt><trkpt lat="43.8653052" lon="11.1551724"><ele>61.0</ele><time>2026-03-29T11:37:37.155Z</time></trkpt><trkpt lat="43.8652005" lon="11.1551257"><ele>61.0</ele><time>2026-03-29T11:37:38.155Z</time></trkpt><trkpt lat="43.8651024" lon="11.1550599"><ele>60.99999999999999</ele><time>2026-03-29T11:37:39.155Z</time></trkpt><trkpt lat="43.8650143" lon="11.1549531"><ele>60.99999999999999</ele><time>2026-03-29T11:37:40.155Z</time></trkpt><trkpt lat="43.8649416" lon="11.1548367"><ele>61.0</ele><time>2026-03-29T11:37:41.155Z</time></trkpt><trkpt lat="43.8648542" lon="11.1547419"><ele>61.0</ele><time>2026-03-29T11:37:42.155Z</time></trkpt><trkpt lat="43.8647556" lon="11.1546695"><ele>60.83333333333333</ele><time>2026-03-29T11:37:43.155Z</time></trkpt><trkpt lat="43.8646636" lon="11.1546141"><ele>60.666666666666664</ele><time>2026-03-29T11:37:44.155Z</time></trkpt><trkpt lat="43.8645851" lon="11.1545737"><ele>60.5</ele><time>2026-03-29T11:37:45.155Z</time></trkpt><trkpt lat="43.8645085" lon="11.1545681"><ele>60.33333333333333</ele><time>2026-03-29T11:37:46.155Z</time></trkpt><trkpt lat="43.864435" lon="11.1545866"><ele>60.166666666666664</ele><time>2026-03-29T11:37:47.155Z</time></trkpt><trkpt lat="43.8643806" lon="11.1546475"><ele>60.0</ele><time>2026-03-29T11:37:48.155Z</time></trkpt><trkpt lat="43.8643259" lon="11.1547406"><ele>59.833333333333336</ele><time>2026-03-29T11:37:49.155Z</time></trkpt><trkpt lat="43.8642703" lon="11.1548376"><ele>59.66666666666667</ele><time>2026-03-29T11:37:50.155Z</time></trkpt><trkpt lat="43.8642128" lon="11.1549295"><ele>59.5</ele><time>2026-03-29T11:37:51.155Z</time></trkpt><trkpt lat="43.8641557" lon="11.1550104"><ele>59.333333333333336</ele><time>2026-03-29T11:37:52.155Z</time></trkpt><trkpt lat="43.8641007" lon="11.155096"><ele>59.16666666666667</ele><time>2026-03-29T11:37:53.155Z</time></trkpt><trkpt lat="43.8640448" lon="11.1551776"><ele>59.0</ele><time>2026-03-29T11:37:54.155Z</time></trkpt><trkpt lat="43.8639744" lon="11.1552397"><ele>59.400000000000006</ele><time>2026-03-29T11:37:55.155Z</time></trkpt><trkpt lat="43.8638906" lon="11.1552637"><ele>59.800000000000004</ele><time>2026-03-29T11:37:56.155Z</time></trkpt><trkpt lat="43.8637975" lon="11.1552272"><ele>60.199999999999996</ele><time>2026-03-29T11:37:57.155Z</time></trkpt><trkpt lat="43.8637075" lon="11.1551586"><ele>60.599999999999994</ele><time>2026-03-29T11:37:58.155Z</time></trkpt><trkpt lat="43.863613" lon="11.1550905"><ele>61.0</ele><time>2026-03-29T11:37:59.155Z</time></trkpt><trkpt lat="43.8635014" lon="11.1550471"><ele>60.33333333333333</ele><time>2026-03-29T11:38:00.155Z</time></trkpt><trkpt lat="43.8633525" lon="11.155038"><ele>59.66666666666667</ele><time>2026-03-29T11:38:01.155Z</time></trkpt><trkpt lat="43.8631942" lon="11.1550201"><ele>59.0</ele><time>2026-03-29T11:38:02.155Z</time></trkpt><trkpt lat="43.8630106" lon="11.1549899"><ele>59.0</ele><time>2026-03-29T11:38:03.155Z</time></trkpt><trkpt lat="43.8628035" lon="11.1549466"><ele>59.0</ele><time>2026-03-29T11:38:04.155Z</time></trkpt><trkpt lat="43.8626138" lon="11.1548679"><ele>59.0</ele><time>2026-03-29T11:38:05.155Z</time></trkpt><trkpt lat="43.8624365" lon="11.1547944"><ele>58.333333333333336</ele><time>2026-03-29T11:38:06.155Z</time></trkpt><trkpt lat="43.8622462" lon="11.1547434"><ele>57.66666666666667</ele><time>2026-03-29T11:38:07.155Z</time></trkpt><trkpt lat="43.8620548" lon="11.1547431"><ele>57.0</ele><time>2026-03-29T11:38:08.155Z</time></trkpt><trkpt lat="43.8618683" lon="11.1547776"><ele>57.33333333333333</ele><time>2026-03-29T11:38:09.155Z</time></trkpt><trkpt lat="43.8616927" lon="11.1548093"><ele>57.666666666666664</ele><time>2026-03-29T11:38:10.155Z</time></trkpt><trkpt lat="43.8615328" lon="11.1548189"><ele>58.0</ele><time>2026-03-29T11:38:11.155Z</time></trkpt><trkpt lat="43.8613955" lon="11.1548133"><ele>57.99999999999999</ele><time>2026-03-29T11:38:12.155Z</time></trkpt><trkpt lat="43.8612838" lon="11.1548071"><ele>58.0</ele><time>2026-03-29T11:38:13.155Z</time></trkpt><trkpt lat="43.8612052" lon="11.1548067"><ele>58.0</ele><time>2026-03-29T11:38:14.155Z</time></trkpt><trkpt lat="43.861139" lon="11.154812"><ele>58.0</ele><time>2026-03-29T11:38:15.155Z</time></trkpt><trkpt lat="43.8610503" lon="11.1548615"><ele>57.99999999999999</ele><time>2026-03-29T11:38:17.155Z</time></trkpt><trkpt lat="43.8609779" lon="11.1549054"><ele>58.0</ele><time>2026-03-29T11:38:20.155Z</time></trkpt><trkpt lat="43.8609444" lon="11.1550175"><ele>58.166666666666664</ele><time>2026-03-29T11:38:22.155Z</time></trkpt><trkpt lat="43.860947" lon="11.1551152"><ele>58.33333333333333</ele><time>2026-03-29T11:38:23.155Z</time></trkpt><trkpt lat="43.8609598" lon="11.155232"><ele>58.5</ele><time>2026-03-29T11:38:24.155Z</time></trkpt><trkpt lat="43.8609653" lon="11.1553352"><ele>58.66666666666667</ele><time>2026-03-29T11:38:25.155Z</time></trkpt><trkpt lat="43.8609478" lon="11.1554361"><ele>58.833333333333336</ele><time>2026-03-29T11:38:26.155Z</time></trkpt><trkpt lat="43.8608889" lon="11.1555165"><ele>59.0</ele><time>2026-03-29T11:38:27.155Z</time></trkpt><trkpt lat="43.8608145" lon="11.1555872"><ele>59.333333333333336</ele><time>2026-03-29T11:38:28.155Z</time></trkpt><trkpt lat="43.8607582" lon="11.1556661"><ele>59.66666666666667</ele><time>2026-03-29T11:38:29.155Z</time></trkpt><trkpt lat="43.8607217" lon="11.1557422"><ele>60.0</ele><time>2026-03-29T11:38:30.155Z</time></trkpt><trkpt lat="43.8606593" lon="11.1558042"><ele>60.33333333333333</ele><time>2026-03-29T11:38:32.155Z</time></trkpt><trkpt lat="43.8605667" lon="11.155795"><ele>60.666666666666664</ele><time>2026-03-29T11:38:34.154Z</time></trkpt><trkpt lat="43.8605018" lon="11.1557746"><ele>61.0</ele><time>2026-03-29T11:38:35.154Z</time></trkpt><trkpt lat="43.8603513" lon="11.1557627"><ele>61.33333333333333</ele><time>2026-03-29T11:38:37.155Z</time></trkpt><trkpt lat="43.8602801" lon="11.1557673"><ele>61.666666666666664</ele><time>2026-03-29T11:38:38.155Z</time></trkpt><trkpt lat="43.8602088" lon="11.1557763"><ele>62.0</ele><time>2026-03-29T11:38:39.154Z</time></trkpt><trkpt lat="43.8601359" lon="11.1557901"><ele>62.33333333333333</ele><time>2026-03-29T11:38:40.155Z</time></trkpt><trkpt lat="43.8600652" lon="11.1558205"><ele>62.666666666666664</ele><time>2026-03-29T11:38:41.155Z</time></trkpt><trkpt lat="43.8599903" lon="11.1558656"><ele>63.0</ele><time>2026-03-29T11:38:42.155Z</time></trkpt><trkpt lat="43.8599167" lon="11.1559245"><ele>62.0</ele><time>2026-03-29T11:38:43.155Z</time></trkpt><trkpt lat="43.8598436" lon="11.1559895"><ele>61.0</ele><time>2026-03-29T11:38:44.155Z</time></trkpt><trkpt lat="43.8597765" lon="11.1560829"><ele>60.0</ele><time>2026-03-29T11:38:45.155Z</time></trkpt><trkpt lat="43.85971" lon="11.1561994"><ele>59.0</ele><time>2026-03-29T11:38:46.155Z</time></trkpt><trkpt lat="43.8596494" lon="11.1563555"><ele>58.0</ele><time>2026-03-29T11:38:47.155Z</time></trkpt><trkpt lat="43.8595967" lon="11.1565092"><ele>58.0</ele><time>2026-03-29T11:38:48.155Z</time></trkpt><trkpt lat="43.8595421" lon="11.1566311"><ele>58.0</ele><time>2026-03-29T11:38:49.155Z</time></trkpt><trkpt lat="43.8595045" lon="11.1567352"><ele>58.0</ele><time>2026-03-29T11:38:50.155Z</time></trkpt><trkpt lat="43.8595179" lon="11.156843"><ele>58.0</ele><time>2026-03-29T11:38:51.155Z</time></trkpt><trkpt lat="43.8595799" lon="11.1569573"><ele>58.0</ele><time>2026-03-29T11:38:52.155Z</time></trkpt><trkpt lat="43.8596814" lon="11.1570386"><ele>58.0</ele><time>2026-03-29T11:38:53.155Z</time></trkpt><trkpt lat="43.8597948" lon="11.1571048"><ele>58.0</ele><time>2026-03-29T11:38:54.155Z</time></trkpt><trkpt lat="43.8598885" lon="11.1571602"><ele>58.0</ele><time>2026-03-29T11:38:55.155Z</time></trkpt><trkpt lat="43.859972" lon="11.1572114"><ele>58.0</ele><time>2026-03-29T11:38:56.155Z</time></trkpt><trkpt lat="43.8600338" lon="11.1572536"><ele>58.0</ele><time>2026-03-29T11:38:57.155Z</time></trkpt><trkpt lat="43.8601036" lon="11.1573733"><ele>58.0</ele><time>2026-03-29T11:38:59.155Z</time></trkpt><trkpt lat="43.8600877" lon="11.1574663"><ele>58.0</ele><time>2026-03-29T11:39:00.155Z</time></trkpt><trkpt lat="43.8600337" lon="11.1576044"><ele>58.0</ele><time>2026-03-29T11:39:01.155Z</time></trkpt><trkpt lat="43.8599586" lon="11.1577745"><ele>58.0</ele><time>2026-03-29T11:39:02.155Z</time></trkpt><trkpt lat="43.8598783" lon="11.1579442"><ele>58.0</ele><time>2026-03-29T11:39:03.154Z</time></trkpt><trkpt lat="43.8598076" lon="11.1581023"><ele>58.0</ele><time>2026-03-29T11:39:04.155Z</time></trkpt><trkpt lat="43.8597469" lon="11.1582472"><ele>58.0</ele><time>2026-03-29T11:39:05.155Z</time></trkpt><trkpt lat="43.8596842" lon="11.158387"><ele>58.0</ele><time>2026-03-29T11:39:06.155Z</time></trkpt><trkpt lat="43.8596249" lon="11.1585106"><ele>57.599999999999994</ele><time>2026-03-29T11:39:07.155Z</time></trkpt><trkpt lat="43.8595708" lon="11.1586334"><ele>57.199999999999996</ele><time>2026-03-29T11:39:08.155Z</time></trkpt><trkpt lat="43.8595192" lon="11.1587417"><ele>56.8</ele><time>2026-03-29T11:39:09.155Z</time></trkpt><trkpt lat="43.859474" lon="11.1588342"><ele>56.4</ele><time>2026-03-29T11:39:10.155Z</time></trkpt><trkpt lat="43.8594329" lon="11.1589147"><ele>56.0</ele><time>2026-03-29T11:39:11.154Z</time></trkpt><trkpt lat="43.8593208" lon="11.1590052"><ele>56.0</ele><time>2026-03-29T11:39:13.155Z</time></trkpt><trkpt lat="43.8592318" lon="11.1589553"><ele>56.0</ele><time>2026-03-29T11:39:14.155Z</time></trkpt><trkpt lat="43.8591311" lon="11.1588782"><ele>56.0</ele><time>2026-03-29T11:39:15.155Z</time></trkpt><trkpt lat="43.8590156" lon="11.1587419"><ele>56.0</ele><time>2026-03-29T11:39:16.155Z</time></trkpt><trkpt lat="43.8588711" lon="11.1586118"><ele>56.0</ele><time>2026-03-29T11:39:17.155Z</time></trkpt><trkpt lat="43.858724" lon="11.1584765"><ele>56.0</ele><time>2026-03-29T11:39:18.155Z</time></trkpt><trkpt lat="43.8585739" lon="11.1583302"><ele>56.0</ele><time>2026-03-29T11:39:19.155Z</time></trkpt><trkpt lat="43.8584267" lon="11.1581876"><ele>56.0</ele><time>2026-03-29T11:39:20.154Z</time></trkpt><trkpt lat="43.8582748" lon="11.1580547"><ele>56.0</ele><time>2026-03-29T11:39:21.155Z</time></trkpt><trkpt lat="43.8581246" lon="11.1579176"><ele>56.0</ele><time>2026-03-29T11:39:22.155Z</time></trkpt><trkpt lat="43.8579707" lon="11.1577931"><ele>56.0</ele><time>2026-03-29T11:39:23.155Z</time></trkpt><trkpt lat="43.8578206" lon="11.1576594"><ele>56.0</ele><time>2026-03-29T11:39:24.155Z</time></trkpt><trkpt lat="43.8576715" lon="11.1575267"><ele>56.0</ele><time>2026-03-29T11:39:25.155Z</time></trkpt><trkpt lat="43.8575223" lon="11.1573922"><ele>56.333333333333336</ele><time>2026-03-29T11:39:26.155Z</time></trkpt><trkpt lat="43.8573681" lon="11.1572651"><ele>56.66666666666667</ele><time>2026-03-29T11:39:27.155Z</time></trkpt><trkpt lat="43.8572169" lon="11.157129"><ele>57.0</ele><time>2026-03-29T11:39:28.155Z</time></trkpt><trkpt lat="43.8570682" lon="11.1569954"><ele>57.0</ele><time>2026-03-29T11:39:29.155Z</time></trkpt><trkpt lat="43.8569189" lon="11.1568618"><ele>57.0</ele><time>2026-03-29T11:39:30.155Z</time></trkpt><trkpt lat="43.8567687" lon="11.156728"><ele>57.0</ele><time>2026-03-29T11:39:31.155Z</time></trkpt><trkpt lat="43.8566261" lon="11.156588"><ele>56.33333333333333</ele><time>2026-03-29T11:39:32.155Z</time></trkpt><trkpt lat="43.8564779" lon="11.1564505"><ele>55.666666666666664</ele><time>2026-03-29T11:39:33.155Z</time></trkpt><trkpt lat="43.8563307" lon="11.1563106"><ele>55.0</ele><time>2026-03-29T11:39:34.155Z</time></trkpt><trkpt lat="43.8561914" lon="11.1561623"><ele>55.0</ele><time>2026-03-29T11:39:35.155Z</time></trkpt><trkpt lat="43.8560552" lon="11.1560019"><ele>55.0</ele><time>2026-03-29T11:39:36.155Z</time></trkpt><trkpt lat="43.8559269" lon="11.1558416"><ele>55.0</ele><time>2026-03-29T11:39:37.155Z</time></trkpt><trkpt lat="43.8558105" lon="11.1556848"><ele>54.5</ele><time>2026-03-29T11:39:38.155Z</time></trkpt><trkpt lat="43.8557092" lon="11.1555437"><ele>54.0</ele><time>2026-03-29T11:39:39.155Z</time></trkpt><trkpt lat="43.8556251" lon="11.1553986"><ele>53.5</ele><time>2026-03-29T11:39:40.155Z</time></trkpt><trkpt lat="43.8555491" lon="11.1552657"><ele>53.0</ele><time>2026-03-29T11:39:41.155Z</time></trkpt><trkpt lat="43.8554649" lon="11.1551355"><ele>53.0</ele><time>2026-03-29T11:39:42.155Z</time></trkpt><trkpt lat="43.8553918" lon="11.1550176"><ele>53.0</ele><time>2026-03-29T11:39:43.155Z</time></trkpt><trkpt lat="43.8553308" lon="11.1549031"><ele>53.0</ele><time>2026-03-29T11:39:44.155Z</time></trkpt><trkpt lat="43.8552912" lon="11.1547658"><ele>53.0</ele><time>2026-03-29T11:39:45.155Z</time></trkpt><trkpt lat="43.855246" lon="11.1546295"><ele>53.0</ele><time>2026-03-29T11:39:46.155Z</time></trkpt><trkpt lat="43.8551841" lon="11.1545088"><ele>53.4</ele><time>2026-03-29T11:39:47.155Z</time></trkpt><trkpt lat="43.8551253" lon="11.1543897"><ele>53.8</ele><time>2026-03-29T11:39:48.155Z</time></trkpt><trkpt lat="43.855092" lon="11.1542524"><ele>54.2</ele><time>2026-03-29T11:39:49.155Z</time></trkpt><trkpt lat="43.855084" lon="11.1540974"><ele>54.6</ele><time>2026-03-29T11:39:50.155Z</time></trkpt><trkpt lat="43.8550857" lon="11.1539413"><ele>55.0</ele><time>2026-03-29T11:39:51.155Z</time></trkpt><trkpt lat="43.8550884" lon="11.1537526"><ele>55.0</ele><time>2026-03-29T11:39:52.155Z</time></trkpt><trkpt lat="43.8551013" lon="11.1535253"><ele>55.0</ele><time>2026-03-29T11:39:53.155Z</time></trkpt><trkpt lat="43.8551304" lon="11.1532874"><ele>55.0</ele><time>2026-03-29T11:39:54.155Z</time></trkpt><trkpt lat="43.8551725" lon="11.1530483"><ele>55.0</ele><time>2026-03-29T11:39:55.155Z</time></trkpt><trkpt lat="43.855241" lon="11.152805"><ele>55.0</ele><time>2026-03-29T11:39:56.155Z</time></trkpt><trkpt lat="43.8553186" lon="11.152566"><ele>55.0</ele><time>2026-03-29T11:39:57.155Z</time></trkpt><trkpt lat="43.8554012" lon="11.1523193"><ele>55.33333333333333</ele><time>2026-03-29T11:39:58.155Z</time></trkpt><trkpt lat="43.8554931" lon="11.1520791"><ele>55.66666666666667</ele><time>2026-03-29T11:39:59.155Z</time></trkpt><trkpt lat="43.8555844" lon="11.1518524"><ele>56.0</ele><time>2026-03-29T11:40:00.155Z</time></trkpt><trkpt lat="43.8556706" lon="11.1516423"><ele>55.75</ele><time>2026-03-29T11:40:01.155Z</time></trkpt><trkpt lat="43.8557495" lon="11.1514525"><ele>55.5</ele><time>2026-03-29T11:40:02.155Z</time></trkpt><trkpt lat="43.8558106" lon="11.1512885"><ele>55.25</ele><time>2026-03-29T11:40:03.155Z</time></trkpt><trkpt lat="43.8558671" lon="11.1511618"><ele>55.0</ele><time>2026-03-29T11:40:04.155Z</time></trkpt><trkpt lat="43.8559185" lon="11.1510293"><ele>55.0</ele><time>2026-03-29T11:40:05.155Z</time></trkpt><trkpt lat="43.8559795" lon="11.1509183"><ele>55.0</ele><time>2026-03-29T11:40:06.155Z</time></trkpt><trkpt lat="43.8560368" lon="11.1508233"><ele>55.0</ele><time>2026-03-29T11:40:07.155Z</time></trkpt><trkpt lat="43.8560967" lon="11.1507764"><ele>55.0</ele><time>2026-03-29T11:40:08.154Z</time></trkpt><trkpt lat="43.8561541" lon="11.1506446"><ele>55.0</ele><time>2026-03-29T11:40:10.155Z</time></trkpt><trkpt lat="43.8560487" lon="11.1506479"><ele>55.0</ele><time>2026-03-29T11:40:12.155Z</time></trkpt><trkpt lat="43.8559565" lon="11.1506843"><ele>55.0</ele><time>2026-03-29T11:40:13.155Z</time></trkpt><trkpt lat="43.8558571" lon="11.150692"><ele>55.0</ele><time>2026-03-29T11:40:14.155Z</time></trkpt><trkpt lat="43.8557447" lon="11.1506361"><ele>55.0</ele><time>2026-03-29T11:40:15.155Z</time></trkpt><trkpt lat="43.8556227" lon="11.1505601"><ele>55.0</ele><time>2026-03-29T11:40:16.155Z</time></trkpt><trkpt lat="43.8554918" lon="11.1504438"><ele>55.0</ele><time>2026-03-29T11:40:17.155Z</time></trkpt><trkpt lat="43.8553473" lon="11.1503299"><ele>55.0</ele><time>2026-03-29T11:40:18.154Z</time></trkpt><trkpt lat="43.8551887" lon="11.1502343"><ele>55.0</ele><time>2026-03-29T11:40:19.155Z</time></trkpt><trkpt lat="43.855024" lon="11.1501255"><ele>54.666666666666664</ele><time>2026-03-29T11:40:20.155Z</time></trkpt><trkpt lat="43.8548667" lon="11.1500233"><ele>54.33333333333333</ele><time>2026-03-29T11:40:21.155Z</time></trkpt><trkpt lat="43.8547084" lon="11.1499285"><ele>54.0</ele><time>2026-03-29T11:40:22.155Z</time></trkpt><trkpt lat="43.8545699" lon="11.1498359"><ele>54.0</ele><time>2026-03-29T11:40:23.155Z</time></trkpt><trkpt lat="43.854441" lon="11.1497491"><ele>54.0</ele><time>2026-03-29T11:40:24.155Z</time></trkpt><trkpt lat="43.8543183" lon="11.149684"><ele>54.0</ele><time>2026-03-29T11:40:25.155Z</time></trkpt><trkpt lat="43.8542179" lon="11.1495984"><ele>54.0</ele><time>2026-03-29T11:40:26.155Z</time></trkpt><trkpt lat="43.8541359" lon="11.1495094"><ele>53.5</ele><time>2026-03-29T11:40:27.155Z</time></trkpt><trkpt lat="43.854044" lon="11.1494179"><ele>53.0</ele><time>2026-03-29T11:40:28.155Z</time></trkpt><trkpt lat="43.8539276" lon="11.1493809"><ele>52.5</ele><time>2026-03-29T11:40:29.155Z</time></trkpt><trkpt lat="43.8537895" lon="11.1493459"><ele>52.0</ele><time>2026-03-29T11:40:30.155Z</time></trkpt><trkpt lat="43.8536317" lon="11.1492726"><ele>52.0</ele><time>2026-03-29T11:40:31.155Z</time></trkpt><trkpt lat="43.8534709" lon="11.1491701"><ele>52.0</ele><time>2026-03-29T11:40:32.155Z</time></trkpt><trkpt lat="43.8533123" lon="11.14905"><ele>52.0</ele><time>2026-03-29T11:40:33.155Z</time></trkpt><trkpt lat="43.8531452" lon="11.1489382"><ele>51.666666666666664</ele><time>2026-03-29T11:40:34.155Z</time></trkpt><trkpt lat="43.8529707" lon="11.1488414"><ele>51.33333333333333</ele><time>2026-03-29T11:40:35.155Z</time></trkpt><trkpt lat="43.852792" lon="11.1487348"><ele>51.0</ele><time>2026-03-29T11:40:36.155Z</time></trkpt><trkpt lat="43.8526094" lon="11.1486358"><ele>51.0</ele><time>2026-03-29T11:40:37.155Z</time></trkpt><trkpt lat="43.8524215" lon="11.1485459"><ele>51.0</ele><time>2026-03-29T11:40:38.155Z</time></trkpt><trkpt lat="43.8522301" lon="11.1484779"><ele>51.0</ele><time>2026-03-29T11:40:39.155Z</time></trkpt><trkpt lat="43.8520351" lon="11.1484395"><ele>51.0</ele><time>2026-03-29T11:40:40.155Z</time></trkpt><trkpt lat="43.851837" lon="11.1484283"><ele>51.0</ele><time>2026-03-29T11:40:41.155Z</time></trkpt><trkpt lat="43.8516358" lon="11.1484244"><ele>51.0</ele><time>2026-03-29T11:40:42.155Z</time></trkpt><trkpt lat="43.8514383" lon="11.1484204"><ele>51.0</ele><time>2026-03-29T11:40:43.155Z</time></trkpt><trkpt lat="43.8512393" lon="11.1484111"><ele>51.0</ele><time>2026-03-29T11:40:44.155Z</time></trkpt><trkpt lat="43.8510469" lon="11.1483921"><ele>51.0</ele><time>2026-03-29T11:40:45.155Z</time></trkpt><trkpt lat="43.8508515" lon="11.1483646"><ele>51.0</ele><time>2026-03-29T11:40:46.155Z</time></trkpt><trkpt lat="43.850656" lon="11.1483137"><ele>51.0</ele><time>2026-03-29T11:40:47.155Z</time></trkpt><trkpt lat="43.8504619" lon="11.1482416"><ele>51.0</ele><time>2026-03-29T11:40:48.155Z</time></trkpt><trkpt lat="43.8502626" lon="11.1481329"><ele>50.0</ele><time>2026-03-29T11:40:49.155Z</time></trkpt><trkpt lat="43.8500646" lon="11.14799"><ele>49.0</ele><time>2026-03-29T11:40:50.154Z</time></trkpt><trkpt lat="43.8498781" lon="11.1478109"><ele>49.0</ele><time>2026-03-29T11:40:51.155Z</time></trkpt><trkpt lat="43.8496895" lon="11.1476383"><ele>49.0</ele><time>2026-03-29T11:40:52.155Z</time></trkpt><trkpt lat="43.8495057" lon="11.1474674"><ele>49.0</ele><time>2026-03-29T11:40:53.155Z</time></trkpt><trkpt lat="43.8493183" lon="11.1472995"><ele>49.0</ele><time>2026-03-29T11:40:54.155Z</time></trkpt><trkpt lat="43.8491439" lon="11.1471458"><ele>49.0</ele><time>2026-03-29T11:40:55.155Z</time></trkpt><trkpt lat="43.8489719" lon="11.14699"><ele>49.0</ele><time>2026-03-29T11:40:56.154Z</time></trkpt><trkpt lat="43.8487853" lon="11.1468417"><ele>49.0</ele><time>2026-03-29T11:40:57.155Z</time></trkpt><trkpt lat="43.8485881" lon="11.1466998"><ele>49.0</ele><time>2026-03-29T11:40:58.155Z</time></trkpt><trkpt lat="43.848378" lon="11.1465506"><ele>48.5</ele><time>2026-03-29T11:40:59.155Z</time></trkpt><trkpt lat="43.8481704" lon="11.1463783"><ele>48.0</ele><time>2026-03-29T11:41:00.155Z</time></trkpt><trkpt lat="43.8479574" lon="11.1461991"><ele>48.0</ele><time>2026-03-29T11:41:01.155Z</time></trkpt><trkpt lat="43.8477429" lon="11.1460221"><ele>48.0</ele><time>2026-03-29T11:41:02.155Z</time></trkpt><trkpt lat="43.8475354" lon="11.1458474"><ele>47.5</ele><time>2026-03-29T11:41:03.155Z</time></trkpt><trkpt lat="43.8473404" lon="11.1456759"><ele>47.0</ele><time>2026-03-29T11:41:04.155Z</time></trkpt><trkpt lat="43.8471565" lon="11.1455107"><ele>47.0</ele><time>2026-03-29T11:41:05.155Z</time></trkpt><trkpt lat="43.8469863" lon="11.1453384"><ele>47.0</ele><time>2026-03-29T11:41:06.155Z</time></trkpt><trkpt lat="43.8468214" lon="11.1451688"><ele>47.0</ele><time>2026-03-29T11:41:07.155Z</time></trkpt><trkpt lat="43.8466593" lon="11.1450082"><ele>47.33333333333333</ele><time>2026-03-29T11:41:08.155Z</time></trkpt><trkpt lat="43.8464991" lon="11.1448593"><ele>47.666666666666664</ele><time>2026-03-29T11:41:09.155Z</time></trkpt><trkpt lat="43.8463487" lon="11.1447068"><ele>48.0</ele><time>2026-03-29T11:41:10.155Z</time></trkpt><trkpt lat="43.846211" lon="11.1445456"><ele>48.0</ele><time>2026-03-29T11:41:11.155Z</time></trkpt><trkpt lat="43.8460825" lon="11.1443732"><ele>48.0</ele><time>2026-03-29T11:41:12.155Z</time></trkpt><trkpt lat="43.8459636" lon="11.1442029"><ele>48.0</ele><time>2026-03-29T11:41:13.155Z</time></trkpt><trkpt lat="43.8458435" lon="11.1440394"><ele>48.33333333333333</ele><time>2026-03-29T11:41:14.154Z</time></trkpt><trkpt lat="43.8457192" lon="11.143902"><ele>48.666666666666664</ele><time>2026-03-29T11:41:15.155Z</time></trkpt><trkpt lat="43.8455635" lon="11.1437667"><ele>49.0</ele><time>2026-03-29T11:41:16.154Z</time></trkpt><trkpt lat="43.8454092" lon="11.1436266"><ele>49.0</ele><time>2026-03-29T11:41:17.155Z</time></trkpt><trkpt lat="43.8452649" lon="11.1434902"><ele>49.0</ele><time>2026-03-29T11:41:18.155Z</time></trkpt><trkpt lat="43.8451361" lon="11.1433649"><ele>49.0</ele><time>2026-03-29T11:41:19.155Z</time></trkpt><trkpt lat="43.8450287" lon="11.1432618"><ele>48.5</ele><time>2026-03-29T11:41:20.155Z</time></trkpt><trkpt lat="43.8449225" lon="11.1431792"><ele>48.0</ele><time>2026-03-29T11:41:21.155Z</time></trkpt><trkpt lat="43.8448253" lon="11.1430908"><ele>47.5</ele><time>2026-03-29T11:41:22.155Z</time></trkpt><trkpt lat="43.8447273" lon="11.1430174"><ele>47.0</ele><time>2026-03-29T11:41:23.155Z</time></trkpt><trkpt lat="43.8446306" lon="11.1429369"><ele>47.0</ele><time>2026-03-29T11:41:24.155Z</time></trkpt><trkpt lat="43.844546" lon="11.1428447"><ele>47.0</ele><time>2026-03-29T11:41:25.155Z</time></trkpt><trkpt lat="43.8444725" lon="11.1427652"><ele>47.0</ele><time>2026-03-29T11:41:26.155Z</time></trkpt><trkpt lat="43.8444123" lon="11.1426836"><ele>47.0</ele><time>2026-03-29T11:41:27.155Z</time></trkpt><trkpt lat="43.844349" lon="11.1425638"><ele>47.0</ele><time>2026-03-29T11:41:29.155Z</time></trkpt><trkpt lat="43.8443097" lon="11.1424781"><ele>46.2</ele><time>2026-03-29T11:41:31.155Z</time></trkpt><trkpt lat="43.8442824" lon="11.1422594"><ele>45.400000000000006</ele><time>2026-03-29T11:41:33.155Z</time></trkpt><trkpt lat="43.8442713" lon="11.1421258"><ele>44.599999999999994</ele><time>2026-03-29T11:41:34.155Z</time></trkpt><trkpt lat="43.8442444" lon="11.1420138"><ele>43.8</ele><time>2026-03-29T11:41:35.155Z</time></trkpt><trkpt lat="43.8441885" lon="11.141918"><ele>43.0</ele><time>2026-03-29T11:41:36.155Z</time></trkpt><trkpt lat="43.8440868" lon="11.1418609"><ele>43.0</ele><time>2026-03-29T11:41:37.155Z</time></trkpt><trkpt lat="43.8439472" lon="11.1418341"><ele>43.0</ele><time>2026-03-29T11:41:38.155Z</time></trkpt><trkpt lat="43.8438021" lon="11.1417689"><ele>43.0</ele><time>2026-03-29T11:41:39.155Z</time></trkpt><trkpt lat="43.843657" lon="11.1416419"><ele>43.66666666666667</ele><time>2026-03-29T11:41:40.155Z</time></trkpt><trkpt lat="43.8435072" lon="11.1414893"><ele>44.333333333333336</ele><time>2026-03-29T11:41:41.155Z</time></trkpt><trkpt lat="43.8433451" lon="11.1413345"><ele>45.0</ele><time>2026-03-29T11:41:42.155Z</time></trkpt><trkpt lat="43.843183" lon="11.1411835"><ele>46.0</ele><time>2026-03-29T11:41:43.155Z</time></trkpt><trkpt lat="43.8430138" lon="11.1410385"><ele>47.0</ele><time>2026-03-29T11:41:44.155Z</time></trkpt><trkpt lat="43.8428516" lon="11.140877"><ele>48.0</ele><time>2026-03-29T11:41:45.155Z</time></trkpt><trkpt lat="43.8426877" lon="11.1407199"><ele>47.333333333333336</ele><time>2026-03-29T11:41:46.155Z</time></trkpt><trkpt lat="43.8425262" lon="11.1405655"><ele>46.66666666666667</ele><time>2026-03-29T11:41:47.155Z</time></trkpt><trkpt lat="43.8423687" lon="11.140404"><ele>46.0</ele><time>2026-03-29T11:41:48.155Z</time></trkpt><trkpt lat="43.8422243" lon="11.1402395"><ele>46.0</ele><time>2026-03-29T11:41:49.155Z</time></trkpt><trkpt lat="43.8420953" lon="11.1400727"><ele>46.0</ele><time>2026-03-29T11:41:50.155Z</time></trkpt><trkpt lat="43.8419638" lon="11.1399092"><ele>46.0</ele><time>2026-03-29T11:41:51.155Z</time></trkpt><trkpt lat="43.8418374" lon="11.1397506"><ele>45.66666666666667</ele><time>2026-03-29T11:41:52.155Z</time></trkpt><trkpt lat="43.8417133" lon="11.1396058"><ele>45.333333333333336</ele><time>2026-03-29T11:41:53.155Z</time></trkpt><trkpt lat="43.8415843" lon="11.13946"><ele>45.0</ele><time>2026-03-29T11:41:54.155Z</time></trkpt><trkpt lat="43.8414584" lon="11.1393153"><ele>45.0</ele><time>2026-03-29T11:41:55.155Z</time></trkpt><trkpt lat="43.8413416" lon="11.1391718"><ele>45.0</ele><time>2026-03-29T11:41:56.155Z</time></trkpt><trkpt lat="43.8412238" lon="11.1390312"><ele>45.0</ele><time>2026-03-29T11:41:57.155Z</time></trkpt><trkpt lat="43.841111" lon="11.1388901"><ele>45.0</ele><time>2026-03-29T11:41:58.155Z</time></trkpt><trkpt lat="43.8410035" lon="11.1387528"><ele>45.0</ele><time>2026-03-29T11:41:59.154Z</time></trkpt><trkpt lat="43.8408994" lon="11.1386161"><ele>45.0</ele><time>2026-03-29T11:42:00.154Z</time></trkpt><trkpt lat="43.8407893" lon="11.1384782"><ele>45.0</ele><time>2026-03-29T11:42:01.155Z</time></trkpt><trkpt lat="43.8406591" lon="11.1383357"><ele>45.0</ele><time>2026-03-29T11:42:02.155Z</time></trkpt><trkpt lat="43.8405043" lon="11.1381858"><ele>45.0</ele><time>2026-03-29T11:42:03.155Z</time></trkpt><trkpt lat="43.8403294" lon="11.1380407"><ele>45.0</ele><time>2026-03-29T11:42:04.155Z</time></trkpt><trkpt lat="43.8401291" lon="11.1378793"><ele>44.5</ele><time>2026-03-29T11:42:05.155Z</time></trkpt><trkpt lat="43.8399285" lon="11.1377052"><ele>44.0</ele><time>2026-03-29T11:42:06.155Z</time></trkpt><trkpt lat="43.8397185" lon="11.1375482"><ele>44.0</ele><time>2026-03-29T11:42:07.155Z</time></trkpt><trkpt lat="43.8394942" lon="11.1374077"><ele>44.0</ele><time>2026-03-29T11:42:08.155Z</time></trkpt><trkpt lat="43.8392581" lon="11.1372863"><ele>42.0</ele><time>2026-03-29T11:42:09.155Z</time></trkpt><trkpt lat="43.8390095" lon="11.1371882"><ele>40.0</ele><time>2026-03-29T11:42:10.155Z</time></trkpt><trkpt lat="43.8387521" lon="11.1371066"><ele>40.0</ele><time>2026-03-29T11:42:11.155Z</time></trkpt><trkpt lat="43.8384964" lon="11.1370372"><ele>40.0</ele><time>2026-03-29T11:42:12.155Z</time></trkpt><trkpt lat="43.8382374" lon="11.1369736"><ele>40.5</ele><time>2026-03-29T11:42:13.155Z</time></trkpt><trkpt lat="43.8379733" lon="11.136911"><ele>41.0</ele><time>2026-03-29T11:42:14.155Z</time></trkpt><trkpt lat="43.8377115" lon="11.1368546"><ele>42.0</ele><time>2026-03-29T11:42:15.155Z</time></trkpt><trkpt lat="43.8374434" lon="11.1367898"><ele>43.0</ele><time>2026-03-29T11:42:16.155Z</time></trkpt><trkpt lat="43.8371795" lon="11.1367193"><ele>43.0</ele><time>2026-03-29T11:42:17.155Z</time></trkpt><trkpt lat="43.836927" lon="11.1366517"><ele>43.0</ele><time>2026-03-29T11:42:18.155Z</time></trkpt><trkpt lat="43.8366976" lon="11.1365856"><ele>42.333333333333336</ele><time>2026-03-29T11:42:19.155Z</time></trkpt><trkpt lat="43.8365074" lon="11.1365449"><ele>41.666666666666664</ele><time>2026-03-29T11:42:20.155Z</time></trkpt><trkpt lat="43.8363201" lon="11.1365093"><ele>41.0</ele><time>2026-03-29T11:42:21.155Z</time></trkpt><trkpt lat="43.836146" lon="11.1364629"><ele>41.0</ele><time>2026-03-29T11:42:22.155Z</time></trkpt><trkpt lat="43.8359871" lon="11.1364229"><ele>41.0</ele><time>2026-03-29T11:42:23.155Z</time></trkpt><trkpt lat="43.8358194" lon="11.1363817"><ele>41.0</ele><time>2026-03-29T11:42:24.155Z</time></trkpt><trkpt lat="43.8356346" lon="11.1363464"><ele>41.0</ele><time>2026-03-29T11:42:25.155Z</time></trkpt><trkpt lat="43.835449" lon="11.136311"><ele>41.0</ele><time>2026-03-29T11:42:26.155Z</time></trkpt><trkpt lat="43.8352876" lon="11.1362686"><ele>41.0</ele><time>2026-03-29T11:42:27.155Z</time></trkpt><trkpt lat="43.8351472" lon="11.1362228"><ele>40.75</ele><time>2026-03-29T11:42:28.155Z</time></trkpt><trkpt lat="43.8350069" lon="11.1361863"><ele>40.5</ele><time>2026-03-29T11:42:29.155Z</time></trkpt><trkpt lat="43.834868" lon="11.1361463"><ele>40.25</ele><time>2026-03-29T11:42:30.155Z</time></trkpt><trkpt lat="43.8347142" lon="11.1361088"><ele>40.0</ele><time>2026-03-29T11:42:31.155Z</time></trkpt><trkpt lat="43.8345521" lon="11.1360774"><ele>40.0</ele><time>2026-03-29T11:42:32.155Z</time></trkpt><trkpt lat="43.8343898" lon="11.1360385"><ele>40.0</ele><time>2026-03-29T11:42:33.155Z</time></trkpt><trkpt lat="43.8342348" lon="11.1359909"><ele>40.0</ele><time>2026-03-29T11:42:34.154Z</time></trkpt><trkpt lat="43.8340931" lon="11.1359484"><ele>40.25</ele><time>2026-03-29T11:42:35.155Z</time></trkpt><trkpt lat="43.833967" lon="11.1359158"><ele>40.5</ele><time>2026-03-29T11:42:36.155Z</time></trkpt><trkpt lat="43.8338494" lon="11.1358853"><ele>40.75</ele><time>2026-03-29T11:42:37.154Z</time></trkpt><trkpt lat="43.8337329" lon="11.1358509"><ele>41.0</ele><time>2026-03-29T11:42:38.155Z</time></trkpt><trkpt lat="43.8336148" lon="11.1358127"><ele>41.0</ele><time>2026-03-29T11:42:39.155Z</time></trkpt><trkpt lat="43.8334918" lon="11.1357816"><ele>41.0</ele><time>2026-03-29T11:42:40.155Z</time></trkpt><trkpt lat="43.8333678" lon="11.1357553"><ele>41.0</ele><time>2026-03-29T11:42:41.155Z</time></trkpt><trkpt lat="43.8332465" lon="11.1357254"><ele>41.0</ele><time>2026-03-29T11:42:42.155Z</time></trkpt><trkpt lat="43.8331119" lon="11.1356861"><ele>41.0</ele><time>2026-03-29T11:42:43.155Z</time></trkpt><trkpt lat="43.8329608" lon="11.1356273"><ele>41.0</ele><time>2026-03-29T11:42:44.155Z</time></trkpt><trkpt lat="43.8327985" lon="11.1355548"><ele>41.0</ele><time>2026-03-29T11:42:45.154Z</time></trkpt><trkpt lat="43.8326349" lon="11.1354948"><ele>41.25</ele><time>2026-03-29T11:42:46.155Z</time></trkpt><trkpt lat="43.8324864" lon="11.1354416"><ele>41.5</ele><time>2026-03-29T11:42:47.155Z</time></trkpt><trkpt lat="43.8323507" lon="11.1353706"><ele>41.75</ele><time>2026-03-29T11:42:48.155Z</time></trkpt><trkpt lat="43.832239" lon="11.1352415"><ele>42.0</ele><time>2026-03-29T11:42:49.155Z</time></trkpt><trkpt lat="43.8321718" lon="11.1351018"><ele>42.0</ele><time>2026-03-29T11:42:50.155Z</time></trkpt><trkpt lat="43.8321515" lon="11.1349734"><ele>42.0</ele><time>2026-03-29T11:42:51.154Z</time></trkpt><trkpt lat="43.8321717" lon="11.1348588"><ele>42.0</ele><time>2026-03-29T11:42:52.155Z</time></trkpt><trkpt lat="43.8322137" lon="11.1347209"><ele>42.0</ele><time>2026-03-29T11:42:53.155Z</time></trkpt><trkpt lat="43.832264" lon="11.1345646"><ele>42.0</ele><time>2026-03-29T11:42:54.155Z</time></trkpt><trkpt lat="43.832329" lon="11.1343701"><ele>41.666666666666664</ele><time>2026-03-29T11:42:55.155Z</time></trkpt><trkpt lat="43.8324105" lon="11.134162"><ele>41.33333333333333</ele><time>2026-03-29T11:42:56.155Z</time></trkpt><trkpt lat="43.8324909" lon="11.1339417"><ele>41.0</ele><time>2026-03-29T11:42:57.155Z</time></trkpt><trkpt lat="43.8325806" lon="11.1337206"><ele>42.0</ele><time>2026-03-29T11:42:58.155Z</time></trkpt><trkpt lat="43.8326689" lon="11.1334996"><ele>43.0</ele><time>2026-03-29T11:42:59.155Z</time></trkpt><trkpt lat="43.8327571" lon="11.1332812"><ele>44.0</ele><time>2026-03-29T11:43:00.155Z</time></trkpt><trkpt lat="43.8328403" lon="11.1330767"><ele>44.5</ele><time>2026-03-29T11:43:01.155Z</time></trkpt><trkpt lat="43.8329196" lon="11.1328817"><ele>45.0</ele><time>2026-03-29T11:43:02.155Z</time></trkpt><trkpt lat="43.8329948" lon="11.1326948"><ele>45.5</ele><time>2026-03-29T11:43:03.154Z</time></trkpt><trkpt lat="43.8330492" lon="11.1325365"><ele>46.0</ele><time>2026-03-29T11:43:04.154Z</time></trkpt><trkpt lat="43.8330923" lon="11.1324032"><ele>45.0</ele><time>2026-03-29T11:43:05.155Z</time></trkpt><trkpt lat="43.8331426" lon="11.1322813"><ele>44.0</ele><time>2026-03-29T11:43:06.155Z</time></trkpt><trkpt lat="43.833212" lon="11.1321722"><ele>43.0</ele><time>2026-03-29T11:43:07.155Z</time></trkpt><trkpt lat="43.8333009" lon="11.1320762"><ele>42.0</ele><time>2026-03-29T11:43:08.155Z</time></trkpt><trkpt lat="43.8333555" lon="11.1319821"><ele>41.0</ele><time>2026-03-29T11:43:09.155Z</time></trkpt><trkpt lat="43.833377" lon="11.1318689"><ele>41.0</ele><time>2026-03-29T11:43:10.155Z</time></trkpt><trkpt lat="43.8333577" lon="11.1317594"><ele>41.0</ele><time>2026-03-29T11:43:11.155Z</time></trkpt><trkpt lat="43.8332832" lon="11.1316676"><ele>41.0</ele><time>2026-03-29T11:43:12.155Z</time></trkpt><trkpt lat="43.8332027" lon="11.1316641"><ele>41.0</ele><time>2026-03-29T11:43:13.155Z</time></trkpt><trkpt lat="43.8330984" lon="11.1317197"><ele>41.0</ele><time>2026-03-29T11:43:14.155Z</time></trkpt><trkpt lat="43.8329975" lon="11.1318205"><ele>41.0</ele><time>2026-03-29T11:43:15.155Z</time></trkpt><trkpt lat="43.8328968" lon="11.1319069"><ele>41.0</ele><time>2026-03-29T11:43:16.155Z</time></trkpt><trkpt lat="43.8327788" lon="11.1319692"><ele>41.0</ele><time>2026-03-29T11:43:17.155Z</time></trkpt><trkpt lat="43.8326431" lon="11.131995"><ele>41.0</ele><time>2026-03-29T11:43:18.155Z</time></trkpt><trkpt lat="43.8324954" lon="11.13199"><ele>41.0</ele><time>2026-03-29T11:43:19.155Z</time></trkpt><trkpt lat="43.8323321" lon="11.1319877"><ele>41.0</ele><time>2026-03-29T11:43:20.155Z</time></trkpt><trkpt lat="43.8321755" lon="11.1319771"><ele>41.0</ele><time>2026-03-29T11:43:21.155Z</time></trkpt><trkpt lat="43.8320209" lon="11.1319683"><ele>41.0</ele><time>2026-03-29T11:43:22.155Z</time></trkpt><trkpt lat="43.8318684" lon="11.1319596"><ele>41.0</ele><time>2026-03-29T11:43:23.155Z</time></trkpt><trkpt lat="43.8317206" lon="11.1319479"><ele>41.0</ele><time>2026-03-29T11:43:24.155Z</time></trkpt><trkpt lat="43.8315853" lon="11.1319358"><ele>41.0</ele><time>2026-03-29T11:43:25.155Z</time></trkpt><trkpt lat="43.8314551" lon="11.1319225"><ele>41.0</ele><time>2026-03-29T11:43:26.155Z</time></trkpt><trkpt lat="43.83133" lon="11.1319174"><ele>41.0</ele><time>2026-03-29T11:43:27.155Z</time></trkpt><trkpt lat="43.8312077" lon="11.1319147"><ele>41.0</ele><time>2026-03-29T11:43:28.155Z</time></trkpt><trkpt lat="43.8310819" lon="11.13191"><ele>41.0</ele><time>2026-03-29T11:43:29.155Z</time></trkpt><trkpt lat="43.8309662" lon="11.1319037"><ele>40.8</ele><time>2026-03-29T11:43:30.155Z</time></trkpt><trkpt lat="43.8308579" lon="11.1318955"><ele>40.599999999999994</ele><time>2026-03-29T11:43:31.155Z</time></trkpt><trkpt lat="43.8307574" lon="11.1318697"><ele>40.4</ele><time>2026-03-29T11:43:32.155Z</time></trkpt><trkpt lat="43.8306623" lon="11.1318246"><ele>40.2</ele><time>2026-03-29T11:43:33.155Z</time></trkpt><trkpt lat="43.8305664" lon="11.1317565"><ele>40.0</ele><time>2026-03-29T11:43:34.155Z</time></trkpt><trkpt lat="43.8304747" lon="11.1316738"><ele>40.0</ele><time>2026-03-29T11:43:35.155Z</time></trkpt><trkpt lat="43.830388" lon="11.1315966"><ele>40.0</ele><time>2026-03-29T11:43:36.155Z</time></trkpt><trkpt lat="43.8303108" lon="11.1315247"><ele>40.0</ele><time>2026-03-29T11:43:37.155Z</time></trkpt><trkpt lat="43.8302394" lon="11.1314577"><ele>40.0</ele><time>2026-03-29T11:43:38.155Z</time></trkpt><trkpt lat="43.8301673" lon="11.1313884"><ele>40.0</ele><time>2026-03-29T11:43:39.155Z</time></trkpt><trkpt lat="43.8300892" lon="11.1313163"><ele>39.75</ele><time>2026-03-29T11:43:40.155Z</time></trkpt><trkpt lat="43.8300042" lon="11.1312245"><ele>39.5</ele><time>2026-03-29T11:43:41.155Z</time></trkpt><trkpt lat="43.8299237" lon="11.1311263"><ele>39.25</ele><time>2026-03-29T11:43:42.155Z</time></trkpt><trkpt lat="43.8298372" lon="11.1310139"><ele>39.0</ele><time>2026-03-29T11:43:43.155Z</time></trkpt><trkpt lat="43.8297422" lon="11.1309146"><ele>39.0</ele><time>2026-03-29T11:43:44.155Z</time></trkpt><trkpt lat="43.8296402" lon="11.1308238"><ele>39.0</ele><time>2026-03-29T11:43:45.155Z</time></trkpt><trkpt lat="43.8295397" lon="11.13073"><ele>39.0</ele><time>2026-03-29T11:43:46.155Z</time></trkpt><trkpt lat="43.8294429" lon="11.1306438"><ele>39.0</ele><time>2026-03-29T11:43:47.155Z</time></trkpt><trkpt lat="43.8293485" lon="11.1305596"><ele>38.8</ele><time>2026-03-29T11:43:48.155Z</time></trkpt><trkpt lat="43.8292501" lon="11.1304758"><ele>38.599999999999994</ele><time>2026-03-29T11:43:49.155Z</time></trkpt><trkpt lat="43.8291558" lon="11.1303938"><ele>38.4</ele><time>2026-03-29T11:43:50.155Z</time></trkpt><trkpt lat="43.8290652" lon="11.1303197"><ele>38.199999999999996</ele><time>2026-03-29T11:43:51.155Z</time></trkpt><trkpt lat="43.8289774" lon="11.1302443"><ele>38.0</ele><time>2026-03-29T11:43:52.155Z</time></trkpt><trkpt lat="43.8288838" lon="11.1301637"><ele>38.0</ele><time>2026-03-29T11:43:53.155Z</time></trkpt><trkpt lat="43.8287847" lon="11.1300818"><ele>38.0</ele><time>2026-03-29T11:43:54.155Z</time></trkpt><trkpt lat="43.8286805" lon="11.1299946"><ele>38.0</ele><time>2026-03-29T11:43:55.155Z</time></trkpt><trkpt lat="43.8285731" lon="11.1299065"><ele>38.0</ele><time>2026-03-29T11:43:56.155Z</time></trkpt><trkpt lat="43.8284678" lon="11.1298145"><ele>38.199999999999996</ele><time>2026-03-29T11:43:57.155Z</time></trkpt><trkpt lat="43.8283695" lon="11.1297369"><ele>38.4</ele><time>2026-03-29T11:43:58.155Z</time></trkpt><trkpt lat="43.8282848" lon="11.1296616"><ele>38.599999999999994</ele><time>2026-03-29T11:43:59.155Z</time></trkpt><trkpt lat="43.8282042" lon="11.1295929"><ele>38.8</ele><time>2026-03-29T11:44:00.155Z</time></trkpt><trkpt lat="43.8281365" lon="11.1295225"><ele>39.0</ele><time>2026-03-29T11:44:01.155Z</time></trkpt><trkpt lat="43.8280767" lon="11.1294667"><ele>39.0</ele><time>2026-03-29T11:44:02.155Z</time></trkpt><trkpt lat="43.828023" lon="11.129421"><ele>39.0</ele><time>2026-03-29T11:44:03.155Z</time></trkpt><trkpt lat="43.8279338" lon="11.1293229"><ele>39.0</ele><time>2026-03-29T11:44:05.155Z</time></trkpt><trkpt lat="43.8278881" lon="11.1292138"><ele>39.0</ele><time>2026-03-29T11:44:07.155Z</time></trkpt><trkpt lat="43.8278517" lon="11.1290949"><ele>39.0</ele><time>2026-03-29T11:44:09.155Z</time></trkpt><trkpt lat="43.8277568" lon="11.1290349"><ele>39.0</ele><time>2026-03-29T11:44:11.155Z</time></trkpt><trkpt lat="43.827682" lon="11.1290256"><ele>39.0</ele><time>2026-03-29T11:44:12.155Z</time></trkpt><trkpt lat="43.8275893" lon="11.1289991"><ele>39.0</ele><time>2026-03-29T11:44:13.155Z</time></trkpt><trkpt lat="43.827473" lon="11.1289524"><ele>39.0</ele><time>2026-03-29T11:44:14.155Z</time></trkpt><trkpt lat="43.8273642" lon="11.1288552"><ele>39.0</ele><time>2026-03-29T11:44:15.155Z</time></trkpt><trkpt lat="43.8272406" lon="11.1287366"><ele>38.333333333333336</ele><time>2026-03-29T11:44:16.155Z</time></trkpt><trkpt lat="43.8271023" lon="11.1286165"><ele>37.66666666666667</ele><time>2026-03-29T11:44:17.155Z</time></trkpt><trkpt lat="43.8269563" lon="11.1284976"><ele>37.0</ele><time>2026-03-29T11:44:18.155Z</time></trkpt><trkpt lat="43.8268199" lon="11.1283876"><ele>36.75</ele><time>2026-03-29T11:44:19.155Z</time></trkpt><trkpt lat="43.8266997" lon="11.1282805"><ele>36.5</ele><time>2026-03-29T11:44:20.155Z</time></trkpt><trkpt lat="43.8265921" lon="11.1281814"><ele>36.25</ele><time>2026-03-29T11:44:21.155Z</time></trkpt><trkpt lat="43.8264981" lon="11.1280956"><ele>36.0</ele><time>2026-03-29T11:44:22.155Z</time></trkpt><trkpt lat="43.826423" lon="11.1280176"><ele>36.4</ele><time>2026-03-29T11:44:23.155Z</time></trkpt><trkpt lat="43.8263702" lon="11.1279234"><ele>36.8</ele><time>2026-03-29T11:44:24.154Z</time></trkpt><trkpt lat="43.8263265" lon="11.1278013"><ele>37.199999999999996</ele><time>2026-03-29T11:44:25.155Z</time></trkpt><trkpt lat="43.8262808" lon="11.1276686"><ele>37.6</ele><time>2026-03-29T11:44:26.155Z</time></trkpt><trkpt lat="43.8262081" lon="11.1275731"><ele>38.0</ele><time>2026-03-29T11:44:27.155Z</time></trkpt><trkpt lat="43.8260988" lon="11.1275172"><ele>38.0</ele><time>2026-03-29T11:44:28.155Z</time></trkpt><trkpt lat="43.8259661" lon="11.1275"><ele>38.0</ele><time>2026-03-29T11:44:29.155Z</time></trkpt><trkpt lat="43.8258173" lon="11.1274595"><ele>38.0</ele><time>2026-03-29T11:44:30.155Z</time></trkpt><trkpt lat="43.8256761" lon="11.1273761"><ele>38.0</ele><time>2026-03-29T11:44:31.155Z</time></trkpt><trkpt lat="43.8255237" lon="11.1272631"><ele>37.666666666666664</ele><time>2026-03-29T11:44:32.155Z</time></trkpt><trkpt lat="43.8253751" lon="11.1271274"><ele>37.333333333333336</ele><time>2026-03-29T11:44:33.155Z</time></trkpt><trkpt lat="43.8252161" lon="11.1269958"><ele>37.0</ele><time>2026-03-29T11:44:34.155Z</time></trkpt><trkpt lat="43.8250581" lon="11.1268697"><ele>37.0</ele><time>2026-03-29T11:44:35.155Z</time></trkpt><trkpt lat="43.8249099" lon="11.1267437"><ele>37.0</ele><time>2026-03-29T11:44:36.155Z</time></trkpt><trkpt lat="43.8247602" lon="11.1266125"><ele>37.0</ele><time>2026-03-29T11:44:37.155Z</time></trkpt><trkpt lat="43.8246132" lon="11.1264865"><ele>37.0</ele><time>2026-03-29T11:44:38.155Z</time></trkpt><trkpt lat="43.8244765" lon="11.1263623"><ele>37.0</ele><time>2026-03-29T11:44:39.155Z</time></trkpt><trkpt lat="43.824331" lon="11.1262452"><ele>37.0</ele><time>2026-03-29T11:44:40.155Z</time></trkpt><trkpt lat="43.8241879" lon="11.1261177"><ele>36.66666666666667</ele><time>2026-03-29T11:44:41.155Z</time></trkpt><trkpt lat="43.8240383" lon="11.1259931"><ele>36.333333333333336</ele><time>2026-03-29T11:44:42.155Z</time></trkpt><trkpt lat="43.8238915" lon="11.1258618"><ele>36.0</ele><time>2026-03-29T11:44:43.155Z</time></trkpt><trkpt lat="43.8237544" lon="11.125741"><ele>36.0</ele><time>2026-03-29T11:44:44.155Z</time></trkpt><trkpt lat="43.8236392" lon="11.1256478"><ele>36.0</ele><time>2026-03-29T11:44:45.155Z</time></trkpt><trkpt lat="43.8235612" lon="11.125579"><ele>36.0</ele><time>2026-03-29T11:44:46.155Z</time></trkpt><trkpt lat="43.8234948" lon="11.1255344"><ele>36.0</ele><time>2026-03-29T11:45:10.155Z</time></trkpt><trkpt lat="43.82339" lon="11.1254105"><ele>36.0</ele><time>2026-03-29T11:45:12.155Z</time></trkpt><trkpt lat="43.8232944" lon="11.1253332"><ele>36.0</ele><time>2026-03-29T11:45:13.155Z</time></trkpt><trkpt lat="43.8231867" lon="11.125237"><ele>36.0</ele><time>2026-03-29T11:45:14.155Z</time></trkpt><trkpt lat="43.8230648" lon="11.1251314"><ele>36.0</ele><time>2026-03-29T11:45:15.155Z</time></trkpt><trkpt lat="43.8229319" lon="11.1250235"><ele>36.0</ele><time>2026-03-29T11:45:16.155Z</time></trkpt><trkpt lat="43.8227828" lon="11.1248999"><ele>36.0</ele><time>2026-03-29T11:45:17.155Z</time></trkpt><trkpt lat="43.8226273" lon="11.1247649"><ele>36.0</ele><time>2026-03-29T11:45:18.155Z</time></trkpt><trkpt lat="43.8224708" lon="11.1246344"><ele>36.0</ele><time>2026-03-29T11:45:19.155Z</time></trkpt><trkpt lat="43.8223142" lon="11.1244946"><ele>36.0</ele><time>2026-03-29T11:45:20.155Z</time></trkpt><trkpt lat="43.8221513" lon="11.1243565"><ele>36.0</ele><time>2026-03-29T11:45:21.155Z</time></trkpt><trkpt lat="43.8219947" lon="11.1242207"><ele>36.0</ele><time>2026-03-29T11:45:22.154Z</time></trkpt><trkpt lat="43.8218384" lon="11.1240937"><ele>36.0</ele><time>2026-03-29T11:45:23.155Z</time></trkpt><trkpt lat="43.8216955" lon="11.1239701"><ele>36.0</ele><time>2026-03-29T11:45:24.155Z</time></trkpt><trkpt lat="43.8215606" lon="11.1238558"><ele>36.0</ele><time>2026-03-29T11:45:25.155Z</time></trkpt><trkpt lat="43.8214302" lon="11.1237438"><ele>36.0</ele><time>2026-03-29T11:45:26.155Z</time></trkpt><trkpt lat="43.8213079" lon="11.123636"><ele>36.0</ele><time>2026-03-29T11:45:27.155Z</time></trkpt><trkpt lat="43.8211961" lon="11.1235395"><ele>36.0</ele><time>2026-03-29T11:45:28.155Z</time></trkpt><trkpt lat="43.821098" lon="11.1234499"><ele>36.0</ele><time>2026-03-29T11:45:29.155Z</time></trkpt><trkpt lat="43.8210183" lon="11.1233613"><ele>35.8</ele><time>2026-03-29T11:45:30.155Z</time></trkpt><trkpt lat="43.8209544" lon="11.1232565"><ele>35.6</ele><time>2026-03-29T11:45:31.155Z</time></trkpt><trkpt lat="43.8209035" lon="11.1231297"><ele>35.4</ele><time>2026-03-29T11:45:32.154Z</time></trkpt><trkpt lat="43.8208603" lon="11.1230008"><ele>35.2</ele><time>2026-03-29T11:45:33.155Z</time></trkpt><trkpt lat="43.8208112" lon="11.1228896"><ele>35.0</ele><time>2026-03-29T11:45:34.155Z</time></trkpt><trkpt lat="43.8207341" lon="11.1228083"><ele>35.0</ele><time>2026-03-29T11:45:35.155Z</time></trkpt><trkpt lat="43.8206339" lon="11.1227949"><ele>35.0</ele><time>2026-03-29T11:45:36.155Z</time></trkpt><trkpt lat="43.8205281" lon="11.1228217"><ele>35.0</ele><time>2026-03-29T11:45:37.155Z</time></trkpt><trkpt lat="43.8204204" lon="11.1228332"><ele>35.0</ele><time>2026-03-29T11:45:38.155Z</time></trkpt><trkpt lat="43.8203062" lon="11.1227879"><ele>35.0</ele><time>2026-03-29T11:45:39.155Z</time></trkpt><trkpt lat="43.8202109" lon="11.122705"><ele>35.25</ele><time>2026-03-29T11:45:40.155Z</time></trkpt><trkpt lat="43.8201174" lon="11.1226245"><ele>35.5</ele><time>2026-03-29T11:45:41.155Z</time></trkpt><trkpt lat="43.820018" lon="11.1225361"><ele>35.75</ele><time>2026-03-29T11:45:42.155Z</time></trkpt><trkpt lat="43.8199178" lon="11.1224707"><ele>36.0</ele><time>2026-03-29T11:45:43.155Z</time></trkpt><trkpt lat="43.8198151" lon="11.1224004"><ele>35.75</ele><time>2026-03-29T11:45:44.155Z</time></trkpt><trkpt lat="43.8197043" lon="11.1223413"><ele>35.5</ele><time>2026-03-29T11:45:45.155Z</time></trkpt><trkpt lat="43.8195863" lon="11.1222735"><ele>35.25</ele><time>2026-03-29T11:45:46.155Z</time></trkpt><trkpt lat="43.8194648" lon="11.1222082"><ele>35.0</ele><time>2026-03-29T11:45:47.154Z</time></trkpt><trkpt lat="43.8193544" lon="11.1221502"><ele>34.8</ele><time>2026-03-29T11:45:48.155Z</time></trkpt><trkpt lat="43.8192493" lon="11.1220975"><ele>34.6</ele><time>2026-03-29T11:45:49.155Z</time></trkpt><trkpt lat="43.8191489" lon="11.1220427"><ele>34.4</ele><time>2026-03-29T11:45:50.155Z</time></trkpt><trkpt lat="43.8190479" lon="11.1219868"><ele>34.2</ele><time>2026-03-29T11:45:51.155Z</time></trkpt><trkpt lat="43.8189404" lon="11.1219409"><ele>34.0</ele><time>2026-03-29T11:45:52.155Z</time></trkpt><trkpt lat="43.8188148" lon="11.1218943"><ele>34.0</ele><time>2026-03-29T11:45:53.155Z</time></trkpt><trkpt lat="43.8186531" lon="11.1218363"><ele>34.0</ele><time>2026-03-29T11:45:54.155Z</time></trkpt><trkpt lat="43.8184825" lon="11.1217633"><ele>34.0</ele><time>2026-03-29T11:45:55.155Z</time></trkpt><trkpt lat="43.8183094" lon="11.1216803"><ele>34.0</ele><time>2026-03-29T11:45:56.155Z</time></trkpt><trkpt lat="43.8181354" lon="11.1216036"><ele>34.0</ele><time>2026-03-29T11:45:57.155Z</time></trkpt><trkpt lat="43.8179559" lon="11.1215348"><ele>34.0</ele><time>2026-03-29T11:45:58.155Z</time></trkpt><trkpt lat="43.8177815" lon="11.1214678"><ele>34.0</ele><time>2026-03-29T11:45:59.155Z</time></trkpt><trkpt lat="43.8176196" lon="11.1214048"><ele>34.0</ele><time>2026-03-29T11:46:00.155Z</time></trkpt><trkpt lat="43.8174697" lon="11.1213485"><ele>34.0</ele><time>2026-03-29T11:46:01.154Z</time></trkpt><trkpt lat="43.8173267" lon="11.1212882"><ele>34.0</ele><time>2026-03-29T11:46:02.155Z</time></trkpt><trkpt lat="43.8171977" lon="11.1212282"><ele>34.0</ele><time>2026-03-29T11:46:03.155Z</time></trkpt><trkpt lat="43.8170728" lon="11.1211823"><ele>34.0</ele><time>2026-03-29T11:46:04.155Z</time></trkpt><trkpt lat="43.8169594" lon="11.1211365"><ele>34.0</ele><time>2026-03-29T11:46:05.155Z</time></trkpt><trkpt lat="43.8168531" lon="11.1210923"><ele>34.0</ele><time>2026-03-29T11:46:06.155Z</time></trkpt><trkpt lat="43.8167527" lon="11.1210567"><ele>34.0</ele><time>2026-03-29T11:46:07.155Z</time></trkpt><trkpt lat="43.8166519" lon="11.1210156"><ele>34.0</ele><time>2026-03-29T11:46:08.154Z</time></trkpt><trkpt lat="43.8165496" lon="11.1209582"><ele>34.0</ele><time>2026-03-29T11:46:09.155Z</time></trkpt><trkpt lat="43.8164505" lon="11.1208795"><ele>34.0</ele><time>2026-03-29T11:46:10.155Z</time></trkpt><trkpt lat="43.8163632" lon="11.1207613"><ele>34.0</ele><time>2026-03-29T11:46:11.155Z</time></trkpt><trkpt lat="43.8162905" lon="11.1206021"><ele>34.0</ele><time>2026-03-29T11:46:12.154Z</time></trkpt><trkpt lat="43.8162238" lon="11.1204352"><ele>34.0</ele><time>2026-03-29T11:46:13.155Z</time></trkpt><trkpt lat="43.8161509" lon="11.1202753"><ele>34.0</ele><time>2026-03-29T11:46:14.155Z</time></trkpt><trkpt lat="43.8160509" lon="11.1201343"><ele>34.0</ele><time>2026-03-29T11:46:15.155Z</time></trkpt><trkpt lat="43.815946" lon="11.1199953"><ele>34.0</ele><time>2026-03-29T11:46:16.155Z</time></trkpt><trkpt lat="43.8158563" lon="11.1198382"><ele>34.0</ele><time>2026-03-29T11:46:17.155Z</time></trkpt><trkpt lat="43.81577" lon="11.1196639"><ele>34.0</ele><time>2026-03-29T11:46:18.155Z</time></trkpt><trkpt lat="43.8157001" lon="11.1195046"><ele>34.0</ele><time>2026-03-29T11:46:19.155Z</time></trkpt><trkpt lat="43.8156695" lon="11.1193499"><ele>34.0</ele><time>2026-03-29T11:46:20.155Z</time></trkpt><trkpt lat="43.815671" lon="11.1192123"><ele>34.0</ele><time>2026-03-29T11:46:21.155Z</time></trkpt><trkpt lat="43.8157209" lon="11.1190831"><ele>34.0</ele><time>2026-03-29T11:46:22.155Z</time></trkpt><trkpt lat="43.8157699" lon="11.1189671"><ele>34.0</ele><time>2026-03-29T11:46:23.155Z</time></trkpt><trkpt lat="43.8157857" lon="11.1188579"><ele>34.0</ele><time>2026-03-29T11:46:24.155Z</time></trkpt><trkpt lat="43.8157486" lon="11.1187341"><ele>34.0</ele><time>2026-03-29T11:46:25.155Z</time></trkpt><trkpt lat="43.8156744" lon="11.1186195"><ele>34.0</ele><time>2026-03-29T11:46:26.155Z</time></trkpt><trkpt lat="43.8155734" lon="11.1185114"><ele>34.0</ele><time>2026-03-29T11:46:27.155Z</time></trkpt><trkpt lat="43.8154749" lon="11.1184382"><ele>34.0</ele><time>2026-03-29T11:46:28.155Z</time></trkpt><trkpt lat="43.8153789" lon="11.1183703"><ele>34.0</ele><time>2026-03-29T11:46:29.155Z</time></trkpt><trkpt lat="43.8152956" lon="11.1182992"><ele>34.0</ele><time>2026-03-29T11:46:30.155Z</time></trkpt><trkpt lat="43.8152272" lon="11.1182105"><ele>34.0</ele><time>2026-03-29T11:46:31.155Z</time></trkpt><trkpt lat="43.8152162" lon="11.1180856"><ele>34.0</ele><time>2026-03-29T11:46:32.155Z</time></trkpt><trkpt lat="43.815247" lon="11.1179532"><ele>34.0</ele><time>2026-03-29T11:46:33.155Z</time></trkpt><trkpt lat="43.8153095" lon="11.1177982"><ele>34.25</ele><time>2026-03-29T11:46:34.155Z</time></trkpt><trkpt lat="43.8153824" lon="11.1176383"><ele>34.5</ele><time>2026-03-29T11:46:35.155Z</time></trkpt><trkpt lat="43.8154461" lon="11.1174804"><ele>34.75</ele><time>2026-03-29T11:46:36.154Z</time></trkpt><trkpt lat="43.8155029" lon="11.1173292"><ele>35.0</ele><time>2026-03-29T11:46:37.155Z</time></trkpt><trkpt lat="43.8155501" lon="11.117182"><ele>34.5</ele><time>2026-03-29T11:46:38.155Z</time></trkpt><trkpt lat="43.8155875" lon="11.1170387"><ele>34.0</ele><time>2026-03-29T11:46:39.155Z</time></trkpt><trkpt lat="43.8155932" lon="11.1168897"><ele>33.5</ele><time>2026-03-29T11:46:40.155Z</time></trkpt><trkpt lat="43.8155508" lon="11.1167424"><ele>33.0</ele><time>2026-03-29T11:46:41.155Z</time></trkpt><trkpt lat="43.8155171" lon="11.1165851"><ele>33.333333333333336</ele><time>2026-03-29T11:46:42.155Z</time></trkpt><trkpt lat="43.8155355" lon="11.1164132"><ele>33.66666666666667</ele><time>2026-03-29T11:46:43.154Z</time></trkpt><trkpt lat="43.81559" lon="11.1162097"><ele>34.0</ele><time>2026-03-29T11:46:44.155Z</time></trkpt><trkpt lat="43.8156694" lon="11.115983"><ele>34.0</ele><time>2026-03-29T11:46:45.155Z</time></trkpt><trkpt lat="43.8157408" lon="11.1157782"><ele>34.0</ele><time>2026-03-29T11:46:46.155Z</time></trkpt><trkpt lat="43.8158165" lon="11.11557"><ele>34.0</ele><time>2026-03-29T11:46:47.155Z</time></trkpt><trkpt lat="43.8158891" lon="11.1153545"><ele>33.75</ele><time>2026-03-29T11:46:48.154Z</time></trkpt><trkpt lat="43.8159475" lon="11.1151491"><ele>33.5</ele><time>2026-03-29T11:46:49.155Z</time></trkpt><trkpt lat="43.8159991" lon="11.114961"><ele>33.25</ele><time>2026-03-29T11:46:50.155Z</time></trkpt><trkpt lat="43.8160393" lon="11.1148025"><ele>33.0</ele><time>2026-03-29T11:46:51.155Z</time></trkpt><trkpt lat="43.8160662" lon="11.1146574"><ele>33.0</ele><time>2026-03-29T11:46:52.155Z</time></trkpt><trkpt lat="43.8160453" lon="11.1145131"><ele>33.0</ele><time>2026-03-29T11:46:53.155Z</time></trkpt><trkpt lat="43.8159649" lon="11.1144075"><ele>33.0</ele><time>2026-03-29T11:46:54.155Z</time></trkpt><trkpt lat="43.8158543" lon="11.1143145"><ele>33.0</ele><time>2026-03-29T11:46:55.155Z</time></trkpt><trkpt lat="43.8157431" lon="11.1142164"><ele>32.75</ele><time>2026-03-29T11:46:56.155Z</time></trkpt><trkpt lat="43.8156704" lon="11.1140924"><ele>32.5</ele><time>2026-03-29T11:46:57.154Z</time></trkpt><trkpt lat="43.8156506" lon="11.1139367"><ele>32.25</ele><time>2026-03-29T11:46:58.155Z</time></trkpt><trkpt lat="43.8156772" lon="11.1137712"><ele>32.0</ele><time>2026-03-29T11:46:59.155Z</time></trkpt><trkpt lat="43.8157326" lon="11.1136093"><ele>32.0</ele><time>2026-03-29T11:47:00.154Z</time></trkpt><trkpt lat="43.8157812" lon="11.1134722"><ele>32.0</ele><time>2026-03-29T11:47:01.155Z</time></trkpt><trkpt lat="43.8158106" lon="11.1133477"><ele>32.0</ele><time>2026-03-29T11:47:02.155Z</time></trkpt><trkpt lat="43.8158082" lon="11.1132209"><ele>32.0</ele><time>2026-03-29T11:47:03.155Z</time></trkpt><trkpt lat="43.8157556" lon="11.1130973"><ele>32.0</ele><time>2026-03-29T11:47:04.155Z</time></trkpt><trkpt lat="43.8156663" lon="11.1129967"><ele>32.0</ele><time>2026-03-29T11:47:05.155Z</time></trkpt><trkpt lat="43.8155696" lon="11.1129107"><ele>32.0</ele><time>2026-03-29T11:47:06.155Z</time></trkpt><trkpt lat="43.8154966" lon="11.1128128"><ele>32.0</ele><time>2026-03-29T11:47:07.155Z</time></trkpt><trkpt lat="43.8154717" lon="11.1126799"><ele>32.0</ele><time>2026-03-29T11:47:08.155Z</time></trkpt><trkpt lat="43.8154951" lon="11.1125463"><ele>32.0</ele><time>2026-03-29T11:47:09.155Z</time></trkpt><trkpt lat="43.8155238" lon="11.1124284"><ele>32.2</ele><time>2026-03-29T11:47:10.155Z</time></trkpt><trkpt lat="43.8155459" lon="11.1123199"><ele>32.400000000000006</ele><time>2026-03-29T11:47:11.154Z</time></trkpt><trkpt lat="43.8155582" lon="11.1122027"><ele>32.599999999999994</ele><time>2026-03-29T11:47:12.155Z</time></trkpt><trkpt lat="43.8155637" lon="11.1120532"><ele>32.8</ele><time>2026-03-29T11:47:13.155Z</time></trkpt><trkpt lat="43.8155857" lon="11.1118869"><ele>33.0</ele><time>2026-03-29T11:47:14.155Z</time></trkpt><trkpt lat="43.8156162" lon="11.1117132"><ele>33.0</ele><time>2026-03-29T11:47:15.155Z</time></trkpt><trkpt lat="43.8156523" lon="11.1115233"><ele>33.0</ele><time>2026-03-29T11:47:16.155Z</time></trkpt><trkpt lat="43.8156907" lon="11.1113288"><ele>33.0</ele><time>2026-03-29T11:47:17.155Z</time></trkpt><trkpt lat="43.8157332" lon="11.1111553"><ele>33.0</ele><time>2026-03-29T11:47:18.154Z</time></trkpt><trkpt lat="43.815772" lon="11.1110011"><ele>33.0</ele><time>2026-03-29T11:47:19.155Z</time></trkpt><trkpt lat="43.815802" lon="11.1108555"><ele>33.0</ele><time>2026-03-29T11:47:20.155Z</time></trkpt><trkpt lat="43.8158098" lon="11.1107166"><ele>33.0</ele><time>2026-03-29T11:47:21.155Z</time></trkpt><trkpt lat="43.8157863" lon="11.1105835"><ele>33.0</ele><time>2026-03-29T11:47:22.154Z</time></trkpt><trkpt lat="43.8157334" lon="11.1104794"><ele>33.0</ele><time>2026-03-29T11:47:23.155Z</time></trkpt><trkpt lat="43.8156481" lon="11.1103952"><ele>33.0</ele><time>2026-03-29T11:47:24.155Z</time></trkpt><trkpt lat="43.8155685" lon="11.1103152"><ele>33.0</ele><time>2026-03-29T11:47:25.155Z</time></trkpt><trkpt lat="43.8154945" lon="11.1102264"><ele>33.0</ele><time>2026-03-29T11:47:26.155Z</time></trkpt><trkpt lat="43.8154263" lon="11.1101464"><ele>33.0</ele><time>2026-03-29T11:47:27.155Z</time></trkpt><trkpt lat="43.8153695" lon="11.1100516"><ele>33.0</ele><time>2026-03-29T11:47:28.155Z</time></trkpt><trkpt lat="43.8153345" lon="11.1099496"><ele>33.166666666666664</ele><time>2026-03-29T11:47:29.155Z</time></trkpt><trkpt lat="43.8153285" lon="11.1098457"><ele>33.333333333333336</ele><time>2026-03-29T11:47:30.155Z</time></trkpt><trkpt lat="43.8153515" lon="11.1097373"><ele>33.5</ele><time>2026-03-29T11:47:31.155Z</time></trkpt><trkpt lat="43.8153896" lon="11.1096394"><ele>33.66666666666667</ele><time>2026-03-29T11:47:32.155Z</time></trkpt><trkpt lat="43.8154317" lon="11.1095531"><ele>33.833333333333336</ele><time>2026-03-29T11:47:33.155Z</time></trkpt><trkpt lat="43.8154722" lon="11.1094697"><ele>34.0</ele><time>2026-03-29T11:47:34.155Z</time></trkpt><trkpt lat="43.8155214" lon="11.1093301"><ele>34.0</ele><time>2026-03-29T11:47:36.155Z</time></trkpt><trkpt lat="43.8154339" lon="11.109187"><ele>34.0</ele><time>2026-03-29T11:47:38.155Z</time></trkpt><trkpt lat="43.8153295" lon="11.1090855"><ele>34.0</ele><time>2026-03-29T11:47:39.155Z</time></trkpt><trkpt lat="43.8152342" lon="11.1089907"><ele>34.0</ele><time>2026-03-29T11:47:40.155Z</time></trkpt><trkpt lat="43.815147" lon="11.1089011"><ele>33.66666666666667</ele><time>2026-03-29T11:47:41.155Z</time></trkpt><trkpt lat="43.8150838" lon="11.1088089"><ele>33.333333333333336</ele><time>2026-03-29T11:47:42.155Z</time></trkpt><trkpt lat="43.8150356" lon="11.10874"><ele>33.0</ele><time>2026-03-29T11:47:43.155Z</time></trkpt><trkpt lat="43.8150068" lon="11.1086058"><ele>32.666666666666664</ele><time>2026-03-29T11:47:45.155Z</time></trkpt><trkpt lat="43.8150431" lon="11.1084509"><ele>32.33333333333333</ele><time>2026-03-29T11:47:47.155Z</time></trkpt><trkpt lat="43.8150779" lon="11.1083709"><ele>32.0</ele><time>2026-03-29T11:47:48.155Z</time></trkpt><trkpt lat="43.8151169" lon="11.1082836"><ele>31.833333333333332</ele><time>2026-03-29T11:47:49.155Z</time></trkpt><trkpt lat="43.8151498" lon="11.1081941"><ele>31.666666666666664</ele><time>2026-03-29T11:47:50.155Z</time></trkpt><trkpt lat="43.815163" lon="11.1080959"><ele>31.5</ele><time>2026-03-29T11:47:51.155Z</time></trkpt><trkpt lat="43.8151705" lon="11.1079894"><ele>31.333333333333336</ele><time>2026-03-29T11:47:52.155Z</time></trkpt><trkpt lat="43.8151865" lon="11.1078853"><ele>31.166666666666668</ele><time>2026-03-29T11:47:53.155Z</time></trkpt><trkpt lat="43.8152118" lon="11.1077787"><ele>31.0</ele><time>2026-03-29T11:47:54.155Z</time></trkpt><trkpt lat="43.8152444" lon="11.1076837"><ele>31.4</ele><time>2026-03-29T11:47:55.155Z</time></trkpt><trkpt lat="43.8152788" lon="11.1075971"><ele>31.8</ele><time>2026-03-29T11:47:56.155Z</time></trkpt><trkpt lat="43.8153323" lon="11.1074705"><ele>32.199999999999996</ele><time>2026-03-29T11:47:58.155Z</time></trkpt><trkpt lat="43.8153512" lon="11.1073856"><ele>32.6</ele><time>2026-03-29T11:48:00.155Z</time></trkpt><trkpt lat="43.8153087" lon="11.1072104"><ele>33.0</ele><time>2026-03-29T11:48:45.154Z</time></trkpt><trkpt lat="43.8152733" lon="11.1070883"><ele>32.75</ele><time>2026-03-29T11:48:46.155Z</time></trkpt><trkpt lat="43.8152361" lon="11.1069595"><ele>32.5</ele><time>2026-03-29T11:48:47.154Z</time></trkpt><trkpt lat="43.8151892" lon="11.1068046"><ele>32.25</ele><time>2026-03-29T11:48:48.155Z</time></trkpt><trkpt lat="43.8151444" lon="11.1066428"><ele>32.0</ele><time>2026-03-29T11:48:49.155Z</time></trkpt><trkpt lat="43.8150856" lon="11.1064605"><ele>32.666666666666664</ele><time>2026-03-29T11:48:50.155Z</time></trkpt><trkpt lat="43.8150163" lon="11.1062472"><ele>33.333333333333336</ele><time>2026-03-29T11:48:51.155Z</time></trkpt><trkpt lat="43.8149475" lon="11.1060334"><ele>34.0</ele><time>2026-03-29T11:48:52.155Z</time></trkpt><trkpt lat="43.814875" lon="11.1058172"><ele>34.333333333333336</ele><time>2026-03-29T11:48:53.155Z</time></trkpt><trkpt lat="43.8148044" lon="11.105596"><ele>34.666666666666664</ele><time>2026-03-29T11:48:54.155Z</time></trkpt><trkpt lat="43.8147215" lon="11.1053776"><ele>35.0</ele><time>2026-03-29T11:48:55.155Z</time></trkpt><trkpt lat="43.8146331" lon="11.1051641"><ele>35.0</ele><time>2026-03-29T11:48:56.155Z</time></trkpt><trkpt lat="43.814548" lon="11.1049527"><ele>35.0</ele><time>2026-03-29T11:48:57.155Z</time></trkpt><trkpt lat="43.8144676" lon="11.1047569"><ele>35.0</ele><time>2026-03-29T11:48:58.155Z</time></trkpt><trkpt lat="43.8143875" lon="11.1045783"><ele>34.75</ele><time>2026-03-29T11:48:59.155Z</time></trkpt><trkpt lat="43.8143142" lon="11.1044115"><ele>34.5</ele><time>2026-03-29T11:49:00.155Z</time></trkpt><trkpt lat="43.8142454" lon="11.104256"><ele>34.25</ele><time>2026-03-29T11:49:01.155Z</time></trkpt><trkpt lat="43.8141688" lon="11.1041173"><ele>34.0</ele><time>2026-03-29T11:49:02.155Z</time></trkpt><trkpt lat="43.8140718" lon="11.1039969"><ele>34.0</ele><time>2026-03-29T11:49:03.155Z</time></trkpt><trkpt lat="43.8139553" lon="11.1038723"><ele>34.0</ele><time>2026-03-29T11:49:04.155Z</time></trkpt><trkpt lat="43.8138584" lon="11.1037117"><ele>34.0</ele><time>2026-03-29T11:49:05.155Z</time></trkpt><trkpt lat="43.813795" lon="11.1035023"><ele>34.0</ele><time>2026-03-29T11:49:06.155Z</time></trkpt><trkpt lat="43.8137349" lon="11.103291"><ele>34.0</ele><time>2026-03-29T11:49:07.155Z</time></trkpt><trkpt lat="43.8136651" lon="11.1031037"><ele>34.0</ele><time>2026-03-29T11:49:08.154Z</time></trkpt><trkpt lat="43.8135916" lon="11.102937"><ele>34.0</ele><time>2026-03-29T11:49:09.155Z</time></trkpt><trkpt lat="43.8135153" lon="11.1027826"><ele>34.0</ele><time>2026-03-29T11:49:10.155Z</time></trkpt><trkpt lat="43.8134582" lon="11.1026366"><ele>34.0</ele><time>2026-03-29T11:49:11.154Z</time></trkpt><trkpt lat="43.8134198" lon="11.1024979"><ele>34.0</ele><time>2026-03-29T11:49:12.155Z</time></trkpt><trkpt lat="43.8133924" lon="11.1023898"><ele>34.0</ele><time>2026-03-29T11:49:13.155Z</time></trkpt><trkpt lat="43.813366" lon="11.1022643"><ele>34.0</ele><time>2026-03-29T11:49:15.155Z</time></trkpt><trkpt lat="43.813279" lon="11.1022078"><ele>34.0</ele><time>2026-03-29T11:49:18.155Z</time></trkpt><trkpt lat="43.8131954" lon="11.1022662"><ele>34.0</ele><time>2026-03-29T11:49:20.155Z</time></trkpt><trkpt lat="43.8131426" lon="11.1023284"><ele>34.0</ele><time>2026-03-29T11:49:21.155Z</time></trkpt><trkpt lat="43.8130885" lon="11.1024188"><ele>34.0</ele><time>2026-03-29T11:49:22.155Z</time></trkpt><trkpt lat="43.8130362" lon="11.1025193"><ele>34.0</ele><time>2026-03-29T11:49:23.155Z</time></trkpt><trkpt lat="43.8129753" lon="11.1026322"><ele>34.0</ele><time>2026-03-29T11:49:24.155Z</time></trkpt><trkpt lat="43.8129073" lon="11.1027425"><ele>34.0</ele><time>2026-03-29T11:49:25.155Z</time></trkpt><trkpt lat="43.81284" lon="11.1028614"><ele>34.0</ele><time>2026-03-29T11:49:26.155Z</time></trkpt><trkpt lat="43.8127741" lon="11.1029825"><ele>34.0</ele><time>2026-03-29T11:49:27.155Z</time></trkpt><trkpt lat="43.8127051" lon="11.103104"><ele>34.0</ele><time>2026-03-29T11:49:28.155Z</time></trkpt><trkpt lat="43.8126315" lon="11.1032299"><ele>33.6</ele><time>2026-03-29T11:49:29.155Z</time></trkpt><trkpt lat="43.8125593" lon="11.1033558"><ele>33.2</ele><time>2026-03-29T11:49:30.155Z</time></trkpt><trkpt lat="43.8124865" lon="11.1034806"><ele>32.800000000000004</ele><time>2026-03-29T11:49:31.155Z</time></trkpt><trkpt lat="43.8124173" lon="11.1035974"><ele>32.4</ele><time>2026-03-29T11:49:32.155Z</time></trkpt><trkpt lat="43.812357" lon="11.10371"><ele>32.0</ele><time>2026-03-29T11:49:33.154Z</time></trkpt><trkpt lat="43.8123002" lon="11.1038238"><ele>32.0</ele><time>2026-03-29T11:49:34.155Z</time></trkpt><trkpt lat="43.8122501" lon="11.1039448"><ele>32.0</ele><time>2026-03-29T11:49:35.155Z</time></trkpt><trkpt lat="43.8122066" lon="11.1040831"><ele>32.0</ele><time>2026-03-29T11:49:36.155Z</time></trkpt><trkpt lat="43.8121692" lon="11.1042225"><ele>32.0</ele><time>2026-03-29T11:49:37.155Z</time></trkpt><trkpt lat="43.8121263" lon="11.1043516"><ele>32.0</ele><time>2026-03-29T11:49:38.155Z</time></trkpt><trkpt lat="43.8120804" lon="11.1044791"><ele>32.0</ele><time>2026-03-29T11:49:39.155Z</time></trkpt><trkpt lat="43.8120267" lon="11.1046105"><ele>32.0</ele><time>2026-03-29T11:49:40.155Z</time></trkpt><trkpt lat="43.8119648" lon="11.1047497"><ele>32.0</ele><time>2026-03-29T11:49:41.155Z</time></trkpt><trkpt lat="43.8119015" lon="11.1048983"><ele>32.0</ele><time>2026-03-29T11:49:42.155Z</time></trkpt><trkpt lat="43.8118376" lon="11.105056"><ele>32.25</ele><time>2026-03-29T11:49:43.155Z</time></trkpt><trkpt lat="43.8117731" lon="11.1052077"><ele>32.5</ele><time>2026-03-29T11:49:44.155Z</time></trkpt><trkpt lat="43.8117111" lon="11.1053449"><ele>32.75</ele><time>2026-03-29T11:49:45.154Z</time></trkpt><trkpt lat="43.8116509" lon="11.1054706"><ele>33.0</ele><time>2026-03-29T11:49:46.155Z</time></trkpt><trkpt lat="43.8116008" lon="11.1055945"><ele>33.0</ele><time>2026-03-29T11:49:47.155Z</time></trkpt><trkpt lat="43.8115628" lon="11.1057174"><ele>33.0</ele><time>2026-03-29T11:49:48.155Z</time></trkpt><trkpt lat="43.811538" lon="11.1058351"><ele>33.0</ele><time>2026-03-29T11:49:49.155Z</time></trkpt><trkpt lat="43.8115218" lon="11.1059443"><ele>33.0</ele><time>2026-03-29T11:49:50.155Z</time></trkpt><trkpt lat="43.8115191" lon="11.1060449"><ele>33.0</ele><time>2026-03-29T11:49:51.155Z</time></trkpt><trkpt lat="43.8115053" lon="11.1061988"><ele>33.4</ele><time>2026-03-29T11:49:53.155Z</time></trkpt><trkpt lat="43.8114673" lon="11.106305"><ele>33.8</ele><time>2026-03-29T11:49:55.155Z</time></trkpt><trkpt lat="43.8113481" lon="11.1063528"><ele>34.2</ele><time>2026-03-29T11:49:57.155Z</time></trkpt><trkpt lat="43.8112645" lon="11.1063724"><ele>34.6</ele><time>2026-03-29T11:49:58.155Z</time></trkpt><trkpt lat="43.811167" lon="11.1063837"><ele>35.0</ele><time>2026-03-29T11:49:59.155Z</time></trkpt><trkpt lat="43.8110655" lon="11.1063898"><ele>34.5</ele><time>2026-03-29T11:50:00.155Z</time></trkpt><trkpt lat="43.8109578" lon="11.1064022"><ele>34.0</ele><time>2026-03-29T11:50:01.155Z</time></trkpt><trkpt lat="43.8108361" lon="11.1064138"><ele>33.5</ele><time>2026-03-29T11:50:02.155Z</time></trkpt><trkpt lat="43.8107087" lon="11.1064286"><ele>33.0</ele><time>2026-03-29T11:50:03.155Z</time></trkpt><trkpt lat="43.8105755" lon="11.1064481"><ele>33.0</ele><time>2026-03-29T11:50:04.155Z</time></trkpt><trkpt lat="43.8104368" lon="11.1064674"><ele>33.0</ele><time>2026-03-29T11:50:05.155Z</time></trkpt><trkpt lat="43.8102973" lon="11.1064915"><ele>33.0</ele><time>2026-03-29T11:50:06.155Z</time></trkpt><trkpt lat="43.8101505" lon="11.1065094"><ele>33.0</ele><time>2026-03-29T11:50:07.155Z</time></trkpt><trkpt lat="43.809985" lon="11.1065287"><ele>32.666666666666664</ele><time>2026-03-29T11:50:08.155Z</time></trkpt><trkpt lat="43.8098023" lon="11.106541"><ele>32.33333333333333</ele><time>2026-03-29T11:50:09.155Z</time></trkpt><trkpt lat="43.809607" lon="11.1065581"><ele>32.0</ele><time>2026-03-29T11:50:10.155Z</time></trkpt><trkpt lat="43.8094172" lon="11.1065692"><ele>31.666666666666664</ele><time>2026-03-29T11:50:11.155Z</time></trkpt><trkpt lat="43.8092451" lon="11.1065717"><ele>31.333333333333336</ele><time>2026-03-29T11:50:12.155Z</time></trkpt><trkpt lat="43.8090937" lon="11.1065783"><ele>31.0</ele><time>2026-03-29T11:50:13.155Z</time></trkpt><trkpt lat="43.808954" lon="11.1065797"><ele>30.75</ele><time>2026-03-29T11:50:14.155Z</time></trkpt><trkpt lat="43.8088199" lon="11.1065751"><ele>30.5</ele><time>2026-03-29T11:50:15.155Z</time></trkpt><trkpt lat="43.808692" lon="11.1065669"><ele>30.25</ele><time>2026-03-29T11:50:16.154Z</time></trkpt><trkpt lat="43.80857" lon="11.1065656"><ele>30.0</ele><time>2026-03-29T11:50:17.155Z</time></trkpt><trkpt lat="43.8084405" lon="11.1065661"><ele>30.75</ele><time>2026-03-29T11:50:18.155Z</time></trkpt><trkpt lat="43.8083056" lon="11.1065819"><ele>31.5</ele><time>2026-03-29T11:50:19.155Z</time></trkpt><trkpt lat="43.8081704" lon="11.1066055"><ele>32.25</ele><time>2026-03-29T11:50:20.155Z</time></trkpt><trkpt lat="43.8080387" lon="11.1066325"><ele>33.0</ele><time>2026-03-29T11:50:21.155Z</time></trkpt><trkpt lat="43.8079118" lon="11.1066627"><ele>33.0</ele><time>2026-03-29T11:50:22.154Z</time></trkpt><trkpt lat="43.8077879" lon="11.10669"><ele>33.0</ele><time>2026-03-29T11:50:23.155Z</time></trkpt><trkpt lat="43.8076693" lon="11.1067182"><ele>33.0</ele><time>2026-03-29T11:50:24.155Z</time></trkpt><trkpt lat="43.8075572" lon="11.1067453"><ele>33.0</ele><time>2026-03-29T11:50:25.155Z</time></trkpt><trkpt lat="43.8074509" lon="11.1067697"><ele>33.0</ele><time>2026-03-29T11:50:26.155Z</time></trkpt><trkpt lat="43.8073539" lon="11.1067825"><ele>33.0</ele><time>2026-03-29T11:50:27.155Z</time></trkpt><trkpt lat="43.8072726" lon="11.1067912"><ele>33.0</ele><time>2026-03-29T11:50:28.154Z</time></trkpt><trkpt lat="43.8072087" lon="11.1067759"><ele>33.0</ele><time>2026-03-29T11:50:29.155Z</time></trkpt><trkpt lat="43.8071356" lon="11.106749"><ele>33.0</ele><time>2026-03-29T11:50:31.155Z</time></trkpt><trkpt lat="43.8070984" lon="11.1066141"><ele>33.0</ele><time>2026-03-29T11:50:34.155Z</time></trkpt><trkpt lat="43.8071197" lon="11.1064853"><ele>33.0</ele><time>2026-03-29T11:50:35.155Z</time></trkpt><trkpt lat="43.8071357" lon="11.1063305"><ele>33.0</ele><time>2026-03-29T11:50:36.155Z</time></trkpt><trkpt lat="43.8071603" lon="11.1061278"><ele>33.0</ele><time>2026-03-29T11:50:37.155Z</time></trkpt><trkpt lat="43.8071855" lon="11.1059065"><ele>33.0</ele><time>2026-03-29T11:50:38.155Z</time></trkpt><trkpt lat="43.8072171" lon="11.10567"><ele>33.333333333333336</ele><time>2026-03-29T11:50:39.154Z</time></trkpt><trkpt lat="43.8072397" lon="11.1054356"><ele>33.66666666666667</ele><time>2026-03-29T11:50:40.155Z</time></trkpt><trkpt lat="43.8072654" lon="11.1052062"><ele>34.0</ele><time>2026-03-29T11:50:41.155Z</time></trkpt><trkpt lat="43.8072965" lon="11.1049568"><ele>34.333333333333336</ele><time>2026-03-29T11:50:42.155Z</time></trkpt><trkpt lat="43.8073303" lon="11.1047006"><ele>34.666666666666664</ele><time>2026-03-29T11:50:43.155Z</time></trkpt><trkpt lat="43.8073683" lon="11.104434"><ele>35.0</ele><time>2026-03-29T11:50:44.155Z</time></trkpt><trkpt lat="43.8074008" lon="11.1041736"><ele>34.666666666666664</ele><time>2026-03-29T11:50:45.155Z</time></trkpt><trkpt lat="43.8074315" lon="11.1039179"><ele>34.333333333333336</ele><time>2026-03-29T11:50:46.155Z</time></trkpt><trkpt lat="43.8074653" lon="11.1036631"><ele>34.0</ele><time>2026-03-29T11:50:47.155Z</time></trkpt><trkpt lat="43.8075002" lon="11.1034091"><ele>34.333333333333336</ele><time>2026-03-29T11:50:48.155Z</time></trkpt><trkpt lat="43.8075326" lon="11.1031628"><ele>34.666666666666664</ele><time>2026-03-29T11:50:49.155Z</time></trkpt><trkpt lat="43.8075621" lon="11.1029176"><ele>35.0</ele><time>2026-03-29T11:50:50.155Z</time></trkpt><trkpt lat="43.8075893" lon="11.1026816"><ele>35.0</ele><time>2026-03-29T11:50:51.155Z</time></trkpt><trkpt lat="43.8076154" lon="11.1024516"><ele>35.0</ele><time>2026-03-29T11:50:52.155Z</time></trkpt><trkpt lat="43.8076407" lon="11.1022336"><ele>35.0</ele><time>2026-03-29T11:50:53.155Z</time></trkpt><trkpt lat="43.8076671" lon="11.1020143"><ele>34.666666666666664</ele><time>2026-03-29T11:50:54.155Z</time></trkpt><trkpt lat="43.8076898" lon="11.1017933"><ele>34.333333333333336</ele><time>2026-03-29T11:50:55.155Z</time></trkpt><trkpt lat="43.807721" lon="11.1015701"><ele>34.0</ele><time>2026-03-29T11:50:56.155Z</time></trkpt><trkpt lat="43.8077494" lon="11.1013417"><ele>34.0</ele><time>2026-03-29T11:50:57.155Z</time></trkpt><trkpt lat="43.8077784" lon="11.1011177"><ele>34.0</ele><time>2026-03-29T11:50:58.155Z</time></trkpt><trkpt lat="43.8078029" lon="11.1009227"><ele>34.0</ele><time>2026-03-29T11:50:59.155Z</time></trkpt><trkpt lat="43.8078263" lon="11.100743"><ele>34.0</ele><time>2026-03-29T11:51:00.155Z</time></trkpt><trkpt lat="43.8078518" lon="11.1005616"><ele>34.0</ele><time>2026-03-29T11:51:01.155Z</time></trkpt><trkpt lat="43.8078773" lon="11.1003621"><ele>34.0</ele><time>2026-03-29T11:51:02.155Z</time></trkpt><trkpt lat="43.8078919" lon="11.1001338"><ele>34.0</ele><time>2026-03-29T11:51:03.154Z</time></trkpt><trkpt lat="43.807912" lon="11.0998779"><ele>34.0</ele><time>2026-03-29T11:51:04.155Z</time></trkpt><trkpt lat="43.8079445" lon="11.0996122"><ele>34.0</ele><time>2026-03-29T11:51:05.155Z</time></trkpt><trkpt lat="43.8079925" lon="11.0993384"><ele>34.0</ele><time>2026-03-29T11:51:06.155Z</time></trkpt><trkpt lat="43.8080383" lon="11.0990526"><ele>33.66666666666667</ele><time>2026-03-29T11:51:07.155Z</time></trkpt><trkpt lat="43.8080748" lon="11.0987679"><ele>33.333333333333336</ele><time>2026-03-29T11:51:08.155Z</time></trkpt><trkpt lat="43.8081049" lon="11.0984871"><ele>33.0</ele><time>2026-03-29T11:51:09.155Z</time></trkpt><trkpt lat="43.8081371" lon="11.0982107"><ele>33.0</ele><time>2026-03-29T11:51:10.155Z</time></trkpt><trkpt lat="43.8081711" lon="11.0979364"><ele>33.0</ele><time>2026-03-29T11:51:11.154Z</time></trkpt><trkpt lat="43.8082032" lon="11.0976689"><ele>33.0</ele><time>2026-03-29T11:51:12.155Z</time></trkpt><trkpt lat="43.8082349" lon="11.0974164"><ele>32.666666666666664</ele><time>2026-03-29T11:51:13.155Z</time></trkpt><trkpt lat="43.8082628" lon="11.0971762"><ele>32.33333333333333</ele><time>2026-03-29T11:51:14.155Z</time></trkpt><trkpt lat="43.808291" lon="11.0969636"><ele>32.0</ele><time>2026-03-29T11:51:15.155Z</time></trkpt><trkpt lat="43.8083148" lon="11.0967634"><ele>31.999999999999996</ele><time>2026-03-29T11:51:16.155Z</time></trkpt><trkpt lat="43.8083361" lon="11.096606"><ele>32.0</ele><time>2026-03-29T11:51:17.155Z</time></trkpt><trkpt lat="43.8083488" lon="11.0964872"><ele>32.0</ele><time>2026-03-29T11:51:18.155Z</time></trkpt><trkpt lat="43.8083512" lon="11.0963943"><ele>32.0</ele><time>2026-03-29T11:51:19.155Z</time></trkpt><trkpt lat="43.8083318" lon="11.0963018"><ele>31.999999999999996</ele><time>2026-03-29T11:51:20.155Z</time></trkpt><trkpt lat="43.8082713" lon="11.0962222"><ele>32.0</ele><time>2026-03-29T11:51:21.155Z</time></trkpt><trkpt lat="43.8081865" lon="11.0961348"><ele>32.25</ele><time>2026-03-29T11:51:22.155Z</time></trkpt><trkpt lat="43.8080752" lon="11.096041"><ele>32.5</ele><time>2026-03-29T11:51:23.155Z</time></trkpt><trkpt lat="43.807953" lon="11.0959373"><ele>32.75</ele><time>2026-03-29T11:51:24.155Z</time></trkpt><trkpt lat="43.8078254" lon="11.0958373"><ele>33.0</ele><time>2026-03-29T11:51:25.155Z</time></trkpt><trkpt lat="43.807691" lon="11.0957228"><ele>33.0</ele><time>2026-03-29T11:51:26.155Z</time></trkpt><trkpt lat="43.8075516" lon="11.0956049"><ele>33.0</ele><time>2026-03-29T11:51:27.155Z</time></trkpt><trkpt lat="43.8074099" lon="11.0954754"><ele>33.0</ele><time>2026-03-29T11:51:28.155Z</time></trkpt><trkpt lat="43.8072639" lon="11.0953375"><ele>33.0</ele><time>2026-03-29T11:51:29.154Z</time></trkpt><trkpt lat="43.8071142" lon="11.0951959"><ele>33.0</ele><time>2026-03-29T11:51:30.155Z</time></trkpt><trkpt lat="43.8069621" lon="11.0950548"><ele>33.0</ele><time>2026-03-29T11:51:31.155Z</time></trkpt><trkpt lat="43.8068158" lon="11.0949207"><ele>32.333333333333336</ele><time>2026-03-29T11:51:32.155Z</time></trkpt><trkpt lat="43.8066663" lon="11.0947867"><ele>31.666666666666668</ele><time>2026-03-29T11:51:33.155Z</time></trkpt><trkpt lat="43.8065125" lon="11.0946495"><ele>31.0</ele><time>2026-03-29T11:51:34.155Z</time></trkpt><trkpt lat="43.8063553" lon="11.09451"><ele>31.0</ele><time>2026-03-29T11:51:35.155Z</time></trkpt><trkpt lat="43.8061881" lon="11.0943613"><ele>31.0</ele><time>2026-03-29T11:51:36.155Z</time></trkpt><trkpt lat="43.8060202" lon="11.094211"><ele>31.0</ele><time>2026-03-29T11:51:37.155Z</time></trkpt><trkpt lat="43.8058482" lon="11.094054"><ele>30.666666666666668</ele><time>2026-03-29T11:51:38.155Z</time></trkpt><trkpt lat="43.8056654" lon="11.0938896"><ele>30.333333333333336</ele><time>2026-03-29T11:51:39.155Z</time></trkpt><trkpt lat="43.8054778" lon="11.0937163"><ele>30.0</ele><time>2026-03-29T11:51:40.154Z</time></trkpt><trkpt lat="43.805286" lon="11.0935434"><ele>31.0</ele><time>2026-03-29T11:51:41.155Z</time></trkpt><trkpt lat="43.8050863" lon="11.0933661"><ele>32.0</ele><time>2026-03-29T11:51:42.155Z</time></trkpt><trkpt lat="43.8048877" lon="11.0931825"><ele>32.0</ele><time>2026-03-29T11:51:43.155Z</time></trkpt><trkpt lat="43.8046856" lon="11.0929974"><ele>32.0</ele><time>2026-03-29T11:51:44.155Z</time></trkpt><trkpt lat="43.8044736" lon="11.0928067"><ele>32.0</ele><time>2026-03-29T11:51:45.155Z</time></trkpt><trkpt lat="43.8042475" lon="11.0926146"><ele>32.0</ele><time>2026-03-29T11:51:46.155Z</time></trkpt><trkpt lat="43.8040128" lon="11.0924089"><ele>32.0</ele><time>2026-03-29T11:51:47.155Z</time></trkpt><trkpt lat="43.8037758" lon="11.0921973"><ele>32.0</ele><time>2026-03-29T11:51:48.155Z</time></trkpt><trkpt lat="43.8035492" lon="11.0920089"><ele>32.5</ele><time>2026-03-29T11:51:49.155Z</time></trkpt><trkpt lat="43.8033377" lon="11.0918254"><ele>33.0</ele><time>2026-03-29T11:51:50.155Z</time></trkpt><trkpt lat="43.8031347" lon="11.0916425"><ele>32.0</ele><time>2026-03-29T11:51:51.155Z</time></trkpt><trkpt lat="43.8029382" lon="11.0914637"><ele>31.0</ele><time>2026-03-29T11:51:52.155Z</time></trkpt><trkpt lat="43.8027492" lon="11.0912872"><ele>31.666666666666668</ele><time>2026-03-29T11:51:53.155Z</time></trkpt><trkpt lat="43.8025668" lon="11.0911267"><ele>32.333333333333336</ele><time>2026-03-29T11:51:54.155Z</time></trkpt><trkpt lat="43.8023952" lon="11.090981"><ele>33.0</ele><time>2026-03-29T11:51:55.155Z</time></trkpt><trkpt lat="43.802228" lon="11.0908588"><ele>32.666666666666664</ele><time>2026-03-29T11:51:56.155Z</time></trkpt><trkpt lat="43.8020683" lon="11.0907231"><ele>32.33333333333333</ele><time>2026-03-29T11:51:57.155Z</time></trkpt><trkpt lat="43.8019125" lon="11.0905578"><ele>32.0</ele><time>2026-03-29T11:51:58.155Z</time></trkpt><trkpt lat="43.8017612" lon="11.0903701"><ele>32.0</ele><time>2026-03-29T11:51:59.155Z</time></trkpt><trkpt lat="43.8015888" lon="11.0901875"><ele>32.0</ele><time>2026-03-29T11:52:00.155Z</time></trkpt><trkpt lat="43.8013927" lon="11.0900279"><ele>32.0</ele><time>2026-03-29T11:52:01.155Z</time></trkpt><trkpt lat="43.8011907" lon="11.0898741"><ele>33.0</ele><time>2026-03-29T11:52:02.155Z</time></trkpt><trkpt lat="43.8009877" lon="11.0896979"><ele>34.0</ele><time>2026-03-29T11:52:03.155Z</time></trkpt><trkpt lat="43.8007844" lon="11.0895135"><ele>34.0</ele><time>2026-03-29T11:52:04.155Z</time></trkpt><trkpt lat="43.8005789" lon="11.0893279"><ele>34.0</ele><time>2026-03-29T11:52:05.155Z</time></trkpt><trkpt lat="43.8003706" lon="11.0891493"><ele>34.0</ele><time>2026-03-29T11:52:06.155Z</time></trkpt><trkpt lat="43.8001622" lon="11.0889742"><ele>34.0</ele><time>2026-03-29T11:52:07.155Z</time></trkpt><trkpt lat="43.7999681" lon="11.0888041"><ele>34.0</ele><time>2026-03-29T11:52:08.155Z</time></trkpt><trkpt lat="43.799782" lon="11.0886426"><ele>34.0</ele><time>2026-03-29T11:52:09.155Z</time></trkpt><trkpt lat="43.7996031" lon="11.0884913"><ele>34.0</ele><time>2026-03-29T11:52:10.155Z</time></trkpt><trkpt lat="43.7994241" lon="11.0883392"><ele>33.66666666666667</ele><time>2026-03-29T11:52:11.155Z</time></trkpt><trkpt lat="43.7992473" lon="11.0881894"><ele>33.333333333333336</ele><time>2026-03-29T11:52:12.155Z</time></trkpt><trkpt lat="43.7990698" lon="11.0880345"><ele>33.0</ele><time>2026-03-29T11:52:13.155Z</time></trkpt><trkpt lat="43.7988938" lon="11.0878817"><ele>33.0</ele><time>2026-03-29T11:52:14.155Z</time></trkpt><trkpt lat="43.7987188" lon="11.0877326"><ele>33.0</ele><time>2026-03-29T11:52:15.155Z</time></trkpt><trkpt lat="43.7985533" lon="11.0875919"><ele>33.0</ele><time>2026-03-29T11:52:16.155Z</time></trkpt><trkpt lat="43.7983913" lon="11.0874505"><ele>33.0</ele><time>2026-03-29T11:52:17.155Z</time></trkpt><trkpt lat="43.7982351" lon="11.0873174"><ele>33.0</ele><time>2026-03-29T11:52:18.155Z</time></trkpt><trkpt lat="43.7980894" lon="11.08719"><ele>33.0</ele><time>2026-03-29T11:52:19.155Z</time></trkpt><trkpt lat="43.7979501" lon="11.0870672"><ele>33.0</ele><time>2026-03-29T11:52:20.155Z</time></trkpt><trkpt lat="43.79782" lon="11.0869338"><ele>33.0</ele><time>2026-03-29T11:52:21.154Z</time></trkpt><trkpt lat="43.7977087" lon="11.0867688"><ele>33.0</ele><time>2026-03-29T11:52:22.155Z</time></trkpt><trkpt lat="43.797617" lon="11.086584"><ele>32.666666666666664</ele><time>2026-03-29T11:52:23.155Z</time></trkpt><trkpt lat="43.7975445" lon="11.0863717"><ele>32.33333333333333</ele><time>2026-03-29T11:52:24.155Z</time></trkpt><trkpt lat="43.7974705" lon="11.0861615"><ele>32.0</ele><time>2026-03-29T11:52:25.155Z</time></trkpt><trkpt lat="43.7973986" lon="11.0859438"><ele>32.0</ele><time>2026-03-29T11:52:26.155Z</time></trkpt><trkpt lat="43.7973214" lon="11.085725"><ele>32.0</ele><time>2026-03-29T11:52:27.155Z</time></trkpt><trkpt lat="43.7972295" lon="11.0855111"><ele>32.0</ele><time>2026-03-29T11:52:28.155Z</time></trkpt><trkpt lat="43.7971043" lon="11.0853019"><ele>32.0</ele><time>2026-03-29T11:52:29.155Z</time></trkpt><trkpt lat="43.7969539" lon="11.0850915"><ele>32.0</ele><time>2026-03-29T11:52:30.155Z</time></trkpt><trkpt lat="43.7968146" lon="11.0848749"><ele>32.0</ele><time>2026-03-29T11:52:31.155Z</time></trkpt><trkpt lat="43.7966911" lon="11.0846754"><ele>31.666666666666664</ele><time>2026-03-29T11:52:32.155Z</time></trkpt><trkpt lat="43.7965733" lon="11.0844875"><ele>31.333333333333336</ele><time>2026-03-29T11:52:33.155Z</time></trkpt><trkpt lat="43.7964443" lon="11.0843153"><ele>31.0</ele><time>2026-03-29T11:52:34.155Z</time></trkpt><trkpt lat="43.7962914" lon="11.084165"><ele>31.0</ele><time>2026-03-29T11:52:35.155Z</time></trkpt><trkpt lat="43.7961199" lon="11.0839969"><ele>31.0</ele><time>2026-03-29T11:52:36.155Z</time></trkpt><trkpt lat="43.7959484" lon="11.0838075"><ele>31.0</ele><time>2026-03-29T11:52:37.155Z</time></trkpt><trkpt lat="43.7957621" lon="11.0835994"><ele>31.0</ele><time>2026-03-29T11:52:38.155Z</time></trkpt><trkpt lat="43.7955733" lon="11.0833912"><ele>31.0</ele><time>2026-03-29T11:52:39.155Z</time></trkpt><trkpt lat="43.7953851" lon="11.0831869"><ele>31.0</ele><time>2026-03-29T11:52:40.154Z</time></trkpt><trkpt lat="43.7952095" lon="11.0829751"><ele>31.0</ele><time>2026-03-29T11:52:41.155Z</time></trkpt><trkpt lat="43.7950526" lon="11.0827791"><ele>31.0</ele><time>2026-03-29T11:52:42.155Z</time></trkpt><trkpt lat="43.7949063" lon="11.0825729"><ele>31.0</ele><time>2026-03-29T11:52:43.155Z</time></trkpt><trkpt lat="43.7947813" lon="11.0823413"><ele>31.0</ele><time>2026-03-29T11:52:44.155Z</time></trkpt><trkpt lat="43.7946902" lon="11.082087"><ele>31.0</ele><time>2026-03-29T11:52:45.155Z</time></trkpt><trkpt lat="43.7946325" lon="11.0818325"><ele>31.0</ele><time>2026-03-29T11:52:46.155Z</time></trkpt><trkpt lat="43.7945884" lon="11.0815967"><ele>31.0</ele><time>2026-03-29T11:52:47.155Z</time></trkpt><trkpt lat="43.7945699" lon="11.0813661"><ele>31.0</ele><time>2026-03-29T11:52:48.155Z</time></trkpt><trkpt lat="43.7945746" lon="11.0811639"><ele>31.0</ele><time>2026-03-29T11:52:49.155Z</time></trkpt><trkpt lat="43.7945982" lon="11.0809658"><ele>31.0</ele><time>2026-03-29T11:52:50.155Z</time></trkpt><trkpt lat="43.7946396" lon="11.0807951"><ele>31.0</ele><time>2026-03-29T11:52:51.155Z</time></trkpt><trkpt lat="43.7946835" lon="11.0806575"><ele>31.0</ele><time>2026-03-29T11:52:52.155Z</time></trkpt><trkpt lat="43.7947215" lon="11.0805333"><ele>31.200000000000003</ele><time>2026-03-29T11:52:53.155Z</time></trkpt><trkpt lat="43.794742" lon="11.0804406"><ele>31.400000000000002</ele><time>2026-03-29T11:52:54.155Z</time></trkpt><trkpt lat="43.7947532" lon="11.0802821"><ele>31.6</ele><time>2026-03-29T11:52:56.155Z</time></trkpt><trkpt lat="43.794647" lon="11.0802192"><ele>31.8</ele><time>2026-03-29T11:52:58.155Z</time></trkpt><trkpt lat="43.794553" lon="11.0802641"><ele>32.0</ele><time>2026-03-29T11:52:59.155Z</time></trkpt><trkpt lat="43.7944497" lon="11.0803467"><ele>32.0</ele><time>2026-03-29T11:53:00.155Z</time></trkpt><trkpt lat="43.7943359" lon="11.080439"><ele>32.0</ele><time>2026-03-29T11:53:01.155Z</time></trkpt><trkpt lat="43.7941946" lon="11.0805494"><ele>32.0</ele><time>2026-03-29T11:53:02.155Z</time></trkpt><trkpt lat="43.7940308" lon="11.0806504"><ele>32.0</ele><time>2026-03-29T11:53:03.155Z</time></trkpt><trkpt lat="43.7938566" lon="11.0807481"><ele>32.0</ele><time>2026-03-29T11:53:04.155Z</time></trkpt><trkpt lat="43.7936815" lon="11.080831"><ele>32.0</ele><time>2026-03-29T11:53:05.155Z</time></trkpt><trkpt lat="43.7935005" lon="11.0808975"><ele>32.33333333333333</ele><time>2026-03-29T11:53:06.155Z</time></trkpt><trkpt lat="43.7933053" lon="11.0809787"><ele>32.666666666666664</ele><time>2026-03-29T11:53:07.155Z</time></trkpt><trkpt lat="43.793107" lon="11.081058"><ele>33.0</ele><time>2026-03-29T11:53:08.155Z</time></trkpt><trkpt lat="43.7929129" lon="11.0811386"><ele>33.0</ele><time>2026-03-29T11:53:09.155Z</time></trkpt><trkpt lat="43.7927304" lon="11.0812164"><ele>33.0</ele><time>2026-03-29T11:53:10.155Z</time></trkpt><trkpt lat="43.7925587" lon="11.0812937"><ele>33.0</ele><time>2026-03-29T11:53:11.155Z</time></trkpt><trkpt lat="43.7924043" lon="11.0813626"><ele>34.0</ele><time>2026-03-29T11:53:12.155Z</time></trkpt><trkpt lat="43.7922572" lon="11.0814155"><ele>35.0</ele><time>2026-03-29T11:53:13.155Z</time></trkpt><trkpt lat="43.7921116" lon="11.0814604"><ele>36.0</ele><time>2026-03-29T11:53:14.155Z</time></trkpt><trkpt lat="43.7919642" lon="11.0814974"><ele>36.75</ele><time>2026-03-29T11:53:15.155Z</time></trkpt><trkpt lat="43.7918058" lon="11.081513"><ele>37.5</ele><time>2026-03-29T11:53:16.155Z</time></trkpt><trkpt lat="43.7916516" lon="11.0815206"><ele>38.25</ele><time>2026-03-29T11:53:17.155Z</time></trkpt><trkpt lat="43.7915271" lon="11.0815271"><ele>39.0</ele><time>2026-03-29T11:53:18.155Z</time></trkpt><trkpt lat="43.7914453" lon="11.0815237"><ele>39.0</ele><time>2026-03-29T11:53:19.155Z</time></trkpt><trkpt lat="43.7913641" lon="11.0814619"><ele>39.0</ele><time>2026-03-29T11:53:21.155Z</time></trkpt><trkpt lat="43.7913592" lon="11.0815602"><ele>39.0</ele><time>2026-03-29T11:53:26.155Z</time></trkpt><trkpt lat="43.7914238" lon="11.0815623"><ele>39.0</ele><time>2026-03-29T11:53:27.155Z</time></trkpt><trkpt lat="43.791518" lon="11.081556"><ele>39.0</ele><time>2026-03-29T11:53:28.154Z</time></trkpt><trkpt lat="43.7916236" lon="11.0815536"><ele>39.0</ele><time>2026-03-29T11:53:29.155Z</time></trkpt><trkpt lat="43.791727" lon="11.0815506"><ele>39.0</ele><time>2026-03-29T11:53:30.155Z</time></trkpt><trkpt lat="43.7918111" lon="11.0815448"><ele>39.0</ele><time>2026-03-29T11:53:31.155Z</time></trkpt><trkpt lat="43.7918928" lon="11.0815379"><ele>39.0</ele><time>2026-03-29T11:53:32.155Z</time></trkpt><trkpt lat="43.7919626" lon="11.0815173"><ele>39.0</ele><time>2026-03-29T11:53:33.155Z</time></trkpt><trkpt lat="43.7920315" lon="11.0813875"><ele>39.0</ele><time>2026-03-29T11:53:35.155Z</time></trkpt><trkpt lat="43.7920076" lon="11.0812974"><ele>39.0</ele><time>2026-03-29T11:53:36.155Z</time></trkpt><trkpt lat="43.791947" lon="11.0811955"><ele>39.0</ele><time>2026-03-29T11:53:37.155Z</time></trkpt><trkpt lat="43.7918742" lon="11.0810798"><ele>39.0</ele><time>2026-03-29T11:53:38.155Z</time></trkpt><trkpt lat="43.7918024" lon="11.080977"><ele>39.0</ele><time>2026-03-29T11:53:39.155Z</time></trkpt><trkpt lat="43.7917482" lon="11.080866"><ele>39.0</ele><time>2026-03-29T11:53:40.155Z</time></trkpt><trkpt lat="43.7917065" lon="11.08075"><ele>39.0</ele><time>2026-03-29T11:53:41.155Z</time></trkpt><trkpt lat="43.7916758" lon="11.0806339"><ele>38.5</ele><time>2026-03-29T11:53:42.155Z</time></trkpt><trkpt lat="43.7916498" lon="11.0805245"><ele>38.0</ele><time>2026-03-29T11:53:43.155Z</time></trkpt><trkpt lat="43.7916306" lon="11.0804236"><ele>37.5</ele><time>2026-03-29T11:53:44.155Z</time></trkpt><trkpt lat="43.791614" lon="11.0803242"><ele>37.0</ele><time>2026-03-29T11:53:45.155Z</time></trkpt><trkpt lat="43.7915977" lon="11.0802266"><ele>36.5</ele><time>2026-03-29T11:53:46.155Z</time></trkpt><trkpt lat="43.7915938" lon="11.0801355"><ele>36.0</ele><time>2026-03-29T11:53:47.155Z</time></trkpt><trkpt lat="43.7916354" lon="11.0800033"><ele>36.0</ele><time>2026-03-29T11:53:49.155Z</time></trkpt><trkpt lat="43.7915687" lon="11.0800924"><ele>36.0</ele><time>2026-03-29T11:53:55.155Z</time></trkpt><trkpt lat="43.7915842" lon="11.0802168"><ele>36.0</ele><time>2026-03-29T11:53:56.155Z</time></trkpt><trkpt lat="43.7916034" lon="11.0803339"><ele>36.0</ele><time>2026-03-29T11:53:57.155Z</time></trkpt><trkpt lat="43.7916159" lon="11.0804494"><ele>36.0</ele><time>2026-03-29T11:53:58.155Z</time></trkpt><trkpt lat="43.7916303" lon="11.0805465"><ele>36.0</ele><time>2026-03-29T11:53:59.154Z</time></trkpt><trkpt lat="43.7916523" lon="11.0806747"><ele>36.0</ele><time>2026-03-29T11:54:01.155Z</time></trkpt><trkpt lat="43.7916045" lon="11.0807331"><ele>36.0</ele><time>2026-03-29T11:54:03.154Z</time></trkpt><trkpt lat="43.7915262" lon="11.0806834"><ele>36.0</ele><time>2026-03-29T11:54:06.155Z</time></trkpt><trkpt lat="43.7914692" lon="11.0806172"><ele>36.0</ele><time>2026-03-29T11:54:08.155Z</time></trkpt><trkpt lat="43.7913919" lon="11.0805156"><ele>36.0</ele><time>2026-03-29T11:54:10.155Z</time></trkpt><trkpt lat="43.7912984" lon="11.0804064"><ele>36.0</ele><time>2026-03-29T11:54:12.155Z</time></trkpt><trkpt lat="43.7912074" lon="11.0802935"><ele>36.0</ele><time>2026-03-29T11:54:14.155Z</time></trkpt><trkpt lat="43.7911198" lon="11.0801959"><ele>36.0</ele><time>2026-03-29T11:54:16.155Z</time></trkpt><trkpt lat="43.7910425" lon="11.0800833"><ele>36.0</ele><time>2026-03-29T11:54:18.155Z</time></trkpt><trkpt lat="43.7909656" lon="11.0799816"><ele>36.6</ele><time>2026-03-29T11:54:20.155Z</time></trkpt><trkpt lat="43.7908937" lon="11.0798818"><ele>37.2</ele><time>2026-03-29T11:54:22.155Z</time></trkpt><trkpt lat="43.7908386" lon="11.0797858"><ele>37.8</ele><time>2026-03-29T11:54:24.155Z</time></trkpt><trkpt lat="43.7907942" lon="11.0797032"><ele>38.4</ele><time>2026-03-29T11:54:37.155Z</time></trkpt><trkpt lat="43.7907334" lon="11.0796224"><ele>39.0</ele><time>2026-03-29T11:54:40.154Z</time></trkpt><trkpt lat="43.7906443" lon="11.0794886"><ele>39.0</ele><time>2026-03-29T11:54:42.155Z</time></trkpt><trkpt lat="43.7906089" lon="11.0794107"><ele>39.0</ele><time>2026-03-29T11:54:43.155Z</time></trkpt><trkpt lat="43.7905419" lon="11.0792883"><ele>39.0</ele><time>2026-03-29T11:54:45.155Z</time></trkpt><trkpt lat="43.7904679" lon="11.0791702"><ele>39.0</ele><time>2026-03-29T11:54:47.155Z</time></trkpt><trkpt lat="43.7903949" lon="11.0790712"><ele>39.0</ele><time>2026-03-29T11:54:49.155Z</time></trkpt><trkpt lat="43.7903415" lon="11.0789635"><ele>37.8</ele><time>2026-03-29T11:54:51.155Z</time></trkpt><trkpt lat="43.7902936" lon="11.0788793"><ele>36.599999999999994</ele><time>2026-03-29T11:54:53.155Z</time></trkpt><trkpt lat="43.7902444" lon="11.0787617"><ele>35.4</ele><time>2026-03-29T11:54:55.155Z</time></trkpt><trkpt lat="43.7901897" lon="11.0786134"><ele>34.199999999999996</ele><time>2026-03-29T11:54:57.155Z</time></trkpt><trkpt lat="43.7901584" lon="11.0785188"><ele>33.0</ele><time>2026-03-29T11:54:58.155Z</time></trkpt><trkpt lat="43.7901186" lon="11.0784094"><ele>34.57142857142857</ele><time>2026-03-29T11:54:59.155Z</time></trkpt><trkpt lat="43.7900842" lon="11.0783131"><ele>36.142857142857146</ele><time>2026-03-29T11:55:00.155Z</time></trkpt><trkpt lat="43.7900495" lon="11.0782235"><ele>37.714285714285715</ele><time>2026-03-29T11:55:01.155Z</time></trkpt><trkpt lat="43.7900171" lon="11.0781382"><ele>39.285714285714285</ele><time>2026-03-29T11:55:02.155Z</time></trkpt><trkpt lat="43.7899745" lon="11.0780463"><ele>40.857142857142854</ele><time>2026-03-29T11:55:03.155Z</time></trkpt><trkpt lat="43.7899397" lon="11.0779492"><ele>42.42857142857143</ele><time>2026-03-29T11:55:04.155Z</time></trkpt><trkpt lat="43.7899034" lon="11.0778647"><ele>44.0</ele><time>2026-03-29T11:55:05.155Z</time></trkpt><trkpt lat="43.7898439" lon="11.0777886"><ele>44.0</ele><time>2026-03-29T11:55:06.155Z</time></trkpt><trkpt lat="43.7897807" lon="11.0777498"><ele>44.0</ele><time>2026-03-29T11:55:07.155Z</time></trkpt><trkpt lat="43.7897138" lon="11.077704"><ele>44.0</ele><time>2026-03-29T11:55:08.155Z</time></trkpt><trkpt lat="43.7895829" lon="11.0776676"><ele>44.0</ele><time>2026-03-29T11:55:10.155Z</time></trkpt><trkpt lat="43.789501" lon="11.0776654"><ele>44.0</ele><time>2026-03-29T11:55:11.155Z</time></trkpt><trkpt lat="43.7894336" lon="11.0776791"><ele>44.0</ele><time>2026-03-29T11:55:12.154Z</time></trkpt><trkpt lat="43.7893613" lon="11.0777051"><ele>45.42857142857143</ele><time>2026-03-29T11:55:13.155Z</time></trkpt><trkpt lat="43.789295" lon="11.0777344"><ele>46.857142857142854</ele><time>2026-03-29T11:55:14.155Z</time></trkpt><trkpt lat="43.7892325" lon="11.0777683"><ele>48.285714285714285</ele><time>2026-03-29T11:55:15.155Z</time></trkpt><trkpt lat="43.7891711" lon="11.0778005"><ele>49.714285714285715</ele><time>2026-03-29T11:55:16.155Z</time></trkpt><trkpt lat="43.7890969" lon="11.0778427"><ele>51.14285714285714</ele><time>2026-03-29T11:55:17.155Z</time></trkpt><trkpt lat="43.7890265" lon="11.0778877"><ele>52.57142857142857</ele><time>2026-03-29T11:55:18.155Z</time></trkpt><trkpt lat="43.7889483" lon="11.0779322"><ele>54.0</ele><time>2026-03-29T11:55:19.155Z</time></trkpt><trkpt lat="43.7888741" lon="11.0779812"><ele>54.0</ele><time>2026-03-29T11:55:20.155Z</time></trkpt><trkpt lat="43.7888104" lon="11.0780363"><ele>54.0</ele><time>2026-03-29T11:55:21.155Z</time></trkpt><trkpt lat="43.7887576" lon="11.0780971"><ele>54.0</ele><time>2026-03-29T11:55:22.155Z</time></trkpt><trkpt lat="43.788706" lon="11.0781586"><ele>54.0</ele><time>2026-03-29T11:55:23.155Z</time></trkpt><trkpt lat="43.7886168" lon="11.0782749"><ele>54.0</ele><time>2026-03-29T11:55:25.155Z</time></trkpt><trkpt lat="43.7885564" lon="11.0784035"><ele>54.0</ele><time>2026-03-29T11:55:27.154Z</time></trkpt><trkpt lat="43.7885288" lon="11.0785358"><ele>54.166666666666664</ele><time>2026-03-29T11:55:29.155Z</time></trkpt><trkpt lat="43.7885125" lon="11.0786613"><ele>54.33333333333333</ele><time>2026-03-29T11:55:31.155Z</time></trkpt><trkpt lat="43.7884824" lon="11.0787754"><ele>54.5</ele><time>2026-03-29T11:55:33.155Z</time></trkpt><trkpt lat="43.7884596" lon="11.0788777"><ele>54.666666666666664</ele><time>2026-03-29T11:55:42.155Z</time></trkpt><trkpt lat="43.7884873" lon="11.0789976"><ele>54.83333333333333</ele><time>2026-03-29T11:55:45.155Z</time></trkpt><trkpt lat="43.7885218" lon="11.0790915"><ele>55.0</ele><time>2026-03-29T11:55:47.155Z</time></trkpt><trkpt lat="43.7885523" lon="11.0791799"><ele>54.99999999999999</ele><time>2026-03-29T11:55:50.155Z</time></trkpt><trkpt lat="43.7885023" lon="11.0790945"><ele>55.0</ele><time>2026-03-29T11:56:07.155Z</time></trkpt><trkpt lat="43.7884784" lon="11.0790086"><ele>55.0</ele><time>2026-03-29T11:56:10.155Z</time></trkpt><trkpt lat="43.7884758" lon="11.0789102"><ele>55.0</ele><time>2026-03-29T11:56:13.155Z</time></trkpt><trkpt lat="43.7884321" lon="11.0788385"><ele>55.0</ele><time>2026-03-29T11:56:16.155Z</time></trkpt><trkpt lat="43.7883626" lon="11.0788179"><ele>54.99999999999999</ele><time>2026-03-29T11:56:21.155Z</time></trkpt><trkpt lat="43.7883181" lon="11.0788845"><ele>55.0</ele><time>2026-03-29T11:56:23.154Z</time></trkpt><trkpt lat="43.7882806" lon="11.0789857"><ele>54.99999999999999</ele><time>2026-03-29T11:56:25.155Z</time></trkpt><trkpt lat="43.7882303" lon="11.0790431"><ele>55.0</ele><time>2026-03-29T11:56:30.155Z</time></trkpt><trkpt lat="43.7881854" lon="11.0791437"><ele>55.0</ele><time>2026-03-29T11:56:38.155Z</time></trkpt><trkpt lat="43.7881679" lon="11.0792485"><ele>55.0</ele><time>2026-03-29T11:56:40.155Z</time></trkpt><trkpt lat="43.7881468" lon="11.079389"><ele>54.99999999999999</ele><time>2026-03-29T11:56:42.155Z</time></trkpt><trkpt lat="43.7881174" lon="11.0795228"><ele>55.0</ele><time>2026-03-29T11:56:44.155Z</time></trkpt><trkpt lat="43.7880902" lon="11.0796616"><ele>56.4</ele><time>2026-03-29T11:56:46.155Z</time></trkpt><trkpt lat="43.788031" lon="11.0798034"><ele>57.8</ele><time>2026-03-29T11:56:48.155Z</time></trkpt><trkpt lat="43.7879429" lon="11.0799241"><ele>59.2</ele><time>2026-03-29T11:56:50.154Z</time></trkpt><trkpt lat="43.7878303" lon="11.0799878"><ele>60.6</ele><time>2026-03-29T11:56:52.155Z</time></trkpt><trkpt lat="43.7877548" lon="11.0799754"><ele>62.0</ele><time>2026-03-29T11:56:53.155Z</time></trkpt><trkpt lat="43.7876972" lon="11.0799319"><ele>61.333333333333336</ele><time>2026-03-29T11:56:54.155Z</time></trkpt><trkpt lat="43.7875984" lon="11.0798302"><ele>60.66666666666667</ele><time>2026-03-29T11:56:56.155Z</time></trkpt><trkpt lat="43.7875443" lon="11.0797681"><ele>60.0</ele><time>2026-03-29T11:56:57.155Z</time></trkpt><trkpt lat="43.7874959" lon="11.0797031"><ele>59.33333333333333</ele><time>2026-03-29T11:56:58.155Z</time></trkpt><trkpt lat="43.7874528" lon="11.0796299"><ele>58.666666666666664</ele><time>2026-03-29T11:56:59.155Z</time></trkpt><trkpt lat="43.7874114" lon="11.0795534"><ele>58.0</ele><time>2026-03-29T11:57:00.155Z</time></trkpt><trkpt lat="43.787378" lon="11.0794782"><ele>57.99999999999999</ele><time>2026-03-29T11:57:01.155Z</time></trkpt><trkpt lat="43.7873571" lon="11.0793881"><ele>58.0</ele><time>2026-03-29T11:57:02.154Z</time></trkpt><trkpt lat="43.7873297" lon="11.0792996"><ele>58.0</ele><time>2026-03-29T11:57:03.155Z</time></trkpt><trkpt lat="43.7873121" lon="11.0792153"><ele>58.0</ele><time>2026-03-29T11:57:04.155Z</time></trkpt><trkpt lat="43.7872924" lon="11.0791212"><ele>57.99999999999999</ele><time>2026-03-29T11:57:05.155Z</time></trkpt><trkpt lat="43.7873034" lon="11.0789486"><ele>58.0</ele><time>2026-03-29T11:57:07.155Z</time></trkpt><trkpt lat="43.7873135" lon="11.078794"><ele>58.2</ele><time>2026-03-29T11:57:09.155Z</time></trkpt><trkpt lat="43.7873045" lon="11.0786236"><ele>58.4</ele><time>2026-03-29T11:57:11.155Z</time></trkpt><trkpt lat="43.787228" lon="11.0784912"><ele>58.60000000000001</ele><time>2026-03-29T11:57:13.155Z</time></trkpt><trkpt lat="43.7871241" lon="11.0784084"><ele>58.800000000000004</ele><time>2026-03-29T11:57:15.154Z</time></trkpt><trkpt lat="43.7870618" lon="11.0783791"><ele>59.0</ele><time>2026-03-29T11:57:16.155Z</time></trkpt><trkpt lat="43.786993" lon="11.0783534"><ele>59.0</ele><time>2026-03-29T11:57:17.155Z</time></trkpt><trkpt lat="43.7869276" lon="11.078338"><ele>59.0</ele><time>2026-03-29T11:57:18.155Z</time></trkpt><trkpt lat="43.7868569" lon="11.0783455"><ele>59.0</ele><time>2026-03-29T11:57:19.155Z</time></trkpt><trkpt lat="43.78678" lon="11.0783639"><ele>59.0</ele><time>2026-03-29T11:57:20.155Z</time></trkpt><trkpt lat="43.7867008" lon="11.0783979"><ele>59.0</ele><time>2026-03-29T11:57:21.155Z</time></trkpt><trkpt lat="43.7866328" lon="11.0784425"><ele>59.0</ele><time>2026-03-29T11:57:22.155Z</time></trkpt><trkpt lat="43.7865697" lon="11.078487"><ele>59.0</ele><time>2026-03-29T11:57:23.155Z</time></trkpt><trkpt lat="43.7864981" lon="11.0785296"><ele>60.66666666666667</ele><time>2026-03-29T11:57:24.155Z</time></trkpt><trkpt lat="43.7864376" lon="11.0785571"><ele>62.333333333333336</ele><time>2026-03-29T11:57:25.155Z</time></trkpt><trkpt lat="43.7863722" lon="11.0785674"><ele>64.0</ele><time>2026-03-29T11:57:26.154Z</time></trkpt><trkpt lat="43.7863044" lon="11.0785634"><ele>65.66666666666667</ele><time>2026-03-29T11:57:27.155Z</time></trkpt><trkpt lat="43.7862392" lon="11.078563"><ele>67.33333333333333</ele><time>2026-03-29T11:57:28.155Z</time></trkpt><trkpt lat="43.7861127" lon="11.078497"><ele>69.0</ele><time>2026-03-29T11:57:30.155Z</time></trkpt><trkpt lat="43.7860535" lon="11.078436"><ele>69.0</ele><time>2026-03-29T11:57:31.155Z</time></trkpt><trkpt lat="43.7860028" lon="11.0783603"><ele>69.0</ele><time>2026-03-29T11:57:32.155Z</time></trkpt><trkpt lat="43.7859562" lon="11.0782782"><ele>69.0</ele><time>2026-03-29T11:57:33.155Z</time></trkpt><trkpt lat="43.7859024" lon="11.0782007"><ele>69.0</ele><time>2026-03-29T11:57:34.154Z</time></trkpt><trkpt lat="43.7858506" lon="11.0781245"><ele>69.0</ele><time>2026-03-29T11:57:35.155Z</time></trkpt><trkpt lat="43.7858084" lon="11.078051"><ele>69.0</ele><time>2026-03-29T11:57:36.155Z</time></trkpt><trkpt lat="43.7857975" lon="11.0779114"><ele>69.0</ele><time>2026-03-29T11:57:38.155Z</time></trkpt><trkpt lat="43.7858461" lon="11.0778382"><ele>69.0</ele><time>2026-03-29T11:57:39.155Z</time></trkpt><trkpt lat="43.7859071" lon="11.0777623"><ele>69.0</ele><time>2026-03-29T11:57:40.155Z</time></trkpt><trkpt lat="43.7859601" lon="11.0776788"><ele>69.0</ele><time>2026-03-29T11:57:41.155Z</time></trkpt><trkpt lat="43.786013" lon="11.0775913"><ele>69.0</ele><time>2026-03-29T11:57:42.155Z</time></trkpt><trkpt lat="43.7860692" lon="11.0774978"><ele>69.0</ele><time>2026-03-29T11:57:43.155Z</time></trkpt><trkpt lat="43.7861363" lon="11.0774144"><ele>69.0</ele><time>2026-03-29T11:57:44.155Z</time></trkpt><trkpt lat="43.7861942" lon="11.0773281"><ele>69.0</ele><time>2026-03-29T11:57:45.155Z</time></trkpt><trkpt lat="43.7862563" lon="11.0772417"><ele>69.0</ele><time>2026-03-29T11:57:46.155Z</time></trkpt><trkpt lat="43.7863178" lon="11.0771596"><ele>69.0</ele><time>2026-03-29T11:57:47.155Z</time></trkpt><trkpt lat="43.7863785" lon="11.0770716"><ele>69.0</ele><time>2026-03-29T11:57:48.154Z</time></trkpt><trkpt lat="43.7864401" lon="11.0769787"><ele>69.0</ele><time>2026-03-29T11:57:49.155Z</time></trkpt><trkpt lat="43.7865008" lon="11.0768849"><ele>69.0</ele><time>2026-03-29T11:57:50.155Z</time></trkpt><trkpt lat="43.7865659" lon="11.0767871"><ele>69.0</ele><time>2026-03-29T11:57:51.155Z</time></trkpt><trkpt lat="43.7866266" lon="11.0766998"><ele>69.0</ele><time>2026-03-29T11:57:52.155Z</time></trkpt><trkpt lat="43.7866803" lon="11.0766113"><ele>69.0</ele><time>2026-03-29T11:57:53.155Z</time></trkpt><trkpt lat="43.7867282" lon="11.0765369"><ele>69.0</ele><time>2026-03-29T11:57:54.155Z</time></trkpt><trkpt lat="43.7868022" lon="11.0764358"><ele>69.0</ele><time>2026-03-29T11:57:56.155Z</time></trkpt><trkpt lat="43.7868457" lon="11.076358"><ele>68.33333333333333</ele><time>2026-03-29T11:57:58.155Z</time></trkpt><trkpt lat="43.7868999" lon="11.0762867"><ele>67.66666666666667</ele><time>2026-03-29T11:58:00.155Z</time></trkpt><trkpt lat="43.7869407" lon="11.07622"><ele>67.0</ele><time>2026-03-29T11:58:02.155Z</time></trkpt><trkpt lat="43.7869844" lon="11.0761378"><ele>66.33333333333334</ele><time>2026-03-29T11:58:05.155Z</time></trkpt><trkpt lat="43.7869392" lon="11.076219"><ele>65.66666666666667</ele><time>2026-03-29T12:00:02.155Z</time></trkpt><trkpt lat="43.7868734" lon="11.0762996"><ele>65.0</ele><time>2026-03-29T12:00:04.155Z</time></trkpt><trkpt lat="43.7868102" lon="11.0764041"><ele>65.0</ele><time>2026-03-29T12:00:06.155Z</time></trkpt><trkpt lat="43.7867453" lon="11.0765141"><ele>65.0</ele><time>2026-03-29T12:00:08.155Z</time></trkpt><trkpt lat="43.7867014" lon="11.0765889"><ele>65.0</ele><time>2026-03-29T12:00:10.155Z</time></trkpt><trkpt lat="43.7866551" lon="11.0766578"><ele>65.0</ele><time>2026-03-29T12:00:12.154Z</time></trkpt><trkpt lat="43.7865985" lon="11.0767456"><ele>65.0</ele><time>2026-03-29T12:00:14.155Z</time></trkpt><trkpt lat="43.7865326" lon="11.0768481"><ele>65.0</ele><time>2026-03-29T12:00:16.155Z</time></trkpt><trkpt lat="43.7864886" lon="11.076916"><ele>65.8</ele><time>2026-03-29T12:00:17.155Z</time></trkpt><trkpt lat="43.7864054" lon="11.0770298"><ele>66.6</ele><time>2026-03-29T12:00:19.155Z</time></trkpt><trkpt lat="43.7863165" lon="11.0771616"><ele>67.4</ele><time>2026-03-29T12:00:21.155Z</time></trkpt><trkpt lat="43.786262" lon="11.077235"><ele>68.2</ele><time>2026-03-29T12:00:22.155Z</time></trkpt><trkpt lat="43.7862134" lon="11.0772994"><ele>69.0</ele><time>2026-03-29T12:00:23.155Z</time></trkpt><trkpt lat="43.7861274" lon="11.0774343"><ele>69.5</ele><time>2026-03-29T12:00:25.155Z</time></trkpt><trkpt lat="43.7860765" lon="11.0775078"><ele>70.0</ele><time>2026-03-29T12:00:26.155Z</time></trkpt><trkpt lat="43.7860299" lon="11.0775791"><ele>70.5</ele><time>2026-03-29T12:00:27.155Z</time></trkpt><trkpt lat="43.7859878" lon="11.0776449"><ele>71.0</ele><time>2026-03-29T12:00:28.155Z</time></trkpt><trkpt lat="43.7859053" lon="11.0777669"><ele>71.5</ele><time>2026-03-29T12:00:30.155Z</time></trkpt><trkpt lat="43.7858515" lon="11.0778693"><ele>72.0</ele><time>2026-03-29T12:00:32.155Z</time></trkpt><trkpt lat="43.7857999" lon="11.0779524"><ele>72.0</ele><time>2026-03-29T12:00:34.155Z</time></trkpt><trkpt lat="43.7857887" lon="11.0780527"><ele>72.0</ele><time>2026-03-29T12:00:36.155Z</time></trkpt><trkpt lat="43.7858294" lon="11.0781643"><ele>72.0</ele><time>2026-03-29T12:00:38.155Z</time></trkpt><trkpt lat="43.7858887" lon="11.0782817"><ele>72.0</ele><time>2026-03-29T12:00:40.155Z</time></trkpt><trkpt lat="43.7859618" lon="11.078397"><ele>72.0</ele><time>2026-03-29T12:00:42.155Z</time></trkpt><trkpt lat="43.7860445" lon="11.0785011"><ele>71.25</ele><time>2026-03-29T12:00:44.155Z</time></trkpt><trkpt lat="43.7861493" lon="11.0785518"><ele>70.5</ele><time>2026-03-29T12:00:46.155Z</time></trkpt><trkpt lat="43.7862561" lon="11.0785758"><ele>69.75</ele><time>2026-03-29T12:00:48.155Z</time></trkpt><trkpt lat="43.78637" lon="11.0785795"><ele>69.0</ele><time>2026-03-29T12:00:50.155Z</time></trkpt><trkpt lat="43.786494" lon="11.0785517"><ele>69.0</ele><time>2026-03-29T12:00:52.155Z</time></trkpt><trkpt lat="43.7865956" lon="11.0784897"><ele>69.0</ele><time>2026-03-29T12:00:54.155Z</time></trkpt><trkpt lat="43.7866564" lon="11.0784587"><ele>69.0</ele><time>2026-03-29T12:00:55.155Z</time></trkpt><trkpt lat="43.7867629" lon="11.0783939"><ele>69.0</ele><time>2026-03-29T12:00:57.155Z</time></trkpt><trkpt lat="43.786876" lon="11.0783687"><ele>69.0</ele><time>2026-03-29T12:00:59.154Z</time></trkpt><trkpt lat="43.7869866" lon="11.0783799"><ele>67.0</ele><time>2026-03-29T12:01:01.155Z</time></trkpt><trkpt lat="43.7870948" lon="11.0784075"><ele>65.0</ele><time>2026-03-29T12:01:03.155Z</time></trkpt><trkpt lat="43.7872002" lon="11.0784448"><ele>63.00000000000001</ele><time>2026-03-29T12:01:05.155Z</time></trkpt><trkpt lat="43.7872858" lon="11.0785327"><ele>61.0</ele><time>2026-03-29T12:01:07.155Z</time></trkpt><trkpt lat="43.7873344" lon="11.0786343"><ele>59.0</ele><time>2026-03-29T12:01:09.155Z</time></trkpt><trkpt lat="43.7873341" lon="11.0787635"><ele>59.0</ele><time>2026-03-29T12:01:11.155Z</time></trkpt><trkpt lat="43.7873271" lon="11.0789116"><ele>59.0</ele><time>2026-03-29T12:01:13.155Z</time></trkpt><trkpt lat="43.7873333" lon="11.0790792"><ele>59.0</ele><time>2026-03-29T12:01:15.155Z</time></trkpt><trkpt lat="43.7887557" lon="11.0780821"><ele>58.0</ele><time>2026-03-29T12:02:36.155Z</time></trkpt><trkpt lat="43.7888574" lon="11.0779902"><ele>57.00000000000001</ele><time>2026-03-29T12:02:38.155Z</time></trkpt><trkpt lat="43.7889684" lon="11.077899"><ele>56.00000000000001</ele><time>2026-03-29T12:02:40.155Z</time></trkpt><trkpt lat="43.7890293" lon="11.0778619"><ele>55.0</ele><time>2026-03-29T12:02:41.155Z</time></trkpt><trkpt lat="43.7891488" lon="11.0777998"><ele>54.0</ele><time>2026-03-29T12:02:43.155Z</time></trkpt><trkpt lat="43.7892507" lon="11.0777241"><ele>52.0</ele><time>2026-03-29T12:02:45.155Z</time></trkpt><trkpt lat="43.7893576" lon="11.0776491"><ele>50.00000000000001</ele><time>2026-03-29T12:02:47.155Z</time></trkpt><trkpt lat="43.7894565" lon="11.07761"><ele>48.0</ele><time>2026-03-29T12:02:49.155Z</time></trkpt><trkpt lat="43.7895475" lon="11.0775902"><ele>46.0</ele><time>2026-03-29T12:02:51.155Z</time></trkpt><trkpt lat="43.789627" lon="11.0776366"><ele>44.0</ele><time>2026-03-29T12:04:28.155Z</time></trkpt><trkpt lat="43.7897108" lon="11.0776916"><ele>44.0</ele><time>2026-03-29T12:04:30.155Z</time></trkpt><trkpt lat="43.7897719" lon="11.0777383"><ele>44.0</ele><time>2026-03-29T12:04:31.155Z</time></trkpt><trkpt lat="43.7898283" lon="11.0778065"><ele>44.0</ele><time>2026-03-29T12:04:32.155Z</time></trkpt><trkpt lat="43.7898701" lon="11.077876"><ele>44.0</ele><time>2026-03-29T12:04:33.155Z</time></trkpt><trkpt lat="43.78991" lon="11.077959"><ele>44.0</ele><time>2026-03-29T12:04:34.155Z</time></trkpt><trkpt lat="43.7899434" lon="11.0780467"><ele>44.0</ele><time>2026-03-29T12:04:35.155Z</time></trkpt><trkpt lat="43.7899787" lon="11.0781316"><ele>44.0</ele><time>2026-03-29T12:04:36.155Z</time></trkpt><trkpt lat="43.7900183" lon="11.0782247"><ele>42.166666666666664</ele><time>2026-03-29T12:04:37.155Z</time></trkpt><trkpt lat="43.7900529" lon="11.0783047"><ele>40.33333333333333</ele><time>2026-03-29T12:04:38.155Z</time></trkpt><trkpt lat="43.7900833" lon="11.0783821"><ele>38.5</ele><time>2026-03-29T12:04:39.155Z</time></trkpt><trkpt lat="43.7901334" lon="11.0785239"><ele>36.666666666666664</ele><time>2026-03-29T12:04:41.155Z</time></trkpt><trkpt lat="43.7901898" lon="11.0786378"><ele>34.833333333333336</ele><time>2026-03-29T12:04:43.155Z</time></trkpt><trkpt lat="43.7902266" lon="11.0787177"><ele>33.0</ele><time>2026-03-29T12:04:44.155Z</time></trkpt><trkpt lat="43.7902706" lon="11.0788063"><ele>33.0</ele><time>2026-03-29T12:04:45.155Z</time></trkpt><trkpt lat="43.7903197" lon="11.0789399"><ele>33.0</ele><time>2026-03-29T12:04:47.155Z</time></trkpt><trkpt lat="43.7903521" lon="11.0790163"><ele>33.0</ele><time>2026-03-29T12:04:48.155Z</time></trkpt><trkpt lat="43.7904008" lon="11.079097"><ele>33.0</ele><time>2026-03-29T12:04:49.155Z</time></trkpt><trkpt lat="43.7904425" lon="11.0791673"><ele>33.0</ele><time>2026-03-29T12:04:50.155Z</time></trkpt><trkpt lat="43.7904885" lon="11.0792433"><ele>33.0</ele><time>2026-03-29T12:04:51.155Z</time></trkpt><trkpt lat="43.7905292" lon="11.0793208"><ele>34.0</ele><time>2026-03-29T12:04:52.155Z</time></trkpt><trkpt lat="43.7905729" lon="11.0793933"><ele>35.0</ele><time>2026-03-29T12:04:53.155Z</time></trkpt><trkpt lat="43.7906124" lon="11.0794631"><ele>36.0</ele><time>2026-03-29T12:04:54.155Z</time></trkpt><trkpt lat="43.7906505" lon="11.0795395"><ele>37.0</ele><time>2026-03-29T12:04:55.155Z</time></trkpt><trkpt lat="43.7906988" lon="11.0796197"><ele>38.0</ele><time>2026-03-29T12:04:56.155Z</time></trkpt><trkpt lat="43.7907872" lon="11.0797477"><ele>39.0</ele><time>2026-03-29T12:04:58.154Z</time></trkpt><trkpt lat="43.7908345" lon="11.0798242"><ele>39.0</ele><time>2026-03-29T12:04:59.155Z</time></trkpt><trkpt lat="43.790885" lon="11.0798946"><ele>39.0</ele><time>2026-03-29T12:05:00.155Z</time></trkpt><trkpt lat="43.7909339" lon="11.0799623"><ele>39.0</ele><time>2026-03-29T12:05:01.155Z</time></trkpt><trkpt lat="43.7909951" lon="11.0800391"><ele>39.0</ele><time>2026-03-29T12:05:02.155Z</time></trkpt><trkpt lat="43.7910531" lon="11.0801179"><ele>39.0</ele><time>2026-03-29T12:05:03.155Z</time></trkpt><trkpt lat="43.7911092" lon="11.0801976"><ele>39.0</ele><time>2026-03-29T12:05:04.155Z</time></trkpt><trkpt lat="43.7911764" lon="11.0802796"><ele>38.5</ele><time>2026-03-29T12:05:05.155Z</time></trkpt><trkpt lat="43.7912278" lon="11.0803511"><ele>38.0</ele><time>2026-03-29T12:05:06.155Z</time></trkpt><trkpt lat="43.7912848" lon="11.0804267"><ele>37.5</ele><time>2026-03-29T12:05:07.155Z</time></trkpt><trkpt lat="43.791343" lon="11.0804957"><ele>37.0</ele><time>2026-03-29T12:05:08.155Z</time></trkpt><trkpt lat="43.7914014" lon="11.0805685"><ele>36.5</ele><time>2026-03-29T12:05:09.155Z</time></trkpt><trkpt lat="43.7914625" lon="11.0806276"><ele>36.0</ele><time>2026-03-29T12:05:10.155Z</time></trkpt><trkpt lat="43.7915193" lon="11.080681"><ele>36.0</ele><time>2026-03-29T12:05:11.155Z</time></trkpt><trkpt lat="43.7915708" lon="11.08074"><ele>36.0</ele><time>2026-03-29T12:05:12.155Z</time></trkpt><trkpt lat="43.7916235" lon="11.0807929"><ele>36.0</ele><time>2026-03-29T12:05:13.155Z</time></trkpt><trkpt lat="43.7917145" lon="11.0808904"><ele>36.0</ele><time>2026-03-29T12:05:15.155Z</time></trkpt><trkpt lat="43.7918092" lon="11.0810228"><ele>36.0</ele><time>2026-03-29T12:05:17.155Z</time></trkpt><trkpt lat="43.7918714" lon="11.0811068"><ele>36.0</ele><time>2026-03-29T12:05:18.155Z</time></trkpt><trkpt lat="43.7919336" lon="11.0811992"><ele>36.0</ele><time>2026-03-29T12:05:19.155Z</time></trkpt><trkpt lat="43.7919723" lon="11.0813504"><ele>36.0</ele><time>2026-03-29T12:05:21.155Z</time></trkpt><trkpt lat="43.7919458" lon="11.0814317"><ele>36.0</ele><time>2026-03-29T12:05:22.155Z</time></trkpt><trkpt lat="43.7918855" lon="11.0814973"><ele>36.0</ele><time>2026-03-29T12:05:23.154Z</time></trkpt><trkpt lat="43.7917821" lon="11.0815291"><ele>36.75</ele><time>2026-03-29T12:05:24.155Z</time></trkpt><trkpt lat="43.791664" lon="11.0815372"><ele>37.5</ele><time>2026-03-29T12:05:25.155Z</time></trkpt><trkpt lat="43.7915343" lon="11.0815411"><ele>38.25</ele><time>2026-03-29T12:05:26.155Z</time></trkpt><trkpt lat="43.7914024" lon="11.0815382"><ele>39.0</ele><time>2026-03-29T12:05:27.155Z</time></trkpt><trkpt lat="43.7912604" lon="11.0815504"><ele>39.0</ele><time>2026-03-29T12:05:28.155Z</time></trkpt><trkpt lat="43.7911158" lon="11.0815593"><ele>39.0</ele><time>2026-03-29T12:05:29.155Z</time></trkpt><trkpt lat="43.7909687" lon="11.0815865"><ele>39.0</ele><time>2026-03-29T12:05:30.155Z</time></trkpt><trkpt lat="43.7908167" lon="11.081624"><ele>39.0</ele><time>2026-03-29T12:05:31.155Z</time></trkpt><trkpt lat="43.7906604" lon="11.0816617"><ele>43.0</ele><time>2026-03-29T12:05:32.155Z</time></trkpt><trkpt lat="43.7905056" lon="11.081707"><ele>47.0</ele><time>2026-03-29T12:05:33.155Z</time></trkpt><trkpt lat="43.7903619" lon="11.0817719"><ele>51.0</ele><time>2026-03-29T12:05:34.155Z</time></trkpt><trkpt lat="43.7902112" lon="11.0818621"><ele>53.66666666666667</ele><time>2026-03-29T12:05:35.155Z</time></trkpt><trkpt lat="43.7900624" lon="11.081955"><ele>56.333333333333336</ele><time>2026-03-29T12:05:36.155Z</time></trkpt><trkpt lat="43.7899061" lon="11.0820443"><ele>59.0</ele><time>2026-03-29T12:05:37.155Z</time></trkpt><trkpt lat="43.7897538" lon="11.0821286"><ele>59.0</ele><time>2026-03-29T12:05:38.155Z</time></trkpt><trkpt lat="43.7896073" lon="11.0822052"><ele>59.0</ele><time>2026-03-29T12:05:39.155Z</time></trkpt><trkpt lat="43.7894635" lon="11.0822782"><ele>59.0</ele><time>2026-03-29T12:05:40.155Z</time></trkpt><trkpt lat="43.7893185" lon="11.0823405"><ele>61.0</ele><time>2026-03-29T12:05:41.155Z</time></trkpt><trkpt lat="43.7891789" lon="11.0824007"><ele>63.0</ele><time>2026-03-29T12:05:42.154Z</time></trkpt><trkpt lat="43.7890405" lon="11.0824606"><ele>65.0</ele><time>2026-03-29T12:05:43.155Z</time></trkpt><trkpt lat="43.7889053" lon="11.0825183"><ele>67.0</ele><time>2026-03-29T12:05:44.155Z</time></trkpt><trkpt lat="43.7887652" lon="11.0825825"><ele>67.25</ele><time>2026-03-29T12:05:45.155Z</time></trkpt><trkpt lat="43.788629" lon="11.0826462"><ele>67.5</ele><time>2026-03-29T12:05:46.155Z</time></trkpt><trkpt lat="43.7884905" lon="11.0827139"><ele>67.75</ele><time>2026-03-29T12:05:47.155Z</time></trkpt><trkpt lat="43.7883581" lon="11.0827904"><ele>68.0</ele><time>2026-03-29T12:05:48.154Z</time></trkpt><trkpt lat="43.7882288" lon="11.082826"><ele>68.0</ele><time>2026-03-29T12:05:49.155Z</time></trkpt><trkpt lat="43.7881076" lon="11.0828666"><ele>68.0</ele><time>2026-03-29T12:05:50.155Z</time></trkpt><trkpt lat="43.7880026" lon="11.0829059"><ele>68.0</ele><time>2026-03-29T12:05:51.155Z</time></trkpt><trkpt lat="43.7879054" lon="11.0829377"><ele>68.0</ele><time>2026-03-29T12:05:52.155Z</time></trkpt><trkpt lat="43.7878134" lon="11.0829751"><ele>68.0</ele><time>2026-03-29T12:05:53.155Z</time></trkpt><trkpt lat="43.7877442" lon="11.0830368"><ele>68.0</ele><time>2026-03-29T12:05:54.155Z</time></trkpt><trkpt lat="43.7876807" lon="11.0831166"><ele>68.0</ele><time>2026-03-29T12:05:55.155Z</time></trkpt><trkpt lat="43.7876176" lon="11.0832072"><ele>68.0</ele><time>2026-03-29T12:05:56.155Z</time></trkpt><trkpt lat="43.7875416" lon="11.0833206"><ele>68.0</ele><time>2026-03-29T12:05:57.155Z</time></trkpt><trkpt lat="43.7874482" lon="11.0834557"><ele>68.0</ele><time>2026-03-29T12:05:58.155Z</time></trkpt><trkpt lat="43.7873531" lon="11.0836069"><ele>68.0</ele><time>2026-03-29T12:05:59.155Z</time></trkpt><trkpt lat="43.7872577" lon="11.0837861"><ele>68.0</ele><time>2026-03-29T12:06:00.155Z</time></trkpt><trkpt lat="43.7871669" lon="11.0839787"><ele>68.0</ele><time>2026-03-29T12:06:01.155Z</time></trkpt><trkpt lat="43.7870694" lon="11.0841687"><ele>67.33333333333334</ele><time>2026-03-29T12:06:02.155Z</time></trkpt><trkpt lat="43.786958" lon="11.0843517"><ele>66.66666666666667</ele><time>2026-03-29T12:06:03.155Z</time></trkpt><trkpt lat="43.7868341" lon="11.0845331"><ele>66.0</ele><time>2026-03-29T12:06:04.154Z</time></trkpt><trkpt lat="43.786711" lon="11.0847173"><ele>67.66666666666667</ele><time>2026-03-29T12:06:05.155Z</time></trkpt><trkpt lat="43.786595" lon="11.0849173"><ele>69.33333333333334</ele><time>2026-03-29T12:06:06.155Z</time></trkpt><trkpt lat="43.7864868" lon="11.0851282"><ele>71.0</ele><time>2026-03-29T12:06:07.155Z</time></trkpt><trkpt lat="43.7863729" lon="11.085332"><ele>71.0</ele><time>2026-03-29T12:06:08.155Z</time></trkpt><trkpt lat="43.7862524" lon="11.0855211"><ele>71.0</ele><time>2026-03-29T12:06:09.155Z</time></trkpt><trkpt lat="43.7861342" lon="11.0857077"><ele>71.0</ele><time>2026-03-29T12:06:10.155Z</time></trkpt><trkpt lat="43.7860089" lon="11.0858795"><ele>73.0</ele><time>2026-03-29T12:06:11.155Z</time></trkpt><trkpt lat="43.7858782" lon="11.0860191"><ele>75.0</ele><time>2026-03-29T12:06:12.155Z</time></trkpt><trkpt lat="43.7857421" lon="11.0861316"><ele>77.0</ele><time>2026-03-29T12:06:13.155Z</time></trkpt><trkpt lat="43.785609" lon="11.0862574"><ele>77.0</ele><time>2026-03-29T12:06:14.155Z</time></trkpt><trkpt lat="43.7854864" lon="11.0864079"><ele>77.0</ele><time>2026-03-29T12:06:15.155Z</time></trkpt><trkpt lat="43.7853797" lon="11.0865844"><ele>77.0</ele><time>2026-03-29T12:06:16.155Z</time></trkpt><trkpt lat="43.7852785" lon="11.0867598"><ele>77.0</ele><time>2026-03-29T12:06:17.155Z</time></trkpt><trkpt lat="43.7851806" lon="11.086923"><ele>77.0</ele><time>2026-03-29T12:06:18.155Z</time></trkpt><trkpt lat="43.785072" lon="11.0870885"><ele>77.0</ele><time>2026-03-29T12:06:19.155Z</time></trkpt><trkpt lat="43.7849646" lon="11.0872565"><ele>78.0</ele><time>2026-03-29T12:06:20.155Z</time></trkpt><trkpt lat="43.7848704" lon="11.0874253"><ele>79.0</ele><time>2026-03-29T12:06:21.155Z</time></trkpt><trkpt lat="43.7847601" lon="11.0875632"><ele>80.0</ele><time>2026-03-29T12:06:22.155Z</time></trkpt><trkpt lat="43.7846175" lon="11.0876695"><ele>80.0</ele><time>2026-03-29T12:06:23.155Z</time></trkpt><trkpt lat="43.7844724" lon="11.0877696"><ele>80.0</ele><time>2026-03-29T12:06:24.155Z</time></trkpt><trkpt lat="43.7843363" lon="11.0879113"><ele>80.0</ele><time>2026-03-29T12:06:25.155Z</time></trkpt><trkpt lat="43.7842136" lon="11.088101"><ele>82.0</ele><time>2026-03-29T12:06:26.155Z</time></trkpt><trkpt lat="43.7841039" lon="11.0882838"><ele>84.0</ele><time>2026-03-29T12:06:27.155Z</time></trkpt><trkpt lat="43.7840127" lon="11.0884558"><ele>86.0</ele><time>2026-03-29T12:06:28.155Z</time></trkpt><trkpt lat="43.7839231" lon="11.0885888"><ele>86.0</ele><time>2026-03-29T12:06:29.155Z</time></trkpt><trkpt lat="43.783838" lon="11.0887384"><ele>86.0</ele><time>2026-03-29T12:06:30.155Z</time></trkpt><trkpt lat="43.7837738" lon="11.088866"><ele>86.0</ele><time>2026-03-29T12:06:31.155Z</time></trkpt><trkpt lat="43.7837137" lon="11.0889649"><ele>86.0</ele><time>2026-03-29T12:06:32.155Z</time></trkpt><trkpt lat="43.7836457" lon="11.0890241"><ele>86.0</ele><time>2026-03-29T12:06:33.155Z</time></trkpt><trkpt lat="43.7835724" lon="11.0890138"><ele>87.0</ele><time>2026-03-29T12:06:34.154Z</time></trkpt><trkpt lat="43.7834903" lon="11.088948"><ele>88.0</ele><time>2026-03-29T12:06:35.155Z</time></trkpt><trkpt lat="43.7834181" lon="11.0888851"><ele>89.0</ele><time>2026-03-29T12:06:36.155Z</time></trkpt><trkpt lat="43.7833329" lon="11.0888044"><ele>90.0</ele><time>2026-03-29T12:06:37.155Z</time></trkpt><trkpt lat="43.7832712" lon="11.0887529"><ele>91.0</ele><time>2026-03-29T12:06:38.155Z</time></trkpt><trkpt lat="43.7832134" lon="11.088676"><ele>92.0</ele><time>2026-03-29T12:06:40.155Z</time></trkpt><trkpt lat="43.7832068" lon="11.0885831"><ele>92.0</ele><time>2026-03-29T12:06:41.155Z</time></trkpt><trkpt lat="43.7831858" lon="11.0883972"><ele>92.0</ele><time>2026-03-29T12:06:42.155Z</time></trkpt><trkpt lat="43.7831673" lon="11.0882501"><ele>92.0</ele><time>2026-03-29T12:06:43.155Z</time></trkpt><trkpt lat="43.7831453" lon="11.0881057"><ele>92.0</ele><time>2026-03-29T12:06:44.155Z</time></trkpt><trkpt lat="43.7831263" lon="11.0879496"><ele>92.0</ele><time>2026-03-29T12:06:45.155Z</time></trkpt><trkpt lat="43.7831195" lon="11.0877908"><ele>92.0</ele><time>2026-03-29T12:06:46.155Z</time></trkpt><trkpt lat="43.7831185" lon="11.0876463"><ele>92.0</ele><time>2026-03-29T12:06:47.155Z</time></trkpt><trkpt lat="43.7831449" lon="11.0875003"><ele>92.0</ele><time>2026-03-29T12:06:48.154Z</time></trkpt><trkpt lat="43.7831943" lon="11.0873525"><ele>92.0</ele><time>2026-03-29T12:06:49.155Z</time></trkpt><trkpt lat="43.7832632" lon="11.0871912"><ele>92.25</ele><time>2026-03-29T12:06:50.154Z</time></trkpt><trkpt lat="43.7833281" lon="11.0870265"><ele>92.5</ele><time>2026-03-29T12:06:51.155Z</time></trkpt><trkpt lat="43.7833831" lon="11.0868644"><ele>92.75</ele><time>2026-03-29T12:06:52.155Z</time></trkpt><trkpt lat="43.7834117" lon="11.086688"><ele>93.0</ele><time>2026-03-29T12:06:53.155Z</time></trkpt><trkpt lat="43.7834175" lon="11.0864812"><ele>93.75</ele><time>2026-03-29T12:06:54.155Z</time></trkpt><trkpt lat="43.7834099" lon="11.0862703"><ele>94.5</ele><time>2026-03-29T12:06:55.155Z</time></trkpt><trkpt lat="43.7834112" lon="11.086068"><ele>95.25</ele><time>2026-03-29T12:06:56.155Z</time></trkpt><trkpt lat="43.7834248" lon="11.0858712"><ele>96.0</ele><time>2026-03-29T12:06:57.155Z</time></trkpt><trkpt lat="43.7834394" lon="11.0856964"><ele>96.0</ele><time>2026-03-29T12:06:58.155Z</time></trkpt><trkpt lat="43.7834583" lon="11.0855263"><ele>96.0</ele><time>2026-03-29T12:06:59.155Z</time></trkpt><trkpt lat="43.7834788" lon="11.0853477"><ele>96.0</ele><time>2026-03-29T12:07:00.154Z</time></trkpt><trkpt lat="43.7835024" lon="11.0851633"><ele>96.0</ele><time>2026-03-29T12:07:01.155Z</time></trkpt><trkpt lat="43.7835251" lon="11.0849752"><ele>94.25</ele><time>2026-03-29T12:07:02.155Z</time></trkpt><trkpt lat="43.7835435" lon="11.0847881"><ele>92.5</ele><time>2026-03-29T12:07:03.155Z</time></trkpt><trkpt lat="43.783561" lon="11.0846184"><ele>90.75</ele><time>2026-03-29T12:07:04.155Z</time></trkpt><trkpt lat="43.7835781" lon="11.0844387"><ele>89.0</ele><time>2026-03-29T12:07:05.155Z</time></trkpt><trkpt lat="43.783595" lon="11.0842713"><ele>89.0</ele><time>2026-03-29T12:07:06.155Z</time></trkpt><trkpt lat="43.7836105" lon="11.0840972"><ele>89.0</ele><time>2026-03-29T12:07:07.156Z</time></trkpt><trkpt lat="43.7836263" lon="11.083914"><ele>89.0</ele><time>2026-03-29T12:07:08.156Z</time></trkpt><trkpt lat="43.7836416" lon="11.0837157"><ele>89.0</ele><time>2026-03-29T12:07:09.155Z</time></trkpt><trkpt lat="43.7836524" lon="11.0835129"><ele>87.33333333333334</ele><time>2026-03-29T12:07:10.156Z</time></trkpt><trkpt lat="43.7836567" lon="11.083301"><ele>85.66666666666667</ele><time>2026-03-29T12:07:11.156Z</time></trkpt><trkpt lat="43.783654" lon="11.0830899"><ele>84.0</ele><time>2026-03-29T12:07:12.156Z</time></trkpt><trkpt lat="43.7836491" lon="11.0828721"><ele>84.0</ele><time>2026-03-29T12:07:13.156Z</time></trkpt><trkpt lat="43.7836429" lon="11.0826568"><ele>84.0</ele><time>2026-03-29T12:07:14.156Z</time></trkpt><trkpt lat="43.7836389" lon="11.0824425"><ele>84.0</ele><time>2026-03-29T12:07:15.155Z</time></trkpt><trkpt lat="43.7836381" lon="11.0822171"><ele>84.0</ele><time>2026-03-29T12:07:16.156Z</time></trkpt><trkpt lat="43.783649" lon="11.0820006"><ele>84.0</ele><time>2026-03-29T12:07:17.156Z</time></trkpt><trkpt lat="43.783683" lon="11.0817901"><ele>84.0</ele><time>2026-03-29T12:07:18.156Z</time></trkpt><trkpt lat="43.7837298" lon="11.0815774"><ele>83.5</ele><time>2026-03-29T12:07:19.156Z</time></trkpt><trkpt lat="43.7837726" lon="11.0813911"><ele>83.0</ele><time>2026-03-29T12:07:20.156Z</time></trkpt><trkpt lat="43.7838161" lon="11.0812047"><ele>82.5</ele><time>2026-03-29T12:07:21.156Z</time></trkpt><trkpt lat="43.7838715" lon="11.0810286"><ele>82.0</ele><time>2026-03-29T12:07:22.156Z</time></trkpt><trkpt lat="43.7839347" lon="11.0808551"><ele>81.75</ele><time>2026-03-29T12:07:23.156Z</time></trkpt><trkpt lat="43.7839927" lon="11.0806803"><ele>81.5</ele><time>2026-03-29T12:07:24.156Z</time></trkpt><trkpt lat="43.7840262" lon="11.0804983"><ele>81.25</ele><time>2026-03-29T12:07:25.156Z</time></trkpt><trkpt lat="43.7840293" lon="11.0803204"><ele>81.0</ele><time>2026-03-29T12:07:26.156Z</time></trkpt><trkpt lat="43.7840335" lon="11.0801586"><ele>81.0</ele><time>2026-03-29T12:07:27.156Z</time></trkpt><trkpt lat="43.7840458" lon="11.0800112"><ele>81.0</ele><time>2026-03-29T12:07:28.156Z</time></trkpt><trkpt lat="43.7840519" lon="11.0798696"><ele>81.0</ele><time>2026-03-29T12:07:29.156Z</time></trkpt><trkpt lat="43.7840579" lon="11.0797651"><ele>81.0</ele><time>2026-03-29T12:07:30.156Z</time></trkpt><trkpt lat="43.7840516" lon="11.0796772"><ele>81.0</ele><time>2026-03-29T12:07:31.156Z</time></trkpt><trkpt lat="43.7840471" lon="11.0795289"><ele>80.5</ele><time>2026-03-29T12:07:33.156Z</time></trkpt><trkpt lat="43.7840816" lon="11.0793583"><ele>80.0</ele><time>2026-03-29T12:07:35.156Z</time></trkpt><trkpt lat="43.7841013" lon="11.0792367"><ele>79.5</ele><time>2026-03-29T12:07:36.156Z</time></trkpt><trkpt lat="43.7841377" lon="11.0790876"><ele>79.0</ele><time>2026-03-29T12:07:37.156Z</time></trkpt><trkpt lat="43.7841933" lon="11.0789077"><ele>78.0</ele><time>2026-03-29T12:07:38.156Z</time></trkpt><trkpt lat="43.7842424" lon="11.0787259"><ele>77.0</ele><time>2026-03-29T12:07:39.156Z</time></trkpt><trkpt lat="43.7842956" lon="11.0785373"><ele>76.0</ele><time>2026-03-29T12:07:40.155Z</time></trkpt><trkpt lat="43.7843647" lon="11.0783494"><ele>75.0</ele><time>2026-03-29T12:07:41.156Z</time></trkpt><trkpt lat="43.7844404" lon="11.0781625"><ele>74.75</ele><time>2026-03-29T12:07:42.156Z</time></trkpt><trkpt lat="43.7845061" lon="11.077976"><ele>74.5</ele><time>2026-03-29T12:07:43.156Z</time></trkpt><trkpt lat="43.784563" lon="11.077807"><ele>74.25</ele><time>2026-03-29T12:07:44.156Z</time></trkpt><trkpt lat="43.784605" lon="11.0776394"><ele>74.0</ele><time>2026-03-29T12:07:45.156Z</time></trkpt><trkpt lat="43.7846328" lon="11.07747"><ele>74.5</ele><time>2026-03-29T12:07:46.156Z</time></trkpt><trkpt lat="43.7846472" lon="11.0773064"><ele>75.0</ele><time>2026-03-29T12:07:47.156Z</time></trkpt><trkpt lat="43.7846567" lon="11.0771344"><ele>75.5</ele><time>2026-03-29T12:07:48.156Z</time></trkpt><trkpt lat="43.7846603" lon="11.0769521"><ele>76.0</ele><time>2026-03-29T12:07:49.156Z</time></trkpt><trkpt lat="43.7846586" lon="11.0767616"><ele>76.25</ele><time>2026-03-29T12:07:50.156Z</time></trkpt><trkpt lat="43.7846518" lon="11.076555"><ele>76.5</ele><time>2026-03-29T12:07:51.156Z</time></trkpt><trkpt lat="43.7846487" lon="11.0763458"><ele>76.75</ele><time>2026-03-29T12:07:52.156Z</time></trkpt><trkpt lat="43.7846436" lon="11.0761466"><ele>77.0</ele><time>2026-03-29T12:07:53.156Z</time></trkpt><trkpt lat="43.7846359" lon="11.0759521"><ele>76.75</ele><time>2026-03-29T12:07:54.156Z</time></trkpt><trkpt lat="43.784627" lon="11.0757485"><ele>76.5</ele><time>2026-03-29T12:07:55.156Z</time></trkpt><trkpt lat="43.7846257" lon="11.075548"><ele>76.25</ele><time>2026-03-29T12:07:56.156Z</time></trkpt><trkpt lat="43.7846354" lon="11.0753349"><ele>76.0</ele><time>2026-03-29T12:07:57.156Z</time></trkpt><trkpt lat="43.7846548" lon="11.0751227"><ele>75.66666666666666</ele><time>2026-03-29T12:07:58.156Z</time></trkpt><trkpt lat="43.7846727" lon="11.0749113"><ele>75.33333333333333</ele><time>2026-03-29T12:07:59.156Z</time></trkpt><trkpt lat="43.7846873" lon="11.0747037"><ele>75.0</ele><time>2026-03-29T12:08:00.156Z</time></trkpt><trkpt lat="43.7847027" lon="11.0744978"><ele>75.0</ele><time>2026-03-29T12:08:01.156Z</time></trkpt><trkpt lat="43.784711" lon="11.0742939"><ele>75.0</ele><time>2026-03-29T12:08:02.156Z</time></trkpt><trkpt lat="43.7846995" lon="11.0740868"><ele>75.0</ele><time>2026-03-29T12:08:03.156Z</time></trkpt><trkpt lat="43.7846684" lon="11.0738963"><ele>75.0</ele><time>2026-03-29T12:08:04.156Z</time></trkpt><trkpt lat="43.7846396" lon="11.0737158"><ele>74.75</ele><time>2026-03-29T12:08:05.156Z</time></trkpt><trkpt lat="43.7846402" lon="11.0735271"><ele>74.5</ele><time>2026-03-29T12:08:06.156Z</time></trkpt><trkpt lat="43.7846857" lon="11.0733315"><ele>74.25</ele><time>2026-03-29T12:08:07.156Z</time></trkpt><trkpt lat="43.7847413" lon="11.0731268"><ele>74.0</ele><time>2026-03-29T12:08:08.156Z</time></trkpt><trkpt lat="43.7848235" lon="11.072935"><ele>72.0</ele><time>2026-03-29T12:08:09.156Z</time></trkpt><trkpt lat="43.7848977" lon="11.0727308"><ele>70.0</ele><time>2026-03-29T12:08:10.156Z</time></trkpt><trkpt lat="43.7849538" lon="11.072517"><ele>68.0</ele><time>2026-03-29T12:08:11.155Z</time></trkpt><trkpt lat="43.7849863" lon="11.0722927"><ele>67.0</ele><time>2026-03-29T12:08:12.156Z</time></trkpt><trkpt lat="43.7849989" lon="11.0720644"><ele>66.0</ele><time>2026-03-29T12:08:13.156Z</time></trkpt><trkpt lat="43.7849957" lon="11.0718546"><ele>65.0</ele><time>2026-03-29T12:08:14.156Z</time></trkpt><trkpt lat="43.7849678" lon="11.0716494"><ele>65.66666666666667</ele><time>2026-03-29T12:08:15.156Z</time></trkpt><trkpt lat="43.7849169" lon="11.0714407"><ele>66.33333333333333</ele><time>2026-03-29T12:08:16.156Z</time></trkpt><trkpt lat="43.784849" lon="11.0712331"><ele>67.0</ele><time>2026-03-29T12:08:17.156Z</time></trkpt><trkpt lat="43.7847875" lon="11.0710288"><ele>67.0</ele><time>2026-03-29T12:08:18.156Z</time></trkpt><trkpt lat="43.7847088" lon="11.0708301"><ele>67.0</ele><time>2026-03-29T12:08:19.156Z</time></trkpt><trkpt lat="43.7845977" lon="11.0706331"><ele>67.0</ele><time>2026-03-29T12:08:20.156Z</time></trkpt><trkpt lat="43.7844776" lon="11.0704518"><ele>66.0</ele><time>2026-03-29T12:08:21.156Z</time></trkpt><trkpt lat="43.7843316" lon="11.0703005"><ele>65.0</ele><time>2026-03-29T12:08:22.156Z</time></trkpt><trkpt lat="43.7841533" lon="11.0701712"><ele>64.0</ele><time>2026-03-29T12:08:23.156Z</time></trkpt><trkpt lat="43.783957" lon="11.0700488"><ele>68.5</ele><time>2026-03-29T12:08:24.156Z</time></trkpt><trkpt lat="43.7837465" lon="11.0699291"><ele>73.0</ele><time>2026-03-29T12:08:25.156Z</time></trkpt><trkpt lat="43.7835335" lon="11.0698074"><ele>66.0</ele><time>2026-03-29T12:08:26.156Z</time></trkpt><trkpt lat="43.7833164" lon="11.0696776"><ele>59.0</ele><time>2026-03-29T12:08:27.156Z</time></trkpt><trkpt lat="43.7830963" lon="11.0695469"><ele>59.0</ele><time>2026-03-29T12:08:28.156Z</time></trkpt><trkpt lat="43.782874" lon="11.0694197"><ele>59.0</ele><time>2026-03-29T12:08:29.156Z</time></trkpt><trkpt lat="43.7826556" lon="11.0693005"><ele>58.0</ele><time>2026-03-29T12:08:30.156Z</time></trkpt><trkpt lat="43.7824388" lon="11.0691764"><ele>57.0</ele><time>2026-03-29T12:08:31.156Z</time></trkpt><trkpt lat="43.7822239" lon="11.06905"><ele>57.0</ele><time>2026-03-29T12:08:32.156Z</time></trkpt><trkpt lat="43.7820116" lon="11.0689271"><ele>57.0</ele><time>2026-03-29T12:08:33.156Z</time></trkpt><trkpt lat="43.7817946" lon="11.0688085"><ele>55.0</ele><time>2026-03-29T12:08:34.156Z</time></trkpt><trkpt lat="43.781582" lon="11.0686948"><ele>53.0</ele><time>2026-03-29T12:08:35.156Z</time></trkpt><trkpt lat="43.7813688" lon="11.0685907"><ele>53.0</ele><time>2026-03-29T12:08:36.156Z</time></trkpt><trkpt lat="43.7811537" lon="11.0684968"><ele>53.0</ele><time>2026-03-29T12:08:37.156Z</time></trkpt><trkpt lat="43.7809418" lon="11.0684038"><ele>53.0</ele><time>2026-03-29T12:08:38.156Z</time></trkpt><trkpt lat="43.7807338" lon="11.0683155"><ele>55.333333333333336</ele><time>2026-03-29T12:08:39.156Z</time></trkpt><trkpt lat="43.7805282" lon="11.0682243"><ele>57.66666666666667</ele><time>2026-03-29T12:08:40.156Z</time></trkpt><trkpt lat="43.7803131" lon="11.0681287"><ele>60.0</ele><time>2026-03-29T12:08:41.156Z</time></trkpt><trkpt lat="43.7800943" lon="11.0680348"><ele>60.0</ele><time>2026-03-29T12:08:42.156Z</time></trkpt><trkpt lat="43.779872" lon="11.0679342"><ele>60.0</ele><time>2026-03-29T12:08:43.156Z</time></trkpt><trkpt lat="43.7796494" lon="11.0678326"><ele>60.0</ele><time>2026-03-29T12:08:44.156Z</time></trkpt><trkpt lat="43.7794251" lon="11.0677314"><ele>60.0</ele><time>2026-03-29T12:08:45.156Z</time></trkpt><trkpt lat="43.7792074" lon="11.0676307"><ele>61.66666666666667</ele><time>2026-03-29T12:08:46.156Z</time></trkpt><trkpt lat="43.7790025" lon="11.0675402"><ele>63.333333333333336</ele><time>2026-03-29T12:08:47.156Z</time></trkpt><trkpt lat="43.7788138" lon="11.067456"><ele>65.0</ele><time>2026-03-29T12:08:48.156Z</time></trkpt><trkpt lat="43.7786352" lon="11.0673752"><ele>62.0</ele><time>2026-03-29T12:08:49.156Z</time></trkpt><trkpt lat="43.7784742" lon="11.0672976"><ele>59.0</ele><time>2026-03-29T12:08:50.156Z</time></trkpt><trkpt lat="43.7783364" lon="11.0671857"><ele>56.0</ele><time>2026-03-29T12:08:51.156Z</time></trkpt><trkpt lat="43.7782115" lon="11.0670436"><ele>56.0</ele><time>2026-03-29T12:08:52.155Z</time></trkpt><trkpt lat="43.7780933" lon="11.0668757"><ele>56.0</ele><time>2026-03-29T12:08:53.156Z</time></trkpt><trkpt lat="43.7779787" lon="11.0666974"><ele>56.0</ele><time>2026-03-29T12:08:54.156Z</time></trkpt><trkpt lat="43.7778686" lon="11.0665254"><ele>55.66666666666667</ele><time>2026-03-29T12:08:55.156Z</time></trkpt><trkpt lat="43.7777661" lon="11.0663521"><ele>55.33333333333333</ele><time>2026-03-29T12:08:56.156Z</time></trkpt><trkpt lat="43.7776667" lon="11.066187"><ele>55.0</ele><time>2026-03-29T12:08:57.156Z</time></trkpt><trkpt lat="43.7775726" lon="11.0660322"><ele>50.666666666666664</ele><time>2026-03-29T12:08:58.156Z</time></trkpt><trkpt lat="43.7774799" lon="11.0658719"><ele>46.33333333333333</ele><time>2026-03-29T12:08:59.156Z</time></trkpt><trkpt lat="43.7773874" lon="11.0656924"><ele>42.0</ele><time>2026-03-29T12:09:00.156Z</time></trkpt><trkpt lat="43.7772987" lon="11.0655149"><ele>40.5</ele><time>2026-03-29T12:09:01.156Z</time></trkpt><trkpt lat="43.7772203" lon="11.0653427"><ele>39.0</ele><time>2026-03-29T12:09:02.156Z</time></trkpt><trkpt lat="43.7771441" lon="11.0651778"><ele>37.5</ele><time>2026-03-29T12:09:03.156Z</time></trkpt><trkpt lat="43.7770869" lon="11.0650295"><ele>36.0</ele><time>2026-03-29T12:09:04.156Z</time></trkpt><trkpt lat="43.777033" lon="11.0648954"><ele>36.0</ele><time>2026-03-29T12:09:05.156Z</time></trkpt><trkpt lat="43.776988" lon="11.0647656"><ele>36.0</ele><time>2026-03-29T12:09:06.156Z</time></trkpt><trkpt lat="43.7769504" lon="11.0646419"><ele>36.0</ele><time>2026-03-29T12:09:07.156Z</time></trkpt><trkpt lat="43.7769128" lon="11.0645266"><ele>36.0</ele><time>2026-03-29T12:09:08.156Z</time></trkpt><trkpt lat="43.7768812" lon="11.0644267"><ele>36.0</ele><time>2026-03-29T12:09:09.156Z</time></trkpt><trkpt lat="43.7768535" lon="11.0643368"><ele>36.0</ele><time>2026-03-29T12:09:10.156Z</time></trkpt><trkpt lat="43.7768319" lon="11.0642336"><ele>36.4</ele><time>2026-03-29T12:09:11.156Z</time></trkpt><trkpt lat="43.776837" lon="11.064127"><ele>36.8</ele><time>2026-03-29T12:09:12.156Z</time></trkpt><trkpt lat="43.7769051" lon="11.0640363"><ele>37.199999999999996</ele><time>2026-03-29T12:09:13.156Z</time></trkpt><trkpt lat="43.7770283" lon="11.0639678"><ele>37.6</ele><time>2026-03-29T12:09:14.156Z</time></trkpt><trkpt lat="43.7771269" lon="11.0639047"><ele>38.0</ele><time>2026-03-29T12:09:15.156Z</time></trkpt><trkpt lat="43.7772285" lon="11.0637873"><ele>38.5</ele><time>2026-03-29T12:09:16.156Z</time></trkpt><trkpt lat="43.7773237" lon="11.0636447"><ele>39.0</ele><time>2026-03-29T12:09:17.156Z</time></trkpt><trkpt lat="43.7774015" lon="11.0634945"><ele>39.5</ele><time>2026-03-29T12:09:18.156Z</time></trkpt><trkpt lat="43.7774483" lon="11.0633161"><ele>40.0</ele><time>2026-03-29T12:09:19.156Z</time></trkpt><trkpt lat="43.7774786" lon="11.0631447"><ele>40.6</ele><time>2026-03-29T12:09:20.156Z</time></trkpt><trkpt lat="43.7775179" lon="11.0630024"><ele>41.2</ele><time>2026-03-29T12:09:21.156Z</time></trkpt><trkpt lat="43.7775508" lon="11.0628831"><ele>41.8</ele><time>2026-03-29T12:09:22.156Z</time></trkpt><trkpt lat="43.7775787" lon="11.0627597"><ele>42.4</ele><time>2026-03-29T12:09:23.156Z</time></trkpt><trkpt lat="43.7775994" lon="11.0626272"><ele>43.0</ele><time>2026-03-29T12:09:24.156Z</time></trkpt><trkpt lat="43.7776205" lon="11.0624807"><ele>45.5</ele><time>2026-03-29T12:09:25.156Z</time></trkpt><trkpt lat="43.7776527" lon="11.0623301"><ele>48.0</ele><time>2026-03-29T12:09:26.156Z</time></trkpt><trkpt lat="43.7776731" lon="11.0621458"><ele>50.5</ele><time>2026-03-29T12:09:27.155Z</time></trkpt><trkpt lat="43.7776715" lon="11.0619505"><ele>53.0</ele><time>2026-03-29T12:09:28.156Z</time></trkpt><trkpt lat="43.7776647" lon="11.0617508"><ele>56.0</ele><time>2026-03-29T12:09:29.156Z</time></trkpt><trkpt lat="43.7776589" lon="11.0615391"><ele>59.0</ele><time>2026-03-29T12:09:30.156Z</time></trkpt><trkpt lat="43.7776512" lon="11.0613276"><ele>62.0</ele><time>2026-03-29T12:09:31.156Z</time></trkpt><trkpt lat="43.7776339" lon="11.0611165"><ele>62.0</ele><time>2026-03-29T12:09:32.156Z</time></trkpt><trkpt lat="43.7775914" lon="11.0609072"><ele>62.0</ele><time>2026-03-29T12:09:33.156Z</time></trkpt><trkpt lat="43.7775589" lon="11.0606836"><ele>62.0</ele><time>2026-03-29T12:09:34.156Z</time></trkpt><trkpt lat="43.7775608" lon="11.0604478"><ele>64.66666666666667</ele><time>2026-03-29T12:09:35.156Z</time></trkpt><trkpt lat="43.7775869" lon="11.0602269"><ele>67.33333333333333</ele><time>2026-03-29T12:09:36.156Z</time></trkpt><trkpt lat="43.7776379" lon="11.0599944"><ele>70.0</ele><time>2026-03-29T12:09:37.156Z</time></trkpt><trkpt lat="43.7776917" lon="11.0597681"><ele>63.5</ele><time>2026-03-29T12:09:38.156Z</time></trkpt><trkpt lat="43.7777422" lon="11.0595635"><ele>57.0</ele><time>2026-03-29T12:09:39.156Z</time></trkpt><trkpt lat="43.7778015" lon="11.0593889"><ele>50.5</ele><time>2026-03-29T12:09:40.156Z</time></trkpt><trkpt lat="43.7778515" lon="11.0592462"><ele>44.0</ele><time>2026-03-29T12:09:41.156Z</time></trkpt><trkpt lat="43.7778887" lon="11.0591204"><ele>45.400000000000006</ele><time>2026-03-29T12:09:42.156Z</time></trkpt><trkpt lat="43.7778993" lon="11.0589927"><ele>46.8</ele><time>2026-03-29T12:09:43.156Z</time></trkpt><trkpt lat="43.7778639" lon="11.0588691"><ele>48.2</ele><time>2026-03-29T12:09:44.156Z</time></trkpt><trkpt lat="43.7777839" lon="11.0588177"><ele>49.599999999999994</ele><time>2026-03-29T12:09:45.156Z</time></trkpt><trkpt lat="43.7777138" lon="11.0588307"><ele>51.0</ele><time>2026-03-29T12:09:46.156Z</time></trkpt><trkpt lat="43.777646" lon="11.0589487"><ele>57.0</ele><time>2026-03-29T12:09:47.156Z</time></trkpt><trkpt lat="43.7775976" lon="11.0590991"><ele>63.0</ele><time>2026-03-29T12:09:48.156Z</time></trkpt><trkpt lat="43.7775484" lon="11.0592889"><ele>69.0</ele><time>2026-03-29T12:09:49.156Z</time></trkpt><trkpt lat="43.7775042" lon="11.0594803"><ele>75.0</ele><time>2026-03-29T12:09:50.156Z</time></trkpt><trkpt lat="43.7774504" lon="11.0596776"><ele>75.0</ele><time>2026-03-29T12:09:51.156Z</time></trkpt><trkpt lat="43.777395" lon="11.0598354"><ele>75.0</ele><time>2026-03-29T12:09:52.156Z</time></trkpt><trkpt lat="43.777324" lon="11.0599446"><ele>75.0</ele><time>2026-03-29T12:09:53.156Z</time></trkpt><trkpt lat="43.7772369" lon="11.0600263"><ele>75.0</ele><time>2026-03-29T12:09:54.156Z</time></trkpt><trkpt lat="43.7771218" lon="11.0600673"><ele>73.75</ele><time>2026-03-29T12:09:55.156Z</time></trkpt><trkpt lat="43.7769886" lon="11.0600543"><ele>72.5</ele><time>2026-03-29T12:09:56.155Z</time></trkpt><trkpt lat="43.7768438" lon="11.0600189"><ele>71.25</ele><time>2026-03-29T12:09:57.156Z</time></trkpt><trkpt lat="43.776701" lon="11.0599359"><ele>70.0</ele><time>2026-03-29T12:09:58.156Z</time></trkpt><trkpt lat="43.7765838" lon="11.0598792"><ele>73.2</ele><time>2026-03-29T12:09:59.156Z</time></trkpt><trkpt lat="43.7764928" lon="11.0598932"><ele>76.4</ele><time>2026-03-29T12:10:00.156Z</time></trkpt><trkpt lat="43.7764184" lon="11.0599782"><ele>79.6</ele><time>2026-03-29T12:10:01.155Z</time></trkpt><trkpt lat="43.776376" lon="11.0601081"><ele>82.8</ele><time>2026-03-29T12:10:02.156Z</time></trkpt><trkpt lat="43.7763542" lon="11.0602724"><ele>86.0</ele><time>2026-03-29T12:10:03.156Z</time></trkpt><trkpt lat="43.7763174" lon="11.0604585"><ele>86.0</ele><time>2026-03-29T12:10:04.156Z</time></trkpt><trkpt lat="43.7762589" lon="11.0606231"><ele>86.0</ele><time>2026-03-29T12:10:05.156Z</time></trkpt><trkpt lat="43.7761665" lon="11.0607404"><ele>86.0</ele><time>2026-03-29T12:10:06.156Z</time></trkpt><trkpt lat="43.7760295" lon="11.0607975"><ele>86.0</ele><time>2026-03-29T12:10:07.156Z</time></trkpt><trkpt lat="43.7759043" lon="11.0608213"><ele>88.0</ele><time>2026-03-29T12:10:08.156Z</time></trkpt><trkpt lat="43.7758004" lon="11.0608438"><ele>90.0</ele><time>2026-03-29T12:10:09.156Z</time></trkpt><trkpt lat="43.7757025" lon="11.0608199"><ele>92.0</ele><time>2026-03-29T12:10:10.155Z</time></trkpt><trkpt lat="43.7755889" lon="11.0607653"><ele>94.0</ele><time>2026-03-29T12:10:11.156Z</time></trkpt><trkpt lat="43.7754669" lon="11.0606907"><ele>94.5</ele><time>2026-03-29T12:10:12.156Z</time></trkpt><trkpt lat="43.7753576" lon="11.0605845"><ele>95.0</ele><time>2026-03-29T12:10:13.156Z</time></trkpt><trkpt lat="43.7752453" lon="11.0604408"><ele>95.5</ele><time>2026-03-29T12:10:14.156Z</time></trkpt><trkpt lat="43.7751465" lon="11.0602817"><ele>96.0</ele><time>2026-03-29T12:10:15.156Z</time></trkpt><trkpt lat="43.7750547" lon="11.0601277"><ele>96.0</ele><time>2026-03-29T12:10:16.156Z</time></trkpt><trkpt lat="43.774939" lon="11.0600071"><ele>96.0</ele><time>2026-03-29T12:10:17.156Z</time></trkpt><trkpt lat="43.7747931" lon="11.0599367"><ele>96.0</ele><time>2026-03-29T12:10:18.156Z</time></trkpt><trkpt lat="43.7746559" lon="11.0598605"><ele>96.0</ele><time>2026-03-29T12:10:19.156Z</time></trkpt><trkpt lat="43.7745447" lon="11.0597559"><ele>100.5</ele><time>2026-03-29T12:10:20.156Z</time></trkpt><trkpt lat="43.7744424" lon="11.0596666"><ele>105.0</ele><time>2026-03-29T12:10:21.156Z</time></trkpt><trkpt lat="43.7743319" lon="11.059644"><ele>109.5</ele><time>2026-03-29T12:10:22.156Z</time></trkpt><trkpt lat="43.7742278" lon="11.0597279"><ele>114.0</ele><time>2026-03-29T12:10:23.156Z</time></trkpt><trkpt lat="43.7741128" lon="11.0598634"><ele>106.66666666666667</ele><time>2026-03-29T12:10:24.156Z</time></trkpt><trkpt lat="43.7739885" lon="11.0600138"><ele>99.33333333333334</ele><time>2026-03-29T12:10:25.156Z</time></trkpt><trkpt lat="43.773859" lon="11.0601382"><ele>92.0</ele><time>2026-03-29T12:10:26.156Z</time></trkpt><trkpt lat="43.7737304" lon="11.0602274"><ele>92.0</ele><time>2026-03-29T12:10:27.156Z</time></trkpt><trkpt lat="43.7736052" lon="11.0602772"><ele>92.0</ele><time>2026-03-29T12:10:28.156Z</time></trkpt><trkpt lat="43.773455" lon="11.060261"><ele>92.0</ele><time>2026-03-29T12:10:29.156Z</time></trkpt><trkpt lat="43.7733005" lon="11.0602062"><ele>92.0</ele><time>2026-03-29T12:10:30.156Z</time></trkpt><trkpt lat="43.773143" lon="11.0600809"><ele>93.33333333333334</ele><time>2026-03-29T12:10:31.156Z</time></trkpt><trkpt lat="43.7730033" lon="11.0599847"><ele>94.66666666666667</ele><time>2026-03-29T12:10:32.156Z</time></trkpt><trkpt lat="43.7728636" lon="11.0599284"><ele>96.0</ele><time>2026-03-29T12:10:33.156Z</time></trkpt><trkpt lat="43.7727096" lon="11.0598953"><ele>98.25</ele><time>2026-03-29T12:10:34.156Z</time></trkpt><trkpt lat="43.7725597" lon="11.0598546"><ele>100.5</ele><time>2026-03-29T12:10:35.156Z</time></trkpt><trkpt lat="43.7724297" lon="11.0598021"><ele>102.75</ele><time>2026-03-29T12:10:36.156Z</time></trkpt><trkpt lat="43.7723123" lon="11.0597326"><ele>105.0</ele><time>2026-03-29T12:10:37.155Z</time></trkpt><trkpt lat="43.772214" lon="11.0596416"><ele>105.0</ele><time>2026-03-29T12:10:38.156Z</time></trkpt><trkpt lat="43.7721264" lon="11.0595276"><ele>105.0</ele><time>2026-03-29T12:10:39.156Z</time></trkpt><trkpt lat="43.7720397" lon="11.0594204"><ele>105.0</ele><time>2026-03-29T12:10:40.156Z</time></trkpt><trkpt lat="43.7719555" lon="11.0593232"><ele>105.0</ele><time>2026-03-29T12:10:41.156Z</time></trkpt><trkpt lat="43.7718774" lon="11.0592304"><ele>105.0</ele><time>2026-03-29T12:10:42.156Z</time></trkpt><trkpt lat="43.771805" lon="11.0591347"><ele>99.75</ele><time>2026-03-29T12:10:43.156Z</time></trkpt><trkpt lat="43.7717461" lon="11.0590163"><ele>94.5</ele><time>2026-03-29T12:10:44.156Z</time></trkpt><trkpt lat="43.7717027" lon="11.0588687"><ele>89.25</ele><time>2026-03-29T12:10:45.156Z</time></trkpt><trkpt lat="43.7716874" lon="11.0586899"><ele>84.0</ele><time>2026-03-29T12:10:46.156Z</time></trkpt><trkpt lat="43.7716932" lon="11.0585132"><ele>84.0</ele><time>2026-03-29T12:10:47.156Z</time></trkpt><trkpt lat="43.7717267" lon="11.0583463"><ele>84.0</ele><time>2026-03-29T12:10:48.155Z</time></trkpt><trkpt lat="43.7717909" lon="11.0582152"><ele>84.0</ele><time>2026-03-29T12:10:49.156Z</time></trkpt><trkpt lat="43.7718756" lon="11.0581192"><ele>84.0</ele><time>2026-03-29T12:10:50.156Z</time></trkpt><trkpt lat="43.7719512" lon="11.0580257"><ele>85.4</ele><time>2026-03-29T12:10:51.156Z</time></trkpt><trkpt lat="43.7719621" lon="11.0579029"><ele>86.80000000000001</ele><time>2026-03-29T12:10:52.156Z</time></trkpt><trkpt lat="43.7719112" lon="11.0577867"><ele>88.19999999999999</ele><time>2026-03-29T12:10:53.156Z</time></trkpt><trkpt lat="43.7718123" lon="11.0576726"><ele>89.6</ele><time>2026-03-29T12:10:54.156Z</time></trkpt><trkpt lat="43.7717083" lon="11.0575806"><ele>91.0</ele><time>2026-03-29T12:10:55.156Z</time></trkpt><trkpt lat="43.7716054" lon="11.0574891"><ele>92.6</ele><time>2026-03-29T12:10:56.156Z</time></trkpt><trkpt lat="43.7714945" lon="11.0574444"><ele>94.19999999999999</ele><time>2026-03-29T12:10:57.156Z</time></trkpt><trkpt lat="43.7713837" lon="11.0574213"><ele>95.80000000000001</ele><time>2026-03-29T12:10:58.156Z</time></trkpt><trkpt lat="43.7712813" lon="11.0574114"><ele>97.4</ele><time>2026-03-29T12:10:59.155Z</time></trkpt><trkpt lat="43.7711829" lon="11.0573873"><ele>99.0</ele><time>2026-03-29T12:11:00.156Z</time></trkpt><trkpt lat="43.7711044" lon="11.0573342"><ele>99.0</ele><time>2026-03-29T12:11:01.156Z</time></trkpt><trkpt lat="43.7710596" lon="11.0572226"><ele>99.0</ele><time>2026-03-29T12:11:02.156Z</time></trkpt><trkpt lat="43.7710539" lon="11.0571079"><ele>99.0</ele><time>2026-03-29T12:11:03.156Z</time></trkpt><trkpt lat="43.7711013" lon="11.0569905"><ele>99.0</ele><time>2026-03-29T12:11:04.156Z</time></trkpt><trkpt lat="43.7711692" lon="11.056897"><ele>99.0</ele><time>2026-03-29T12:11:05.156Z</time></trkpt><trkpt lat="43.7712588" lon="11.0568024"><ele>99.0</ele><time>2026-03-29T12:11:06.156Z</time></trkpt><trkpt lat="43.7713323" lon="11.0566905"><ele>99.0</ele><time>2026-03-29T12:11:07.156Z</time></trkpt><trkpt lat="43.771393" lon="11.0565426"><ele>99.0</ele><time>2026-03-29T12:11:08.156Z</time></trkpt><trkpt lat="43.7713912" lon="11.0563935"><ele>99.0</ele><time>2026-03-29T12:11:09.156Z</time></trkpt><trkpt lat="43.7713319" lon="11.0562645"><ele>101.25</ele><time>2026-03-29T12:11:10.156Z</time></trkpt><trkpt lat="43.7712288" lon="11.0561589"><ele>103.5</ele><time>2026-03-29T12:11:11.156Z</time></trkpt><trkpt lat="43.7711197" lon="11.0560834"><ele>105.75</ele><time>2026-03-29T12:11:12.156Z</time></trkpt><trkpt lat="43.7710108" lon="11.0560226"><ele>108.0</ele><time>2026-03-29T12:11:13.156Z</time></trkpt><trkpt lat="43.7709228" lon="11.0559481"><ele>99.5</ele><time>2026-03-29T12:11:14.156Z</time></trkpt><trkpt lat="43.7708695" lon="11.0558179"><ele>91.0</ele><time>2026-03-29T12:11:15.156Z</time></trkpt><trkpt lat="43.7708721" lon="11.0556776"><ele>82.5</ele><time>2026-03-29T12:11:16.156Z</time></trkpt><trkpt lat="43.7709069" lon="11.0555154"><ele>74.0</ele><time>2026-03-29T12:11:17.156Z</time></trkpt><trkpt lat="43.7709597" lon="11.0553569"><ele>74.0</ele><time>2026-03-29T12:11:18.156Z</time></trkpt><trkpt lat="43.7710155" lon="11.055199"><ele>74.0</ele><time>2026-03-29T12:11:19.156Z</time></trkpt><trkpt lat="43.7710499" lon="11.0550644"><ele>74.0</ele><time>2026-03-29T12:11:20.156Z</time></trkpt><trkpt lat="43.7710512" lon="11.054937"><ele>74.0</ele><time>2026-03-29T12:11:21.156Z</time></trkpt><trkpt lat="43.771004" lon="11.0548177"><ele>74.0</ele><time>2026-03-29T12:11:22.156Z</time></trkpt><trkpt lat="43.7709128" lon="11.0547571"><ele>77.5</ele><time>2026-03-29T12:11:23.156Z</time></trkpt><trkpt lat="43.7708029" lon="11.0547296"><ele>81.0</ele><time>2026-03-29T12:11:24.156Z</time></trkpt><trkpt lat="43.7706935" lon="11.0547419"><ele>84.5</ele><time>2026-03-29T12:11:25.156Z</time></trkpt><trkpt lat="43.7705758" lon="11.0547606"><ele>88.0</ele><time>2026-03-29T12:11:26.156Z</time></trkpt><trkpt lat="43.7704514" lon="11.0547794"><ele>88.0</ele><time>2026-03-29T12:11:27.156Z</time></trkpt><trkpt lat="43.7703216" lon="11.0547882"><ele>88.0</ele><time>2026-03-29T12:11:28.156Z</time></trkpt><trkpt lat="43.7701889" lon="11.0548082"><ele>88.0</ele><time>2026-03-29T12:11:29.156Z</time></trkpt><trkpt lat="43.770057" lon="11.0548536"><ele>88.0</ele><time>2026-03-29T12:11:30.156Z</time></trkpt><trkpt lat="43.7699417" lon="11.0549156"><ele>85.4</ele><time>2026-03-29T12:11:31.156Z</time></trkpt><trkpt lat="43.7698506" lon="11.0549764"><ele>82.80000000000001</ele><time>2026-03-29T12:11:32.156Z</time></trkpt><trkpt lat="43.7697678" lon="11.0550306"><ele>80.2</ele><time>2026-03-29T12:11:33.156Z</time></trkpt><trkpt lat="43.7696968" lon="11.0550812"><ele>77.6</ele><time>2026-03-29T12:11:34.156Z</time></trkpt><trkpt lat="43.7695928" lon="11.0551342"><ele>75.0</ele><time>2026-03-29T12:11:36.156Z</time></trkpt><trkpt lat="43.7694971" lon="11.055102"><ele>75.0</ele><time>2026-03-29T12:11:38.156Z</time></trkpt><trkpt lat="43.7694884" lon="11.0550104"><ele>75.0</ele><time>2026-03-29T12:11:39.156Z</time></trkpt><trkpt lat="43.7695149" lon="11.0548852"><ele>75.0</ele><time>2026-03-29T12:11:40.156Z</time></trkpt><trkpt lat="43.7695728" lon="11.0547758"><ele>75.0</ele><time>2026-03-29T12:11:41.156Z</time></trkpt><trkpt lat="43.7696377" lon="11.0546663"><ele>75.0</ele><time>2026-03-29T12:11:42.156Z</time></trkpt><trkpt lat="43.7696992" lon="11.054553"><ele>78.5</ele><time>2026-03-29T12:11:43.156Z</time></trkpt><trkpt lat="43.7697708" lon="11.0544208"><ele>82.0</ele><time>2026-03-29T12:11:44.156Z</time></trkpt><trkpt lat="43.7698634" lon="11.0543116"><ele>85.5</ele><time>2026-03-29T12:11:45.156Z</time></trkpt><trkpt lat="43.7699571" lon="11.0541704"><ele>89.0</ele><time>2026-03-29T12:11:46.156Z</time></trkpt><trkpt lat="43.7700433" lon="11.0540327"><ele>89.6</ele><time>2026-03-29T12:11:47.156Z</time></trkpt><trkpt lat="43.770119" lon="11.0538998"><ele>90.2</ele><time>2026-03-29T12:11:48.156Z</time></trkpt><trkpt lat="43.7701889" lon="11.0537791"><ele>90.8</ele><time>2026-03-29T12:11:49.156Z</time></trkpt><trkpt lat="43.770258" lon="11.0536807"><ele>91.39999999999999</ele><time>2026-03-29T12:11:50.155Z</time></trkpt><trkpt lat="43.7703254" lon="11.0535995"><ele>92.0</ele><time>2026-03-29T12:11:51.156Z</time></trkpt><trkpt lat="43.7704251" lon="11.0535625"><ele>94.6</ele><time>2026-03-29T12:11:52.156Z</time></trkpt><trkpt lat="43.7705305" lon="11.0535201"><ele>97.19999999999999</ele><time>2026-03-29T12:11:53.156Z</time></trkpt><trkpt lat="43.7706226" lon="11.0534766"><ele>99.8</ele><time>2026-03-29T12:11:54.156Z</time></trkpt><trkpt lat="43.770711" lon="11.053427"><ele>102.4</ele><time>2026-03-29T12:11:55.156Z</time></trkpt><trkpt lat="43.7707973" lon="11.0533857"><ele>105.0</ele><time>2026-03-29T12:11:56.156Z</time></trkpt><trkpt lat="43.7708954" lon="11.0533429"><ele>105.0</ele><time>2026-03-29T12:11:57.156Z</time></trkpt><trkpt lat="43.7709929" lon="11.0533011"><ele>105.0</ele><time>2026-03-29T12:11:58.156Z</time></trkpt><trkpt lat="43.7710873" lon="11.0532572"><ele>105.0</ele><time>2026-03-29T12:11:59.156Z</time></trkpt><trkpt lat="43.7711741" lon="11.053213"><ele>105.0</ele><time>2026-03-29T12:12:00.156Z</time></trkpt><trkpt lat="43.7712486" lon="11.0531772"><ele>105.0</ele><time>2026-03-29T12:12:01.156Z</time></trkpt><trkpt lat="43.7713043" lon="11.0531312"><ele>105.0</ele><time>2026-03-29T12:12:02.156Z</time></trkpt><trkpt lat="43.7713159" lon="11.0530295"><ele>105.0</ele><time>2026-03-29T12:12:04.156Z</time></trkpt><trkpt lat="43.7712688" lon="11.0531482"><ele>105.0</ele><time>2026-03-29T12:12:12.156Z</time></trkpt><trkpt lat="43.7711981" lon="11.053184"><ele>105.0</ele><time>2026-03-29T12:12:13.156Z</time></trkpt><trkpt lat="43.7711246" lon="11.0532257"><ele>105.0</ele><time>2026-03-29T12:12:14.156Z</time></trkpt><trkpt lat="43.7710468" lon="11.0532726"><ele>105.0</ele><time>2026-03-29T12:12:15.156Z</time></trkpt><trkpt lat="43.770972" lon="11.053316"><ele>105.0</ele><time>2026-03-29T12:12:16.156Z</time></trkpt><trkpt lat="43.7708957" lon="11.0533542"><ele>105.0</ele><time>2026-03-29T12:12:17.156Z</time></trkpt><trkpt lat="43.7708097" lon="11.0533854"><ele>105.0</ele><time>2026-03-29T12:12:18.156Z</time></trkpt><trkpt lat="43.7707253" lon="11.0534116"><ele>105.0</ele><time>2026-03-29T12:12:19.156Z</time></trkpt><trkpt lat="43.7706354" lon="11.0534458"><ele>105.0</ele><time>2026-03-29T12:12:20.156Z</time></trkpt><trkpt lat="43.7705511" lon="11.0534869"><ele>105.0</ele><time>2026-03-29T12:12:21.156Z</time></trkpt><trkpt lat="43.7704761" lon="11.0535294"><ele>105.0</ele><time>2026-03-29T12:12:22.156Z</time></trkpt><trkpt lat="43.7704098" lon="11.0535606"><ele>105.0</ele><time>2026-03-29T12:12:23.156Z</time></trkpt><trkpt lat="43.7703455" lon="11.0535931"><ele>105.0</ele><time>2026-03-29T12:12:24.156Z</time></trkpt><trkpt lat="43.7702251" lon="11.0536506"><ele>105.0</ele><time>2026-03-29T12:12:26.156Z</time></trkpt><trkpt lat="43.7701676" lon="11.05369"><ele>105.0</ele><time>2026-03-29T12:12:27.156Z</time></trkpt><trkpt lat="43.7700944" lon="11.0538066"><ele>105.0</ele><time>2026-03-29T12:12:29.156Z</time></trkpt><trkpt lat="43.7700271" lon="11.0538042"><ele>105.0</ele><time>2026-03-29T12:12:34.156Z</time></trkpt><trkpt lat="43.7700172" lon="11.0536865"><ele>103.33333333333333</ele><time>2026-03-29T12:12:36.156Z</time></trkpt><trkpt lat="43.7700148" lon="11.0535948"><ele>101.66666666666667</ele><time>2026-03-29T12:12:37.156Z</time></trkpt><trkpt lat="43.7700119" lon="11.0535001"><ele>100.0</ele><time>2026-03-29T12:12:38.156Z</time></trkpt><trkpt lat="43.7700107" lon="11.0534093"><ele>98.33333333333334</ele><time>2026-03-29T12:12:39.155Z</time></trkpt><trkpt lat="43.7700036" lon="11.0532957"><ele>96.66666666666667</ele><time>2026-03-29T12:12:40.155Z</time></trkpt><trkpt lat="43.7699873" lon="11.0531705"><ele>95.0</ele><time>2026-03-29T12:12:41.156Z</time></trkpt><trkpt lat="43.769955" lon="11.0530708"><ele>95.0</ele><time>2026-03-29T12:12:42.156Z</time></trkpt><trkpt lat="43.7698798" lon="11.0529762"><ele>95.0</ele><time>2026-03-29T12:12:43.156Z</time></trkpt><trkpt lat="43.7697875" lon="11.0528642"><ele>95.0</ele><time>2026-03-29T12:12:44.156Z</time></trkpt><trkpt lat="43.7696904" lon="11.0527657"><ele>95.0</ele><time>2026-03-29T12:12:45.156Z</time></trkpt><trkpt lat="43.7695785" lon="11.0526788"><ele>95.0</ele><time>2026-03-29T12:12:46.156Z</time></trkpt><trkpt lat="43.7694719" lon="11.0526223"><ele>95.0</ele><time>2026-03-29T12:12:47.156Z</time></trkpt><trkpt lat="43.7693508" lon="11.052596"><ele>95.0</ele><time>2026-03-29T12:12:48.156Z</time></trkpt><trkpt lat="43.7692176" lon="11.0525965"><ele>95.0</ele><time>2026-03-29T12:12:49.156Z</time></trkpt><trkpt lat="43.7691027" lon="11.0525838"><ele>94.2</ele><time>2026-03-29T12:12:50.156Z</time></trkpt><trkpt lat="43.7690045" lon="11.0525452"><ele>93.4</ele><time>2026-03-29T12:12:51.156Z</time></trkpt><trkpt lat="43.768907" lon="11.0525136"><ele>92.6</ele><time>2026-03-29T12:12:52.156Z</time></trkpt><trkpt lat="43.7687959" lon="11.0524914"><ele>91.8</ele><time>2026-03-29T12:12:53.156Z</time></trkpt><trkpt lat="43.7686824" lon="11.0524993"><ele>91.0</ele><time>2026-03-29T12:12:54.156Z</time></trkpt><trkpt lat="43.7685843" lon="11.05253"><ele>90.8</ele><time>2026-03-29T12:12:55.156Z</time></trkpt><trkpt lat="43.7684921" lon="11.0525607"><ele>90.6</ele><time>2026-03-29T12:12:56.156Z</time></trkpt><trkpt lat="43.7684093" lon="11.0525995"><ele>90.4</ele><time>2026-03-29T12:12:57.156Z</time></trkpt><trkpt lat="43.7683186" lon="11.0526451"><ele>90.2</ele><time>2026-03-29T12:12:58.155Z</time></trkpt><trkpt lat="43.7682311" lon="11.0526997"><ele>90.0</ele><time>2026-03-29T12:12:59.156Z</time></trkpt><trkpt lat="43.768142" lon="11.0527489"><ele>90.0</ele><time>2026-03-29T12:13:00.156Z</time></trkpt><trkpt lat="43.7680583" lon="11.0527868"><ele>90.0</ele><time>2026-03-29T12:13:01.156Z</time></trkpt><trkpt lat="43.7679824" lon="11.05282"><ele>90.0</ele><time>2026-03-29T12:13:02.156Z</time></trkpt><trkpt lat="43.7679195" lon="11.0528329"><ele>90.0</ele><time>2026-03-29T12:13:03.156Z</time></trkpt><trkpt lat="43.7677985" lon="11.0527771"><ele>90.0</ele><time>2026-03-29T12:13:05.156Z</time></trkpt><trkpt lat="43.7677254" lon="11.0527369"><ele>90.0</ele><time>2026-03-29T12:13:06.156Z</time></trkpt><trkpt lat="43.7676547" lon="11.0526984"><ele>89.14285714285714</ele><time>2026-03-29T12:13:07.156Z</time></trkpt><trkpt lat="43.7675841" lon="11.0526566"><ele>88.28571428571429</ele><time>2026-03-29T12:13:08.156Z</time></trkpt><trkpt lat="43.767519" lon="11.0526116"><ele>87.42857142857143</ele><time>2026-03-29T12:13:09.156Z</time></trkpt><trkpt lat="43.767447" lon="11.0525744"><ele>86.57142857142857</ele><time>2026-03-29T12:13:10.156Z</time></trkpt><trkpt lat="43.7673823" lon="11.0525533"><ele>85.71428571428572</ele><time>2026-03-29T12:13:11.156Z</time></trkpt><trkpt lat="43.7673148" lon="11.0525434"><ele>84.85714285714286</ele><time>2026-03-29T12:13:12.156Z</time></trkpt><trkpt lat="43.7672476" lon="11.0525426"><ele>84.0</ele><time>2026-03-29T12:13:13.156Z</time></trkpt><trkpt lat="43.7671747" lon="11.0525572"><ele>84.0</ele><time>2026-03-29T12:13:14.156Z</time></trkpt><trkpt lat="43.7671019" lon="11.0525755"><ele>84.0</ele><time>2026-03-29T12:13:15.156Z</time></trkpt><trkpt lat="43.7670342" lon="11.0525838"><ele>84.0</ele><time>2026-03-29T12:13:16.156Z</time></trkpt><trkpt lat="43.7669707" lon="11.0525933"><ele>84.0</ele><time>2026-03-29T12:13:17.156Z</time></trkpt><trkpt lat="43.7669074" lon="11.0526114"><ele>84.0</ele><time>2026-03-29T12:13:18.156Z</time></trkpt><trkpt lat="43.7668445" lon="11.0526296"><ele>84.0</ele><time>2026-03-29T12:13:19.156Z</time></trkpt><trkpt lat="43.7667211" lon="11.0526596"><ele>83.5</ele><time>2026-03-29T12:13:21.156Z</time></trkpt><trkpt lat="43.7666207" lon="11.0526912"><ele>83.0</ele><time>2026-03-29T12:13:23.156Z</time></trkpt><trkpt lat="43.7665476" lon="11.0526918"><ele>82.5</ele><time>2026-03-29T12:13:25.155Z</time></trkpt><trkpt lat="43.7664618" lon="11.0526916"><ele>82.0</ele><time>2026-03-29T12:13:27.156Z</time></trkpt><trkpt lat="43.7663788" lon="11.0526872"><ele>81.5</ele><time>2026-03-29T12:13:29.155Z</time></trkpt><trkpt lat="43.7663025" lon="11.0526865"><ele>81.0</ele><time>2026-03-29T12:13:31.156Z</time></trkpt><trkpt lat="43.7662835" lon="11.0525656"><ele>81.0</ele><time>2026-03-29T12:13:34.156Z</time></trkpt><trkpt lat="43.7663441" lon="11.0524602"><ele>81.0</ele><time>2026-03-29T12:13:36.156Z</time></trkpt><trkpt lat="43.7663819" lon="11.0523903"><ele>81.0</ele><time>2026-03-29T12:13:37.156Z</time></trkpt><trkpt lat="43.7664258" lon="11.0522974"><ele>81.0</ele><time>2026-03-29T12:13:38.156Z</time></trkpt><trkpt lat="43.766464" lon="11.0521982"><ele>81.0</ele><time>2026-03-29T12:13:39.156Z</time></trkpt><trkpt lat="43.7665045" lon="11.0520987"><ele>81.0</ele><time>2026-03-29T12:13:40.156Z</time></trkpt><trkpt lat="43.7665392" lon="11.0519964"><ele>80.83333333333333</ele><time>2026-03-29T12:13:41.155Z</time></trkpt><trkpt lat="43.7665618" lon="11.0519086"><ele>80.66666666666667</ele><time>2026-03-29T12:13:42.156Z</time></trkpt><trkpt lat="43.7665645" lon="11.0517484"><ele>80.5</ele><time>2026-03-29T12:13:44.156Z</time></trkpt><trkpt lat="43.7665328" lon="11.0516714"><ele>80.33333333333334</ele><time>2026-03-29T12:13:45.156Z</time></trkpt><trkpt lat="43.7664769" lon="11.0516008"><ele>80.16666666666667</ele><time>2026-03-29T12:13:46.156Z</time></trkpt><trkpt lat="43.7664035" lon="11.0515335"><ele>80.0</ele><time>2026-03-29T12:13:47.156Z</time></trkpt><trkpt lat="43.7663322" lon="11.0514532"><ele>78.6</ele><time>2026-03-29T12:13:48.155Z</time></trkpt><trkpt lat="43.7662653" lon="11.0513664"><ele>77.2</ele><time>2026-03-29T12:13:49.156Z</time></trkpt><trkpt lat="43.7661977" lon="11.051275"><ele>75.8</ele><time>2026-03-29T12:13:50.156Z</time></trkpt><trkpt lat="43.7661322" lon="11.0511653"><ele>74.4</ele><time>2026-03-29T12:13:51.156Z</time></trkpt><trkpt lat="43.7660668" lon="11.0510504"><ele>73.0</ele><time>2026-03-29T12:13:52.156Z</time></trkpt><trkpt lat="43.7659963" lon="11.0509263"><ele>73.0</ele><time>2026-03-29T12:13:53.156Z</time></trkpt><trkpt lat="43.7659327" lon="11.050802"><ele>73.0</ele><time>2026-03-29T12:13:54.156Z</time></trkpt><trkpt lat="43.7658721" lon="11.0506802"><ele>73.0</ele><time>2026-03-29T12:13:55.156Z</time></trkpt><trkpt lat="43.7658164" lon="11.0505797"><ele>73.0</ele><time>2026-03-29T12:13:56.156Z</time></trkpt><trkpt lat="43.7657537" lon="11.0504841"><ele>73.0</ele><time>2026-03-29T12:13:57.156Z</time></trkpt><trkpt lat="43.7656941" lon="11.0503974"><ele>72.66666666666666</ele><time>2026-03-29T12:13:58.156Z</time></trkpt><trkpt lat="43.7656357" lon="11.0503029"><ele>72.33333333333333</ele><time>2026-03-29T12:13:59.156Z</time></trkpt><trkpt lat="43.7655839" lon="11.0502071"><ele>72.0</ele><time>2026-03-29T12:14:00.156Z</time></trkpt><trkpt lat="43.765527" lon="11.0501145"><ele>71.66666666666667</ele><time>2026-03-29T12:14:01.156Z</time></trkpt><trkpt lat="43.7654694" lon="11.0500243"><ele>71.33333333333334</ele><time>2026-03-29T12:14:02.156Z</time></trkpt><trkpt lat="43.7654074" lon="11.0499393"><ele>71.0</ele><time>2026-03-29T12:14:03.156Z</time></trkpt><trkpt lat="43.7653507" lon="11.0498628"><ele>71.0</ele><time>2026-03-29T12:14:04.156Z</time></trkpt><trkpt lat="43.7652947" lon="11.0497895"><ele>71.0</ele><time>2026-03-29T12:14:05.156Z</time></trkpt><trkpt lat="43.765246" lon="11.0497228"><ele>71.0</ele><time>2026-03-29T12:14:06.156Z</time></trkpt><trkpt lat="43.7652055" lon="11.0496522"><ele>71.0</ele><time>2026-03-29T12:14:07.156Z</time></trkpt><trkpt lat="43.7651691" lon="11.0495645"><ele>71.0</ele><time>2026-03-29T12:14:08.156Z</time></trkpt><trkpt lat="43.765126" lon="11.0494611"><ele>71.0</ele><time>2026-03-29T12:14:09.156Z</time></trkpt><trkpt lat="43.7650805" lon="11.0493466"><ele>68.6</ele><time>2026-03-29T12:14:10.156Z</time></trkpt><trkpt lat="43.7650463" lon="11.0492247"><ele>66.19999999999999</ele><time>2026-03-29T12:14:11.156Z</time></trkpt><trkpt lat="43.7650196" lon="11.0490915"><ele>63.800000000000004</ele><time>2026-03-29T12:14:12.156Z</time></trkpt><trkpt lat="43.7650104" lon="11.0489455"><ele>61.400000000000006</ele><time>2026-03-29T12:14:13.156Z</time></trkpt><trkpt lat="43.7650007" lon="11.0488028"><ele>59.0</ele><time>2026-03-29T12:14:14.156Z</time></trkpt><trkpt lat="43.7649851" lon="11.0486618"><ele>58.0</ele><time>2026-03-29T12:14:15.156Z</time></trkpt><trkpt lat="43.7649634" lon="11.0485315"><ele>57.00000000000001</ele><time>2026-03-29T12:14:16.156Z</time></trkpt><trkpt lat="43.7649432" lon="11.0483985"><ele>56.00000000000001</ele><time>2026-03-29T12:14:17.156Z</time></trkpt><trkpt lat="43.7649219" lon="11.0482742"><ele>55.0</ele><time>2026-03-29T12:14:18.156Z</time></trkpt><trkpt lat="43.7649015" lon="11.0481447"><ele>54.0</ele><time>2026-03-29T12:14:19.156Z</time></trkpt><trkpt lat="43.764874" lon="11.048016"><ele>53.0</ele><time>2026-03-29T12:14:20.155Z</time></trkpt><trkpt lat="43.7648443" lon="11.047888"><ele>52.0</ele><time>2026-03-29T12:14:21.156Z</time></trkpt><trkpt lat="43.7648113" lon="11.047764"><ele>51.0</ele><time>2026-03-29T12:14:22.156Z</time></trkpt><trkpt lat="43.7647807" lon="11.0476477"><ele>50.0</ele><time>2026-03-29T12:14:23.156Z</time></trkpt><trkpt lat="43.7647558" lon="11.0475428"><ele>49.0</ele><time>2026-03-29T12:14:24.156Z</time></trkpt><trkpt lat="43.7647485" lon="11.0474521"><ele>48.0</ele><time>2026-03-29T12:14:25.156Z</time></trkpt><trkpt lat="43.764808" lon="11.0472933"><ele>50.0</ele><time>2026-03-29T12:14:27.156Z</time></trkpt><trkpt lat="43.7648673" lon="11.0472177"><ele>52.0</ele><time>2026-03-29T12:14:28.156Z</time></trkpt><trkpt lat="43.7649368" lon="11.0471386"><ele>54.0</ele><time>2026-03-29T12:14:29.156Z</time></trkpt><trkpt lat="43.7650204" lon="11.0470505"><ele>56.0</ele><time>2026-03-29T12:14:30.156Z</time></trkpt><trkpt lat="43.7651289" lon="11.0469602"><ele>58.0</ele><time>2026-03-29T12:14:31.156Z</time></trkpt><trkpt lat="43.7652489" lon="11.046865"><ele>58.0</ele><time>2026-03-29T12:14:32.156Z</time></trkpt><trkpt lat="43.7653657" lon="11.0467687"><ele>58.0</ele><time>2026-03-29T12:14:33.156Z</time></trkpt><trkpt lat="43.765493" lon="11.0466633"><ele>58.0</ele><time>2026-03-29T12:14:34.156Z</time></trkpt><trkpt lat="43.7656197" lon="11.0465638"><ele>58.0</ele><time>2026-03-29T12:14:35.156Z</time></trkpt><trkpt lat="43.7657371" lon="11.0464472"><ele>60.25</ele><time>2026-03-29T12:14:36.156Z</time></trkpt><trkpt lat="43.7658408" lon="11.0463201"><ele>62.5</ele><time>2026-03-29T12:14:37.156Z</time></trkpt><trkpt lat="43.7659349" lon="11.0461907"><ele>64.75</ele><time>2026-03-29T12:14:38.156Z</time></trkpt><trkpt lat="43.7660282" lon="11.0460641"><ele>67.0</ele><time>2026-03-29T12:14:39.156Z</time></trkpt><trkpt lat="43.7661059" lon="11.0459262"><ele>60.25</ele><time>2026-03-29T12:14:40.156Z</time></trkpt><trkpt lat="43.7661887" lon="11.0457748"><ele>53.5</ele><time>2026-03-29T12:14:41.156Z</time></trkpt><trkpt lat="43.766276" lon="11.0456168"><ele>46.75</ele><time>2026-03-29T12:14:42.156Z</time></trkpt><trkpt lat="43.7663582" lon="11.045466"><ele>40.0</ele><time>2026-03-29T12:14:43.156Z</time></trkpt><trkpt lat="43.7664376" lon="11.0453301"><ele>40.0</ele><time>2026-03-29T12:14:44.156Z</time></trkpt><trkpt lat="43.7665163" lon="11.0452036"><ele>40.0</ele><time>2026-03-29T12:14:45.156Z</time></trkpt><trkpt lat="43.7666005" lon="11.0450923"><ele>40.0</ele><time>2026-03-29T12:14:46.156Z</time></trkpt><trkpt lat="43.7666946" lon="11.0449954"><ele>40.0</ele><time>2026-03-29T12:14:47.156Z</time></trkpt><trkpt lat="43.7667791" lon="11.0449099"><ele>38.2</ele><time>2026-03-29T12:14:48.156Z</time></trkpt><trkpt lat="43.7668421" lon="11.0448356"><ele>36.4</ele><time>2026-03-29T12:14:49.155Z</time></trkpt><trkpt lat="43.7668999" lon="11.0447346"><ele>34.6</ele><time>2026-03-29T12:14:50.156Z</time></trkpt><trkpt lat="43.7669578" lon="11.0446146"><ele>32.8</ele><time>2026-03-29T12:14:51.156Z</time></trkpt><trkpt lat="43.7670168" lon="11.0444528"><ele>31.0</ele><time>2026-03-29T12:14:52.156Z</time></trkpt><trkpt lat="43.7670774" lon="11.0442146"><ele>36.66666666666667</ele><time>2026-03-29T12:14:53.156Z</time></trkpt><trkpt lat="43.7671409" lon="11.0439751"><ele>42.333333333333336</ele><time>2026-03-29T12:14:54.156Z</time></trkpt><trkpt lat="43.7672217" lon="11.0437499"><ele>48.0</ele><time>2026-03-29T12:14:55.156Z</time></trkpt><trkpt lat="43.7672811" lon="11.0435361"><ele>48.0</ele><time>2026-03-29T12:14:56.156Z</time></trkpt><trkpt lat="43.7673415" lon="11.0433263"><ele>48.0</ele><time>2026-03-29T12:14:57.156Z</time></trkpt><trkpt lat="43.7674103" lon="11.043118"><ele>48.0</ele><time>2026-03-29T12:14:58.156Z</time></trkpt><trkpt lat="43.767476" lon="11.0429084"><ele>48.75</ele><time>2026-03-29T12:14:59.156Z</time></trkpt><trkpt lat="43.7675312" lon="11.0427065"><ele>49.5</ele><time>2026-03-29T12:15:00.156Z</time></trkpt><trkpt lat="43.7675824" lon="11.0425187"><ele>50.25</ele><time>2026-03-29T12:15:01.156Z</time></trkpt><trkpt lat="43.7676391" lon="11.0423322"><ele>51.0</ele><time>2026-03-29T12:15:02.156Z</time></trkpt><trkpt lat="43.7676964" lon="11.0421337"><ele>51.0</ele><time>2026-03-29T12:15:03.156Z</time></trkpt><trkpt lat="43.7677472" lon="11.0419147"><ele>51.0</ele><time>2026-03-29T12:15:04.156Z</time></trkpt><trkpt lat="43.7677874" lon="11.0416734"><ele>51.0</ele><time>2026-03-29T12:15:05.156Z</time></trkpt><trkpt lat="43.767832" lon="11.0414524"><ele>49.0</ele><time>2026-03-29T12:15:06.156Z</time></trkpt><trkpt lat="43.7678695" lon="11.0412266"><ele>47.0</ele><time>2026-03-29T12:15:07.156Z</time></trkpt><trkpt lat="43.7679097" lon="11.0410051"><ele>45.0</ele><time>2026-03-29T12:15:08.156Z</time></trkpt><trkpt lat="43.7679559" lon="11.0408007"><ele>43.75</ele><time>2026-03-29T12:15:09.156Z</time></trkpt><trkpt lat="43.7680133" lon="11.0406102"><ele>42.5</ele><time>2026-03-29T12:15:10.156Z</time></trkpt><trkpt lat="43.7680683" lon="11.0404249"><ele>41.25</ele><time>2026-03-29T12:15:11.156Z</time></trkpt><trkpt lat="43.7681122" lon="11.0402237"><ele>40.0</ele><time>2026-03-29T12:15:12.156Z</time></trkpt><trkpt lat="43.7681481" lon="11.0400129"><ele>38.0</ele><time>2026-03-29T12:15:13.156Z</time></trkpt><trkpt lat="43.7681822" lon="11.0397996"><ele>36.0</ele><time>2026-03-29T12:15:14.156Z</time></trkpt><trkpt lat="43.7682248" lon="11.0395954"><ele>34.0</ele><time>2026-03-29T12:15:15.155Z</time></trkpt><trkpt lat="43.76828" lon="11.0394186"><ele>34.0</ele><time>2026-03-29T12:15:16.156Z</time></trkpt><trkpt lat="43.7683267" lon="11.0392458"><ele>34.0</ele><time>2026-03-29T12:15:17.156Z</time></trkpt><trkpt lat="43.7683611" lon="11.0390713"><ele>34.0</ele><time>2026-03-29T12:15:18.156Z</time></trkpt><trkpt lat="43.7683996" lon="11.0388942"><ele>34.0</ele><time>2026-03-29T12:15:19.156Z</time></trkpt><trkpt lat="43.7684388" lon="11.0387167"><ele>32.75</ele><time>2026-03-29T12:15:20.156Z</time></trkpt><trkpt lat="43.7684784" lon="11.0385473"><ele>31.5</ele><time>2026-03-29T12:15:21.156Z</time></trkpt><trkpt lat="43.7685183" lon="11.038391"><ele>30.25</ele><time>2026-03-29T12:15:22.156Z</time></trkpt><trkpt lat="43.7685593" lon="11.0382267"><ele>29.0</ele><time>2026-03-29T12:15:23.156Z</time></trkpt><trkpt lat="43.7685986" lon="11.038065"><ele>31.833333333333332</ele><time>2026-03-29T12:15:24.156Z</time></trkpt><trkpt lat="43.7686351" lon="11.0379247"><ele>34.666666666666664</ele><time>2026-03-29T12:15:25.156Z</time></trkpt><trkpt lat="43.7686749" lon="11.0377985"><ele>37.5</ele><time>2026-03-29T12:15:26.156Z</time></trkpt><trkpt lat="43.7687042" lon="11.0376836"><ele>40.333333333333336</ele><time>2026-03-29T12:15:27.156Z</time></trkpt><trkpt lat="43.7687139" lon="11.0375783"><ele>43.16666666666667</ele><time>2026-03-29T12:15:28.156Z</time></trkpt><trkpt lat="43.7686922" lon="11.037483"><ele>46.0</ele><time>2026-03-29T12:15:29.156Z</time></trkpt><trkpt lat="43.7686408" lon="11.0374022"><ele>47.8</ele><time>2026-03-29T12:15:30.156Z</time></trkpt><trkpt lat="43.7685629" lon="11.0373524"><ele>49.599999999999994</ele><time>2026-03-29T12:15:31.156Z</time></trkpt><trkpt lat="43.7684682" lon="11.0373076"><ele>51.4</ele><time>2026-03-29T12:15:32.156Z</time></trkpt><trkpt lat="43.7683614" lon="11.0372588"><ele>53.2</ele><time>2026-03-29T12:15:33.156Z</time></trkpt><trkpt lat="43.7682621" lon="11.0371872"><ele>55.0</ele><time>2026-03-29T12:15:34.155Z</time></trkpt><trkpt lat="43.768179" lon="11.0371054"><ele>51.4</ele><time>2026-03-29T12:15:35.156Z</time></trkpt><trkpt lat="43.7681068" lon="11.0370236"><ele>47.8</ele><time>2026-03-29T12:15:36.156Z</time></trkpt><trkpt lat="43.7680593" lon="11.0369237"><ele>44.2</ele><time>2026-03-29T12:15:37.156Z</time></trkpt><trkpt lat="43.7680155" lon="11.0367993"><ele>40.6</ele><time>2026-03-29T12:15:38.156Z</time></trkpt><trkpt lat="43.7679777" lon="11.0366617"><ele>37.0</ele><time>2026-03-29T12:15:39.156Z</time></trkpt><trkpt lat="43.7679434" lon="11.0365198"><ele>37.0</ele><time>2026-03-29T12:15:40.156Z</time></trkpt><trkpt lat="43.7679257" lon="11.0363896"><ele>37.0</ele><time>2026-03-29T12:15:41.156Z</time></trkpt><trkpt lat="43.7679139" lon="11.0362608"><ele>37.0</ele><time>2026-03-29T12:15:42.156Z</time></trkpt><trkpt lat="43.7679117" lon="11.0361387"><ele>37.0</ele><time>2026-03-29T12:15:43.156Z</time></trkpt><trkpt lat="43.7679192" lon="11.0360103"><ele>37.0</ele><time>2026-03-29T12:15:44.156Z</time></trkpt><trkpt lat="43.7679537" lon="11.0358707"><ele>37.4</ele><time>2026-03-29T12:15:45.156Z</time></trkpt><trkpt lat="43.7680076" lon="11.0357474"><ele>37.800000000000004</ele><time>2026-03-29T12:15:46.156Z</time></trkpt><trkpt lat="43.7680548" lon="11.0356258"><ele>38.2</ele><time>2026-03-29T12:15:47.156Z</time></trkpt><trkpt lat="43.7680869" lon="11.0355025"><ele>38.6</ele><time>2026-03-29T12:15:48.156Z</time></trkpt><trkpt lat="43.7681151" lon="11.0353822"><ele>39.0</ele><time>2026-03-29T12:15:49.156Z</time></trkpt><trkpt lat="43.7681435" lon="11.0352722"><ele>39.0</ele><time>2026-03-29T12:15:50.156Z</time></trkpt><trkpt lat="43.7681647" lon="11.0351801"><ele>39.0</ele><time>2026-03-29T12:15:51.156Z</time></trkpt><trkpt lat="43.7681796" lon="11.0350668"><ele>39.0</ele><time>2026-03-29T12:15:53.156Z</time></trkpt><trkpt lat="43.7682063" lon="11.0349821"><ele>39.0</ele><time>2026-03-29T12:16:00.156Z</time></trkpt><trkpt lat="43.7682125" lon="11.0348672"><ele>39.0</ele><time>2026-03-29T12:16:02.156Z</time></trkpt><trkpt lat="43.7682062" lon="11.0347031"><ele>39.0</ele><time>2026-03-29T12:16:04.156Z</time></trkpt><trkpt lat="43.7682018" lon="11.0345965"><ele>40.5</ele><time>2026-03-29T12:16:05.156Z</time></trkpt><trkpt lat="43.7681952" lon="11.0344892"><ele>42.0</ele><time>2026-03-29T12:16:06.156Z</time></trkpt><trkpt lat="43.7681728" lon="11.0343958"><ele>43.5</ele><time>2026-03-29T12:16:07.156Z</time></trkpt><trkpt lat="43.7680988" lon="11.0342839"><ele>45.0</ele><time>2026-03-29T12:16:09.156Z</time></trkpt><trkpt lat="43.7680402" lon="11.0341931"><ele>46.5</ele><time>2026-03-29T12:16:11.156Z</time></trkpt><trkpt lat="43.7679885" lon="11.0341151"><ele>48.0</ele><time>2026-03-29T12:16:13.156Z</time></trkpt><trkpt lat="43.7679727" lon="11.0340176"><ele>46.599999999999994</ele><time>2026-03-29T12:16:21.156Z</time></trkpt><trkpt lat="43.7678848" lon="11.0339404"><ele>45.199999999999996</ele><time>2026-03-29T12:16:23.156Z</time></trkpt><trkpt lat="43.7677861" lon="11.0339229"><ele>43.8</ele><time>2026-03-29T12:16:25.156Z</time></trkpt><trkpt lat="43.7676625" lon="11.0338865"><ele>42.4</ele><time>2026-03-29T12:16:27.156Z</time></trkpt><trkpt lat="43.767588" lon="11.0338901"><ele>41.0</ele><time>2026-03-29T12:16:28.156Z</time></trkpt><trkpt lat="43.7675278" lon="11.033916"><ele>41.0</ele><time>2026-03-29T12:16:29.156Z</time></trkpt><trkpt lat="43.7674489" lon="11.0339796"><ele>41.0</ele><time>2026-03-29T12:16:31.155Z</time></trkpt><trkpt lat="43.7673537" lon="11.0340418"><ele>41.0</ele><time>2026-03-29T12:16:33.155Z</time></trkpt><trkpt lat="43.7672467" lon="11.0340995"><ele>41.0</ele><time>2026-03-29T12:16:35.156Z</time></trkpt><trkpt lat="43.7671869" lon="11.0341398"><ele>41.0</ele><time>2026-03-29T12:16:36.156Z</time></trkpt><trkpt lat="43.7671233" lon="11.0341825"><ele>41.0</ele><time>2026-03-29T12:16:37.155Z</time></trkpt><trkpt lat="43.7670554" lon="11.0342248"><ele>40.0</ele><time>2026-03-29T12:16:38.156Z</time></trkpt><trkpt lat="43.7669868" lon="11.0342691"><ele>39.0</ele><time>2026-03-29T12:16:39.156Z</time></trkpt><trkpt lat="43.7669147" lon="11.0343158"><ele>38.0</ele><time>2026-03-29T12:16:40.156Z</time></trkpt><trkpt lat="43.7668375" lon="11.0343636"><ele>37.0</ele><time>2026-03-29T12:16:41.156Z</time></trkpt><trkpt lat="43.7667408" lon="11.0344231"><ele>36.0</ele><time>2026-03-29T12:16:42.156Z</time></trkpt><trkpt lat="43.7666351" lon="11.0344882"><ele>34.833333333333336</ele><time>2026-03-29T12:16:43.156Z</time></trkpt><trkpt lat="43.7665462" lon="11.0345439"><ele>33.666666666666664</ele><time>2026-03-29T12:16:44.156Z</time></trkpt><trkpt lat="43.7664625" lon="11.0345919"><ele>32.5</ele><time>2026-03-29T12:16:45.156Z</time></trkpt><trkpt lat="43.766397" lon="11.0346307"><ele>31.333333333333332</ele><time>2026-03-29T12:16:46.156Z</time></trkpt><trkpt lat="43.7663317" lon="11.0346611"><ele>30.166666666666664</ele><time>2026-03-29T12:16:47.156Z</time></trkpt><trkpt lat="43.7662648" lon="11.0346517"><ele>29.0</ele><time>2026-03-29T12:16:48.156Z</time></trkpt><trkpt lat="43.7662054" lon="11.0345802"><ele>29.0</ele><time>2026-03-29T12:16:49.156Z</time></trkpt><trkpt lat="43.7661597" lon="11.0344594"><ele>29.0</ele><time>2026-03-29T12:16:50.156Z</time></trkpt><trkpt lat="43.766111" lon="11.0343146"><ele>29.0</ele><time>2026-03-29T12:16:51.156Z</time></trkpt><trkpt lat="43.7660684" lon="11.0341602"><ele>29.0</ele><time>2026-03-29T12:16:52.156Z</time></trkpt><trkpt lat="43.7660249" lon="11.0340122"><ele>29.0</ele><time>2026-03-29T12:16:53.156Z</time></trkpt><trkpt lat="43.7659789" lon="11.0338633"><ele>29.4</ele><time>2026-03-29T12:16:54.156Z</time></trkpt><trkpt lat="43.7659315" lon="11.033713"><ele>29.799999999999997</ele><time>2026-03-29T12:16:55.156Z</time></trkpt><trkpt lat="43.7658852" lon="11.0335693"><ele>30.200000000000003</ele><time>2026-03-29T12:16:56.156Z</time></trkpt><trkpt lat="43.765835" lon="11.0334378"><ele>30.6</ele><time>2026-03-29T12:16:57.156Z</time></trkpt><trkpt lat="43.7657909" lon="11.0333113"><ele>31.0</ele><time>2026-03-29T12:16:58.156Z</time></trkpt><trkpt lat="43.7657513" lon="11.0331874"><ele>31.000000000000004</ele><time>2026-03-29T12:16:59.156Z</time></trkpt><trkpt lat="43.7657115" lon="11.0330675"><ele>31.0</ele><time>2026-03-29T12:17:00.156Z</time></trkpt><trkpt lat="43.7656734" lon="11.0329565"><ele>31.0</ele><time>2026-03-29T12:17:01.156Z</time></trkpt><trkpt lat="43.7656355" lon="11.0328486"><ele>31.0</ele><time>2026-03-29T12:17:02.156Z</time></trkpt><trkpt lat="43.7655967" lon="11.0327584"><ele>31.000000000000004</ele><time>2026-03-29T12:17:03.156Z</time></trkpt><trkpt lat="43.7655466" lon="11.0327028"><ele>31.0</ele><time>2026-03-29T12:17:04.156Z</time></trkpt><trkpt lat="43.7654738" lon="11.0327142"><ele>31.0</ele><time>2026-03-29T12:17:05.156Z</time></trkpt><trkpt lat="43.7654107" lon="11.0327452"><ele>31.000000000000004</ele><time>2026-03-29T12:17:06.156Z</time></trkpt><trkpt lat="43.7653552" lon="11.0328061"><ele>31.0</ele><time>2026-03-29T12:17:07.156Z</time></trkpt><trkpt lat="43.7652972" lon="11.032865"><ele>31.0</ele><time>2026-03-29T12:17:08.156Z</time></trkpt><trkpt lat="43.7652328" lon="11.0329137"><ele>31.000000000000004</ele><time>2026-03-29T12:17:09.156Z</time></trkpt><trkpt lat="43.7651662" lon="11.0329585"><ele>31.0</ele><time>2026-03-29T12:17:10.156Z</time></trkpt><trkpt lat="43.7650958" lon="11.0330225"><ele>31.0</ele><time>2026-03-29T12:17:11.156Z</time></trkpt><trkpt lat="43.7650225" lon="11.033095"><ele>31.333333333333336</ele><time>2026-03-29T12:17:12.156Z</time></trkpt><trkpt lat="43.7649541" lon="11.0331546"><ele>31.666666666666668</ele><time>2026-03-29T12:17:13.156Z</time></trkpt><trkpt lat="43.764892" lon="11.0331983"><ele>32.0</ele><time>2026-03-29T12:17:14.156Z</time></trkpt><trkpt lat="43.7648264" lon="11.0332325"><ele>32.333333333333336</ele><time>2026-03-29T12:17:15.156Z</time></trkpt><trkpt lat="43.7647483" lon="11.0332979"><ele>32.666666666666664</ele><time>2026-03-29T12:17:17.156Z</time></trkpt><trkpt lat="43.7647463" lon="11.0334386"><ele>33.0</ele><time>2026-03-29T12:17:19.156Z</time></trkpt><trkpt lat="43.7647652" lon="11.0335535"><ele>33.0</ele><time>2026-03-29T12:17:20.156Z</time></trkpt><trkpt lat="43.764805" lon="11.0336823"><ele>33.0</ele><time>2026-03-29T12:17:21.155Z</time></trkpt><trkpt lat="43.7648525" lon="11.0338298"><ele>33.0</ele><time>2026-03-29T12:17:22.156Z</time></trkpt><trkpt lat="43.7648982" lon="11.0340042"><ele>33.0</ele><time>2026-03-29T12:17:23.156Z</time></trkpt><trkpt lat="43.7649376" lon="11.0341859"><ele>33.0</ele><time>2026-03-29T12:17:24.156Z</time></trkpt><trkpt lat="43.7649798" lon="11.0343712"><ele>33.0</ele><time>2026-03-29T12:17:25.155Z</time></trkpt><trkpt lat="43.7650151" lon="11.0345635"><ele>33.0</ele><time>2026-03-29T12:17:26.156Z</time></trkpt><trkpt lat="43.7650561" lon="11.0347619"><ele>33.0</ele><time>2026-03-29T12:17:27.156Z</time></trkpt><trkpt lat="43.7650988" lon="11.034966"><ele>33.0</ele><time>2026-03-29T12:17:28.156Z</time></trkpt><trkpt lat="43.7651433" lon="11.03518"><ele>33.0</ele><time>2026-03-29T12:17:29.156Z</time></trkpt><trkpt lat="43.7651928" lon="11.0354113"><ele>33.0</ele><time>2026-03-29T12:17:30.156Z</time></trkpt><trkpt lat="43.7652418" lon="11.0356503"><ele>33.0</ele><time>2026-03-29T12:17:31.156Z</time></trkpt><trkpt lat="43.7652977" lon="11.0358918"><ele>33.0</ele><time>2026-03-29T12:17:32.156Z</time></trkpt><trkpt lat="43.765347" lon="11.0361334"><ele>33.0</ele><time>2026-03-29T12:17:33.156Z</time></trkpt><trkpt lat="43.765393" lon="11.0363701"><ele>33.0</ele><time>2026-03-29T12:17:34.156Z</time></trkpt><trkpt lat="43.7654385" lon="11.0366065"><ele>33.0</ele><time>2026-03-29T12:17:35.156Z</time></trkpt><trkpt lat="43.7654784" lon="11.0368312"><ele>33.0</ele><time>2026-03-29T12:17:36.156Z</time></trkpt><trkpt lat="43.7655134" lon="11.0370459"><ele>33.0</ele><time>2026-03-29T12:17:37.156Z</time></trkpt><trkpt lat="43.765544" lon="11.0372503"><ele>33.0</ele><time>2026-03-29T12:17:38.156Z</time></trkpt><trkpt lat="43.7655739" lon="11.0374489"><ele>33.0</ele><time>2026-03-29T12:17:39.156Z</time></trkpt><trkpt lat="43.7656078" lon="11.0376472"><ele>33.0</ele><time>2026-03-29T12:17:40.156Z</time></trkpt><trkpt lat="43.7656399" lon="11.0378431"><ele>32.75</ele><time>2026-03-29T12:17:41.156Z</time></trkpt><trkpt lat="43.7656749" lon="11.0380369"><ele>32.5</ele><time>2026-03-29T12:17:42.156Z</time></trkpt><trkpt lat="43.7657122" lon="11.0382362"><ele>32.25</ele><time>2026-03-29T12:17:43.156Z</time></trkpt><trkpt lat="43.7657487" lon="11.038436"><ele>32.0</ele><time>2026-03-29T12:17:44.156Z</time></trkpt><trkpt lat="43.7657788" lon="11.0386311"><ele>32.5</ele><time>2026-03-29T12:17:45.156Z</time></trkpt><trkpt lat="43.7658" lon="11.0388161"><ele>33.0</ele><time>2026-03-29T12:17:46.156Z</time></trkpt><trkpt lat="43.765816" lon="11.0389993"><ele>33.5</ele><time>2026-03-29T12:17:47.155Z</time></trkpt><trkpt lat="43.7658187" lon="11.0391824"><ele>34.0</ele><time>2026-03-29T12:17:48.156Z</time></trkpt><trkpt lat="43.7658153" lon="11.0393701"><ele>34.25</ele><time>2026-03-29T12:17:49.156Z</time></trkpt><trkpt lat="43.7658093" lon="11.0395622"><ele>34.5</ele><time>2026-03-29T12:17:50.156Z</time></trkpt><trkpt lat="43.7658019" lon="11.0397554"><ele>34.75</ele><time>2026-03-29T12:17:51.156Z</time></trkpt><trkpt lat="43.7657924" lon="11.0399389"><ele>35.0</ele><time>2026-03-29T12:17:52.156Z</time></trkpt><trkpt lat="43.7657814" lon="11.0401124"><ele>35.0</ele><time>2026-03-29T12:17:53.156Z</time></trkpt><trkpt lat="43.7657728" lon="11.0402768"><ele>35.0</ele><time>2026-03-29T12:17:54.156Z</time></trkpt><trkpt lat="43.7657603" lon="11.0404305"><ele>35.0</ele><time>2026-03-29T12:17:55.156Z</time></trkpt><trkpt lat="43.7657446" lon="11.0405777"><ele>35.0</ele><time>2026-03-29T12:17:56.156Z</time></trkpt><trkpt lat="43.7657292" lon="11.0407242"><ele>35.0</ele><time>2026-03-29T12:17:57.156Z</time></trkpt><trkpt lat="43.7657133" lon="11.0408682"><ele>35.0</ele><time>2026-03-29T12:17:58.156Z</time></trkpt><trkpt lat="43.7656986" lon="11.0409973"><ele>35.0</ele><time>2026-03-29T12:17:59.156Z</time></trkpt><trkpt lat="43.7656876" lon="11.0411273"><ele>35.0</ele><time>2026-03-29T12:18:00.156Z</time></trkpt><trkpt lat="43.7656755" lon="11.0412409"><ele>35.0</ele><time>2026-03-29T12:18:01.156Z</time></trkpt><trkpt lat="43.7656119" lon="11.0413539"><ele>35.0</ele><time>2026-03-29T12:18:03.156Z</time></trkpt><trkpt lat="43.7655042" lon="11.0413006"><ele>35.0</ele><time>2026-03-29T12:18:05.156Z</time></trkpt><trkpt lat="43.7654333" lon="11.0412168"><ele>35.0</ele><time>2026-03-29T12:18:06.156Z</time></trkpt><trkpt lat="43.7653633" lon="11.0411042"><ele>35.0</ele><time>2026-03-29T12:18:07.155Z</time></trkpt><trkpt lat="43.7652879" lon="11.0409806"><ele>35.0</ele><time>2026-03-29T12:18:08.156Z</time></trkpt><trkpt lat="43.7652264" lon="11.0408346"><ele>35.0</ele><time>2026-03-29T12:18:09.156Z</time></trkpt><trkpt lat="43.7652127" lon="11.0406472"><ele>35.25</ele><time>2026-03-29T12:18:10.156Z</time></trkpt><trkpt lat="43.7652154" lon="11.0404522"><ele>35.5</ele><time>2026-03-29T12:18:11.156Z</time></trkpt><trkpt lat="43.7652464" lon="11.0402817"><ele>35.75</ele><time>2026-03-29T12:18:12.156Z</time></trkpt><trkpt lat="43.76527" lon="11.0401373"><ele>36.0</ele><time>2026-03-29T12:18:13.156Z</time></trkpt><trkpt lat="43.7652793" lon="11.0400082"><ele>35.833333333333336</ele><time>2026-03-29T12:18:14.156Z</time></trkpt><trkpt lat="43.7652631" lon="11.0399044"><ele>35.666666666666664</ele><time>2026-03-29T12:18:15.156Z</time></trkpt><trkpt lat="43.7652318" lon="11.0398229"><ele>35.5</ele><time>2026-03-29T12:18:16.156Z</time></trkpt><trkpt lat="43.7651673" lon="11.0398155"><ele>35.33333333333333</ele><time>2026-03-29T12:18:17.156Z</time></trkpt><trkpt lat="43.7651043" lon="11.0398793"><ele>35.166666666666664</ele><time>2026-03-29T12:18:18.156Z</time></trkpt><trkpt lat="43.7650605" lon="11.0399985"><ele>35.0</ele><time>2026-03-29T12:18:19.156Z</time></trkpt><trkpt lat="43.7650188" lon="11.0401402"><ele>37.5</ele><time>2026-03-29T12:18:20.156Z</time></trkpt><trkpt lat="43.7649614" lon="11.0403013"><ele>40.0</ele><time>2026-03-29T12:18:21.156Z</time></trkpt><trkpt lat="43.7649115" lon="11.0404622"><ele>42.5</ele><time>2026-03-29T12:18:22.156Z</time></trkpt><trkpt lat="43.7648541" lon="11.040617"><ele>45.0</ele><time>2026-03-29T12:18:23.156Z</time></trkpt><trkpt lat="43.7648054" lon="11.0407505"><ele>45.0</ele><time>2026-03-29T12:18:24.156Z</time></trkpt><trkpt lat="43.764757" lon="11.0408574"><ele>45.0</ele><time>2026-03-29T12:18:25.156Z</time></trkpt><trkpt lat="43.7647027" lon="11.040949"><ele>45.0</ele><time>2026-03-29T12:18:26.156Z</time></trkpt><trkpt lat="43.7646342" lon="11.040977"><ele>45.0</ele><time>2026-03-29T12:18:27.156Z</time></trkpt><trkpt lat="43.7645563" lon="11.0409138"><ele>45.0</ele><time>2026-03-29T12:18:28.156Z</time></trkpt><trkpt lat="43.76451" lon="11.0408074"><ele>45.0</ele><time>2026-03-29T12:18:29.156Z</time></trkpt><trkpt lat="43.7644901" lon="11.0406508"><ele>45.0</ele><time>2026-03-29T12:18:30.156Z</time></trkpt><trkpt lat="43.764498" lon="11.0404834"><ele>45.0</ele><time>2026-03-29T12:18:31.156Z</time></trkpt><trkpt lat="43.764501" lon="11.0403061"><ele>45.0</ele><time>2026-03-29T12:18:32.156Z</time></trkpt><trkpt lat="43.7645115" lon="11.0401175"><ele>45.0</ele><time>2026-03-29T12:18:33.156Z</time></trkpt><trkpt lat="43.7645271" lon="11.0399247"><ele>44.75</ele><time>2026-03-29T12:18:34.156Z</time></trkpt><trkpt lat="43.7645434" lon="11.0397243"><ele>44.5</ele><time>2026-03-29T12:18:35.156Z</time></trkpt><trkpt lat="43.7645612" lon="11.0395219"><ele>44.25</ele><time>2026-03-29T12:18:36.156Z</time></trkpt><trkpt lat="43.7645698" lon="11.0393204"><ele>44.0</ele><time>2026-03-29T12:18:37.156Z</time></trkpt><trkpt lat="43.7645589" lon="11.0391287"><ele>44.0</ele><time>2026-03-29T12:18:38.156Z</time></trkpt><trkpt lat="43.7645053" lon="11.0389435"><ele>44.0</ele><time>2026-03-29T12:18:39.156Z</time></trkpt><trkpt lat="43.7644111" lon="11.0387747"><ele>44.0</ele><time>2026-03-29T12:18:40.156Z</time></trkpt><trkpt lat="43.7643122" lon="11.0386502"><ele>44.0</ele><time>2026-03-29T12:18:41.156Z</time></trkpt><trkpt lat="43.7642111" lon="11.0385688"><ele>49.666666666666664</ele><time>2026-03-29T12:18:42.156Z</time></trkpt><trkpt lat="43.764073" lon="11.0385217"><ele>55.33333333333333</ele><time>2026-03-29T12:18:43.156Z</time></trkpt><trkpt lat="43.7639063" lon="11.0385105"><ele>61.0</ele><time>2026-03-29T12:18:44.156Z</time></trkpt><trkpt lat="43.7637399" lon="11.0384907"><ele>61.0</ele><time>2026-03-29T12:18:45.156Z</time></trkpt><trkpt lat="43.7635916" lon="11.0384601"><ele>61.0</ele><time>2026-03-29T12:18:46.156Z</time></trkpt><trkpt lat="43.7634625" lon="11.0384346"><ele>61.0</ele><time>2026-03-29T12:18:47.156Z</time></trkpt><trkpt lat="43.7633586" lon="11.0384372"><ele>61.0</ele><time>2026-03-29T12:18:48.156Z</time></trkpt><trkpt lat="43.7632785" lon="11.0385005"><ele>63.4</ele><time>2026-03-29T12:18:49.156Z</time></trkpt><trkpt lat="43.7632293" lon="11.0386126"><ele>65.8</ele><time>2026-03-29T12:18:50.156Z</time></trkpt><trkpt lat="43.7632281" lon="11.0387402"><ele>68.19999999999999</ele><time>2026-03-29T12:18:51.155Z</time></trkpt><trkpt lat="43.7632364" lon="11.0388865"><ele>70.6</ele><time>2026-03-29T12:18:52.156Z</time></trkpt><trkpt lat="43.7632437" lon="11.0390251"><ele>73.0</ele><time>2026-03-29T12:18:53.156Z</time></trkpt><trkpt lat="43.7632457" lon="11.0391466"><ele>73.8</ele><time>2026-03-29T12:18:54.156Z</time></trkpt><trkpt lat="43.7632219" lon="11.0392614"><ele>74.6</ele><time>2026-03-29T12:18:55.156Z</time></trkpt><trkpt lat="43.7631699" lon="11.0393639"><ele>75.4</ele><time>2026-03-29T12:18:56.156Z</time></trkpt><trkpt lat="43.7630865" lon="11.0394362"><ele>76.2</ele><time>2026-03-29T12:18:57.156Z</time></trkpt><trkpt lat="43.7629769" lon="11.0394815"><ele>77.0</ele><time>2026-03-29T12:18:58.156Z</time></trkpt><trkpt lat="43.7628544" lon="11.0394799"><ele>77.0</ele><time>2026-03-29T12:18:59.156Z</time></trkpt><trkpt lat="43.7627429" lon="11.0394432"><ele>77.0</ele><time>2026-03-29T12:19:00.156Z</time></trkpt><trkpt lat="43.7626692" lon="11.0393596"><ele>77.0</ele><time>2026-03-29T12:19:01.156Z</time></trkpt><trkpt lat="43.7626484" lon="11.0392421"><ele>77.0</ele><time>2026-03-29T12:19:02.156Z</time></trkpt><trkpt lat="43.762655" lon="11.0391073"><ele>77.0</ele><time>2026-03-29T12:19:03.156Z</time></trkpt><trkpt lat="43.7626679" lon="11.0389549"><ele>81.25</ele><time>2026-03-29T12:19:04.156Z</time></trkpt><trkpt lat="43.762673" lon="11.0387981"><ele>85.5</ele><time>2026-03-29T12:19:05.156Z</time></trkpt><trkpt lat="43.7626583" lon="11.0386073"><ele>89.75</ele><time>2026-03-29T12:19:06.156Z</time></trkpt><trkpt lat="43.7626425" lon="11.0384025"><ele>94.0</ele><time>2026-03-29T12:19:07.156Z</time></trkpt><trkpt lat="43.7626227" lon="11.0381967"><ele>96.66666666666666</ele><time>2026-03-29T12:19:08.156Z</time></trkpt><trkpt lat="43.7626005" lon="11.0379667"><ele>99.33333333333333</ele><time>2026-03-29T12:19:09.156Z</time></trkpt><trkpt lat="43.7625903" lon="11.0377053"><ele>102.0</ele><time>2026-03-29T12:19:10.156Z</time></trkpt><trkpt lat="43.7625846" lon="11.0374296"><ele>102.0</ele><time>2026-03-29T12:19:11.156Z</time></trkpt><trkpt lat="43.7625867" lon="11.0371576"><ele>102.0</ele><time>2026-03-29T12:19:12.156Z</time></trkpt><trkpt lat="43.7625886" lon="11.0369055"><ele>102.0</ele><time>2026-03-29T12:19:13.156Z</time></trkpt><trkpt lat="43.7625789" lon="11.0366827"><ele>99.75</ele><time>2026-03-29T12:19:14.156Z</time></trkpt><trkpt lat="43.7625457" lon="11.0364888"><ele>97.5</ele><time>2026-03-29T12:19:15.156Z</time></trkpt><trkpt lat="43.7624812" lon="11.0363264"><ele>95.25</ele><time>2026-03-29T12:19:16.156Z</time></trkpt><trkpt lat="43.7624067" lon="11.0361906"><ele>93.0</ele><time>2026-03-29T12:19:17.156Z</time></trkpt><trkpt lat="43.7623297" lon="11.0360761"><ele>93.0</ele><time>2026-03-29T12:19:18.156Z</time></trkpt><trkpt lat="43.7622725" lon="11.0359921"><ele>93.0</ele><time>2026-03-29T12:19:19.156Z</time></trkpt><trkpt lat="43.7621752" lon="11.0360038"><ele>93.0</ele><time>2026-03-29T12:19:21.156Z</time></trkpt><trkpt lat="43.7621553" lon="11.0360907"><ele>93.0</ele><time>2026-03-29T12:19:22.156Z</time></trkpt><trkpt lat="43.7621798" lon="11.0362246"><ele>93.0</ele><time>2026-03-29T12:19:23.156Z</time></trkpt><trkpt lat="43.7622229" lon="11.036365"><ele>93.0</ele><time>2026-03-29T12:19:24.156Z</time></trkpt><trkpt lat="43.7622676" lon="11.0365234"><ele>93.0</ele><time>2026-03-29T12:19:25.156Z</time></trkpt><trkpt lat="43.76228" lon="11.0367039"><ele>93.0</ele><time>2026-03-29T12:19:26.156Z</time></trkpt><trkpt lat="43.7622584" lon="11.0368893"><ele>93.0</ele><time>2026-03-29T12:19:27.156Z</time></trkpt><trkpt lat="43.7622332" lon="11.0370695"><ele>95.25</ele><time>2026-03-29T12:19:28.156Z</time></trkpt><trkpt lat="43.7622128" lon="11.0372342"><ele>97.5</ele><time>2026-03-29T12:19:29.156Z</time></trkpt><trkpt lat="43.7621569" lon="11.0373683"><ele>99.75</ele><time>2026-03-29T12:19:30.156Z</time></trkpt><trkpt lat="43.76207" lon="11.0374675"><ele>102.0</ele><time>2026-03-29T12:19:31.156Z</time></trkpt><trkpt lat="43.7619792" lon="11.0375815"><ele>102.0</ele><time>2026-03-29T12:19:32.156Z</time></trkpt><trkpt lat="43.7618984" lon="11.0377249"><ele>102.0</ele><time>2026-03-29T12:19:33.156Z</time></trkpt><trkpt lat="43.7618297" lon="11.0378978"><ele>102.0</ele><time>2026-03-29T12:19:34.156Z</time></trkpt><trkpt lat="43.7617985" lon="11.0381108"><ele>102.0</ele><time>2026-03-29T12:19:35.156Z</time></trkpt><trkpt lat="43.7617299" lon="11.0382719"><ele>105.25</ele><time>2026-03-29T12:19:36.156Z</time></trkpt><trkpt lat="43.7616197" lon="11.03835"><ele>108.5</ele><time>2026-03-29T12:19:37.156Z</time></trkpt><trkpt lat="43.7614795" lon="11.0383654"><ele>111.75</ele><time>2026-03-29T12:19:38.156Z</time></trkpt><trkpt lat="43.7613218" lon="11.0383579"><ele>115.0</ele><time>2026-03-29T12:19:39.156Z</time></trkpt><trkpt lat="43.7611578" lon="11.0383405"><ele>117.33333333333334</ele><time>2026-03-29T12:19:40.156Z</time></trkpt><trkpt lat="43.7610008" lon="11.038368"><ele>119.66666666666666</ele><time>2026-03-29T12:19:41.156Z</time></trkpt><trkpt lat="43.7608449" lon="11.0384199"><ele>122.0</ele><time>2026-03-29T12:19:42.156Z</time></trkpt><trkpt lat="43.760689" lon="11.0384646"><ele>122.0</ele><time>2026-03-29T12:19:43.156Z</time></trkpt><trkpt lat="43.7605368" lon="11.0384522"><ele>122.0</ele><time>2026-03-29T12:19:44.156Z</time></trkpt><trkpt lat="43.7603956" lon="11.0384183"><ele>122.0</ele><time>2026-03-29T12:19:45.156Z</time></trkpt><trkpt lat="43.7602424" lon="11.0384431"><ele>122.0</ele><time>2026-03-29T12:19:46.156Z</time></trkpt><trkpt lat="43.7601069" lon="11.038509"><ele>122.0</ele><time>2026-03-29T12:19:47.156Z</time></trkpt><trkpt lat="43.7599897" lon="11.0385577"><ele>122.0</ele><time>2026-03-29T12:19:48.156Z</time></trkpt><trkpt lat="43.7598763" lon="11.0385484"><ele>122.0</ele><time>2026-03-29T12:19:49.156Z</time></trkpt><trkpt lat="43.7597688" lon="11.0384987"><ele>122.0</ele><time>2026-03-29T12:19:50.156Z</time></trkpt><trkpt lat="43.7596733" lon="11.0384393"><ele>121.99999999999999</ele><time>2026-03-29T12:19:51.156Z</time></trkpt><trkpt lat="43.7595619" lon="11.038452"><ele>121.99999999999999</ele><time>2026-03-29T12:19:52.155Z</time></trkpt><trkpt lat="43.7594681" lon="11.0385105"><ele>122.0</ele><time>2026-03-29T12:19:53.156Z</time></trkpt><trkpt lat="43.7594105" lon="11.038648"><ele>122.0</ele><time>2026-03-29T12:19:54.156Z</time></trkpt><trkpt lat="43.7593829" lon="11.0387978"><ele>121.99999999999999</ele><time>2026-03-29T12:19:55.156Z</time></trkpt><trkpt lat="43.7593694" lon="11.0389222"><ele>122.0</ele><time>2026-03-29T12:19:56.156Z</time></trkpt><trkpt lat="43.7593589" lon="11.0390312"><ele>122.0</ele><time>2026-03-29T12:19:57.156Z</time></trkpt><trkpt lat="43.7593663" lon="11.0391217"><ele>122.0</ele><time>2026-03-29T12:19:58.156Z</time></trkpt><trkpt lat="43.7593952" lon="11.0392145"><ele>121.99999999999999</ele><time>2026-03-29T12:19:59.155Z</time></trkpt><trkpt lat="43.7594245" lon="11.0393222"><ele>122.0</ele><time>2026-03-29T12:20:00.156Z</time></trkpt><trkpt lat="43.7594652" lon="11.0394288"><ele>124.19999999999999</ele><time>2026-03-29T12:20:01.156Z</time></trkpt><trkpt lat="43.7595315" lon="11.0395587"><ele>126.39999999999999</ele><time>2026-03-29T12:20:02.156Z</time></trkpt><trkpt lat="43.7595824" lon="11.0396789"><ele>128.60000000000002</ele><time>2026-03-29T12:20:03.156Z</time></trkpt><trkpt lat="43.7596165" lon="11.0397894"><ele>130.8</ele><time>2026-03-29T12:20:04.156Z</time></trkpt><trkpt lat="43.7596274" lon="11.0399095"><ele>133.0</ele><time>2026-03-29T12:20:05.156Z</time></trkpt><trkpt lat="43.7596083" lon="11.0400213"><ele>133.0</ele><time>2026-03-29T12:20:06.156Z</time></trkpt><trkpt lat="43.7595437" lon="11.0401305"><ele>133.0</ele><time>2026-03-29T12:20:07.156Z</time></trkpt><trkpt lat="43.7594525" lon="11.040237"><ele>133.0</ele><time>2026-03-29T12:20:08.156Z</time></trkpt><trkpt lat="43.7593467" lon="11.0403225"><ele>133.0</ele><time>2026-03-29T12:20:09.156Z</time></trkpt><trkpt lat="43.7592444" lon="11.0404214"><ele>132.8</ele><time>2026-03-29T12:20:10.156Z</time></trkpt><trkpt lat="43.7591463" lon="11.0405266"><ele>132.60000000000002</ele><time>2026-03-29T12:20:11.156Z</time></trkpt><trkpt lat="43.7590603" lon="11.0406226"><ele>132.39999999999998</ele><time>2026-03-29T12:20:12.156Z</time></trkpt><trkpt lat="43.7589828" lon="11.0407163"><ele>132.2</ele><time>2026-03-29T12:20:13.156Z</time></trkpt><trkpt lat="43.7589156" lon="11.0408053"><ele>132.0</ele><time>2026-03-29T12:20:14.156Z</time></trkpt><trkpt lat="43.758876" lon="11.0408927"><ele>134.0</ele><time>2026-03-29T12:20:15.156Z</time></trkpt><trkpt lat="43.7589146" lon="11.0409954"><ele>136.0</ele><time>2026-03-29T12:20:16.156Z</time></trkpt><trkpt lat="43.7590038" lon="11.0410782"><ele>138.0</ele><time>2026-03-29T12:20:17.156Z</time></trkpt><trkpt lat="43.7591073" lon="11.0411385"><ele>140.0</ele><time>2026-03-29T12:20:18.156Z</time></trkpt><trkpt lat="43.7592003" lon="11.0412174"><ele>142.0</ele><time>2026-03-29T12:20:19.156Z</time></trkpt><trkpt lat="43.7592753" lon="11.041341"><ele>142.0</ele><time>2026-03-29T12:20:20.156Z</time></trkpt><trkpt lat="43.759305" lon="11.041495"><ele>142.0</ele><time>2026-03-29T12:20:21.156Z</time></trkpt><trkpt lat="43.7592855" lon="11.0416538"><ele>142.0</ele><time>2026-03-29T12:20:22.155Z</time></trkpt><trkpt lat="43.7592182" lon="11.0418193"><ele>142.0</ele><time>2026-03-29T12:20:23.156Z</time></trkpt><trkpt lat="43.7591429" lon="11.0420012"><ele>145.33333333333334</ele><time>2026-03-29T12:20:24.156Z</time></trkpt><trkpt lat="43.7590737" lon="11.0421774"><ele>148.66666666666666</ele><time>2026-03-29T12:20:25.156Z</time></trkpt><trkpt lat="43.7589959" lon="11.0423639"><ele>152.0</ele><time>2026-03-29T12:20:26.156Z</time></trkpt><trkpt lat="43.7589163" lon="11.0425448"><ele>153.0</ele><time>2026-03-29T12:20:27.156Z</time></trkpt><trkpt lat="43.7588331" lon="11.0427165"><ele>154.0</ele><time>2026-03-29T12:20:28.156Z</time></trkpt><trkpt lat="43.7587502" lon="11.0428722"><ele>155.0</ele><time>2026-03-29T12:20:29.156Z</time></trkpt><trkpt lat="43.7586682" lon="11.0429747"><ele>156.0</ele><time>2026-03-29T12:20:30.156Z</time></trkpt><trkpt lat="43.7585795" lon="11.0430005"><ele>158.8</ele><time>2026-03-29T12:20:31.156Z</time></trkpt><trkpt lat="43.7584734" lon="11.0429852"><ele>161.6</ele><time>2026-03-29T12:20:32.156Z</time></trkpt><trkpt lat="43.7583863" lon="11.0429276"><ele>164.4</ele><time>2026-03-29T12:20:33.156Z</time></trkpt><trkpt lat="43.7582875" lon="11.0428688"><ele>167.2</ele><time>2026-03-29T12:20:34.156Z</time></trkpt><trkpt lat="43.758181" lon="11.0428067"><ele>170.0</ele><time>2026-03-29T12:20:35.156Z</time></trkpt><trkpt lat="43.7580672" lon="11.0427695"><ele>170.0</ele><time>2026-03-29T12:20:36.156Z</time></trkpt><trkpt lat="43.7579384" lon="11.0427507"><ele>170.0</ele><time>2026-03-29T12:20:37.156Z</time></trkpt><trkpt lat="43.7577905" lon="11.042747"><ele>170.0</ele><time>2026-03-29T12:20:38.156Z</time></trkpt><trkpt lat="43.7576423" lon="11.0427505"><ele>170.0</ele><time>2026-03-29T12:20:39.156Z</time></trkpt><trkpt lat="43.757503" lon="11.0427473"><ele>171.75</ele><time>2026-03-29T12:20:40.156Z</time></trkpt><trkpt lat="43.7573586" lon="11.042773"><ele>173.5</ele><time>2026-03-29T12:20:41.156Z</time></trkpt><trkpt lat="43.7572153" lon="11.0428304"><ele>175.25</ele><time>2026-03-29T12:20:42.156Z</time></trkpt><trkpt lat="43.7570798" lon="11.0429305"><ele>177.0</ele><time>2026-03-29T12:20:43.156Z</time></trkpt><trkpt lat="43.7569458" lon="11.0430522"><ele>180.66666666666666</ele><time>2026-03-29T12:20:44.156Z</time></trkpt><trkpt lat="43.7568207" lon="11.0431906"><ele>184.33333333333331</ele><time>2026-03-29T12:20:45.156Z</time></trkpt><trkpt lat="43.7566875" lon="11.043334"><ele>188.0</ele><time>2026-03-29T12:20:46.156Z</time></trkpt><trkpt lat="43.756558" lon="11.043483"><ele>188.25</ele><time>2026-03-29T12:20:47.155Z</time></trkpt><trkpt lat="43.7564333" lon="11.0436251"><ele>188.5</ele><time>2026-03-29T12:20:48.156Z</time></trkpt><trkpt lat="43.7563163" lon="11.0437578"><ele>188.75</ele><time>2026-03-29T12:20:49.156Z</time></trkpt><trkpt lat="43.7562114" lon="11.0438709"><ele>189.0</ele><time>2026-03-29T12:20:50.156Z</time></trkpt><trkpt lat="43.7561085" lon="11.043957"><ele>192.25</ele><time>2026-03-29T12:20:51.156Z</time></trkpt><trkpt lat="43.7559819" lon="11.0439778"><ele>195.5</ele><time>2026-03-29T12:20:52.156Z</time></trkpt><trkpt lat="43.7558421" lon="11.0439642"><ele>198.75</ele><time>2026-03-29T12:20:53.156Z</time></trkpt><trkpt lat="43.7556778" lon="11.0439419"><ele>202.0</ele><time>2026-03-29T12:20:54.156Z</time></trkpt><trkpt lat="43.755517" lon="11.0439208"><ele>202.0</ele><time>2026-03-29T12:20:55.156Z</time></trkpt><trkpt lat="43.7553479" lon="11.0438958"><ele>202.0</ele><time>2026-03-29T12:20:56.156Z</time></trkpt><trkpt lat="43.7551804" lon="11.0438346"><ele>202.0</ele><time>2026-03-29T12:20:57.156Z</time></trkpt><trkpt lat="43.7550206" lon="11.0437629"><ele>202.5</ele><time>2026-03-29T12:20:58.156Z</time></trkpt><trkpt lat="43.7548661" lon="11.0436916"><ele>203.0</ele><time>2026-03-29T12:20:59.156Z</time></trkpt><trkpt lat="43.754731" lon="11.0436145"><ele>203.5</ele><time>2026-03-29T12:21:00.156Z</time></trkpt><trkpt lat="43.7546183" lon="11.0435395"><ele>204.0</ele><time>2026-03-29T12:21:01.156Z</time></trkpt><trkpt lat="43.7545229" lon="11.0434524"><ele>204.0</ele><time>2026-03-29T12:21:02.156Z</time></trkpt><trkpt lat="43.7544414" lon="11.0433729"><ele>204.0</ele><time>2026-03-29T12:21:03.156Z</time></trkpt><trkpt lat="43.7543676" lon="11.0432973"><ele>204.0</ele><time>2026-03-29T12:21:04.156Z</time></trkpt><trkpt lat="43.7543018" lon="11.0432355"><ele>204.0</ele><time>2026-03-29T12:21:05.156Z</time></trkpt><trkpt lat="43.7542179" lon="11.0432339"><ele>204.0</ele><time>2026-03-29T12:21:06.156Z</time></trkpt><trkpt lat="43.754125" lon="11.0432901"><ele>202.25</ele><time>2026-03-29T12:21:07.156Z</time></trkpt><trkpt lat="43.7540021" lon="11.04338"><ele>200.5</ele><time>2026-03-29T12:21:08.156Z</time></trkpt><trkpt lat="43.7538748" lon="11.0434209"><ele>198.75</ele><time>2026-03-29T12:21:09.156Z</time></trkpt><trkpt lat="43.7537389" lon="11.0433802"><ele>197.0</ele><time>2026-03-29T12:21:10.156Z</time></trkpt><trkpt lat="43.7536371" lon="11.0432969"><ele>197.25</ele><time>2026-03-29T12:21:11.155Z</time></trkpt><trkpt lat="43.7535415" lon="11.0432571"><ele>197.5</ele><time>2026-03-29T12:21:12.156Z</time></trkpt><trkpt lat="43.7534451" lon="11.0432833"><ele>197.75</ele><time>2026-03-29T12:21:13.156Z</time></trkpt><trkpt lat="43.7533516" lon="11.0433781"><ele>198.0</ele><time>2026-03-29T12:21:14.156Z</time></trkpt><trkpt lat="43.7532624" lon="11.043536"><ele>198.0</ele><time>2026-03-29T12:21:15.156Z</time></trkpt><trkpt lat="43.7531694" lon="11.0436903"><ele>198.0</ele><time>2026-03-29T12:21:16.156Z</time></trkpt><trkpt lat="43.7530485" lon="11.0438218"><ele>198.0</ele><time>2026-03-29T12:21:17.156Z</time></trkpt><trkpt lat="43.7529187" lon="11.0439076"><ele>198.0</ele><time>2026-03-29T12:21:18.156Z</time></trkpt><trkpt lat="43.7528086" lon="11.0439604"><ele>198.0</ele><time>2026-03-29T12:21:19.156Z</time></trkpt><trkpt lat="43.7527069" lon="11.0440188"><ele>198.0</ele><time>2026-03-29T12:21:20.156Z</time></trkpt><trkpt lat="43.752613" lon="11.044082"><ele>198.0</ele><time>2026-03-29T12:21:21.156Z</time></trkpt><trkpt lat="43.7525329" lon="11.0441473"><ele>198.0</ele><time>2026-03-29T12:21:22.156Z</time></trkpt><trkpt lat="43.7524738" lon="11.0442395"><ele>198.0</ele><time>2026-03-29T12:21:23.156Z</time></trkpt><trkpt lat="43.7524792" lon="11.0443695"><ele>198.25</ele><time>2026-03-29T12:21:24.156Z</time></trkpt><trkpt lat="43.7525076" lon="11.0445306"><ele>198.5</ele><time>2026-03-29T12:21:25.156Z</time></trkpt><trkpt lat="43.7525315" lon="11.044717"><ele>198.75</ele><time>2026-03-29T12:21:26.156Z</time></trkpt><trkpt lat="43.7525512" lon="11.0448947"><ele>199.0</ele><time>2026-03-29T12:21:27.156Z</time></trkpt><trkpt lat="43.7525644" lon="11.0450679"><ele>199.2</ele><time>2026-03-29T12:21:28.156Z</time></trkpt><trkpt lat="43.7525779" lon="11.0452377"><ele>199.39999999999998</ele><time>2026-03-29T12:21:29.156Z</time></trkpt><trkpt lat="43.752603" lon="11.0454008"><ele>199.6</ele><time>2026-03-29T12:21:30.156Z</time></trkpt><trkpt lat="43.7526483" lon="11.0455386"><ele>199.8</ele><time>2026-03-29T12:21:31.156Z</time></trkpt><trkpt lat="43.7526948" lon="11.045653"><ele>200.0</ele><time>2026-03-29T12:21:32.155Z</time></trkpt><trkpt lat="43.7527225" lon="11.0457579"><ele>199.6</ele><time>2026-03-29T12:21:33.156Z</time></trkpt><trkpt lat="43.7527058" lon="11.0458673"><ele>199.2</ele><time>2026-03-29T12:21:34.156Z</time></trkpt><trkpt lat="43.7526383" lon="11.045997"><ele>198.8</ele><time>2026-03-29T12:21:35.156Z</time></trkpt><trkpt lat="43.7525602" lon="11.0461411"><ele>198.4</ele><time>2026-03-29T12:21:36.156Z</time></trkpt><trkpt lat="43.7525154" lon="11.0462924"><ele>198.0</ele><time>2026-03-29T12:21:37.156Z</time></trkpt><trkpt lat="43.7525135" lon="11.0464676"><ele>198.0</ele><time>2026-03-29T12:21:38.156Z</time></trkpt><trkpt lat="43.7525304" lon="11.0466278"><ele>198.0</ele><time>2026-03-29T12:21:39.155Z</time></trkpt><trkpt lat="43.7525449" lon="11.0467798"><ele>198.0</ele><time>2026-03-29T12:21:40.156Z</time></trkpt><trkpt lat="43.7525298" lon="11.0469386"><ele>198.0</ele><time>2026-03-29T12:21:41.156Z</time></trkpt><trkpt lat="43.7524504" lon="11.0470637"><ele>195.75</ele><time>2026-03-29T12:21:42.156Z</time></trkpt><trkpt lat="43.7523554" lon="11.0471664"><ele>193.5</ele><time>2026-03-29T12:21:43.156Z</time></trkpt><trkpt lat="43.7522484" lon="11.0472479"><ele>191.25</ele><time>2026-03-29T12:21:44.156Z</time></trkpt><trkpt lat="43.752133" lon="11.0473185"><ele>189.0</ele><time>2026-03-29T12:21:45.156Z</time></trkpt><trkpt lat="43.752026" lon="11.0474186"><ele>187.75</ele><time>2026-03-29T12:21:46.156Z</time></trkpt><trkpt lat="43.7519496" lon="11.0475379"><ele>186.5</ele><time>2026-03-29T12:21:47.156Z</time></trkpt><trkpt lat="43.7518945" lon="11.047679"><ele>185.25</ele><time>2026-03-29T12:21:48.156Z</time></trkpt><trkpt lat="43.7518581" lon="11.0478335"><ele>184.0</ele><time>2026-03-29T12:21:49.156Z</time></trkpt><trkpt lat="43.7518349" lon="11.0480006"><ele>184.0</ele><time>2026-03-29T12:21:50.155Z</time></trkpt><trkpt lat="43.7518271" lon="11.0481906"><ele>184.0</ele><time>2026-03-29T12:21:51.156Z</time></trkpt><trkpt lat="43.7518358" lon="11.0483928"><ele>184.0</ele><time>2026-03-29T12:21:52.156Z</time></trkpt><trkpt lat="43.7518365" lon="11.0485768"><ele>184.0</ele><time>2026-03-29T12:21:53.156Z</time></trkpt><trkpt lat="43.7518391" lon="11.0487201"><ele>183.0</ele><time>2026-03-29T12:21:54.156Z</time></trkpt><trkpt lat="43.7518464" lon="11.0488405"><ele>182.0</ele><time>2026-03-29T12:21:55.156Z</time></trkpt><trkpt lat="43.7517874" lon="11.0489689"><ele>181.0</ele><time>2026-03-29T12:21:57.156Z</time></trkpt><trkpt lat="43.7517195" lon="11.048945"><ele>180.0</ele><time>2026-03-29T12:21:58.156Z</time></trkpt><trkpt lat="43.7516273" lon="11.048891"><ele>179.0</ele><time>2026-03-29T12:21:59.156Z</time></trkpt><trkpt lat="43.7515295" lon="11.0488222"><ele>179.0</ele><time>2026-03-29T12:22:00.156Z</time></trkpt><trkpt lat="43.7514451" lon="11.048745"><ele>179.0</ele><time>2026-03-29T12:22:01.156Z</time></trkpt><trkpt lat="43.7513473" lon="11.048719"><ele>179.0</ele><time>2026-03-29T12:22:02.156Z</time></trkpt><trkpt lat="43.7512557" lon="11.0487618"><ele>179.0</ele><time>2026-03-29T12:22:03.156Z</time></trkpt><trkpt lat="43.7511609" lon="11.0488803"><ele>179.0</ele><time>2026-03-29T12:22:04.156Z</time></trkpt><trkpt lat="43.7510709" lon="11.0490088"><ele>174.0</ele><time>2026-03-29T12:22:05.156Z</time></trkpt><trkpt lat="43.7509637" lon="11.0491342"><ele>169.0</ele><time>2026-03-29T12:22:06.156Z</time></trkpt><trkpt lat="43.7508458" lon="11.0492727"><ele>164.0</ele><time>2026-03-29T12:22:07.156Z</time></trkpt><trkpt lat="43.7507257" lon="11.049432"><ele>164.0</ele><time>2026-03-29T12:22:08.155Z</time></trkpt><trkpt lat="43.7506159" lon="11.0496033"><ele>164.0</ele><time>2026-03-29T12:22:09.156Z</time></trkpt><trkpt lat="43.7505163" lon="11.049788"><ele>164.0</ele><time>2026-03-29T12:22:10.156Z</time></trkpt><trkpt lat="43.7504164" lon="11.0499848"><ele>163.66666666666666</ele><time>2026-03-29T12:22:11.156Z</time></trkpt><trkpt lat="43.7503206" lon="11.0501884"><ele>163.33333333333334</ele><time>2026-03-29T12:22:12.156Z</time></trkpt><trkpt lat="43.7502095" lon="11.050382"><ele>163.0</ele><time>2026-03-29T12:22:13.156Z</time></trkpt><trkpt lat="43.7500922" lon="11.0505699"><ele>163.0</ele><time>2026-03-29T12:22:14.156Z</time></trkpt><trkpt lat="43.7499819" lon="11.0507482"><ele>163.0</ele><time>2026-03-29T12:22:15.156Z</time></trkpt><trkpt lat="43.7498725" lon="11.0509285"><ele>163.0</ele><time>2026-03-29T12:22:16.156Z</time></trkpt><trkpt lat="43.7497694" lon="11.0511115"><ele>164.66666666666669</ele><time>2026-03-29T12:22:17.156Z</time></trkpt><trkpt lat="43.7496591" lon="11.0512851"><ele>166.33333333333334</ele><time>2026-03-29T12:22:18.156Z</time></trkpt><trkpt lat="43.7495411" lon="11.0514514"><ele>168.0</ele><time>2026-03-29T12:22:19.156Z</time></trkpt><trkpt lat="43.7494129" lon="11.0516066"><ele>170.0</ele><time>2026-03-29T12:22:20.156Z</time></trkpt><trkpt lat="43.7492815" lon="11.0517554"><ele>172.0</ele><time>2026-03-29T12:22:21.156Z</time></trkpt><trkpt lat="43.7491474" lon="11.0519034"><ele>174.0</ele><time>2026-03-29T12:22:22.156Z</time></trkpt><trkpt lat="43.7490107" lon="11.0520471"><ele>174.0</ele><time>2026-03-29T12:22:23.156Z</time></trkpt><trkpt lat="43.7488709" lon="11.0522055"><ele>174.0</ele><time>2026-03-29T12:22:24.155Z</time></trkpt><trkpt lat="43.7487378" lon="11.0523779"><ele>174.0</ele><time>2026-03-29T12:22:25.156Z</time></trkpt><trkpt lat="43.7486169" lon="11.0525517"><ele>174.5</ele><time>2026-03-29T12:22:26.155Z</time></trkpt><trkpt lat="43.7485077" lon="11.0527262"><ele>175.0</ele><time>2026-03-29T12:22:27.156Z</time></trkpt><trkpt lat="43.7484218" lon="11.0528859"><ele>175.5</ele><time>2026-03-29T12:22:28.156Z</time></trkpt><trkpt lat="43.748348" lon="11.053048"><ele>176.0</ele><time>2026-03-29T12:22:29.156Z</time></trkpt><trkpt lat="43.7482837" lon="11.0532138"><ele>177.0</ele><time>2026-03-29T12:22:30.156Z</time></trkpt><trkpt lat="43.7482019" lon="11.0533713"><ele>178.0</ele><time>2026-03-29T12:22:31.156Z</time></trkpt><trkpt lat="43.7481042" lon="11.0535158"><ele>179.0</ele><time>2026-03-29T12:22:32.156Z</time></trkpt><trkpt lat="43.7480054" lon="11.0536541"><ele>180.0</ele><time>2026-03-29T12:22:33.156Z</time></trkpt><trkpt lat="43.7479139" lon="11.0537954"><ele>180.0</ele><time>2026-03-29T12:22:34.156Z</time></trkpt><trkpt lat="43.7478211" lon="11.0539389"><ele>180.0</ele><time>2026-03-29T12:22:35.156Z</time></trkpt><trkpt lat="43.7477274" lon="11.0541141"><ele>180.0</ele><time>2026-03-29T12:22:36.156Z</time></trkpt><trkpt lat="43.7476367" lon="11.0543023"><ele>177.33333333333334</ele><time>2026-03-29T12:22:37.156Z</time></trkpt><trkpt lat="43.7475376" lon="11.0544993"><ele>174.66666666666669</ele><time>2026-03-29T12:22:38.156Z</time></trkpt><trkpt lat="43.7474296" lon="11.0546902"><ele>172.0</ele><time>2026-03-29T12:22:39.156Z</time></trkpt><trkpt lat="43.7473228" lon="11.0548784"><ele>172.66666666666669</ele><time>2026-03-29T12:22:40.156Z</time></trkpt><trkpt lat="43.747227" lon="11.0550511"><ele>173.33333333333334</ele><time>2026-03-29T12:22:41.156Z</time></trkpt><trkpt lat="43.7471318" lon="11.055242"><ele>174.0</ele><time>2026-03-29T12:22:42.156Z</time></trkpt><trkpt lat="43.7470626" lon="11.0554367"><ele>174.0</ele><time>2026-03-29T12:22:43.156Z</time></trkpt><trkpt lat="43.7470166" lon="11.0556626"><ele>174.0</ele><time>2026-03-29T12:22:44.156Z</time></trkpt><trkpt lat="43.7469776" lon="11.0559232"><ele>174.0</ele><time>2026-03-29T12:22:45.156Z</time></trkpt><trkpt lat="43.746908" lon="11.0561835"><ele>175.0</ele><time>2026-03-29T12:22:46.156Z</time></trkpt><trkpt lat="43.7468287" lon="11.0563925"><ele>176.0</ele><time>2026-03-29T12:22:47.155Z</time></trkpt><trkpt lat="43.7467586" lon="11.0565733"><ele>177.0</ele><time>2026-03-29T12:22:48.156Z</time></trkpt><trkpt lat="43.7466941" lon="11.0567383"><ele>177.5</ele><time>2026-03-29T12:22:49.155Z</time></trkpt><trkpt lat="43.7466313" lon="11.0568791"><ele>178.0</ele><time>2026-03-29T12:22:50.156Z</time></trkpt><trkpt lat="43.7465727" lon="11.0570384"><ele>178.5</ele><time>2026-03-29T12:22:51.156Z</time></trkpt><trkpt lat="43.7465335" lon="11.0572142"><ele>179.0</ele><time>2026-03-29T12:22:52.156Z</time></trkpt><trkpt lat="43.746495" lon="11.0574018"><ele>179.0</ele><time>2026-03-29T12:22:53.156Z</time></trkpt><trkpt lat="43.7464679" lon="11.0576006"><ele>179.0</ele><time>2026-03-29T12:22:54.155Z</time></trkpt><trkpt lat="43.7464454" lon="11.057804"><ele>179.0</ele><time>2026-03-29T12:22:55.156Z</time></trkpt><trkpt lat="43.746429" lon="11.0580104"><ele>179.0</ele><time>2026-03-29T12:22:56.156Z</time></trkpt><trkpt lat="43.7464132" lon="11.0582288"><ele>176.75</ele><time>2026-03-29T12:22:57.156Z</time></trkpt><trkpt lat="43.7464038" lon="11.0584369"><ele>174.5</ele><time>2026-03-29T12:22:58.156Z</time></trkpt><trkpt lat="43.7463915" lon="11.0586179"><ele>172.25</ele><time>2026-03-29T12:22:59.156Z</time></trkpt><trkpt lat="43.7463852" lon="11.058789"><ele>170.0</ele><time>2026-03-29T12:23:00.156Z</time></trkpt><trkpt lat="43.7463791" lon="11.0589509"><ele>168.25</ele><time>2026-03-29T12:23:01.156Z</time></trkpt><trkpt lat="43.7463708" lon="11.0591238"><ele>166.5</ele><time>2026-03-29T12:23:02.156Z</time></trkpt><trkpt lat="43.7463673" lon="11.0593136"><ele>164.75</ele><time>2026-03-29T12:23:03.156Z</time></trkpt><trkpt lat="43.746386" lon="11.0595244"><ele>163.0</ele><time>2026-03-29T12:23:04.156Z</time></trkpt><trkpt lat="43.7464345" lon="11.0597308"><ele>163.0</ele><time>2026-03-29T12:23:05.156Z</time></trkpt><trkpt lat="43.7464915" lon="11.0599297"><ele>163.0</ele><time>2026-03-29T12:23:06.156Z</time></trkpt><trkpt lat="43.746532" lon="11.060116"><ele>163.0</ele><time>2026-03-29T12:23:07.156Z</time></trkpt><trkpt lat="43.7465337" lon="11.060309"><ele>163.0</ele><time>2026-03-29T12:23:08.156Z</time></trkpt><trkpt lat="43.7465315" lon="11.0605238"><ele>164.0</ele><time>2026-03-29T12:23:09.156Z</time></trkpt><trkpt lat="43.7465309" lon="11.0607427"><ele>165.0</ele><time>2026-03-29T12:23:10.156Z</time></trkpt><trkpt lat="43.7465262" lon="11.0609468"><ele>166.0</ele><time>2026-03-29T12:23:11.156Z</time></trkpt><trkpt lat="43.7465254" lon="11.0611396"><ele>167.0</ele><time>2026-03-29T12:23:12.156Z</time></trkpt><trkpt lat="43.7465425" lon="11.0613379"><ele>168.0</ele><time>2026-03-29T12:23:13.156Z</time></trkpt><trkpt lat="43.7465787" lon="11.0615389"><ele>169.0</ele><time>2026-03-29T12:23:14.156Z</time></trkpt><trkpt lat="43.7466228" lon="11.0617533"><ele>170.0</ele><time>2026-03-29T12:23:15.156Z</time></trkpt><trkpt lat="43.7466589" lon="11.0619726"><ele>170.33333333333331</ele><time>2026-03-29T12:23:16.156Z</time></trkpt><trkpt lat="43.7466998" lon="11.0621867"><ele>170.66666666666666</ele><time>2026-03-29T12:23:17.156Z</time></trkpt><trkpt lat="43.7467393" lon="11.0623908"><ele>171.0</ele><time>2026-03-29T12:23:18.156Z</time></trkpt><trkpt lat="43.7467684" lon="11.062605"><ele>171.66666666666666</ele><time>2026-03-29T12:23:19.155Z</time></trkpt><trkpt lat="43.7467915" lon="11.0628295"><ele>172.33333333333331</ele><time>2026-03-29T12:23:20.156Z</time></trkpt><trkpt lat="43.7468119" lon="11.0630451"><ele>173.0</ele><time>2026-03-29T12:23:21.156Z</time></trkpt><trkpt lat="43.7468261" lon="11.0632487"><ele>172.66666666666666</ele><time>2026-03-29T12:23:22.156Z</time></trkpt><trkpt lat="43.7468304" lon="11.0634554"><ele>172.33333333333334</ele><time>2026-03-29T12:23:23.156Z</time></trkpt><trkpt lat="43.7468222" lon="11.063675"><ele>172.0</ele><time>2026-03-29T12:23:24.156Z</time></trkpt><trkpt lat="43.7468068" lon="11.0638996"><ele>172.0</ele><time>2026-03-29T12:23:25.156Z</time></trkpt><trkpt lat="43.7467815" lon="11.0641286"><ele>172.0</ele><time>2026-03-29T12:23:26.156Z</time></trkpt><trkpt lat="43.7467558" lon="11.0643512"><ele>172.0</ele><time>2026-03-29T12:23:27.156Z</time></trkpt><trkpt lat="43.7467214" lon="11.064573"><ele>172.0</ele><time>2026-03-29T12:23:28.156Z</time></trkpt><trkpt lat="43.7466842" lon="11.0647884"><ele>172.0</ele><time>2026-03-29T12:23:29.156Z</time></trkpt><trkpt lat="43.7466557" lon="11.0649874"><ele>172.0</ele><time>2026-03-29T12:23:30.156Z</time></trkpt><trkpt lat="43.7466348" lon="11.0651482"><ele>172.0</ele><time>2026-03-29T12:23:31.156Z</time></trkpt><trkpt lat="43.7466188" lon="11.0652858"><ele>171.66666666666669</ele><time>2026-03-29T12:23:32.156Z</time></trkpt><trkpt lat="43.7465748" lon="11.0653985"><ele>171.33333333333334</ele><time>2026-03-29T12:23:33.156Z</time></trkpt><trkpt lat="43.7464984" lon="11.0654655"><ele>171.0</ele><time>2026-03-29T12:23:34.156Z</time></trkpt><trkpt lat="43.7464203" lon="11.0654968"><ele>170.66666666666666</ele><time>2026-03-29T12:23:35.156Z</time></trkpt><trkpt lat="43.7463374" lon="11.0655379"><ele>170.33333333333331</ele><time>2026-03-29T12:23:36.156Z</time></trkpt><trkpt lat="43.7462599" lon="11.0655919"><ele>170.0</ele><time>2026-03-29T12:23:37.156Z</time></trkpt><trkpt lat="43.7461867" lon="11.0656382"><ele>170.0</ele><time>2026-03-29T12:23:38.156Z</time></trkpt><trkpt lat="43.7461178" lon="11.0656674"><ele>170.0</ele><time>2026-03-29T12:23:39.156Z</time></trkpt><trkpt lat="43.7460439" lon="11.065653"><ele>170.0</ele><time>2026-03-29T12:23:40.156Z</time></trkpt><trkpt lat="43.745976" lon="11.0656187"><ele>170.0</ele><time>2026-03-29T12:23:41.156Z</time></trkpt><trkpt lat="43.7458936" lon="11.0656131"><ele>170.0</ele><time>2026-03-29T12:23:42.156Z</time></trkpt><trkpt lat="43.7457914" lon="11.0656609"><ele>170.0</ele><time>2026-03-29T12:23:43.156Z</time></trkpt><trkpt lat="43.7456667" lon="11.0657166"><ele>168.33333333333331</ele><time>2026-03-29T12:23:44.156Z</time></trkpt><trkpt lat="43.7455322" lon="11.0657854"><ele>166.66666666666666</ele><time>2026-03-29T12:23:45.155Z</time></trkpt><trkpt lat="43.7453854" lon="11.0658437"><ele>165.0</ele><time>2026-03-29T12:23:46.156Z</time></trkpt><trkpt lat="43.7452415" lon="11.0659195"><ele>164.0</ele><time>2026-03-29T12:23:47.156Z</time></trkpt><trkpt lat="43.7451068" lon="11.0659921"><ele>163.0</ele><time>2026-03-29T12:23:48.156Z</time></trkpt><trkpt lat="43.7449782" lon="11.0660575"><ele>162.0</ele><time>2026-03-29T12:23:49.156Z</time></trkpt><trkpt lat="43.7448543" lon="11.0661169"><ele>161.0</ele><time>2026-03-29T12:23:50.155Z</time></trkpt><trkpt lat="43.7447354" lon="11.0661704"><ele>161.0</ele><time>2026-03-29T12:23:51.156Z</time></trkpt><trkpt lat="43.7446281" lon="11.0662103"><ele>161.0</ele><time>2026-03-29T12:23:52.156Z</time></trkpt><trkpt lat="43.7445375" lon="11.0662451"><ele>161.0</ele><time>2026-03-29T12:23:53.156Z</time></trkpt><trkpt lat="43.7444738" lon="11.0662735"><ele>161.0</ele><time>2026-03-29T12:23:54.156Z</time></trkpt><trkpt lat="43.7443922" lon="11.0663058"><ele>161.0</ele><time>2026-03-29T12:23:56.156Z</time></trkpt><trkpt lat="43.7443433" lon="11.0664063"><ele>161.0</ele><time>2026-03-29T12:24:01.156Z</time></trkpt><trkpt lat="43.7443531" lon="11.0664979"><ele>161.5</ele><time>2026-03-29T12:24:02.156Z</time></trkpt><trkpt lat="43.7443771" lon="11.0666133"><ele>162.0</ele><time>2026-03-29T12:24:04.156Z</time></trkpt><trkpt lat="43.7443174" lon="11.0667119"><ele>162.5</ele><time>2026-03-29T12:24:06.155Z</time></trkpt><trkpt lat="43.7442551" lon="11.0667691"><ele>163.0</ele><time>2026-03-29T12:24:07.156Z</time></trkpt><trkpt lat="43.744185" lon="11.0668291"><ele>163.5</ele><time>2026-03-29T12:24:08.156Z</time></trkpt><trkpt lat="43.7441255" lon="11.0668764"><ele>164.0</ele><time>2026-03-29T12:24:09.156Z</time></trkpt><trkpt lat="43.7440343" lon="11.0669421"><ele>164.0</ele><time>2026-03-29T12:24:11.156Z</time></trkpt><trkpt lat="43.7439384" lon="11.0670043"><ele>164.0</ele><time>2026-03-29T12:24:13.156Z</time></trkpt><trkpt lat="43.7438639" lon="11.0670473"><ele>164.0</ele><time>2026-03-29T12:24:16.156Z</time></trkpt><trkpt lat="43.7438652" lon="11.0671461"><ele>164.0</ele><time>2026-03-29T12:24:18.156Z</time></trkpt><trkpt lat="43.7439036" lon="11.0672881"><ele>164.0</ele><time>2026-03-29T12:24:20.156Z</time></trkpt><trkpt lat="43.7439461" lon="11.0674078"><ele>164.39999999999998</ele><time>2026-03-29T12:24:22.156Z</time></trkpt><trkpt lat="43.7439181" lon="11.0675171"><ele>164.8</ele><time>2026-03-29T12:24:25.156Z</time></trkpt><trkpt lat="43.7438421" lon="11.0675612"><ele>165.2</ele><time>2026-03-29T12:24:27.155Z</time></trkpt><trkpt lat="43.7437442" lon="11.0676373"><ele>165.60000000000002</ele><time>2026-03-29T12:24:29.156Z</time></trkpt><trkpt lat="43.743632" lon="11.0677258"><ele>166.0</ele><time>2026-03-29T12:24:31.156Z</time></trkpt><trkpt lat="43.7435699" lon="11.0677798"><ele>165.0</ele><time>2026-03-29T12:24:32.156Z</time></trkpt><trkpt lat="43.7435057" lon="11.067833"><ele>164.0</ele><time>2026-03-29T12:24:33.156Z</time></trkpt><trkpt lat="43.7434444" lon="11.0678798"><ele>163.0</ele><time>2026-03-29T12:24:34.156Z</time></trkpt><trkpt lat="43.7433881" lon="11.0679333"><ele>162.0</ele><time>2026-03-29T12:24:35.156Z</time></trkpt><trkpt lat="43.7433297" lon="11.067985"><ele>161.0</ele><time>2026-03-29T12:24:36.156Z</time></trkpt><trkpt lat="43.7432298" lon="11.0680736"><ele>160.0</ele><time>2026-03-29T12:24:38.156Z</time></trkpt><trkpt lat="43.7431392" lon="11.0681424"><ele>160.0</ele><time>2026-03-29T12:24:40.156Z</time></trkpt><trkpt lat="43.7430698" lon="11.0682171"><ele>160.0</ele><time>2026-03-29T12:24:42.156Z</time></trkpt><trkpt lat="43.7429868" lon="11.0682901"><ele>160.0</ele><time>2026-03-29T12:24:44.156Z</time></trkpt><trkpt lat="43.7428892" lon="11.0683572"><ele>160.0</ele><time>2026-03-29T12:24:46.156Z</time></trkpt><trkpt lat="43.7427838" lon="11.0684364"><ele>160.0</ele><time>2026-03-29T12:24:48.156Z</time></trkpt><trkpt lat="43.7426776" lon="11.0685088"><ele>157.2</ele><time>2026-03-29T12:24:50.156Z</time></trkpt><trkpt lat="43.7426211" lon="11.0685527"><ele>154.4</ele><time>2026-03-29T12:24:51.156Z</time></trkpt><trkpt lat="43.7425179" lon="11.0686355"><ele>151.6</ele><time>2026-03-29T12:24:53.156Z</time></trkpt><trkpt lat="43.7424114" lon="11.0687083"><ele>148.8</ele><time>2026-03-29T12:24:55.156Z</time></trkpt><trkpt lat="43.7423031" lon="11.0687943"><ele>146.0</ele><time>2026-03-29T12:24:57.156Z</time></trkpt><trkpt lat="43.742243" lon="11.0688418"><ele>146.0</ele><time>2026-03-29T12:24:58.156Z</time></trkpt><trkpt lat="43.7421823" lon="11.0688805"><ele>146.0</ele><time>2026-03-29T12:24:59.156Z</time></trkpt><trkpt lat="43.7420649" lon="11.068958"><ele>146.0</ele><time>2026-03-29T12:25:01.156Z</time></trkpt><trkpt lat="43.7420067" lon="11.0689992"><ele>146.0</ele><time>2026-03-29T12:25:02.156Z</time></trkpt><trkpt lat="43.7419018" lon="11.0690938"><ele>146.0</ele><time>2026-03-29T12:25:04.155Z</time></trkpt><trkpt lat="43.7418496" lon="11.0691514"><ele>143.16666666666666</ele><time>2026-03-29T12:25:05.156Z</time></trkpt><trkpt lat="43.7417932" lon="11.0692096"><ele>140.33333333333331</ele><time>2026-03-29T12:25:06.156Z</time></trkpt><trkpt lat="43.7417408" lon="11.0692669"><ele>137.5</ele><time>2026-03-29T12:25:07.156Z</time></trkpt><trkpt lat="43.7416631" lon="11.0693652"><ele>134.66666666666666</ele><time>2026-03-29T12:25:09.156Z</time></trkpt><trkpt lat="43.7416017" lon="11.0694501"><ele>131.83333333333334</ele><time>2026-03-29T12:25:11.156Z</time></trkpt><trkpt lat="43.7415218" lon="11.0695489"><ele>129.0</ele><time>2026-03-29T12:25:13.156Z</time></trkpt><trkpt lat="43.7414454" lon="11.0696368"><ele>129.0</ele><time>2026-03-29T12:25:15.156Z</time></trkpt><trkpt lat="43.7413784" lon="11.069706"><ele>129.0</ele><time>2026-03-29T12:25:17.156Z</time></trkpt><trkpt lat="43.7413494" lon="11.0697921"><ele>129.0</ele><time>2026-03-29T12:25:19.156Z</time></trkpt><trkpt lat="43.7413354" lon="11.069935"><ele>129.0</ele><time>2026-03-29T12:25:21.156Z</time></trkpt><trkpt lat="43.741333" lon="11.0700287"><ele>129.0</ele><time>2026-03-29T12:25:22.156Z</time></trkpt><trkpt lat="43.7413305" lon="11.0701228"><ele>129.0</ele><time>2026-03-29T12:25:23.156Z</time></trkpt><trkpt lat="43.7413248" lon="11.0702127"><ele>128.83333333333334</ele><time>2026-03-29T12:25:24.156Z</time></trkpt><trkpt lat="43.741318" lon="11.0703729"><ele>128.66666666666666</ele><time>2026-03-29T12:25:26.156Z</time></trkpt><trkpt lat="43.7413133" lon="11.0704621"><ele>128.5</ele><time>2026-03-29T12:25:27.156Z</time></trkpt><trkpt lat="43.741302" lon="11.0705606"><ele>128.33333333333331</ele><time>2026-03-29T12:25:28.156Z</time></trkpt><trkpt lat="43.741293" lon="11.0706649"><ele>128.16666666666666</ele><time>2026-03-29T12:25:29.156Z</time></trkpt><trkpt lat="43.7412866" lon="11.0707741"><ele>128.0</ele><time>2026-03-29T12:25:30.156Z</time></trkpt><trkpt lat="43.7412766" lon="11.0709035"><ele>129.16666666666666</ele><time>2026-03-29T12:25:31.156Z</time></trkpt><trkpt lat="43.7412652" lon="11.0710298"><ele>130.33333333333331</ele><time>2026-03-29T12:25:32.156Z</time></trkpt><trkpt lat="43.7412607" lon="11.0711549"><ele>131.5</ele><time>2026-03-29T12:25:33.156Z</time></trkpt><trkpt lat="43.7412511" lon="11.0712775"><ele>132.66666666666666</ele><time>2026-03-29T12:25:34.155Z</time></trkpt><trkpt lat="43.7412425" lon="11.071395"><ele>133.83333333333334</ele><time>2026-03-29T12:25:35.156Z</time></trkpt><trkpt lat="43.7412349" lon="11.0714932"><ele>135.0</ele><time>2026-03-29T12:25:36.156Z</time></trkpt><trkpt lat="43.7412292" lon="11.0715808"><ele>136.8</ele><time>2026-03-29T12:25:37.155Z</time></trkpt><trkpt lat="43.7412207" lon="11.0717547"><ele>138.6</ele><time>2026-03-29T12:25:39.156Z</time></trkpt><trkpt lat="43.741215" lon="11.0718426"><ele>140.4</ele><time>2026-03-29T12:25:40.156Z</time></trkpt><trkpt lat="43.7412063" lon="11.0720091"><ele>142.2</ele><time>2026-03-29T12:25:42.156Z</time></trkpt><trkpt lat="43.7411979" lon="11.0721814"><ele>144.0</ele><time>2026-03-29T12:25:44.156Z</time></trkpt><trkpt lat="43.7411892" lon="11.0723214"><ele>144.0</ele><time>2026-03-29T12:25:46.156Z</time></trkpt><trkpt lat="43.7412228" lon="11.0724323"><ele>144.0</ele><time>2026-03-29T12:25:48.156Z</time></trkpt><trkpt lat="43.7412769" lon="11.072501"><ele>144.0</ele><time>2026-03-29T12:25:49.156Z</time></trkpt><trkpt lat="43.7413551" lon="11.0725873"><ele>144.0</ele><time>2026-03-29T12:25:50.156Z</time></trkpt><trkpt lat="43.7414339" lon="11.0727047"><ele>144.0</ele><time>2026-03-29T12:25:51.156Z</time></trkpt><trkpt lat="43.7415175" lon="11.0728302"><ele>145.0</ele><time>2026-03-29T12:25:52.156Z</time></trkpt><trkpt lat="43.7416062" lon="11.0729557"><ele>146.0</ele><time>2026-03-29T12:25:53.156Z</time></trkpt><trkpt lat="43.7416947" lon="11.0730844"><ele>147.0</ele><time>2026-03-29T12:25:54.156Z</time></trkpt><trkpt lat="43.7417839" lon="11.073212"><ele>148.0</ele><time>2026-03-29T12:25:55.156Z</time></trkpt><trkpt lat="43.7418768" lon="11.0733414"><ele>149.0</ele><time>2026-03-29T12:25:56.156Z</time></trkpt><trkpt lat="43.7419736" lon="11.0734671"><ele>150.0</ele><time>2026-03-29T12:25:57.156Z</time></trkpt><trkpt lat="43.7420679" lon="11.073593"><ele>151.0</ele><time>2026-03-29T12:25:58.156Z</time></trkpt><trkpt lat="43.7421742" lon="11.0737122"><ele>152.0</ele><time>2026-03-29T12:25:59.156Z</time></trkpt><trkpt lat="43.7422761" lon="11.0738341"><ele>152.0</ele><time>2026-03-29T12:26:00.156Z</time></trkpt><trkpt lat="43.7423796" lon="11.0739614"><ele>152.0</ele><time>2026-03-29T12:26:01.156Z</time></trkpt><trkpt lat="43.7424841" lon="11.0740847"><ele>152.0</ele><time>2026-03-29T12:26:02.156Z</time></trkpt><trkpt lat="43.7425897" lon="11.0741965"><ele>152.0</ele><time>2026-03-29T12:26:03.156Z</time></trkpt><trkpt lat="43.7426962" lon="11.0743078"><ele>152.25</ele><time>2026-03-29T12:26:04.156Z</time></trkpt><trkpt lat="43.7428019" lon="11.0744112"><ele>152.5</ele><time>2026-03-29T12:26:05.156Z</time></trkpt><trkpt lat="43.7429097" lon="11.0745136"><ele>152.75</ele><time>2026-03-29T12:26:06.156Z</time></trkpt><trkpt lat="43.7430133" lon="11.0746159"><ele>153.0</ele><time>2026-03-29T12:26:07.156Z</time></trkpt><trkpt lat="43.7431202" lon="11.0747155"><ele>153.0</ele><time>2026-03-29T12:26:08.156Z</time></trkpt><trkpt lat="43.7432237" lon="11.07482"><ele>153.0</ele><time>2026-03-29T12:26:09.156Z</time></trkpt><trkpt lat="43.7433294" lon="11.0749207"><ele>153.0</ele><time>2026-03-29T12:26:10.156Z</time></trkpt><trkpt lat="43.7434303" lon="11.075019"><ele>153.0</ele><time>2026-03-29T12:26:11.156Z</time></trkpt><trkpt lat="43.7435317" lon="11.0751221"><ele>154.25</ele><time>2026-03-29T12:26:12.156Z</time></trkpt><trkpt lat="43.7436313" lon="11.0752251"><ele>155.5</ele><time>2026-03-29T12:26:13.156Z</time></trkpt><trkpt lat="43.7437302" lon="11.0753387"><ele>156.75</ele><time>2026-03-29T12:26:14.156Z</time></trkpt><trkpt lat="43.7438241" lon="11.0754656"><ele>158.0</ele><time>2026-03-29T12:26:15.156Z</time></trkpt><trkpt lat="43.7439221" lon="11.0755946"><ele>158.0</ele><time>2026-03-29T12:26:16.156Z</time></trkpt><trkpt lat="43.7440166" lon="11.0757181"><ele>158.0</ele><time>2026-03-29T12:26:17.156Z</time></trkpt><trkpt lat="43.7441099" lon="11.0758196"><ele>158.0</ele><time>2026-03-29T12:26:18.156Z</time></trkpt><trkpt lat="43.7442127" lon="11.0759107"><ele>158.0</ele><time>2026-03-29T12:26:19.156Z</time></trkpt><trkpt lat="43.7443146" lon="11.076007"><ele>157.25</ele><time>2026-03-29T12:26:20.156Z</time></trkpt><trkpt lat="43.7444159" lon="11.0761063"><ele>156.5</ele><time>2026-03-29T12:26:21.156Z</time></trkpt><trkpt lat="43.7445133" lon="11.0762123"><ele>155.75</ele><time>2026-03-29T12:26:22.156Z</time></trkpt><trkpt lat="43.744604" lon="11.0763236"><ele>155.0</ele><time>2026-03-29T12:26:23.156Z</time></trkpt><trkpt lat="43.7447015" lon="11.0764394"><ele>155.0</ele><time>2026-03-29T12:26:24.156Z</time></trkpt><trkpt lat="43.7448004" lon="11.0765545"><ele>155.0</ele><time>2026-03-29T12:26:25.155Z</time></trkpt><trkpt lat="43.744891" lon="11.0766594"><ele>155.0</ele><time>2026-03-29T12:26:26.156Z</time></trkpt><trkpt lat="43.7449716" lon="11.0767567"><ele>155.0</ele><time>2026-03-29T12:26:27.156Z</time></trkpt><trkpt lat="43.7450473" lon="11.0768554"><ele>155.2</ele><time>2026-03-29T12:26:28.156Z</time></trkpt><trkpt lat="43.7451187" lon="11.0769538"><ele>155.4</ele><time>2026-03-29T12:26:29.156Z</time></trkpt><trkpt lat="43.7451893" lon="11.0770409"><ele>155.6</ele><time>2026-03-29T12:26:30.156Z</time></trkpt><trkpt lat="43.745256" lon="11.0771455"><ele>155.8</ele><time>2026-03-29T12:26:31.156Z</time></trkpt><trkpt lat="43.7453203" lon="11.0772659"><ele>156.0</ele><time>2026-03-29T12:26:32.156Z</time></trkpt><trkpt lat="43.7453858" lon="11.0773982"><ele>156.8</ele><time>2026-03-29T12:26:33.156Z</time></trkpt><trkpt lat="43.7454522" lon="11.0775355"><ele>157.6</ele><time>2026-03-29T12:26:34.156Z</time></trkpt><trkpt lat="43.7455147" lon="11.0776638"><ele>158.4</ele><time>2026-03-29T12:26:35.156Z</time></trkpt><trkpt lat="43.7455751" lon="11.0777826"><ele>159.2</ele><time>2026-03-29T12:26:36.156Z</time></trkpt><trkpt lat="43.7456333" lon="11.0778965"><ele>160.0</ele><time>2026-03-29T12:26:37.156Z</time></trkpt><trkpt lat="43.7456871" lon="11.0779935"><ele>160.0</ele><time>2026-03-29T12:26:38.156Z</time></trkpt><trkpt lat="43.7457479" lon="11.0780933"><ele>160.0</ele><time>2026-03-29T12:26:39.156Z</time></trkpt><trkpt lat="43.7458266" lon="11.0781929"><ele>160.0</ele><time>2026-03-29T12:26:40.156Z</time></trkpt><trkpt lat="43.745913" lon="11.0782926"><ele>160.0</ele><time>2026-03-29T12:26:41.156Z</time></trkpt><trkpt lat="43.7460094" lon="11.0783928"><ele>160.0</ele><time>2026-03-29T12:26:42.156Z</time></trkpt><trkpt lat="43.7461211" lon="11.0784913"><ele>160.5</ele><time>2026-03-29T12:26:43.156Z</time></trkpt><trkpt lat="43.7462275" lon="11.0786042"><ele>161.0</ele><time>2026-03-29T12:26:44.156Z</time></trkpt><trkpt lat="43.7463303" lon="11.0787256"><ele>161.5</ele><time>2026-03-29T12:26:45.156Z</time></trkpt><trkpt lat="43.746435" lon="11.0788454"><ele>162.0</ele><time>2026-03-29T12:26:46.156Z</time></trkpt><trkpt lat="43.7465378" lon="11.0789559"><ele>162.0</ele><time>2026-03-29T12:26:47.156Z</time></trkpt><trkpt lat="43.7466365" lon="11.0790558"><ele>162.0</ele><time>2026-03-29T12:26:48.156Z</time></trkpt><trkpt lat="43.7467303" lon="11.0791536"><ele>162.0</ele><time>2026-03-29T12:26:49.156Z</time></trkpt><trkpt lat="43.7468399" lon="11.0792471"><ele>162.0</ele><time>2026-03-29T12:26:50.156Z</time></trkpt><trkpt lat="43.7469575" lon="11.0793195"><ele>163.39999999999998</ele><time>2026-03-29T12:26:51.156Z</time></trkpt><trkpt lat="43.7470577" lon="11.0793802"><ele>164.79999999999998</ele><time>2026-03-29T12:26:52.156Z</time></trkpt><trkpt lat="43.7471418" lon="11.0794413"><ele>166.2</ele><time>2026-03-29T12:26:53.156Z</time></trkpt><trkpt lat="43.7472125" lon="11.0794805"><ele>167.6</ele><time>2026-03-29T12:26:54.156Z</time></trkpt><trkpt lat="43.7472941" lon="11.0794921"><ele>169.0</ele><time>2026-03-29T12:26:55.156Z</time></trkpt><trkpt lat="43.7473898" lon="11.0794905"><ele>169.0</ele><time>2026-03-29T12:26:56.156Z</time></trkpt><trkpt lat="43.7475122" lon="11.0794993"><ele>169.0</ele><time>2026-03-29T12:26:57.156Z</time></trkpt><trkpt lat="43.747632" lon="11.0795165"><ele>169.0</ele><time>2026-03-29T12:26:58.156Z</time></trkpt><trkpt lat="43.7477549" lon="11.0795367"><ele>169.0</ele><time>2026-03-29T12:26:59.156Z</time></trkpt><trkpt lat="43.7478561" lon="11.0795551"><ele>170.39999999999998</ele><time>2026-03-29T12:27:00.156Z</time></trkpt><trkpt lat="43.7479412" lon="11.0795605"><ele>171.8</ele><time>2026-03-29T12:27:01.156Z</time></trkpt><trkpt lat="43.7480053" lon="11.0795615"><ele>173.2</ele><time>2026-03-29T12:27:02.156Z</time></trkpt><trkpt lat="43.7481015" lon="11.0795839"><ele>174.60000000000002</ele><time>2026-03-29T12:27:04.156Z</time></trkpt><trkpt lat="43.7482287" lon="11.0796156"><ele>176.0</ele><time>2026-03-29T12:27:06.156Z</time></trkpt><trkpt lat="43.7483253" lon="11.0796256"><ele>176.0</ele><time>2026-03-29T12:27:07.156Z</time></trkpt><trkpt lat="43.7484395" lon="11.0796232"><ele>176.0</ele><time>2026-03-29T12:27:08.156Z</time></trkpt><trkpt lat="43.7485734" lon="11.0796377"><ele>176.0</ele><time>2026-03-29T12:27:09.156Z</time></trkpt><trkpt lat="43.7487116" lon="11.0796529"><ele>176.0</ele><time>2026-03-29T12:27:10.156Z</time></trkpt><trkpt lat="43.7488435" lon="11.0796587"><ele>177.20000000000002</ele><time>2026-03-29T12:27:11.156Z</time></trkpt><trkpt lat="43.748951" lon="11.0796736"><ele>178.4</ele><time>2026-03-29T12:27:12.156Z</time></trkpt><trkpt lat="43.7490476" lon="11.0796859"><ele>179.6</ele><time>2026-03-29T12:27:13.156Z</time></trkpt><trkpt lat="43.7491327" lon="11.0797435"><ele>180.8</ele><time>2026-03-29T12:27:14.156Z</time></trkpt><trkpt lat="43.7491985" lon="11.0798563"><ele>182.0</ele><time>2026-03-29T12:27:15.156Z</time></trkpt><trkpt lat="43.7492517" lon="11.079999"><ele>182.25</ele><time>2026-03-29T12:27:16.156Z</time></trkpt><trkpt lat="43.7493073" lon="11.0801739"><ele>182.5</ele><time>2026-03-29T12:27:17.156Z</time></trkpt><trkpt lat="43.7493526" lon="11.0803407"><ele>182.75</ele><time>2026-03-29T12:27:18.156Z</time></trkpt><trkpt lat="43.7493786" lon="11.0804967"><ele>183.0</ele><time>2026-03-29T12:27:19.155Z</time></trkpt><trkpt lat="43.749376" lon="11.0806508"><ele>183.16666666666666</ele><time>2026-03-29T12:27:20.156Z</time></trkpt><trkpt lat="43.749357" lon="11.0807806"><ele>183.33333333333334</ele><time>2026-03-29T12:27:21.156Z</time></trkpt><trkpt lat="43.7493269" lon="11.0808876"><ele>183.5</ele><time>2026-03-29T12:27:22.156Z</time></trkpt><trkpt lat="43.749305" lon="11.0809824"><ele>183.66666666666669</ele><time>2026-03-29T12:27:23.156Z</time></trkpt><trkpt lat="43.7493285" lon="11.0810763"><ele>183.83333333333334</ele><time>2026-03-29T12:27:25.156Z</time></trkpt><trkpt lat="43.7493838" lon="11.0812114"><ele>184.0</ele><time>2026-03-29T12:30:59.156Z</time></trkpt><trkpt lat="43.7494083" lon="11.0812933"><ele>184.0</ele><time>2026-03-29T12:31:00.156Z</time></trkpt><trkpt lat="43.7494379" lon="11.08138"><ele>184.0</ele><time>2026-03-29T12:31:01.156Z</time></trkpt><trkpt lat="43.7494634" lon="11.0814623"><ele>184.0</ele><time>2026-03-29T12:31:02.156Z</time></trkpt><trkpt lat="43.7494946" lon="11.0815494"><ele>184.0</ele><time>2026-03-29T12:31:03.156Z</time></trkpt><trkpt lat="43.7495296" lon="11.0816517"><ele>184.0</ele><time>2026-03-29T12:31:04.156Z</time></trkpt><trkpt lat="43.7495614" lon="11.0817628"><ele>184.0</ele><time>2026-03-29T12:31:05.156Z</time></trkpt><trkpt lat="43.749588" lon="11.0818698"><ele>183.0</ele><time>2026-03-29T12:31:06.156Z</time></trkpt><trkpt lat="43.7496127" lon="11.0819735"><ele>182.0</ele><time>2026-03-29T12:31:07.156Z</time></trkpt><trkpt lat="43.7496391" lon="11.0820733"><ele>181.0</ele><time>2026-03-29T12:31:08.156Z</time></trkpt><trkpt lat="43.7496633" lon="11.0821768"><ele>180.0</ele><time>2026-03-29T12:31:09.156Z</time></trkpt><trkpt lat="43.7496855" lon="11.0822919"><ele>179.0</ele><time>2026-03-29T12:31:10.156Z</time></trkpt><trkpt lat="43.7497021" lon="11.0824156"><ele>178.0</ele><time>2026-03-29T12:31:11.156Z</time></trkpt><trkpt lat="43.7497194" lon="11.0825454"><ele>177.2</ele><time>2026-03-29T12:31:12.156Z</time></trkpt><trkpt lat="43.7497372" lon="11.0826713"><ele>176.4</ele><time>2026-03-29T12:31:13.156Z</time></trkpt><trkpt lat="43.7497601" lon="11.0827969"><ele>175.6</ele><time>2026-03-29T12:31:14.156Z</time></trkpt><trkpt lat="43.749782" lon="11.0829172"><ele>174.79999999999998</ele><time>2026-03-29T12:31:15.156Z</time></trkpt><trkpt lat="43.7498127" lon="11.0830296"><ele>174.0</ele><time>2026-03-29T12:31:16.156Z</time></trkpt><trkpt lat="43.74985" lon="11.0831451"><ele>174.0</ele><time>2026-03-29T12:31:17.156Z</time></trkpt><trkpt lat="43.7498948" lon="11.0832523"><ele>174.0</ele><time>2026-03-29T12:31:18.156Z</time></trkpt><trkpt lat="43.7499386" lon="11.0833746"><ele>174.0</ele><time>2026-03-29T12:31:19.156Z</time></trkpt><trkpt lat="43.7499843" lon="11.0834947"><ele>174.0</ele><time>2026-03-29T12:31:20.156Z</time></trkpt><trkpt lat="43.7500204" lon="11.0836127"><ele>174.0</ele><time>2026-03-29T12:31:21.156Z</time></trkpt><trkpt lat="43.7500507" lon="11.0837217"><ele>174.16666666666666</ele><time>2026-03-29T12:31:22.156Z</time></trkpt><trkpt lat="43.750086" lon="11.0838261"><ele>174.33333333333334</ele><time>2026-03-29T12:31:23.156Z</time></trkpt><trkpt lat="43.750121" lon="11.0839231"><ele>174.5</ele><time>2026-03-29T12:31:24.156Z</time></trkpt><trkpt lat="43.7501528" lon="11.0840273"><ele>174.66666666666669</ele><time>2026-03-29T12:31:25.156Z</time></trkpt><trkpt lat="43.7501763" lon="11.0841231"><ele>174.83333333333334</ele><time>2026-03-29T12:31:26.156Z</time></trkpt><trkpt lat="43.7501949" lon="11.0842101"><ele>175.0</ele><time>2026-03-29T12:31:27.156Z</time></trkpt><trkpt lat="43.7502195" lon="11.0843039"><ele>175.0</ele><time>2026-03-29T12:31:28.155Z</time></trkpt><trkpt lat="43.7502392" lon="11.0843879"><ele>175.0</ele><time>2026-03-29T12:31:29.156Z</time></trkpt><trkpt lat="43.7502564" lon="11.0844734"><ele>175.0</ele><time>2026-03-29T12:31:30.156Z</time></trkpt><trkpt lat="43.7502742" lon="11.0846342"><ele>175.0</ele><time>2026-03-29T12:31:32.156Z</time></trkpt><trkpt lat="43.7502908" lon="11.0847686"><ele>175.0</ele><time>2026-03-29T12:31:34.156Z</time></trkpt><trkpt lat="43.7503218" lon="11.0849239"><ele>173.4</ele><time>2026-03-29T12:31:36.156Z</time></trkpt><trkpt lat="43.7503716" lon="11.0850933"><ele>171.8</ele><time>2026-03-29T12:31:38.156Z</time></trkpt><trkpt lat="43.7504058" lon="11.0851975"><ele>170.2</ele><time>2026-03-29T12:31:39.156Z</time></trkpt><trkpt lat="43.7504382" lon="11.0853054"><ele>168.6</ele><time>2026-03-29T12:31:40.156Z</time></trkpt><trkpt lat="43.7504733" lon="11.0854172"><ele>167.0</ele><time>2026-03-29T12:31:41.156Z</time></trkpt><trkpt lat="43.7505093" lon="11.0855459"><ele>167.0</ele><time>2026-03-29T12:31:42.156Z</time></trkpt><trkpt lat="43.7505418" lon="11.0856652"><ele>167.0</ele><time>2026-03-29T12:31:43.156Z</time></trkpt><trkpt lat="43.7505649" lon="11.0857854"><ele>167.0</ele><time>2026-03-29T12:31:44.156Z</time></trkpt><trkpt lat="43.7505909" lon="11.0859156"><ele>167.0</ele><time>2026-03-29T12:31:45.156Z</time></trkpt><trkpt lat="43.7506094" lon="11.0860413"><ele>167.0</ele><time>2026-03-29T12:31:46.156Z</time></trkpt><trkpt lat="43.7506246" lon="11.0861676"><ele>165.16666666666666</ele><time>2026-03-29T12:31:47.156Z</time></trkpt><trkpt lat="43.7506413" lon="11.0862894"><ele>163.33333333333331</ele><time>2026-03-29T12:31:48.156Z</time></trkpt><trkpt lat="43.7506572" lon="11.0864116"><ele>161.5</ele><time>2026-03-29T12:31:49.156Z</time></trkpt><trkpt lat="43.7506742" lon="11.0865362"><ele>159.66666666666666</ele><time>2026-03-29T12:31:50.156Z</time></trkpt><trkpt lat="43.7507037" lon="11.0866525"><ele>157.83333333333334</ele><time>2026-03-29T12:31:51.155Z</time></trkpt><trkpt lat="43.750738" lon="11.0867665"><ele>156.0</ele><time>2026-03-29T12:31:52.156Z</time></trkpt><trkpt lat="43.7507678" lon="11.0868665"><ele>155.16666666666666</ele><time>2026-03-29T12:31:53.156Z</time></trkpt><trkpt lat="43.7507881" lon="11.0869613"><ele>154.33333333333334</ele><time>2026-03-29T12:31:54.156Z</time></trkpt><trkpt lat="43.750806" lon="11.08705"><ele>153.5</ele><time>2026-03-29T12:31:55.156Z</time></trkpt><trkpt lat="43.7508095" lon="11.0871416"><ele>152.66666666666669</ele><time>2026-03-29T12:31:56.156Z</time></trkpt><trkpt lat="43.7508078" lon="11.0872454"><ele>151.83333333333334</ele><time>2026-03-29T12:31:57.156Z</time></trkpt><trkpt lat="43.7508021" lon="11.0873477"><ele>151.0</ele><time>2026-03-29T12:31:58.155Z</time></trkpt><trkpt lat="43.7507888" lon="11.0874923"><ele>150.33333333333334</ele><time>2026-03-29T12:32:00.156Z</time></trkpt><trkpt lat="43.7507689" lon="11.0875818"><ele>149.66666666666669</ele><time>2026-03-29T12:32:01.156Z</time></trkpt><trkpt lat="43.7507523" lon="11.0876766"><ele>149.0</ele><time>2026-03-29T12:32:02.156Z</time></trkpt><trkpt lat="43.7507314" lon="11.087771"><ele>148.33333333333334</ele><time>2026-03-29T12:32:03.156Z</time></trkpt><trkpt lat="43.7507153" lon="11.0878577"><ele>147.66666666666666</ele><time>2026-03-29T12:32:04.156Z</time></trkpt><trkpt lat="43.7506626" lon="11.0880124"><ele>147.0</ele><time>2026-03-29T12:32:06.156Z</time></trkpt><trkpt lat="43.7506445" lon="11.0880968"><ele>147.0</ele><time>2026-03-29T12:32:07.156Z</time></trkpt><trkpt lat="43.7506376" lon="11.0881848"><ele>147.0</ele><time>2026-03-29T12:32:08.156Z</time></trkpt><trkpt lat="43.7506293" lon="11.0882734"><ele>147.0</ele><time>2026-03-29T12:32:09.156Z</time></trkpt><trkpt lat="43.7506293" lon="11.0884531"><ele>147.0</ele><time>2026-03-29T12:32:11.156Z</time></trkpt><trkpt lat="43.7506469" lon="11.0885471"><ele>147.0</ele><time>2026-03-29T12:32:12.156Z</time></trkpt><trkpt lat="43.7506724" lon="11.0886377"><ele>147.0</ele><time>2026-03-29T12:32:13.156Z</time></trkpt><trkpt lat="43.7507017" lon="11.0887368"><ele>146.0</ele><time>2026-03-29T12:32:14.156Z</time></trkpt><trkpt lat="43.7507436" lon="11.0888228"><ele>145.0</ele><time>2026-03-29T12:32:15.156Z</time></trkpt><trkpt lat="43.7507851" lon="11.0888957"><ele>144.0</ele><time>2026-03-29T12:32:16.156Z</time></trkpt><trkpt lat="43.7508367" lon="11.0889634"><ele>143.0</ele><time>2026-03-29T12:32:17.156Z</time></trkpt><trkpt lat="43.7508937" lon="11.0890159"><ele>142.0</ele><time>2026-03-29T12:32:18.155Z</time></trkpt><trkpt lat="43.7509552" lon="11.0890716"><ele>141.0</ele><time>2026-03-29T12:32:19.156Z</time></trkpt><trkpt lat="43.7510172" lon="11.0891307"><ele>140.0</ele><time>2026-03-29T12:32:20.156Z</time></trkpt><trkpt lat="43.7510787" lon="11.0891931"><ele>137.5</ele><time>2026-03-29T12:32:21.156Z</time></trkpt><trkpt lat="43.7511336" lon="11.0892509"><ele>135.0</ele><time>2026-03-29T12:32:22.156Z</time></trkpt><trkpt lat="43.751184" lon="11.089311"><ele>132.5</ele><time>2026-03-29T12:32:23.156Z</time></trkpt><trkpt lat="43.751232" lon="11.0893758"><ele>130.0</ele><time>2026-03-29T12:32:24.156Z</time></trkpt><trkpt lat="43.7512759" lon="11.0894385"><ele>127.49999999999999</ele><time>2026-03-29T12:32:25.156Z</time></trkpt><trkpt lat="43.7513427" lon="11.0895468"><ele>125.0</ele><time>2026-03-29T12:32:27.155Z</time></trkpt><trkpt lat="43.7513798" lon="11.089672"><ele>124.99999999999999</ele><time>2026-03-29T12:32:29.156Z</time></trkpt><trkpt lat="43.7514052" lon="11.089846"><ele>125.0</ele><time>2026-03-29T12:32:31.156Z</time></trkpt><trkpt lat="43.7514203" lon="11.0899485"><ele>125.0</ele><time>2026-03-29T12:32:32.156Z</time></trkpt><trkpt lat="43.7514297" lon="11.090053"><ele>125.0</ele><time>2026-03-29T12:32:33.156Z</time></trkpt><trkpt lat="43.7514441" lon="11.0901622"><ele>124.99999999999999</ele><time>2026-03-29T12:32:34.156Z</time></trkpt><trkpt lat="43.7514538" lon="11.0902727"><ele>125.0</ele><time>2026-03-29T12:32:35.156Z</time></trkpt><trkpt lat="43.7514533" lon="11.0903796"><ele>123.8</ele><time>2026-03-29T12:32:36.156Z</time></trkpt><trkpt lat="43.7514547" lon="11.090483"><ele>122.6</ele><time>2026-03-29T12:32:37.156Z</time></trkpt><trkpt lat="43.7514452" lon="11.0906284"><ele>121.4</ele><time>2026-03-29T12:32:39.156Z</time></trkpt><trkpt lat="43.7514347" lon="11.09072"><ele>120.2</ele><time>2026-03-29T12:32:41.156Z</time></trkpt><trkpt lat="43.7514292" lon="11.0908117"><ele>119.0</ele><time>2026-03-29T12:32:47.156Z</time></trkpt><trkpt lat="43.7515276" lon="11.0909537"><ele>119.16666666666666</ele><time>2026-03-29T12:32:49.156Z</time></trkpt><trkpt lat="43.7515939" lon="11.0910123"><ele>119.33333333333333</ele><time>2026-03-29T12:32:50.156Z</time></trkpt><trkpt lat="43.7516723" lon="11.0910757"><ele>119.5</ele><time>2026-03-29T12:32:51.156Z</time></trkpt><trkpt lat="43.7517581" lon="11.0911395"><ele>119.66666666666666</ele><time>2026-03-29T12:32:52.156Z</time></trkpt><trkpt lat="43.7518418" lon="11.0912054"><ele>119.83333333333333</ele><time>2026-03-29T12:32:53.156Z</time></trkpt><trkpt lat="43.751885" lon="11.0913027"><ele>120.0</ele><time>2026-03-29T12:32:54.156Z</time></trkpt><trkpt lat="43.7518987" lon="11.0914068"><ele>118.4</ele><time>2026-03-29T12:32:55.156Z</time></trkpt><trkpt lat="43.7518493" lon="11.0915007"><ele>116.8</ele><time>2026-03-29T12:32:56.156Z</time></trkpt><trkpt lat="43.75177" lon="11.0915861"><ele>115.19999999999999</ele><time>2026-03-29T12:32:57.156Z</time></trkpt><trkpt lat="43.7516727" lon="11.0916493"><ele>113.6</ele><time>2026-03-29T12:32:58.156Z</time></trkpt><trkpt lat="43.7515499" lon="11.0917035"><ele>112.0</ele><time>2026-03-29T12:32:59.156Z</time></trkpt><trkpt lat="43.7514119" lon="11.0917344"><ele>111.66666666666667</ele><time>2026-03-29T12:33:00.156Z</time></trkpt><trkpt lat="43.7512597" lon="11.0917228"><ele>111.33333333333334</ele><time>2026-03-29T12:33:01.156Z</time></trkpt><trkpt lat="43.7511093" lon="11.0917042"><ele>111.0</ele><time>2026-03-29T12:33:02.156Z</time></trkpt><trkpt lat="43.7509426" lon="11.0916879"><ele>111.0</ele><time>2026-03-29T12:33:03.156Z</time></trkpt><trkpt lat="43.7507735" lon="11.09168"><ele>111.0</ele><time>2026-03-29T12:33:04.156Z</time></trkpt><trkpt lat="43.7506056" lon="11.091689"><ele>111.0</ele><time>2026-03-29T12:33:05.156Z</time></trkpt><trkpt lat="43.7504561" lon="11.0917011"><ele>111.0</ele><time>2026-03-29T12:33:06.156Z</time></trkpt><trkpt lat="43.7503215" lon="11.0917368"><ele>111.0</ele><time>2026-03-29T12:33:07.156Z</time></trkpt><trkpt lat="43.7501939" lon="11.0918114"><ele>111.0</ele><time>2026-03-29T12:33:08.156Z</time></trkpt><trkpt lat="43.7500754" lon="11.0919209"><ele>111.0</ele><time>2026-03-29T12:33:09.156Z</time></trkpt><trkpt lat="43.7499677" lon="11.0920806"><ele>113.0</ele><time>2026-03-29T12:33:10.156Z</time></trkpt><trkpt lat="43.7498994" lon="11.0922968"><ele>115.0</ele><time>2026-03-29T12:33:11.156Z</time></trkpt><trkpt lat="43.7498284" lon="11.0925265"><ele>117.0</ele><time>2026-03-29T12:33:12.156Z</time></trkpt><trkpt lat="43.7497725" lon="11.0927672"><ele>120.33333333333334</ele><time>2026-03-29T12:33:13.156Z</time></trkpt><trkpt lat="43.7497112" lon="11.093014"><ele>123.66666666666667</ele><time>2026-03-29T12:33:14.156Z</time></trkpt><trkpt lat="43.7496397" lon="11.0932654"><ele>127.0</ele><time>2026-03-29T12:33:15.156Z</time></trkpt><trkpt lat="43.749568" lon="11.0935236"><ele>130.33333333333334</ele><time>2026-03-29T12:33:16.156Z</time></trkpt><trkpt lat="43.7494979" lon="11.0937912"><ele>133.66666666666666</ele><time>2026-03-29T12:33:17.156Z</time></trkpt><trkpt lat="43.7494287" lon="11.0940627"><ele>137.0</ele><time>2026-03-29T12:33:18.156Z</time></trkpt><trkpt lat="43.7493607" lon="11.0943257"><ele>139.0</ele><time>2026-03-29T12:33:19.156Z</time></trkpt><trkpt lat="43.7493007" lon="11.094566"><ele>141.0</ele><time>2026-03-29T12:33:20.156Z</time></trkpt><trkpt lat="43.749246" lon="11.094768"><ele>143.0</ele><time>2026-03-29T12:33:21.156Z</time></trkpt><trkpt lat="43.7491999" lon="11.0949449"><ele>144.5</ele><time>2026-03-29T12:33:22.156Z</time></trkpt><trkpt lat="43.7491667" lon="11.0951071"><ele>146.0</ele><time>2026-03-29T12:33:23.156Z</time></trkpt><trkpt lat="43.7491739" lon="11.0952514"><ele>147.5</ele><time>2026-03-29T12:33:24.156Z</time></trkpt><trkpt lat="43.7492356" lon="11.095382"><ele>149.0</ele><time>2026-03-29T12:33:25.156Z</time></trkpt><trkpt lat="43.7493171" lon="11.0954928"><ele>152.5</ele><time>2026-03-29T12:33:26.156Z</time></trkpt><trkpt lat="43.7494219" lon="11.0955354"><ele>156.0</ele><time>2026-03-29T12:33:27.156Z</time></trkpt><trkpt lat="43.7495244" lon="11.0955124"><ele>159.5</ele><time>2026-03-29T12:33:28.156Z</time></trkpt><trkpt lat="43.7496326" lon="11.0954296"><ele>163.0</ele><time>2026-03-29T12:33:29.156Z</time></trkpt><trkpt lat="43.7497435" lon="11.095317"><ele>163.0</ele><time>2026-03-29T12:33:30.156Z</time></trkpt><trkpt lat="43.7498639" lon="11.0951882"><ele>163.0</ele><time>2026-03-29T12:33:31.156Z</time></trkpt><trkpt lat="43.7499904" lon="11.0950505"><ele>163.0</ele><time>2026-03-29T12:33:32.156Z</time></trkpt><trkpt lat="43.7501115" lon="11.0949233"><ele>162.4</ele><time>2026-03-29T12:33:33.156Z</time></trkpt><trkpt lat="43.7502232" lon="11.094815"><ele>161.8</ele><time>2026-03-29T12:33:34.156Z</time></trkpt><trkpt lat="43.7503168" lon="11.0947301"><ele>161.2</ele><time>2026-03-29T12:33:35.156Z</time></trkpt><trkpt lat="43.7504002" lon="11.0946494"><ele>160.6</ele><time>2026-03-29T12:33:36.156Z</time></trkpt><trkpt lat="43.7504631" lon="11.0945807"><ele>160.0</ele><time>2026-03-29T12:33:37.156Z</time></trkpt><trkpt lat="43.7505386" lon="11.0944811"><ele>160.0</ele><time>2026-03-29T12:33:39.156Z</time></trkpt><trkpt lat="43.7505921" lon="11.0943723"><ele>160.0</ele><time>2026-03-29T12:33:42.155Z</time></trkpt><trkpt lat="43.7506589" lon="11.0942777"><ele>160.0</ele><time>2026-03-29T12:33:44.156Z</time></trkpt><trkpt lat="43.7507547" lon="11.0941852"><ele>160.0</ele><time>2026-03-29T12:33:46.156Z</time></trkpt><trkpt lat="43.7508522" lon="11.094168"><ele>160.0</ele><time>2026-03-29T12:33:48.156Z</time></trkpt><trkpt lat="43.7509434" lon="11.0942332"><ele>160.0</ele><time>2026-03-29T12:33:50.156Z</time></trkpt><trkpt lat="43.7509682" lon="11.0943934"><ele>160.0</ele><time>2026-03-29T12:33:52.156Z</time></trkpt><trkpt lat="43.7509662" lon="11.0944919"><ele>160.0</ele><time>2026-03-29T12:33:53.155Z</time></trkpt><trkpt lat="43.7509688" lon="11.09459"><ele>160.0</ele><time>2026-03-29T12:33:54.156Z</time></trkpt><trkpt lat="43.7509817" lon="11.0946908"><ele>160.0</ele><time>2026-03-29T12:33:55.156Z</time></trkpt><trkpt lat="43.7509922" lon="11.0947882"><ele>160.0</ele><time>2026-03-29T12:33:56.156Z</time></trkpt><trkpt lat="43.7510017" lon="11.0949056"><ele>161.66666666666669</ele><time>2026-03-29T12:33:57.156Z</time></trkpt><trkpt lat="43.751007" lon="11.0950282"><ele>163.33333333333334</ele><time>2026-03-29T12:33:58.156Z</time></trkpt><trkpt lat="43.7510091" lon="11.09514"><ele>165.0</ele><time>2026-03-29T12:33:59.156Z</time></trkpt><trkpt lat="43.7510118" lon="11.0952437"><ele>166.66666666666666</ele><time>2026-03-29T12:34:00.156Z</time></trkpt><trkpt lat="43.7510034" lon="11.0953406"><ele>168.33333333333331</ele><time>2026-03-29T12:34:01.156Z</time></trkpt><trkpt lat="43.7509418" lon="11.0954889"><ele>170.0</ele><time>2026-03-29T12:34:03.156Z</time></trkpt><trkpt lat="43.7508978" lon="11.0955526"><ele>170.0</ele><time>2026-03-29T12:34:04.156Z</time></trkpt><trkpt lat="43.7508444" lon="11.0956279"><ele>170.0</ele><time>2026-03-29T12:34:05.156Z</time></trkpt><trkpt lat="43.7507907" lon="11.095698"><ele>170.0</ele><time>2026-03-29T12:34:06.156Z</time></trkpt><trkpt lat="43.7507341" lon="11.0957685"><ele>170.0</ele><time>2026-03-29T12:34:07.156Z</time></trkpt><trkpt lat="43.7506716" lon="11.0958345"><ele>170.0</ele><time>2026-03-29T12:34:08.156Z</time></trkpt><trkpt lat="43.7506064" lon="11.0959063"><ele>170.0</ele><time>2026-03-29T12:34:09.156Z</time></trkpt><trkpt lat="43.7505503" lon="11.0959581"><ele>171.2</ele><time>2026-03-29T12:34:10.156Z</time></trkpt><trkpt lat="43.7504652" lon="11.0960583"><ele>172.4</ele><time>2026-03-29T12:34:12.156Z</time></trkpt><trkpt lat="43.7504053" lon="11.0962183"><ele>173.60000000000002</ele><time>2026-03-29T12:34:14.156Z</time></trkpt><trkpt lat="43.7503754" lon="11.0963176"><ele>174.8</ele><time>2026-03-29T12:34:15.156Z</time></trkpt><trkpt lat="43.7503416" lon="11.0964282"><ele>176.0</ele><time>2026-03-29T12:34:16.156Z</time></trkpt><trkpt lat="43.7502954" lon="11.0965836"><ele>176.25</ele><time>2026-03-29T12:34:17.156Z</time></trkpt><trkpt lat="43.7502479" lon="11.0967423"><ele>176.5</ele><time>2026-03-29T12:34:18.156Z</time></trkpt><trkpt lat="43.7502035" lon="11.0969053"><ele>176.75</ele><time>2026-03-29T12:34:19.156Z</time></trkpt><trkpt lat="43.7501615" lon="11.0970572"><ele>177.0</ele><time>2026-03-29T12:34:20.156Z</time></trkpt><trkpt lat="43.7501192" lon="11.0972005"><ele>177.0</ele><time>2026-03-29T12:34:21.156Z</time></trkpt><trkpt lat="43.7500829" lon="11.0973325"><ele>177.0</ele><time>2026-03-29T12:34:22.156Z</time></trkpt><trkpt lat="43.7500652" lon="11.0974721"><ele>177.0</ele><time>2026-03-29T12:34:23.156Z</time></trkpt><trkpt lat="43.7500659" lon="11.0976105"><ele>177.0</ele><time>2026-03-29T12:34:24.156Z</time></trkpt><trkpt lat="43.7500731" lon="11.097752"><ele>177.0</ele><time>2026-03-29T12:34:25.156Z</time></trkpt><trkpt lat="43.7501035" lon="11.0978897"><ele>177.0</ele><time>2026-03-29T12:34:26.156Z</time></trkpt><trkpt lat="43.7501421" lon="11.098031"><ele>177.0</ele><time>2026-03-29T12:34:27.156Z</time></trkpt><trkpt lat="43.750175" lon="11.0981689"><ele>177.0</ele><time>2026-03-29T12:34:28.155Z</time></trkpt><trkpt lat="43.7501923" lon="11.0983112"><ele>177.0</ele><time>2026-03-29T12:34:29.156Z</time></trkpt><trkpt lat="43.7502073" lon="11.098448"><ele>177.0</ele><time>2026-03-29T12:34:30.156Z</time></trkpt><trkpt lat="43.7502193" lon="11.0985794"><ele>177.0</ele><time>2026-03-29T12:34:31.156Z</time></trkpt><trkpt lat="43.7502323" lon="11.0987024"><ele>177.0</ele><time>2026-03-29T12:34:32.156Z</time></trkpt><trkpt lat="43.7502417" lon="11.0988127"><ele>177.0</ele><time>2026-03-29T12:34:33.156Z</time></trkpt><trkpt lat="43.7502475" lon="11.0989149"><ele>177.0</ele><time>2026-03-29T12:34:34.156Z</time></trkpt><trkpt lat="43.7502423" lon="11.099019"><ele>177.0</ele><time>2026-03-29T12:34:35.156Z</time></trkpt><trkpt lat="43.750223" lon="11.099112"><ele>177.0</ele><time>2026-03-29T12:34:36.155Z</time></trkpt><trkpt lat="43.7502014" lon="11.0991998"><ele>178.85714285714286</ele><time>2026-03-29T12:34:37.156Z</time></trkpt><trkpt lat="43.7501623" lon="11.0992789"><ele>180.7142857142857</ele><time>2026-03-29T12:34:38.156Z</time></trkpt><trkpt lat="43.7501087" lon="11.0993446"><ele>182.57142857142856</ele><time>2026-03-29T12:34:39.156Z</time></trkpt><trkpt lat="43.7500422" lon="11.0993889"><ele>184.42857142857144</ele><time>2026-03-29T12:34:40.156Z</time></trkpt><trkpt lat="43.7499665" lon="11.0994339"><ele>186.28571428571428</ele><time>2026-03-29T12:34:41.156Z</time></trkpt><trkpt lat="43.7498956" lon="11.0994557"><ele>188.14285714285714</ele><time>2026-03-29T12:34:42.156Z</time></trkpt><trkpt lat="43.7498248" lon="11.0994474"><ele>190.0</ele><time>2026-03-29T12:34:43.156Z</time></trkpt><trkpt lat="43.7497586" lon="11.099454"><ele>190.0</ele><time>2026-03-29T12:34:44.156Z</time></trkpt><trkpt lat="43.7496375" lon="11.0994593"><ele>190.0</ele><time>2026-03-29T12:34:46.156Z</time></trkpt><trkpt lat="43.7495334" lon="11.0994571"><ele>190.0</ele><time>2026-03-29T12:34:48.156Z</time></trkpt><trkpt lat="43.7494466" lon="11.0994425"><ele>190.0</ele><time>2026-03-29T12:34:50.155Z</time></trkpt><trkpt lat="43.7493807" lon="11.099493"><ele>190.0</ele><time>2026-03-29T12:34:53.156Z</time></trkpt><trkpt lat="43.7494137" lon="11.099604"><ele>190.0</ele><time>2026-03-29T12:34:55.156Z</time></trkpt><trkpt lat="43.7494704" lon="11.099681"><ele>190.0</ele><time>2026-03-29T12:34:57.156Z</time></trkpt><trkpt lat="43.7495092" lon="11.0997639"><ele>190.0</ele><time>2026-03-29T12:34:59.156Z</time></trkpt><trkpt lat="43.7494628" lon="11.0998829"><ele>190.0</ele><time>2026-03-29T12:35:02.156Z</time></trkpt><trkpt lat="43.7493946" lon="11.0999515"><ele>190.0</ele><time>2026-03-29T12:35:04.156Z</time></trkpt><trkpt lat="43.7492775" lon="11.1000421"><ele>192.66666666666669</ele><time>2026-03-29T12:35:06.156Z</time></trkpt><trkpt lat="43.7492043" lon="11.1001002"><ele>195.33333333333334</ele><time>2026-03-29T12:35:07.156Z</time></trkpt><trkpt lat="43.749133" lon="11.1001517"><ele>198.0</ele><time>2026-03-29T12:35:08.156Z</time></trkpt><trkpt lat="43.7490557" lon="11.1002066"><ele>200.66666666666669</ele><time>2026-03-29T12:35:09.156Z</time></trkpt><trkpt lat="43.7489835" lon="11.1002553"><ele>203.33333333333334</ele><time>2026-03-29T12:35:10.155Z</time></trkpt><trkpt lat="43.7489129" lon="11.1002985"><ele>206.0</ele><time>2026-03-29T12:35:11.156Z</time></trkpt><trkpt lat="43.7488497" lon="11.1003475"><ele>206.00000000000003</ele><time>2026-03-29T12:35:12.156Z</time></trkpt><trkpt lat="43.7487915" lon="11.1003986"><ele>206.0</ele><time>2026-03-29T12:35:13.156Z</time></trkpt><trkpt lat="43.7487297" lon="11.1004534"><ele>206.0</ele><time>2026-03-29T12:35:14.156Z</time></trkpt><trkpt lat="43.7486682" lon="11.1005114"><ele>206.0</ele><time>2026-03-29T12:35:15.156Z</time></trkpt><trkpt lat="43.748583" lon="11.1006231"><ele>206.00000000000003</ele><time>2026-03-29T12:35:17.156Z</time></trkpt><trkpt lat="43.7485461" lon="11.1007048"><ele>206.0</ele><time>2026-03-29T12:35:18.156Z</time></trkpt><trkpt lat="43.7485185" lon="11.1007952"><ele>208.16666666666669</ele><time>2026-03-29T12:35:19.156Z</time></trkpt><trkpt lat="43.7485112" lon="11.1009052"><ele>210.33333333333334</ele><time>2026-03-29T12:35:20.156Z</time></trkpt><trkpt lat="43.7485179" lon="11.1010218"><ele>212.5</ele><time>2026-03-29T12:35:21.156Z</time></trkpt><trkpt lat="43.7485313" lon="11.1011446"><ele>214.66666666666669</ele><time>2026-03-29T12:35:22.156Z</time></trkpt><trkpt lat="43.7485388" lon="11.1012485"><ele>216.83333333333334</ele><time>2026-03-29T12:35:23.156Z</time></trkpt><trkpt lat="43.7485309" lon="11.1013886"><ele>219.0</ele><time>2026-03-29T12:35:25.156Z</time></trkpt><trkpt lat="43.7484967" lon="11.1015292"><ele>219.75</ele><time>2026-03-29T12:35:28.155Z</time></trkpt><trkpt lat="43.748398" lon="11.1016186"><ele>220.5</ele><time>2026-03-29T12:35:30.156Z</time></trkpt><trkpt lat="43.7482871" lon="11.1017098"><ele>221.25</ele><time>2026-03-29T12:35:32.155Z</time></trkpt><trkpt lat="43.7482421" lon="11.1018766"><ele>222.0</ele><time>2026-03-29T12:35:34.156Z</time></trkpt><trkpt lat="43.7482499" lon="11.1019829"><ele>222.0</ele><time>2026-03-29T12:35:35.156Z</time></trkpt><trkpt lat="43.748286" lon="11.1020813"><ele>222.0</ele><time>2026-03-29T12:35:36.156Z</time></trkpt><trkpt lat="43.7483342" lon="11.1021615"><ele>222.0</ele><time>2026-03-29T12:35:37.156Z</time></trkpt><trkpt lat="43.748408" lon="11.1022282"><ele>222.0</ele><time>2026-03-29T12:35:38.156Z</time></trkpt><trkpt lat="43.748476" lon="11.1022834"><ele>222.0</ele><time>2026-03-29T12:35:39.156Z</time></trkpt><trkpt lat="43.7485423" lon="11.1023337"><ele>222.0</ele><time>2026-03-29T12:35:40.156Z</time></trkpt><trkpt lat="43.7486405" lon="11.1024168"><ele>218.66666666666666</ele><time>2026-03-29T12:35:42.156Z</time></trkpt><trkpt lat="43.7487259" lon="11.1025332"><ele>215.33333333333331</ele><time>2026-03-29T12:35:44.156Z</time></trkpt><trkpt lat="43.7487534" lon="11.1026207"><ele>212.0</ele><time>2026-03-29T12:35:45.156Z</time></trkpt><trkpt lat="43.748758" lon="11.1027115"><ele>208.66666666666666</ele><time>2026-03-29T12:35:46.156Z</time></trkpt><trkpt lat="43.7487404" lon="11.1028353"><ele>205.33333333333331</ele><time>2026-03-29T12:35:47.156Z</time></trkpt><trkpt lat="43.7487479" lon="11.1029488"><ele>202.0</ele><time>2026-03-29T12:35:48.156Z</time></trkpt><trkpt lat="43.7487862" lon="11.103071"><ele>201.99999999999997</ele><time>2026-03-29T12:35:49.156Z</time></trkpt><trkpt lat="43.7488437" lon="11.1031766"><ele>202.0</ele><time>2026-03-29T12:35:50.156Z</time></trkpt><trkpt lat="43.7488942" lon="11.1032636"><ele>202.0</ele><time>2026-03-29T12:35:51.156Z</time></trkpt><trkpt lat="43.7489409" lon="11.103333"><ele>202.0</ele><time>2026-03-29T12:35:52.156Z</time></trkpt><trkpt lat="43.7490026" lon="11.1033703"><ele>201.99999999999997</ele><time>2026-03-29T12:35:53.156Z</time></trkpt><trkpt lat="43.7490717" lon="11.1033963"><ele>202.0</ele><time>2026-03-29T12:35:54.156Z</time></trkpt><trkpt lat="43.7491375" lon="11.1034111"><ele>203.16666666666666</ele><time>2026-03-29T12:35:55.156Z</time></trkpt><trkpt lat="43.7492441" lon="11.1034394"><ele>204.33333333333331</ele><time>2026-03-29T12:35:57.156Z</time></trkpt><trkpt lat="43.749307" lon="11.1034765"><ele>205.5</ele><time>2026-03-29T12:35:59.156Z</time></trkpt><trkpt lat="43.7492915" lon="11.1035764"><ele>206.66666666666669</ele><time>2026-03-29T12:36:02.156Z</time></trkpt><trkpt lat="43.7492339" lon="11.1036118"><ele>207.83333333333334</ele><time>2026-03-29T12:36:03.156Z</time></trkpt><trkpt lat="43.7491767" lon="11.1036566"><ele>209.0</ele><time>2026-03-29T12:36:04.156Z</time></trkpt><trkpt lat="43.7491126" lon="11.1037334"><ele>209.0</ele><time>2026-03-29T12:36:05.156Z</time></trkpt><trkpt lat="43.7490575" lon="11.1038701"><ele>209.0</ele><time>2026-03-29T12:36:06.156Z</time></trkpt><trkpt lat="43.7490375" lon="11.1040343"><ele>209.0</ele><time>2026-03-29T12:36:07.156Z</time></trkpt><trkpt lat="43.7490608" lon="11.1042156"><ele>209.0</ele><time>2026-03-29T12:36:08.156Z</time></trkpt><trkpt lat="43.7490972" lon="11.1043721"><ele>209.50000000000003</ele><time>2026-03-29T12:36:09.156Z</time></trkpt><trkpt lat="43.7491211" lon="11.1045049"><ele>210.0</ele><time>2026-03-29T12:36:10.156Z</time></trkpt><trkpt lat="43.7491241" lon="11.1046165"><ele>210.5</ele><time>2026-03-29T12:36:11.156Z</time></trkpt><trkpt lat="43.7491069" lon="11.1047287"><ele>211.0</ele><time>2026-03-29T12:36:12.156Z</time></trkpt><trkpt lat="43.7490839" lon="11.1048429"><ele>211.50000000000003</ele><time>2026-03-29T12:36:13.156Z</time></trkpt><trkpt lat="43.7490771" lon="11.104978"><ele>212.0</ele><time>2026-03-29T12:36:14.156Z</time></trkpt><trkpt lat="43.7490842" lon="11.1051139"><ele>212.2</ele><time>2026-03-29T12:36:15.156Z</time></trkpt><trkpt lat="43.7490771" lon="11.1052466"><ele>212.39999999999998</ele><time>2026-03-29T12:36:16.156Z</time></trkpt><trkpt lat="43.7490375" lon="11.1053791"><ele>212.60000000000002</ele><time>2026-03-29T12:36:17.156Z</time></trkpt><trkpt lat="43.7489953" lon="11.1055258"><ele>212.8</ele><time>2026-03-29T12:36:18.156Z</time></trkpt><trkpt lat="43.7489815" lon="11.1056838"><ele>213.0</ele><time>2026-03-29T12:36:19.156Z</time></trkpt><trkpt lat="43.7489938" lon="11.1058199"><ele>211.8</ele><time>2026-03-29T12:36:20.156Z</time></trkpt><trkpt lat="43.7489952" lon="11.1059387"><ele>210.60000000000002</ele><time>2026-03-29T12:36:21.156Z</time></trkpt><trkpt lat="43.7489588" lon="11.1060548"><ele>209.39999999999998</ele><time>2026-03-29T12:36:22.156Z</time></trkpt><trkpt lat="43.7488867" lon="11.1061662"><ele>208.2</ele><time>2026-03-29T12:36:23.156Z</time></trkpt><trkpt lat="43.7488191" lon="11.1062836"><ele>207.0</ele><time>2026-03-29T12:36:24.156Z</time></trkpt><trkpt lat="43.7487661" lon="11.1064028"><ele>207.0</ele><time>2026-03-29T12:36:25.156Z</time></trkpt><trkpt lat="43.7487515" lon="11.1065296"><ele>207.0</ele><time>2026-03-29T12:36:26.156Z</time></trkpt><trkpt lat="43.7487526" lon="11.1066762"><ele>207.0</ele><time>2026-03-29T12:36:27.155Z</time></trkpt><trkpt lat="43.7487385" lon="11.1068482"><ele>207.0</ele><time>2026-03-29T12:36:28.156Z</time></trkpt><trkpt lat="43.7486854" lon="11.1070161"><ele>208.25</ele><time>2026-03-29T12:36:29.155Z</time></trkpt><trkpt lat="43.7485939" lon="11.1071693"><ele>209.5</ele><time>2026-03-29T12:36:30.156Z</time></trkpt><trkpt lat="43.7484898" lon="11.1073045"><ele>210.75</ele><time>2026-03-29T12:36:31.155Z</time></trkpt><trkpt lat="43.7483941" lon="11.1074276"><ele>212.0</ele><time>2026-03-29T12:36:32.155Z</time></trkpt><trkpt lat="43.7483079" lon="11.1075468"><ele>212.0</ele><time>2026-03-29T12:36:33.156Z</time></trkpt><trkpt lat="43.7482218" lon="11.107661"><ele>212.0</ele><time>2026-03-29T12:36:34.156Z</time></trkpt><trkpt lat="43.7481359" lon="11.1077689"><ele>212.0</ele><time>2026-03-29T12:36:35.156Z</time></trkpt><trkpt lat="43.7480387" lon="11.1078632"><ele>212.0</ele><time>2026-03-29T12:36:36.156Z</time></trkpt><trkpt lat="43.7479393" lon="11.1079293"><ele>212.0</ele><time>2026-03-29T12:36:37.156Z</time></trkpt><trkpt lat="43.747848" lon="11.1079961"><ele>212.0</ele><time>2026-03-29T12:36:38.156Z</time></trkpt><trkpt lat="43.7477554" lon="11.1080435"><ele>212.0</ele><time>2026-03-29T12:36:39.156Z</time></trkpt><trkpt lat="43.7476655" lon="11.1080952"><ele>212.0</ele><time>2026-03-29T12:36:40.156Z</time></trkpt><trkpt lat="43.7475951" lon="11.108149"><ele>212.0</ele><time>2026-03-29T12:36:41.156Z</time></trkpt><trkpt lat="43.7475572" lon="11.1082349"><ele>211.00000000000003</ele><time>2026-03-29T12:36:42.156Z</time></trkpt><trkpt lat="43.7475589" lon="11.1083302"><ele>210.0</ele><time>2026-03-29T12:36:43.156Z</time></trkpt><trkpt lat="43.7475701" lon="11.1084674"><ele>209.0</ele><time>2026-03-29T12:36:45.156Z</time></trkpt><trkpt lat="43.7475728" lon="11.1085556"><ele>208.0</ele><time>2026-03-29T12:36:47.156Z</time></trkpt><trkpt lat="43.7476448" lon="11.1086753"><ele>207.00000000000003</ele><time>2026-03-29T12:36:49.156Z</time></trkpt><trkpt lat="43.7477121" lon="11.1087479"><ele>206.0</ele><time>2026-03-29T12:36:50.156Z</time></trkpt><trkpt lat="43.7477714" lon="11.108841"><ele>206.8</ele><time>2026-03-29T12:36:51.156Z</time></trkpt><trkpt lat="43.7478186" lon="11.1089477"><ele>207.60000000000002</ele><time>2026-03-29T12:36:52.156Z</time></trkpt><trkpt lat="43.7478369" lon="11.1090624"><ele>208.4</ele><time>2026-03-29T12:36:53.156Z</time></trkpt><trkpt lat="43.7478176" lon="11.1091856"><ele>209.2</ele><time>2026-03-29T12:36:54.156Z</time></trkpt><trkpt lat="43.747781" lon="11.109325"><ele>210.0</ele><time>2026-03-29T12:36:55.156Z</time></trkpt><trkpt lat="43.7477272" lon="11.1094774"><ele>210.25</ele><time>2026-03-29T12:36:56.156Z</time></trkpt><trkpt lat="43.7476767" lon="11.1096284"><ele>210.5</ele><time>2026-03-29T12:36:57.156Z</time></trkpt><trkpt lat="43.7476262" lon="11.1097679"><ele>210.75</ele><time>2026-03-29T12:36:58.156Z</time></trkpt><trkpt lat="43.7475564" lon="11.1098861"><ele>211.0</ele><time>2026-03-29T12:36:59.156Z</time></trkpt><trkpt lat="43.7474928" lon="11.1100071"><ele>211.0</ele><time>2026-03-29T12:37:00.156Z</time></trkpt><trkpt lat="43.7474411" lon="11.1101583"><ele>211.0</ele><time>2026-03-29T12:37:01.156Z</time></trkpt><trkpt lat="43.7474041" lon="11.1103134"><ele>211.0</ele><time>2026-03-29T12:37:02.155Z</time></trkpt><trkpt lat="43.7473752" lon="11.1104693"><ele>211.0</ele><time>2026-03-29T12:37:03.156Z</time></trkpt><trkpt lat="43.7473609" lon="11.1106399"><ele>212.4</ele><time>2026-03-29T12:37:04.156Z</time></trkpt><trkpt lat="43.7473655" lon="11.1108147"><ele>213.8</ele><time>2026-03-29T12:37:05.156Z</time></trkpt><trkpt lat="43.7473787" lon="11.1109567"><ele>215.20000000000002</ele><time>2026-03-29T12:37:06.156Z</time></trkpt><trkpt lat="43.7473943" lon="11.1110764"><ele>216.60000000000002</ele><time>2026-03-29T12:37:07.156Z</time></trkpt><trkpt lat="43.7473941" lon="11.111176"><ele>218.0</ele><time>2026-03-29T12:37:08.156Z</time></trkpt><trkpt lat="43.747399" lon="11.1112711"><ele>218.0</ele><time>2026-03-29T12:37:10.156Z</time></trkpt><trkpt lat="43.7473321" lon="11.111354"><ele>218.0</ele><time>2026-03-29T12:37:18.156Z</time></trkpt><trkpt lat="43.747239" lon="11.1113887"><ele>218.0</ele><time>2026-03-29T12:37:20.156Z</time></trkpt><trkpt lat="43.7471217" lon="11.1114336"><ele>218.0</ele><time>2026-03-29T12:37:22.156Z</time></trkpt><trkpt lat="43.7470606" lon="11.1114546"><ele>218.0</ele><time>2026-03-29T12:37:23.156Z</time></trkpt><trkpt lat="43.746947" lon="11.1115054"><ele>215.60000000000002</ele><time>2026-03-29T12:37:25.156Z</time></trkpt><trkpt lat="43.7468425" lon="11.1115625"><ele>213.20000000000002</ele><time>2026-03-29T12:37:27.156Z</time></trkpt><trkpt lat="43.746743" lon="11.1116083"><ele>210.8</ele><time>2026-03-29T12:37:29.155Z</time></trkpt><trkpt lat="43.7466466" lon="11.1116533"><ele>208.4</ele><time>2026-03-29T12:37:31.156Z</time></trkpt><trkpt lat="43.7465351" lon="11.1116957"><ele>206.0</ele><time>2026-03-29T12:37:33.156Z</time></trkpt><trkpt lat="43.7464717" lon="11.1117182"><ele>206.00000000000003</ele><time>2026-03-29T12:37:34.156Z</time></trkpt><trkpt lat="43.7464088" lon="11.1117399"><ele>206.0</ele><time>2026-03-29T12:37:35.156Z</time></trkpt><trkpt lat="43.7463449" lon="11.1117552"><ele>206.0</ele><time>2026-03-29T12:37:36.156Z</time></trkpt><trkpt lat="43.7462235" lon="11.1118004"><ele>206.0</ele><time>2026-03-29T12:37:38.156Z</time></trkpt><trkpt lat="43.7461619" lon="11.1118401"><ele>206.00000000000003</ele><time>2026-03-29T12:37:39.156Z</time></trkpt><trkpt lat="43.7461023" lon="11.1118924"><ele>206.0</ele><time>2026-03-29T12:37:40.156Z</time></trkpt><trkpt lat="43.7460421" lon="11.1119458"><ele>203.00000000000003</ele><time>2026-03-29T12:37:41.156Z</time></trkpt><trkpt lat="43.7459841" lon="11.1119983"><ele>200.0</ele><time>2026-03-29T12:37:42.156Z</time></trkpt><trkpt lat="43.7459231" lon="11.112044"><ele>197.0</ele><time>2026-03-29T12:37:43.156Z</time></trkpt><trkpt lat="43.7458627" lon="11.1120951"><ele>194.0</ele><time>2026-03-29T12:37:44.156Z</time></trkpt><trkpt lat="43.745798" lon="11.1121428"><ele>191.0</ele><time>2026-03-29T12:37:45.156Z</time></trkpt><trkpt lat="43.745691" lon="11.1122165"><ele>188.0</ele><time>2026-03-29T12:37:47.156Z</time></trkpt><trkpt lat="43.7455939" lon="11.1122863"><ele>188.0</ele><time>2026-03-29T12:37:49.155Z</time></trkpt><trkpt lat="43.7455006" lon="11.1124041"><ele>188.0</ele><time>2026-03-29T12:37:51.155Z</time></trkpt><trkpt lat="43.7454591" lon="11.1124895"><ele>188.0</ele><time>2026-03-29T12:37:52.156Z</time></trkpt><trkpt lat="43.7454184" lon="11.1125727"><ele>188.0</ele><time>2026-03-29T12:37:53.156Z</time></trkpt><trkpt lat="43.7453763" lon="11.112655"><ele>188.0</ele><time>2026-03-29T12:37:54.156Z</time></trkpt><trkpt lat="43.7453331" lon="11.1127345"><ele>188.0</ele><time>2026-03-29T12:37:55.156Z</time></trkpt><trkpt lat="43.7452912" lon="11.1128009"><ele>185.33333333333331</ele><time>2026-03-29T12:37:56.156Z</time></trkpt><trkpt lat="43.7452053" lon="11.1129262"><ele>182.66666666666666</ele><time>2026-03-29T12:37:58.156Z</time></trkpt><trkpt lat="43.7451551" lon="11.1129892"><ele>180.0</ele><time>2026-03-29T12:37:59.155Z</time></trkpt><trkpt lat="43.7451012" lon="11.1130458"><ele>177.33333333333334</ele><time>2026-03-29T12:38:00.156Z</time></trkpt><trkpt lat="43.7450418" lon="11.1130917"><ele>174.66666666666669</ele><time>2026-03-29T12:38:01.156Z</time></trkpt><trkpt lat="43.7449749" lon="11.1131221"><ele>172.0</ele><time>2026-03-29T12:38:02.156Z</time></trkpt><trkpt lat="43.7449186" lon="11.1131615"><ele>171.5</ele><time>2026-03-29T12:38:03.156Z</time></trkpt><trkpt lat="43.7448132" lon="11.113258"><ele>171.0</ele><time>2026-03-29T12:38:05.156Z</time></trkpt><trkpt lat="43.7447126" lon="11.1133578"><ele>170.5</ele><time>2026-03-29T12:38:07.156Z</time></trkpt><trkpt lat="43.7446035" lon="11.1134416"><ele>170.0</ele><time>2026-03-29T12:38:09.156Z</time></trkpt><trkpt lat="43.7445195" lon="11.1134743"><ele>170.0</ele><time>2026-03-29T12:38:11.156Z</time></trkpt><trkpt lat="43.7444315" lon="11.1134155"><ele>170.0</ele><time>2026-03-29T12:38:13.156Z</time></trkpt><trkpt lat="43.7444067" lon="11.113317"><ele>170.0</ele><time>2026-03-29T12:38:15.156Z</time></trkpt><trkpt lat="43.7444317" lon="11.1132012"><ele>170.0</ele><time>2026-03-29T12:38:17.156Z</time></trkpt><trkpt lat="43.7444627" lon="11.1130758"><ele>170.0</ele><time>2026-03-29T12:38:19.156Z</time></trkpt><trkpt lat="43.7444958" lon="11.1129593"><ele>170.0</ele><time>2026-03-29T12:38:21.156Z</time></trkpt><trkpt lat="43.7445357" lon="11.1128431"><ele>170.4</ele><time>2026-03-29T12:38:23.156Z</time></trkpt><trkpt lat="43.744539" lon="11.1127188"><ele>170.8</ele><time>2026-03-29T12:38:25.156Z</time></trkpt><trkpt lat="43.7445161" lon="11.1128453"><ele>171.2</ele><time>2026-03-29T12:38:36.156Z</time></trkpt><trkpt lat="43.7444814" lon="11.112987"><ele>171.6</ele><time>2026-03-29T12:38:38.156Z</time></trkpt><trkpt lat="43.7444456" lon="11.1131156"><ele>172.0</ele><time>2026-03-29T12:38:40.156Z</time></trkpt><trkpt lat="43.7444241" lon="11.1132235"><ele>171.66666666666669</ele><time>2026-03-29T12:38:42.156Z</time></trkpt><trkpt lat="43.7444112" lon="11.1133385"><ele>171.33333333333334</ele><time>2026-03-29T12:38:45.156Z</time></trkpt><trkpt lat="43.7444356" lon="11.1134269"><ele>171.0</ele><time>2026-03-29T12:38:49.156Z</time></trkpt><trkpt lat="43.7445068" lon="11.1134828"><ele>170.66666666666666</ele><time>2026-03-29T12:38:57.156Z</time></trkpt><trkpt lat="43.7445702" lon="11.1134463"><ele>170.33333333333331</ele><time>2026-03-29T12:39:00.156Z</time></trkpt><trkpt lat="43.7445004" lon="11.1134754"><ele>170.0</ele><time>2026-03-29T12:39:13.156Z</time></trkpt><trkpt lat="43.744418" lon="11.1134173"><ele>170.0</ele><time>2026-03-29T12:39:54.156Z</time></trkpt><trkpt lat="43.7443513" lon="11.1134096"><ele>170.0</ele><time>2026-03-29T12:39:56.156Z</time></trkpt><trkpt lat="43.744285" lon="11.1134694"><ele>170.0</ele><time>2026-03-29T12:40:03.156Z</time></trkpt><trkpt lat="43.7442196" lon="11.1135373"><ele>170.0</ele><time>2026-03-29T12:40:06.156Z</time></trkpt><trkpt lat="43.7441606" lon="11.1135922"><ele>170.0</ele><time>2026-03-29T12:40:08.156Z</time></trkpt><trkpt lat="43.7440969" lon="11.1136091"><ele>170.0</ele><time>2026-03-29T12:40:10.156Z</time></trkpt><trkpt lat="43.7440342" lon="11.1136434"><ele>170.0</ele><time>2026-03-29T12:40:12.156Z</time></trkpt><trkpt lat="43.7439551" lon="11.1136872"><ele>170.0</ele><time>2026-03-29T12:40:15.156Z</time></trkpt><trkpt lat="43.7438751" lon="11.1136424"><ele>170.0</ele><time>2026-03-29T12:40:18.156Z</time></trkpt><trkpt lat="43.743826" lon="11.1135209"><ele>170.0</ele><time>2026-03-29T12:40:20.156Z</time></trkpt><trkpt lat="43.7437673" lon="11.1133702"><ele>170.0</ele><time>2026-03-29T12:40:22.156Z</time></trkpt><trkpt lat="43.7437415" lon="11.1132857"><ele>170.0</ele><time>2026-03-29T12:40:23.156Z</time></trkpt><trkpt lat="43.7436935" lon="11.1131567"><ele>170.0</ele><time>2026-03-29T12:40:25.156Z</time></trkpt><trkpt lat="43.7436753" lon="11.1132622"><ele>170.0</ele><time>2026-03-29T12:40:38.156Z</time></trkpt><trkpt lat="43.7436668" lon="11.1133583"><ele>170.0</ele><time>2026-03-29T12:40:42.156Z</time></trkpt><trkpt lat="43.7437085" lon="11.1134968"><ele>170.0</ele><time>2026-03-29T12:40:45.156Z</time></trkpt><trkpt lat="43.7437474" lon="11.1136328"><ele>170.0</ele><time>2026-03-29T12:40:47.156Z</time></trkpt><trkpt lat="43.7437837" lon="11.1137631"><ele>170.0</ele><time>2026-03-29T12:40:49.156Z</time></trkpt><trkpt lat="43.7438188" lon="11.1138916"><ele>170.0</ele><time>2026-03-29T12:40:51.156Z</time></trkpt><trkpt lat="43.7438359" lon="11.1139931"><ele>170.0</ele><time>2026-03-29T12:40:53.156Z</time></trkpt><trkpt lat="43.7438027" lon="11.1140759"><ele>170.0</ele><time>2026-03-29T12:40:55.156Z</time></trkpt><trkpt lat="43.7437182" lon="11.1141485"><ele>170.0</ele><time>2026-03-29T12:40:57.156Z</time></trkpt><trkpt lat="43.7436187" lon="11.1142192"><ele>171.0</ele><time>2026-03-29T12:40:59.156Z</time></trkpt><trkpt lat="43.7435211" lon="11.1142896"><ele>172.0</ele><time>2026-03-29T12:41:01.156Z</time></trkpt><trkpt lat="43.7434456" lon="11.1143511"><ele>173.0</ele><time>2026-03-29T12:41:03.156Z</time></trkpt><trkpt lat="43.743382" lon="11.1143941"><ele>174.0</ele><time>2026-03-29T12:41:06.156Z</time></trkpt><trkpt lat="43.7432936" lon="11.11437"><ele>175.0</ele><time>2026-03-29T12:41:13.156Z</time></trkpt><trkpt lat="43.7432273" lon="11.1143449"><ele>176.0</ele><time>2026-03-29T12:41:15.156Z</time></trkpt><trkpt lat="43.7431562" lon="11.1143009"><ele>176.0</ele><time>2026-03-29T12:41:19.156Z</time></trkpt><trkpt lat="43.7431198" lon="11.1141806"><ele>176.0</ele><time>2026-03-29T12:41:23.156Z</time></trkpt><trkpt lat="43.7430681" lon="11.1140408"><ele>176.0</ele><time>2026-03-29T12:41:25.156Z</time></trkpt><trkpt lat="43.7430167" lon="11.1139273"><ele>176.0</ele><time>2026-03-29T12:41:27.156Z</time></trkpt><trkpt lat="43.7429571" lon="11.113785"><ele>176.0</ele><time>2026-03-29T12:41:29.156Z</time></trkpt><trkpt lat="43.7429191" lon="11.1136945"><ele>176.5</ele><time>2026-03-29T12:41:30.156Z</time></trkpt><trkpt lat="43.7428761" lon="11.1135954"><ele>177.0</ele><time>2026-03-29T12:41:31.156Z</time></trkpt><trkpt lat="43.742832" lon="11.1134909"><ele>177.5</ele><time>2026-03-29T12:41:32.156Z</time></trkpt><trkpt lat="43.7427917" lon="11.1133921"><ele>178.0</ele><time>2026-03-29T12:41:33.156Z</time></trkpt><trkpt lat="43.7427474" lon="11.1132855"><ele>178.5</ele><time>2026-03-29T12:41:34.156Z</time></trkpt><trkpt lat="43.7427043" lon="11.1131755"><ele>179.0</ele><time>2026-03-29T12:41:35.156Z</time></trkpt><trkpt lat="43.7426601" lon="11.1130684"><ele>180.16666666666666</ele><time>2026-03-29T12:41:36.156Z</time></trkpt><trkpt lat="43.7426146" lon="11.1129548"><ele>181.33333333333331</ele><time>2026-03-29T12:41:37.156Z</time></trkpt><trkpt lat="43.7425693" lon="11.1128443"><ele>182.5</ele><time>2026-03-29T12:41:38.156Z</time></trkpt><trkpt lat="43.7425259" lon="11.1127426"><ele>183.66666666666666</ele><time>2026-03-29T12:41:39.156Z</time></trkpt><trkpt lat="43.7424872" lon="11.1126447"><ele>184.83333333333334</ele><time>2026-03-29T12:41:40.156Z</time></trkpt><trkpt lat="43.7424512" lon="11.1125516"><ele>186.0</ele><time>2026-03-29T12:41:41.156Z</time></trkpt><trkpt lat="43.7424152" lon="11.1124598"><ele>187.83333333333334</ele><time>2026-03-29T12:41:42.156Z</time></trkpt><trkpt lat="43.7423751" lon="11.1123645"><ele>189.66666666666669</ele><time>2026-03-29T12:41:43.156Z</time></trkpt><trkpt lat="43.7423344" lon="11.1122633"><ele>191.5</ele><time>2026-03-29T12:41:44.156Z</time></trkpt><trkpt lat="43.7422938" lon="11.1121674"><ele>193.33333333333334</ele><time>2026-03-29T12:41:45.156Z</time></trkpt><trkpt lat="43.7422547" lon="11.1120712"><ele>195.16666666666669</ele><time>2026-03-29T12:41:46.156Z</time></trkpt><trkpt lat="43.7422174" lon="11.1119812"><ele>197.0</ele><time>2026-03-29T12:41:47.156Z</time></trkpt><trkpt lat="43.7421791" lon="11.1119045"><ele>197.00000000000003</ele><time>2026-03-29T12:41:48.156Z</time></trkpt><trkpt lat="43.7421353" lon="11.111817"><ele>197.0</ele><time>2026-03-29T12:41:49.156Z</time></trkpt><trkpt lat="43.7420926" lon="11.1117221"><ele>197.0</ele><time>2026-03-29T12:41:50.156Z</time></trkpt><trkpt lat="43.7420492" lon="11.1116198"><ele>197.0</ele><time>2026-03-29T12:41:51.156Z</time></trkpt><trkpt lat="43.7420114" lon="11.1115298"><ele>197.00000000000003</ele><time>2026-03-29T12:41:52.156Z</time></trkpt><trkpt lat="43.7419607" lon="11.1114758"><ele>197.0</ele><time>2026-03-29T12:41:55.156Z</time></trkpt><trkpt lat="43.7418847" lon="11.1115452"><ele>195.0</ele><time>2026-03-29T12:41:57.156Z</time></trkpt><trkpt lat="43.7418176" lon="11.1116284"><ele>193.0</ele><time>2026-03-29T12:41:58.156Z</time></trkpt><trkpt lat="43.7417332" lon="11.1117299"><ele>191.0</ele><time>2026-03-29T12:41:59.156Z</time></trkpt><trkpt lat="43.7416302" lon="11.1118478"><ele>189.0</ele><time>2026-03-29T12:42:00.156Z</time></trkpt><trkpt lat="43.7415273" lon="11.1119584"><ele>189.0</ele><time>2026-03-29T12:42:01.156Z</time></trkpt><trkpt lat="43.7414147" lon="11.1120743"><ele>189.0</ele><time>2026-03-29T12:42:02.155Z</time></trkpt><trkpt lat="43.7413016" lon="11.1121928"><ele>189.0</ele><time>2026-03-29T12:42:03.156Z</time></trkpt><trkpt lat="43.7411858" lon="11.1123095"><ele>189.0</ele><time>2026-03-29T12:42:04.156Z</time></trkpt><trkpt lat="43.74107" lon="11.1124287"><ele>184.75</ele><time>2026-03-29T12:42:05.156Z</time></trkpt><trkpt lat="43.7409546" lon="11.1125454"><ele>180.5</ele><time>2026-03-29T12:42:06.156Z</time></trkpt><trkpt lat="43.7408365" lon="11.1126667"><ele>176.25</ele><time>2026-03-29T12:42:07.157Z</time></trkpt><trkpt lat="43.7407233" lon="11.1127838"><ele>172.0</ele><time>2026-03-29T12:42:08.157Z</time></trkpt><trkpt lat="43.7406095" lon="11.1128877"><ele>172.0</ele><time>2026-03-29T12:42:09.157Z</time></trkpt><trkpt lat="43.7405008" lon="11.1129865"><ele>172.0</ele><time>2026-03-29T12:42:10.157Z</time></trkpt><trkpt lat="43.7404024" lon="11.1130719"><ele>172.0</ele><time>2026-03-29T12:42:11.157Z</time></trkpt><trkpt lat="43.7403307" lon="11.1131591"><ele>172.0</ele><time>2026-03-29T12:42:12.157Z</time></trkpt><trkpt lat="43.7402956" lon="11.113281"><ele>172.0</ele><time>2026-03-29T12:42:13.157Z</time></trkpt><trkpt lat="43.740294" lon="11.1134077"><ele>170.75</ele><time>2026-03-29T12:42:14.157Z</time></trkpt><trkpt lat="43.7403418" lon="11.1135515"><ele>169.5</ele><time>2026-03-29T12:42:15.157Z</time></trkpt><trkpt lat="43.7404103" lon="11.1137039"><ele>168.25</ele><time>2026-03-29T12:42:16.157Z</time></trkpt><trkpt lat="43.7404731" lon="11.1138491"><ele>167.0</ele><time>2026-03-29T12:42:17.156Z</time></trkpt><trkpt lat="43.7405242" lon="11.1139621"><ele>167.0</ele><time>2026-03-29T12:42:18.157Z</time></trkpt><trkpt lat="43.7405634" lon="11.1140471"><ele>167.0</ele><time>2026-03-29T12:42:19.157Z</time></trkpt><trkpt lat="43.7406102" lon="11.114206"><ele>167.0</ele><time>2026-03-29T12:42:21.157Z</time></trkpt><trkpt lat="43.7405344" lon="11.1143633"><ele>167.0</ele><time>2026-03-29T12:42:23.157Z</time></trkpt><trkpt lat="43.7404635" lon="11.1144198"><ele>167.0</ele><time>2026-03-29T12:42:24.157Z</time></trkpt><trkpt lat="43.7404087" lon="11.1144754"><ele>165.8</ele><time>2026-03-29T12:42:25.157Z</time></trkpt><trkpt lat="43.7403612" lon="11.1145337"><ele>164.6</ele><time>2026-03-29T12:42:26.157Z</time></trkpt><trkpt lat="43.7402886" lon="11.1146407"><ele>163.4</ele><time>2026-03-29T12:42:28.156Z</time></trkpt><trkpt lat="43.7402814" lon="11.1147525"><ele>162.20000000000002</ele><time>2026-03-29T12:42:30.157Z</time></trkpt><trkpt lat="43.7403383" lon="11.1149391"><ele>161.0</ele><time>2026-03-29T12:42:32.157Z</time></trkpt><trkpt lat="43.7403767" lon="11.1150402"><ele>160.0</ele><time>2026-03-29T12:42:33.157Z</time></trkpt><trkpt lat="43.7404147" lon="11.1151265"><ele>159.0</ele><time>2026-03-29T12:42:34.157Z</time></trkpt><trkpt lat="43.7404463" lon="11.1152096"><ele>158.0</ele><time>2026-03-29T12:42:35.156Z</time></trkpt><trkpt lat="43.7404955" lon="11.115349"><ele>157.0</ele><time>2026-03-29T12:42:37.157Z</time></trkpt><trkpt lat="43.7404601" lon="11.1154389"><ele>156.0</ele><time>2026-03-29T12:42:40.157Z</time></trkpt><trkpt lat="43.7403569" lon="11.1153752"><ele>155.0</ele><time>2026-03-29T12:42:43.157Z</time></trkpt><trkpt lat="43.7403022" lon="11.1152943"><ele>155.0</ele><time>2026-03-29T12:42:44.157Z</time></trkpt><trkpt lat="43.7402512" lon="11.115231"><ele>155.0</ele><time>2026-03-29T12:42:45.157Z</time></trkpt><trkpt lat="43.7401767" lon="11.1151685"><ele>155.0</ele><time>2026-03-29T12:42:46.157Z</time></trkpt><trkpt lat="43.7400865" lon="11.1151297"><ele>155.0</ele><time>2026-03-29T12:42:47.157Z</time></trkpt><trkpt lat="43.7399896" lon="11.1150975"><ele>155.0</ele><time>2026-03-29T12:42:48.157Z</time></trkpt><trkpt lat="43.7399016" lon="11.1150576"><ele>155.0</ele><time>2026-03-29T12:42:49.157Z</time></trkpt><trkpt lat="43.7398162" lon="11.1150156"><ele>154.6</ele><time>2026-03-29T12:42:50.157Z</time></trkpt><trkpt lat="43.7397169" lon="11.1149753"><ele>154.2</ele><time>2026-03-29T12:42:51.157Z</time></trkpt><trkpt lat="43.7396267" lon="11.114927"><ele>153.8</ele><time>2026-03-29T12:42:52.157Z</time></trkpt><trkpt lat="43.7395428" lon="11.1148743"><ele>153.4</ele><time>2026-03-29T12:42:53.157Z</time></trkpt><trkpt lat="43.7394665" lon="11.1148126"><ele>153.0</ele><time>2026-03-29T12:42:54.157Z</time></trkpt><trkpt lat="43.7393995" lon="11.1147406"><ele>153.33333333333334</ele><time>2026-03-29T12:42:55.157Z</time></trkpt><trkpt lat="43.7393401" lon="11.1146596"><ele>153.66666666666666</ele><time>2026-03-29T12:42:56.157Z</time></trkpt><trkpt lat="43.7392692" lon="11.1146018"><ele>154.0</ele><time>2026-03-29T12:42:57.157Z</time></trkpt><trkpt lat="43.739208" lon="11.1145642"><ele>154.33333333333331</ele><time>2026-03-29T12:42:58.156Z</time></trkpt><trkpt lat="43.7391388" lon="11.11455"><ele>154.66666666666666</ele><time>2026-03-29T12:43:00.157Z</time></trkpt><trkpt lat="43.7390707" lon="11.1145497"><ele>155.0</ele><time>2026-03-29T12:43:02.157Z</time></trkpt><trkpt lat="43.7389747" lon="11.114554"><ele>155.0</ele><time>2026-03-29T12:43:04.157Z</time></trkpt><trkpt lat="43.7388648" lon="11.1145381"><ele>155.0</ele><time>2026-03-29T12:43:06.157Z</time></trkpt><trkpt lat="43.738751" lon="11.1144805"><ele>155.0</ele><time>2026-03-29T12:43:08.157Z</time></trkpt><trkpt lat="43.7386907" lon="11.1144551"><ele>155.0</ele><time>2026-03-29T12:43:09.157Z</time></trkpt><trkpt lat="43.7385658" lon="11.1144757"><ele>155.0</ele><time>2026-03-29T12:43:11.157Z</time></trkpt><trkpt lat="43.7385073" lon="11.1145319"><ele>155.0</ele><time>2026-03-29T12:43:12.157Z</time></trkpt><trkpt lat="43.7384109" lon="11.1145993"><ele>155.0</ele><time>2026-03-29T12:43:14.157Z</time></trkpt><trkpt lat="43.7383027" lon="11.1145135"><ele>155.0</ele><time>2026-03-29T12:43:16.157Z</time></trkpt><trkpt lat="43.7382477" lon="11.1144152"><ele>155.0</ele><time>2026-03-29T12:43:17.157Z</time></trkpt><trkpt lat="43.7381932" lon="11.1143075"><ele>155.0</ele><time>2026-03-29T12:43:18.157Z</time></trkpt><trkpt lat="43.7381234" lon="11.1142086"><ele>155.0</ele><time>2026-03-29T12:43:19.157Z</time></trkpt><trkpt lat="43.7380601" lon="11.1141219"><ele>155.0</ele><time>2026-03-29T12:43:20.157Z</time></trkpt><trkpt lat="43.7379823" lon="11.1140596"><ele>155.0</ele><time>2026-03-29T12:43:21.157Z</time></trkpt><trkpt lat="43.7378974" lon="11.114029"><ele>155.0</ele><time>2026-03-29T12:43:22.157Z</time></trkpt><trkpt lat="43.7378133" lon="11.1140072"><ele>155.0</ele><time>2026-03-29T12:43:23.157Z</time></trkpt><trkpt lat="43.7377326" lon="11.1139949"><ele>155.0</ele><time>2026-03-29T12:43:24.157Z</time></trkpt><trkpt lat="43.7376335" lon="11.1139871"><ele>154.5</ele><time>2026-03-29T12:43:25.157Z</time></trkpt><trkpt lat="43.7375278" lon="11.1139726"><ele>154.0</ele><time>2026-03-29T12:43:26.157Z</time></trkpt><trkpt lat="43.7374117" lon="11.1139491"><ele>153.5</ele><time>2026-03-29T12:43:27.157Z</time></trkpt><trkpt lat="43.7372824" lon="11.1139284"><ele>153.0</ele><time>2026-03-29T12:43:28.157Z</time></trkpt><trkpt lat="43.7371626" lon="11.1139095"><ele>153.0</ele><time>2026-03-29T12:43:29.157Z</time></trkpt><trkpt lat="43.7370594" lon="11.1138955"><ele>153.0</ele><time>2026-03-29T12:43:30.157Z</time></trkpt><trkpt lat="43.736959" lon="11.113878"><ele>153.0</ele><time>2026-03-29T12:43:31.157Z</time></trkpt><trkpt lat="43.7368728" lon="11.1138456"><ele>153.0</ele><time>2026-03-29T12:43:32.157Z</time></trkpt><trkpt lat="43.7367858" lon="11.1137878"><ele>153.0</ele><time>2026-03-29T12:43:33.157Z</time></trkpt><trkpt lat="43.736692" lon="11.1136983"><ele>153.8</ele><time>2026-03-29T12:43:34.157Z</time></trkpt><trkpt lat="43.7365944" lon="11.1135958"><ele>154.60000000000002</ele><time>2026-03-29T12:43:35.157Z</time></trkpt><trkpt lat="43.7365086" lon="11.1135279"><ele>155.39999999999998</ele><time>2026-03-29T12:43:36.157Z</time></trkpt><trkpt lat="43.7364433" lon="11.1134849"><ele>156.2</ele><time>2026-03-29T12:43:37.156Z</time></trkpt><trkpt lat="43.7363761" lon="11.113458"><ele>157.0</ele><time>2026-03-29T12:43:38.157Z</time></trkpt><trkpt lat="43.7362589" lon="11.1134086"><ele>157.0</ele><time>2026-03-29T12:43:40.157Z</time></trkpt><trkpt lat="43.7361814" lon="11.1133835"><ele>157.0</ele><time>2026-03-29T12:43:42.157Z</time></trkpt><trkpt lat="43.7361085" lon="11.1133645"><ele>157.0</ele><time>2026-03-29T12:43:47.157Z</time></trkpt><trkpt lat="43.7360499" lon="11.1132907"><ele>157.0</ele><time>2026-03-29T12:43:50.156Z</time></trkpt><trkpt lat="43.7360113" lon="11.1131621"><ele>157.0</ele><time>2026-03-29T12:43:52.157Z</time></trkpt><trkpt lat="43.7359757" lon="11.1130293"><ele>157.0</ele><time>2026-03-29T12:43:54.157Z</time></trkpt><trkpt lat="43.7359375" lon="11.1129406"><ele>157.2</ele><time>2026-03-29T12:43:56.157Z</time></trkpt><trkpt lat="43.7358972" lon="11.1128478"><ele>157.39999999999998</ele><time>2026-03-29T12:43:58.157Z</time></trkpt><trkpt lat="43.7358565" lon="11.1127442"><ele>157.60000000000002</ele><time>2026-03-29T12:44:00.157Z</time></trkpt><trkpt lat="43.735805" lon="11.1126562"><ele>157.8</ele><time>2026-03-29T12:44:02.157Z</time></trkpt><trkpt lat="43.7357116" lon="11.1125891"><ele>158.0</ele><time>2026-03-29T12:44:04.157Z</time></trkpt><trkpt lat="43.7356036" lon="11.1124972"><ele>158.0</ele><time>2026-03-29T12:44:06.156Z</time></trkpt><trkpt lat="43.735553" lon="11.1124383"><ele>158.0</ele><time>2026-03-29T12:44:07.157Z</time></trkpt><trkpt lat="43.7355025" lon="11.112376"><ele>158.0</ele><time>2026-03-29T12:44:08.157Z</time></trkpt><trkpt lat="43.7354546" lon="11.1123163"><ele>158.0</ele><time>2026-03-29T12:44:09.156Z</time></trkpt><trkpt lat="43.7353361" lon="11.1122381"><ele>158.0</ele><time>2026-03-29T12:44:11.157Z</time></trkpt><trkpt lat="43.7352674" lon="11.1122171"><ele>158.0</ele><time>2026-03-29T12:44:12.157Z</time></trkpt><trkpt lat="43.7351733" lon="11.1122052"><ele>154.8</ele><time>2026-03-29T12:44:14.157Z</time></trkpt><trkpt lat="43.7350947" lon="11.1122534"><ele>151.60000000000002</ele><time>2026-03-29T12:44:16.157Z</time></trkpt><trkpt lat="43.735002" lon="11.1122664"><ele>148.39999999999998</ele><time>2026-03-29T12:44:18.157Z</time></trkpt><trkpt lat="43.7348949" lon="11.1122761"><ele>145.2</ele><time>2026-03-29T12:44:20.156Z</time></trkpt><trkpt lat="43.7348037" lon="11.1123268"><ele>142.0</ele><time>2026-03-29T12:44:22.157Z</time></trkpt><trkpt lat="43.7347114" lon="11.1123414"><ele>142.0</ele><time>2026-03-29T12:44:24.157Z</time></trkpt><trkpt lat="43.7346319" lon="11.1123111"><ele>142.0</ele><time>2026-03-29T12:44:26.157Z</time></trkpt><trkpt lat="43.7344535" lon="11.1121702"><ele>142.0</ele><time>2026-03-29T12:44:34.143Z</time></trkpt><trkpt lat="43.7342762" lon="11.1120475"><ele>142.0</ele><time>2026-03-29T12:44:38.143Z</time></trkpt><trkpt lat="43.7341455" lon="11.1119708"><ele>142.0</ele><time>2026-03-29T12:44:49.145Z</time></trkpt><trkpt lat="43.7340428" lon="11.1119371"><ele>142.0</ele><time>2026-03-29T12:44:51.143Z</time></trkpt><trkpt lat="43.7337767" lon="11.1119766"><ele>142.0</ele><time>2026-03-29T12:44:55.143Z</time></trkpt><trkpt lat="43.7337273" lon="11.1122411"><ele>142.0</ele><time>2026-03-29T12:44:59.123Z</time></trkpt><trkpt lat="43.733769" lon="11.1123499"><ele>142.0</ele><time>2026-03-29T12:45:01.14Z</time></trkpt><trkpt lat="43.7337883" lon="11.1124847"><ele>142.0</ele><time>2026-03-29T12:45:03.142Z</time></trkpt><trkpt lat="43.7338922" lon="11.112595"><ele>143.66666666666669</ele><time>2026-03-29T12:45:04.143Z</time></trkpt><trkpt lat="43.7338728" lon="11.1126851"><ele>145.33333333333334</ele><time>2026-03-29T12:45:06.141Z</time></trkpt><trkpt lat="43.7338909" lon="11.1127851"><ele>147.0</ele><time>2026-03-29T12:45:09.143Z</time></trkpt><trkpt lat="43.733888" lon="11.1128854"><ele>148.66666666666666</ele><time>2026-03-29T12:45:12.143Z</time></trkpt><trkpt lat="43.7338427" lon="11.1129878"><ele>150.33333333333331</ele><time>2026-03-29T12:45:14.143Z</time></trkpt><trkpt lat="43.7338155" lon="11.113089"><ele>152.0</ele><time>2026-03-29T12:45:16.143Z</time></trkpt><trkpt lat="43.7337802" lon="11.1132063"><ele>152.0</ele><time>2026-03-29T12:45:19.143Z</time></trkpt><trkpt lat="43.7337499" lon="11.1132923"><ele>152.0</ele><time>2026-03-29T12:45:22.143Z</time></trkpt><trkpt lat="43.7336774" lon="11.1132988"><ele>152.0</ele><time>2026-03-29T12:45:27.143Z</time></trkpt><trkpt lat="43.7336605" lon="11.1132116"><ele>152.0</ele><time>2026-03-29T12:45:29.143Z</time></trkpt><trkpt lat="43.7336388" lon="11.1131178"><ele>152.0</ele><time>2026-03-29T12:45:30.143Z</time></trkpt><trkpt lat="43.733608" lon="11.112997"><ele>152.0</ele><time>2026-03-29T12:45:32.143Z</time></trkpt><trkpt lat="43.7335695" lon="11.1128876"><ele>152.4</ele><time>2026-03-29T12:45:51.143Z</time></trkpt><trkpt lat="43.7335135" lon="11.1127691"><ele>152.79999999999998</ele><time>2026-03-29T12:45:53.143Z</time></trkpt><trkpt lat="43.7334384" lon="11.1126881"><ele>153.2</ele><time>2026-03-29T12:45:55.143Z</time></trkpt><trkpt lat="43.7333472" lon="11.1125644"><ele>153.6</ele><time>2026-03-29T12:45:57.143Z</time></trkpt><trkpt lat="43.7333073" lon="11.112494"><ele>154.0</ele><time>2026-03-29T12:45:58.143Z</time></trkpt><trkpt lat="43.7332652" lon="11.1124204"><ele>152.16666666666669</ele><time>2026-03-29T12:45:59.143Z</time></trkpt><trkpt lat="43.733219" lon="11.1123353"><ele>150.33333333333334</ele><time>2026-03-29T12:46:00.142Z</time></trkpt><trkpt lat="43.7331739" lon="11.1122369"><ele>148.5</ele><time>2026-03-29T12:46:01.143Z</time></trkpt><trkpt lat="43.7331376" lon="11.1121331"><ele>146.66666666666666</ele><time>2026-03-29T12:46:02.143Z</time></trkpt><trkpt lat="43.7331125" lon="11.1120138"><ele>144.83333333333331</ele><time>2026-03-29T12:46:03.143Z</time></trkpt><trkpt lat="43.7330721" lon="11.1119128"><ele>143.0</ele><time>2026-03-29T12:46:04.143Z</time></trkpt><trkpt lat="43.7330161" lon="11.1118209"><ele>143.0</ele><time>2026-03-29T12:46:05.143Z</time></trkpt><trkpt lat="43.7329613" lon="11.1117386"><ele>143.0</ele><time>2026-03-29T12:46:06.143Z</time></trkpt><trkpt lat="43.7328902" lon="11.1116623"><ele>143.0</ele><time>2026-03-29T12:46:07.143Z</time></trkpt><trkpt lat="43.7328074" lon="11.111636"><ele>143.0</ele><time>2026-03-29T12:46:08.143Z</time></trkpt><trkpt lat="43.7327215" lon="11.1116218"><ele>143.0</ele><time>2026-03-29T12:46:09.143Z</time></trkpt><trkpt lat="43.732645" lon="11.1116134"><ele>143.0</ele><time>2026-03-29T12:46:10.143Z</time></trkpt><trkpt lat="43.7325759" lon="11.1116011"><ele>145.0</ele><time>2026-03-29T12:46:11.143Z</time></trkpt><trkpt lat="43.7325088" lon="11.1116468"><ele>147.0</ele><time>2026-03-29T12:46:12.143Z</time></trkpt><trkpt lat="43.7324451" lon="11.1117145"><ele>149.0</ele><time>2026-03-29T12:46:13.143Z</time></trkpt><trkpt lat="43.7323788" lon="11.1117807"><ele>151.0</ele><time>2026-03-29T12:46:14.143Z</time></trkpt><trkpt lat="43.7323115" lon="11.1118113"><ele>153.0</ele><time>2026-03-29T12:46:15.143Z</time></trkpt><trkpt lat="43.7322084" lon="11.1117908"><ele>155.0</ele><time>2026-03-29T12:46:17.143Z</time></trkpt><trkpt lat="43.7320987" lon="11.111747"><ele>155.0</ele><time>2026-03-29T12:46:19.143Z</time></trkpt><trkpt lat="43.7320258" lon="11.1117061"><ele>155.0</ele><time>2026-03-29T12:46:20.143Z</time></trkpt><trkpt lat="43.731932" lon="11.111654"><ele>155.0</ele><time>2026-03-29T12:46:21.143Z</time></trkpt><trkpt lat="43.7318409" lon="11.1116071"><ele>155.0</ele><time>2026-03-29T12:46:22.143Z</time></trkpt><trkpt lat="43.7317662" lon="11.1115933"><ele>155.0</ele><time>2026-03-29T12:46:23.143Z</time></trkpt><trkpt lat="43.7316985" lon="11.1115815"><ele>155.0</ele><time>2026-03-29T12:46:24.143Z</time></trkpt><trkpt lat="43.7316158" lon="11.1116594"><ele>153.75</ele><time>2026-03-29T12:46:26.143Z</time></trkpt><trkpt lat="43.7315389" lon="11.111789"><ele>152.5</ele><time>2026-03-29T12:46:28.143Z</time></trkpt><trkpt lat="43.7314697" lon="11.1119426"><ele>151.25</ele><time>2026-03-29T12:46:30.142Z</time></trkpt><trkpt lat="43.731421" lon="11.1121199"><ele>150.0</ele><time>2026-03-29T12:46:32.143Z</time></trkpt><trkpt lat="43.7313927" lon="11.1122074"><ele>150.0</ele><time>2026-03-29T12:46:33.143Z</time></trkpt><trkpt lat="43.7313131" lon="11.1123098"><ele>150.0</ele><time>2026-03-29T12:46:35.143Z</time></trkpt><trkpt lat="43.7312506" lon="11.1123388"><ele>150.0</ele><time>2026-03-29T12:46:36.143Z</time></trkpt><trkpt lat="43.731184" lon="11.1123683"><ele>150.0</ele><time>2026-03-29T12:46:37.143Z</time></trkpt><trkpt lat="43.7310651" lon="11.1123718"><ele>150.0</ele><time>2026-03-29T12:46:39.143Z</time></trkpt><trkpt lat="43.7310016" lon="11.1123484"><ele>150.0</ele><time>2026-03-29T12:46:40.143Z</time></trkpt><trkpt lat="43.7309481" lon="11.1122946"><ele>150.16666666666666</ele><time>2026-03-29T12:46:41.143Z</time></trkpt><trkpt lat="43.7309159" lon="11.1121873"><ele>150.33333333333334</ele><time>2026-03-29T12:46:42.143Z</time></trkpt><trkpt lat="43.7309016" lon="11.1120627"><ele>150.5</ele><time>2026-03-29T12:46:43.143Z</time></trkpt><trkpt lat="43.7308896" lon="11.1119686"><ele>150.66666666666669</ele><time>2026-03-29T12:46:44.143Z</time></trkpt><trkpt lat="43.7308061" lon="11.1118482"><ele>150.83333333333334</ele><time>2026-03-29T12:46:46.143Z</time></trkpt><trkpt lat="43.7307454" lon="11.1118125"><ele>151.0</ele><time>2026-03-29T12:46:47.143Z</time></trkpt><trkpt lat="43.7306784" lon="11.1117812"><ele>151.0</ele><time>2026-03-29T12:46:48.143Z</time></trkpt><trkpt lat="43.7305705" lon="11.1116621"><ele>151.0</ele><time>2026-03-29T12:46:50.143Z</time></trkpt><trkpt lat="43.7305498" lon="11.1115657"><ele>151.0</ele><time>2026-03-29T12:46:51.143Z</time></trkpt><trkpt lat="43.7305577" lon="11.1114688"><ele>151.0</ele><time>2026-03-29T12:46:52.143Z</time></trkpt><trkpt lat="43.7305549" lon="11.111373"><ele>151.0</ele><time>2026-03-29T12:46:53.143Z</time></trkpt><trkpt lat="43.730561" lon="11.1112414"><ele>151.0</ele><time>2026-03-29T12:46:55.143Z</time></trkpt><trkpt lat="43.7305609" lon="11.1111226"><ele>149.2</ele><time>2026-03-29T12:46:57.143Z</time></trkpt><trkpt lat="43.7305366" lon="11.1109654"><ele>147.39999999999998</ele><time>2026-03-29T12:46:59.143Z</time></trkpt><trkpt lat="43.7305155" lon="11.1108527"><ele>145.6</ele><time>2026-03-29T12:47:01.143Z</time></trkpt><trkpt lat="43.7304752" lon="11.1107781"><ele>143.79999999999998</ele><time>2026-03-29T12:47:04.142Z</time></trkpt><trkpt lat="43.730381" lon="11.1106738"><ele>142.0</ele><time>2026-03-29T12:47:06.143Z</time></trkpt><trkpt lat="43.730306" lon="11.1106055"><ele>141.2</ele><time>2026-03-29T12:47:07.143Z</time></trkpt><trkpt lat="43.7302127" lon="11.110528"><ele>140.39999999999998</ele><time>2026-03-29T12:47:08.143Z</time></trkpt><trkpt lat="43.7301135" lon="11.1104418"><ele>139.60000000000002</ele><time>2026-03-29T12:47:09.142Z</time></trkpt><trkpt lat="43.7300274" lon="11.1103676"><ele>138.8</ele><time>2026-03-29T12:47:10.143Z</time></trkpt><trkpt lat="43.7299403" lon="11.1102782"><ele>138.0</ele><time>2026-03-29T12:47:11.143Z</time></trkpt><trkpt lat="43.7298636" lon="11.1102043"><ele>138.0</ele><time>2026-03-29T12:47:12.143Z</time></trkpt><trkpt lat="43.72979" lon="11.1101653"><ele>138.0</ele><time>2026-03-29T12:47:13.143Z</time></trkpt><trkpt lat="43.7297158" lon="11.1101175"><ele>138.0</ele><time>2026-03-29T12:47:14.143Z</time></trkpt><trkpt lat="43.729637" lon="11.1100988"><ele>138.0</ele><time>2026-03-29T12:47:15.143Z</time></trkpt><trkpt lat="43.7295448" lon="11.1100954"><ele>138.0</ele><time>2026-03-29T12:47:16.143Z</time></trkpt><trkpt lat="43.729451" lon="11.1100975"><ele>138.0</ele><time>2026-03-29T12:47:17.143Z</time></trkpt><trkpt lat="43.7293681" lon="11.1100915"><ele>139.8</ele><time>2026-03-29T12:47:18.143Z</time></trkpt><trkpt lat="43.7292811" lon="11.1100656"><ele>141.60000000000002</ele><time>2026-03-29T12:47:19.143Z</time></trkpt><trkpt lat="43.7291912" lon="11.1100174"><ele>143.39999999999998</ele><time>2026-03-29T12:47:20.143Z</time></trkpt><trkpt lat="43.7291047" lon="11.109958"><ele>145.2</ele><time>2026-03-29T12:47:21.142Z</time></trkpt><trkpt lat="43.7290262" lon="11.1098906"><ele>147.0</ele><time>2026-03-29T12:47:22.143Z</time></trkpt><trkpt lat="43.7289515" lon="11.1098491"><ele>145.71428571428572</ele><time>2026-03-29T12:47:23.142Z</time></trkpt><trkpt lat="43.7288795" lon="11.1098397"><ele>144.42857142857144</ele><time>2026-03-29T12:47:24.143Z</time></trkpt><trkpt lat="43.7288071" lon="11.1098361"><ele>143.14285714285714</ele><time>2026-03-29T12:47:25.143Z</time></trkpt><trkpt lat="43.7287361" lon="11.1098148"><ele>141.85714285714286</ele><time>2026-03-29T12:47:26.142Z</time></trkpt><trkpt lat="43.7286714" lon="11.1097553"><ele>140.57142857142858</ele><time>2026-03-29T12:47:27.143Z</time></trkpt><trkpt lat="43.7286202" lon="11.109684"><ele>139.28571428571428</ele><time>2026-03-29T12:47:28.143Z</time></trkpt><trkpt lat="43.7285634" lon="11.109607"><ele>138.0</ele><time>2026-03-29T12:47:29.143Z</time></trkpt><trkpt lat="43.7285018" lon="11.1095442"><ele>138.0</ele><time>2026-03-29T12:47:30.143Z</time></trkpt><trkpt lat="43.7284282" lon="11.109503"><ele>138.0</ele><time>2026-03-29T12:47:31.143Z</time></trkpt><trkpt lat="43.7283588" lon="11.1094783"><ele>138.0</ele><time>2026-03-29T12:47:32.143Z</time></trkpt><trkpt lat="43.7282925" lon="11.1094289"><ele>138.0</ele><time>2026-03-29T12:47:33.143Z</time></trkpt><trkpt lat="43.728238" lon="11.1093651"><ele>138.0</ele><time>2026-03-29T12:47:34.143Z</time></trkpt><trkpt lat="43.7281782" lon="11.109316"><ele>138.0</ele><time>2026-03-29T12:47:35.143Z</time></trkpt><trkpt lat="43.7281081" lon="11.1092791"><ele>138.0</ele><time>2026-03-29T12:47:36.143Z</time></trkpt><trkpt lat="43.7280341" lon="11.1092469"><ele>138.0</ele><time>2026-03-29T12:47:37.143Z</time></trkpt><trkpt lat="43.7279451" lon="11.1092207"><ele>138.0</ele><time>2026-03-29T12:47:38.143Z</time></trkpt><trkpt lat="43.7278471" lon="11.1091686"><ele>138.0</ele><time>2026-03-29T12:47:39.142Z</time></trkpt><trkpt lat="43.727763" lon="11.1091169"><ele>138.0</ele><time>2026-03-29T12:47:40.143Z</time></trkpt><trkpt lat="43.7277" lon="11.1090822"><ele>138.0</ele><time>2026-03-29T12:47:41.143Z</time></trkpt><trkpt lat="43.7275988" lon="11.109102"><ele>137.20000000000002</ele><time>2026-03-29T12:47:43.143Z</time></trkpt><trkpt lat="43.7275431" lon="11.109161"><ele>136.4</ele><time>2026-03-29T12:47:45.143Z</time></trkpt><trkpt lat="43.727495" lon="11.1092714"><ele>135.60000000000002</ele><time>2026-03-29T12:47:47.143Z</time></trkpt><trkpt lat="43.7274325" lon="11.1094216"><ele>134.8</ele><time>2026-03-29T12:47:49.143Z</time></trkpt><trkpt lat="43.7273538" lon="11.1095501"><ele>134.0</ele><time>2026-03-29T12:47:51.143Z</time></trkpt><trkpt lat="43.7272742" lon="11.1096693"><ele>134.0</ele><time>2026-03-29T12:47:53.143Z</time></trkpt><trkpt lat="43.7272314" lon="11.1097486"><ele>134.0</ele><time>2026-03-29T12:47:54.143Z</time></trkpt><trkpt lat="43.727199" lon="11.1098444"><ele>134.0</ele><time>2026-03-29T12:47:55.143Z</time></trkpt><trkpt lat="43.7271647" lon="11.1099434"><ele>134.0</ele><time>2026-03-29T12:47:56.143Z</time></trkpt><trkpt lat="43.7271258" lon="11.1100226"><ele>134.0</ele><time>2026-03-29T12:47:57.143Z</time></trkpt><trkpt lat="43.7270486" lon="11.1100895"><ele>134.0</ele><time>2026-03-29T12:47:59.143Z</time></trkpt><trkpt lat="43.7269737" lon="11.1101762"><ele>134.5</ele><time>2026-03-29T12:48:02.143Z</time></trkpt><trkpt lat="43.7268911" lon="11.1102115"><ele>135.0</ele><time>2026-03-29T12:48:04.143Z</time></trkpt><trkpt lat="43.7268001" lon="11.1102182"><ele>135.5</ele><time>2026-03-29T12:48:06.142Z</time></trkpt><trkpt lat="43.7267443" lon="11.1101463"><ele>136.0</ele><time>2026-03-29T12:48:07.143Z</time></trkpt><trkpt lat="43.7266899" lon="11.1100508"><ele>136.5</ele><time>2026-03-29T12:48:08.143Z</time></trkpt><trkpt lat="43.7266398" lon="11.109949"><ele>137.0</ele><time>2026-03-29T12:48:09.143Z</time></trkpt><trkpt lat="43.7265925" lon="11.1098405"><ele>136.0</ele><time>2026-03-29T12:48:10.143Z</time></trkpt><trkpt lat="43.7265554" lon="11.1097328"><ele>135.0</ele><time>2026-03-29T12:48:11.143Z</time></trkpt><trkpt lat="43.7265147" lon="11.1096322"><ele>134.0</ele><time>2026-03-29T12:48:12.143Z</time></trkpt><trkpt lat="43.7264715" lon="11.109546"><ele>133.0</ele><time>2026-03-29T12:48:13.143Z</time></trkpt><trkpt lat="43.7264159" lon="11.1094738"><ele>132.0</ele><time>2026-03-29T12:48:14.143Z</time></trkpt><trkpt lat="43.7263515" lon="11.1094315"><ele>131.0</ele><time>2026-03-29T12:48:15.143Z</time></trkpt><trkpt lat="43.7262787" lon="11.1094232"><ele>131.0</ele><time>2026-03-29T12:48:16.143Z</time></trkpt><trkpt lat="43.7262119" lon="11.109427"><ele>131.0</ele><time>2026-03-29T12:48:17.143Z</time></trkpt><trkpt lat="43.7261388" lon="11.1094326"><ele>131.0</ele><time>2026-03-29T12:48:18.143Z</time></trkpt><trkpt lat="43.7260744" lon="11.1094452"><ele>131.0</ele><time>2026-03-29T12:48:19.143Z</time></trkpt><trkpt lat="43.7260102" lon="11.1094523"><ele>131.0</ele><time>2026-03-29T12:48:20.143Z</time></trkpt><trkpt lat="43.7259232" lon="11.1094155"><ele>131.0</ele><time>2026-03-29T12:48:22.143Z</time></trkpt><trkpt lat="43.7258919" lon="11.1093391"><ele>131.0</ele><time>2026-03-29T12:48:24.143Z</time></trkpt><trkpt lat="43.725859" lon="11.1092225"><ele>133.0</ele><time>2026-03-29T12:48:26.143Z</time></trkpt><trkpt lat="43.7258446" lon="11.1091136"><ele>135.0</ele><time>2026-03-29T12:48:27.143Z</time></trkpt><trkpt lat="43.7258013" lon="11.1089965"><ele>137.0</ele><time>2026-03-29T12:48:29.143Z</time></trkpt><trkpt lat="43.7257638" lon="11.1089022"><ele>139.0</ele><time>2026-03-29T12:48:32.143Z</time></trkpt><trkpt lat="43.7256821" lon="11.1087576"><ele>141.0</ele><time>2026-03-29T12:48:34.143Z</time></trkpt><trkpt lat="43.7256387" lon="11.1086695"><ele>141.0</ele><time>2026-03-29T12:48:35.143Z</time></trkpt><trkpt lat="43.7255977" lon="11.1085737"><ele>141.0</ele><time>2026-03-29T12:48:36.143Z</time></trkpt><trkpt lat="43.7255592" lon="11.1085022"><ele>141.0</ele><time>2026-03-29T12:48:37.143Z</time></trkpt><trkpt lat="43.7254786" lon="11.1083862"><ele>141.0</ele><time>2026-03-29T12:48:39.143Z</time></trkpt><trkpt lat="43.7253931" lon="11.1082846"><ele>141.0</ele><time>2026-03-29T12:48:41.143Z</time></trkpt><trkpt lat="43.7253023" lon="11.1081948"><ele>139.83333333333334</ele><time>2026-03-29T12:48:43.143Z</time></trkpt><trkpt lat="43.7251743" lon="11.1081784"><ele>138.66666666666666</ele><time>2026-03-29T12:48:45.143Z</time></trkpt><trkpt lat="43.7251075" lon="11.1081844"><ele>137.5</ele><time>2026-03-29T12:48:46.143Z</time></trkpt><trkpt lat="43.7250359" lon="11.1081971"><ele>136.33333333333331</ele><time>2026-03-29T12:48:47.143Z</time></trkpt><trkpt lat="43.7249727" lon="11.1082106"><ele>135.16666666666666</ele><time>2026-03-29T12:48:48.143Z</time></trkpt><trkpt lat="43.7248565" lon="11.1082152"><ele>134.0</ele><time>2026-03-29T12:48:50.143Z</time></trkpt><trkpt lat="43.7247979" lon="11.108178"><ele>134.0</ele><time>2026-03-29T12:48:51.143Z</time></trkpt><trkpt lat="43.7247358" lon="11.1081406"><ele>134.0</ele><time>2026-03-29T12:48:52.143Z</time></trkpt><trkpt lat="43.7246703" lon="11.1081236"><ele>134.0</ele><time>2026-03-29T12:48:53.143Z</time></trkpt><trkpt lat="43.7245968" lon="11.108124"><ele>134.0</ele><time>2026-03-29T12:48:54.143Z</time></trkpt><trkpt lat="43.724519" lon="11.1081351"><ele>134.0</ele><time>2026-03-29T12:48:55.143Z</time></trkpt><trkpt lat="43.7244408" lon="11.1081357"><ele>134.0</ele><time>2026-03-29T12:48:56.143Z</time></trkpt><trkpt lat="43.7243595" lon="11.1081746"><ele>135.16666666666666</ele><time>2026-03-29T12:48:57.143Z</time></trkpt><trkpt lat="43.7243142" lon="11.1082434"><ele>136.33333333333331</ele><time>2026-03-29T12:48:58.143Z</time></trkpt><trkpt lat="43.7242846" lon="11.1083293"><ele>137.5</ele><time>2026-03-29T12:48:59.143Z</time></trkpt><trkpt lat="43.7242649" lon="11.1084146"><ele>138.66666666666666</ele><time>2026-03-29T12:49:00.143Z</time></trkpt><trkpt lat="43.724235" lon="11.1085797"><ele>139.83333333333334</ele><time>2026-03-29T12:49:02.142Z</time></trkpt><trkpt lat="43.7241903" lon="11.1087088"><ele>141.0</ele><time>2026-03-29T12:49:04.143Z</time></trkpt><trkpt lat="43.7241002" lon="11.1087495"><ele>141.0</ele><time>2026-03-29T12:49:06.143Z</time></trkpt><trkpt lat="43.7239863" lon="11.1087657"><ele>141.0</ele><time>2026-03-29T12:49:08.143Z</time></trkpt><trkpt lat="43.7238857" lon="11.1087218"><ele>141.0</ele><time>2026-03-29T12:49:09.143Z</time></trkpt><trkpt lat="43.7237993" lon="11.1086945"><ele>141.0</ele><time>2026-03-29T12:49:10.143Z</time></trkpt><trkpt lat="43.7237275" lon="11.1087099"><ele>141.0</ele><time>2026-03-29T12:49:11.143Z</time></trkpt><trkpt lat="43.7236461" lon="11.1087501"><ele>141.0</ele><time>2026-03-29T12:49:12.143Z</time></trkpt><trkpt lat="43.7235672" lon="11.1088029"><ele>141.0</ele><time>2026-03-29T12:49:13.143Z</time></trkpt><trkpt lat="43.7234941" lon="11.1089049"><ele>141.0</ele><time>2026-03-29T12:49:14.143Z</time></trkpt><trkpt lat="43.7234245" lon="11.1090355"><ele>141.0</ele><time>2026-03-29T12:49:15.143Z</time></trkpt><trkpt lat="43.7233491" lon="11.1091554"><ele>141.0</ele><time>2026-03-29T12:49:16.143Z</time></trkpt><trkpt lat="43.7232615" lon="11.1092729"><ele>142.6</ele><time>2026-03-29T12:49:17.142Z</time></trkpt><trkpt lat="43.7231879" lon="11.1093813"><ele>144.2</ele><time>2026-03-29T12:49:18.143Z</time></trkpt><trkpt lat="43.7231124" lon="11.1094518"><ele>145.8</ele><time>2026-03-29T12:49:19.143Z</time></trkpt><trkpt lat="43.7230455" lon="11.1094962"><ele>147.4</ele><time>2026-03-29T12:49:20.143Z</time></trkpt><trkpt lat="43.7229399" lon="11.1095024"><ele>149.0</ele><time>2026-03-29T12:49:22.143Z</time></trkpt><trkpt lat="43.7228699" lon="11.1094802"><ele>149.0</ele><time>2026-03-29T12:49:23.143Z</time></trkpt><trkpt lat="43.7227879" lon="11.1094543"><ele>149.0</ele><time>2026-03-29T12:49:24.143Z</time></trkpt><trkpt lat="43.7227023" lon="11.1094342"><ele>149.0</ele><time>2026-03-29T12:49:25.143Z</time></trkpt><trkpt lat="43.7226112" lon="11.1094175"><ele>149.0</ele><time>2026-03-29T12:49:26.143Z</time></trkpt><trkpt lat="43.7225198" lon="11.1094008"><ele>149.0</ele><time>2026-03-29T12:49:27.143Z</time></trkpt><trkpt lat="43.7224231" lon="11.109373"><ele>149.83333333333331</ele><time>2026-03-29T12:49:28.142Z</time></trkpt><trkpt lat="43.7223235" lon="11.1093397"><ele>150.66666666666666</ele><time>2026-03-29T12:49:29.143Z</time></trkpt><trkpt lat="43.7222248" lon="11.1093271"><ele>151.5</ele><time>2026-03-29T12:49:30.143Z</time></trkpt><trkpt lat="43.722132" lon="11.1093207"><ele>152.33333333333334</ele><time>2026-03-29T12:49:31.143Z</time></trkpt><trkpt lat="43.7220544" lon="11.1093172"><ele>153.16666666666669</ele><time>2026-03-29T12:49:32.143Z</time></trkpt><trkpt lat="43.7219835" lon="11.1093246"><ele>154.0</ele><time>2026-03-29T12:49:33.143Z</time></trkpt><trkpt lat="43.7219128" lon="11.1093282"><ele>153.33333333333334</ele><time>2026-03-29T12:49:34.143Z</time></trkpt><trkpt lat="43.721822" lon="11.1093335"><ele>152.66666666666669</ele><time>2026-03-29T12:49:36.143Z</time></trkpt><trkpt lat="43.7217297" lon="11.1093073"><ele>152.0</ele><time>2026-03-29T12:49:38.143Z</time></trkpt><trkpt lat="43.7216429" lon="11.1092756"><ele>151.33333333333334</ele><time>2026-03-29T12:49:40.143Z</time></trkpt><trkpt lat="43.7215587" lon="11.1092544"><ele>150.66666666666666</ele><time>2026-03-29T12:49:42.143Z</time></trkpt><trkpt lat="43.7214806" lon="11.1092539"><ele>150.0</ele><time>2026-03-29T12:49:46.143Z</time></trkpt><trkpt lat="43.7214108" lon="11.1092535"><ele>150.0</ele><time>2026-03-29T12:49:53.143Z</time></trkpt><trkpt lat="43.7213424" lon="11.1092766"><ele>150.0</ele><time>2026-03-29T12:49:57.143Z</time></trkpt><trkpt lat="43.7212696" lon="11.1093341"><ele>150.0</ele><time>2026-03-29T12:50:00.143Z</time></trkpt><trkpt lat="43.721209" lon="11.1093762"><ele>150.0</ele><time>2026-03-29T12:50:02.143Z</time></trkpt><trkpt lat="43.721147" lon="11.1094239"><ele>150.0</ele><time>2026-03-29T12:50:05.143Z</time></trkpt><trkpt lat="43.7210771" lon="11.1094979"><ele>150.0</ele><time>2026-03-29T12:50:09.143Z</time></trkpt><trkpt lat="43.7210187" lon="11.1095683"><ele>147.83333333333334</ele><time>2026-03-29T12:50:11.143Z</time></trkpt><trkpt lat="43.7209379" lon="11.1096263"><ele>145.66666666666666</ele><time>2026-03-29T12:50:13.143Z</time></trkpt><trkpt lat="43.7208743" lon="11.1096709"><ele>143.5</ele><time>2026-03-29T12:50:14.143Z</time></trkpt><trkpt lat="43.7207791" lon="11.1097558"><ele>141.33333333333331</ele><time>2026-03-29T12:50:16.143Z</time></trkpt><trkpt lat="43.7207106" lon="11.1098066"><ele>139.16666666666666</ele><time>2026-03-29T12:50:18.143Z</time></trkpt><trkpt lat="43.7206266" lon="11.1098309"><ele>137.0</ele><time>2026-03-29T12:50:20.143Z</time></trkpt><trkpt lat="43.7205153" lon="11.1097814"><ele>137.0</ele><time>2026-03-29T12:50:22.143Z</time></trkpt><trkpt lat="43.7204485" lon="11.1097524"><ele>137.0</ele><time>2026-03-29T12:50:23.143Z</time></trkpt><trkpt lat="43.7203805" lon="11.1097098"><ele>137.0</ele><time>2026-03-29T12:50:24.143Z</time></trkpt><trkpt lat="43.7202972" lon="11.1096657"><ele>137.0</ele><time>2026-03-29T12:50:25.143Z</time></trkpt><trkpt lat="43.7202305" lon="11.109629"><ele>137.0</ele><time>2026-03-29T12:50:26.143Z</time></trkpt><trkpt lat="43.7201024" lon="11.1096011"><ele>137.0</ele><time>2026-03-29T12:50:28.143Z</time></trkpt><trkpt lat="43.7199897" lon="11.1095869"><ele>135.6</ele><time>2026-03-29T12:50:30.143Z</time></trkpt><trkpt lat="43.7198855" lon="11.1095726"><ele>134.2</ele><time>2026-03-29T12:50:32.143Z</time></trkpt><trkpt lat="43.7197749" lon="11.1095507"><ele>132.8</ele><time>2026-03-29T12:50:34.143Z</time></trkpt><trkpt lat="43.7196872" lon="11.109507"><ele>131.4</ele><time>2026-03-29T12:50:36.143Z</time></trkpt><trkpt lat="43.7195943" lon="11.10942"><ele>130.0</ele><time>2026-03-29T12:50:38.143Z</time></trkpt><trkpt lat="43.7194913" lon="11.1093279"><ele>130.0</ele><time>2026-03-29T12:50:40.143Z</time></trkpt><trkpt lat="43.7194429" lon="11.1092428"><ele>130.0</ele><time>2026-03-29T12:50:41.142Z</time></trkpt><trkpt lat="43.7193793" lon="11.109149"><ele>130.0</ele><time>2026-03-29T12:50:42.143Z</time></trkpt><trkpt lat="43.7193053" lon="11.1090334"><ele>130.0</ele><time>2026-03-29T12:50:43.143Z</time></trkpt><trkpt lat="43.7192424" lon="11.1089291"><ele>130.0</ele><time>2026-03-29T12:50:44.143Z</time></trkpt><trkpt lat="43.7191919" lon="11.1088262"><ele>128.8</ele><time>2026-03-29T12:50:45.143Z</time></trkpt><trkpt lat="43.7191328" lon="11.1087244"><ele>127.6</ele><time>2026-03-29T12:50:46.142Z</time></trkpt><trkpt lat="43.7190745" lon="11.1086237"><ele>126.4</ele><time>2026-03-29T12:50:47.143Z</time></trkpt><trkpt lat="43.7190186" lon="11.1085193"><ele>125.2</ele><time>2026-03-29T12:50:48.143Z</time></trkpt><trkpt lat="43.7189654" lon="11.1084048"><ele>124.0</ele><time>2026-03-29T12:50:49.143Z</time></trkpt><trkpt lat="43.7189085" lon="11.1082769"><ele>123.33333333333334</ele><time>2026-03-29T12:50:50.143Z</time></trkpt><trkpt lat="43.7188573" lon="11.1081635"><ele>122.66666666666667</ele><time>2026-03-29T12:50:51.143Z</time></trkpt><trkpt lat="43.7188115" lon="11.1080672"><ele>122.0</ele><time>2026-03-29T12:50:52.143Z</time></trkpt><trkpt lat="43.7187663" lon="11.1079684"><ele>121.33333333333334</ele><time>2026-03-29T12:50:53.143Z</time></trkpt><trkpt lat="43.7187277" lon="11.1078744"><ele>120.66666666666667</ele><time>2026-03-29T12:50:54.143Z</time></trkpt><trkpt lat="43.7186963" lon="11.1077834"><ele>120.0</ele><time>2026-03-29T12:50:55.143Z</time></trkpt><trkpt lat="43.7186691" lon="11.1077041"><ele>120.0</ele><time>2026-03-29T12:50:56.143Z</time></trkpt><trkpt lat="43.7186502" lon="11.1076026"><ele>120.0</ele><time>2026-03-29T12:50:57.143Z</time></trkpt><trkpt lat="43.7186262" lon="11.1074625"><ele>120.0</ele><time>2026-03-29T12:50:58.143Z</time></trkpt><trkpt lat="43.7185833" lon="11.1073093"><ele>120.0</ele><time>2026-03-29T12:50:59.143Z</time></trkpt><trkpt lat="43.7185334" lon="11.107129"><ele>120.0</ele><time>2026-03-29T12:51:00.143Z</time></trkpt><trkpt lat="43.7184854" lon="11.1069621"><ele>120.25</ele><time>2026-03-29T12:51:01.143Z</time></trkpt><trkpt lat="43.7184354" lon="11.1068274"><ele>120.5</ele><time>2026-03-29T12:51:02.143Z</time></trkpt><trkpt lat="43.7183871" lon="11.1066878"><ele>120.75</ele><time>2026-03-29T12:51:03.143Z</time></trkpt><trkpt lat="43.7183542" lon="11.1065388"><ele>121.0</ele><time>2026-03-29T12:51:04.143Z</time></trkpt><trkpt lat="43.7183181" lon="11.1063824"><ele>121.5</ele><time>2026-03-29T12:51:05.143Z</time></trkpt><trkpt lat="43.7182773" lon="11.106204"><ele>122.0</ele><time>2026-03-29T12:51:06.143Z</time></trkpt><trkpt lat="43.7182228" lon="11.1060113"><ele>122.5</ele><time>2026-03-29T12:51:07.143Z</time></trkpt><trkpt lat="43.7181669" lon="11.1058119"><ele>123.0</ele><time>2026-03-29T12:51:08.142Z</time></trkpt><trkpt lat="43.7181069" lon="11.1056253"><ele>123.25</ele><time>2026-03-29T12:51:09.143Z</time></trkpt><trkpt lat="43.7180378" lon="11.1054482"><ele>123.5</ele><time>2026-03-29T12:51:10.143Z</time></trkpt><trkpt lat="43.7179728" lon="11.1052917"><ele>123.75</ele><time>2026-03-29T12:51:11.143Z</time></trkpt><trkpt lat="43.7179103" lon="11.1051476"><ele>124.0</ele><time>2026-03-29T12:51:12.143Z</time></trkpt><trkpt lat="43.717855" lon="11.1049979"><ele>125.0</ele><time>2026-03-29T12:51:13.143Z</time></trkpt><trkpt lat="43.7178048" lon="11.1048405"><ele>126.0</ele><time>2026-03-29T12:51:14.143Z</time></trkpt><trkpt lat="43.7178472" lon="11.1041975"><ele>133.5</ele><time>2026-03-29T12:51:19.163Z</time></trkpt><trkpt lat="43.7175169" lon="11.1039128"><ele>141.0</ele><time>2026-03-29T12:51:21.143Z</time></trkpt><trkpt lat="43.7174124" lon="11.1037679"><ele>141.0</ele><time>2026-03-29T12:51:22.143Z</time></trkpt><trkpt lat="43.7170668" lon="11.10346"><ele>141.0</ele><time>2026-03-29T12:51:25.143Z</time></trkpt><trkpt lat="43.7169323" lon="11.1031795"><ele>133.0</ele><time>2026-03-29T12:51:26.133Z</time></trkpt><trkpt lat="43.7166385" lon="11.1025938"><ele>131.0</ele><time>2026-03-29T12:51:31.143Z</time></trkpt><trkpt lat="43.7165191" lon="11.1022195"><ele>129.0</ele><time>2026-03-29T12:51:35.123Z</time></trkpt><trkpt lat="43.7165524" lon="11.1018312"><ele>128.0</ele><time>2026-03-29T12:51:40.143Z</time></trkpt><trkpt lat="43.7164881" lon="11.1014153"><ele>127.0</ele><time>2026-03-29T12:51:41.121Z</time></trkpt><trkpt lat="43.716415" lon="11.1013067"><ele>126.0</ele><time>2026-03-29T12:51:42.14Z</time></trkpt><trkpt lat="43.7163349" lon="11.1011573"><ele>126.0</ele><time>2026-03-29T12:51:43.141Z</time></trkpt><trkpt lat="43.7162326" lon="11.1009632"><ele>126.0</ele><time>2026-03-29T12:51:45.143Z</time></trkpt><trkpt lat="43.7161677" lon="11.1008622"><ele>126.0</ele><time>2026-03-29T12:51:46.142Z</time></trkpt><trkpt lat="43.7161031" lon="11.1007559"><ele>126.0</ele><time>2026-03-29T12:51:47.143Z</time></trkpt><trkpt lat="43.7160092" lon="11.100644"><ele>125.0</ele><time>2026-03-29T12:51:48.143Z</time></trkpt><trkpt lat="43.7159076" lon="11.1005251"><ele>124.0</ele><time>2026-03-29T12:51:49.143Z</time></trkpt><trkpt lat="43.7157907" lon="11.1004047"><ele>123.0</ele><time>2026-03-29T12:51:50.143Z</time></trkpt><trkpt lat="43.7156621" lon="11.1002631"><ele>122.0</ele><time>2026-03-29T12:51:51.143Z</time></trkpt><trkpt lat="43.7155287" lon="11.1001225"><ele>122.0</ele><time>2026-03-29T12:51:52.143Z</time></trkpt><trkpt lat="43.7154068" lon="11.0999878"><ele>122.0</ele><time>2026-03-29T12:51:53.143Z</time></trkpt><trkpt lat="43.7152865" lon="11.0998568"><ele>122.0</ele><time>2026-03-29T12:51:54.143Z</time></trkpt><trkpt lat="43.7151633" lon="11.0997245"><ele>122.75</ele><time>2026-03-29T12:51:55.143Z</time></trkpt><trkpt lat="43.7150327" lon="11.0995993"><ele>123.5</ele><time>2026-03-29T12:51:56.143Z</time></trkpt><trkpt lat="43.7149169" lon="11.0994869"><ele>124.25</ele><time>2026-03-29T12:51:57.142Z</time></trkpt><trkpt lat="43.7148153" lon="11.0993806"><ele>125.0</ele><time>2026-03-29T12:51:58.143Z</time></trkpt><trkpt lat="43.7147198" lon="11.0992702"><ele>125.0</ele><time>2026-03-29T12:51:59.143Z</time></trkpt><trkpt lat="43.714646" lon="11.0991605"><ele>125.0</ele><time>2026-03-29T12:52:00.143Z</time></trkpt><trkpt lat="43.7145886" lon="11.0990208"><ele>125.0</ele><time>2026-03-29T12:52:01.143Z</time></trkpt><trkpt lat="43.7145421" lon="11.0988813"><ele>125.0</ele><time>2026-03-29T12:52:02.143Z</time></trkpt><trkpt lat="43.7144991" lon="11.0987543"><ele>125.0</ele><time>2026-03-29T12:52:03.143Z</time></trkpt><trkpt lat="43.7144476" lon="11.0986263"><ele>126.8</ele><time>2026-03-29T12:52:04.143Z</time></trkpt><trkpt lat="43.7143905" lon="11.0984903"><ele>128.6</ele><time>2026-03-29T12:52:05.143Z</time></trkpt><trkpt lat="43.7143261" lon="11.0983545"><ele>130.4</ele><time>2026-03-29T12:52:06.143Z</time></trkpt><trkpt lat="43.714259" lon="11.0982405"><ele>132.2</ele><time>2026-03-29T12:52:07.143Z</time></trkpt><trkpt lat="43.7141835" lon="11.0981536"><ele>134.0</ele><time>2026-03-29T12:52:08.143Z</time></trkpt><trkpt lat="43.7141062" lon="11.0980697"><ele>134.0</ele><time>2026-03-29T12:52:09.143Z</time></trkpt><trkpt lat="43.7140178" lon="11.0980018"><ele>134.0</ele><time>2026-03-29T12:52:10.143Z</time></trkpt><trkpt lat="43.7139154" lon="11.0979406"><ele>134.0</ele><time>2026-03-29T12:52:11.143Z</time></trkpt><trkpt lat="43.7138188" lon="11.0978396"><ele>134.0</ele><time>2026-03-29T12:52:12.143Z</time></trkpt><trkpt lat="43.7137374" lon="11.0977155"><ele>134.0</ele><time>2026-03-29T12:52:13.143Z</time></trkpt><trkpt lat="43.7136761" lon="11.0975843"><ele>134.0</ele><time>2026-03-29T12:52:14.143Z</time></trkpt><trkpt lat="43.7136233" lon="11.0974673"><ele>134.0</ele><time>2026-03-29T12:52:15.143Z</time></trkpt><trkpt lat="43.7135861" lon="11.0973443"><ele>134.0</ele><time>2026-03-29T12:52:16.143Z</time></trkpt><trkpt lat="43.7135473" lon="11.0972218"><ele>134.0</ele><time>2026-03-29T12:52:17.143Z</time></trkpt><trkpt lat="43.7135072" lon="11.0971077"><ele>133.8</ele><time>2026-03-29T12:52:18.143Z</time></trkpt><trkpt lat="43.713465" lon="11.0969977"><ele>133.60000000000002</ele><time>2026-03-29T12:52:19.143Z</time></trkpt><trkpt lat="43.7134094" lon="11.0968948"><ele>133.4</ele><time>2026-03-29T12:52:20.142Z</time></trkpt><trkpt lat="43.7133399" lon="11.096792"><ele>133.20000000000002</ele><time>2026-03-29T12:52:21.143Z</time></trkpt><trkpt lat="43.713262" lon="11.0966874"><ele>133.0</ele><time>2026-03-29T12:52:22.143Z</time></trkpt><trkpt lat="43.7131858" lon="11.0965848"><ele>130.6</ele><time>2026-03-29T12:52:23.143Z</time></trkpt><trkpt lat="43.7131057" lon="11.0964791"><ele>128.20000000000002</ele><time>2026-03-29T12:52:24.143Z</time></trkpt><trkpt lat="43.7130246" lon="11.0963766"><ele>125.8</ele><time>2026-03-29T12:52:25.143Z</time></trkpt><trkpt lat="43.7129576" lon="11.0962785"><ele>123.4</ele><time>2026-03-29T12:52:26.142Z</time></trkpt><trkpt lat="43.7128934" lon="11.0961821"><ele>121.0</ele><time>2026-03-29T12:52:27.143Z</time></trkpt><trkpt lat="43.7128359" lon="11.0960902"><ele>121.0</ele><time>2026-03-29T12:52:28.143Z</time></trkpt><trkpt lat="43.7127768" lon="11.0959967"><ele>121.0</ele><time>2026-03-29T12:52:29.143Z</time></trkpt><trkpt lat="43.7127034" lon="11.0958903"><ele>121.0</ele><time>2026-03-29T12:52:30.143Z</time></trkpt><trkpt lat="43.7126214" lon="11.095789"><ele>121.0</ele><time>2026-03-29T12:52:31.143Z</time></trkpt><trkpt lat="43.7125318" lon="11.0956783"><ele>121.0</ele><time>2026-03-29T12:52:32.143Z</time></trkpt><trkpt lat="43.7124376" lon="11.0955737"><ele>118.25</ele><time>2026-03-29T12:52:33.143Z</time></trkpt><trkpt lat="43.7123477" lon="11.0954552"><ele>115.5</ele><time>2026-03-29T12:52:34.143Z</time></trkpt><trkpt lat="43.7122617" lon="11.0953349"><ele>112.75</ele><time>2026-03-29T12:52:35.143Z</time></trkpt><trkpt lat="43.7121886" lon="11.0952282"><ele>110.0</ele><time>2026-03-29T12:52:36.143Z</time></trkpt><trkpt lat="43.7121157" lon="11.0951277"><ele>109.99999999999999</ele><time>2026-03-29T12:52:37.143Z</time></trkpt><trkpt lat="43.7120393" lon="11.0950499"><ele>110.0</ele><time>2026-03-29T12:52:38.143Z</time></trkpt><trkpt lat="43.7119615" lon="11.0949933"><ele>110.0</ele><time>2026-03-29T12:52:39.143Z</time></trkpt><trkpt lat="43.7118824" lon="11.094947"><ele>110.0</ele><time>2026-03-29T12:52:40.143Z</time></trkpt><trkpt lat="43.7118179" lon="11.0949108"><ele>109.99999999999999</ele><time>2026-03-29T12:52:41.143Z</time></trkpt><trkpt lat="43.7117451" lon="11.0948144"><ele>110.0</ele><time>2026-03-29T12:52:44.143Z</time></trkpt><trkpt lat="43.711724" lon="11.0947304"><ele>109.6</ele><time>2026-03-29T12:52:45.143Z</time></trkpt><trkpt lat="43.711691" lon="11.0946273"><ele>109.2</ele><time>2026-03-29T12:52:46.143Z</time></trkpt><trkpt lat="43.7116402" lon="11.0945271"><ele>108.80000000000001</ele><time>2026-03-29T12:52:47.143Z</time></trkpt><trkpt lat="43.7115913" lon="11.0944072"><ele>108.4</ele><time>2026-03-29T12:52:48.142Z</time></trkpt><trkpt lat="43.711524" lon="11.094274"><ele>108.0</ele><time>2026-03-29T12:52:49.143Z</time></trkpt><trkpt lat="43.7114415" lon="11.0941601"><ele>108.0</ele><time>2026-03-29T12:52:50.143Z</time></trkpt><trkpt lat="43.7113623" lon="11.0940803"><ele>108.00000000000001</ele><time>2026-03-29T12:52:51.143Z</time></trkpt><trkpt lat="43.7112877" lon="11.0940056"><ele>108.00000000000001</ele><time>2026-03-29T12:52:52.143Z</time></trkpt><trkpt lat="43.7112035" lon="11.0939285"><ele>108.0</ele><time>2026-03-29T12:52:53.143Z</time></trkpt><trkpt lat="43.7111146" lon="11.093819"><ele>108.0</ele><time>2026-03-29T12:52:54.143Z</time></trkpt><trkpt lat="43.711024" lon="11.0937056"><ele>108.0</ele><time>2026-03-29T12:52:55.143Z</time></trkpt><trkpt lat="43.7109352" lon="11.093582"><ele>108.0</ele><time>2026-03-29T12:52:56.143Z</time></trkpt><trkpt lat="43.7108459" lon="11.0934494"><ele>108.0</ele><time>2026-03-29T12:52:57.143Z</time></trkpt><trkpt lat="43.7107573" lon="11.0933116"><ele>108.0</ele><time>2026-03-29T12:52:58.142Z</time></trkpt><trkpt lat="43.71067" lon="11.0931761"><ele>105.0</ele><time>2026-03-29T12:52:59.143Z</time></trkpt><trkpt lat="43.7105808" lon="11.0930384"><ele>102.0</ele><time>2026-03-29T12:53:00.143Z</time></trkpt><trkpt lat="43.7104836" lon="11.0928946"><ele>99.0</ele><time>2026-03-29T12:53:01.143Z</time></trkpt><trkpt lat="43.7103847" lon="11.0927344"><ele>96.0</ele><time>2026-03-29T12:53:02.143Z</time></trkpt><trkpt lat="43.7102903" lon="11.0925827"><ele>96.0</ele><time>2026-03-29T12:53:03.143Z</time></trkpt><trkpt lat="43.7102025" lon="11.0924423"><ele>96.0</ele><time>2026-03-29T12:53:04.143Z</time></trkpt><trkpt lat="43.7101197" lon="11.0923139"><ele>96.0</ele><time>2026-03-29T12:53:05.143Z</time></trkpt><trkpt lat="43.7100399" lon="11.0921985"><ele>96.0</ele><time>2026-03-29T12:53:06.143Z</time></trkpt><trkpt lat="43.709972" lon="11.0920997"><ele>96.0</ele><time>2026-03-29T12:53:07.142Z</time></trkpt><trkpt lat="43.7099241" lon="11.0920269"><ele>96.0</ele><time>2026-03-29T12:53:08.143Z</time></trkpt><trkpt lat="43.7098767" lon="11.0919523"><ele>96.0</ele><time>2026-03-29T12:53:09.143Z</time></trkpt><trkpt lat="43.7098101" lon="11.0918366"><ele>96.0</ele><time>2026-03-29T12:53:11.143Z</time></trkpt><trkpt lat="43.7097446" lon="11.0917502"><ele>96.0</ele><time>2026-03-29T12:53:14.143Z</time></trkpt><trkpt lat="43.7096747" lon="11.0916435"><ele>96.0</ele><time>2026-03-29T12:53:16.143Z</time></trkpt><trkpt lat="43.7096251" lon="11.0915861"><ele>96.0</ele><time>2026-03-29T12:53:18.143Z</time></trkpt><trkpt lat="43.7095884" lon="11.0916657"><ele>96.0</ele><time>2026-03-29T12:53:22.143Z</time></trkpt><trkpt lat="43.7096714" lon="11.0917516"><ele>96.0</ele><time>2026-03-29T12:53:24.143Z</time></trkpt><trkpt lat="43.7097199" lon="11.0918579"><ele>96.0</ele><time>2026-03-29T12:53:26.143Z</time></trkpt><trkpt lat="43.7096876" lon="11.0919744"><ele>96.0</ele><time>2026-03-29T12:53:28.143Z</time></trkpt><trkpt lat="43.7095834" lon="11.0920653"><ele>96.0</ele><time>2026-03-29T12:53:30.143Z</time></trkpt><trkpt lat="43.709523" lon="11.0921018"><ele>96.0</ele><time>2026-03-29T12:53:31.143Z</time></trkpt><trkpt lat="43.7094563" lon="11.0921448"><ele>96.0</ele><time>2026-03-29T12:53:32.143Z</time></trkpt><trkpt lat="43.7093906" lon="11.0921984"><ele>96.0</ele><time>2026-03-29T12:53:33.143Z</time></trkpt><trkpt lat="43.7093292" lon="11.0922457"><ele>96.0</ele><time>2026-03-29T12:53:34.143Z</time></trkpt><trkpt lat="43.709269" lon="11.0922812"><ele>96.0</ele><time>2026-03-29T12:53:35.143Z</time></trkpt><trkpt lat="43.7091727" lon="11.0923471"><ele>95.0</ele><time>2026-03-29T12:53:37.143Z</time></trkpt><trkpt lat="43.7090841" lon="11.0924571"><ele>94.0</ele><time>2026-03-29T12:53:39.143Z</time></trkpt><trkpt lat="43.7090304" lon="11.0925378"><ele>93.0</ele><time>2026-03-29T12:53:40.143Z</time></trkpt><trkpt lat="43.7089443" lon="11.0926365"><ele>92.0</ele><time>2026-03-29T12:53:41.143Z</time></trkpt><trkpt lat="43.7088606" lon="11.0927339"><ele>91.0</ele><time>2026-03-29T12:53:42.143Z</time></trkpt><trkpt lat="43.7087967" lon="11.092827"><ele>91.0</ele><time>2026-03-29T12:53:43.143Z</time></trkpt><trkpt lat="43.708751" lon="11.0929164"><ele>91.0</ele><time>2026-03-29T12:53:44.143Z</time></trkpt><trkpt lat="43.7087118" lon="11.0930108"><ele>91.0</ele><time>2026-03-29T12:53:45.143Z</time></trkpt><trkpt lat="43.7086815" lon="11.0931168"><ele>91.0</ele><time>2026-03-29T12:53:46.143Z</time></trkpt><trkpt lat="43.7086538" lon="11.0932103"><ele>91.0</ele><time>2026-03-29T12:53:47.143Z</time></trkpt><trkpt lat="43.7086206" lon="11.0932913"><ele>91.0</ele><time>2026-03-29T12:53:48.143Z</time></trkpt><trkpt lat="43.7085875" lon="11.0933665"><ele>91.0</ele><time>2026-03-29T12:53:49.142Z</time></trkpt><trkpt lat="43.708549" lon="11.0934415"><ele>88.8</ele><time>2026-03-29T12:53:50.143Z</time></trkpt><trkpt lat="43.7085073" lon="11.0935153"><ele>86.6</ele><time>2026-03-29T12:53:51.143Z</time></trkpt><trkpt lat="43.7084467" lon="11.0936447"><ele>84.4</ele><time>2026-03-29T12:53:53.143Z</time></trkpt><trkpt lat="43.7084332" lon="11.0937721"><ele>82.2</ele><time>2026-03-29T12:53:55.143Z</time></trkpt><trkpt lat="43.7084579" lon="11.0939097"><ele>80.0</ele><time>2026-03-29T12:53:57.142Z</time></trkpt><trkpt lat="43.7085409" lon="11.0940328"><ele>82.33333333333334</ele><time>2026-03-29T12:53:59.143Z</time></trkpt><trkpt lat="43.7085878" lon="11.0941071"><ele>84.66666666666667</ele><time>2026-03-29T12:54:00.143Z</time></trkpt><trkpt lat="43.7086145" lon="11.0941961"><ele>87.0</ele><time>2026-03-29T12:54:01.143Z</time></trkpt><trkpt lat="43.7086164" lon="11.0942939"><ele>89.33333333333333</ele><time>2026-03-29T12:54:02.143Z</time></trkpt><trkpt lat="43.7086093" lon="11.094397"><ele>91.66666666666666</ele><time>2026-03-29T12:54:03.143Z</time></trkpt><trkpt lat="43.7086037" lon="11.0944913"><ele>94.0</ele><time>2026-03-29T12:54:04.143Z</time></trkpt><trkpt lat="43.7086002" lon="11.0946589"><ele>94.0</ele><time>2026-03-29T12:54:06.143Z</time></trkpt><trkpt lat="43.7086267" lon="11.0948124"><ele>94.0</ele><time>2026-03-29T12:54:08.143Z</time></trkpt><trkpt lat="43.7086536" lon="11.0949314"><ele>94.0</ele><time>2026-03-29T12:54:10.143Z</time></trkpt><trkpt lat="43.7086791" lon="11.0950375"><ele>94.0</ele><time>2026-03-29T12:54:12.143Z</time></trkpt><trkpt lat="43.7086932" lon="11.0951401"><ele>94.0</ele><time>2026-03-29T12:54:14.143Z</time></trkpt><trkpt lat="43.7087091" lon="11.0952304"><ele>94.0</ele><time>2026-03-29T12:54:16.143Z</time></trkpt><trkpt lat="43.7087215" lon="11.0953417"><ele>93.4</ele><time>2026-03-29T12:54:18.142Z</time></trkpt><trkpt lat="43.7087087" lon="11.0954811"><ele>92.80000000000001</ele><time>2026-03-29T12:54:20.143Z</time></trkpt><trkpt lat="43.7086904" lon="11.0956371"><ele>92.19999999999999</ele><time>2026-03-29T12:54:22.143Z</time></trkpt><trkpt lat="43.7086517" lon="11.0957874"><ele>91.6</ele><time>2026-03-29T12:54:24.143Z</time></trkpt><trkpt lat="43.7085896" lon="11.0959191"><ele>91.0</ele><time>2026-03-29T12:54:26.143Z</time></trkpt><trkpt lat="43.7085374" lon="11.0959845"><ele>88.57142857142857</ele><time>2026-03-29T12:54:27.143Z</time></trkpt><trkpt lat="43.7084747" lon="11.0960456"><ele>86.14285714285714</ele><time>2026-03-29T12:54:28.143Z</time></trkpt><trkpt lat="43.7084175" lon="11.096098"><ele>83.71428571428572</ele><time>2026-03-29T12:54:29.143Z</time></trkpt><trkpt lat="43.7083578" lon="11.096143"><ele>81.28571428571428</ele><time>2026-03-29T12:54:30.143Z</time></trkpt><trkpt lat="43.7082933" lon="11.0961802"><ele>78.85714285714286</ele><time>2026-03-29T12:54:31.143Z</time></trkpt><trkpt lat="43.7082318" lon="11.0962146"><ele>76.42857142857143</ele><time>2026-03-29T12:54:32.143Z</time></trkpt><trkpt lat="43.7081566" lon="11.0962489"><ele>74.0</ele><time>2026-03-29T12:54:33.143Z</time></trkpt><trkpt lat="43.7080824" lon="11.0963026"><ele>74.0</ele><time>2026-03-29T12:54:34.143Z</time></trkpt><trkpt lat="43.7079992" lon="11.0963695"><ele>74.0</ele><time>2026-03-29T12:54:35.143Z</time></trkpt><trkpt lat="43.7079046" lon="11.0964507"><ele>74.0</ele><time>2026-03-29T12:54:36.143Z</time></trkpt><trkpt lat="43.7078171" lon="11.0965315"><ele>74.0</ele><time>2026-03-29T12:54:37.143Z</time></trkpt><trkpt lat="43.7077329" lon="11.0966148"><ele>74.0</ele><time>2026-03-29T12:54:38.143Z</time></trkpt><trkpt lat="43.7076509" lon="11.0967067"><ele>76.6</ele><time>2026-03-29T12:54:39.143Z</time></trkpt><trkpt lat="43.7075665" lon="11.0967947"><ele>79.2</ele><time>2026-03-29T12:54:40.143Z</time></trkpt><trkpt lat="43.7074843" lon="11.0968885"><ele>81.8</ele><time>2026-03-29T12:54:41.143Z</time></trkpt><trkpt lat="43.707403" lon="11.0969853"><ele>84.39999999999999</ele><time>2026-03-29T12:54:42.143Z</time></trkpt><trkpt lat="43.7073341" lon="11.097073"><ele>87.0</ele><time>2026-03-29T12:54:43.143Z</time></trkpt><trkpt lat="43.707263" lon="11.0971257"><ele>87.0</ele><time>2026-03-29T12:54:44.143Z</time></trkpt><trkpt lat="43.7071837" lon="11.0971696"><ele>87.0</ele><time>2026-03-29T12:54:45.143Z</time></trkpt><trkpt lat="43.7070993" lon="11.0972117"><ele>87.0</ele><time>2026-03-29T12:54:46.143Z</time></trkpt><trkpt lat="43.7070106" lon="11.0972712"><ele>87.0</ele><time>2026-03-29T12:54:47.143Z</time></trkpt><trkpt lat="43.7069204" lon="11.0973584"><ele>87.0</ele><time>2026-03-29T12:54:48.143Z</time></trkpt><trkpt lat="43.7068232" lon="11.0974539"><ele>90.6</ele><time>2026-03-29T12:54:49.143Z</time></trkpt><trkpt lat="43.7067249" lon="11.0975396"><ele>94.19999999999999</ele><time>2026-03-29T12:54:50.143Z</time></trkpt><trkpt lat="43.7066347" lon="11.0976133"><ele>97.8</ele><time>2026-03-29T12:54:51.143Z</time></trkpt><trkpt lat="43.7065561" lon="11.0976776"><ele>101.4</ele><time>2026-03-29T12:54:52.143Z</time></trkpt><trkpt lat="43.7064641" lon="11.0977472"><ele>105.0</ele><time>2026-03-29T12:54:54.143Z</time></trkpt><trkpt lat="43.7064857" lon="11.0978935"><ele>105.0</ele><time>2026-03-29T12:54:57.142Z</time></trkpt><trkpt lat="43.7065512" lon="11.0979751"><ele>105.0</ele><time>2026-03-29T12:54:58.143Z</time></trkpt><trkpt lat="43.7066476" lon="11.0980533"><ele>105.0</ele><time>2026-03-29T12:54:59.143Z</time></trkpt><trkpt lat="43.7067262" lon="11.098128"><ele>105.0</ele><time>2026-03-29T12:55:00.143Z</time></trkpt><trkpt lat="43.7067872" lon="11.0981984"><ele>105.0</ele><time>2026-03-29T12:55:01.143Z</time></trkpt><trkpt lat="43.7068911" lon="11.0982863"><ele>104.6</ele><time>2026-03-29T12:55:03.143Z</time></trkpt><trkpt lat="43.706984" lon="11.0983854"><ele>104.2</ele><time>2026-03-29T12:55:05.143Z</time></trkpt><trkpt lat="43.7070723" lon="11.0984817"><ele>103.80000000000001</ele><time>2026-03-29T12:55:07.143Z</time></trkpt><trkpt lat="43.7071652" lon="11.0985738"><ele>103.4</ele><time>2026-03-29T12:55:09.143Z</time></trkpt><trkpt lat="43.7072455" lon="11.0986609"><ele>103.0</ele><time>2026-03-29T12:55:11.143Z</time></trkpt><trkpt lat="43.7072951" lon="11.098718"><ele>103.00000000000001</ele><time>2026-03-29T12:55:13.143Z</time></trkpt><trkpt lat="43.7073542" lon="11.0987661"><ele>103.0</ele><time>2026-03-29T12:55:18.143Z</time></trkpt><trkpt lat="43.7073363" lon="11.0986754"><ele>103.0</ele><time>2026-03-29T12:55:59.143Z</time></trkpt><trkpt lat="43.7072433" lon="11.0986332"><ele>103.0</ele><time>2026-03-29T12:56:01.142Z</time></trkpt><trkpt lat="43.7071821" lon="11.098572"><ele>103.00000000000001</ele><time>2026-03-29T12:56:02.143Z</time></trkpt><trkpt lat="43.7071181" lon="11.0985019"><ele>103.0</ele><time>2026-03-29T12:56:03.143Z</time></trkpt><trkpt lat="43.7070527" lon="11.0984339"><ele>103.00000000000001</ele><time>2026-03-29T12:56:04.143Z</time></trkpt><trkpt lat="43.706983" lon="11.0983611"><ele>103.0</ele><time>2026-03-29T12:56:05.143Z</time></trkpt><trkpt lat="43.7069125" lon="11.0982954"><ele>103.0</ele><time>2026-03-29T12:56:06.143Z</time></trkpt><trkpt lat="43.706844" lon="11.0982294"><ele>103.0</ele><time>2026-03-29T12:56:07.143Z</time></trkpt><trkpt lat="43.7067783" lon="11.0981607"><ele>103.00000000000001</ele><time>2026-03-29T12:56:08.143Z</time></trkpt><trkpt lat="43.7067153" lon="11.0980968"><ele>103.0</ele><time>2026-03-29T12:56:09.143Z</time></trkpt><trkpt lat="43.7066548" lon="11.0980369"><ele>103.33333333333334</ele><time>2026-03-29T12:56:10.143Z</time></trkpt><trkpt lat="43.7065939" lon="11.0979809"><ele>103.66666666666667</ele><time>2026-03-29T12:56:11.143Z</time></trkpt><trkpt lat="43.7065354" lon="11.0979277"><ele>104.0</ele><time>2026-03-29T12:56:12.143Z</time></trkpt><trkpt lat="43.7064787" lon="11.0978823"><ele>104.33333333333334</ele><time>2026-03-29T12:56:13.143Z</time></trkpt><trkpt lat="43.7063858" lon="11.0978116"><ele>104.66666666666667</ele><time>2026-03-29T12:56:15.143Z</time></trkpt><trkpt lat="43.706327" lon="11.0977585"><ele>105.0</ele><time>2026-03-29T12:56:17.143Z</time></trkpt><trkpt lat="43.7062429" lon="11.0977807"><ele>105.0</ele><time>2026-03-29T12:56:20.143Z</time></trkpt><trkpt lat="43.7062071" lon="11.0978532"><ele>105.0</ele><time>2026-03-29T12:56:21.143Z</time></trkpt><trkpt lat="43.7061816" lon="11.0979706"><ele>105.0</ele><time>2026-03-29T12:56:22.143Z</time></trkpt><trkpt lat="43.7061455" lon="11.0980928"><ele>105.0</ele><time>2026-03-29T12:56:23.143Z</time></trkpt><trkpt lat="43.706107" lon="11.0982194"><ele>105.0</ele><time>2026-03-29T12:56:24.143Z</time></trkpt><trkpt lat="43.7060602" lon="11.0983447"><ele>105.0</ele><time>2026-03-29T12:56:25.143Z</time></trkpt><trkpt lat="43.7060192" lon="11.0984428"><ele>106.0</ele><time>2026-03-29T12:56:26.143Z</time></trkpt><trkpt lat="43.7059728" lon="11.0985407"><ele>107.0</ele><time>2026-03-29T12:56:28.143Z</time></trkpt><trkpt lat="43.7060022" lon="11.0986277"><ele>108.0</ele><time>2026-03-29T12:56:30.143Z</time></trkpt><trkpt lat="43.7060735" lon="11.0986907"><ele>109.0</ele><time>2026-03-29T12:56:31.143Z</time></trkpt><trkpt lat="43.7061622" lon="11.0987544"><ele>110.0</ele><time>2026-03-29T12:56:32.143Z</time></trkpt><trkpt lat="43.7062633" lon="11.0988323"><ele>110.75</ele><time>2026-03-29T12:56:33.143Z</time></trkpt><trkpt lat="43.7063677" lon="11.0989281"><ele>111.5</ele><time>2026-03-29T12:56:34.143Z</time></trkpt><trkpt lat="43.7064714" lon="11.0990252"><ele>112.25</ele><time>2026-03-29T12:56:35.143Z</time></trkpt><trkpt lat="43.7065607" lon="11.0991279"><ele>113.0</ele><time>2026-03-29T12:56:36.143Z</time></trkpt><trkpt lat="43.706655" lon="11.0992261"><ele>113.80000000000001</ele><time>2026-03-29T12:56:37.143Z</time></trkpt><trkpt lat="43.7067422" lon="11.0993256"><ele>114.60000000000001</ele><time>2026-03-29T12:56:38.143Z</time></trkpt><trkpt lat="43.7068242" lon="11.0994308"><ele>115.39999999999999</ele><time>2026-03-29T12:56:39.143Z</time></trkpt><trkpt lat="43.7069054" lon="11.099527"><ele>116.19999999999999</ele><time>2026-03-29T12:56:40.143Z</time></trkpt><trkpt lat="43.7069874" lon="11.0996106"><ele>117.0</ele><time>2026-03-29T12:56:41.143Z</time></trkpt><trkpt lat="43.7070658" lon="11.0996901"><ele>116.39999999999999</ele><time>2026-03-29T12:56:42.143Z</time></trkpt><trkpt lat="43.7071435" lon="11.0997738"><ele>115.79999999999998</ele><time>2026-03-29T12:56:43.143Z</time></trkpt><trkpt lat="43.7072123" lon="11.0998629"><ele>115.2</ele><time>2026-03-29T12:56:44.143Z</time></trkpt><trkpt lat="43.7072819" lon="11.0999633"><ele>114.6</ele><time>2026-03-29T12:56:45.143Z</time></trkpt><trkpt lat="43.7073479" lon="11.1000607"><ele>114.0</ele><time>2026-03-29T12:56:46.143Z</time></trkpt><trkpt lat="43.7074188" lon="11.1001541"><ele>114.0</ele><time>2026-03-29T12:56:47.142Z</time></trkpt><trkpt lat="43.7074926" lon="11.1002569"><ele>114.0</ele><time>2026-03-29T12:56:48.143Z</time></trkpt><trkpt lat="43.707565" lon="11.1003504"><ele>114.0</ele><time>2026-03-29T12:56:49.143Z</time></trkpt><trkpt lat="43.7076338" lon="11.1004408"><ele>114.0</ele><time>2026-03-29T12:56:50.143Z</time></trkpt><trkpt lat="43.7076992" lon="11.1005431"><ele>114.0</ele><time>2026-03-29T12:56:51.143Z</time></trkpt><trkpt lat="43.7077775" lon="11.1006445"><ele>114.5</ele><time>2026-03-29T12:56:52.143Z</time></trkpt><trkpt lat="43.7078523" lon="11.1007574"><ele>115.0</ele><time>2026-03-29T12:56:53.143Z</time></trkpt><trkpt lat="43.7079201" lon="11.1008794"><ele>115.5</ele><time>2026-03-29T12:56:54.143Z</time></trkpt><trkpt lat="43.7079874" lon="11.1010253"><ele>116.0</ele><time>2026-03-29T12:56:55.143Z</time></trkpt><trkpt lat="43.7080552" lon="11.1011734"><ele>116.0</ele><time>2026-03-29T12:56:56.143Z</time></trkpt><trkpt lat="43.7081289" lon="11.1013232"><ele>116.0</ele><time>2026-03-29T12:56:57.143Z</time></trkpt><trkpt lat="43.7081956" lon="11.1014568"><ele>116.0</ele><time>2026-03-29T12:56:58.143Z</time></trkpt><trkpt lat="43.7082548" lon="11.1015809"><ele>116.0</ele><time>2026-03-29T12:56:59.143Z</time></trkpt><trkpt lat="43.7083162" lon="11.1017165"><ele>117.0</ele><time>2026-03-29T12:57:00.143Z</time></trkpt><trkpt lat="43.708386" lon="11.1018633"><ele>118.0</ele><time>2026-03-29T12:57:01.143Z</time></trkpt><trkpt lat="43.7084674" lon="11.1020182"><ele>119.0</ele><time>2026-03-29T12:57:02.143Z</time></trkpt><trkpt lat="43.7085549" lon="11.1021835"><ele>120.0</ele><time>2026-03-29T12:57:03.143Z</time></trkpt><trkpt lat="43.7086513" lon="11.1023465"><ele>119.0</ele><time>2026-03-29T12:57:04.143Z</time></trkpt><trkpt lat="43.7087518" lon="11.1025114"><ele>118.0</ele><time>2026-03-29T12:57:05.143Z</time></trkpt><trkpt lat="43.7088533" lon="11.10268"><ele>117.0</ele><time>2026-03-29T12:57:06.143Z</time></trkpt><trkpt lat="43.708956" lon="11.1028486"><ele>117.0</ele><time>2026-03-29T12:57:07.143Z</time></trkpt><trkpt lat="43.7090547" lon="11.10301"><ele>117.0</ele><time>2026-03-29T12:57:08.143Z</time></trkpt><trkpt lat="43.7091504" lon="11.1031604"><ele>117.0</ele><time>2026-03-29T12:57:09.143Z</time></trkpt><trkpt lat="43.709248" lon="11.1033016"><ele>117.0</ele><time>2026-03-29T12:57:10.143Z</time></trkpt><trkpt lat="43.7093675" lon="11.1034277"><ele>119.33333333333334</ele><time>2026-03-29T12:57:11.143Z</time></trkpt><trkpt lat="43.7095199" lon="11.1035352"><ele>121.66666666666667</ele><time>2026-03-29T12:57:12.142Z</time></trkpt><trkpt lat="43.7096791" lon="11.1036504"><ele>124.0</ele><time>2026-03-29T12:57:13.142Z</time></trkpt><trkpt lat="43.7098332" lon="11.1037601"><ele>124.0</ele><time>2026-03-29T12:57:14.143Z</time></trkpt><trkpt lat="43.7099803" lon="11.1038599"><ele>124.0</ele><time>2026-03-29T12:57:15.143Z</time></trkpt><trkpt lat="43.7101137" lon="11.10396"><ele>124.0</ele><time>2026-03-29T12:57:16.143Z</time></trkpt><trkpt lat="43.7102444" lon="11.1040533"><ele>126.0</ele><time>2026-03-29T12:57:17.143Z</time></trkpt><trkpt lat="43.7103818" lon="11.1041588"><ele>128.0</ele><time>2026-03-29T12:57:18.143Z</time></trkpt><trkpt lat="43.7105296" lon="11.1042672"><ele>130.0</ele><time>2026-03-29T12:57:19.142Z</time></trkpt><trkpt lat="43.7106819" lon="11.1043628"><ele>130.0</ele><time>2026-03-29T12:57:20.143Z</time></trkpt><trkpt lat="43.7108241" lon="11.1044519"><ele>130.0</ele><time>2026-03-29T12:57:21.143Z</time></trkpt><trkpt lat="43.7109521" lon="11.1045342"><ele>130.0</ele><time>2026-03-29T12:57:22.143Z</time></trkpt><trkpt lat="43.7110786" lon="11.104632"><ele>130.0</ele><time>2026-03-29T12:57:23.143Z</time></trkpt><trkpt lat="43.7111806" lon="11.104763"><ele>132.66666666666669</ele><time>2026-03-29T12:57:24.143Z</time></trkpt><trkpt lat="43.7112798" lon="11.1049231"><ele>135.33333333333334</ele><time>2026-03-29T12:57:25.143Z</time></trkpt><trkpt lat="43.7113785" lon="11.105088"><ele>138.0</ele><time>2026-03-29T12:57:26.143Z</time></trkpt><trkpt lat="43.7114759" lon="11.1052556"><ele>138.0</ele><time>2026-03-29T12:57:27.143Z</time></trkpt><trkpt lat="43.7115687" lon="11.1054237"><ele>138.0</ele><time>2026-03-29T12:57:28.143Z</time></trkpt><trkpt lat="43.7116452" lon="11.1055776"><ele>138.0</ele><time>2026-03-29T12:57:29.143Z</time></trkpt><trkpt lat="43.7117072" lon="11.1057357"><ele>138.0</ele><time>2026-03-29T12:57:30.143Z</time></trkpt><trkpt lat="43.7117574" lon="11.1059469"><ele>137.66666666666666</ele><time>2026-03-29T12:57:31.143Z</time></trkpt><trkpt lat="43.7118003" lon="11.1061705"><ele>137.33333333333331</ele><time>2026-03-29T12:57:32.142Z</time></trkpt><trkpt lat="43.7118399" lon="11.106411"><ele>137.0</ele><time>2026-03-29T12:57:33.143Z</time></trkpt><trkpt lat="43.7118703" lon="11.1066643"><ele>136.33333333333331</ele><time>2026-03-29T12:57:34.143Z</time></trkpt><trkpt lat="43.7118902" lon="11.106907"><ele>135.66666666666666</ele><time>2026-03-29T12:57:35.143Z</time></trkpt><trkpt lat="43.7118959" lon="11.1071432"><ele>135.0</ele><time>2026-03-29T12:57:36.143Z</time></trkpt><trkpt lat="43.7119006" lon="11.1073693"><ele>135.33333333333334</ele><time>2026-03-29T12:57:37.143Z</time></trkpt><trkpt lat="43.7118975" lon="11.1076049"><ele>135.66666666666669</ele><time>2026-03-29T12:57:38.143Z</time></trkpt><trkpt lat="43.7118884" lon="11.1078341"><ele>136.0</ele><time>2026-03-29T12:57:39.143Z</time></trkpt><trkpt lat="43.7118771" lon="11.1080573"><ele>136.33333333333334</ele><time>2026-03-29T12:57:40.143Z</time></trkpt><trkpt lat="43.7118628" lon="11.1082788"><ele>136.66666666666666</ele><time>2026-03-29T12:57:41.143Z</time></trkpt><trkpt lat="43.7118454" lon="11.1084935"><ele>137.0</ele><time>2026-03-29T12:57:42.143Z</time></trkpt><trkpt lat="43.7118103" lon="11.108697"><ele>137.0</ele><time>2026-03-29T12:57:43.143Z</time></trkpt><trkpt lat="43.7117687" lon="11.1088761"><ele>137.0</ele><time>2026-03-29T12:57:44.143Z</time></trkpt><trkpt lat="43.7117196" lon="11.1090402"><ele>137.0</ele><time>2026-03-29T12:57:45.143Z</time></trkpt><trkpt lat="43.7116993" lon="11.1092191"><ele>137.0</ele><time>2026-03-29T12:57:46.142Z</time></trkpt><trkpt lat="43.7117317" lon="11.1094234"><ele>137.33333333333331</ele><time>2026-03-29T12:57:47.143Z</time></trkpt><trkpt lat="43.7118037" lon="11.1096443"><ele>137.66666666666666</ele><time>2026-03-29T12:57:48.143Z</time></trkpt><trkpt lat="43.7118691" lon="11.1098566"><ele>138.0</ele><time>2026-03-29T12:57:49.143Z</time></trkpt><trkpt lat="43.7119257" lon="11.1100246"><ele>137.5</ele><time>2026-03-29T12:57:50.143Z</time></trkpt><trkpt lat="43.7119639" lon="11.1101562"><ele>137.0</ele><time>2026-03-29T12:57:51.143Z</time></trkpt><trkpt lat="43.7119893" lon="11.1102502"><ele>136.5</ele><time>2026-03-29T12:57:52.143Z</time></trkpt><trkpt lat="43.7120174" lon="11.1103401"><ele>136.0</ele><time>2026-03-29T12:57:53.143Z</time></trkpt><trkpt lat="43.7120276" lon="11.110466"><ele>135.5</ele><time>2026-03-29T12:57:55.143Z</time></trkpt><trkpt lat="43.7120199" lon="11.110577"><ele>135.0</ele><time>2026-03-29T12:57:58.143Z</time></trkpt><trkpt lat="43.7120543" lon="11.1106567"><ele>135.25</ele><time>2026-03-29T12:57:59.143Z</time></trkpt><trkpt lat="43.7121235" lon="11.1107536"><ele>135.5</ele><time>2026-03-29T12:58:00.143Z</time></trkpt><trkpt lat="43.712221" lon="11.1108629"><ele>135.75</ele><time>2026-03-29T12:58:01.142Z</time></trkpt><trkpt lat="43.7123181" lon="11.1109818"><ele>136.0</ele><time>2026-03-29T12:58:02.143Z</time></trkpt><trkpt lat="43.7124084" lon="11.1111051"><ele>136.0</ele><time>2026-03-29T12:58:03.143Z</time></trkpt><trkpt lat="43.7125094" lon="11.1112405"><ele>136.0</ele><time>2026-03-29T12:58:04.143Z</time></trkpt><trkpt lat="43.7126064" lon="11.1113773"><ele>136.0</ele><time>2026-03-29T12:58:05.143Z</time></trkpt><trkpt lat="43.7126938" lon="11.1115049"><ele>136.0</ele><time>2026-03-29T12:58:06.142Z</time></trkpt><trkpt lat="43.7127818" lon="11.1116289"><ele>132.5</ele><time>2026-03-29T12:58:07.143Z</time></trkpt><trkpt lat="43.712871" lon="11.1117542"><ele>129.0</ele><time>2026-03-29T12:58:08.143Z</time></trkpt><trkpt lat="43.7129593" lon="11.1118836"><ele>125.5</ele><time>2026-03-29T12:58:09.143Z</time></trkpt><trkpt lat="43.7130344" lon="11.1120278"><ele>122.0</ele><time>2026-03-29T12:58:10.143Z</time></trkpt><trkpt lat="43.7130974" lon="11.112193"><ele>122.0</ele><time>2026-03-29T12:58:11.142Z</time></trkpt><trkpt lat="43.7131498" lon="11.1123649"><ele>122.0</ele><time>2026-03-29T12:58:12.143Z</time></trkpt><trkpt lat="43.7131902" lon="11.1125377"><ele>122.0</ele><time>2026-03-29T12:58:13.143Z</time></trkpt><trkpt lat="43.7132154" lon="11.1127439"><ele>122.0</ele><time>2026-03-29T12:58:14.143Z</time></trkpt><trkpt lat="43.7132326" lon="11.1129621"><ele>123.0</ele><time>2026-03-29T12:58:15.143Z</time></trkpt><trkpt lat="43.7132466" lon="11.113185"><ele>124.0</ele><time>2026-03-29T12:58:16.143Z</time></trkpt><trkpt lat="43.7132774" lon="11.113421"><ele>125.0</ele><time>2026-03-29T12:58:17.143Z</time></trkpt><trkpt lat="43.713336" lon="11.1136449"><ele>126.33333333333333</ele><time>2026-03-29T12:58:18.143Z</time></trkpt><trkpt lat="43.7134061" lon="11.1138411"><ele>127.66666666666666</ele><time>2026-03-29T12:58:19.143Z</time></trkpt><trkpt lat="43.7135217" lon="11.1140211"><ele>129.0</ele><time>2026-03-29T12:58:20.143Z</time></trkpt><trkpt lat="43.7136519" lon="11.1141661"><ele>130.75</ele><time>2026-03-29T12:58:21.143Z</time></trkpt><trkpt lat="43.7137948" lon="11.1142844"><ele>132.5</ele><time>2026-03-29T12:58:22.142Z</time></trkpt><trkpt lat="43.7139303" lon="11.1143779"><ele>134.25</ele><time>2026-03-29T12:58:23.143Z</time></trkpt><trkpt lat="43.7140316" lon="11.1144929"><ele>136.0</ele><time>2026-03-29T12:58:24.143Z</time></trkpt><trkpt lat="43.7141094" lon="11.1146522"><ele>136.0</ele><time>2026-03-29T12:58:25.143Z</time></trkpt><trkpt lat="43.7141618" lon="11.1148365"><ele>136.0</ele><time>2026-03-29T12:58:26.143Z</time></trkpt><trkpt lat="43.714163" lon="11.1150405"><ele>136.0</ele><time>2026-03-29T12:58:27.143Z</time></trkpt><trkpt lat="43.7141218" lon="11.1152294"><ele>136.0</ele><time>2026-03-29T12:58:28.143Z</time></trkpt><trkpt lat="43.7140501" lon="11.1154202"><ele>138.33333333333334</ele><time>2026-03-29T12:58:29.143Z</time></trkpt><trkpt lat="43.7139755" lon="11.1156192"><ele>140.66666666666666</ele><time>2026-03-29T12:58:30.143Z</time></trkpt><trkpt lat="43.7139149" lon="11.1158485"><ele>143.0</ele><time>2026-03-29T12:58:31.143Z</time></trkpt><trkpt lat="43.7138695" lon="11.1160765"><ele>143.33333333333331</ele><time>2026-03-29T12:58:32.143Z</time></trkpt><trkpt lat="43.7138445" lon="11.1163021"><ele>143.66666666666666</ele><time>2026-03-29T12:58:33.143Z</time></trkpt><trkpt lat="43.7138413" lon="11.1165316"><ele>144.0</ele><time>2026-03-29T12:58:34.143Z</time></trkpt><trkpt lat="43.7138589" lon="11.1167691"><ele>145.0</ele><time>2026-03-29T12:58:35.143Z</time></trkpt><trkpt lat="43.7138929" lon="11.1169962"><ele>146.0</ele><time>2026-03-29T12:58:36.143Z</time></trkpt><trkpt lat="43.713931" lon="11.1172202"><ele>147.0</ele><time>2026-03-29T12:58:37.143Z</time></trkpt><trkpt lat="43.7139813" lon="11.1174446"><ele>149.66666666666666</ele><time>2026-03-29T12:58:38.143Z</time></trkpt><trkpt lat="43.7140435" lon="11.117673"><ele>152.33333333333331</ele><time>2026-03-29T12:58:39.143Z</time></trkpt><trkpt lat="43.7141101" lon="11.1179037"><ele>155.0</ele><time>2026-03-29T12:58:40.143Z</time></trkpt><trkpt lat="43.7141727" lon="11.1181367"><ele>155.66666666666666</ele><time>2026-03-29T12:58:41.143Z</time></trkpt><trkpt lat="43.7142483" lon="11.1183585"><ele>156.33333333333334</ele><time>2026-03-29T12:58:42.143Z</time></trkpt><trkpt lat="43.7143542" lon="11.1185513"><ele>157.0</ele><time>2026-03-29T12:58:43.143Z</time></trkpt><trkpt lat="43.7144827" lon="11.1187155"><ele>157.0</ele><time>2026-03-29T12:58:44.143Z</time></trkpt><trkpt lat="43.7146297" lon="11.1188555"><ele>157.0</ele><time>2026-03-29T12:58:45.143Z</time></trkpt><trkpt lat="43.7147895" lon="11.1189878"><ele>157.0</ele><time>2026-03-29T12:58:46.143Z</time></trkpt><trkpt lat="43.7149358" lon="11.1191267"><ele>161.33333333333334</ele><time>2026-03-29T12:58:47.143Z</time></trkpt><trkpt lat="43.7150627" lon="11.1192646"><ele>165.66666666666666</ele><time>2026-03-29T12:58:48.143Z</time></trkpt><trkpt lat="43.7151586" lon="11.1194168"><ele>170.0</ele><time>2026-03-29T12:58:49.143Z</time></trkpt><trkpt lat="43.7152221" lon="11.1196035"><ele>170.66666666666666</ele><time>2026-03-29T12:58:50.143Z</time></trkpt><trkpt lat="43.7152523" lon="11.1198052"><ele>171.33333333333334</ele><time>2026-03-29T12:58:51.143Z</time></trkpt><trkpt lat="43.7152856" lon="11.1200091"><ele>172.0</ele><time>2026-03-29T12:58:52.143Z</time></trkpt><trkpt lat="43.7153415" lon="11.1202306"><ele>172.0</ele><time>2026-03-29T12:58:53.143Z</time></trkpt><trkpt lat="43.7154171" lon="11.1204299"><ele>172.0</ele><time>2026-03-29T12:58:54.143Z</time></trkpt><trkpt lat="43.7154938" lon="11.120637"><ele>172.0</ele><time>2026-03-29T12:58:55.143Z</time></trkpt><trkpt lat="43.7155777" lon="11.1208536"><ele>175.0</ele><time>2026-03-29T12:58:56.143Z</time></trkpt><trkpt lat="43.715684" lon="11.1210895"><ele>178.0</ele><time>2026-03-29T12:58:57.143Z</time></trkpt><trkpt lat="43.7158036" lon="11.1213094"><ele>181.0</ele><time>2026-03-29T12:58:58.142Z</time></trkpt><trkpt lat="43.7159276" lon="11.1214943"><ele>182.0</ele><time>2026-03-29T12:58:59.143Z</time></trkpt><trkpt lat="43.7160309" lon="11.1216778"><ele>183.0</ele><time>2026-03-29T12:59:00.143Z</time></trkpt><trkpt lat="43.716136" lon="11.1218591"><ele>184.0</ele><time>2026-03-29T12:59:01.143Z</time></trkpt><trkpt lat="43.7162322" lon="11.1220356"><ele>184.0</ele><time>2026-03-29T12:59:02.143Z</time></trkpt><trkpt lat="43.7163252" lon="11.1221958"><ele>184.0</ele><time>2026-03-29T12:59:03.143Z</time></trkpt><trkpt lat="43.7164251" lon="11.1223326"><ele>184.0</ele><time>2026-03-29T12:59:04.143Z</time></trkpt><trkpt lat="43.7165425" lon="11.122466"><ele>184.0</ele><time>2026-03-29T12:59:05.143Z</time></trkpt><trkpt lat="43.7166839" lon="11.1225969"><ele>186.66666666666669</ele><time>2026-03-29T12:59:06.143Z</time></trkpt><trkpt lat="43.7168274" lon="11.1227307"><ele>189.33333333333334</ele><time>2026-03-29T12:59:07.143Z</time></trkpt><trkpt lat="43.7169638" lon="11.1228705"><ele>192.0</ele><time>2026-03-29T12:59:08.143Z</time></trkpt><trkpt lat="43.7170921" lon="11.1230044"><ele>193.5</ele><time>2026-03-29T12:59:09.143Z</time></trkpt><trkpt lat="43.7172065" lon="11.1231211"><ele>195.0</ele><time>2026-03-29T12:59:10.143Z</time></trkpt><trkpt lat="43.7173114" lon="11.1232122"><ele>196.5</ele><time>2026-03-29T12:59:11.143Z</time></trkpt><trkpt lat="43.7174399" lon="11.1232522"><ele>198.0</ele><time>2026-03-29T12:59:12.143Z</time></trkpt><trkpt lat="43.7176011" lon="11.1232089"><ele>198.0</ele><time>2026-03-29T12:59:13.143Z</time></trkpt><trkpt lat="43.7177241" lon="11.123134"><ele>198.0</ele><time>2026-03-29T12:59:14.143Z</time></trkpt><trkpt lat="43.7178263" lon="11.1231204"><ele>198.0</ele><time>2026-03-29T12:59:15.143Z</time></trkpt><trkpt lat="43.7179007" lon="11.1231547"><ele>198.0</ele><time>2026-03-29T12:59:16.143Z</time></trkpt><trkpt lat="43.7179509" lon="11.123236"><ele>198.0</ele><time>2026-03-29T12:59:17.143Z</time></trkpt><trkpt lat="43.7179527" lon="11.1233656"><ele>202.0</ele><time>2026-03-29T12:59:18.143Z</time></trkpt><trkpt lat="43.7179304" lon="11.123515"><ele>206.0</ele><time>2026-03-29T12:59:19.142Z</time></trkpt><trkpt lat="43.7179319" lon="11.1236695"><ele>210.0</ele><time>2026-03-29T12:59:20.143Z</time></trkpt><trkpt lat="43.7179987" lon="11.1238077"><ele>214.0</ele><time>2026-03-29T12:59:21.143Z</time></trkpt><trkpt lat="43.7181206" lon="11.1239028"><ele>214.0</ele><time>2026-03-29T12:59:22.143Z</time></trkpt><trkpt lat="43.7182559" lon="11.1239906"><ele>214.0</ele><time>2026-03-29T12:59:23.143Z</time></trkpt><trkpt lat="43.7183946" lon="11.1240801"><ele>214.0</ele><time>2026-03-29T12:59:24.143Z</time></trkpt><trkpt lat="43.7185327" lon="11.1241873"><ele>221.0</ele><time>2026-03-29T12:59:25.143Z</time></trkpt><trkpt lat="43.7186677" lon="11.1243267"><ele>228.0</ele><time>2026-03-29T12:59:26.143Z</time></trkpt><trkpt lat="43.7188006" lon="11.1244799"><ele>235.0</ele><time>2026-03-29T12:59:27.143Z</time></trkpt><trkpt lat="43.7189262" lon="11.1246434"><ele>235.0</ele><time>2026-03-29T12:59:28.143Z</time></trkpt><trkpt lat="43.71905" lon="11.1247755"><ele>235.0</ele><time>2026-03-29T12:59:29.142Z</time></trkpt><trkpt lat="43.7191757" lon="11.1248614"><ele>235.0</ele><time>2026-03-29T12:59:30.143Z</time></trkpt><trkpt lat="43.7192923" lon="11.1249472"><ele>235.0</ele><time>2026-03-29T12:59:31.143Z</time></trkpt><trkpt lat="43.7194137" lon="11.1249894"><ele>239.25</ele><time>2026-03-29T12:59:32.143Z</time></trkpt><trkpt lat="43.7195272" lon="11.1250599"><ele>243.5</ele><time>2026-03-29T12:59:33.142Z</time></trkpt><trkpt lat="43.7195943" lon="11.125197"><ele>247.75</ele><time>2026-03-29T12:59:34.143Z</time></trkpt><trkpt lat="43.7196497" lon="11.1253692"><ele>252.0</ele><time>2026-03-29T12:59:35.143Z</time></trkpt><trkpt lat="43.7197066" lon="11.1255639"><ele>252.33333333333331</ele><time>2026-03-29T12:59:36.143Z</time></trkpt><trkpt lat="43.7197712" lon="11.1257638"><ele>252.66666666666666</ele><time>2026-03-29T12:59:37.143Z</time></trkpt><trkpt lat="43.7198507" lon="11.1259528"><ele>253.0</ele><time>2026-03-29T12:59:38.143Z</time></trkpt><trkpt lat="43.7199429" lon="11.1261463"><ele>253.0</ele><time>2026-03-29T12:59:39.143Z</time></trkpt><trkpt lat="43.7200403" lon="11.1263445"><ele>253.0</ele><time>2026-03-29T12:59:40.143Z</time></trkpt><trkpt lat="43.7201356" lon="11.1265383"><ele>253.0</ele><time>2026-03-29T12:59:41.143Z</time></trkpt><trkpt lat="43.7202279" lon="11.1267442"><ele>255.33333333333331</ele><time>2026-03-29T12:59:42.143Z</time></trkpt><trkpt lat="43.7203297" lon="11.1269474"><ele>257.6666666666667</ele><time>2026-03-29T12:59:43.143Z</time></trkpt><trkpt lat="43.7204598" lon="11.1271379"><ele>260.0</ele><time>2026-03-29T12:59:44.143Z</time></trkpt><trkpt lat="43.7206087" lon="11.1273127"><ele>261.33333333333337</ele><time>2026-03-29T12:59:45.143Z</time></trkpt><trkpt lat="43.7207714" lon="11.127476"><ele>262.6666666666667</ele><time>2026-03-29T12:59:46.143Z</time></trkpt><trkpt lat="43.7209348" lon="11.127637"><ele>264.0</ele><time>2026-03-29T12:59:47.143Z</time></trkpt><trkpt lat="43.7210862" lon="11.1277888"><ele>264.0</ele><time>2026-03-29T12:59:48.143Z</time></trkpt><trkpt lat="43.7212244" lon="11.1279319"><ele>264.0</ele><time>2026-03-29T12:59:49.143Z</time></trkpt><trkpt lat="43.7213464" lon="11.1280779"><ele>264.0</ele><time>2026-03-29T12:59:50.143Z</time></trkpt><trkpt lat="43.7214542" lon="11.1282516"><ele>268.0</ele><time>2026-03-29T12:59:51.143Z</time></trkpt><trkpt lat="43.721538" lon="11.1284456"><ele>272.0</ele><time>2026-03-29T12:59:52.143Z</time></trkpt><trkpt lat="43.7216177" lon="11.128647"><ele>276.0</ele><time>2026-03-29T12:59:53.143Z</time></trkpt><trkpt lat="43.7216995" lon="11.1288544"><ele>276.0</ele><time>2026-03-29T12:59:54.143Z</time></trkpt><trkpt lat="43.721784" lon="11.1290542"><ele>276.0</ele><time>2026-03-29T12:59:55.143Z</time></trkpt><trkpt lat="43.7218579" lon="11.129254"><ele>276.0</ele><time>2026-03-29T12:59:56.143Z</time></trkpt><trkpt lat="43.7218848" lon="11.1294544"><ele>277.3333333333333</ele><time>2026-03-29T12:59:57.143Z</time></trkpt><trkpt lat="43.7218508" lon="11.1296736"><ele>278.66666666666663</ele><time>2026-03-29T12:59:58.143Z</time></trkpt><trkpt lat="43.7217797" lon="11.1298675"><ele>280.0</ele><time>2026-03-29T12:59:59.143Z</time></trkpt><trkpt lat="43.7216746" lon="11.1300398"><ele>281.5</ele><time>2026-03-29T13:00:00.143Z</time></trkpt><trkpt lat="43.7215602" lon="11.1301958"><ele>283.0</ele><time>2026-03-29T13:00:01.143Z</time></trkpt><trkpt lat="43.721446" lon="11.1303333"><ele>284.5</ele><time>2026-03-29T13:00:02.143Z</time></trkpt><trkpt lat="43.721346" lon="11.1304532"><ele>286.0</ele><time>2026-03-29T13:00:03.143Z</time></trkpt><trkpt lat="43.7212683" lon="11.1305833"><ele>288.0</ele><time>2026-03-29T13:00:04.143Z</time></trkpt><trkpt lat="43.7212209" lon="11.1307447"><ele>290.0</ele><time>2026-03-29T13:00:05.143Z</time></trkpt><trkpt lat="43.7211948" lon="11.1309295"><ele>292.0</ele><time>2026-03-29T13:00:06.143Z</time></trkpt><trkpt lat="43.7211954" lon="11.1311692"><ele>294.0</ele><time>2026-03-29T13:00:07.143Z</time></trkpt><trkpt lat="43.7211756" lon="11.1314055"><ele>293.25</ele><time>2026-03-29T13:00:08.143Z</time></trkpt><trkpt lat="43.7211488" lon="11.1316322"><ele>292.5</ele><time>2026-03-29T13:00:09.143Z</time></trkpt><trkpt lat="43.7211121" lon="11.1318225"><ele>291.75</ele><time>2026-03-29T13:00:10.143Z</time></trkpt><trkpt lat="43.7210782" lon="11.131975"><ele>291.0</ele><time>2026-03-29T13:00:11.143Z</time></trkpt><trkpt lat="43.7210586" lon="11.132071"><ele>291.0</ele><time>2026-03-29T13:00:12.143Z</time></trkpt><trkpt lat="43.7210614" lon="11.132224"><ele>291.0</ele><time>2026-03-29T13:00:14.143Z</time></trkpt><trkpt lat="43.7210659" lon="11.1323193"><ele>291.0</ele><time>2026-03-29T13:00:15.143Z</time></trkpt><trkpt lat="43.7210863" lon="11.1324317"><ele>291.0</ele><time>2026-03-29T13:00:16.143Z</time></trkpt><trkpt lat="43.7211011" lon="11.1325416"><ele>291.0</ele><time>2026-03-29T13:00:17.143Z</time></trkpt><trkpt lat="43.721118" lon="11.1326684"><ele>291.0</ele><time>2026-03-29T13:00:18.143Z</time></trkpt><trkpt lat="43.7211382" lon="11.1327921"><ele>294.6</ele><time>2026-03-29T13:00:19.143Z</time></trkpt><trkpt lat="43.7211615" lon="11.1329162"><ele>298.20000000000005</ele><time>2026-03-29T13:00:20.143Z</time></trkpt><trkpt lat="43.7211794" lon="11.1330429"><ele>301.79999999999995</ele><time>2026-03-29T13:00:21.143Z</time></trkpt><trkpt lat="43.7211865" lon="11.1331864"><ele>305.4</ele><time>2026-03-29T13:00:22.143Z</time></trkpt><trkpt lat="43.7211975" lon="11.1333218"><ele>309.0</ele><time>2026-03-29T13:00:23.143Z</time></trkpt><trkpt lat="43.7212011" lon="11.1334542"><ele>311.4</ele><time>2026-03-29T13:00:24.143Z</time></trkpt><trkpt lat="43.721202" lon="11.1335796"><ele>313.79999999999995</ele><time>2026-03-29T13:00:25.143Z</time></trkpt><trkpt lat="43.721197" lon="11.1337003"><ele>316.20000000000005</ele><time>2026-03-29T13:00:26.143Z</time></trkpt><trkpt lat="43.7211885" lon="11.1337992"><ele>318.6</ele><time>2026-03-29T13:00:27.143Z</time></trkpt><trkpt lat="43.7211626" lon="11.1339398"><ele>321.0</ele><time>2026-03-29T13:00:29.143Z</time></trkpt><trkpt lat="43.721138" lon="11.1340676"><ele>322.5</ele><time>2026-03-29T13:00:31.143Z</time></trkpt><trkpt lat="43.7211154" lon="11.1342218"><ele>324.0</ele><time>2026-03-29T13:00:33.143Z</time></trkpt><trkpt lat="43.721102" lon="11.1343159"><ele>325.5</ele><time>2026-03-29T13:00:34.143Z</time></trkpt><trkpt lat="43.7210985" lon="11.1344089"><ele>327.0</ele><time>2026-03-29T13:00:35.143Z</time></trkpt><trkpt lat="43.7211104" lon="11.1345156"><ele>328.5</ele><time>2026-03-29T13:00:36.143Z</time></trkpt><trkpt lat="43.7211425" lon="11.1346272"><ele>330.0</ele><time>2026-03-29T13:00:37.143Z</time></trkpt><trkpt lat="43.7211774" lon="11.1347639"><ele>331.5</ele><time>2026-03-29T13:00:38.143Z</time></trkpt><trkpt lat="43.7212204" lon="11.1349314"><ele>333.0</ele><time>2026-03-29T13:00:39.143Z</time></trkpt><trkpt lat="43.7212633" lon="11.1350988"><ele>334.5</ele><time>2026-03-29T13:00:40.143Z</time></trkpt><trkpt lat="43.721303" lon="11.1352591"><ele>336.0</ele><time>2026-03-29T13:00:41.143Z</time></trkpt><trkpt lat="43.7213504" lon="11.1354224"><ele>336.0</ele><time>2026-03-29T13:00:42.143Z</time></trkpt><trkpt lat="43.7213918" lon="11.135578"><ele>336.0</ele><time>2026-03-29T13:00:43.143Z</time></trkpt><trkpt lat="43.7214295" lon="11.135737"><ele>336.0</ele><time>2026-03-29T13:00:44.143Z</time></trkpt><trkpt lat="43.7214736" lon="11.1358877"><ele>336.0</ele><time>2026-03-29T13:00:45.143Z</time></trkpt><trkpt lat="43.7215223" lon="11.1360422"><ele>335.5</ele><time>2026-03-29T13:00:46.143Z</time></trkpt><trkpt lat="43.7215552" lon="11.1361779"><ele>335.0</ele><time>2026-03-29T13:00:47.143Z</time></trkpt><trkpt lat="43.7215943" lon="11.1362891"><ele>334.5</ele><time>2026-03-29T13:00:48.143Z</time></trkpt><trkpt lat="43.7216259" lon="11.1363866"><ele>334.0</ele><time>2026-03-29T13:00:49.143Z</time></trkpt><trkpt lat="43.7216654" lon="11.1364674"><ele>333.5</ele><time>2026-03-29T13:00:50.143Z</time></trkpt><trkpt lat="43.7217027" lon="11.136548"><ele>333.0</ele><time>2026-03-29T13:00:51.143Z</time></trkpt><trkpt lat="43.7217864" lon="11.1366918"><ele>333.0</ele><time>2026-03-29T13:00:53.143Z</time></trkpt><trkpt lat="43.7218221" lon="11.1367744"><ele>333.0</ele><time>2026-03-29T13:00:54.143Z</time></trkpt><trkpt lat="43.7218488" lon="11.1368632"><ele>333.0</ele><time>2026-03-29T13:00:55.142Z</time></trkpt><trkpt lat="43.721869" lon="11.1369496"><ele>333.0</ele><time>2026-03-29T13:00:56.143Z</time></trkpt><trkpt lat="43.7219152" lon="11.1370306"><ele>333.0</ele><time>2026-03-29T13:00:57.143Z</time></trkpt><trkpt lat="43.7219785" lon="11.1370862"><ele>333.0</ele><time>2026-03-29T13:00:58.142Z</time></trkpt><trkpt lat="43.7220455" lon="11.137121"><ele>333.0</ele><time>2026-03-29T13:00:59.143Z</time></trkpt><trkpt lat="43.7221479" lon="11.1371271"><ele>335.8333333333333</ele><time>2026-03-29T13:01:01.143Z</time></trkpt><trkpt lat="43.7221993" lon="11.13706"><ele>338.6666666666667</ele><time>2026-03-29T13:01:03.143Z</time></trkpt><trkpt lat="43.7222906" lon="11.1370507"><ele>341.5</ele><time>2026-03-29T13:01:06.143Z</time></trkpt><trkpt lat="43.7223581" lon="11.1371352"><ele>344.33333333333337</ele><time>2026-03-29T13:01:08.143Z</time></trkpt><trkpt lat="43.7224473" lon="11.1372222"><ele>347.1666666666667</ele><time>2026-03-29T13:01:10.143Z</time></trkpt><trkpt lat="43.7225098" lon="11.1372811"><ele>350.0</ele><time>2026-03-29T13:01:11.143Z</time></trkpt><trkpt lat="43.7225745" lon="11.1373709"><ele>349.25</ele><time>2026-03-29T13:01:12.143Z</time></trkpt><trkpt lat="43.7226417" lon="11.1374919"><ele>348.5</ele><time>2026-03-29T13:01:13.143Z</time></trkpt><trkpt lat="43.7227041" lon="11.1376206"><ele>347.75</ele><time>2026-03-29T13:01:14.143Z</time></trkpt><trkpt lat="43.7227755" lon="11.1377511"><ele>347.0</ele><time>2026-03-29T13:01:15.143Z</time></trkpt><trkpt lat="43.7228452" lon="11.1378798"><ele>343.0</ele><time>2026-03-29T13:01:16.143Z</time></trkpt><trkpt lat="43.7229114" lon="11.1380081"><ele>339.0</ele><time>2026-03-29T13:01:17.143Z</time></trkpt><trkpt lat="43.7229675" lon="11.1381427"><ele>335.0</ele><time>2026-03-29T13:01:18.143Z</time></trkpt><trkpt lat="43.7229846" lon="11.1383173"><ele>331.0</ele><time>2026-03-29T13:01:19.143Z</time></trkpt><trkpt lat="43.7229591" lon="11.1385208"><ele>329.0</ele><time>2026-03-29T13:01:20.143Z</time></trkpt><trkpt lat="43.7229047" lon="11.1387276"><ele>327.0</ele><time>2026-03-29T13:01:21.143Z</time></trkpt><trkpt lat="43.7228386" lon="11.1389248"><ele>325.0</ele><time>2026-03-29T13:01:22.143Z</time></trkpt><trkpt lat="43.7227763" lon="11.1391062"><ele>328.25</ele><time>2026-03-29T13:01:23.143Z</time></trkpt><trkpt lat="43.7227077" lon="11.1392896"><ele>331.5</ele><time>2026-03-29T13:01:24.143Z</time></trkpt><trkpt lat="43.722634" lon="11.1394455"><ele>334.75</ele><time>2026-03-29T13:01:25.143Z</time></trkpt><trkpt lat="43.722585" lon="11.1395847"><ele>338.0</ele><time>2026-03-29T13:01:26.143Z</time></trkpt><trkpt lat="43.7225895" lon="11.139736"><ele>338.0</ele><time>2026-03-29T13:01:27.143Z</time></trkpt><trkpt lat="43.7226467" lon="11.139863"><ele>338.0</ele><time>2026-03-29T13:01:28.143Z</time></trkpt><trkpt lat="43.7227364" lon="11.139949"><ele>338.0</ele><time>2026-03-29T13:01:29.143Z</time></trkpt><trkpt lat="43.7228351" lon="11.1400299"><ele>338.0</ele><time>2026-03-29T13:01:30.143Z</time></trkpt><trkpt lat="43.722903" lon="11.1401438"><ele>338.0</ele><time>2026-03-29T13:01:31.143Z</time></trkpt><trkpt lat="43.7229193" lon="11.1402872"><ele>332.0</ele><time>2026-03-29T13:01:32.143Z</time></trkpt><trkpt lat="43.7228947" lon="11.1404445"><ele>326.0</ele><time>2026-03-29T13:01:33.143Z</time></trkpt><trkpt lat="43.7228508" lon="11.1406201"><ele>320.0</ele><time>2026-03-29T13:01:34.143Z</time></trkpt><trkpt lat="43.7227957" lon="11.1408189"><ele>314.0</ele><time>2026-03-29T13:01:35.142Z</time></trkpt><trkpt lat="43.7227517" lon="11.1410234"><ele>319.6666666666667</ele><time>2026-03-29T13:01:36.143Z</time></trkpt><trkpt lat="43.7227208" lon="11.1412435"><ele>325.3333333333333</ele><time>2026-03-29T13:01:37.143Z</time></trkpt><trkpt lat="43.7226914" lon="11.1414812"><ele>331.0</ele><time>2026-03-29T13:01:38.143Z</time></trkpt><trkpt lat="43.7226642" lon="11.1417163"><ele>331.3333333333333</ele><time>2026-03-29T13:01:39.143Z</time></trkpt><trkpt lat="43.7226464" lon="11.1419565"><ele>331.6666666666667</ele><time>2026-03-29T13:01:40.143Z</time></trkpt><trkpt lat="43.7226527" lon="11.1422097"><ele>332.0</ele><time>2026-03-29T13:01:41.143Z</time></trkpt><trkpt lat="43.7226876" lon="11.1424417"><ele>328.33333333333337</ele><time>2026-03-29T13:01:42.143Z</time></trkpt><trkpt lat="43.7227403" lon="11.1426419"><ele>324.6666666666667</ele><time>2026-03-29T13:01:43.143Z</time></trkpt><trkpt lat="43.7228315" lon="11.1428039"><ele>321.0</ele><time>2026-03-29T13:01:44.143Z</time></trkpt><trkpt lat="43.7229425" lon="11.1429519"><ele>321.0</ele><time>2026-03-29T13:01:45.143Z</time></trkpt><trkpt lat="43.7230727" lon="11.1431003"><ele>321.0</ele><time>2026-03-29T13:01:46.143Z</time></trkpt><trkpt lat="43.7231928" lon="11.1432504"><ele>321.0</ele><time>2026-03-29T13:01:47.143Z</time></trkpt><trkpt lat="43.7233006" lon="11.1433948"><ele>321.0</ele><time>2026-03-29T13:01:48.143Z</time></trkpt><trkpt lat="43.7233803" lon="11.1435273"><ele>321.0</ele><time>2026-03-29T13:01:49.142Z</time></trkpt><trkpt lat="43.7234179" lon="11.1436703"><ele>321.0</ele><time>2026-03-29T13:01:50.143Z</time></trkpt><trkpt lat="43.7234011" lon="11.1438662"><ele>321.0</ele><time>2026-03-29T13:01:51.143Z</time></trkpt><trkpt lat="43.7233524" lon="11.1440786"><ele>319.5</ele><time>2026-03-29T13:01:52.143Z</time></trkpt><trkpt lat="43.723302" lon="11.1442881"><ele>318.0</ele><time>2026-03-29T13:01:53.142Z</time></trkpt><trkpt lat="43.7232618" lon="11.1444681"><ele>316.5</ele><time>2026-03-29T13:01:54.143Z</time></trkpt><trkpt lat="43.7232229" lon="11.14465"><ele>315.0</ele><time>2026-03-29T13:01:55.143Z</time></trkpt><trkpt lat="43.7231864" lon="11.1448049"><ele>313.2</ele><time>2026-03-29T13:01:56.143Z</time></trkpt><trkpt lat="43.723154" lon="11.1449417"><ele>311.4</ele><time>2026-03-29T13:01:57.143Z</time></trkpt><trkpt lat="43.7231236" lon="11.1450738"><ele>309.6</ele><time>2026-03-29T13:01:58.143Z</time></trkpt><trkpt lat="43.7230979" lon="11.1452074"><ele>307.8</ele><time>2026-03-29T13:01:59.143Z</time></trkpt><trkpt lat="43.723101" lon="11.1453441"><ele>306.0</ele><time>2026-03-29T13:02:00.143Z</time></trkpt><trkpt lat="43.723116" lon="11.1454565"><ele>306.0</ele><time>2026-03-29T13:02:01.143Z</time></trkpt><trkpt lat="43.7231366" lon="11.1455435"><ele>306.0</ele><time>2026-03-29T13:02:02.143Z</time></trkpt><trkpt lat="43.7231725" lon="11.1456926"><ele>306.0</ele><time>2026-03-29T13:02:04.143Z</time></trkpt><trkpt lat="43.7232072" lon="11.1458084"><ele>306.0</ele><time>2026-03-29T13:02:05.143Z</time></trkpt><trkpt lat="43.7232517" lon="11.1459537"><ele>306.0</ele><time>2026-03-29T13:02:06.143Z</time></trkpt><trkpt lat="43.7233061" lon="11.1461158"><ele>304.25</ele><time>2026-03-29T13:02:07.143Z</time></trkpt><trkpt lat="43.7233779" lon="11.1462908"><ele>302.5</ele><time>2026-03-29T13:02:08.143Z</time></trkpt><trkpt lat="43.7234518" lon="11.1464685"><ele>300.75</ele><time>2026-03-29T13:02:09.143Z</time></trkpt><trkpt lat="43.7235245" lon="11.1466508"><ele>299.0</ele><time>2026-03-29T13:02:10.143Z</time></trkpt><trkpt lat="43.723593" lon="11.1468442"><ele>298.25</ele><time>2026-03-29T13:02:11.143Z</time></trkpt><trkpt lat="43.7236671" lon="11.147029"><ele>297.5</ele><time>2026-03-29T13:02:12.143Z</time></trkpt><trkpt lat="43.7237441" lon="11.1472106"><ele>296.75</ele><time>2026-03-29T13:02:13.143Z</time></trkpt><trkpt lat="43.7238281" lon="11.1473726"><ele>296.0</ele><time>2026-03-29T13:02:14.143Z</time></trkpt><trkpt lat="43.7238951" lon="11.1475525"><ele>298.5</ele><time>2026-03-29T13:02:15.143Z</time></trkpt><trkpt lat="43.7239411" lon="11.1477395"><ele>301.0</ele><time>2026-03-29T13:02:16.143Z</time></trkpt><trkpt lat="43.7239642" lon="11.1479397"><ele>303.5</ele><time>2026-03-29T13:02:17.143Z</time></trkpt><trkpt lat="43.72398" lon="11.1481359"><ele>306.0</ele><time>2026-03-29T13:02:18.143Z</time></trkpt><trkpt lat="43.7240051" lon="11.1483025"><ele>308.3333333333333</ele><time>2026-03-29T13:02:19.143Z</time></trkpt><trkpt lat="43.7240438" lon="11.1484738"><ele>310.66666666666663</ele><time>2026-03-29T13:02:20.143Z</time></trkpt><trkpt lat="43.7240443" lon="11.1486776"><ele>313.0</ele><time>2026-03-29T13:02:21.143Z</time></trkpt><trkpt lat="43.724015" lon="11.1489207"><ele>314.3333333333333</ele><time>2026-03-29T13:02:22.143Z</time></trkpt><trkpt lat="43.7240242" lon="11.1491539"><ele>315.6666666666667</ele><time>2026-03-29T13:02:23.143Z</time></trkpt><trkpt lat="43.7240712" lon="11.1493646"><ele>317.0</ele><time>2026-03-29T13:02:24.143Z</time></trkpt><trkpt lat="43.7240935" lon="11.1495745"><ele>317.0</ele><time>2026-03-29T13:02:25.143Z</time></trkpt><trkpt lat="43.724086" lon="11.14977"><ele>317.0</ele><time>2026-03-29T13:02:26.143Z</time></trkpt><trkpt lat="43.7240651" lon="11.1499787"><ele>317.0</ele><time>2026-03-29T13:02:27.143Z</time></trkpt><trkpt lat="43.7240112" lon="11.1501759"><ele>317.0</ele><time>2026-03-29T13:02:28.143Z</time></trkpt><trkpt lat="43.7239273" lon="11.1503816"><ele>317.33333333333337</ele><time>2026-03-29T13:02:29.143Z</time></trkpt><trkpt lat="43.7238314" lon="11.1505976"><ele>317.6666666666667</ele><time>2026-03-29T13:02:30.143Z</time></trkpt><trkpt lat="43.7237327" lon="11.150804"><ele>318.0</ele><time>2026-03-29T13:02:31.143Z</time></trkpt><trkpt lat="43.7236349" lon="11.1509979"><ele>319.0</ele><time>2026-03-29T13:02:32.143Z</time></trkpt><trkpt lat="43.7235433" lon="11.151155"><ele>320.0</ele><time>2026-03-29T13:02:33.143Z</time></trkpt><trkpt lat="43.7234782" lon="11.1512913"><ele>321.0</ele><time>2026-03-29T13:02:34.143Z</time></trkpt><trkpt lat="43.723448" lon="11.1514281"><ele>322.0</ele><time>2026-03-29T13:02:35.143Z</time></trkpt><trkpt lat="43.7234563" lon="11.1516027"><ele>322.0</ele><time>2026-03-29T13:02:36.143Z</time></trkpt><trkpt lat="43.7234803" lon="11.1517925"><ele>322.0</ele><time>2026-03-29T13:02:37.143Z</time></trkpt><trkpt lat="43.7234991" lon="11.151963"><ele>322.0</ele><time>2026-03-29T13:02:38.143Z</time></trkpt><trkpt lat="43.7235155" lon="11.152124"><ele>322.0</ele><time>2026-03-29T13:02:39.143Z</time></trkpt><trkpt lat="43.7235352" lon="11.152243"><ele>322.0</ele><time>2026-03-29T13:02:40.143Z</time></trkpt><trkpt lat="43.7235598" lon="11.1523453"><ele>322.0</ele><time>2026-03-29T13:02:41.143Z</time></trkpt><trkpt lat="43.7235772" lon="11.1524604"><ele>322.0</ele><time>2026-03-29T13:02:42.143Z</time></trkpt><trkpt lat="43.7235812" lon="11.1526243"><ele>322.0</ele><time>2026-03-29T13:02:43.143Z</time></trkpt><trkpt lat="43.7235708" lon="11.152807"><ele>322.0</ele><time>2026-03-29T13:02:44.143Z</time></trkpt><trkpt lat="43.7235599" lon="11.153007"><ele>324.3333333333333</ele><time>2026-03-29T13:02:45.143Z</time></trkpt><trkpt lat="43.7235626" lon="11.1532148"><ele>326.6666666666667</ele><time>2026-03-29T13:02:46.143Z</time></trkpt><trkpt lat="43.7235792" lon="11.1534468"><ele>329.0</ele><time>2026-03-29T13:02:47.143Z</time></trkpt><trkpt lat="43.7235976" lon="11.1536742"><ele>323.0</ele><time>2026-03-29T13:02:48.143Z</time></trkpt><trkpt lat="43.7236179" lon="11.1539066"><ele>317.0</ele><time>2026-03-29T13:02:49.143Z</time></trkpt><trkpt lat="43.7236404" lon="11.1541416"><ele>311.0</ele><time>2026-03-29T13:02:50.143Z</time></trkpt><trkpt lat="43.7236622" lon="11.1543795"><ele>309.0</ele><time>2026-03-29T13:02:51.143Z</time></trkpt><trkpt lat="43.7236735" lon="11.154609"><ele>307.0</ele><time>2026-03-29T13:02:52.143Z</time></trkpt><trkpt lat="43.7236703" lon="11.1548198"><ele>305.0</ele><time>2026-03-29T13:02:53.142Z</time></trkpt><trkpt lat="43.7236645" lon="11.154967"><ele>303.0</ele><time>2026-03-29T13:02:54.143Z</time></trkpt><trkpt lat="43.7236644" lon="11.1550805"><ele>303.0</ele><time>2026-03-29T13:02:55.143Z</time></trkpt><trkpt lat="43.7236495" lon="11.1552087"><ele>303.0</ele><time>2026-03-29T13:02:57.143Z</time></trkpt><trkpt lat="43.7236142" lon="11.1552904"><ele>303.0</ele><time>2026-03-29T13:03:00.143Z</time></trkpt><trkpt lat="43.7236825" lon="11.1552671"><ele>303.0</ele><time>2026-03-29T13:03:05.143Z</time></trkpt><trkpt lat="43.723687" lon="11.155147"><ele>303.0</ele><time>2026-03-29T13:03:06.143Z</time></trkpt><trkpt lat="43.7236792" lon="11.1550015"><ele>303.0</ele><time>2026-03-29T13:03:07.143Z</time></trkpt><trkpt lat="43.7236806" lon="11.1548353"><ele>303.0</ele><time>2026-03-29T13:03:08.143Z</time></trkpt><trkpt lat="43.7236859" lon="11.1546569"><ele>303.0</ele><time>2026-03-29T13:03:09.143Z</time></trkpt><trkpt lat="43.7236783" lon="11.1544621"><ele>303.0</ele><time>2026-03-29T13:03:10.143Z</time></trkpt><trkpt lat="43.7236751" lon="11.1542691"><ele>303.0</ele><time>2026-03-29T13:03:11.143Z</time></trkpt><trkpt lat="43.7236708" lon="11.1540663"><ele>305.6666666666667</ele><time>2026-03-29T13:03:12.143Z</time></trkpt><trkpt lat="43.7236576" lon="11.1538379"><ele>308.33333333333337</ele><time>2026-03-29T13:03:13.143Z</time></trkpt><trkpt lat="43.7236368" lon="11.1536244"><ele>311.0</ele><time>2026-03-29T13:03:14.143Z</time></trkpt><trkpt lat="43.7236079" lon="11.1533975"><ele>313.5</ele><time>2026-03-29T13:03:15.143Z</time></trkpt><trkpt lat="43.7235909" lon="11.1531623"><ele>316.0</ele><time>2026-03-29T13:03:16.143Z</time></trkpt><trkpt lat="43.7235845" lon="11.1529531"><ele>318.5</ele><time>2026-03-29T13:03:17.143Z</time></trkpt><trkpt lat="43.7235835" lon="11.1527832"><ele>321.0</ele><time>2026-03-29T13:03:18.143Z</time></trkpt><trkpt lat="43.7235833" lon="11.1526429"><ele>321.0</ele><time>2026-03-29T13:03:19.143Z</time></trkpt><trkpt lat="43.7235879" lon="11.1525267"><ele>321.0</ele><time>2026-03-29T13:03:20.143Z</time></trkpt><trkpt lat="43.7235841" lon="11.1524007"><ele>321.0</ele><time>2026-03-29T13:03:22.143Z</time></trkpt><trkpt lat="43.7235873" lon="11.1523117"><ele>321.0</ele><time>2026-03-29T13:03:25.143Z</time></trkpt><trkpt lat="43.7235775" lon="11.1524138"><ele>321.0</ele><time>2026-03-29T13:03:29.143Z</time></trkpt><trkpt lat="43.7235544" lon="11.1525272"><ele>321.0</ele><time>2026-03-29T13:03:31.143Z</time></trkpt><trkpt lat="43.7235045" lon="11.1525825"><ele>322.3333333333333</ele><time>2026-03-29T13:03:33.142Z</time></trkpt><trkpt lat="43.7234314" lon="11.1525731"><ele>323.6666666666667</ele><time>2026-03-29T13:03:35.143Z</time></trkpt><trkpt lat="43.7233569" lon="11.1525634"><ele>325.0</ele><time>2026-03-29T13:03:37.143Z</time></trkpt><trkpt lat="43.7232699" lon="11.1525415"><ele>326.33333333333337</ele><time>2026-03-29T13:03:39.143Z</time></trkpt><trkpt lat="43.7232026" lon="11.1525413"><ele>327.6666666666667</ele><time>2026-03-29T13:03:41.143Z</time></trkpt><trkpt lat="43.7231003" lon="11.1525588"><ele>329.0</ele><time>2026-03-29T13:03:44.143Z</time></trkpt><trkpt lat="43.7230352" lon="11.1525771"><ele>329.0</ele><time>2026-03-29T13:03:45.143Z</time></trkpt><trkpt lat="43.7229631" lon="11.1525836"><ele>329.0</ele><time>2026-03-29T13:03:46.143Z</time></trkpt><trkpt lat="43.7228638" lon="11.1526057"><ele>329.0</ele><time>2026-03-29T13:03:48.143Z</time></trkpt><trkpt lat="43.7227832" lon="11.1526136"><ele>329.0</ele><time>2026-03-29T13:03:50.143Z</time></trkpt><trkpt lat="43.7226975" lon="11.1526082"><ele>329.0</ele><time>2026-03-29T13:03:52.143Z</time></trkpt><trkpt lat="43.7226412" lon="11.1525124"><ele>329.0</ele><time>2026-03-29T13:03:54.143Z</time></trkpt><trkpt lat="43.7225725" lon="11.1524496"><ele>328.83333333333337</ele><time>2026-03-29T13:03:56.143Z</time></trkpt><trkpt lat="43.7224962" lon="11.1524409"><ele>328.6666666666667</ele><time>2026-03-29T13:03:58.143Z</time></trkpt><trkpt lat="43.7223706" lon="11.1524446"><ele>328.5</ele><time>2026-03-29T13:04:00.143Z</time></trkpt><trkpt lat="43.7222968" lon="11.1524346"><ele>328.3333333333333</ele><time>2026-03-29T13:04:01.143Z</time></trkpt><trkpt lat="43.7222266" lon="11.1524391"><ele>328.16666666666663</ele><time>2026-03-29T13:04:02.143Z</time></trkpt><trkpt lat="43.7221516" lon="11.1524379"><ele>328.0</ele><time>2026-03-29T13:04:03.143Z</time></trkpt><trkpt lat="43.7220767" lon="11.152437"><ele>328.0</ele><time>2026-03-29T13:04:04.143Z</time></trkpt><trkpt lat="43.7220139" lon="11.1524272"><ele>328.0</ele><time>2026-03-29T13:04:05.142Z</time></trkpt><trkpt lat="43.721898" lon="11.1523922"><ele>328.0</ele><time>2026-03-29T13:04:07.143Z</time></trkpt><trkpt lat="43.7218386" lon="11.1523628"><ele>328.0</ele><time>2026-03-29T13:04:08.142Z</time></trkpt><trkpt lat="43.7217274" lon="11.1523366"><ele>328.0</ele><time>2026-03-29T13:04:10.143Z</time></trkpt><trkpt lat="43.7216229" lon="11.1523507"><ele>328.0</ele><time>2026-03-29T13:04:12.142Z</time></trkpt><trkpt lat="43.7215148" lon="11.1524217"><ele>328.0</ele><time>2026-03-29T13:04:14.143Z</time></trkpt><trkpt lat="43.7213996" lon="11.1524574"><ele>328.0</ele><time>2026-03-29T13:04:16.143Z</time></trkpt><trkpt lat="43.7213052" lon="11.1524885"><ele>328.0</ele><time>2026-03-29T13:04:18.143Z</time></trkpt><trkpt lat="43.7211959" lon="11.1525354"><ele>328.0</ele><time>2026-03-29T13:04:20.142Z</time></trkpt><trkpt lat="43.7211253" lon="11.1525623"><ele>326.8333333333333</ele><time>2026-03-29T13:04:21.143Z</time></trkpt><trkpt lat="43.721054" lon="11.1525976"><ele>325.66666666666663</ele><time>2026-03-29T13:04:22.143Z</time></trkpt><trkpt lat="43.7209848" lon="11.1526402"><ele>324.5</ele><time>2026-03-29T13:04:23.143Z</time></trkpt><trkpt lat="43.7209115" lon="11.1526829"><ele>323.3333333333333</ele><time>2026-03-29T13:04:24.143Z</time></trkpt><trkpt lat="43.7208433" lon="11.152723"><ele>322.1666666666667</ele><time>2026-03-29T13:04:25.143Z</time></trkpt><trkpt lat="43.7207681" lon="11.1527641"><ele>321.0</ele><time>2026-03-29T13:04:26.143Z</time></trkpt><trkpt lat="43.7207057" lon="11.1528134"><ele>321.0</ele><time>2026-03-29T13:04:27.143Z</time></trkpt><trkpt lat="43.720628" lon="11.1528534"><ele>321.0</ele><time>2026-03-29T13:04:28.143Z</time></trkpt><trkpt lat="43.7205538" lon="11.1529018"><ele>321.0</ele><time>2026-03-29T13:04:29.143Z</time></trkpt><trkpt lat="43.7204811" lon="11.1529501"><ele>321.0</ele><time>2026-03-29T13:04:30.143Z</time></trkpt><trkpt lat="43.7203891" lon="11.1530287"><ele>321.0</ele><time>2026-03-29T13:04:32.143Z</time></trkpt><trkpt lat="43.7203312" lon="11.1530707"><ele>321.0</ele><time>2026-03-29T13:04:34.143Z</time></trkpt><trkpt lat="43.7202373" lon="11.1530459"><ele>319.25</ele><time>2026-03-29T13:04:36.143Z</time></trkpt><trkpt lat="43.7201313" lon="11.1530128"><ele>317.5</ele><time>2026-03-29T13:04:37.143Z</time></trkpt><trkpt lat="43.7200034" lon="11.1529991"><ele>315.75</ele><time>2026-03-29T13:04:38.143Z</time></trkpt><trkpt lat="43.719863" lon="11.1529973"><ele>314.0</ele><time>2026-03-29T13:04:39.143Z</time></trkpt><trkpt lat="43.719723" lon="11.1529664"><ele>314.0</ele><time>2026-03-29T13:04:40.143Z</time></trkpt><trkpt lat="43.7195929" lon="11.1529283"><ele>314.0</ele><time>2026-03-29T13:04:41.143Z</time></trkpt><trkpt lat="43.7194679" lon="11.1528813"><ele>314.0</ele><time>2026-03-29T13:04:42.143Z</time></trkpt><trkpt lat="43.7193538" lon="11.1528314"><ele>314.0</ele><time>2026-03-29T13:04:43.143Z</time></trkpt><trkpt lat="43.7192318" lon="11.1527971"><ele>314.0</ele><time>2026-03-29T13:04:44.143Z</time></trkpt><trkpt lat="43.719117" lon="11.1527631"><ele>314.0</ele><time>2026-03-29T13:04:45.143Z</time></trkpt><trkpt lat="43.7190171" lon="11.1527198"><ele>314.0</ele><time>2026-03-29T13:04:46.143Z</time></trkpt><trkpt lat="43.7189242" lon="11.1526706"><ele>314.0</ele><time>2026-03-29T13:04:47.143Z</time></trkpt><trkpt lat="43.718818" lon="11.1526531"><ele>314.0</ele><time>2026-03-29T13:04:48.143Z</time></trkpt><trkpt lat="43.718686" lon="11.1526723"><ele>314.0</ele><time>2026-03-29T13:04:49.143Z</time></trkpt><trkpt lat="43.7185606" lon="11.1527047"><ele>314.0</ele><time>2026-03-29T13:04:50.143Z</time></trkpt><trkpt lat="43.7184487" lon="11.1527258"><ele>314.0</ele><time>2026-03-29T13:04:51.143Z</time></trkpt><trkpt lat="43.7183451" lon="11.1527416"><ele>314.0</ele><time>2026-03-29T13:04:52.143Z</time></trkpt><trkpt lat="43.7182545" lon="11.1527926"><ele>314.0</ele><time>2026-03-29T13:04:53.143Z</time></trkpt><trkpt lat="43.7181915" lon="11.152912"><ele>314.0</ele><time>2026-03-29T13:04:54.143Z</time></trkpt><trkpt lat="43.7181441" lon="11.1530286"><ele>314.0</ele><time>2026-03-29T13:04:55.143Z</time></trkpt><trkpt lat="43.7180826" lon="11.153119"><ele>314.0</ele><time>2026-03-29T13:04:56.143Z</time></trkpt><trkpt lat="43.7179829" lon="11.1531787"><ele>314.0</ele><time>2026-03-29T13:04:57.143Z</time></trkpt><trkpt lat="43.7178537" lon="11.1531666"><ele>314.0</ele><time>2026-03-29T13:04:58.143Z</time></trkpt><trkpt lat="43.717701" lon="11.1530814"><ele>313.25</ele><time>2026-03-29T13:04:59.143Z</time></trkpt><trkpt lat="43.7175725" lon="11.1530063"><ele>312.5</ele><time>2026-03-29T13:05:00.143Z</time></trkpt><trkpt lat="43.7174526" lon="11.1529606"><ele>311.75</ele><time>2026-03-29T13:05:01.143Z</time></trkpt><trkpt lat="43.7173346" lon="11.1529632"><ele>311.0</ele><time>2026-03-29T13:05:02.143Z</time></trkpt><trkpt lat="43.7172027" lon="11.1529911"><ele>311.0</ele><time>2026-03-29T13:05:03.143Z</time></trkpt><trkpt lat="43.7170576" lon="11.1529226"><ele>311.0</ele><time>2026-03-29T13:05:04.143Z</time></trkpt><trkpt lat="43.7169123" lon="11.1528368"><ele>311.0</ele><time>2026-03-29T13:05:05.143Z</time></trkpt><trkpt lat="43.7167821" lon="11.1527397"><ele>314.5</ele><time>2026-03-29T13:05:06.143Z</time></trkpt><trkpt lat="43.7166709" lon="11.1526392"><ele>318.0</ele><time>2026-03-29T13:05:07.144Z</time></trkpt><trkpt lat="43.7165758" lon="11.1525484"><ele>321.5</ele><time>2026-03-29T13:05:08.144Z</time></trkpt><trkpt lat="43.7164814" lon="11.1524784"><ele>325.0</ele><time>2026-03-29T13:05:09.144Z</time></trkpt><trkpt lat="43.7163597" lon="11.1524803"><ele>325.0</ele><time>2026-03-29T13:05:10.144Z</time></trkpt><trkpt lat="43.7162177" lon="11.1525166"><ele>325.0</ele><time>2026-03-29T13:05:11.144Z</time></trkpt><trkpt lat="43.7160853" lon="11.1525402"><ele>325.0</ele><time>2026-03-29T13:05:12.144Z</time></trkpt><trkpt lat="43.7159597" lon="11.1525393"><ele>325.0</ele><time>2026-03-29T13:05:13.144Z</time></trkpt><trkpt lat="43.7158496" lon="11.1525441"><ele>326.6</ele><time>2026-03-29T13:05:14.144Z</time></trkpt><trkpt lat="43.7157162" lon="11.1525672"><ele>328.2</ele><time>2026-03-29T13:05:16.144Z</time></trkpt><trkpt lat="43.7156286" lon="11.1525891"><ele>329.79999999999995</ele><time>2026-03-29T13:05:17.144Z</time></trkpt><trkpt lat="43.7155531" lon="11.152656"><ele>331.4</ele><time>2026-03-29T13:05:18.144Z</time></trkpt><trkpt lat="43.7155056" lon="11.152772"><ele>333.0</ele><time>2026-03-29T13:05:19.144Z</time></trkpt><trkpt lat="43.7154847" lon="11.152917"><ele>333.0</ele><time>2026-03-29T13:05:20.144Z</time></trkpt><trkpt lat="43.7154518" lon="11.1530471"><ele>333.0</ele><time>2026-03-29T13:05:21.144Z</time></trkpt><trkpt lat="43.7153687" lon="11.1531489"><ele>333.0</ele><time>2026-03-29T13:05:22.144Z</time></trkpt><trkpt lat="43.7152441" lon="11.153219"><ele>333.0</ele><time>2026-03-29T13:05:23.144Z</time></trkpt><trkpt lat="43.7151121" lon="11.1533013"><ele>332.5</ele><time>2026-03-29T13:05:24.144Z</time></trkpt><trkpt lat="43.7149809" lon="11.1533733"><ele>332.0</ele><time>2026-03-29T13:05:25.144Z</time></trkpt><trkpt lat="43.7148511" lon="11.1534397"><ele>331.5</ele><time>2026-03-29T13:05:26.144Z</time></trkpt><trkpt lat="43.7147374" lon="11.1534902"><ele>331.0</ele><time>2026-03-29T13:05:27.144Z</time></trkpt><trkpt lat="43.7146441" lon="11.1535237"><ele>331.0</ele><time>2026-03-29T13:05:28.144Z</time></trkpt><trkpt lat="43.7145636" lon="11.1535376"><ele>331.0</ele><time>2026-03-29T13:05:29.144Z</time></trkpt><trkpt lat="43.7144929" lon="11.1535291"><ele>331.0</ele><time>2026-03-29T13:05:30.144Z</time></trkpt><trkpt lat="43.7143949" lon="11.1535156"><ele>331.0</ele><time>2026-03-29T13:05:32.144Z</time></trkpt><trkpt lat="43.7143166" lon="11.1535984"><ele>331.0</ele><time>2026-03-29T13:05:34.144Z</time></trkpt><trkpt lat="43.714298" lon="11.153686"><ele>331.0</ele><time>2026-03-29T13:05:35.144Z</time></trkpt><trkpt lat="43.7142805" lon="11.1537991"><ele>328.2</ele><time>2026-03-29T13:05:36.144Z</time></trkpt><trkpt lat="43.7142703" lon="11.1539379"><ele>325.40000000000003</ele><time>2026-03-29T13:05:37.144Z</time></trkpt><trkpt lat="43.7142541" lon="11.1540886"><ele>322.6</ele><time>2026-03-29T13:05:38.144Z</time></trkpt><trkpt lat="43.7142352" lon="11.1542474"><ele>319.8</ele><time>2026-03-29T13:05:39.144Z</time></trkpt><trkpt lat="43.7142164" lon="11.154398"><ele>317.0</ele><time>2026-03-29T13:05:40.144Z</time></trkpt><trkpt lat="43.7141979" lon="11.1545371"><ele>317.0</ele><time>2026-03-29T13:05:41.144Z</time></trkpt><trkpt lat="43.7141752" lon="11.1546653"><ele>317.0</ele><time>2026-03-29T13:05:42.144Z</time></trkpt><trkpt lat="43.7141508" lon="11.1547858"><ele>317.0</ele><time>2026-03-29T13:05:43.144Z</time></trkpt><trkpt lat="43.714131" lon="11.154908"><ele>317.0</ele><time>2026-03-29T13:05:44.144Z</time></trkpt><trkpt lat="43.714122" lon="11.1550292"><ele>317.0</ele><time>2026-03-29T13:05:45.144Z</time></trkpt><trkpt lat="43.71414" lon="11.1551577"><ele>317.0</ele><time>2026-03-29T13:05:46.144Z</time></trkpt><trkpt lat="43.7141808" lon="11.1552833"><ele>317.0</ele><time>2026-03-29T13:05:47.144Z</time></trkpt><trkpt lat="43.7142163" lon="11.1554037"><ele>317.0</ele><time>2026-03-29T13:05:48.144Z</time></trkpt><trkpt lat="43.7142419" lon="11.15551"><ele>317.0</ele><time>2026-03-29T13:05:49.144Z</time></trkpt><trkpt lat="43.7142404" lon="11.1556292"><ele>317.0</ele><time>2026-03-29T13:05:50.144Z</time></trkpt><trkpt lat="43.7142076" lon="11.1557447"><ele>317.0</ele><time>2026-03-29T13:05:51.144Z</time></trkpt><trkpt lat="43.714153" lon="11.1558795"><ele>317.0</ele><time>2026-03-29T13:05:52.144Z</time></trkpt><trkpt lat="43.7140757" lon="11.156026"><ele>317.0</ele><time>2026-03-29T13:05:53.144Z</time></trkpt><trkpt lat="43.7140001" lon="11.1561993"><ele>317.0</ele><time>2026-03-29T13:05:54.144Z</time></trkpt><trkpt lat="43.7139182" lon="11.1563848"><ele>319.25</ele><time>2026-03-29T13:05:55.144Z</time></trkpt><trkpt lat="43.7138379" lon="11.1565651"><ele>321.5</ele><time>2026-03-29T13:05:56.144Z</time></trkpt><trkpt lat="43.7137545" lon="11.1567324"><ele>323.75</ele><time>2026-03-29T13:05:57.144Z</time></trkpt><trkpt lat="43.7136807" lon="11.1568948"><ele>326.0</ele><time>2026-03-29T13:05:58.144Z</time></trkpt><trkpt lat="43.7136121" lon="11.1570568"><ele>322.6</ele><time>2026-03-29T13:05:59.143Z</time></trkpt><trkpt lat="43.7135498" lon="11.1572088"><ele>319.20000000000005</ele><time>2026-03-29T13:06:00.144Z</time></trkpt><trkpt lat="43.7134935" lon="11.1573558"><ele>315.79999999999995</ele><time>2026-03-29T13:06:01.144Z</time></trkpt><trkpt lat="43.71345" lon="11.1574651"><ele>312.4</ele><time>2026-03-29T13:06:02.144Z</time></trkpt><trkpt lat="43.7134136" lon="11.157554"><ele>309.0</ele><time>2026-03-29T13:06:03.144Z</time></trkpt><trkpt lat="43.7133632" lon="11.1576357"><ele>309.0</ele><time>2026-03-29T13:06:05.144Z</time></trkpt><trkpt lat="43.7133141" lon="11.1577232"><ele>309.0</ele><time>2026-03-29T13:11:36.144Z</time></trkpt><trkpt lat="43.7132886" lon="11.15781"><ele>309.0</ele><time>2026-03-29T13:11:37.144Z</time></trkpt><trkpt lat="43.7132509" lon="11.1579092"><ele>309.0</ele><time>2026-03-29T13:11:38.144Z</time></trkpt><trkpt lat="43.7131867" lon="11.1580183"><ele>309.0</ele><time>2026-03-29T13:11:39.144Z</time></trkpt><trkpt lat="43.7131057" lon="11.158124"><ele>309.0</ele><time>2026-03-29T13:11:40.144Z</time></trkpt><trkpt lat="43.7130015" lon="11.1582221"><ele>307.5</ele><time>2026-03-29T13:11:41.144Z</time></trkpt><trkpt lat="43.7129003" lon="11.1583203"><ele>306.0</ele><time>2026-03-29T13:11:42.144Z</time></trkpt><trkpt lat="43.7128099" lon="11.1584063"><ele>304.5</ele><time>2026-03-29T13:11:43.144Z</time></trkpt><trkpt lat="43.7127172" lon="11.1585131"><ele>303.0</ele><time>2026-03-29T13:11:44.144Z</time></trkpt><trkpt lat="43.712625" lon="11.1586143"><ele>303.0</ele><time>2026-03-29T13:11:45.144Z</time></trkpt><trkpt lat="43.712543" lon="11.1587297"><ele>303.0</ele><time>2026-03-29T13:11:46.144Z</time></trkpt><trkpt lat="43.7124784" lon="11.1588269"><ele>303.0</ele><time>2026-03-29T13:11:47.143Z</time></trkpt><trkpt lat="43.7124231" lon="11.1589288"><ele>303.0</ele><time>2026-03-29T13:11:48.143Z</time></trkpt><trkpt lat="43.7123773" lon="11.1590546"><ele>303.0</ele><time>2026-03-29T13:11:49.144Z</time></trkpt><trkpt lat="43.7123343" lon="11.1592011"><ele>306.5</ele><time>2026-03-29T13:11:50.144Z</time></trkpt><trkpt lat="43.7122912" lon="11.1593562"><ele>310.0</ele><time>2026-03-29T13:11:51.144Z</time></trkpt><trkpt lat="43.7122466" lon="11.1595144"><ele>313.5</ele><time>2026-03-29T13:11:52.144Z</time></trkpt><trkpt lat="43.7122041" lon="11.1596974"><ele>317.0</ele><time>2026-03-29T13:11:53.144Z</time></trkpt><trkpt lat="43.7121626" lon="11.1598531"><ele>318.8</ele><time>2026-03-29T13:11:54.144Z</time></trkpt><trkpt lat="43.7121267" lon="11.1599788"><ele>320.6</ele><time>2026-03-29T13:11:55.144Z</time></trkpt><trkpt lat="43.7120821" lon="11.160084"><ele>322.40000000000003</ele><time>2026-03-29T13:11:56.144Z</time></trkpt><trkpt lat="43.7120187" lon="11.1601751"><ele>324.2</ele><time>2026-03-29T13:11:57.144Z</time></trkpt><trkpt lat="43.7119355" lon="11.1602364"><ele>326.0</ele><time>2026-03-29T13:11:58.144Z</time></trkpt><trkpt lat="43.711834" lon="11.1602745"><ele>321.1666666666667</ele><time>2026-03-29T13:11:59.144Z</time></trkpt><trkpt lat="43.7117287" lon="11.1603205"><ele>316.33333333333337</ele><time>2026-03-29T13:12:00.143Z</time></trkpt><trkpt lat="43.7116392" lon="11.1603575"><ele>311.5</ele><time>2026-03-29T13:12:01.144Z</time></trkpt><trkpt lat="43.7115693" lon="11.160398"><ele>306.6666666666667</ele><time>2026-03-29T13:12:02.144Z</time></trkpt><trkpt lat="43.711503" lon="11.1604593"><ele>301.8333333333333</ele><time>2026-03-29T13:12:03.144Z</time></trkpt><trkpt lat="43.7114577" lon="11.1605446"><ele>297.0</ele><time>2026-03-29T13:12:04.144Z</time></trkpt><trkpt lat="43.7114294" lon="11.1606969"><ele>300.0</ele><time>2026-03-29T13:12:05.144Z</time></trkpt><trkpt lat="43.7114039" lon="11.1608835"><ele>303.0</ele><time>2026-03-29T13:12:06.144Z</time></trkpt><trkpt lat="43.7113656" lon="11.1610488"><ele>306.0</ele><time>2026-03-29T13:12:07.144Z</time></trkpt><trkpt lat="43.7113279" lon="11.1612358"><ele>309.0</ele><time>2026-03-29T13:12:08.144Z</time></trkpt><trkpt lat="43.7113049" lon="11.1614284"><ele>311.25</ele><time>2026-03-29T13:12:09.144Z</time></trkpt><trkpt lat="43.7112989" lon="11.161618"><ele>313.5</ele><time>2026-03-29T13:12:10.144Z</time></trkpt><trkpt lat="43.7112928" lon="11.1618053"><ele>315.75</ele><time>2026-03-29T13:12:11.144Z</time></trkpt><trkpt lat="43.7112872" lon="11.1620007"><ele>318.0</ele><time>2026-03-29T13:12:12.144Z</time></trkpt><trkpt lat="43.7112813" lon="11.162174"><ele>318.0</ele><time>2026-03-29T13:12:13.144Z</time></trkpt><trkpt lat="43.7112787" lon="11.1623399"><ele>318.0</ele><time>2026-03-29T13:12:14.144Z</time></trkpt><trkpt lat="43.7112829" lon="11.1625014"><ele>318.0</ele><time>2026-03-29T13:12:15.144Z</time></trkpt><trkpt lat="43.7113059" lon="11.1626532"><ele>318.0</ele><time>2026-03-29T13:12:16.143Z</time></trkpt><trkpt lat="43.7113466" lon="11.1627888"><ele>317.6</ele><time>2026-03-29T13:12:17.144Z</time></trkpt><trkpt lat="43.7113914" lon="11.1629076"><ele>317.20000000000005</ele><time>2026-03-29T13:12:18.144Z</time></trkpt><trkpt lat="43.7114617" lon="11.1630044"><ele>316.8</ele><time>2026-03-29T13:12:19.143Z</time></trkpt><trkpt lat="43.7115432" lon="11.1630621"><ele>316.40000000000003</ele><time>2026-03-29T13:12:20.144Z</time></trkpt><trkpt lat="43.7116415" lon="11.1631207"><ele>316.0</ele><time>2026-03-29T13:12:21.144Z</time></trkpt><trkpt lat="43.7117662" lon="11.163176"><ele>316.0</ele><time>2026-03-29T13:12:22.144Z</time></trkpt><trkpt lat="43.7118975" lon="11.163232"><ele>316.0</ele><time>2026-03-29T13:12:23.144Z</time></trkpt><trkpt lat="43.7120365" lon="11.1633087"><ele>316.0</ele><time>2026-03-29T13:12:24.144Z</time></trkpt><trkpt lat="43.7121735" lon="11.1634006"><ele>316.0</ele><time>2026-03-29T13:12:25.144Z</time></trkpt><trkpt lat="43.7123178" lon="11.1634885"><ele>316.0</ele><time>2026-03-29T13:12:26.144Z</time></trkpt><trkpt lat="43.7124548" lon="11.1635893"><ele>316.0</ele><time>2026-03-29T13:12:27.144Z</time></trkpt><trkpt lat="43.7125908" lon="11.1636771"><ele>316.0</ele><time>2026-03-29T13:12:28.144Z</time></trkpt><trkpt lat="43.712725" lon="11.1637558"><ele>317.4</ele><time>2026-03-29T13:12:29.144Z</time></trkpt><trkpt lat="43.712845" lon="11.1638356"><ele>318.8</ele><time>2026-03-29T13:12:30.144Z</time></trkpt><trkpt lat="43.7129519" lon="11.1638918"><ele>320.2</ele><time>2026-03-29T13:12:31.144Z</time></trkpt><trkpt lat="43.7130408" lon="11.1639045"><ele>321.59999999999997</ele><time>2026-03-29T13:12:32.144Z</time></trkpt><trkpt lat="43.7131443" lon="11.1639063"><ele>323.0</ele><time>2026-03-29T13:12:33.144Z</time></trkpt><trkpt lat="43.7132653" lon="11.1638889"><ele>323.0</ele><time>2026-03-29T13:12:34.144Z</time></trkpt><trkpt lat="43.713391" lon="11.1638435"><ele>323.0</ele><time>2026-03-29T13:12:35.144Z</time></trkpt><trkpt lat="43.7135302" lon="11.1637984"><ele>323.0</ele><time>2026-03-29T13:12:36.144Z</time></trkpt><trkpt lat="43.7136625" lon="11.1637569"><ele>323.0</ele><time>2026-03-29T13:12:37.144Z</time></trkpt><trkpt lat="43.7137879" lon="11.1637214"><ele>322.75</ele><time>2026-03-29T13:12:38.144Z</time></trkpt><trkpt lat="43.7139005" lon="11.1636946"><ele>322.5</ele><time>2026-03-29T13:12:39.144Z</time></trkpt><trkpt lat="43.714004" lon="11.1636935"><ele>322.25</ele><time>2026-03-29T13:12:40.144Z</time></trkpt><trkpt lat="43.7141281" lon="11.1637302"><ele>322.0</ele><time>2026-03-29T13:12:41.144Z</time></trkpt><trkpt lat="43.7142488" lon="11.1637979"><ele>322.0</ele><time>2026-03-29T13:12:42.144Z</time></trkpt><trkpt lat="43.7143616" lon="11.163861"><ele>322.0</ele><time>2026-03-29T13:12:43.144Z</time></trkpt><trkpt lat="43.7144878" lon="11.163927"><ele>322.0</ele><time>2026-03-29T13:12:44.144Z</time></trkpt><trkpt lat="43.7146079" lon="11.1639727"><ele>322.0</ele><time>2026-03-29T13:12:45.144Z</time></trkpt><trkpt lat="43.714736" lon="11.1639958"><ele>320.25</ele><time>2026-03-29T13:12:46.144Z</time></trkpt><trkpt lat="43.7148517" lon="11.1640055"><ele>318.5</ele><time>2026-03-29T13:12:47.144Z</time></trkpt><trkpt lat="43.7149692" lon="11.1640203"><ele>316.75</ele><time>2026-03-29T13:12:48.144Z</time></trkpt><trkpt lat="43.7150697" lon="11.1640842"><ele>315.0</ele><time>2026-03-29T13:12:49.144Z</time></trkpt><trkpt lat="43.7151447" lon="11.1641906"><ele>313.75</ele><time>2026-03-29T13:12:50.144Z</time></trkpt><trkpt lat="43.7152189" lon="11.1643266"><ele>312.5</ele><time>2026-03-29T13:12:51.144Z</time></trkpt><trkpt lat="43.7152858" lon="11.164467"><ele>311.25</ele><time>2026-03-29T13:12:52.144Z</time></trkpt><trkpt lat="43.715366" lon="11.1646111"><ele>310.0</ele><time>2026-03-29T13:12:53.144Z</time></trkpt><trkpt lat="43.7154437" lon="11.164758"><ele>311.0</ele><time>2026-03-29T13:12:54.144Z</time></trkpt><trkpt lat="43.7155238" lon="11.1648905"><ele>312.0</ele><time>2026-03-29T13:12:55.144Z</time></trkpt><trkpt lat="43.7156015" lon="11.165022"><ele>313.0</ele><time>2026-03-29T13:12:56.144Z</time></trkpt><trkpt lat="43.7156592" lon="11.165159"><ele>314.0</ele><time>2026-03-29T13:12:57.144Z</time></trkpt><trkpt lat="43.7157025" lon="11.1652839"><ele>314.0</ele><time>2026-03-29T13:12:58.144Z</time></trkpt><trkpt lat="43.7157421" lon="11.1654141"><ele>314.0</ele><time>2026-03-29T13:12:59.144Z</time></trkpt><trkpt lat="43.7157882" lon="11.1655393"><ele>314.0</ele><time>2026-03-29T13:13:00.144Z</time></trkpt><trkpt lat="43.7158581" lon="11.1656732"><ele>314.0</ele><time>2026-03-29T13:13:01.144Z</time></trkpt><trkpt lat="43.7159636" lon="11.1657996"><ele>314.5</ele><time>2026-03-29T13:13:02.144Z</time></trkpt><trkpt lat="43.7160661" lon="11.1659158"><ele>315.0</ele><time>2026-03-29T13:13:03.144Z</time></trkpt><trkpt lat="43.7161607" lon="11.1660147"><ele>315.5</ele><time>2026-03-29T13:13:04.144Z</time></trkpt><trkpt lat="43.7162478" lon="11.1661122"><ele>316.0</ele><time>2026-03-29T13:13:05.144Z</time></trkpt><trkpt lat="43.7163269" lon="11.1661904"><ele>316.0</ele><time>2026-03-29T13:13:06.144Z</time></trkpt><trkpt lat="43.71639" lon="11.1662651"><ele>316.0</ele><time>2026-03-29T13:13:07.144Z</time></trkpt><trkpt lat="43.7164675" lon="11.1663421"><ele>316.0</ele><time>2026-03-29T13:13:09.144Z</time></trkpt><trkpt lat="43.7165526" lon="11.1664015"><ele>316.0</ele><time>2026-03-29T13:13:11.144Z</time></trkpt><trkpt lat="43.7166334" lon="11.1664418"><ele>316.0</ele><time>2026-03-29T13:13:13.144Z</time></trkpt><trkpt lat="43.7167253" lon="11.1664644"><ele>316.0</ele><time>2026-03-29T13:13:15.144Z</time></trkpt><trkpt lat="43.7167998" lon="11.16648"><ele>316.0</ele><time>2026-03-29T13:13:18.144Z</time></trkpt><trkpt lat="43.716871" lon="11.1664834"><ele>316.0</ele><time>2026-03-29T13:13:37.144Z</time></trkpt><trkpt lat="43.7169777" lon="11.166494"><ele>316.0</ele><time>2026-03-29T13:13:39.144Z</time></trkpt><trkpt lat="43.7170814" lon="11.1665044"><ele>316.0</ele><time>2026-03-29T13:13:41.144Z</time></trkpt><trkpt lat="43.7171831" lon="11.1665243"><ele>314.2</ele><time>2026-03-29T13:13:43.144Z</time></trkpt><trkpt lat="43.7172912" lon="11.166575"><ele>312.40000000000003</ele><time>2026-03-29T13:13:45.144Z</time></trkpt><trkpt lat="43.7173806" lon="11.1666499"><ele>310.6</ele><time>2026-03-29T13:13:47.144Z</time></trkpt><trkpt lat="43.7174442" lon="11.1667001"><ele>308.8</ele><time>2026-03-29T13:13:48.144Z</time></trkpt><trkpt lat="43.7175233" lon="11.1667631"><ele>307.0</ele><time>2026-03-29T13:13:49.144Z</time></trkpt><trkpt lat="43.717602" lon="11.1668212"><ele>307.0</ele><time>2026-03-29T13:13:50.144Z</time></trkpt><trkpt lat="43.7176728" lon="11.1668829"><ele>307.0</ele><time>2026-03-29T13:13:51.144Z</time></trkpt><trkpt lat="43.7177342" lon="11.1669207"><ele>307.0</ele><time>2026-03-29T13:13:52.144Z</time></trkpt><trkpt lat="43.7178428" lon="11.1669668"><ele>307.0</ele><time>2026-03-29T13:13:54.144Z</time></trkpt><trkpt lat="43.7179552" lon="11.1670229"><ele>307.0</ele><time>2026-03-29T13:13:56.144Z</time></trkpt><trkpt lat="43.7180105" lon="11.1670672"><ele>307.0</ele><time>2026-03-29T13:13:57.144Z</time></trkpt><trkpt lat="43.7181154" lon="11.1671588"><ele>304.4</ele><time>2026-03-29T13:13:59.144Z</time></trkpt><trkpt lat="43.718168" lon="11.1672223"><ele>301.79999999999995</ele><time>2026-03-29T13:14:00.144Z</time></trkpt><trkpt lat="43.7182437" lon="11.1673257"><ele>299.2</ele><time>2026-03-29T13:14:02.144Z</time></trkpt><trkpt lat="43.718271" lon="11.1674486"><ele>296.59999999999997</ele><time>2026-03-29T13:14:04.144Z</time></trkpt><trkpt lat="43.7182911" lon="11.1675885"><ele>294.0</ele><time>2026-03-29T13:14:06.144Z</time></trkpt><trkpt lat="43.7183686" lon="11.1677013"><ele>294.0</ele><time>2026-03-29T13:14:08.144Z</time></trkpt><trkpt lat="43.7184726" lon="11.1677759"><ele>294.0</ele><time>2026-03-29T13:14:10.144Z</time></trkpt><trkpt lat="43.7185358" lon="11.1678215"><ele>294.0</ele><time>2026-03-29T13:14:11.144Z</time></trkpt><trkpt lat="43.7186526" lon="11.167847"><ele>294.0</ele><time>2026-03-29T13:14:13.144Z</time></trkpt><trkpt lat="43.7187666" lon="11.1678615"><ele>294.0</ele><time>2026-03-29T13:14:15.144Z</time></trkpt><trkpt lat="43.7188796" lon="11.1679254"><ele>289.59999999999997</ele><time>2026-03-29T13:14:17.144Z</time></trkpt><trkpt lat="43.7189465" lon="11.1679788"><ele>285.2</ele><time>2026-03-29T13:14:18.144Z</time></trkpt><trkpt lat="43.7190341" lon="11.1680438"><ele>280.79999999999995</ele><time>2026-03-29T13:14:20.144Z</time></trkpt><trkpt lat="43.7191077" lon="11.1681469"><ele>276.4</ele><time>2026-03-29T13:14:22.144Z</time></trkpt><trkpt lat="43.7191965" lon="11.1682653"><ele>272.0</ele><time>2026-03-29T13:14:24.144Z</time></trkpt><trkpt lat="43.7192368" lon="11.16834"><ele>272.0</ele><time>2026-03-29T13:14:25.144Z</time></trkpt><trkpt lat="43.719273" lon="11.1684246"><ele>272.0</ele><time>2026-03-29T13:14:26.143Z</time></trkpt><trkpt lat="43.7193105" lon="11.1685093"><ele>272.0</ele><time>2026-03-29T13:14:27.144Z</time></trkpt><trkpt lat="43.7193472" lon="11.1685868"><ele>272.0</ele><time>2026-03-29T13:14:28.144Z</time></trkpt><trkpt lat="43.7194022" lon="11.168724"><ele>272.0</ele><time>2026-03-29T13:14:30.144Z</time></trkpt><trkpt lat="43.7194516" lon="11.1688167"><ele>272.0</ele><time>2026-03-29T13:14:32.144Z</time></trkpt><trkpt lat="43.7195189" lon="11.1688939"><ele>269.5</ele><time>2026-03-29T13:14:35.144Z</time></trkpt><trkpt lat="43.7195942" lon="11.1688419"><ele>267.0</ele><time>2026-03-29T13:14:38.144Z</time></trkpt><trkpt lat="43.7196508" lon="11.1687838"><ele>264.5</ele><time>2026-03-29T13:14:40.144Z</time></trkpt><trkpt lat="43.7197151" lon="11.1687277"><ele>262.0</ele><time>2026-03-29T13:14:42.144Z</time></trkpt><trkpt lat="43.7198013" lon="11.1687433"><ele>259.5</ele><time>2026-03-29T13:14:44.144Z</time></trkpt><trkpt lat="43.7198949" lon="11.1688027"><ele>257.0</ele><time>2026-03-29T13:14:46.144Z</time></trkpt><trkpt lat="43.7199753" lon="11.1688503"><ele>257.0</ele><time>2026-03-29T13:14:48.144Z</time></trkpt><trkpt lat="43.7200596" lon="11.1688596"><ele>257.0</ele><time>2026-03-29T13:14:50.144Z</time></trkpt><trkpt lat="43.7201567" lon="11.1688984"><ele>257.0</ele><time>2026-03-29T13:14:52.144Z</time></trkpt><trkpt lat="43.7202529" lon="11.1689742"><ele>257.0</ele><time>2026-03-29T13:14:54.144Z</time></trkpt><trkpt lat="43.7203005" lon="11.1690377"><ele>257.0</ele><time>2026-03-29T13:14:55.144Z</time></trkpt><trkpt lat="43.7203482" lon="11.1691509"><ele>255.8</ele><time>2026-03-29T13:14:57.144Z</time></trkpt><trkpt lat="43.720354" lon="11.1692867"><ele>254.6</ele><time>2026-03-29T13:14:59.144Z</time></trkpt><trkpt lat="43.7203561" lon="11.1694514"><ele>253.40000000000003</ele><time>2026-03-29T13:15:01.144Z</time></trkpt><trkpt lat="43.7203672" lon="11.1696174"><ele>252.20000000000002</ele><time>2026-03-29T13:15:03.144Z</time></trkpt><trkpt lat="43.7203762" lon="11.1697123"><ele>251.0</ele><time>2026-03-29T13:15:04.144Z</time></trkpt><trkpt lat="43.7203862" lon="11.1698146"><ele>249.85714285714283</ele><time>2026-03-29T13:15:05.144Z</time></trkpt><trkpt lat="43.7203957" lon="11.1699084"><ele>248.71428571428572</ele><time>2026-03-29T13:15:06.144Z</time></trkpt><trkpt lat="43.720406" lon="11.1699985"><ele>247.57142857142856</ele><time>2026-03-29T13:15:07.144Z</time></trkpt><trkpt lat="43.7204249" lon="11.1701042"><ele>246.42857142857142</ele><time>2026-03-29T13:15:08.144Z</time></trkpt><trkpt lat="43.7204366" lon="11.1702029"><ele>245.28571428571428</ele><time>2026-03-29T13:15:09.144Z</time></trkpt><trkpt lat="43.7204548" lon="11.1702996"><ele>244.14285714285714</ele><time>2026-03-29T13:15:10.144Z</time></trkpt><trkpt lat="43.7204711" lon="11.1704192"><ele>243.0</ele><time>2026-03-29T13:15:11.144Z</time></trkpt><trkpt lat="43.7204851" lon="11.1705642"><ele>241.60000000000002</ele><time>2026-03-29T13:15:12.144Z</time></trkpt><trkpt lat="43.7204915" lon="11.1706979"><ele>240.20000000000002</ele><time>2026-03-29T13:15:13.144Z</time></trkpt><trkpt lat="43.7204994" lon="11.170828"><ele>238.8</ele><time>2026-03-29T13:15:14.144Z</time></trkpt><trkpt lat="43.7205154" lon="11.1709701"><ele>237.4</ele><time>2026-03-29T13:15:15.144Z</time></trkpt><trkpt lat="43.720519" lon="11.1710716"><ele>236.0</ele><time>2026-03-29T13:15:16.144Z</time></trkpt><trkpt lat="43.7205369" lon="11.1712264"><ele>236.0</ele><time>2026-03-29T13:15:18.144Z</time></trkpt><trkpt lat="43.7205262" lon="11.1713855"><ele>236.00000000000003</ele><time>2026-03-29T13:15:20.144Z</time></trkpt><trkpt lat="43.720518" lon="11.1714841"><ele>236.00000000000003</ele><time>2026-03-29T13:15:21.144Z</time></trkpt><trkpt lat="43.7205241" lon="11.1716049"><ele>236.0</ele><time>2026-03-29T13:15:22.144Z</time></trkpt><trkpt lat="43.7205512" lon="11.1717341"><ele>236.0</ele><time>2026-03-29T13:15:23.144Z</time></trkpt><trkpt lat="43.7205949" lon="11.1718573"><ele>234.50000000000003</ele><time>2026-03-29T13:15:24.144Z</time></trkpt><trkpt lat="43.7206306" lon="11.1719771"><ele>233.0</ele><time>2026-03-29T13:15:25.144Z</time></trkpt><trkpt lat="43.7206611" lon="11.1720875"><ele>231.5</ele><time>2026-03-29T13:15:26.144Z</time></trkpt><trkpt lat="43.7206813" lon="11.1721846"><ele>230.0</ele><time>2026-03-29T13:15:27.144Z</time></trkpt><trkpt lat="43.7207008" lon="11.1722717"><ele>228.50000000000003</ele><time>2026-03-29T13:15:28.144Z</time></trkpt><trkpt lat="43.7207192" lon="11.1723562"><ele>227.0</ele><time>2026-03-29T13:15:29.144Z</time></trkpt><trkpt lat="43.7207334" lon="11.1725046"><ele>225.39999999999998</ele><time>2026-03-29T13:15:31.144Z</time></trkpt><trkpt lat="43.720732" lon="11.1726349"><ele>223.79999999999998</ele><time>2026-03-29T13:15:33.144Z</time></trkpt><trkpt lat="43.7207368" lon="11.1727676"><ele>222.2</ele><time>2026-03-29T13:15:35.144Z</time></trkpt><trkpt lat="43.7207597" lon="11.1729226"><ele>220.6</ele><time>2026-03-29T13:15:37.144Z</time></trkpt><trkpt lat="43.7207844" lon="11.1730159"><ele>219.0</ele><time>2026-03-29T13:15:38.144Z</time></trkpt><trkpt lat="43.7208127" lon="11.1731139"><ele>217.33333333333334</ele><time>2026-03-29T13:15:39.144Z</time></trkpt><trkpt lat="43.72084" lon="11.1732004"><ele>215.66666666666669</ele><time>2026-03-29T13:15:40.144Z</time></trkpt><trkpt lat="43.7208704" lon="11.1732853"><ele>214.0</ele><time>2026-03-29T13:15:41.144Z</time></trkpt><trkpt lat="43.7209335" lon="11.1734188"><ele>212.33333333333334</ele><time>2026-03-29T13:15:43.144Z</time></trkpt><trkpt lat="43.7209755" lon="11.1735253"><ele>210.66666666666669</ele><time>2026-03-29T13:15:45.144Z</time></trkpt><trkpt lat="43.7210034" lon="11.1736067"><ele>209.0</ele><time>2026-03-29T13:15:47.144Z</time></trkpt><trkpt lat="43.7210595" lon="11.1736953"><ele>206.0</ele><time>2026-03-29T13:15:49.144Z</time></trkpt><trkpt lat="43.7211439" lon="11.1737822"><ele>203.0</ele><time>2026-03-29T13:15:51.144Z</time></trkpt><trkpt lat="43.7212322" lon="11.1738431"><ele>200.0</ele><time>2026-03-29T13:15:53.144Z</time></trkpt><trkpt lat="43.7212995" lon="11.1738818"><ele>197.0</ele><time>2026-03-29T13:15:55.144Z</time></trkpt><trkpt lat="43.7213919" lon="11.1739055"><ele>194.0</ele><time>2026-03-29T13:15:58.144Z</time></trkpt><trkpt lat="43.7214891" lon="11.1739373"><ele>194.0</ele><time>2026-03-29T13:16:00.144Z</time></trkpt><trkpt lat="43.7215934" lon="11.1739005"><ele>194.0</ele><time>2026-03-29T13:16:02.144Z</time></trkpt><trkpt lat="43.7216997" lon="11.1738239"><ele>194.0</ele><time>2026-03-29T13:16:04.144Z</time></trkpt><trkpt lat="43.7217835" lon="11.1737725"><ele>194.0</ele><time>2026-03-29T13:16:06.144Z</time></trkpt><trkpt lat="43.7218456" lon="11.1738164"><ele>194.0</ele><time>2026-03-29T13:16:09.144Z</time></trkpt><trkpt lat="43.7218447" lon="11.173949"><ele>192.0</ele><time>2026-03-29T13:16:11.144Z</time></trkpt><trkpt lat="43.7218342" lon="11.1740965"><ele>190.0</ele><time>2026-03-29T13:16:13.144Z</time></trkpt><trkpt lat="43.7218264" lon="11.1742307"><ele>188.0</ele><time>2026-03-29T13:16:15.144Z</time></trkpt><trkpt lat="43.7217868" lon="11.1743524"><ele>186.0</ele><time>2026-03-29T13:16:17.144Z</time></trkpt><trkpt lat="43.7217597" lon="11.1744478"><ele>184.0</ele><time>2026-03-29T13:16:18.144Z</time></trkpt><trkpt lat="43.7217314" lon="11.1745602"><ele>184.0</ele><time>2026-03-29T13:16:19.144Z</time></trkpt><trkpt lat="43.7217052" lon="11.1746554"><ele>184.0</ele><time>2026-03-29T13:16:20.144Z</time></trkpt><trkpt lat="43.7216812" lon="11.1747472"><ele>184.0</ele><time>2026-03-29T13:16:21.144Z</time></trkpt><trkpt lat="43.7216679" lon="11.1748399"><ele>184.0</ele><time>2026-03-29T13:16:22.144Z</time></trkpt><trkpt lat="43.7216674" lon="11.1749306"><ele>184.0</ele><time>2026-03-29T13:16:23.144Z</time></trkpt><trkpt lat="43.7216762" lon="11.1750791"><ele>184.0</ele><time>2026-03-29T13:16:25.144Z</time></trkpt><trkpt lat="43.7216439" lon="11.1752384"><ele>182.71428571428572</ele><time>2026-03-29T13:16:27.144Z</time></trkpt><trkpt lat="43.7216206" lon="11.1753209"><ele>181.42857142857142</ele><time>2026-03-29T13:16:28.144Z</time></trkpt><trkpt lat="43.7215928" lon="11.1754051"><ele>180.14285714285714</ele><time>2026-03-29T13:16:29.144Z</time></trkpt><trkpt lat="43.7215614" lon="11.1754938"><ele>178.85714285714286</ele><time>2026-03-29T13:16:30.144Z</time></trkpt><trkpt lat="43.7215275" lon="11.1755744"><ele>177.57142857142856</ele><time>2026-03-29T13:16:31.144Z</time></trkpt><trkpt lat="43.7214856" lon="11.1756542"><ele>176.28571428571428</ele><time>2026-03-29T13:16:32.144Z</time></trkpt><trkpt lat="43.7214442" lon="11.1757338"><ele>175.0</ele><time>2026-03-29T13:16:33.144Z</time></trkpt><trkpt lat="43.7214055" lon="11.1758229"><ele>173.0</ele><time>2026-03-29T13:16:34.144Z</time></trkpt><trkpt lat="43.7213654" lon="11.1759217"><ele>171.0</ele><time>2026-03-29T13:16:35.144Z</time></trkpt><trkpt lat="43.7213244" lon="11.1760234"><ele>169.0</ele><time>2026-03-29T13:16:36.144Z</time></trkpt><trkpt lat="43.7212931" lon="11.1761353"><ele>167.0</ele><time>2026-03-29T13:16:37.144Z</time></trkpt><trkpt lat="43.7212742" lon="11.1762455"><ele>165.0</ele><time>2026-03-29T13:16:38.144Z</time></trkpt><trkpt lat="43.7212511" lon="11.176362"><ele>163.0</ele><time>2026-03-29T13:16:39.144Z</time></trkpt><trkpt lat="43.7212232" lon="11.1764781"><ele>162.16666666666669</ele><time>2026-03-29T13:16:40.144Z</time></trkpt><trkpt lat="43.7211806" lon="11.1765977"><ele>161.33333333333334</ele><time>2026-03-29T13:16:41.144Z</time></trkpt><trkpt lat="43.721145" lon="11.1767184"><ele>160.5</ele><time>2026-03-29T13:16:42.143Z</time></trkpt><trkpt lat="43.721107" lon="11.1768282"><ele>159.66666666666666</ele><time>2026-03-29T13:16:43.144Z</time></trkpt><trkpt lat="43.7210761" lon="11.176914"><ele>158.83333333333331</ele><time>2026-03-29T13:16:44.144Z</time></trkpt><trkpt lat="43.7210347" lon="11.1769919"><ele>158.0</ele><time>2026-03-29T13:16:46.144Z</time></trkpt><trkpt lat="43.7209957" lon="11.1770772"><ele>161.16666666666666</ele><time>2026-03-29T13:17:26.144Z</time></trkpt><trkpt lat="43.7209449" lon="11.1772324"><ele>164.33333333333331</ele><time>2026-03-29T13:17:28.144Z</time></trkpt><trkpt lat="43.7209127" lon="11.1773364"><ele>167.5</ele><time>2026-03-29T13:17:29.144Z</time></trkpt><trkpt lat="43.7208845" lon="11.1774287"><ele>170.66666666666666</ele><time>2026-03-29T13:17:30.144Z</time></trkpt><trkpt lat="43.7208551" lon="11.1775236"><ele>173.83333333333334</ele><time>2026-03-29T13:17:31.144Z</time></trkpt><trkpt lat="43.7208215" lon="11.1776154"><ele>177.0</ele><time>2026-03-29T13:17:32.144Z</time></trkpt><trkpt lat="43.7207811" lon="11.177712"><ele>177.0</ele><time>2026-03-29T13:17:33.143Z</time></trkpt><trkpt lat="43.7207434" lon="11.1778005"><ele>177.0</ele><time>2026-03-29T13:17:34.144Z</time></trkpt><trkpt lat="43.7207018" lon="11.1778787"><ele>177.0</ele><time>2026-03-29T13:17:35.144Z</time></trkpt><trkpt lat="43.7206635" lon="11.1779557"><ele>177.0</ele><time>2026-03-29T13:17:36.144Z</time></trkpt><trkpt lat="43.7206368" lon="11.1780463"><ele>177.0</ele><time>2026-03-29T13:17:37.144Z</time></trkpt><trkpt lat="43.7206017" lon="11.1781242"><ele>177.0</ele><time>2026-03-29T13:17:38.144Z</time></trkpt><trkpt lat="43.7205722" lon="11.1782059"><ele>177.0</ele><time>2026-03-29T13:17:39.144Z</time></trkpt><trkpt lat="43.7205771" lon="11.17837"><ele>173.5</ele><time>2026-03-29T13:17:41.144Z</time></trkpt><trkpt lat="43.7205943" lon="11.1785333"><ele>170.0</ele><time>2026-03-29T13:17:43.144Z</time></trkpt><trkpt lat="43.7205772" lon="11.1786946"><ele>166.5</ele><time>2026-03-29T13:17:45.144Z</time></trkpt><trkpt lat="43.7205348" lon="11.1788606"><ele>163.0</ele><time>2026-03-29T13:17:47.144Z</time></trkpt><trkpt lat="43.7204793" lon="11.1790136"><ele>161.0</ele><time>2026-03-29T13:17:49.144Z</time></trkpt><trkpt lat="43.7204205" lon="11.1791088"><ele>159.0</ele><time>2026-03-29T13:17:50.144Z</time></trkpt><trkpt lat="43.7203496" lon="11.1792117"><ele>157.0</ele><time>2026-03-29T13:17:51.144Z</time></trkpt><trkpt lat="43.7202676" lon="11.1793331"><ele>155.0</ele><time>2026-03-29T13:17:52.144Z</time></trkpt><trkpt lat="43.7202022" lon="11.179456"><ele>153.0</ele><time>2026-03-29T13:17:53.144Z</time></trkpt><trkpt lat="43.7201362" lon="11.1795598"><ele>155.2</ele><time>2026-03-29T13:17:54.144Z</time></trkpt><trkpt lat="43.7200681" lon="11.17968"><ele>157.4</ele><time>2026-03-29T13:17:55.144Z</time></trkpt><trkpt lat="43.7199958" lon="11.1798033"><ele>159.6</ele><time>2026-03-29T13:17:56.144Z</time></trkpt><trkpt lat="43.7199276" lon="11.1799148"><ele>161.79999999999998</ele><time>2026-03-29T13:17:57.144Z</time></trkpt><trkpt lat="43.7198621" lon="11.1800208"><ele>164.0</ele><time>2026-03-29T13:17:58.143Z</time></trkpt><trkpt lat="43.7198103" lon="11.180113"><ele>164.0</ele><time>2026-03-29T13:17:59.144Z</time></trkpt><trkpt lat="43.7197554" lon="11.1801967"><ele>164.0</ele><time>2026-03-29T13:18:00.144Z</time></trkpt><trkpt lat="43.7197005" lon="11.1802801"><ele>164.0</ele><time>2026-03-29T13:18:01.144Z</time></trkpt><trkpt lat="43.7196476" lon="11.1803614"><ele>164.0</ele><time>2026-03-29T13:18:02.144Z</time></trkpt><trkpt lat="43.7195891" lon="11.1804579"><ele>164.0</ele><time>2026-03-29T13:18:03.144Z</time></trkpt><trkpt lat="43.7195478" lon="11.1805631"><ele>164.0</ele><time>2026-03-29T13:18:04.144Z</time></trkpt><trkpt lat="43.719517" lon="11.1806647"><ele>164.28571428571428</ele><time>2026-03-29T13:18:05.144Z</time></trkpt><trkpt lat="43.7194852" lon="11.1807553"><ele>164.57142857142856</ele><time>2026-03-29T13:18:06.144Z</time></trkpt><trkpt lat="43.7194405" lon="11.18083"><ele>164.85714285714283</ele><time>2026-03-29T13:18:07.144Z</time></trkpt><trkpt lat="43.7193746" lon="11.1808889"><ele>165.14285714285714</ele><time>2026-03-29T13:18:08.144Z</time></trkpt><trkpt lat="43.7193128" lon="11.1809358"><ele>165.42857142857144</ele><time>2026-03-29T13:18:09.144Z</time></trkpt><trkpt lat="43.7192529" lon="11.1809762"><ele>165.7142857142857</ele><time>2026-03-29T13:18:10.144Z</time></trkpt><trkpt lat="43.7192058" lon="11.1810364"><ele>166.0</ele><time>2026-03-29T13:18:11.144Z</time></trkpt><trkpt lat="43.7191791" lon="11.1812339"><ele>166.0</ele><time>2026-03-29T13:18:13.144Z</time></trkpt><trkpt lat="43.7191666" lon="11.1813613"><ele>166.0</ele><time>2026-03-29T13:18:14.144Z</time></trkpt><trkpt lat="43.7191178" lon="11.1815211"><ele>166.0</ele><time>2026-03-29T13:18:15.144Z</time></trkpt><trkpt lat="43.7190654" lon="11.1816721"><ele>166.0</ele><time>2026-03-29T13:18:16.144Z</time></trkpt><trkpt lat="43.7190249" lon="11.1818373"><ele>165.20000000000002</ele><time>2026-03-29T13:18:17.144Z</time></trkpt><trkpt lat="43.7189939" lon="11.1820021"><ele>164.4</ele><time>2026-03-29T13:18:18.144Z</time></trkpt><trkpt lat="43.7189875" lon="11.1821258"><ele>163.6</ele><time>2026-03-29T13:18:19.144Z</time></trkpt><trkpt lat="43.7189856" lon="11.1822215"><ele>162.8</ele><time>2026-03-29T13:18:20.144Z</time></trkpt><trkpt lat="43.7190036" lon="11.1823745"><ele>162.0</ele><time>2026-03-29T13:18:22.144Z</time></trkpt><trkpt lat="43.7189745" lon="11.1825302"><ele>162.0</ele><time>2026-03-29T13:18:24.144Z</time></trkpt><trkpt lat="43.7188903" lon="11.1826698"><ele>162.0</ele><time>2026-03-29T13:18:26.144Z</time></trkpt><trkpt lat="43.7187969" lon="11.1827527"><ele>162.0</ele><time>2026-03-29T13:18:28.144Z</time></trkpt><trkpt lat="43.7187056" lon="11.1827287"><ele>162.0</ele><time>2026-03-29T13:18:30.144Z</time></trkpt><trkpt lat="43.7186289" lon="11.1826315"><ele>162.0</ele><time>2026-03-29T13:18:32.144Z</time></trkpt><trkpt lat="43.71854" lon="11.1825163"><ele>164.8</ele><time>2026-03-29T13:18:34.144Z</time></trkpt><trkpt lat="43.7184545" lon="11.1824474"><ele>167.6</ele><time>2026-03-29T13:18:36.144Z</time></trkpt><trkpt lat="43.7183579" lon="11.1824672"><ele>170.4</ele><time>2026-03-29T13:18:38.144Z</time></trkpt><trkpt lat="43.7183039" lon="11.1825798"><ele>173.20000000000002</ele><time>2026-03-29T13:18:40.144Z</time></trkpt><trkpt lat="43.7182935" lon="11.1826793"><ele>176.0</ele><time>2026-03-29T13:18:41.144Z</time></trkpt><trkpt lat="43.7182833" lon="11.1828216"><ele>176.0</ele><time>2026-03-29T13:18:42.144Z</time></trkpt><trkpt lat="43.718281" lon="11.1829533"><ele>176.0</ele><time>2026-03-29T13:18:43.144Z</time></trkpt><trkpt lat="43.7182828" lon="11.1830818"><ele>176.0</ele><time>2026-03-29T13:18:44.144Z</time></trkpt><trkpt lat="43.7182763" lon="11.1832097"><ele>176.0</ele><time>2026-03-29T13:18:45.143Z</time></trkpt><trkpt lat="43.7182519" lon="11.1833161"><ele>176.0</ele><time>2026-03-29T13:18:46.144Z</time></trkpt><trkpt lat="43.7182078" lon="11.1834213"><ele>176.0</ele><time>2026-03-29T13:18:47.144Z</time></trkpt><trkpt lat="43.7181515" lon="11.1835358"><ele>175.0</ele><time>2026-03-29T13:18:48.144Z</time></trkpt><trkpt lat="43.7180963" lon="11.1836609"><ele>174.0</ele><time>2026-03-29T13:18:49.143Z</time></trkpt><trkpt lat="43.7180404" lon="11.1837763"><ele>173.0</ele><time>2026-03-29T13:18:50.144Z</time></trkpt><trkpt lat="43.7179823" lon="11.1838887"><ele>172.0</ele><time>2026-03-29T13:18:51.144Z</time></trkpt><trkpt lat="43.7179347" lon="11.1839922"><ele>171.0</ele><time>2026-03-29T13:18:52.144Z</time></trkpt><trkpt lat="43.7178907" lon="11.1840968"><ele>169.83333333333334</ele><time>2026-03-29T13:18:53.144Z</time></trkpt><trkpt lat="43.7178481" lon="11.184196"><ele>168.66666666666666</ele><time>2026-03-29T13:18:54.144Z</time></trkpt><trkpt lat="43.7178037" lon="11.1842722"><ele>167.5</ele><time>2026-03-29T13:18:55.144Z</time></trkpt><trkpt lat="43.7177379" lon="11.1843068"><ele>166.33333333333331</ele><time>2026-03-29T13:18:56.144Z</time></trkpt><trkpt lat="43.7176668" lon="11.1843531"><ele>165.16666666666666</ele><time>2026-03-29T13:18:57.144Z</time></trkpt><trkpt lat="43.717587" lon="11.1843833"><ele>164.0</ele><time>2026-03-29T13:18:58.144Z</time></trkpt><trkpt lat="43.7174891" lon="11.1844038"><ele>168.2</ele><time>2026-03-29T13:18:59.144Z</time></trkpt><trkpt lat="43.7174016" lon="11.1844169"><ele>172.39999999999998</ele><time>2026-03-29T13:19:00.144Z</time></trkpt><trkpt lat="43.7173311" lon="11.1844354"><ele>176.6</ele><time>2026-03-29T13:19:01.144Z</time></trkpt><trkpt lat="43.7172609" lon="11.1844624"><ele>180.8</ele><time>2026-03-29T13:19:02.144Z</time></trkpt><trkpt lat="43.7172213" lon="11.184582"><ele>185.0</ele><time>2026-03-29T13:19:04.143Z</time></trkpt><trkpt lat="43.7172495" lon="11.1847567"><ele>181.75</ele><time>2026-03-29T13:19:06.144Z</time></trkpt><trkpt lat="43.717235" lon="11.1848663"><ele>178.5</ele><time>2026-03-29T13:19:07.143Z</time></trkpt><trkpt lat="43.7171757" lon="11.1850206"><ele>175.25</ele><time>2026-03-29T13:19:08.144Z</time></trkpt><trkpt lat="43.7171033" lon="11.18519"><ele>172.0</ele><time>2026-03-29T13:19:09.144Z</time></trkpt><trkpt lat="43.7170325" lon="11.1853439"><ele>172.0</ele><time>2026-03-29T13:19:10.144Z</time></trkpt><trkpt lat="43.7169659" lon="11.1854958"><ele>172.0</ele><time>2026-03-29T13:19:11.144Z</time></trkpt><trkpt lat="43.7169005" lon="11.1856374"><ele>172.0</ele><time>2026-03-29T13:19:12.144Z</time></trkpt><trkpt lat="43.7168313" lon="11.1857642"><ele>172.0</ele><time>2026-03-29T13:19:13.144Z</time></trkpt><trkpt lat="43.7167787" lon="11.185879"><ele>175.5</ele><time>2026-03-29T13:19:14.144Z</time></trkpt><trkpt lat="43.7167383" lon="11.1860008"><ele>179.0</ele><time>2026-03-29T13:19:15.144Z</time></trkpt><trkpt lat="43.7167201" lon="11.186115"><ele>182.5</ele><time>2026-03-29T13:19:16.144Z</time></trkpt><trkpt lat="43.7167105" lon="11.1862184"><ele>186.0</ele><time>2026-03-29T13:19:17.144Z</time></trkpt><trkpt lat="43.7166973" lon="11.1863093"><ele>189.49999999999997</ele><time>2026-03-29T13:19:18.144Z</time></trkpt><trkpt lat="43.7166625" lon="11.1864036"><ele>193.0</ele><time>2026-03-29T13:19:19.144Z</time></trkpt><trkpt lat="43.716631" lon="11.1864954"><ele>192.2</ele><time>2026-03-29T13:19:20.144Z</time></trkpt><trkpt lat="43.7165807" lon="11.1866357"><ele>191.4</ele><time>2026-03-29T13:19:22.143Z</time></trkpt><trkpt lat="43.7164934" lon="11.1866948"><ele>190.6</ele><time>2026-03-29T13:19:24.144Z</time></trkpt><trkpt lat="43.7164248" lon="11.1867018"><ele>189.79999999999998</ele><time>2026-03-29T13:19:25.144Z</time></trkpt><trkpt lat="43.7163305" lon="11.1866979"><ele>189.0</ele><time>2026-03-29T13:19:26.144Z</time></trkpt><trkpt lat="43.7162225" lon="11.1867031"><ele>189.0</ele><time>2026-03-29T13:19:27.144Z</time></trkpt><trkpt lat="43.716111" lon="11.1867133"><ele>189.0</ele><time>2026-03-29T13:19:28.144Z</time></trkpt><trkpt lat="43.716013" lon="11.1867408"><ele>189.0</ele><time>2026-03-29T13:19:29.143Z</time></trkpt><trkpt lat="43.7159281" lon="11.1867603"><ele>189.0</ele><time>2026-03-29T13:19:30.144Z</time></trkpt><trkpt lat="43.7158465" lon="11.1867797"><ele>189.0</ele><time>2026-03-29T13:19:31.144Z</time></trkpt><trkpt lat="43.7157636" lon="11.1867973"><ele>190.83333333333334</ele><time>2026-03-29T13:19:32.144Z</time></trkpt><trkpt lat="43.7156701" lon="11.1867912"><ele>192.66666666666669</ele><time>2026-03-29T13:19:33.144Z</time></trkpt><trkpt lat="43.7155813" lon="11.186768"><ele>194.5</ele><time>2026-03-29T13:19:34.144Z</time></trkpt><trkpt lat="43.7154977" lon="11.1867469"><ele>196.33333333333334</ele><time>2026-03-29T13:19:35.144Z</time></trkpt><trkpt lat="43.7154185" lon="11.1867277"><ele>198.16666666666669</ele><time>2026-03-29T13:19:36.144Z</time></trkpt><trkpt lat="43.7153515" lon="11.1867126"><ele>200.0</ele><time>2026-03-29T13:19:37.144Z</time></trkpt><trkpt lat="43.7152388" lon="11.1866792"><ele>199.6</ele><time>2026-03-29T13:19:39.144Z</time></trkpt><trkpt lat="43.7151208" lon="11.1866669"><ele>199.2</ele><time>2026-03-29T13:19:41.144Z</time></trkpt><trkpt lat="43.7150543" lon="11.1866637"><ele>198.8</ele><time>2026-03-29T13:19:42.144Z</time></trkpt><trkpt lat="43.7149824" lon="11.1866505"><ele>198.4</ele><time>2026-03-29T13:19:43.144Z</time></trkpt><trkpt lat="43.714875" lon="11.1866457"><ele>198.0</ele><time>2026-03-29T13:19:45.144Z</time></trkpt><trkpt lat="43.7147621" lon="11.186612"><ele>198.0</ele><time>2026-03-29T13:19:47.144Z</time></trkpt><trkpt lat="43.7146952" lon="11.18663"><ele>198.0</ele><time>2026-03-29T13:19:49.144Z</time></trkpt><trkpt lat="43.7146702" lon="11.1867126"><ele>198.0</ele><time>2026-03-29T13:19:51.144Z</time></trkpt><trkpt lat="43.7146818" lon="11.186846"><ele>198.0</ele><time>2026-03-29T13:19:53.144Z</time></trkpt><trkpt lat="43.7147197" lon="11.1869361"><ele>198.0</ele><time>2026-03-29T13:19:54.144Z</time></trkpt><trkpt lat="43.7147975" lon="11.1870419"><ele>198.0</ele><time>2026-03-29T13:19:55.144Z</time></trkpt><trkpt lat="43.7148689" lon="11.187158"><ele>198.0</ele><time>2026-03-29T13:19:56.144Z</time></trkpt><trkpt lat="43.7149337" lon="11.1872801"><ele>198.0</ele><time>2026-03-29T13:19:57.144Z</time></trkpt><trkpt lat="43.714993" lon="11.1873977"><ele>198.0</ele><time>2026-03-29T13:19:58.144Z</time></trkpt><trkpt lat="43.7150534" lon="11.1875138"><ele>198.0</ele><time>2026-03-29T13:19:59.144Z</time></trkpt><trkpt lat="43.7151252" lon="11.1876319"><ele>198.0</ele><time>2026-03-29T13:20:00.144Z</time></trkpt><trkpt lat="43.7152128" lon="11.1877656"><ele>192.0</ele><time>2026-03-29T13:20:01.144Z</time></trkpt><trkpt lat="43.71532" lon="11.1878945"><ele>186.0</ele><time>2026-03-29T13:20:02.144Z</time></trkpt><trkpt lat="43.7154427" lon="11.1880513"><ele>180.0</ele><time>2026-03-29T13:20:03.144Z</time></trkpt><trkpt lat="43.7155577" lon="11.1881755"><ele>182.2</ele><time>2026-03-29T13:20:04.144Z</time></trkpt><trkpt lat="43.7156631" lon="11.188274"><ele>184.4</ele><time>2026-03-29T13:20:05.144Z</time></trkpt><trkpt lat="43.7157572" lon="11.1883771"><ele>186.60000000000002</ele><time>2026-03-29T13:20:06.144Z</time></trkpt><trkpt lat="43.7158194" lon="11.1884596"><ele>188.8</ele><time>2026-03-29T13:20:07.144Z</time></trkpt><trkpt lat="43.7158675" lon="11.1885499"><ele>191.0</ele><time>2026-03-29T13:20:09.144Z</time></trkpt><trkpt lat="43.7158932" lon="11.1886376"><ele>191.0</ele><time>2026-03-29T13:20:12.144Z</time></trkpt><trkpt lat="43.7158098" lon="11.1885627"><ele>191.0</ele><time>2026-03-29T13:20:17.144Z</time></trkpt><trkpt lat="43.7157404" lon="11.1884386"><ele>191.0</ele><time>2026-03-29T13:20:18.143Z</time></trkpt><trkpt lat="43.7156287" lon="11.1883358"><ele>191.0</ele><time>2026-03-29T13:20:19.144Z</time></trkpt><trkpt lat="43.715494" lon="11.1882298"><ele>192.0</ele><time>2026-03-29T13:20:20.144Z</time></trkpt><trkpt lat="43.7153509" lon="11.1881"><ele>193.0</ele><time>2026-03-29T13:20:21.144Z</time></trkpt><trkpt lat="43.715205" lon="11.1879806"><ele>194.0</ele><time>2026-03-29T13:20:22.144Z</time></trkpt><trkpt lat="43.715063" lon="11.1878453"><ele>194.0</ele><time>2026-03-29T13:20:23.144Z</time></trkpt><trkpt lat="43.7149098" lon="11.1877158"><ele>194.0</ele><time>2026-03-29T13:20:24.144Z</time></trkpt><trkpt lat="43.7147545" lon="11.1875897"><ele>194.0</ele><time>2026-03-29T13:20:25.144Z</time></trkpt><trkpt lat="43.7146033" lon="11.1874742"><ele>194.0</ele><time>2026-03-29T13:20:26.144Z</time></trkpt><trkpt lat="43.7144597" lon="11.1873811"><ele>194.0</ele><time>2026-03-29T13:20:27.144Z</time></trkpt><trkpt lat="43.7143071" lon="11.1873407"><ele>194.0</ele><time>2026-03-29T13:20:28.144Z</time></trkpt><trkpt lat="43.7141306" lon="11.1873366"><ele>199.0</ele><time>2026-03-29T13:20:29.144Z</time></trkpt><trkpt lat="43.7139446" lon="11.1873537"><ele>204.0</ele><time>2026-03-29T13:20:30.144Z</time></trkpt><trkpt lat="43.7137628" lon="11.1873638"><ele>209.0</ele><time>2026-03-29T13:20:31.144Z</time></trkpt><trkpt lat="43.7135847" lon="11.1873909"><ele>210.33333333333334</ele><time>2026-03-29T13:20:32.144Z</time></trkpt><trkpt lat="43.7134228" lon="11.1874381"><ele>211.66666666666669</ele><time>2026-03-29T13:20:33.144Z</time></trkpt><trkpt lat="43.7132733" lon="11.1874963"><ele>213.0</ele><time>2026-03-29T13:20:34.144Z</time></trkpt><trkpt lat="43.7131244" lon="11.1875627"><ele>213.0</ele><time>2026-03-29T13:20:35.144Z</time></trkpt><trkpt lat="43.7129834" lon="11.1876681"><ele>213.0</ele><time>2026-03-29T13:20:36.144Z</time></trkpt><trkpt lat="43.7128662" lon="11.1878139"><ele>213.0</ele><time>2026-03-29T13:20:37.144Z</time></trkpt><trkpt lat="43.7127677" lon="11.1879837"><ele>213.25</ele><time>2026-03-29T13:20:38.144Z</time></trkpt><trkpt lat="43.7126974" lon="11.188161"><ele>213.5</ele><time>2026-03-29T13:20:39.144Z</time></trkpt><trkpt lat="43.7126641" lon="11.1883407"><ele>213.75</ele><time>2026-03-29T13:20:40.144Z</time></trkpt><trkpt lat="43.7126323" lon="11.1885223"><ele>214.0</ele><time>2026-03-29T13:20:41.144Z</time></trkpt><trkpt lat="43.712578" lon="11.1887118"><ele>214.0</ele><time>2026-03-29T13:20:42.144Z</time></trkpt><trkpt lat="43.7124941" lon="11.1888754"><ele>214.0</ele><time>2026-03-29T13:20:43.144Z</time></trkpt><trkpt lat="43.7123698" lon="11.1890013"><ele>214.0</ele><time>2026-03-29T13:20:44.144Z</time></trkpt><trkpt lat="43.7122435" lon="11.1890835"><ele>214.0</ele><time>2026-03-29T13:20:45.144Z</time></trkpt><trkpt lat="43.7121237" lon="11.1891403"><ele>214.5</ele><time>2026-03-29T13:20:46.144Z</time></trkpt><trkpt lat="43.7119863" lon="11.1891525"><ele>215.0</ele><time>2026-03-29T13:20:47.144Z</time></trkpt><trkpt lat="43.7118578" lon="11.1891584"><ele>215.5</ele><time>2026-03-29T13:20:48.144Z</time></trkpt><trkpt lat="43.7117361" lon="11.1891687"><ele>216.0</ele><time>2026-03-29T13:20:49.144Z</time></trkpt><trkpt lat="43.71162" lon="11.1891816"><ele>216.0</ele><time>2026-03-29T13:20:50.143Z</time></trkpt><trkpt lat="43.7115006" lon="11.189185"><ele>216.0</ele><time>2026-03-29T13:20:51.144Z</time></trkpt><trkpt lat="43.7113835" lon="11.1891822"><ele>216.0</ele><time>2026-03-29T13:20:52.144Z</time></trkpt><trkpt lat="43.7112637" lon="11.1891757"><ele>216.0</ele><time>2026-03-29T13:20:53.144Z</time></trkpt><trkpt lat="43.711143" lon="11.189155"><ele>215.5</ele><time>2026-03-29T13:20:54.143Z</time></trkpt><trkpt lat="43.7110187" lon="11.1891087"><ele>215.0</ele><time>2026-03-29T13:20:55.144Z</time></trkpt><trkpt lat="43.7108982" lon="11.1890569"><ele>214.5</ele><time>2026-03-29T13:20:56.144Z</time></trkpt><trkpt lat="43.7107756" lon="11.1890129"><ele>214.0</ele><time>2026-03-29T13:20:57.144Z</time></trkpt><trkpt lat="43.7106524" lon="11.188962"><ele>213.75</ele><time>2026-03-29T13:20:58.144Z</time></trkpt><trkpt lat="43.7105245" lon="11.1889124"><ele>213.5</ele><time>2026-03-29T13:20:59.144Z</time></trkpt><trkpt lat="43.7103935" lon="11.1888519"><ele>213.25</ele><time>2026-03-29T13:21:00.143Z</time></trkpt><trkpt lat="43.7102657" lon="11.1887715"><ele>213.0</ele><time>2026-03-29T13:21:01.144Z</time></trkpt><trkpt lat="43.7101557" lon="11.1886837"><ele>213.0</ele><time>2026-03-29T13:21:02.144Z</time></trkpt><trkpt lat="43.7100427" lon="11.1885949"><ele>213.0</ele><time>2026-03-29T13:21:03.144Z</time></trkpt><trkpt lat="43.7099222" lon="11.1885"><ele>213.0</ele><time>2026-03-29T13:21:04.144Z</time></trkpt><trkpt lat="43.7097883" lon="11.1883973"><ele>213.0</ele><time>2026-03-29T13:21:05.144Z</time></trkpt><trkpt lat="43.7096526" lon="11.1882934"><ele>213.0</ele><time>2026-03-29T13:21:06.144Z</time></trkpt><trkpt lat="43.7095195" lon="11.1881816"><ele>213.0</ele><time>2026-03-29T13:21:07.144Z</time></trkpt><trkpt lat="43.709394" lon="11.1880657"><ele>213.0</ele><time>2026-03-29T13:21:08.144Z</time></trkpt><trkpt lat="43.7092765" lon="11.1879615"><ele>213.0</ele><time>2026-03-29T13:21:09.144Z</time></trkpt><trkpt lat="43.7091651" lon="11.1878644"><ele>213.0</ele><time>2026-03-29T13:21:10.144Z</time></trkpt><trkpt lat="43.7090638" lon="11.1877681"><ele>213.0</ele><time>2026-03-29T13:21:11.144Z</time></trkpt><trkpt lat="43.7089521" lon="11.1876763"><ele>213.0</ele><time>2026-03-29T13:21:12.144Z</time></trkpt><trkpt lat="43.7088575" lon="11.1875806"><ele>213.0</ele><time>2026-03-29T13:21:13.144Z</time></trkpt><trkpt lat="43.7087682" lon="11.1874902"><ele>213.0</ele><time>2026-03-29T13:21:14.144Z</time></trkpt><trkpt lat="43.7086831" lon="11.1874078"><ele>213.0</ele><time>2026-03-29T13:21:15.144Z</time></trkpt><trkpt lat="43.7086017" lon="11.1873319"><ele>213.0</ele><time>2026-03-29T13:21:16.144Z</time></trkpt><trkpt lat="43.7085132" lon="11.1872511"><ele>213.0</ele><time>2026-03-29T13:21:17.144Z</time></trkpt><trkpt lat="43.708418" lon="11.1871755"><ele>213.0</ele><time>2026-03-29T13:21:18.144Z</time></trkpt><trkpt lat="43.7083093" lon="11.1871154"><ele>214.0</ele><time>2026-03-29T13:21:19.144Z</time></trkpt><trkpt lat="43.7081835" lon="11.187074"><ele>215.0</ele><time>2026-03-29T13:21:20.144Z</time></trkpt><trkpt lat="43.7080457" lon="11.187047"><ele>216.0</ele><time>2026-03-29T13:21:21.144Z</time></trkpt><trkpt lat="43.707921" lon="11.1870134"><ele>217.0</ele><time>2026-03-29T13:21:22.144Z</time></trkpt><trkpt lat="43.7077961" lon="11.1869823"><ele>218.5</ele><time>2026-03-29T13:21:23.144Z</time></trkpt><trkpt lat="43.7076733" lon="11.186951"><ele>220.0</ele><time>2026-03-29T13:21:24.144Z</time></trkpt><trkpt lat="43.7075499" lon="11.1869214"><ele>221.5</ele><time>2026-03-29T13:21:25.144Z</time></trkpt><trkpt lat="43.7074316" lon="11.1868922"><ele>223.0</ele><time>2026-03-29T13:21:26.144Z</time></trkpt><trkpt lat="43.7073077" lon="11.18686"><ele>223.0</ele><time>2026-03-29T13:21:27.144Z</time></trkpt><trkpt lat="43.7071869" lon="11.1868251"><ele>223.0</ele><time>2026-03-29T13:21:28.144Z</time></trkpt><trkpt lat="43.7070701" lon="11.1867802"><ele>223.0</ele><time>2026-03-29T13:21:29.144Z</time></trkpt><trkpt lat="43.706946" lon="11.186722"><ele>223.0</ele><time>2026-03-29T13:21:30.144Z</time></trkpt><trkpt lat="43.706821" lon="11.1866334"><ele>224.0</ele><time>2026-03-29T13:21:31.144Z</time></trkpt><trkpt lat="43.7067051" lon="11.1865404"><ele>225.0</ele><time>2026-03-29T13:21:32.144Z</time></trkpt><trkpt lat="43.7065941" lon="11.1864466"><ele>226.0</ele><time>2026-03-29T13:21:33.144Z</time></trkpt><trkpt lat="43.7064635" lon="11.1863881"><ele>227.0</ele><time>2026-03-29T13:21:34.144Z</time></trkpt><trkpt lat="43.7063227" lon="11.1863541"><ele>228.0</ele><time>2026-03-29T13:21:35.144Z</time></trkpt><trkpt lat="43.7061792" lon="11.1863376"><ele>229.0</ele><time>2026-03-29T13:21:36.144Z</time></trkpt><trkpt lat="43.706034" lon="11.1863234"><ele>230.0</ele><time>2026-03-29T13:21:37.144Z</time></trkpt><trkpt lat="43.7058967" lon="11.1863085"><ele>231.0</ele><time>2026-03-29T13:21:38.144Z</time></trkpt><trkpt lat="43.7057686" lon="11.186297"><ele>231.75</ele><time>2026-03-29T13:21:39.145Z</time></trkpt><trkpt lat="43.7056447" lon="11.1862799"><ele>232.5</ele><time>2026-03-29T13:21:40.145Z</time></trkpt><trkpt lat="43.7055296" lon="11.1862349"><ele>233.25</ele><time>2026-03-29T13:21:41.144Z</time></trkpt><trkpt lat="43.7054225" lon="11.1861886"><ele>234.0</ele><time>2026-03-29T13:21:42.145Z</time></trkpt><trkpt lat="43.7053201" lon="11.1861372"><ele>233.66666666666666</ele><time>2026-03-29T13:21:43.145Z</time></trkpt><trkpt lat="43.7052245" lon="11.1860762"><ele>233.33333333333331</ele><time>2026-03-29T13:21:44.145Z</time></trkpt><trkpt lat="43.7051362" lon="11.1860208"><ele>233.0</ele><time>2026-03-29T13:21:45.145Z</time></trkpt><trkpt lat="43.7050647" lon="11.1859787"><ele>232.66666666666666</ele><time>2026-03-29T13:21:46.145Z</time></trkpt><trkpt lat="43.7050045" lon="11.1859449"><ele>232.33333333333331</ele><time>2026-03-29T13:21:47.145Z</time></trkpt><trkpt lat="43.704947" lon="11.1858993"><ele>232.0</ele><time>2026-03-29T13:21:48.145Z</time></trkpt><trkpt lat="43.704862" lon="11.1858742"><ele>232.0</ele><time>2026-03-29T13:21:49.145Z</time></trkpt><trkpt lat="43.7047622" lon="11.1858661"><ele>232.0</ele><time>2026-03-29T13:21:50.145Z</time></trkpt><trkpt lat="43.7046467" lon="11.1858486"><ele>232.0</ele><time>2026-03-29T13:21:51.145Z</time></trkpt><trkpt lat="43.7045026" lon="11.1858189"><ele>232.0</ele><time>2026-03-29T13:21:52.145Z</time></trkpt><trkpt lat="43.70436" lon="11.1857732"><ele>232.5</ele><time>2026-03-29T13:21:53.145Z</time></trkpt><trkpt lat="43.704219" lon="11.1857402"><ele>233.0</ele><time>2026-03-29T13:21:54.144Z</time></trkpt><trkpt lat="43.7040768" lon="11.1857217"><ele>233.5</ele><time>2026-03-29T13:21:55.145Z</time></trkpt><trkpt lat="43.7039217" lon="11.1857168"><ele>234.0</ele><time>2026-03-29T13:21:56.145Z</time></trkpt><trkpt lat="43.7037706" lon="11.1857168"><ele>234.0</ele><time>2026-03-29T13:21:57.145Z</time></trkpt><trkpt lat="43.7036156" lon="11.1857097"><ele>234.0</ele><time>2026-03-29T13:21:58.145Z</time></trkpt><trkpt lat="43.7034605" lon="11.1857066"><ele>234.0</ele><time>2026-03-29T13:21:59.145Z</time></trkpt><trkpt lat="43.7032997" lon="11.1856984"><ele>234.0</ele><time>2026-03-29T13:22:00.145Z</time></trkpt><trkpt lat="43.7031247" lon="11.1857018"><ele>234.0</ele><time>2026-03-29T13:22:01.145Z</time></trkpt><trkpt lat="43.7029484" lon="11.1857145"><ele>234.0</ele><time>2026-03-29T13:22:02.145Z</time></trkpt><trkpt lat="43.7027781" lon="11.1857499"><ele>233.33333333333331</ele><time>2026-03-29T13:22:03.145Z</time></trkpt><trkpt lat="43.7026164" lon="11.1858007"><ele>232.66666666666666</ele><time>2026-03-29T13:22:04.145Z</time></trkpt><trkpt lat="43.7024618" lon="11.1858633"><ele>232.0</ele><time>2026-03-29T13:22:05.145Z</time></trkpt><trkpt lat="43.7023148" lon="11.185899"><ele>232.0</ele><time>2026-03-29T13:22:06.144Z</time></trkpt><trkpt lat="43.7021729" lon="11.185909"><ele>232.0</ele><time>2026-03-29T13:22:07.145Z</time></trkpt><trkpt lat="43.7020592" lon="11.1859028"><ele>232.0</ele><time>2026-03-29T13:22:08.145Z</time></trkpt><trkpt lat="43.7019554" lon="11.1858625"><ele>232.0</ele><time>2026-03-29T13:22:09.145Z</time></trkpt><trkpt lat="43.7018421" lon="11.1857991"><ele>232.66666666666666</ele><time>2026-03-29T13:22:10.145Z</time></trkpt><trkpt lat="43.7017018" lon="11.1857167"><ele>233.33333333333331</ele><time>2026-03-29T13:22:11.145Z</time></trkpt><trkpt lat="43.7015665" lon="11.1856244"><ele>234.0</ele><time>2026-03-29T13:22:12.144Z</time></trkpt><trkpt lat="43.7014208" lon="11.1855471"><ele>234.0</ele><time>2026-03-29T13:22:13.145Z</time></trkpt><trkpt lat="43.7012751" lon="11.1854571"><ele>234.0</ele><time>2026-03-29T13:22:14.145Z</time></trkpt><trkpt lat="43.7011316" lon="11.1853661"><ele>234.0</ele><time>2026-03-29T13:22:15.145Z</time></trkpt><trkpt lat="43.7009815" lon="11.1852699"><ele>233.66666666666669</ele><time>2026-03-29T13:22:16.145Z</time></trkpt><trkpt lat="43.7008244" lon="11.185176"><ele>233.33333333333334</ele><time>2026-03-29T13:22:17.145Z</time></trkpt><trkpt lat="43.7006634" lon="11.1850864"><ele>233.0</ele><time>2026-03-29T13:22:18.145Z</time></trkpt><trkpt lat="43.7004947" lon="11.1850068"><ele>233.0</ele><time>2026-03-29T13:22:19.145Z</time></trkpt><trkpt lat="43.7003136" lon="11.1849512"><ele>233.0</ele><time>2026-03-29T13:22:20.145Z</time></trkpt><trkpt lat="43.7001244" lon="11.1849124"><ele>233.0</ele><time>2026-03-29T13:22:21.145Z</time></trkpt><trkpt lat="43.6999369" lon="11.1848889"><ele>233.33333333333334</ele><time>2026-03-29T13:22:22.145Z</time></trkpt><trkpt lat="43.6997568" lon="11.1848667"><ele>233.66666666666669</ele><time>2026-03-29T13:22:23.145Z</time></trkpt><trkpt lat="43.6995758" lon="11.1848702"><ele>234.0</ele><time>2026-03-29T13:22:24.145Z</time></trkpt><trkpt lat="43.6994034" lon="11.1849237"><ele>234.0</ele><time>2026-03-29T13:22:25.145Z</time></trkpt><trkpt lat="43.6992408" lon="11.1850144"><ele>234.0</ele><time>2026-03-29T13:22:26.145Z</time></trkpt><trkpt lat="43.6990903" lon="11.1850871"><ele>234.0</ele><time>2026-03-29T13:22:27.145Z</time></trkpt><trkpt lat="43.698941" lon="11.1851143"><ele>234.0</ele><time>2026-03-29T13:22:28.145Z</time></trkpt><trkpt lat="43.6987978" lon="11.1850625"><ele>234.0</ele><time>2026-03-29T13:22:29.145Z</time></trkpt><trkpt lat="43.6986584" lon="11.1849609"><ele>234.0</ele><time>2026-03-29T13:22:30.145Z</time></trkpt><trkpt lat="43.6985371" lon="11.1847731"><ele>235.66666666666669</ele><time>2026-03-29T13:22:31.145Z</time></trkpt><trkpt lat="43.6984387" lon="11.1845803"><ele>237.33333333333334</ele><time>2026-03-29T13:22:32.145Z</time></trkpt><trkpt lat="43.6983005" lon="11.1844171"><ele>239.0</ele><time>2026-03-29T13:22:33.145Z</time></trkpt><trkpt lat="43.698135" lon="11.1842971"><ele>239.0</ele><time>2026-03-29T13:22:34.145Z</time></trkpt><trkpt lat="43.6979706" lon="11.1842137"><ele>239.0</ele><time>2026-03-29T13:22:35.145Z</time></trkpt><trkpt lat="43.6978026" lon="11.1841331"><ele>239.0</ele><time>2026-03-29T13:22:36.144Z</time></trkpt><trkpt lat="43.697615" lon="11.1840727"><ele>238.66666666666669</ele><time>2026-03-29T13:22:37.145Z</time></trkpt><trkpt lat="43.6974024" lon="11.1840194"><ele>238.33333333333331</ele><time>2026-03-29T13:22:38.145Z</time></trkpt><trkpt lat="43.6971906" lon="11.1839773"><ele>238.0</ele><time>2026-03-29T13:22:39.145Z</time></trkpt><trkpt lat="43.6969955" lon="11.1839489"><ele>237.33333333333331</ele><time>2026-03-29T13:22:40.145Z</time></trkpt><trkpt lat="43.6968015" lon="11.1839501"><ele>236.66666666666669</ele><time>2026-03-29T13:22:41.145Z</time></trkpt><trkpt lat="43.6966087" lon="11.1839803"><ele>236.0</ele><time>2026-03-29T13:22:42.145Z</time></trkpt><trkpt lat="43.6964247" lon="11.1840112"><ele>237.66666666666669</ele><time>2026-03-29T13:22:43.145Z</time></trkpt><trkpt lat="43.6962404" lon="11.1840296"><ele>239.33333333333331</ele><time>2026-03-29T13:22:44.145Z</time></trkpt><trkpt lat="43.6960556" lon="11.184046"><ele>241.0</ele><time>2026-03-29T13:22:45.145Z</time></trkpt><trkpt lat="43.6958524" lon="11.1840217"><ele>241.0</ele><time>2026-03-29T13:22:46.145Z</time></trkpt><trkpt lat="43.6956322" lon="11.1840218"><ele>241.0</ele><time>2026-03-29T13:22:47.144Z</time></trkpt><trkpt lat="43.6954096" lon="11.1840379"><ele>241.0</ele><time>2026-03-29T13:22:48.145Z</time></trkpt><trkpt lat="43.6951786" lon="11.1840823"><ele>239.5</ele><time>2026-03-29T13:22:49.145Z</time></trkpt><trkpt lat="43.6949464" lon="11.1841496"><ele>238.0</ele><time>2026-03-29T13:22:50.145Z</time></trkpt><trkpt lat="43.6947325" lon="11.1842282"><ele>238.0</ele><time>2026-03-29T13:22:51.145Z</time></trkpt><trkpt lat="43.694533" lon="11.1843104"><ele>238.0</ele><time>2026-03-29T13:22:52.145Z</time></trkpt><trkpt lat="43.6943562" lon="11.1843618"><ele>238.0</ele><time>2026-03-29T13:22:53.145Z</time></trkpt><trkpt lat="43.6941901" lon="11.1843482"><ele>238.33333333333331</ele><time>2026-03-29T13:22:54.145Z</time></trkpt><trkpt lat="43.694025" lon="11.1842934"><ele>238.66666666666669</ele><time>2026-03-29T13:22:55.145Z</time></trkpt><trkpt lat="43.6938707" lon="11.1841855"><ele>239.0</ele><time>2026-03-29T13:22:56.145Z</time></trkpt><trkpt lat="43.6937146" lon="11.18404"><ele>239.66666666666669</ele><time>2026-03-29T13:22:57.144Z</time></trkpt><trkpt lat="43.6935667" lon="11.1838615"><ele>240.33333333333331</ele><time>2026-03-29T13:22:58.145Z</time></trkpt><trkpt lat="43.6934117" lon="11.1836591"><ele>241.0</ele><time>2026-03-29T13:22:59.145Z</time></trkpt><trkpt lat="43.693248" lon="11.1834768"><ele>241.0</ele><time>2026-03-29T13:23:00.145Z</time></trkpt><trkpt lat="43.6930687" lon="11.1833046"><ele>241.0</ele><time>2026-03-29T13:23:01.145Z</time></trkpt><trkpt lat="43.6928865" lon="11.1831374"><ele>241.0</ele><time>2026-03-29T13:23:02.145Z</time></trkpt><trkpt lat="43.6926962" lon="11.1829544"><ele>241.5</ele><time>2026-03-29T13:23:03.145Z</time></trkpt><trkpt lat="43.6925065" lon="11.1827636"><ele>242.0</ele><time>2026-03-29T13:23:04.145Z</time></trkpt><trkpt lat="43.69232" lon="11.1826"><ele>242.0</ele><time>2026-03-29T13:23:05.145Z</time></trkpt><trkpt lat="43.6921328" lon="11.182438"><ele>242.0</ele><time>2026-03-29T13:23:06.145Z</time></trkpt><trkpt lat="43.6919771" lon="11.1823284"><ele>242.0</ele><time>2026-03-29T13:23:07.145Z</time></trkpt><trkpt lat="43.6918582" lon="11.1822954"><ele>241.33333333333334</ele><time>2026-03-29T13:23:08.145Z</time></trkpt><trkpt lat="43.6917676" lon="11.1822513"><ele>240.66666666666669</ele><time>2026-03-29T13:23:09.145Z</time></trkpt><trkpt lat="43.6917023" lon="11.1822194"><ele>240.0</ele><time>2026-03-29T13:23:10.145Z</time></trkpt><trkpt lat="43.6916342" lon="11.1821806"><ele>239.33333333333331</ele><time>2026-03-29T13:23:11.145Z</time></trkpt><trkpt lat="43.6915601" lon="11.1821492"><ele>238.66666666666666</ele><time>2026-03-29T13:23:12.145Z</time></trkpt><trkpt lat="43.6914864" lon="11.1821202"><ele>238.0</ele><time>2026-03-29T13:23:13.145Z</time></trkpt><trkpt lat="43.6914052" lon="11.1820926"><ele>238.0</ele><time>2026-03-29T13:23:14.145Z</time></trkpt><trkpt lat="43.6913216" lon="11.1820629"><ele>238.0</ele><time>2026-03-29T13:23:15.145Z</time></trkpt><trkpt lat="43.6912395" lon="11.1820269"><ele>238.0</ele><time>2026-03-29T13:23:16.145Z</time></trkpt><trkpt lat="43.6911552" lon="11.1819929"><ele>238.0</ele><time>2026-03-29T13:23:17.145Z</time></trkpt><trkpt lat="43.6910781" lon="11.181971"><ele>238.0</ele><time>2026-03-29T13:23:18.145Z</time></trkpt><trkpt lat="43.6909643" lon="11.1819689"><ele>240.0</ele><time>2026-03-29T13:23:20.145Z</time></trkpt><trkpt lat="43.6908585" lon="11.1819533"><ele>242.0</ele><time>2026-03-29T13:23:22.145Z</time></trkpt><trkpt lat="43.6907858" lon="11.1819239"><ele>244.0</ele><time>2026-03-29T13:23:24.145Z</time></trkpt><trkpt lat="43.6907796" lon="11.1817869"><ele>246.0</ele><time>2026-03-29T13:23:27.145Z</time></trkpt><trkpt lat="43.6907946" lon="11.1816454"><ele>248.0</ele><time>2026-03-29T13:23:29.145Z</time></trkpt><trkpt lat="43.6907673" lon="11.1815349"><ele>248.66666666666669</ele><time>2026-03-29T13:23:32.145Z</time></trkpt><trkpt lat="43.6905758" lon="11.18148"><ele>249.33333333333331</ele><time>2026-03-29T13:23:35.145Z</time></trkpt><trkpt lat="43.6904572" lon="11.1814593"><ele>250.0</ele><time>2026-03-29T13:23:36.145Z</time></trkpt><trkpt lat="43.6903226" lon="11.181408"><ele>252.0</ele><time>2026-03-29T13:23:37.145Z</time></trkpt><trkpt lat="43.6901763" lon="11.1813722"><ele>254.0</ele><time>2026-03-29T13:23:38.145Z</time></trkpt><trkpt lat="43.6900261" lon="11.1813189"><ele>256.0</ele><time>2026-03-29T13:23:39.145Z</time></trkpt><trkpt lat="43.6898724" lon="11.1812754"><ele>256.0</ele><time>2026-03-29T13:23:40.145Z</time></trkpt><trkpt lat="43.6897279" lon="11.181245"><ele>256.0</ele><time>2026-03-29T13:23:41.145Z</time></trkpt><trkpt lat="43.6895933" lon="11.1812261"><ele>256.0</ele><time>2026-03-29T13:23:42.145Z</time></trkpt><trkpt lat="43.6894645" lon="11.1812559"><ele>256.0</ele><time>2026-03-29T13:23:43.145Z</time></trkpt><trkpt lat="43.6893262" lon="11.1813189"><ele>256.75</ele><time>2026-03-29T13:23:44.145Z</time></trkpt><trkpt lat="43.6891814" lon="11.1814107"><ele>257.5</ele><time>2026-03-29T13:23:45.145Z</time></trkpt><trkpt lat="43.6890449" lon="11.1814923"><ele>258.25</ele><time>2026-03-29T13:23:46.145Z</time></trkpt><trkpt lat="43.6889252" lon="11.1815922"><ele>259.0</ele><time>2026-03-29T13:23:47.145Z</time></trkpt><trkpt lat="43.6888134" lon="11.1817496"><ele>259.66666666666663</ele><time>2026-03-29T13:23:48.145Z</time></trkpt><trkpt lat="43.6887104" lon="11.1819344"><ele>260.3333333333333</ele><time>2026-03-29T13:23:49.145Z</time></trkpt><trkpt lat="43.6886069" lon="11.1821159"><ele>261.0</ele><time>2026-03-29T13:23:50.145Z</time></trkpt><trkpt lat="43.6885011" lon="11.1823115"><ele>264.0</ele><time>2026-03-29T13:23:51.145Z</time></trkpt><trkpt lat="43.6884019" lon="11.1824988"><ele>267.0</ele><time>2026-03-29T13:23:52.145Z</time></trkpt><trkpt lat="43.6883095" lon="11.1826847"><ele>270.0</ele><time>2026-03-29T13:23:53.145Z</time></trkpt><trkpt lat="43.6882285" lon="11.1828753"><ele>270.0</ele><time>2026-03-29T13:23:54.145Z</time></trkpt><trkpt lat="43.68816" lon="11.1830575"><ele>270.0</ele><time>2026-03-29T13:23:55.145Z</time></trkpt><trkpt lat="43.6881076" lon="11.1832586"><ele>270.0</ele><time>2026-03-29T13:23:56.145Z</time></trkpt><trkpt lat="43.6880722" lon="11.183474"><ele>270.0</ele><time>2026-03-29T13:23:57.145Z</time></trkpt><trkpt lat="43.6880523" lon="11.1837028"><ele>270.0</ele><time>2026-03-29T13:23:58.145Z</time></trkpt><trkpt lat="43.6880283" lon="11.1839148"><ele>270.0</ele><time>2026-03-29T13:23:59.145Z</time></trkpt><trkpt lat="43.6879857" lon="11.184127"><ele>269.0</ele><time>2026-03-29T13:24:00.145Z</time></trkpt><trkpt lat="43.6879182" lon="11.1843188"><ele>268.0</ele><time>2026-03-29T13:24:01.145Z</time></trkpt><trkpt lat="43.6877963" lon="11.184467"><ele>267.0</ele><time>2026-03-29T13:24:02.145Z</time></trkpt><trkpt lat="43.6876528" lon="11.1845692"><ele>267.0</ele><time>2026-03-29T13:24:03.145Z</time></trkpt><trkpt lat="43.6875094" lon="11.1846406"><ele>267.0</ele><time>2026-03-29T13:24:04.145Z</time></trkpt><trkpt lat="43.6873526" lon="11.1846767"><ele>267.0</ele><time>2026-03-29T13:24:05.145Z</time></trkpt><trkpt lat="43.6871842" lon="11.1847067"><ele>267.0</ele><time>2026-03-29T13:24:06.145Z</time></trkpt><trkpt lat="43.6870113" lon="11.1847255"><ele>267.0</ele><time>2026-03-29T13:24:07.145Z</time></trkpt><trkpt lat="43.6868487" lon="11.1847196"><ele>267.0</ele><time>2026-03-29T13:24:08.145Z</time></trkpt><trkpt lat="43.6866862" lon="11.1847144"><ele>266.3333333333333</ele><time>2026-03-29T13:24:09.145Z</time></trkpt><trkpt lat="43.6865311" lon="11.1847074"><ele>265.66666666666663</ele><time>2026-03-29T13:24:10.145Z</time></trkpt><trkpt lat="43.6863739" lon="11.1847222"><ele>265.0</ele><time>2026-03-29T13:24:11.145Z</time></trkpt><trkpt lat="43.6862331" lon="11.1848061"><ele>265.66666666666663</ele><time>2026-03-29T13:24:12.145Z</time></trkpt><trkpt lat="43.6861025" lon="11.1849491"><ele>266.3333333333333</ele><time>2026-03-29T13:24:13.145Z</time></trkpt><trkpt lat="43.6859995" lon="11.1851565"><ele>267.0</ele><time>2026-03-29T13:24:14.145Z</time></trkpt><trkpt lat="43.6859292" lon="11.185355"><ele>267.0</ele><time>2026-03-29T13:24:15.145Z</time></trkpt><trkpt lat="43.6858702" lon="11.1855564"><ele>267.0</ele><time>2026-03-29T13:24:16.145Z</time></trkpt><trkpt lat="43.6858534" lon="11.1857671"><ele>267.0</ele><time>2026-03-29T13:24:17.145Z</time></trkpt><trkpt lat="43.6858781" lon="11.1860025"><ele>266.3333333333333</ele><time>2026-03-29T13:24:18.145Z</time></trkpt><trkpt lat="43.6859189" lon="11.1862385"><ele>265.66666666666663</ele><time>2026-03-29T13:24:19.145Z</time></trkpt><trkpt lat="43.6859553" lon="11.1864876"><ele>265.0</ele><time>2026-03-29T13:24:20.145Z</time></trkpt><trkpt lat="43.6859915" lon="11.1867454"><ele>265.0</ele><time>2026-03-29T13:24:21.145Z</time></trkpt><trkpt lat="43.686029" lon="11.1869986"><ele>265.0</ele><time>2026-03-29T13:24:22.145Z</time></trkpt><trkpt lat="43.6860646" lon="11.1872463"><ele>265.0</ele><time>2026-03-29T13:24:23.144Z</time></trkpt><trkpt lat="43.6860935" lon="11.1874768"><ele>264.66666666666663</ele><time>2026-03-29T13:24:24.145Z</time></trkpt><trkpt lat="43.6861221" lon="11.1876977"><ele>264.3333333333333</ele><time>2026-03-29T13:24:25.145Z</time></trkpt><trkpt lat="43.686136" lon="11.1879042"><ele>264.0</ele><time>2026-03-29T13:24:26.145Z</time></trkpt><trkpt lat="43.6861514" lon="11.1881105"><ele>263.5</ele><time>2026-03-29T13:24:27.145Z</time></trkpt><trkpt lat="43.6861699" lon="11.1883144"><ele>263.0</ele><time>2026-03-29T13:24:28.144Z</time></trkpt><trkpt lat="43.6861913" lon="11.1885032"><ele>262.5</ele><time>2026-03-29T13:24:29.145Z</time></trkpt><trkpt lat="43.6862101" lon="11.188682"><ele>262.0</ele><time>2026-03-29T13:24:30.145Z</time></trkpt><trkpt lat="43.6862237" lon="11.1888524"><ele>262.4</ele><time>2026-03-29T13:24:31.145Z</time></trkpt><trkpt lat="43.6862385" lon="11.189019"><ele>262.79999999999995</ele><time>2026-03-29T13:24:32.145Z</time></trkpt><trkpt lat="43.6862503" lon="11.1891772"><ele>263.2</ele><time>2026-03-29T13:24:33.145Z</time></trkpt><trkpt lat="43.686263" lon="11.1893252"><ele>263.59999999999997</ele><time>2026-03-29T13:24:34.145Z</time></trkpt><trkpt lat="43.6862747" lon="11.1894698"><ele>264.0</ele><time>2026-03-29T13:24:35.145Z</time></trkpt><trkpt lat="43.6862896" lon="11.189613"><ele>264.0</ele><time>2026-03-29T13:24:36.145Z</time></trkpt><trkpt lat="43.6863043" lon="11.1897596"><ele>264.0</ele><time>2026-03-29T13:24:37.145Z</time></trkpt><trkpt lat="43.6863199" lon="11.1899096"><ele>264.0</ele><time>2026-03-29T13:24:38.145Z</time></trkpt><trkpt lat="43.6863363" lon="11.1900511"><ele>264.0</ele><time>2026-03-29T13:24:39.145Z</time></trkpt><trkpt lat="43.6863483" lon="11.1901935"><ele>264.0</ele><time>2026-03-29T13:24:40.145Z</time></trkpt><trkpt lat="43.6863566" lon="11.1903364"><ele>263.59999999999997</ele><time>2026-03-29T13:24:41.145Z</time></trkpt><trkpt lat="43.6863662" lon="11.1904669"><ele>263.2</ele><time>2026-03-29T13:24:42.145Z</time></trkpt><trkpt lat="43.6863798" lon="11.190593"><ele>262.79999999999995</ele><time>2026-03-29T13:24:43.145Z</time></trkpt><trkpt lat="43.6863883" lon="11.1907157"><ele>262.4</ele><time>2026-03-29T13:24:44.145Z</time></trkpt><trkpt lat="43.6864014" lon="11.1908358"><ele>262.0</ele><time>2026-03-29T13:24:45.144Z</time></trkpt><trkpt lat="43.6864097" lon="11.1909539"><ele>261.8</ele><time>2026-03-29T13:24:46.145Z</time></trkpt><trkpt lat="43.6864059" lon="11.191076"><ele>261.6</ele><time>2026-03-29T13:24:47.145Z</time></trkpt><trkpt lat="43.6863706" lon="11.1911978"><ele>261.40000000000003</ele><time>2026-03-29T13:24:48.145Z</time></trkpt><trkpt lat="43.6863174" lon="11.1913256"><ele>261.2</ele><time>2026-03-29T13:24:49.145Z</time></trkpt><trkpt lat="43.6862518" lon="11.1914377"><ele>261.0</ele><time>2026-03-29T13:24:50.145Z</time></trkpt><trkpt lat="43.6861557" lon="11.191542"><ele>261.3333333333333</ele><time>2026-03-29T13:24:51.145Z</time></trkpt><trkpt lat="43.686034" lon="11.1916409"><ele>261.66666666666663</ele><time>2026-03-29T13:24:52.144Z</time></trkpt><trkpt lat="43.6858907" lon="11.1917227"><ele>262.0</ele><time>2026-03-29T13:24:53.145Z</time></trkpt><trkpt lat="43.6857316" lon="11.1917858"><ele>262.0</ele><time>2026-03-29T13:24:54.146Z</time></trkpt><trkpt lat="43.6855585" lon="11.1918583"><ele>262.0</ele><time>2026-03-29T13:24:55.146Z</time></trkpt><trkpt lat="43.6853761" lon="11.1919411"><ele>262.0</ele><time>2026-03-29T13:24:56.146Z</time></trkpt><trkpt lat="43.6851825" lon="11.1920363"><ele>260.66666666666663</ele><time>2026-03-29T13:24:57.146Z</time></trkpt><trkpt lat="43.6849784" lon="11.1921249"><ele>259.3333333333333</ele><time>2026-03-29T13:24:58.146Z</time></trkpt><trkpt lat="43.6847745" lon="11.1922126"><ele>258.0</ele><time>2026-03-29T13:24:59.146Z</time></trkpt><trkpt lat="43.6845619" lon="11.1923007"><ele>260.0</ele><time>2026-03-29T13:25:00.146Z</time></trkpt><trkpt lat="43.6843409" lon="11.1923851"><ele>262.0</ele><time>2026-03-29T13:25:01.146Z</time></trkpt><trkpt lat="43.6841204" lon="11.1924688"><ele>262.0</ele><time>2026-03-29T13:25:02.146Z</time></trkpt><trkpt lat="43.6838962" lon="11.1925484"><ele>262.0</ele><time>2026-03-29T13:25:03.145Z</time></trkpt><trkpt lat="43.683675" lon="11.1926244"><ele>264.3333333333333</ele><time>2026-03-29T13:25:04.146Z</time></trkpt><trkpt lat="43.6834728" lon="11.1926989"><ele>266.6666666666667</ele><time>2026-03-29T13:25:05.146Z</time></trkpt><trkpt lat="43.6832847" lon="11.19277"><ele>269.0</ele><time>2026-03-29T13:25:06.146Z</time></trkpt><trkpt lat="43.6831152" lon="11.192828"><ele>269.0</ele><time>2026-03-29T13:25:07.146Z</time></trkpt><trkpt lat="43.6829612" lon="11.192885"><ele>269.0</ele><time>2026-03-29T13:25:08.146Z</time></trkpt><trkpt lat="43.6828189" lon="11.1929314"><ele>269.0</ele><time>2026-03-29T13:25:09.146Z</time></trkpt><trkpt lat="43.6826711" lon="11.1929695"><ele>269.75</ele><time>2026-03-29T13:25:10.145Z</time></trkpt><trkpt lat="43.6825314" lon="11.1929984"><ele>270.5</ele><time>2026-03-29T13:25:11.146Z</time></trkpt><trkpt lat="43.6823976" lon="11.1930161"><ele>271.25</ele><time>2026-03-29T13:25:12.146Z</time></trkpt><trkpt lat="43.6822694" lon="11.1930307"><ele>272.0</ele><time>2026-03-29T13:25:13.146Z</time></trkpt><trkpt lat="43.6821438" lon="11.1930381"><ele>272.0</ele><time>2026-03-29T13:25:14.146Z</time></trkpt><trkpt lat="43.6820166" lon="11.1930691"><ele>272.0</ele><time>2026-03-29T13:25:15.146Z</time></trkpt><trkpt lat="43.6818858" lon="11.1931139"><ele>272.0</ele><time>2026-03-29T13:25:16.146Z</time></trkpt><trkpt lat="43.6817507" lon="11.1931668"><ele>272.0</ele><time>2026-03-29T13:25:17.146Z</time></trkpt><trkpt lat="43.6816113" lon="11.1932397"><ele>271.0</ele><time>2026-03-29T13:25:18.146Z</time></trkpt><trkpt lat="43.6814816" lon="11.1933124"><ele>270.0</ele><time>2026-03-29T13:25:19.146Z</time></trkpt><trkpt lat="43.6813654" lon="11.1933884"><ele>269.0</ele><time>2026-03-29T13:25:20.146Z</time></trkpt><trkpt lat="43.6812482" lon="11.1934424"><ele>268.0</ele><time>2026-03-29T13:25:21.146Z</time></trkpt><trkpt lat="43.6811437" lon="11.1934963"><ele>268.0</ele><time>2026-03-29T13:25:22.146Z</time></trkpt><trkpt lat="43.6810596" lon="11.193533"><ele>268.0</ele><time>2026-03-29T13:25:23.146Z</time></trkpt><trkpt lat="43.6809966" lon="11.1935628"><ele>268.0</ele><time>2026-03-29T13:25:24.146Z</time></trkpt><trkpt lat="43.6809171" lon="11.193591"><ele>268.0</ele><time>2026-03-29T13:25:26.146Z</time></trkpt><trkpt lat="43.6808783" lon="11.1937593"><ele>268.0</ele><time>2026-03-29T13:25:28.146Z</time></trkpt><trkpt lat="43.6809135" lon="11.1938684"><ele>268.0</ele><time>2026-03-29T13:25:29.146Z</time></trkpt><trkpt lat="43.6809661" lon="11.1940022"><ele>268.0</ele><time>2026-03-29T13:25:30.146Z</time></trkpt><trkpt lat="43.6810328" lon="11.1941575"><ele>268.0</ele><time>2026-03-29T13:25:31.146Z</time></trkpt><trkpt lat="43.681105" lon="11.1943322"><ele>268.0</ele><time>2026-03-29T13:25:32.146Z</time></trkpt><trkpt lat="43.681186" lon="11.1945328"><ele>266.66666666666663</ele><time>2026-03-29T13:25:33.146Z</time></trkpt><trkpt lat="43.6812643" lon="11.1947435"><ele>265.3333333333333</ele><time>2026-03-29T13:25:34.146Z</time></trkpt><trkpt lat="43.6813476" lon="11.1949707"><ele>264.0</ele><time>2026-03-29T13:25:35.146Z</time></trkpt><trkpt lat="43.6814372" lon="11.1952077"><ele>263.0</ele><time>2026-03-29T13:25:36.146Z</time></trkpt><trkpt lat="43.6815299" lon="11.1954497"><ele>262.0</ele><time>2026-03-29T13:25:37.146Z</time></trkpt><trkpt lat="43.6816491" lon="11.1956877"><ele>261.0</ele><time>2026-03-29T13:25:38.146Z</time></trkpt><trkpt lat="43.6817683" lon="11.1959172"><ele>261.0</ele><time>2026-03-29T13:25:39.146Z</time></trkpt><trkpt lat="43.6818868" lon="11.1961349"><ele>261.0</ele><time>2026-03-29T13:25:40.146Z</time></trkpt><trkpt lat="43.6819912" lon="11.1963399"><ele>261.0</ele><time>2026-03-29T13:25:41.146Z</time></trkpt><trkpt lat="43.6820868" lon="11.1965274"><ele>260.6666666666667</ele><time>2026-03-29T13:25:42.146Z</time></trkpt><trkpt lat="43.6821712" lon="11.1967057"><ele>260.33333333333337</ele><time>2026-03-29T13:25:43.146Z</time></trkpt><trkpt lat="43.6822688" lon="11.1968819"><ele>260.0</ele><time>2026-03-29T13:25:44.146Z</time></trkpt><trkpt lat="43.6823799" lon="11.1970345"><ele>260.0</ele><time>2026-03-29T13:25:45.146Z</time></trkpt><trkpt lat="43.6824882" lon="11.1971856"><ele>260.0</ele><time>2026-03-29T13:25:46.146Z</time></trkpt><trkpt lat="43.6825951" lon="11.1973323"><ele>260.0</ele><time>2026-03-29T13:25:47.146Z</time></trkpt><trkpt lat="43.682696" lon="11.1974822"><ele>258.33333333333337</ele><time>2026-03-29T13:25:48.146Z</time></trkpt><trkpt lat="43.6828034" lon="11.1976178"><ele>256.6666666666667</ele><time>2026-03-29T13:25:49.146Z</time></trkpt><trkpt lat="43.6829368" lon="11.1977092"><ele>255.0</ele><time>2026-03-29T13:25:50.146Z</time></trkpt><trkpt lat="43.6830958" lon="11.1977731"><ele>255.0</ele><time>2026-03-29T13:25:51.146Z</time></trkpt><trkpt lat="43.683247" lon="11.1978308"><ele>255.0</ele><time>2026-03-29T13:25:52.146Z</time></trkpt><trkpt lat="43.6833913" lon="11.1978911"><ele>255.0</ele><time>2026-03-29T13:25:53.146Z</time></trkpt><trkpt lat="43.6835267" lon="11.1979611"><ele>254.25</ele><time>2026-03-29T13:25:54.146Z</time></trkpt><trkpt lat="43.6836573" lon="11.1980473"><ele>253.5</ele><time>2026-03-29T13:25:55.146Z</time></trkpt><trkpt lat="43.6837899" lon="11.1981362"><ele>252.75</ele><time>2026-03-29T13:25:56.145Z</time></trkpt><trkpt lat="43.6839167" lon="11.1982429"><ele>252.0</ele><time>2026-03-29T13:25:57.146Z</time></trkpt><trkpt lat="43.684043" lon="11.1983385"><ele>252.0</ele><time>2026-03-29T13:25:58.146Z</time></trkpt><trkpt lat="43.6841697" lon="11.1984209"><ele>252.0</ele><time>2026-03-29T13:25:59.146Z</time></trkpt><trkpt lat="43.6843088" lon="11.1985297"><ele>252.0</ele><time>2026-03-29T13:26:00.146Z</time></trkpt><trkpt lat="43.684439" lon="11.198681"><ele>250.0</ele><time>2026-03-29T13:26:01.146Z</time></trkpt><trkpt lat="43.6845653" lon="11.1988438"><ele>248.0</ele><time>2026-03-29T13:26:02.146Z</time></trkpt><trkpt lat="43.6846788" lon="11.1990144"><ele>246.0</ele><time>2026-03-29T13:26:03.146Z</time></trkpt><trkpt lat="43.6847897" lon="11.1992006"><ele>246.0</ele><time>2026-03-29T13:26:04.146Z</time></trkpt><trkpt lat="43.6848982" lon="11.1993808"><ele>246.0</ele><time>2026-03-29T13:26:05.146Z</time></trkpt><trkpt lat="43.6850115" lon="11.1995599"><ele>246.0</ele><time>2026-03-29T13:26:06.146Z</time></trkpt><trkpt lat="43.6851381" lon="11.1997409"><ele>243.0</ele><time>2026-03-29T13:26:07.146Z</time></trkpt><trkpt lat="43.6852803" lon="11.1999056"><ele>240.0</ele><time>2026-03-29T13:26:08.146Z</time></trkpt><trkpt lat="43.6854271" lon="11.2000605"><ele>237.0</ele><time>2026-03-29T13:26:09.146Z</time></trkpt><trkpt lat="43.6855711" lon="11.2002044"><ele>237.0</ele><time>2026-03-29T13:26:10.146Z</time></trkpt><trkpt lat="43.6857159" lon="11.2003406"><ele>237.0</ele><time>2026-03-29T13:26:11.146Z</time></trkpt><trkpt lat="43.6858454" lon="11.2005055"><ele>237.0</ele><time>2026-03-29T13:26:12.146Z</time></trkpt><trkpt lat="43.685954" lon="11.2006724"><ele>235.33333333333331</ele><time>2026-03-29T13:26:13.146Z</time></trkpt><trkpt lat="43.686047" lon="11.2008484"><ele>233.66666666666666</ele><time>2026-03-29T13:26:14.146Z</time></trkpt><trkpt lat="43.6861309" lon="11.2010232"><ele>232.0</ele><time>2026-03-29T13:26:15.146Z</time></trkpt><trkpt lat="43.6862206" lon="11.2011895"><ele>228.75</ele><time>2026-03-29T13:26:16.146Z</time></trkpt><trkpt lat="43.6863136" lon="11.2013569"><ele>225.5</ele><time>2026-03-29T13:26:17.146Z</time></trkpt><trkpt lat="43.6864108" lon="11.2014995"><ele>222.25</ele><time>2026-03-29T13:26:18.146Z</time></trkpt><trkpt lat="43.6864864" lon="11.2016173"><ele>219.0</ele><time>2026-03-29T13:26:19.146Z</time></trkpt><trkpt lat="43.6865468" lon="11.2016855"><ele>219.0</ele><time>2026-03-29T13:26:20.146Z</time></trkpt><trkpt lat="43.6866137" lon="11.2017712"><ele>219.0</ele><time>2026-03-29T13:26:22.146Z</time></trkpt><trkpt lat="43.6866216" lon="11.2018974"><ele>219.0</ele><time>2026-03-29T13:26:25.146Z</time></trkpt><trkpt lat="43.686597" lon="11.2020183"><ele>219.0</ele><time>2026-03-29T13:26:27.146Z</time></trkpt><trkpt lat="43.6865647" lon="11.2021042"><ele>219.0</ele><time>2026-03-29T13:26:29.146Z</time></trkpt><trkpt lat="43.6865055" lon="11.2021963"><ele>219.0</ele><time>2026-03-29T13:26:32.146Z</time></trkpt><trkpt lat="43.6864263" lon="11.2021727"><ele>219.0</ele><time>2026-03-29T13:26:34.146Z</time></trkpt><trkpt lat="43.6863433" lon="11.2021223"><ele>219.0</ele><time>2026-03-29T13:26:36.146Z</time></trkpt><trkpt lat="43.6862775" lon="11.2020887"><ele>219.0</ele><time>2026-03-29T13:26:38.146Z</time></trkpt><trkpt lat="43.6862145" lon="11.2021042"><ele>219.0</ele><time>2026-03-29T13:26:41.146Z</time></trkpt><trkpt lat="43.6862746" lon="11.2021362"><ele>219.0</ele><time>2026-03-29T13:26:52.146Z</time></trkpt><trkpt lat="43.686341" lon="11.2021299"><ele>219.0</ele><time>2026-03-29T13:26:54.146Z</time></trkpt><trkpt lat="43.6864318" lon="11.2021765"><ele>219.0</ele><time>2026-03-29T13:26:56.146Z</time></trkpt><trkpt lat="43.6865056" lon="11.202181"><ele>219.0</ele><time>2026-03-29T13:26:58.146Z</time></trkpt><trkpt lat="43.6865498" lon="11.2021032"><ele>219.0</ele><time>2026-03-29T13:27:00.146Z</time></trkpt><trkpt lat="43.6865814" lon="11.2019716"><ele>219.0</ele><time>2026-03-29T13:27:02.146Z</time></trkpt><trkpt lat="43.686603" lon="11.2018747"><ele>219.0</ele><time>2026-03-29T13:27:04.146Z</time></trkpt><trkpt lat="43.6866622" lon="11.2018037"><ele>219.0</ele><time>2026-03-29T13:27:09.146Z</time></trkpt><trkpt lat="43.6867778" lon="11.2018657"><ele>219.0</ele><time>2026-03-29T13:27:11.146Z</time></trkpt><trkpt lat="43.686874" lon="11.2019094"><ele>218.99999999999997</ele><time>2026-03-29T13:27:12.146Z</time></trkpt><trkpt lat="43.6869796" lon="11.2019593"><ele>218.99999999999997</ele><time>2026-03-29T13:27:13.146Z</time></trkpt><trkpt lat="43.6870884" lon="11.2020191"><ele>219.0</ele><time>2026-03-29T13:27:14.146Z</time></trkpt><trkpt lat="43.6871997" lon="11.2020715"><ele>219.0</ele><time>2026-03-29T13:27:15.146Z</time></trkpt><trkpt lat="43.6873002" lon="11.2021077"><ele>218.5</ele><time>2026-03-29T13:27:16.146Z</time></trkpt><trkpt lat="43.687378" lon="11.2021481"><ele>218.0</ele><time>2026-03-29T13:27:17.146Z</time></trkpt><trkpt lat="43.6874833" lon="11.2022019"><ele>217.5</ele><time>2026-03-29T13:27:19.145Z</time></trkpt><trkpt lat="43.6875489" lon="11.2022631"><ele>217.0</ele><time>2026-03-29T13:27:21.146Z</time></trkpt><trkpt lat="43.6875895" lon="11.2023314"><ele>216.5</ele><time>2026-03-29T13:27:24.146Z</time></trkpt><trkpt lat="43.6875237" lon="11.2024057"><ele>216.0</ele><time>2026-03-29T13:27:28.146Z</time></trkpt><trkpt lat="43.6874261" lon="11.2024646"><ele>216.0</ele><time>2026-03-29T13:27:30.146Z</time></trkpt><trkpt lat="43.6873304" lon="11.2025174"><ele>216.0</ele><time>2026-03-29T13:27:32.146Z</time></trkpt><trkpt lat="43.6872297" lon="11.2026096"><ele>216.0</ele><time>2026-03-29T13:27:34.146Z</time></trkpt><trkpt lat="43.6871715" lon="11.20265"><ele>216.0</ele><time>2026-03-29T13:27:35.146Z</time></trkpt><trkpt lat="43.6871125" lon="11.2026912"><ele>216.0</ele><time>2026-03-29T13:27:36.146Z</time></trkpt><trkpt lat="43.6870542" lon="11.2027349"><ele>216.0</ele><time>2026-03-29T13:27:37.145Z</time></trkpt><trkpt lat="43.6869482" lon="11.2028163"><ele>217.66666666666666</ele><time>2026-03-29T13:27:39.146Z</time></trkpt><trkpt lat="43.686891" lon="11.2028575"><ele>219.33333333333331</ele><time>2026-03-29T13:27:40.146Z</time></trkpt><trkpt lat="43.6868302" lon="11.2028969"><ele>221.0</ele><time>2026-03-29T13:27:41.146Z</time></trkpt><trkpt lat="43.686762" lon="11.2029325"><ele>222.66666666666666</ele><time>2026-03-29T13:27:42.146Z</time></trkpt><trkpt lat="43.686652" lon="11.2030038"><ele>224.33333333333331</ele><time>2026-03-29T13:27:44.146Z</time></trkpt><trkpt lat="43.6865465" lon="11.2030812"><ele>226.0</ele><time>2026-03-29T13:27:46.146Z</time></trkpt><trkpt lat="43.6864446" lon="11.2031588"><ele>224.4</ele><time>2026-03-29T13:27:48.145Z</time></trkpt><trkpt lat="43.6863853" lon="11.2032996"><ele>222.8</ele><time>2026-03-29T13:27:50.146Z</time></trkpt><trkpt lat="43.6863841" lon="11.203476"><ele>221.20000000000002</ele><time>2026-03-29T13:27:52.146Z</time></trkpt><trkpt lat="43.6863878" lon="11.2035705"><ele>219.60000000000002</ele><time>2026-03-29T13:27:53.146Z</time></trkpt><trkpt lat="43.6863965" lon="11.2037318"><ele>218.0</ele><time>2026-03-29T13:27:55.146Z</time></trkpt><trkpt lat="43.6864064" lon="11.2038787"><ele>216.4</ele><time>2026-03-29T13:27:57.146Z</time></trkpt><trkpt lat="43.6864067" lon="11.2040254"><ele>214.8</ele><time>2026-03-29T13:27:59.146Z</time></trkpt><trkpt lat="43.6864289" lon="11.2042019"><ele>213.2</ele><time>2026-03-29T13:28:01.146Z</time></trkpt><trkpt lat="43.6864445" lon="11.2042988"><ele>211.6</ele><time>2026-03-29T13:28:02.146Z</time></trkpt><trkpt lat="43.6864617" lon="11.2044467"><ele>210.0</ele><time>2026-03-29T13:28:04.146Z</time></trkpt><trkpt lat="43.6864685" lon="11.2045978"><ele>210.0</ele><time>2026-03-29T13:28:06.146Z</time></trkpt><trkpt lat="43.6864886" lon="11.2047324"><ele>210.0</ele><time>2026-03-29T13:28:08.146Z</time></trkpt><trkpt lat="43.6865404" lon="11.2048269"><ele>210.0</ele><time>2026-03-29T13:28:10.146Z</time></trkpt><trkpt lat="43.6866036" lon="11.2048467"><ele>210.0</ele><time>2026-03-29T13:28:16.146Z</time></trkpt><trkpt lat="43.6866206" lon="11.2047598"><ele>210.0</ele><time>2026-03-29T13:28:19.146Z</time></trkpt><trkpt lat="43.6866245" lon="11.204652"><ele>210.0</ele><time>2026-03-29T13:28:21.146Z</time></trkpt><trkpt lat="43.6866046" lon="11.2045116"><ele>210.0</ele><time>2026-03-29T13:28:23.146Z</time></trkpt><trkpt lat="43.6866069" lon="11.2043698"><ele>210.0</ele><time>2026-03-29T13:28:25.146Z</time></trkpt><trkpt lat="43.6866311" lon="11.2042787"><ele>210.0</ele><time>2026-03-29T13:28:27.146Z</time></trkpt><trkpt lat="43.6867039" lon="11.2042673"><ele>210.0</ele><time>2026-03-29T13:28:29.146Z</time></trkpt><trkpt lat="43.6867649" lon="11.2043661"><ele>210.0</ele><time>2026-03-29T13:28:31.146Z</time></trkpt><trkpt lat="43.6867752" lon="11.2045376"><ele>210.0</ele><time>2026-03-29T13:28:33.146Z</time></trkpt><trkpt lat="43.6867761" lon="11.2046411"><ele>210.0</ele><time>2026-03-29T13:28:34.146Z</time></trkpt><trkpt lat="43.6867831" lon="11.2047558"><ele>210.0</ele><time>2026-03-29T13:28:35.146Z</time></trkpt><trkpt lat="43.686803" lon="11.204866"><ele>210.0</ele><time>2026-03-29T13:28:36.146Z</time></trkpt><trkpt lat="43.6868346" lon="11.2049722"><ele>210.0</ele><time>2026-03-29T13:28:37.145Z</time></trkpt><trkpt lat="43.6868735" lon="11.2050753"><ele>210.0</ele><time>2026-03-29T13:28:38.146Z</time></trkpt><trkpt lat="43.6869162" lon="11.2051861"><ele>206.33333333333334</ele><time>2026-03-29T13:28:39.146Z</time></trkpt><trkpt lat="43.686969" lon="11.2052945"><ele>202.66666666666666</ele><time>2026-03-29T13:28:40.146Z</time></trkpt><trkpt lat="43.6870229" lon="11.2053934"><ele>199.0</ele><time>2026-03-29T13:28:41.146Z</time></trkpt><trkpt lat="43.68707" lon="11.2054824"><ele>195.33333333333331</ele><time>2026-03-29T13:28:42.146Z</time></trkpt><trkpt lat="43.6871119" lon="11.2055714"><ele>191.66666666666666</ele><time>2026-03-29T13:28:43.146Z</time></trkpt><trkpt lat="43.6871511" lon="11.2056674"><ele>188.0</ele><time>2026-03-29T13:28:44.146Z</time></trkpt><trkpt lat="43.6871832" lon="11.2057786"><ele>188.0</ele><time>2026-03-29T13:28:45.146Z</time></trkpt><trkpt lat="43.6872039" lon="11.2058999"><ele>188.0</ele><time>2026-03-29T13:28:46.146Z</time></trkpt><trkpt lat="43.6872159" lon="11.2060162"><ele>188.0</ele><time>2026-03-29T13:28:47.146Z</time></trkpt><trkpt lat="43.6872208" lon="11.2061177"><ele>188.0</ele><time>2026-03-29T13:28:48.146Z</time></trkpt><trkpt lat="43.6872171" lon="11.2062956"><ele>188.0</ele><time>2026-03-29T13:28:50.146Z</time></trkpt><trkpt lat="43.6872062" lon="11.206413"><ele>187.33333333333331</ele><time>2026-03-29T13:28:52.146Z</time></trkpt><trkpt lat="43.687146" lon="11.2065021"><ele>186.66666666666666</ele><time>2026-03-29T13:28:54.146Z</time></trkpt><trkpt lat="43.6870907" lon="11.2065451"><ele>186.0</ele><time>2026-03-29T13:28:55.146Z</time></trkpt><trkpt lat="43.6869983" lon="11.2066229"><ele>185.33333333333334</ele><time>2026-03-29T13:28:57.145Z</time></trkpt><trkpt lat="43.6869365" lon="11.2066672"><ele>184.66666666666669</ele><time>2026-03-29T13:28:58.146Z</time></trkpt><trkpt lat="43.6868752" lon="11.2067154"><ele>184.0</ele><time>2026-03-29T13:28:59.146Z</time></trkpt><trkpt lat="43.6868134" lon="11.2067713"><ele>185.5</ele><time>2026-03-29T13:29:00.146Z</time></trkpt><trkpt lat="43.6867558" lon="11.2068395"><ele>187.0</ele><time>2026-03-29T13:29:01.146Z</time></trkpt><trkpt lat="43.6867119" lon="11.2069058"><ele>188.5</ele><time>2026-03-29T13:29:02.146Z</time></trkpt><trkpt lat="43.6866556" lon="11.2070345"><ele>190.0</ele><time>2026-03-29T13:29:04.146Z</time></trkpt><trkpt lat="43.6866344" lon="11.2071206"><ele>191.49999999999997</ele><time>2026-03-29T13:29:05.146Z</time></trkpt><trkpt lat="43.6866089" lon="11.2072145"><ele>193.0</ele><time>2026-03-29T13:29:06.146Z</time></trkpt><trkpt lat="43.6865785" lon="11.2072933"><ele>191.2857142857143</ele><time>2026-03-29T13:29:07.146Z</time></trkpt><trkpt lat="43.686536" lon="11.2073789"><ele>189.57142857142858</ele><time>2026-03-29T13:29:08.146Z</time></trkpt><trkpt lat="43.686492" lon="11.207448"><ele>187.85714285714286</ele><time>2026-03-29T13:29:09.146Z</time></trkpt><trkpt lat="43.686446" lon="11.2075087"><ele>186.14285714285717</ele><time>2026-03-29T13:29:10.145Z</time></trkpt><trkpt lat="43.6863926" lon="11.2075725"><ele>184.42857142857142</ele><time>2026-03-29T13:29:11.146Z</time></trkpt><trkpt lat="43.6863292" lon="11.2076308"><ele>182.71428571428572</ele><time>2026-03-29T13:29:12.146Z</time></trkpt><trkpt lat="43.6862681" lon="11.2076747"><ele>181.0</ele><time>2026-03-29T13:29:13.146Z</time></trkpt><trkpt lat="43.6861916" lon="11.2077115"><ele>181.0</ele><time>2026-03-29T13:29:14.146Z</time></trkpt><trkpt lat="43.6861079" lon="11.2077568"><ele>181.0</ele><time>2026-03-29T13:29:15.146Z</time></trkpt><trkpt lat="43.686026" lon="11.2078013"><ele>181.0</ele><time>2026-03-29T13:29:16.146Z</time></trkpt><trkpt lat="43.685933" lon="11.2078399"><ele>181.0</ele><time>2026-03-29T13:29:17.146Z</time></trkpt><trkpt lat="43.6858501" lon="11.2078863"><ele>181.0</ele><time>2026-03-29T13:29:18.146Z</time></trkpt><trkpt lat="43.6857664" lon="11.2079358"><ele>181.0</ele><time>2026-03-29T13:29:19.146Z</time></trkpt><trkpt lat="43.6856837" lon="11.207987"><ele>181.0</ele><time>2026-03-29T13:29:20.146Z</time></trkpt><trkpt lat="43.6856001" lon="11.2080431"><ele>181.0</ele><time>2026-03-29T13:29:21.146Z</time></trkpt><trkpt lat="43.6855093" lon="11.2081031"><ele>181.0</ele><time>2026-03-29T13:29:22.146Z</time></trkpt><trkpt lat="43.6854291" lon="11.2081418"><ele>181.0</ele><time>2026-03-29T13:29:23.146Z</time></trkpt><trkpt lat="43.6853134" lon="11.2081587"><ele>179.4</ele><time>2026-03-29T13:29:25.146Z</time></trkpt><trkpt lat="43.6852143" lon="11.2081672"><ele>177.8</ele><time>2026-03-29T13:29:27.146Z</time></trkpt><trkpt lat="43.685121" lon="11.2082026"><ele>176.20000000000002</ele><time>2026-03-29T13:29:29.146Z</time></trkpt><trkpt lat="43.6850837" lon="11.2083114"><ele>174.60000000000002</ele><time>2026-03-29T13:29:31.146Z</time></trkpt><trkpt lat="43.6850635" lon="11.2084305"><ele>173.0</ele><time>2026-03-29T13:29:33.146Z</time></trkpt><trkpt lat="43.6849955" lon="11.2085078"><ele>173.0</ele><time>2026-03-29T13:29:36.146Z</time></trkpt><trkpt lat="43.684902" lon="11.2085227"><ele>173.0</ele><time>2026-03-29T13:29:38.146Z</time></trkpt><trkpt lat="43.6847782" lon="11.208525"><ele>173.0</ele><time>2026-03-29T13:29:40.146Z</time></trkpt><trkpt lat="43.6846741" lon="11.2086123"><ele>173.0</ele><time>2026-03-29T13:29:42.146Z</time></trkpt><trkpt lat="43.6846419" lon="11.2087079"><ele>173.0</ele><time>2026-03-29T13:29:43.146Z</time></trkpt><trkpt lat="43.6846066" lon="11.2088076"><ele>173.0</ele><time>2026-03-29T13:29:44.146Z</time></trkpt><trkpt lat="43.6845743" lon="11.2089069"><ele>173.0</ele><time>2026-03-29T13:29:45.146Z</time></trkpt><trkpt lat="43.6845367" lon="11.2090057"><ele>173.0</ele><time>2026-03-29T13:29:46.145Z</time></trkpt><trkpt lat="43.6844972" lon="11.2090982"><ele>173.0</ele><time>2026-03-29T13:29:47.146Z</time></trkpt><trkpt lat="43.6844613" lon="11.2091741"><ele>173.0</ele><time>2026-03-29T13:29:48.146Z</time></trkpt><trkpt lat="43.684423" lon="11.2092597"><ele>173.0</ele><time>2026-03-29T13:29:49.146Z</time></trkpt><trkpt lat="43.6843804" lon="11.2093432"><ele>173.0</ele><time>2026-03-29T13:29:50.146Z</time></trkpt><trkpt lat="43.68433" lon="11.20942"><ele>170.33333333333331</ele><time>2026-03-29T13:29:51.146Z</time></trkpt><trkpt lat="43.6842818" lon="11.2094804"><ele>167.66666666666666</ele><time>2026-03-29T13:29:52.146Z</time></trkpt><trkpt lat="43.6842006" lon="11.2096012"><ele>165.0</ele><time>2026-03-29T13:29:54.146Z</time></trkpt><trkpt lat="43.6841449" lon="11.209714"><ele>162.33333333333334</ele><time>2026-03-29T13:29:56.146Z</time></trkpt><trkpt lat="43.6841167" lon="11.2098235"><ele>159.66666666666669</ele><time>2026-03-29T13:29:58.146Z</time></trkpt><trkpt lat="43.684077" lon="11.2099001"><ele>157.0</ele><time>2026-03-29T13:30:00.146Z</time></trkpt><trkpt lat="43.6840118" lon="11.2098691"><ele>156.0</ele><time>2026-03-29T13:30:03.145Z</time></trkpt><trkpt lat="43.6840158" lon="11.2097778"><ele>155.0</ele><time>2026-03-29T13:31:49.146Z</time></trkpt><trkpt lat="43.684037" lon="11.2096229"><ele>154.0</ele><time>2026-03-29T13:31:51.146Z</time></trkpt><trkpt lat="43.6840532" lon="11.2095378"><ele>153.0</ele><time>2026-03-29T13:31:52.146Z</time></trkpt><trkpt lat="43.6840771" lon="11.2094268"><ele>152.0</ele><time>2026-03-29T13:31:53.146Z</time></trkpt><trkpt lat="43.6841046" lon="11.2093064"><ele>151.0</ele><time>2026-03-29T13:31:54.146Z</time></trkpt><trkpt lat="43.6841302" lon="11.2092019"><ele>151.0</ele><time>2026-03-29T13:31:55.146Z</time></trkpt><trkpt lat="43.6841467" lon="11.2090827"><ele>151.0</ele><time>2026-03-29T13:31:56.146Z</time></trkpt><trkpt lat="43.6841577" lon="11.2089754"><ele>151.0</ele><time>2026-03-29T13:31:57.146Z</time></trkpt><trkpt lat="43.6841582" lon="11.2088661"><ele>151.0</ele><time>2026-03-29T13:31:58.146Z</time></trkpt><trkpt lat="43.6841572" lon="11.208762"><ele>151.0</ele><time>2026-03-29T13:31:59.146Z</time></trkpt><trkpt lat="43.6841497" lon="11.2086612"><ele>151.0</ele><time>2026-03-29T13:32:00.146Z</time></trkpt><trkpt lat="43.6841537" lon="11.2085534"><ele>151.00000000000003</ele><time>2026-03-29T13:32:01.146Z</time></trkpt><trkpt lat="43.6841742" lon="11.2084514"><ele>151.0</ele><time>2026-03-29T13:32:02.146Z</time></trkpt><trkpt lat="43.6841984" lon="11.2083647"><ele>151.0</ele><time>2026-03-29T13:32:03.146Z</time></trkpt><trkpt lat="43.6842302" lon="11.2082865"><ele>151.0</ele><time>2026-03-29T13:32:04.145Z</time></trkpt><trkpt lat="43.6842624" lon="11.2082012"><ele>151.0</ele><time>2026-03-29T13:32:05.146Z</time></trkpt><trkpt lat="43.6842901" lon="11.2081196"><ele>151.00000000000003</ele><time>2026-03-29T13:32:06.145Z</time></trkpt><trkpt lat="43.684311" lon="11.2080202"><ele>151.0</ele><time>2026-03-29T13:32:07.146Z</time></trkpt><trkpt lat="43.6843242" lon="11.2079135"><ele>151.0</ele><time>2026-03-29T13:32:08.146Z</time></trkpt><trkpt lat="43.684342" lon="11.2077998"><ele>151.0</ele><time>2026-03-29T13:32:09.145Z</time></trkpt><trkpt lat="43.6843485" lon="11.207697"><ele>151.0</ele><time>2026-03-29T13:32:10.146Z</time></trkpt><trkpt lat="43.6843621" lon="11.2076027"><ele>151.0</ele><time>2026-03-29T13:32:11.146Z</time></trkpt><trkpt lat="43.684367" lon="11.2075135"><ele>151.0</ele><time>2026-03-29T13:32:12.146Z</time></trkpt><trkpt lat="43.6843667" lon="11.2074241"><ele>151.0</ele><time>2026-03-29T13:32:13.146Z</time></trkpt><trkpt lat="43.6843443" lon="11.2072984"><ele>151.0</ele><time>2026-03-29T13:32:15.146Z</time></trkpt><trkpt lat="43.6843031" lon="11.2071858"><ele>151.0</ele><time>2026-03-29T13:32:17.146Z</time></trkpt><trkpt lat="43.6842287" lon="11.207104"><ele>151.0</ele><time>2026-03-29T13:32:19.146Z</time></trkpt><trkpt lat="43.6841588" lon="11.2071349"><ele>151.0</ele><time>2026-03-29T13:32:21.146Z</time></trkpt><trkpt lat="43.6841119" lon="11.2072153"><ele>151.0</ele><time>2026-03-29T13:32:23.146Z</time></trkpt><trkpt lat="43.6841395" lon="11.2073175"><ele>151.0</ele><time>2026-03-29T13:32:25.146Z</time></trkpt><trkpt lat="43.6841792" lon="11.2074263"><ele>151.0</ele><time>2026-03-29T13:32:27.146Z</time></trkpt><trkpt lat="43.6841903" lon="11.2075752"><ele>151.0</ele><time>2026-03-29T13:32:29.146Z</time></trkpt><trkpt lat="43.6841635" lon="11.2076563"><ele>151.0</ele><time>2026-03-29T13:32:30.146Z</time></trkpt><trkpt lat="43.6841237" lon="11.2077293"><ele>151.0</ele><time>2026-03-29T13:32:31.146Z</time></trkpt><trkpt lat="43.6840821" lon="11.2078047"><ele>151.0</ele><time>2026-03-29T13:32:32.146Z</time></trkpt><trkpt lat="43.6840303" lon="11.2078764"><ele>151.0</ele><time>2026-03-29T13:32:33.146Z</time></trkpt><trkpt lat="43.6839733" lon="11.2079543"><ele>151.0</ele><time>2026-03-29T13:32:34.146Z</time></trkpt><trkpt lat="43.6839288" lon="11.2080198"><ele>151.0</ele><time>2026-03-29T13:32:35.146Z</time></trkpt><trkpt lat="43.6838799" lon="11.2081057"><ele>151.0</ele><time>2026-03-29T13:32:36.146Z</time></trkpt><trkpt lat="43.6838392" lon="11.2082145"><ele>151.0</ele><time>2026-03-29T13:32:37.146Z</time></trkpt><trkpt lat="43.6837986" lon="11.208336"><ele>151.0</ele><time>2026-03-29T13:32:38.146Z</time></trkpt><trkpt lat="43.6837659" lon="11.2084516"><ele>151.0</ele><time>2026-03-29T13:32:39.146Z</time></trkpt><trkpt lat="43.6837379" lon="11.2085786"><ele>151.0</ele><time>2026-03-29T13:32:40.145Z</time></trkpt><trkpt lat="43.6837092" lon="11.2086957"><ele>151.0</ele><time>2026-03-29T13:32:41.146Z</time></trkpt><trkpt lat="43.6836802" lon="11.2088264"><ele>151.0</ele><time>2026-03-29T13:32:42.146Z</time></trkpt><trkpt lat="43.683645" lon="11.2089426"><ele>151.0</ele><time>2026-03-29T13:32:43.146Z</time></trkpt><trkpt lat="43.6836038" lon="11.2090483"><ele>151.0</ele><time>2026-03-29T13:32:44.146Z</time></trkpt><trkpt lat="43.6835654" lon="11.2091479"><ele>151.0</ele><time>2026-03-29T13:32:45.146Z</time></trkpt><trkpt lat="43.6835158" lon="11.2092359"><ele>146.0</ele><time>2026-03-29T13:32:46.146Z</time></trkpt><trkpt lat="43.6834626" lon="11.2093221"><ele>141.0</ele><time>2026-03-29T13:32:47.146Z</time></trkpt><trkpt lat="43.6834159" lon="11.2094104"><ele>136.0</ele><time>2026-03-29T13:32:48.146Z</time></trkpt><trkpt lat="43.683366" lon="11.2095128"><ele>131.0</ele><time>2026-03-29T13:32:49.146Z</time></trkpt><trkpt lat="43.6833209" lon="11.2096126"><ele>126.00000000000001</ele><time>2026-03-29T13:32:50.146Z</time></trkpt><trkpt lat="43.6832794" lon="11.2097026"><ele>121.0</ele><time>2026-03-29T13:32:51.146Z</time></trkpt><trkpt lat="43.6832413" lon="11.2097795"><ele>121.19999999999999</ele><time>2026-03-29T13:32:52.146Z</time></trkpt><trkpt lat="43.6831839" lon="11.2099336"><ele>121.39999999999999</ele><time>2026-03-29T13:32:54.146Z</time></trkpt><trkpt lat="43.6831352" lon="11.2100734"><ele>121.6</ele><time>2026-03-29T13:32:56.146Z</time></trkpt><trkpt lat="43.6831254" lon="11.2102036"><ele>121.8</ele><time>2026-03-29T13:32:58.146Z</time></trkpt><trkpt lat="43.6831047" lon="11.2103104"><ele>122.0</ele><time>2026-03-29T13:33:00.146Z</time></trkpt><trkpt lat="43.6830556" lon="11.2103661"><ele>121.99999999999999</ele><time>2026-03-29T13:33:02.146Z</time></trkpt><trkpt lat="43.6829887" lon="11.2103064"><ele>122.0</ele><time>2026-03-29T13:33:05.146Z</time></trkpt><trkpt lat="43.6829328" lon="11.2102047"><ele>122.0</ele><time>2026-03-29T13:33:07.146Z</time></trkpt><trkpt lat="43.6828813" lon="11.2101144"><ele>122.0</ele><time>2026-03-29T13:33:10.146Z</time></trkpt><trkpt lat="43.6828279" lon="11.2100148"><ele>121.99999999999999</ele><time>2026-03-29T13:33:13.146Z</time></trkpt><trkpt lat="43.6827819" lon="11.2099477"><ele>122.0</ele><time>2026-03-29T13:33:15.145Z</time></trkpt><trkpt lat="43.6827534" lon="11.2098503"><ele>119.33333333333333</ele><time>2026-03-29T13:33:17.146Z</time></trkpt><trkpt lat="43.682728" lon="11.2097341"><ele>116.66666666666666</ele><time>2026-03-29T13:33:19.146Z</time></trkpt><trkpt lat="43.6826637" lon="11.2096355"><ele>114.0</ele><time>2026-03-29T13:33:21.146Z</time></trkpt><trkpt lat="43.6826146" lon="11.2095365"><ele>111.33333333333334</ele><time>2026-03-29T13:33:23.145Z</time></trkpt><trkpt lat="43.6825577" lon="11.2094579"><ele>108.66666666666667</ele><time>2026-03-29T13:33:25.146Z</time></trkpt><trkpt lat="43.6824852" lon="11.2094092"><ele>106.0</ele><time>2026-03-29T13:33:27.146Z</time></trkpt><trkpt lat="43.6824145" lon="11.2093551"><ele>106.0</ele><time>2026-03-29T13:33:29.146Z</time></trkpt><trkpt lat="43.6823086" lon="11.2092962"><ele>106.0</ele><time>2026-03-29T13:33:31.146Z</time></trkpt><trkpt lat="43.6822116" lon="11.2092229"><ele>106.0</ele><time>2026-03-29T13:33:33.146Z</time></trkpt><trkpt lat="43.6821116" lon="11.2091485"><ele>106.0</ele><time>2026-03-29T13:33:35.146Z</time></trkpt><trkpt lat="43.6820521" lon="11.2091062"><ele>106.0</ele><time>2026-03-29T13:33:36.146Z</time></trkpt><trkpt lat="43.6819845" lon="11.2090588"><ele>106.16666666666667</ele><time>2026-03-29T13:33:37.146Z</time></trkpt><trkpt lat="43.6819153" lon="11.209014"><ele>106.33333333333334</ele><time>2026-03-29T13:33:38.146Z</time></trkpt><trkpt lat="43.68185" lon="11.2089759"><ele>106.5</ele><time>2026-03-29T13:33:39.146Z</time></trkpt><trkpt lat="43.6817511" lon="11.2089206"><ele>106.66666666666666</ele><time>2026-03-29T13:33:41.146Z</time></trkpt><trkpt lat="43.681685" lon="11.2088827"><ele>106.83333333333333</ele><time>2026-03-29T13:33:43.146Z</time></trkpt><trkpt lat="43.6816142" lon="11.2088457"><ele>107.0</ele><time>2026-03-29T13:33:45.146Z</time></trkpt><trkpt lat="43.6815401" lon="11.2088158"><ele>106.99999999999999</ele><time>2026-03-29T13:33:47.146Z</time></trkpt><trkpt lat="43.6814777" lon="11.2087949"><ele>107.0</ele><time>2026-03-29T13:33:48.146Z</time></trkpt><trkpt lat="43.6813963" lon="11.208763"><ele>107.0</ele><time>2026-03-29T13:33:49.146Z</time></trkpt><trkpt lat="43.6813148" lon="11.2087382"><ele>107.0</ele><time>2026-03-29T13:33:50.146Z</time></trkpt><trkpt lat="43.6812329" lon="11.2087131"><ele>106.99999999999999</ele><time>2026-03-29T13:33:51.146Z</time></trkpt><trkpt lat="43.681158" lon="11.2086883"><ele>107.0</ele><time>2026-03-29T13:33:52.146Z</time></trkpt><trkpt lat="43.6810933" lon="11.2086661"><ele>107.0</ele><time>2026-03-29T13:33:53.146Z</time></trkpt><trkpt lat="43.680997" lon="11.2086439"><ele>106.99999999999999</ele><time>2026-03-29T13:33:55.146Z</time></trkpt><trkpt lat="43.680925" lon="11.2086677"><ele>106.99999999999999</ele><time>2026-03-29T13:33:59.146Z</time></trkpt><trkpt lat="43.6810276" lon="11.2086618"><ele>107.0</ele><time>2026-03-29T13:34:09.146Z</time></trkpt><trkpt lat="43.6811233" lon="11.2086855"><ele>107.0</ele><time>2026-03-29T13:34:10.146Z</time></trkpt><trkpt lat="43.6812286" lon="11.2087159"><ele>107.0</ele><time>2026-03-29T13:34:11.146Z</time></trkpt><trkpt lat="43.6813316" lon="11.2087567"><ele>107.0</ele><time>2026-03-29T13:34:12.146Z</time></trkpt><trkpt lat="43.6814423" lon="11.208804"><ele>107.0</ele><time>2026-03-29T13:34:13.146Z</time></trkpt><trkpt lat="43.6815544" lon="11.2088542"><ele>107.0</ele><time>2026-03-29T13:34:14.146Z</time></trkpt><trkpt lat="43.6816728" lon="11.2089008"><ele>107.0</ele><time>2026-03-29T13:34:15.146Z</time></trkpt><trkpt lat="43.6817904" lon="11.2089608"><ele>106.99999999999999</ele><time>2026-03-29T13:34:16.146Z</time></trkpt><trkpt lat="43.6818908" lon="11.2090226"><ele>106.99999999999999</ele><time>2026-03-29T13:34:17.145Z</time></trkpt><trkpt lat="43.6819722" lon="11.2090656"><ele>107.0</ele><time>2026-03-29T13:34:18.146Z</time></trkpt><trkpt lat="43.68203" lon="11.2091026"><ele>107.0</ele><time>2026-03-29T13:34:19.146Z</time></trkpt><trkpt lat="43.682114" lon="11.2091537"><ele>106.83333333333333</ele><time>2026-03-29T13:34:21.146Z</time></trkpt><trkpt lat="43.6821903" lon="11.2092067"><ele>106.66666666666666</ele><time>2026-03-29T13:34:23.146Z</time></trkpt><trkpt lat="43.6822532" lon="11.2092607"><ele>106.5</ele><time>2026-03-29T13:34:25.146Z</time></trkpt><trkpt lat="43.6823262" lon="11.2093063"><ele>106.33333333333334</ele><time>2026-03-29T13:34:27.146Z</time></trkpt><trkpt lat="43.6824158" lon="11.2093406"><ele>106.16666666666667</ele><time>2026-03-29T13:34:29.146Z</time></trkpt><trkpt lat="43.6825095" lon="11.2094091"><ele>106.0</ele><time>2026-03-29T13:34:31.146Z</time></trkpt><trkpt lat="43.6825983" lon="11.2095318"><ele>106.00000000000001</ele><time>2026-03-29T13:34:33.146Z</time></trkpt><trkpt lat="43.6826443" lon="11.2095991"><ele>106.0</ele><time>2026-03-29T13:34:34.146Z</time></trkpt><trkpt lat="43.6827013" lon="11.2097289"><ele>106.0</ele><time>2026-03-29T13:34:36.146Z</time></trkpt><trkpt lat="43.6827404" lon="11.2098207"><ele>106.0</ele><time>2026-03-29T13:34:38.146Z</time></trkpt><trkpt lat="43.6827375" lon="11.2099262"><ele>106.00000000000001</ele><time>2026-03-29T13:34:41.146Z</time></trkpt><trkpt lat="43.6827225" lon="11.2100319"><ele>106.0</ele><time>2026-03-29T13:34:43.146Z</time></trkpt><trkpt lat="43.6827781" lon="11.2101476"><ele>108.6</ele><time>2026-03-29T13:34:45.146Z</time></trkpt><trkpt lat="43.6828462" lon="11.210294"><ele>111.19999999999999</ele><time>2026-03-29T13:34:47.146Z</time></trkpt><trkpt lat="43.6828734" lon="11.2103783"><ele>113.80000000000001</ele><time>2026-03-29T13:34:48.145Z</time></trkpt><trkpt lat="43.6829184" lon="11.2105357"><ele>116.4</ele><time>2026-03-29T13:34:50.146Z</time></trkpt><trkpt lat="43.6829322" lon="11.2106981"><ele>119.0</ele><time>2026-03-29T13:34:52.146Z</time></trkpt><trkpt lat="43.6829306" lon="11.2107908"><ele>118.99999999999999</ele><time>2026-03-29T13:34:53.146Z</time></trkpt><trkpt lat="43.6829256" lon="11.2108913"><ele>119.0</ele><time>2026-03-29T13:34:54.146Z</time></trkpt><trkpt lat="43.6829342" lon="11.210997"><ele>119.0</ele><time>2026-03-29T13:34:55.146Z</time></trkpt><trkpt lat="43.6829581" lon="11.2111073"><ele>119.0</ele><time>2026-03-29T13:34:56.145Z</time></trkpt><trkpt lat="43.6829878" lon="11.2112027"><ele>118.99999999999999</ele><time>2026-03-29T13:34:57.146Z</time></trkpt><trkpt lat="43.6830163" lon="11.2112926"><ele>119.0</ele><time>2026-03-29T13:34:58.146Z</time></trkpt><trkpt lat="43.6830233" lon="11.2114494"><ele>114.25</ele><time>2026-03-29T13:35:00.146Z</time></trkpt><trkpt lat="43.6829311" lon="11.2115877"><ele>109.5</ele><time>2026-03-29T13:35:02.146Z</time></trkpt><trkpt lat="43.6828538" lon="11.2116326"><ele>104.75</ele><time>2026-03-29T13:35:03.146Z</time></trkpt><trkpt lat="43.6827515" lon="11.2116631"><ele>100.0</ele><time>2026-03-29T13:35:04.145Z</time></trkpt><trkpt lat="43.6826234" lon="11.2116748"><ele>99.0</ele><time>2026-03-29T13:35:05.146Z</time></trkpt><trkpt lat="43.6824844" lon="11.2116887"><ele>98.0</ele><time>2026-03-29T13:35:06.146Z</time></trkpt><trkpt lat="43.6823446" lon="11.2117033"><ele>97.0</ele><time>2026-03-29T13:35:07.146Z</time></trkpt><trkpt lat="43.6822021" lon="11.2117184"><ele>96.0</ele><time>2026-03-29T13:35:08.146Z</time></trkpt><trkpt lat="43.6820595" lon="11.2117338"><ele>96.0</ele><time>2026-03-29T13:35:09.146Z</time></trkpt><trkpt lat="43.6819155" lon="11.2117459"><ele>96.0</ele><time>2026-03-29T13:35:10.146Z</time></trkpt><trkpt lat="43.6817873" lon="11.2117688"><ele>96.0</ele><time>2026-03-29T13:35:11.146Z</time></trkpt><trkpt lat="43.6816661" lon="11.2117787"><ele>96.0</ele><time>2026-03-29T13:35:12.146Z</time></trkpt><trkpt lat="43.6815579" lon="11.2118061"><ele>96.0</ele><time>2026-03-29T13:35:13.146Z</time></trkpt><trkpt lat="43.6814602" lon="11.2118552"><ele>96.0</ele><time>2026-03-29T13:35:14.145Z</time></trkpt><trkpt lat="43.6813918" lon="11.2119394"><ele>96.0</ele><time>2026-03-29T13:35:15.146Z</time></trkpt><trkpt lat="43.6813463" lon="11.2120249"><ele>96.0</ele><time>2026-03-29T13:35:16.146Z</time></trkpt><trkpt lat="43.6812415" lon="11.2121433"><ele>96.0</ele><time>2026-03-29T13:35:18.146Z</time></trkpt><trkpt lat="43.6811918" lon="11.2122212"><ele>96.0</ele><time>2026-03-29T13:35:19.146Z</time></trkpt><trkpt lat="43.6811267" lon="11.21235"><ele>96.0</ele><time>2026-03-29T13:35:21.146Z</time></trkpt><trkpt lat="43.6810345" lon="11.212404"><ele>96.0</ele><time>2026-03-29T13:35:24.146Z</time></trkpt><trkpt lat="43.6809645" lon="11.2123443"><ele>96.0</ele><time>2026-03-29T13:35:25.146Z</time></trkpt><trkpt lat="43.6808686" lon="11.2122684"><ele>96.0</ele><time>2026-03-29T13:35:26.146Z</time></trkpt><trkpt lat="43.6807747" lon="11.2121467"><ele>96.0</ele><time>2026-03-29T13:35:27.146Z</time></trkpt><trkpt lat="43.6806871" lon="11.2120073"><ele>96.0</ele><time>2026-03-29T13:35:28.146Z</time></trkpt><trkpt lat="43.6805713" lon="11.2118775"><ele>96.0</ele><time>2026-03-29T13:35:29.146Z</time></trkpt><trkpt lat="43.6804418" lon="11.2117333"><ele>96.0</ele><time>2026-03-29T13:35:30.146Z</time></trkpt><trkpt lat="43.6802967" lon="11.2115853"><ele>96.0</ele><time>2026-03-29T13:35:31.146Z</time></trkpt><trkpt lat="43.6801523" lon="11.2114361"><ele>96.0</ele><time>2026-03-29T13:35:32.146Z</time></trkpt><trkpt lat="43.6800032" lon="11.2112755"><ele>96.0</ele><time>2026-03-29T13:35:33.146Z</time></trkpt><trkpt lat="43.6798452" lon="11.2111076"><ele>96.0</ele><time>2026-03-29T13:35:34.146Z</time></trkpt><trkpt lat="43.6796789" lon="11.2109365"><ele>96.0</ele><time>2026-03-29T13:35:35.146Z</time></trkpt><trkpt lat="43.6795237" lon="11.2107651"><ele>96.0</ele><time>2026-03-29T13:35:36.146Z</time></trkpt><trkpt lat="43.6793754" lon="11.2105955"><ele>96.33333333333334</ele><time>2026-03-29T13:35:37.146Z</time></trkpt><trkpt lat="43.6792281" lon="11.2104113"><ele>96.66666666666667</ele><time>2026-03-29T13:35:38.146Z</time></trkpt><trkpt lat="43.6790847" lon="11.2102257"><ele>97.0</ele><time>2026-03-29T13:35:39.146Z</time></trkpt><trkpt lat="43.6789324" lon="11.2100375"><ele>97.0</ele><time>2026-03-29T13:35:40.146Z</time></trkpt><trkpt lat="43.6787681" lon="11.209868"><ele>97.0</ele><time>2026-03-29T13:35:41.146Z</time></trkpt><trkpt lat="43.6785939" lon="11.2097126"><ele>97.0</ele><time>2026-03-29T13:35:42.146Z</time></trkpt><trkpt lat="43.6784225" lon="11.2095942"><ele>97.0</ele><time>2026-03-29T13:35:43.146Z</time></trkpt><trkpt lat="43.6782569" lon="11.2095132"><ele>97.0</ele><time>2026-03-29T13:35:44.146Z</time></trkpt><trkpt lat="43.6780905" lon="11.2094528"><ele>97.0</ele><time>2026-03-29T13:35:45.146Z</time></trkpt><trkpt lat="43.6779309" lon="11.2094305"><ele>97.0</ele><time>2026-03-29T13:35:46.146Z</time></trkpt><trkpt lat="43.6777717" lon="11.2094401"><ele>97.0</ele><time>2026-03-29T13:35:47.146Z</time></trkpt><trkpt lat="43.6776103" lon="11.2094686"><ele>97.0</ele><time>2026-03-29T13:35:48.146Z</time></trkpt><trkpt lat="43.6774468" lon="11.2095216"><ele>97.75</ele><time>2026-03-29T13:35:49.146Z</time></trkpt><trkpt lat="43.6772997" lon="11.2095801"><ele>98.5</ele><time>2026-03-29T13:35:50.146Z</time></trkpt><trkpt lat="43.6771641" lon="11.2096547"><ele>99.25</ele><time>2026-03-29T13:35:51.146Z</time></trkpt><trkpt lat="43.6770332" lon="11.2097426"><ele>100.0</ele><time>2026-03-29T13:35:52.146Z</time></trkpt><trkpt lat="43.6769081" lon="11.2098478"><ele>101.33333333333334</ele><time>2026-03-29T13:35:53.146Z</time></trkpt><trkpt lat="43.6767863" lon="11.20998"><ele>102.66666666666666</ele><time>2026-03-29T13:35:54.146Z</time></trkpt><trkpt lat="43.6766752" lon="11.2101308"><ele>104.0</ele><time>2026-03-29T13:35:55.146Z</time></trkpt><trkpt lat="43.6765835" lon="11.2102962"><ele>104.0</ele><time>2026-03-29T13:35:56.146Z</time></trkpt><trkpt lat="43.676505" lon="11.2104782"><ele>104.0</ele><time>2026-03-29T13:35:57.146Z</time></trkpt><trkpt lat="43.6764365" lon="11.2106614"><ele>104.0</ele><time>2026-03-29T13:35:58.146Z</time></trkpt><trkpt lat="43.6763792" lon="11.2108361"><ele>104.0</ele><time>2026-03-29T13:35:59.145Z</time></trkpt><trkpt lat="43.676333" lon="11.2110063"><ele>106.0</ele><time>2026-03-29T13:36:00.146Z</time></trkpt><trkpt lat="43.6763059" lon="11.2111703"><ele>108.0</ele><time>2026-03-29T13:36:01.146Z</time></trkpt><trkpt lat="43.676276" lon="11.2113144"><ele>110.0</ele><time>2026-03-29T13:36:02.146Z</time></trkpt><trkpt lat="43.676256" lon="11.2114586"><ele>112.0</ele><time>2026-03-29T13:36:03.146Z</time></trkpt><trkpt lat="43.6762446" lon="11.2115909"><ele>114.0</ele><time>2026-03-29T13:36:04.146Z</time></trkpt><trkpt lat="43.6762422" lon="11.2117166"><ele>114.0</ele><time>2026-03-29T13:36:05.146Z</time></trkpt><trkpt lat="43.676238" lon="11.2118259"><ele>114.0</ele><time>2026-03-29T13:36:06.146Z</time></trkpt><trkpt lat="43.6762343" lon="11.2119132"><ele>114.0</ele><time>2026-03-29T13:36:07.146Z</time></trkpt><trkpt lat="43.6762272" lon="11.2120212"><ele>114.0</ele><time>2026-03-29T13:36:10.146Z</time></trkpt><trkpt lat="43.6762859" lon="11.2120844"><ele>114.0</ele><time>2026-03-29T13:36:12.146Z</time></trkpt><trkpt lat="43.6764165" lon="11.2120727"><ele>114.0</ele><time>2026-03-29T13:36:14.146Z</time></trkpt><trkpt lat="43.6764817" lon="11.212054"><ele>114.0</ele><time>2026-03-29T13:36:15.146Z</time></trkpt><trkpt lat="43.6765396" lon="11.212009"><ele>114.0</ele><time>2026-03-29T13:36:16.146Z</time></trkpt><trkpt lat="43.6765976" lon="11.2119239"><ele>114.0</ele><time>2026-03-29T13:36:17.146Z</time></trkpt><trkpt lat="43.6766394" lon="11.2118282"><ele>114.0</ele><time>2026-03-29T13:36:18.146Z</time></trkpt><trkpt lat="43.6766759" lon="11.2117333"><ele>114.0</ele><time>2026-03-29T13:36:19.146Z</time></trkpt><trkpt lat="43.6767028" lon="11.2116239"><ele>114.0</ele><time>2026-03-29T13:36:20.146Z</time></trkpt><trkpt lat="43.6767163" lon="11.2115164"><ele>114.16666666666667</ele><time>2026-03-29T13:36:21.146Z</time></trkpt><trkpt lat="43.6767168" lon="11.2114179"><ele>114.33333333333334</ele><time>2026-03-29T13:36:22.146Z</time></trkpt><trkpt lat="43.676706" lon="11.2113316"><ele>114.5</ele><time>2026-03-29T13:36:23.146Z</time></trkpt><trkpt lat="43.6767119" lon="11.2112183"><ele>114.66666666666667</ele><time>2026-03-29T13:36:25.146Z</time></trkpt><trkpt lat="43.6767771" lon="11.2111835"><ele>114.83333333333334</ele><time>2026-03-29T13:36:27.146Z</time></trkpt><trkpt lat="43.6768336" lon="11.211246"><ele>115.0</ele><time>2026-03-29T13:36:29.146Z</time></trkpt><trkpt lat="43.6768838" lon="11.2113656"><ele>115.00000000000001</ele><time>2026-03-29T13:36:31.146Z</time></trkpt><trkpt lat="43.6769249" lon="11.2114538"><ele>115.0</ele><time>2026-03-29T13:36:32.146Z</time></trkpt><trkpt lat="43.6769633" lon="11.2115479"><ele>115.0</ele><time>2026-03-29T13:36:33.146Z</time></trkpt><trkpt lat="43.6769825" lon="11.2116499"><ele>115.0</ele><time>2026-03-29T13:36:34.146Z</time></trkpt><trkpt lat="43.6769995" lon="11.2117566"><ele>115.00000000000001</ele><time>2026-03-29T13:36:35.146Z</time></trkpt><trkpt lat="43.6770198" lon="11.2118539"><ele>115.0</ele><time>2026-03-29T13:36:36.146Z</time></trkpt><trkpt lat="43.6770422" lon="11.2119459"><ele>117.16666666666667</ele><time>2026-03-29T13:36:37.146Z</time></trkpt><trkpt lat="43.6770682" lon="11.212031"><ele>119.33333333333334</ele><time>2026-03-29T13:36:38.146Z</time></trkpt><trkpt lat="43.6771192" lon="11.2120989"><ele>121.5</ele><time>2026-03-29T13:36:39.146Z</time></trkpt><trkpt lat="43.6771955" lon="11.2121485"><ele>123.66666666666666</ele><time>2026-03-29T13:36:40.146Z</time></trkpt><trkpt lat="43.6772804" lon="11.212199"><ele>125.83333333333333</ele><time>2026-03-29T13:36:41.146Z</time></trkpt><trkpt lat="43.6773647" lon="11.2122492"><ele>128.0</ele><time>2026-03-29T13:36:42.146Z</time></trkpt><trkpt lat="43.6774347" lon="11.2122862"><ele>128.16666666666666</ele><time>2026-03-29T13:36:43.146Z</time></trkpt><trkpt lat="43.6775422" lon="11.2123917"><ele>128.33333333333331</ele><time>2026-03-29T13:36:45.146Z</time></trkpt><trkpt lat="43.6775943" lon="11.212456"><ele>128.5</ele><time>2026-03-29T13:36:46.145Z</time></trkpt><trkpt lat="43.677644" lon="11.2125455"><ele>128.66666666666666</ele><time>2026-03-29T13:36:47.146Z</time></trkpt><trkpt lat="43.6776881" lon="11.2126409"><ele>128.83333333333334</ele><time>2026-03-29T13:36:48.146Z</time></trkpt><trkpt lat="43.6777317" lon="11.2127325"><ele>129.0</ele><time>2026-03-29T13:36:49.146Z</time></trkpt><trkpt lat="43.6777858" lon="11.212818"><ele>129.16666666666666</ele><time>2026-03-29T13:36:50.145Z</time></trkpt><trkpt lat="43.6778514" lon="11.2128836"><ele>129.33333333333334</ele><time>2026-03-29T13:36:51.146Z</time></trkpt><trkpt lat="43.6779216" lon="11.2129606"><ele>129.5</ele><time>2026-03-29T13:36:52.146Z</time></trkpt><trkpt lat="43.6779808" lon="11.2130528"><ele>129.66666666666669</ele><time>2026-03-29T13:36:53.146Z</time></trkpt><trkpt lat="43.678035" lon="11.2131495"><ele>129.83333333333334</ele><time>2026-03-29T13:36:54.146Z</time></trkpt><trkpt lat="43.6780791" lon="11.2132401"><ele>130.0</ele><time>2026-03-29T13:36:55.146Z</time></trkpt><trkpt lat="43.6781396" lon="11.2132889"><ele>132.0</ele><time>2026-03-29T13:36:56.146Z</time></trkpt><trkpt lat="43.6782035" lon="11.2133243"><ele>134.0</ele><time>2026-03-29T13:36:57.146Z</time></trkpt><trkpt lat="43.6782971" lon="11.2134278"><ele>136.0</ele><time>2026-03-29T13:36:59.146Z</time></trkpt><trkpt lat="43.6783273" lon="11.2135075"><ele>138.0</ele><time>2026-03-29T13:37:00.146Z</time></trkpt><trkpt lat="43.6783608" lon="11.2136173"><ele>140.0</ele><time>2026-03-29T13:37:01.146Z</time></trkpt><trkpt lat="43.6784062" lon="11.2137609"><ele>140.0</ele><time>2026-03-29T13:37:02.146Z</time></trkpt><trkpt lat="43.6784638" lon="11.2139144"><ele>140.0</ele><time>2026-03-29T13:37:03.146Z</time></trkpt><trkpt lat="43.678519" lon="11.2140791"><ele>140.0</ele><time>2026-03-29T13:37:04.146Z</time></trkpt><trkpt lat="43.6785756" lon="11.2142292"><ele>140.0</ele><time>2026-03-29T13:37:05.146Z</time></trkpt><trkpt lat="43.6786246" lon="11.2143744"><ele>142.4</ele><time>2026-03-29T13:37:06.146Z</time></trkpt><trkpt lat="43.6786694" lon="11.2145078"><ele>144.8</ele><time>2026-03-29T13:37:07.146Z</time></trkpt><trkpt lat="43.678712" lon="11.2146154"><ele>147.2</ele><time>2026-03-29T13:37:08.146Z</time></trkpt><trkpt lat="43.6787589" lon="11.2147256"><ele>149.6</ele><time>2026-03-29T13:37:09.146Z</time></trkpt><trkpt lat="43.6788084" lon="11.2148346"><ele>152.0</ele><time>2026-03-29T13:37:10.146Z</time></trkpt><trkpt lat="43.6788626" lon="11.2149439"><ele>153.83333333333331</ele><time>2026-03-29T13:37:11.146Z</time></trkpt><trkpt lat="43.6789186" lon="11.2150426"><ele>155.66666666666666</ele><time>2026-03-29T13:37:12.146Z</time></trkpt><trkpt lat="43.6789767" lon="11.2151357"><ele>157.5</ele><time>2026-03-29T13:37:13.146Z</time></trkpt><trkpt lat="43.6790189" lon="11.2152337"><ele>159.33333333333334</ele><time>2026-03-29T13:37:14.146Z</time></trkpt><trkpt lat="43.679057" lon="11.2153397"><ele>161.16666666666669</ele><time>2026-03-29T13:37:15.146Z</time></trkpt><trkpt lat="43.6790879" lon="11.2154569"><ele>163.0</ele><time>2026-03-29T13:37:16.146Z</time></trkpt><trkpt lat="43.6791083" lon="11.2155858"><ele>165.5</ele><time>2026-03-29T13:37:17.146Z</time></trkpt><trkpt lat="43.6791272" lon="11.2157005"><ele>168.0</ele><time>2026-03-29T13:37:18.146Z</time></trkpt><trkpt lat="43.6791494" lon="11.2157925"><ele>170.5</ele><time>2026-03-29T13:37:19.145Z</time></trkpt><trkpt lat="43.6791713" lon="11.2158758"><ele>173.0</ele><time>2026-03-29T13:37:20.146Z</time></trkpt><trkpt lat="43.6792429" lon="11.2159691"><ele>175.5</ele><time>2026-03-29T13:37:22.146Z</time></trkpt><trkpt lat="43.6793224" lon="11.2159438"><ele>178.0</ele><time>2026-03-29T13:37:24.145Z</time></trkpt><trkpt lat="43.679395" lon="11.2158215"><ele>178.16666666666669</ele><time>2026-03-29T13:37:26.146Z</time></trkpt><trkpt lat="43.6794868" lon="11.2157612"><ele>178.33333333333334</ele><time>2026-03-29T13:37:28.146Z</time></trkpt><trkpt lat="43.6795462" lon="11.2157974"><ele>178.5</ele><time>2026-03-29T13:37:29.146Z</time></trkpt><trkpt lat="43.6796058" lon="11.2158392"><ele>178.66666666666666</ele><time>2026-03-29T13:37:30.146Z</time></trkpt><trkpt lat="43.6796651" lon="11.2158934"><ele>178.83333333333331</ele><time>2026-03-29T13:37:31.146Z</time></trkpt><trkpt lat="43.6797228" lon="11.2159669"><ele>179.0</ele><time>2026-03-29T13:37:32.146Z</time></trkpt><trkpt lat="43.6797801" lon="11.2160696"><ele>179.0</ele><time>2026-03-29T13:37:33.146Z</time></trkpt><trkpt lat="43.679815" lon="11.2161689"><ele>179.0</ele><time>2026-03-29T13:37:34.146Z</time></trkpt><trkpt lat="43.6798353" lon="11.2162791"><ele>179.0</ele><time>2026-03-29T13:37:35.146Z</time></trkpt><trkpt lat="43.6798251" lon="11.21638"><ele>179.0</ele><time>2026-03-29T13:37:36.146Z</time></trkpt><trkpt lat="43.6797786" lon="11.2164855"><ele>179.0</ele><time>2026-03-29T13:37:37.146Z</time></trkpt><trkpt lat="43.6797418" lon="11.2165858"><ele>179.0</ele><time>2026-03-29T13:37:38.146Z</time></trkpt><trkpt lat="43.6797272" lon="11.2166844"><ele>181.2</ele><time>2026-03-29T13:37:39.146Z</time></trkpt><trkpt lat="43.6797459" lon="11.2168017"><ele>183.39999999999998</ele><time>2026-03-29T13:37:40.146Z</time></trkpt><trkpt lat="43.6797673" lon="11.2169274"><ele>185.6</ele><time>2026-03-29T13:37:41.146Z</time></trkpt><trkpt lat="43.679788" lon="11.217073"><ele>187.8</ele><time>2026-03-29T13:37:42.146Z</time></trkpt><trkpt lat="43.6797946" lon="11.2172059"><ele>190.0</ele><time>2026-03-29T13:37:43.146Z</time></trkpt><trkpt lat="43.6797751" lon="11.2173196"><ele>191.16666666666669</ele><time>2026-03-29T13:37:44.145Z</time></trkpt><trkpt lat="43.6797378" lon="11.2174293"><ele>192.33333333333334</ele><time>2026-03-29T13:37:45.146Z</time></trkpt><trkpt lat="43.679677" lon="11.2175221"><ele>193.5</ele><time>2026-03-29T13:37:46.145Z</time></trkpt><trkpt lat="43.6795946" lon="11.2176056"><ele>194.66666666666669</ele><time>2026-03-29T13:37:47.146Z</time></trkpt><trkpt lat="43.6795482" lon="11.2176948"><ele>195.83333333333334</ele><time>2026-03-29T13:37:48.146Z</time></trkpt><trkpt lat="43.6795393" lon="11.2177926"><ele>197.0</ele><time>2026-03-29T13:37:49.146Z</time></trkpt><trkpt lat="43.679543" lon="11.2178917"><ele>197.00000000000003</ele><time>2026-03-29T13:37:50.146Z</time></trkpt><trkpt lat="43.6795567" lon="11.2180021"><ele>197.0</ele><time>2026-03-29T13:37:51.146Z</time></trkpt><trkpt lat="43.6795504" lon="11.2181306"><ele>197.0</ele><time>2026-03-29T13:37:52.146Z</time></trkpt><trkpt lat="43.6795286" lon="11.2182634"><ele>197.0</ele><time>2026-03-29T13:37:53.146Z</time></trkpt><trkpt lat="43.6795059" lon="11.2183738"><ele>197.00000000000003</ele><time>2026-03-29T13:37:54.146Z</time></trkpt><trkpt lat="43.6794921" lon="11.2184611"><ele>197.0</ele><time>2026-03-29T13:37:55.146Z</time></trkpt><trkpt lat="43.679444" lon="11.2186001"><ele>200.50000000000003</ele><time>2026-03-29T13:37:57.146Z</time></trkpt><trkpt lat="43.6793949" lon="11.2186599"><ele>204.0</ele><time>2026-03-29T13:37:58.146Z</time></trkpt><trkpt lat="43.6793298" lon="11.2187164"><ele>207.5</ele><time>2026-03-29T13:37:59.146Z</time></trkpt><trkpt lat="43.6792483" lon="11.218756"><ele>211.0</ele><time>2026-03-29T13:38:00.146Z</time></trkpt><trkpt lat="43.6791557" lon="11.2187813"><ele>214.50000000000003</ele><time>2026-03-29T13:38:01.146Z</time></trkpt><trkpt lat="43.6790751" lon="11.2188199"><ele>218.0</ele><time>2026-03-29T13:38:02.145Z</time></trkpt><trkpt lat="43.6790061" lon="11.2188831"><ele>218.00000000000003</ele><time>2026-03-29T13:38:03.146Z</time></trkpt><trkpt lat="43.678943" lon="11.2189728"><ele>218.0</ele><time>2026-03-29T13:38:04.146Z</time></trkpt><trkpt lat="43.678877" lon="11.2190597"><ele>218.0</ele><time>2026-03-29T13:38:05.146Z</time></trkpt><trkpt lat="43.6788349" lon="11.2191428"><ele>218.0</ele><time>2026-03-29T13:38:06.146Z</time></trkpt><trkpt lat="43.6787789" lon="11.2192134"><ele>218.00000000000003</ele><time>2026-03-29T13:38:07.146Z</time></trkpt><trkpt lat="43.67873" lon="11.2192872"><ele>218.0</ele><time>2026-03-29T13:38:08.145Z</time></trkpt><trkpt lat="43.6786841" lon="11.2193666"><ele>218.0</ele><time>2026-03-29T13:38:09.146Z</time></trkpt><trkpt lat="43.6786522" lon="11.2194488"><ele>218.0</ele><time>2026-03-29T13:38:10.146Z</time></trkpt><trkpt lat="43.6786276" lon="11.219558"><ele>218.0</ele><time>2026-03-29T13:38:11.146Z</time></trkpt><trkpt lat="43.6786017" lon="11.2196946"><ele>218.0</ele><time>2026-03-29T13:38:12.146Z</time></trkpt><trkpt lat="43.6785813" lon="11.2198553"><ele>218.0</ele><time>2026-03-29T13:38:13.146Z</time></trkpt><trkpt lat="43.6785669" lon="11.2200179"><ele>217.60000000000002</ele><time>2026-03-29T13:38:14.146Z</time></trkpt><trkpt lat="43.678548" lon="11.2201598"><ele>217.20000000000002</ele><time>2026-03-29T13:38:15.146Z</time></trkpt><trkpt lat="43.6785156" lon="11.220307"><ele>216.8</ele><time>2026-03-29T13:38:16.146Z</time></trkpt><trkpt lat="43.6784907" lon="11.2204364"><ele>216.4</ele><time>2026-03-29T13:38:17.146Z</time></trkpt><trkpt lat="43.6784622" lon="11.2205441"><ele>216.0</ele><time>2026-03-29T13:38:18.146Z</time></trkpt><trkpt lat="43.6784226" lon="11.2206326"><ele>216.83333333333334</ele><time>2026-03-29T13:38:19.146Z</time></trkpt><trkpt lat="43.6783739" lon="11.2207064"><ele>217.66666666666669</ele><time>2026-03-29T13:38:20.146Z</time></trkpt><trkpt lat="43.6783138" lon="11.2207529"><ele>218.5</ele><time>2026-03-29T13:38:21.146Z</time></trkpt><trkpt lat="43.6782392" lon="11.2207765"><ele>219.33333333333334</ele><time>2026-03-29T13:38:22.146Z</time></trkpt><trkpt lat="43.6781511" lon="11.2208123"><ele>220.16666666666669</ele><time>2026-03-29T13:38:23.146Z</time></trkpt><trkpt lat="43.6780505" lon="11.2208393"><ele>221.0</ele><time>2026-03-29T13:38:24.146Z</time></trkpt><trkpt lat="43.6779547" lon="11.220858"><ele>221.0</ele><time>2026-03-29T13:38:25.146Z</time></trkpt><trkpt lat="43.6778643" lon="11.2208667"><ele>221.00000000000003</ele><time>2026-03-29T13:38:26.145Z</time></trkpt><trkpt lat="43.677783" lon="11.2208876"><ele>221.00000000000003</ele><time>2026-03-29T13:38:27.145Z</time></trkpt><trkpt lat="43.6777066" lon="11.22094"><ele>221.0</ele><time>2026-03-29T13:38:28.146Z</time></trkpt><trkpt lat="43.6776304" lon="11.2210326"><ele>221.0</ele><time>2026-03-29T13:38:29.146Z</time></trkpt><trkpt lat="43.6775508" lon="11.2211704"><ele>220.75</ele><time>2026-03-29T13:38:30.146Z</time></trkpt><trkpt lat="43.6774777" lon="11.2213113"><ele>220.5</ele><time>2026-03-29T13:38:31.146Z</time></trkpt><trkpt lat="43.6773946" lon="11.221467"><ele>220.25</ele><time>2026-03-29T13:38:32.146Z</time></trkpt><trkpt lat="43.6773136" lon="11.2216277"><ele>220.0</ele><time>2026-03-29T13:38:33.146Z</time></trkpt><trkpt lat="43.677229" lon="11.2218008"><ele>220.0</ele><time>2026-03-29T13:38:34.146Z</time></trkpt><trkpt lat="43.6771512" lon="11.2219586"><ele>220.0</ele><time>2026-03-29T13:38:35.145Z</time></trkpt><trkpt lat="43.6770771" lon="11.2221063"><ele>220.0</ele><time>2026-03-29T13:38:36.146Z</time></trkpt><trkpt lat="43.6770107" lon="11.2222473"><ele>220.0</ele><time>2026-03-29T13:38:37.146Z</time></trkpt><trkpt lat="43.676953" lon="11.2223949"><ele>220.0</ele><time>2026-03-29T13:38:38.146Z</time></trkpt><trkpt lat="43.6769141" lon="11.2225685"><ele>220.0</ele><time>2026-03-29T13:38:39.146Z</time></trkpt><trkpt lat="43.6768822" lon="11.2227652"><ele>220.0</ele><time>2026-03-29T13:38:40.146Z</time></trkpt><trkpt lat="43.6768681" lon="11.2229622"><ele>220.0</ele><time>2026-03-29T13:38:41.146Z</time></trkpt><trkpt lat="43.6768621" lon="11.2231641"><ele>222.75</ele><time>2026-03-29T13:38:42.146Z</time></trkpt><trkpt lat="43.6768555" lon="11.2233725"><ele>225.5</ele><time>2026-03-29T13:38:43.146Z</time></trkpt><trkpt lat="43.6768521" lon="11.2235747"><ele>228.25</ele><time>2026-03-29T13:38:44.146Z</time></trkpt><trkpt lat="43.6768525" lon="11.2237644"><ele>231.0</ele><time>2026-03-29T13:38:45.146Z</time></trkpt><trkpt lat="43.6768506" lon="11.223942"><ele>233.5</ele><time>2026-03-29T13:38:46.146Z</time></trkpt><trkpt lat="43.6768582" lon="11.2241056"><ele>236.0</ele><time>2026-03-29T13:38:47.146Z</time></trkpt><trkpt lat="43.6768626" lon="11.224265"><ele>238.5</ele><time>2026-03-29T13:38:48.145Z</time></trkpt><trkpt lat="43.6768694" lon="11.2244444"><ele>241.0</ele><time>2026-03-29T13:38:49.146Z</time></trkpt><trkpt lat="43.6768728" lon="11.2246248"><ele>241.0</ele><time>2026-03-29T13:38:50.146Z</time></trkpt><trkpt lat="43.6768762" lon="11.2248119"><ele>241.0</ele><time>2026-03-29T13:38:51.146Z</time></trkpt><trkpt lat="43.6768754" lon="11.2250145"><ele>241.0</ele><time>2026-03-29T13:38:52.146Z</time></trkpt><trkpt lat="43.6768838" lon="11.2252165"><ele>241.0</ele><time>2026-03-29T13:38:53.146Z</time></trkpt><trkpt lat="43.6769002" lon="11.225419"><ele>242.0</ele><time>2026-03-29T13:38:54.146Z</time></trkpt><trkpt lat="43.6769132" lon="11.2256169"><ele>243.0</ele><time>2026-03-29T13:38:55.146Z</time></trkpt><trkpt lat="43.6769193" lon="11.2258071"><ele>244.0</ele><time>2026-03-29T13:38:56.146Z</time></trkpt><trkpt lat="43.6769177" lon="11.2259735"><ele>245.0</ele><time>2026-03-29T13:38:57.146Z</time></trkpt><trkpt lat="43.6768916" lon="11.2261081"><ele>245.8</ele><time>2026-03-29T13:38:58.146Z</time></trkpt><trkpt lat="43.6768567" lon="11.2262502"><ele>246.6</ele><time>2026-03-29T13:38:59.146Z</time></trkpt><trkpt lat="43.6768255" lon="11.2263851"><ele>247.39999999999998</ele><time>2026-03-29T13:39:00.146Z</time></trkpt><trkpt lat="43.676808" lon="11.2265089"><ele>248.2</ele><time>2026-03-29T13:39:01.146Z</time></trkpt><trkpt lat="43.6768275" lon="11.2266144"><ele>249.0</ele><time>2026-03-29T13:39:02.146Z</time></trkpt><trkpt lat="43.6768698" lon="11.2267342"><ele>249.66666666666666</ele><time>2026-03-29T13:39:03.146Z</time></trkpt><trkpt lat="43.6769151" lon="11.2268478"><ele>250.33333333333331</ele><time>2026-03-29T13:39:04.146Z</time></trkpt><trkpt lat="43.6769483" lon="11.2269714"><ele>251.0</ele><time>2026-03-29T13:39:05.146Z</time></trkpt><trkpt lat="43.6769444" lon="11.2270894"><ele>251.66666666666666</ele><time>2026-03-29T13:39:06.146Z</time></trkpt><trkpt lat="43.6769339" lon="11.2271974"><ele>252.33333333333331</ele><time>2026-03-29T13:39:07.146Z</time></trkpt><trkpt lat="43.6769352" lon="11.2272938"><ele>253.0</ele><time>2026-03-29T13:39:08.146Z</time></trkpt><trkpt lat="43.6769647" lon="11.2273845"><ele>255.75</ele><time>2026-03-29T13:39:09.146Z</time></trkpt><trkpt lat="43.6770514" lon="11.2274829"><ele>258.5</ele><time>2026-03-29T13:39:10.146Z</time></trkpt><trkpt lat="43.6771509" lon="11.2275962"><ele>261.25</ele><time>2026-03-29T13:39:11.146Z</time></trkpt><trkpt lat="43.6772384" lon="11.2277395"><ele>264.0</ele><time>2026-03-29T13:39:12.146Z</time></trkpt><trkpt lat="43.6773204" lon="11.2278857"><ele>264.0</ele><time>2026-03-29T13:39:13.146Z</time></trkpt><trkpt lat="43.6774021" lon="11.2280244"><ele>264.0</ele><time>2026-03-29T13:39:14.146Z</time></trkpt><trkpt lat="43.6774827" lon="11.2281759"><ele>264.0</ele><time>2026-03-29T13:39:15.146Z</time></trkpt><trkpt lat="43.6775507" lon="11.2283512"><ele>264.0</ele><time>2026-03-29T13:39:16.146Z</time></trkpt><trkpt lat="43.6776235" lon="11.2285209"><ele>265.5</ele><time>2026-03-29T13:39:17.146Z</time></trkpt><trkpt lat="43.6776944" lon="11.2286579"><ele>267.0</ele><time>2026-03-29T13:39:18.146Z</time></trkpt><trkpt lat="43.6777775" lon="11.2287823"><ele>268.5</ele><time>2026-03-29T13:39:19.146Z</time></trkpt><trkpt lat="43.6778929" lon="11.2289057"><ele>270.0</ele><time>2026-03-29T13:39:20.146Z</time></trkpt><trkpt lat="43.6780288" lon="11.2290228"><ele>276.0</ele><time>2026-03-29T13:39:21.146Z</time></trkpt><trkpt lat="43.6781557" lon="11.2291363"><ele>282.0</ele><time>2026-03-29T13:39:22.146Z</time></trkpt><trkpt lat="43.6782773" lon="11.2292787"><ele>288.0</ele><time>2026-03-29T13:39:23.146Z</time></trkpt><trkpt lat="43.6783959" lon="11.2294395"><ele>288.0</ele><time>2026-03-29T13:39:24.146Z</time></trkpt><trkpt lat="43.6785183" lon="11.2295965"><ele>288.0</ele><time>2026-03-29T13:39:25.146Z</time></trkpt><trkpt lat="43.6786269" lon="11.2297379"><ele>288.0</ele><time>2026-03-29T13:39:26.146Z</time></trkpt><trkpt lat="43.6786941" lon="11.2298258"><ele>288.0</ele><time>2026-03-29T13:39:27.146Z</time></trkpt><trkpt lat="43.6787412" lon="11.2299089"><ele>287.5714285714286</ele><time>2026-03-29T13:39:28.146Z</time></trkpt><trkpt lat="43.6787765" lon="11.2300017"><ele>287.14285714285717</ele><time>2026-03-29T13:39:29.146Z</time></trkpt><trkpt lat="43.6788059" lon="11.2300898"><ele>286.7142857142857</ele><time>2026-03-29T13:39:30.146Z</time></trkpt><trkpt lat="43.6788179" lon="11.2301791"><ele>286.28571428571433</ele><time>2026-03-29T13:39:31.146Z</time></trkpt><trkpt lat="43.6788049" lon="11.2302749"><ele>285.8571428571429</ele><time>2026-03-29T13:39:32.146Z</time></trkpt><trkpt lat="43.6787746" lon="11.2303799"><ele>285.42857142857144</ele><time>2026-03-29T13:39:33.146Z</time></trkpt><trkpt lat="43.6787377" lon="11.2304666"><ele>285.0</ele><time>2026-03-29T13:39:34.146Z</time></trkpt><trkpt lat="43.6786844" lon="11.2305778"><ele>284.8</ele><time>2026-03-29T13:39:36.146Z</time></trkpt><trkpt lat="43.6786536" lon="11.2306944"><ele>284.6</ele><time>2026-03-29T13:39:39.146Z</time></trkpt><trkpt lat="43.6786133" lon="11.2308018"><ele>284.4</ele><time>2026-03-29T13:39:41.146Z</time></trkpt><trkpt lat="43.6785745" lon="11.2309256"><ele>284.2</ele><time>2026-03-29T13:39:43.146Z</time></trkpt><trkpt lat="43.6785025" lon="11.231062"><ele>284.0</ele><time>2026-03-29T13:39:45.146Z</time></trkpt><trkpt lat="43.6784638" lon="11.2311392"><ele>286.1666666666667</ele><time>2026-03-29T13:39:46.146Z</time></trkpt><trkpt lat="43.6784275" lon="11.2312162"><ele>288.33333333333337</ele><time>2026-03-29T13:39:47.146Z</time></trkpt><trkpt lat="43.6783515" lon="11.2313221"><ele>290.5</ele><time>2026-03-29T13:39:49.146Z</time></trkpt><trkpt lat="43.678291" lon="11.2313557"><ele>292.6666666666667</ele><time>2026-03-29T13:39:50.146Z</time></trkpt><trkpt lat="43.6781672" lon="11.2313742"><ele>294.8333333333333</ele><time>2026-03-29T13:39:52.146Z</time></trkpt><trkpt lat="43.6780989" lon="11.2313692"><ele>297.0</ele><time>2026-03-29T13:39:53.146Z</time></trkpt><trkpt lat="43.6779871" lon="11.2313748"><ele>297.0</ele><time>2026-03-29T13:39:55.146Z</time></trkpt><trkpt lat="43.6779037" lon="11.2314653"><ele>297.0</ele><time>2026-03-29T13:39:57.146Z</time></trkpt><trkpt lat="43.6779074" lon="11.2315536"><ele>297.0</ele><time>2026-03-29T13:39:58.146Z</time></trkpt><trkpt lat="43.6779252" lon="11.231644"><ele>297.0</ele><time>2026-03-29T13:39:59.146Z</time></trkpt><trkpt lat="43.6779567" lon="11.231756"><ele>297.0</ele><time>2026-03-29T13:40:00.145Z</time></trkpt><trkpt lat="43.6779994" lon="11.2318471"><ele>297.0</ele><time>2026-03-29T13:40:01.146Z</time></trkpt><trkpt lat="43.6780457" lon="11.2319579"><ele>297.2</ele><time>2026-03-29T13:40:02.146Z</time></trkpt><trkpt lat="43.6780879" lon="11.2320813"><ele>297.4</ele><time>2026-03-29T13:40:03.146Z</time></trkpt><trkpt lat="43.6781298" lon="11.2322097"><ele>297.6</ele><time>2026-03-29T13:40:04.146Z</time></trkpt><trkpt lat="43.6781637" lon="11.2323324"><ele>297.8</ele><time>2026-03-29T13:40:05.146Z</time></trkpt><trkpt lat="43.678205" lon="11.2324571"><ele>298.0</ele><time>2026-03-29T13:40:06.146Z</time></trkpt><trkpt lat="43.6782616" lon="11.2325629"><ele>301.25</ele><time>2026-03-29T13:40:07.146Z</time></trkpt><trkpt lat="43.678346" lon="11.232671"><ele>304.5</ele><time>2026-03-29T13:40:08.146Z</time></trkpt><trkpt lat="43.6784336" lon="11.2327598"><ele>307.75</ele><time>2026-03-29T13:40:09.146Z</time></trkpt><trkpt lat="43.6785179" lon="11.2328694"><ele>311.0</ele><time>2026-03-29T13:40:10.145Z</time></trkpt><trkpt lat="43.6785985" lon="11.2329965"><ele>311.8</ele><time>2026-03-29T13:40:11.146Z</time></trkpt><trkpt lat="43.6786662" lon="11.2331141"><ele>312.6</ele><time>2026-03-29T13:40:12.146Z</time></trkpt><trkpt lat="43.6787091" lon="11.2332314"><ele>313.4</ele><time>2026-03-29T13:40:13.146Z</time></trkpt><trkpt lat="43.6787457" lon="11.2333597"><ele>314.2</ele><time>2026-03-29T13:40:14.146Z</time></trkpt><trkpt lat="43.6787824" lon="11.2334703"><ele>315.0</ele><time>2026-03-29T13:40:15.146Z</time></trkpt><trkpt lat="43.6788229" lon="11.2335536"><ele>315.0</ele><time>2026-03-29T13:40:16.146Z</time></trkpt><trkpt lat="43.6788857" lon="11.2336671"><ele>315.0</ele><time>2026-03-29T13:40:18.146Z</time></trkpt><trkpt lat="43.6789152" lon="11.2337477"><ele>315.0</ele><time>2026-03-29T13:40:19.146Z</time></trkpt><trkpt lat="43.6789423" lon="11.2338703"><ele>315.0</ele><time>2026-03-29T13:40:20.146Z</time></trkpt><trkpt lat="43.6789621" lon="11.2340188"><ele>315.0</ele><time>2026-03-29T13:40:21.146Z</time></trkpt><trkpt lat="43.678998" lon="11.2341911"><ele>316.25</ele><time>2026-03-29T13:40:22.146Z</time></trkpt><trkpt lat="43.6790278" lon="11.2343622"><ele>317.5</ele><time>2026-03-29T13:40:23.146Z</time></trkpt><trkpt lat="43.6790564" lon="11.2345259"><ele>318.75</ele><time>2026-03-29T13:40:24.146Z</time></trkpt><trkpt lat="43.6790971" lon="11.234678"><ele>320.0</ele><time>2026-03-29T13:40:25.146Z</time></trkpt><trkpt lat="43.6791452" lon="11.2348376"><ele>321.33333333333337</ele><time>2026-03-29T13:40:26.146Z</time></trkpt><trkpt lat="43.679233" lon="11.2350242"><ele>322.6666666666667</ele><time>2026-03-29T13:40:27.146Z</time></trkpt><trkpt lat="43.6793561" lon="11.2351905"><ele>324.0</ele><time>2026-03-29T13:40:28.146Z</time></trkpt><trkpt lat="43.6794647" lon="11.2353483"><ele>321.25</ele><time>2026-03-29T13:40:29.146Z</time></trkpt><trkpt lat="43.6795649" lon="11.2354911"><ele>318.5</ele><time>2026-03-29T13:40:30.146Z</time></trkpt><trkpt lat="43.6796474" lon="11.2356136"><ele>315.75</ele><time>2026-03-29T13:40:31.146Z</time></trkpt><trkpt lat="43.679729" lon="11.2357139"><ele>313.0</ele><time>2026-03-29T13:40:32.146Z</time></trkpt><trkpt lat="43.6798261" lon="11.2357969"><ele>313.0</ele><time>2026-03-29T13:40:33.146Z</time></trkpt><trkpt lat="43.6799394" lon="11.2358828"><ele>313.0</ele><time>2026-03-29T13:40:34.146Z</time></trkpt><trkpt lat="43.6800389" lon="11.2359743"><ele>313.0</ele><time>2026-03-29T13:40:35.146Z</time></trkpt><trkpt lat="43.6801237" lon="11.2360559"><ele>313.0</ele><time>2026-03-29T13:40:36.146Z</time></trkpt><trkpt lat="43.6802109" lon="11.2361542"><ele>310.75</ele><time>2026-03-29T13:40:37.146Z</time></trkpt><trkpt lat="43.6802923" lon="11.2362729"><ele>308.5</ele><time>2026-03-29T13:40:38.146Z</time></trkpt><trkpt lat="43.6803781" lon="11.236402"><ele>306.25</ele><time>2026-03-29T13:40:39.146Z</time></trkpt><trkpt lat="43.6804623" lon="11.2365047"><ele>304.0</ele><time>2026-03-29T13:40:40.146Z</time></trkpt><trkpt lat="43.6805376" lon="11.2366063"><ele>304.0</ele><time>2026-03-29T13:40:41.146Z</time></trkpt><trkpt lat="43.6806145" lon="11.2366947"><ele>304.0</ele><time>2026-03-29T13:40:42.146Z</time></trkpt><trkpt lat="43.6806721" lon="11.2368081"><ele>304.0</ele><time>2026-03-29T13:40:43.146Z</time></trkpt><trkpt lat="43.6807157" lon="11.236956"><ele>304.0</ele><time>2026-03-29T13:40:44.146Z</time></trkpt><trkpt lat="43.6807542" lon="11.2371287"><ele>304.0</ele><time>2026-03-29T13:40:45.146Z</time></trkpt><trkpt lat="43.6807956" lon="11.2373057"><ele>305.59999999999997</ele><time>2026-03-29T13:40:46.146Z</time></trkpt><trkpt lat="43.6808126" lon="11.2374723"><ele>307.2</ele><time>2026-03-29T13:40:47.146Z</time></trkpt><trkpt lat="43.6807975" lon="11.2376163"><ele>308.79999999999995</ele><time>2026-03-29T13:40:48.146Z</time></trkpt><trkpt lat="43.6807622" lon="11.2377435"><ele>310.4</ele><time>2026-03-29T13:40:49.146Z</time></trkpt><trkpt lat="43.6807034" lon="11.2378792"><ele>312.0</ele><time>2026-03-29T13:40:50.146Z</time></trkpt><trkpt lat="43.6806529" lon="11.2380332"><ele>310.75</ele><time>2026-03-29T13:40:51.146Z</time></trkpt><trkpt lat="43.6806094" lon="11.2382222"><ele>309.5</ele><time>2026-03-29T13:40:52.146Z</time></trkpt><trkpt lat="43.6805753" lon="11.2384017"><ele>308.25</ele><time>2026-03-29T13:40:53.146Z</time></trkpt><trkpt lat="43.6805405" lon="11.2385712"><ele>307.0</ele><time>2026-03-29T13:40:54.146Z</time></trkpt><trkpt lat="43.6805151" lon="11.2387344"><ele>307.0</ele><time>2026-03-29T13:40:55.146Z</time></trkpt><trkpt lat="43.6805147" lon="11.238869"><ele>307.0</ele><time>2026-03-29T13:40:56.146Z</time></trkpt><trkpt lat="43.6805173" lon="11.2390051"><ele>307.0</ele><time>2026-03-29T13:40:57.146Z</time></trkpt><trkpt lat="43.6805379" lon="11.2391573"><ele>307.0</ele><time>2026-03-29T13:40:58.146Z</time></trkpt><trkpt lat="43.6805728" lon="11.2392697"><ele>307.0</ele><time>2026-03-29T13:40:59.146Z</time></trkpt><trkpt lat="43.6806251" lon="11.2393577"><ele>306.8333333333333</ele><time>2026-03-29T13:41:00.145Z</time></trkpt><trkpt lat="43.6806971" lon="11.23946"><ele>306.66666666666663</ele><time>2026-03-29T13:41:02.145Z</time></trkpt><trkpt lat="43.6807164" lon="11.2395603"><ele>306.5</ele><time>2026-03-29T13:41:04.146Z</time></trkpt><trkpt lat="43.6807392" lon="11.2396568"><ele>306.3333333333333</ele><time>2026-03-29T13:41:06.146Z</time></trkpt><trkpt lat="43.6807647" lon="11.2397507"><ele>306.1666666666667</ele><time>2026-03-29T13:41:07.146Z</time></trkpt><trkpt lat="43.6807808" lon="11.2398445"><ele>306.0</ele><time>2026-03-29T13:41:08.146Z</time></trkpt><trkpt lat="43.6808128" lon="11.239973"><ele>306.0</ele><time>2026-03-29T13:41:09.146Z</time></trkpt><trkpt lat="43.680852" lon="11.240101"><ele>306.0</ele><time>2026-03-29T13:41:10.146Z</time></trkpt><trkpt lat="43.6809181" lon="11.2402499"><ele>306.0</ele><time>2026-03-29T13:41:11.146Z</time></trkpt><trkpt lat="43.6809885" lon="11.2404156"><ele>306.0</ele><time>2026-03-29T13:41:12.146Z</time></trkpt><trkpt lat="43.6810476" lon="11.240572"><ele>306.8</ele><time>2026-03-29T13:41:13.146Z</time></trkpt><trkpt lat="43.6810954" lon="11.2407204"><ele>307.6</ele><time>2026-03-29T13:41:14.146Z</time></trkpt><trkpt lat="43.6811409" lon="11.2408399"><ele>308.4</ele><time>2026-03-29T13:41:15.145Z</time></trkpt><trkpt lat="43.6811897" lon="11.2409503"><ele>309.2</ele><time>2026-03-29T13:41:16.146Z</time></trkpt><trkpt lat="43.6812469" lon="11.2410565"><ele>310.0</ele><time>2026-03-29T13:41:17.146Z</time></trkpt><trkpt lat="43.6812974" lon="11.2411635"><ele>306.75</ele><time>2026-03-29T13:41:18.146Z</time></trkpt><trkpt lat="43.6813514" lon="11.2412709"><ele>303.5</ele><time>2026-03-29T13:41:19.146Z</time></trkpt><trkpt lat="43.6813998" lon="11.2414141"><ele>300.25</ele><time>2026-03-29T13:41:20.146Z</time></trkpt><trkpt lat="43.6814399" lon="11.2415821"><ele>297.0</ele><time>2026-03-29T13:41:21.146Z</time></trkpt><trkpt lat="43.6814818" lon="11.2417749"><ele>295.6666666666667</ele><time>2026-03-29T13:41:22.146Z</time></trkpt><trkpt lat="43.6815243" lon="11.241981"><ele>294.33333333333337</ele><time>2026-03-29T13:41:23.146Z</time></trkpt><trkpt lat="43.6815664" lon="11.2421885"><ele>293.0</ele><time>2026-03-29T13:41:24.146Z</time></trkpt><trkpt lat="43.6816071" lon="11.2423777"><ele>291.25</ele><time>2026-03-29T13:41:25.146Z</time></trkpt><trkpt lat="43.681647" lon="11.2425712"><ele>289.5</ele><time>2026-03-29T13:41:26.145Z</time></trkpt><trkpt lat="43.6816873" lon="11.2427563"><ele>287.75</ele><time>2026-03-29T13:41:27.146Z</time></trkpt><trkpt lat="43.6817264" lon="11.2429462"><ele>286.0</ele><time>2026-03-29T13:41:28.146Z</time></trkpt><trkpt lat="43.681795" lon="11.24314"><ele>284.66666666666663</ele><time>2026-03-29T13:41:29.146Z</time></trkpt><trkpt lat="43.6818824" lon="11.2433448"><ele>283.3333333333333</ele><time>2026-03-29T13:41:30.145Z</time></trkpt><trkpt lat="43.6819671" lon="11.2435571"><ele>282.0</ele><time>2026-03-29T13:41:31.145Z</time></trkpt><trkpt lat="43.6820676" lon="11.2437815"><ele>276.6666666666667</ele><time>2026-03-29T13:41:32.146Z</time></trkpt><trkpt lat="43.6821624" lon="11.2440027"><ele>271.33333333333337</ele><time>2026-03-29T13:41:33.146Z</time></trkpt><trkpt lat="43.6822577" lon="11.2442094"><ele>266.0</ele><time>2026-03-29T13:41:34.146Z</time></trkpt><trkpt lat="43.6823538" lon="11.2444009"><ele>266.0</ele><time>2026-03-29T13:41:35.146Z</time></trkpt><trkpt lat="43.6824457" lon="11.2445872"><ele>266.0</ele><time>2026-03-29T13:41:36.146Z</time></trkpt><trkpt lat="43.6825193" lon="11.2447954"><ele>266.0</ele><time>2026-03-29T13:41:37.146Z</time></trkpt><trkpt lat="43.6825799" lon="11.2450284"><ele>266.33333333333337</ele><time>2026-03-29T13:41:38.146Z</time></trkpt><trkpt lat="43.6826277" lon="11.2452763"><ele>266.6666666666667</ele><time>2026-03-29T13:41:39.146Z</time></trkpt><trkpt lat="43.6826608" lon="11.2455367"><ele>267.0</ele><time>2026-03-29T13:41:40.145Z</time></trkpt><trkpt lat="43.682678" lon="11.2457825"><ele>268.0</ele><time>2026-03-29T13:41:41.146Z</time></trkpt><trkpt lat="43.6826792" lon="11.2460136"><ele>269.0</ele><time>2026-03-29T13:41:42.146Z</time></trkpt><trkpt lat="43.6826668" lon="11.2462216"><ele>270.0</ele><time>2026-03-29T13:41:43.146Z</time></trkpt><trkpt lat="43.6826462" lon="11.2464187"><ele>270.6666666666667</ele><time>2026-03-29T13:41:44.146Z</time></trkpt><trkpt lat="43.6825978" lon="11.2466256"><ele>271.33333333333337</ele><time>2026-03-29T13:41:45.146Z</time></trkpt><trkpt lat="43.6825441" lon="11.2468578"><ele>272.0</ele><time>2026-03-29T13:41:46.146Z</time></trkpt><trkpt lat="43.6824918" lon="11.2470912"><ele>272.5</ele><time>2026-03-29T13:41:47.146Z</time></trkpt><trkpt lat="43.6824323" lon="11.2473026"><ele>273.0</ele><time>2026-03-29T13:41:48.146Z</time></trkpt><trkpt lat="43.6823909" lon="11.247467"><ele>273.5</ele><time>2026-03-29T13:41:49.146Z</time></trkpt><trkpt lat="43.6823562" lon="11.2475935"><ele>274.0</ele><time>2026-03-29T13:41:50.146Z</time></trkpt><trkpt lat="43.6823307" lon="11.2476923"><ele>274.0</ele><time>2026-03-29T13:41:51.146Z</time></trkpt><trkpt lat="43.6822918" lon="11.2477635"><ele>274.0</ele><time>2026-03-29T13:41:53.146Z</time></trkpt><trkpt lat="43.6822451" lon="11.2478242"><ele>274.0</ele><time>2026-03-29T13:41:55.146Z</time></trkpt><trkpt lat="43.6822786" lon="11.2479757"><ele>274.0</ele><time>2026-03-29T13:41:57.146Z</time></trkpt><trkpt lat="43.6823727" lon="11.2480826"><ele>274.0</ele><time>2026-03-29T13:41:59.146Z</time></trkpt><trkpt lat="43.6824268" lon="11.2481686"><ele>274.0</ele><time>2026-03-29T13:42:00.146Z</time></trkpt><trkpt lat="43.6824931" lon="11.2482772"><ele>274.5</ele><time>2026-03-29T13:42:01.146Z</time></trkpt><trkpt lat="43.6825637" lon="11.2484021"><ele>275.0</ele><time>2026-03-29T13:42:02.146Z</time></trkpt><trkpt lat="43.6826471" lon="11.2485379"><ele>275.5</ele><time>2026-03-29T13:42:03.146Z</time></trkpt><trkpt lat="43.6827332" lon="11.2486603"><ele>276.0</ele><time>2026-03-29T13:42:04.146Z</time></trkpt><trkpt lat="43.6828102" lon="11.2487871"><ele>275.2</ele><time>2026-03-29T13:42:05.146Z</time></trkpt><trkpt lat="43.6828906" lon="11.2489106"><ele>274.40000000000003</ele><time>2026-03-29T13:42:06.146Z</time></trkpt><trkpt lat="43.6829676" lon="11.2490229"><ele>273.6</ele><time>2026-03-29T13:42:07.145Z</time></trkpt><trkpt lat="43.6830385" lon="11.2491361"><ele>272.8</ele><time>2026-03-29T13:42:08.145Z</time></trkpt><trkpt lat="43.6831026" lon="11.2492443"><ele>272.0</ele><time>2026-03-29T13:42:09.146Z</time></trkpt><trkpt lat="43.6831677" lon="11.2493492"><ele>272.0</ele><time>2026-03-29T13:42:10.146Z</time></trkpt><trkpt lat="43.6832331" lon="11.249451"><ele>272.0</ele><time>2026-03-29T13:42:11.146Z</time></trkpt><trkpt lat="43.6832981" lon="11.2495459"><ele>272.0</ele><time>2026-03-29T13:42:12.146Z</time></trkpt><trkpt lat="43.6833634" lon="11.2496486"><ele>272.0</ele><time>2026-03-29T13:42:13.146Z</time></trkpt><trkpt lat="43.6834295" lon="11.2497509"><ele>272.0</ele><time>2026-03-29T13:42:14.146Z</time></trkpt><trkpt lat="43.683495" lon="11.249836"><ele>272.0</ele><time>2026-03-29T13:42:15.146Z</time></trkpt><trkpt lat="43.6835589" lon="11.2499299"><ele>272.0</ele><time>2026-03-29T13:42:16.146Z</time></trkpt><trkpt lat="43.6836134" lon="11.2500281"><ele>272.0</ele><time>2026-03-29T13:42:17.146Z</time></trkpt><trkpt lat="43.6836679" lon="11.2501247"><ele>272.0</ele><time>2026-03-29T13:42:18.146Z</time></trkpt><trkpt lat="43.683727" lon="11.2502183"><ele>272.0</ele><time>2026-03-29T13:42:19.146Z</time></trkpt><trkpt lat="43.6837913" lon="11.2503225"><ele>271.5</ele><time>2026-03-29T13:42:20.145Z</time></trkpt><trkpt lat="43.6838456" lon="11.2504338"><ele>271.0</ele><time>2026-03-29T13:42:21.146Z</time></trkpt><trkpt lat="43.6838982" lon="11.2505385"><ele>270.5</ele><time>2026-03-29T13:42:22.146Z</time></trkpt><trkpt lat="43.6839446" lon="11.2506309"><ele>270.0</ele><time>2026-03-29T13:42:23.146Z</time></trkpt><trkpt lat="43.6839863" lon="11.2507179"><ele>269.5</ele><time>2026-03-29T13:42:24.146Z</time></trkpt><trkpt lat="43.6840203" lon="11.2507941"><ele>269.0</ele><time>2026-03-29T13:42:25.146Z</time></trkpt><trkpt lat="43.6840519" lon="11.250874"><ele>269.0</ele><time>2026-03-29T13:42:27.146Z</time></trkpt><trkpt lat="43.6841425" lon="11.2509459"><ele>269.0</ele><time>2026-03-29T13:42:31.146Z</time></trkpt><trkpt lat="43.6842205" lon="11.2509684"><ele>269.0</ele><time>2026-03-29T13:42:32.146Z</time></trkpt><trkpt lat="43.6843139" lon="11.2510071"><ele>269.0</ele><time>2026-03-29T13:42:33.146Z</time></trkpt><trkpt lat="43.6844185" lon="11.2510824"><ele>269.0</ele><time>2026-03-29T13:42:34.146Z</time></trkpt><trkpt lat="43.6845402" lon="11.2511775"><ele>270.25</ele><time>2026-03-29T13:42:35.146Z</time></trkpt><trkpt lat="43.6846595" lon="11.2512829"><ele>271.5</ele><time>2026-03-29T13:42:36.146Z</time></trkpt><trkpt lat="43.6847846" lon="11.2513929"><ele>272.75</ele><time>2026-03-29T13:42:37.146Z</time></trkpt><trkpt lat="43.684914" lon="11.2515124"><ele>274.0</ele><time>2026-03-29T13:42:38.146Z</time></trkpt><trkpt lat="43.6850362" lon="11.2516201"><ele>274.0</ele><time>2026-03-29T13:42:39.146Z</time></trkpt><trkpt lat="43.68515" lon="11.251716"><ele>274.0</ele><time>2026-03-29T13:42:40.146Z</time></trkpt><trkpt lat="43.6852518" lon="11.2518134"><ele>274.0</ele><time>2026-03-29T13:42:41.146Z</time></trkpt><trkpt lat="43.6853509" lon="11.2518983"><ele>274.0</ele><time>2026-03-29T13:42:42.146Z</time></trkpt><trkpt lat="43.685427" lon="11.2519604"><ele>274.8333333333333</ele><time>2026-03-29T13:42:43.146Z</time></trkpt><trkpt lat="43.6854927" lon="11.2520195"><ele>275.66666666666663</ele><time>2026-03-29T13:42:44.146Z</time></trkpt><trkpt lat="43.685559" lon="11.2521233"><ele>276.5</ele><time>2026-03-29T13:42:46.146Z</time></trkpt><trkpt lat="43.6855365" lon="11.2522076"><ele>277.3333333333333</ele><time>2026-03-29T13:42:48.146Z</time></trkpt><trkpt lat="43.6854435" lon="11.2522688"><ele>278.1666666666667</ele><time>2026-03-29T13:42:50.145Z</time></trkpt><trkpt lat="43.6853572" lon="11.2523048"><ele>279.0</ele><time>2026-03-29T13:42:51.146Z</time></trkpt><trkpt lat="43.6852574" lon="11.252374"><ele>279.0</ele><time>2026-03-29T13:42:52.146Z</time></trkpt><trkpt lat="43.6851708" lon="11.2524598"><ele>279.0</ele><time>2026-03-29T13:42:53.146Z</time></trkpt><trkpt lat="43.6851029" lon="11.252566"><ele>279.0</ele><time>2026-03-29T13:42:54.146Z</time></trkpt><trkpt lat="43.6850629" lon="11.2526901"><ele>279.0</ele><time>2026-03-29T13:42:55.146Z</time></trkpt><trkpt lat="43.6850399" lon="11.2528198"><ele>279.0</ele><time>2026-03-29T13:42:56.146Z</time></trkpt><trkpt lat="43.6850053" lon="11.2529504"><ele>279.0</ele><time>2026-03-29T13:42:57.146Z</time></trkpt><trkpt lat="43.6850013" lon="11.253088"><ele>279.0</ele><time>2026-03-29T13:42:58.146Z</time></trkpt><trkpt lat="43.6850306" lon="11.2532379"><ele>279.0</ele><time>2026-03-29T13:42:59.146Z</time></trkpt><trkpt lat="43.6850713" lon="11.2533856"><ele>279.0</ele><time>2026-03-29T13:43:00.146Z</time></trkpt><trkpt lat="43.6851266" lon="11.2535121"><ele>279.0</ele><time>2026-03-29T13:43:01.146Z</time></trkpt><trkpt lat="43.6852075" lon="11.253634"><ele>279.25</ele><time>2026-03-29T13:43:02.146Z</time></trkpt><trkpt lat="43.6852987" lon="11.2537455"><ele>279.5</ele><time>2026-03-29T13:43:03.146Z</time></trkpt><trkpt lat="43.6853904" lon="11.2538593"><ele>279.75</ele><time>2026-03-29T13:43:04.146Z</time></trkpt><trkpt lat="43.6854713" lon="11.253962"><ele>280.0</ele><time>2026-03-29T13:43:05.146Z</time></trkpt><trkpt lat="43.6855421" lon="11.2540702"><ele>280.0</ele><time>2026-03-29T13:43:06.146Z</time></trkpt><trkpt lat="43.6856097" lon="11.2541605"><ele>280.0</ele><time>2026-03-29T13:43:07.146Z</time></trkpt><trkpt lat="43.6856574" lon="11.2542554"><ele>280.0</ele><time>2026-03-29T13:43:08.146Z</time></trkpt><trkpt lat="43.6856657" lon="11.2543829"><ele>280.0</ele><time>2026-03-29T13:43:09.146Z</time></trkpt><trkpt lat="43.6856147" lon="11.2544992"><ele>280.0</ele><time>2026-03-29T13:43:10.146Z</time></trkpt><trkpt lat="43.685558" lon="11.2546104"><ele>280.0</ele><time>2026-03-29T13:43:11.146Z</time></trkpt><trkpt lat="43.685506" lon="11.2547309"><ele>280.0</ele><time>2026-03-29T13:43:12.146Z</time></trkpt><trkpt lat="43.6854524" lon="11.2548559"><ele>280.0</ele><time>2026-03-29T13:43:13.146Z</time></trkpt><trkpt lat="43.6854078" lon="11.255003"><ele>280.0</ele><time>2026-03-29T13:43:14.146Z</time></trkpt><trkpt lat="43.685369" lon="11.2551504"><ele>280.0</ele><time>2026-03-29T13:43:15.146Z</time></trkpt><trkpt lat="43.6853293" lon="11.2553003"><ele>278.75</ele><time>2026-03-29T13:43:16.146Z</time></trkpt><trkpt lat="43.6852896" lon="11.2554548"><ele>277.5</ele><time>2026-03-29T13:43:17.146Z</time></trkpt><trkpt lat="43.685254" lon="11.2556028"><ele>276.25</ele><time>2026-03-29T13:43:18.146Z</time></trkpt><trkpt lat="43.6852105" lon="11.2557662"><ele>275.0</ele><time>2026-03-29T13:43:19.146Z</time></trkpt><trkpt lat="43.6851737" lon="11.2559273"><ele>274.0</ele><time>2026-03-29T13:43:20.146Z</time></trkpt><trkpt lat="43.6851366" lon="11.2560808"><ele>273.0</ele><time>2026-03-29T13:43:21.146Z</time></trkpt><trkpt lat="43.685099" lon="11.2562243"><ele>272.0</ele><time>2026-03-29T13:43:22.146Z</time></trkpt><trkpt lat="43.6850616" lon="11.2563759"><ele>271.0</ele><time>2026-03-29T13:43:23.146Z</time></trkpt><trkpt lat="43.6850117" lon="11.2565613"><ele>269.0</ele><time>2026-03-29T13:43:24.146Z</time></trkpt><trkpt lat="43.6849502" lon="11.2567533"><ele>267.0</ele><time>2026-03-29T13:43:25.146Z</time></trkpt><trkpt lat="43.6848823" lon="11.2569158"><ele>265.0</ele><time>2026-03-29T13:43:26.146Z</time></trkpt><trkpt lat="43.6848258" lon="11.2570628"><ele>263.0</ele><time>2026-03-29T13:43:27.146Z</time></trkpt><trkpt lat="43.684783" lon="11.2571908"><ele>262.0</ele><time>2026-03-29T13:43:28.146Z</time></trkpt><trkpt lat="43.6847405" lon="11.2572923"><ele>261.0</ele><time>2026-03-29T13:43:29.146Z</time></trkpt><trkpt lat="43.6847063" lon="11.2573829"><ele>260.0</ele><time>2026-03-29T13:43:30.146Z</time></trkpt><trkpt lat="43.6846693" lon="11.2574829"><ele>259.0</ele><time>2026-03-29T13:43:31.146Z</time></trkpt><trkpt lat="43.68463" lon="11.2576317"><ele>258.0</ele><time>2026-03-29T13:43:32.146Z</time></trkpt><trkpt lat="43.6845806" lon="11.2577999"><ele>258.0</ele><time>2026-03-29T13:43:33.146Z</time></trkpt><trkpt lat="43.6845259" lon="11.2579942"><ele>258.0</ele><time>2026-03-29T13:43:34.146Z</time></trkpt><trkpt lat="43.6844651" lon="11.2581888"><ele>258.0</ele><time>2026-03-29T13:43:35.146Z</time></trkpt><trkpt lat="43.6844067" lon="11.2583976"><ele>262.3333333333333</ele><time>2026-03-29T13:43:36.146Z</time></trkpt><trkpt lat="43.6843416" lon="11.2586039"><ele>266.66666666666663</ele><time>2026-03-29T13:43:37.146Z</time></trkpt><trkpt lat="43.6842698" lon="11.2588145"><ele>271.0</ele><time>2026-03-29T13:43:38.146Z</time></trkpt><trkpt lat="43.68419" lon="11.2590189"><ele>271.0</ele><time>2026-03-29T13:43:39.146Z</time></trkpt><trkpt lat="43.6841124" lon="11.2592019"><ele>271.0</ele><time>2026-03-29T13:43:40.145Z</time></trkpt><trkpt lat="43.6840287" lon="11.2593553"><ele>271.0</ele><time>2026-03-29T13:43:41.146Z</time></trkpt><trkpt lat="43.6839496" lon="11.2595156"><ele>271.0</ele><time>2026-03-29T13:43:42.146Z</time></trkpt><trkpt lat="43.6838723" lon="11.259681"><ele>268.66666666666663</ele><time>2026-03-29T13:43:43.146Z</time></trkpt><trkpt lat="43.6838001" lon="11.2598621"><ele>266.3333333333333</ele><time>2026-03-29T13:43:44.146Z</time></trkpt><trkpt lat="43.683728" lon="11.2600574"><ele>264.0</ele><time>2026-03-29T13:43:45.145Z</time></trkpt><trkpt lat="43.6836641" lon="11.2602602"><ele>270.0</ele><time>2026-03-29T13:43:46.146Z</time></trkpt><trkpt lat="43.6835864" lon="11.2604667"><ele>276.0</ele><time>2026-03-29T13:43:47.146Z</time></trkpt><trkpt lat="43.6834802" lon="11.2606656"><ele>282.0</ele><time>2026-03-29T13:43:48.146Z</time></trkpt><trkpt lat="43.6833654" lon="11.2608598"><ele>282.0</ele><time>2026-03-29T13:43:49.146Z</time></trkpt><trkpt lat="43.6832378" lon="11.2610479"><ele>282.0</ele><time>2026-03-29T13:43:50.146Z</time></trkpt><trkpt lat="43.6831132" lon="11.2612462"><ele>282.0</ele><time>2026-03-29T13:43:51.146Z</time></trkpt><trkpt lat="43.6829816" lon="11.2614429"><ele>279.3333333333333</ele><time>2026-03-29T13:43:52.146Z</time></trkpt><trkpt lat="43.6828531" lon="11.2616337"><ele>276.66666666666663</ele><time>2026-03-29T13:43:53.146Z</time></trkpt><trkpt lat="43.6827275" lon="11.2618116"><ele>274.0</ele><time>2026-03-29T13:43:54.146Z</time></trkpt><trkpt lat="43.6826167" lon="11.2619845"><ele>279.0</ele><time>2026-03-29T13:43:55.146Z</time></trkpt><trkpt lat="43.6825043" lon="11.2621704"><ele>284.0</ele><time>2026-03-29T13:43:56.146Z</time></trkpt><trkpt lat="43.6823877" lon="11.2623776"><ele>289.0</ele><time>2026-03-29T13:43:57.146Z</time></trkpt><trkpt lat="43.6822582" lon="11.2626044"><ele>289.0</ele><time>2026-03-29T13:43:58.146Z</time></trkpt><trkpt lat="43.6821303" lon="11.2628337"><ele>289.0</ele><time>2026-03-29T13:43:59.146Z</time></trkpt><trkpt lat="43.6820018" lon="11.2630748"><ele>289.0</ele><time>2026-03-29T13:44:00.146Z</time></trkpt><trkpt lat="43.6818836" lon="11.2632947"><ele>291.3333333333333</ele><time>2026-03-29T13:44:01.146Z</time></trkpt><trkpt lat="43.6817802" lon="11.2634877"><ele>293.6666666666667</ele><time>2026-03-29T13:44:02.146Z</time></trkpt><trkpt lat="43.6816842" lon="11.2636655"><ele>296.0</ele><time>2026-03-29T13:44:03.146Z</time></trkpt><trkpt lat="43.681585" lon="11.2638265"><ele>295.33333333333337</ele><time>2026-03-29T13:44:04.145Z</time></trkpt><trkpt lat="43.681483" lon="11.2639681"><ele>294.6666666666667</ele><time>2026-03-29T13:44:05.146Z</time></trkpt><trkpt lat="43.6813463" lon="11.2640742"><ele>294.0</ele><time>2026-03-29T13:44:06.146Z</time></trkpt><trkpt lat="43.6811882" lon="11.2641512"><ele>293.3333333333333</ele><time>2026-03-29T13:44:07.146Z</time></trkpt><trkpt lat="43.6810187" lon="11.2642155"><ele>292.66666666666663</ele><time>2026-03-29T13:44:08.146Z</time></trkpt><trkpt lat="43.6808275" lon="11.2642623"><ele>292.0</ele><time>2026-03-29T13:44:09.146Z</time></trkpt><trkpt lat="43.6806381" lon="11.2643305"><ele>292.0</ele><time>2026-03-29T13:44:10.146Z</time></trkpt><trkpt lat="43.6804649" lon="11.2643933"><ele>292.0</ele><time>2026-03-29T13:44:11.146Z</time></trkpt><trkpt lat="43.6802968" lon="11.2644555"><ele>292.0</ele><time>2026-03-29T13:44:12.146Z</time></trkpt><trkpt lat="43.6801277" lon="11.2645226"><ele>290.3333333333333</ele><time>2026-03-29T13:44:13.146Z</time></trkpt><trkpt lat="43.6799658" lon="11.2645864"><ele>288.6666666666667</ele><time>2026-03-29T13:44:14.146Z</time></trkpt><trkpt lat="43.6798091" lon="11.2646424"><ele>287.0</ele><time>2026-03-29T13:44:15.146Z</time></trkpt><trkpt lat="43.6796655" lon="11.2646939"><ele>287.0</ele><time>2026-03-29T13:44:16.146Z</time></trkpt><trkpt lat="43.6795204" lon="11.264733"><ele>287.0</ele><time>2026-03-29T13:44:17.146Z</time></trkpt><trkpt lat="43.6793774" lon="11.2647533"><ele>287.0</ele><time>2026-03-29T13:44:18.146Z</time></trkpt><trkpt lat="43.6792207" lon="11.2647475"><ele>287.0</ele><time>2026-03-29T13:44:19.146Z</time></trkpt><trkpt lat="43.6790556" lon="11.2646943"><ele>286.6666666666667</ele><time>2026-03-29T13:44:20.146Z</time></trkpt><trkpt lat="43.6788787" lon="11.2646294"><ele>286.3333333333333</ele><time>2026-03-29T13:44:21.146Z</time></trkpt><trkpt lat="43.6787042" lon="11.2645637"><ele>286.0</ele><time>2026-03-29T13:44:22.145Z</time></trkpt><trkpt lat="43.6785307" lon="11.2644921"><ele>286.0</ele><time>2026-03-29T13:44:23.146Z</time></trkpt><trkpt lat="43.6783722" lon="11.2644429"><ele>286.0</ele><time>2026-03-29T13:44:24.146Z</time></trkpt><trkpt lat="43.6782072" lon="11.2643885"><ele>286.0</ele><time>2026-03-29T13:44:25.146Z</time></trkpt><trkpt lat="43.6780345" lon="11.2643253"><ele>286.0</ele><time>2026-03-29T13:44:26.146Z</time></trkpt><trkpt lat="43.6778601" lon="11.2642505"><ele>286.0</ele><time>2026-03-29T13:44:27.146Z</time></trkpt><trkpt lat="43.6776964" lon="11.2641937"><ele>286.0</ele><time>2026-03-29T13:44:28.146Z</time></trkpt><trkpt lat="43.6775334" lon="11.2641439"><ele>286.25</ele><time>2026-03-29T13:44:29.146Z</time></trkpt><trkpt lat="43.6773877" lon="11.2640927"><ele>286.5</ele><time>2026-03-29T13:44:30.146Z</time></trkpt><trkpt lat="43.6772562" lon="11.2640437"><ele>286.75</ele><time>2026-03-29T13:44:31.146Z</time></trkpt><trkpt lat="43.6771234" lon="11.2640092"><ele>287.0</ele><time>2026-03-29T13:44:32.146Z</time></trkpt><trkpt lat="43.6770114" lon="11.2639911"><ele>287.5</ele><time>2026-03-29T13:44:33.146Z</time></trkpt><trkpt lat="43.6769008" lon="11.2640076"><ele>288.0</ele><time>2026-03-29T13:44:34.146Z</time></trkpt><trkpt lat="43.6768158" lon="11.2640897"><ele>288.5</ele><time>2026-03-29T13:44:35.146Z</time></trkpt><trkpt lat="43.676743" lon="11.264212"><ele>289.0</ele><time>2026-03-29T13:44:36.146Z</time></trkpt><trkpt lat="43.6767095" lon="11.264375"><ele>289.0</ele><time>2026-03-29T13:44:37.146Z</time></trkpt><trkpt lat="43.6766923" lon="11.2645517"><ele>289.0</ele><time>2026-03-29T13:44:38.146Z</time></trkpt><trkpt lat="43.6766687" lon="11.2647082"><ele>289.0</ele><time>2026-03-29T13:44:39.146Z</time></trkpt><trkpt lat="43.6766301" lon="11.2648634"><ele>289.0</ele><time>2026-03-29T13:44:40.146Z</time></trkpt><trkpt lat="43.6765545" lon="11.2650095"><ele>287.0</ele><time>2026-03-29T13:44:41.145Z</time></trkpt><trkpt lat="43.6764167" lon="11.2651194"><ele>285.0</ele><time>2026-03-29T13:44:42.146Z</time></trkpt><trkpt lat="43.6762542" lon="11.2651842"><ele>283.0</ele><time>2026-03-29T13:44:43.146Z</time></trkpt><trkpt lat="43.6760849" lon="11.2652317"><ele>281.75</ele><time>2026-03-29T13:44:44.146Z</time></trkpt><trkpt lat="43.6759422" lon="11.2652784"><ele>280.5</ele><time>2026-03-29T13:44:45.146Z</time></trkpt><trkpt lat="43.6758262" lon="11.2653364"><ele>279.25</ele><time>2026-03-29T13:44:46.146Z</time></trkpt><trkpt lat="43.6757172" lon="11.2654544"><ele>278.0</ele><time>2026-03-29T13:44:47.146Z</time></trkpt><trkpt lat="43.6756441" lon="11.2655841"><ele>274.6666666666667</ele><time>2026-03-29T13:44:48.146Z</time></trkpt><trkpt lat="43.6755958" lon="11.2657879"><ele>271.3333333333333</ele><time>2026-03-29T13:44:49.146Z</time></trkpt><trkpt lat="43.6755479" lon="11.2660091"><ele>268.0</ele><time>2026-03-29T13:44:50.146Z</time></trkpt><trkpt lat="43.6754653" lon="11.2662303"><ele>268.0</ele><time>2026-03-29T13:44:51.146Z</time></trkpt><trkpt lat="43.6753733" lon="11.2664462"><ele>268.0</ele><time>2026-03-29T13:44:52.145Z</time></trkpt><trkpt lat="43.6753087" lon="11.2666795"><ele>268.0</ele><time>2026-03-29T13:44:53.146Z</time></trkpt><trkpt lat="43.6752441" lon="11.2669127"><ele>268.0</ele><time>2026-03-29T13:44:54.146Z</time></trkpt><trkpt lat="43.6751607" lon="11.2671349"><ele>268.0</ele><time>2026-03-29T13:44:55.146Z</time></trkpt><trkpt lat="43.6750641" lon="11.2673545"><ele>268.0</ele><time>2026-03-29T13:44:56.146Z</time></trkpt><trkpt lat="43.6749682" lon="11.2675595"><ele>264.66666666666663</ele><time>2026-03-29T13:44:57.146Z</time></trkpt><trkpt lat="43.6748906" lon="11.2677743"><ele>261.3333333333333</ele><time>2026-03-29T13:44:58.146Z</time></trkpt><trkpt lat="43.6748346" lon="11.2679969"><ele>258.0</ele><time>2026-03-29T13:44:59.146Z</time></trkpt><trkpt lat="43.6747961" lon="11.2682449"><ele>255.0</ele><time>2026-03-29T13:45:00.146Z</time></trkpt><trkpt lat="43.6747701" lon="11.2685131"><ele>252.0</ele><time>2026-03-29T13:45:01.146Z</time></trkpt><trkpt lat="43.6747634" lon="11.2688061"><ele>249.0</ele><time>2026-03-29T13:45:02.146Z</time></trkpt><trkpt lat="43.6747605" lon="11.2691083"><ele>246.66666666666669</ele><time>2026-03-29T13:45:03.146Z</time></trkpt><trkpt lat="43.6747539" lon="11.2694137"><ele>244.33333333333334</ele><time>2026-03-29T13:45:04.146Z</time></trkpt><trkpt lat="43.6747443" lon="11.2697214"><ele>242.0</ele><time>2026-03-29T13:45:05.146Z</time></trkpt><trkpt lat="43.6747303" lon="11.2700165"><ele>240.66666666666669</ele><time>2026-03-29T13:45:06.146Z</time></trkpt><trkpt lat="43.6747145" lon="11.2703147"><ele>239.33333333333331</ele><time>2026-03-29T13:45:07.146Z</time></trkpt><trkpt lat="43.674703" lon="11.270634"><ele>238.0</ele><time>2026-03-29T13:45:08.146Z</time></trkpt><trkpt lat="43.6746718" lon="11.2709719"><ele>236.0</ele><time>2026-03-29T13:45:09.146Z</time></trkpt><trkpt lat="43.6746227" lon="11.2713205"><ele>234.0</ele><time>2026-03-29T13:45:10.146Z</time></trkpt><trkpt lat="43.6745659" lon="11.2716693"><ele>231.5</ele><time>2026-03-29T13:45:11.146Z</time></trkpt><trkpt lat="43.6745058" lon="11.2720191"><ele>229.0</ele><time>2026-03-29T13:45:12.146Z</time></trkpt><trkpt lat="43.6744337" lon="11.2723736"><ele>228.0</ele><time>2026-03-29T13:45:13.146Z</time></trkpt><trkpt lat="43.6743342" lon="11.2727215"><ele>227.0</ele><time>2026-03-29T13:45:14.146Z</time></trkpt><trkpt lat="43.6742166" lon="11.2730514"><ele>226.5</ele><time>2026-03-29T13:45:15.146Z</time></trkpt><trkpt lat="43.6741053" lon="11.2733631"><ele>226.0</ele><time>2026-03-29T13:45:16.146Z</time></trkpt><trkpt lat="43.6740129" lon="11.2736592"><ele>226.5</ele><time>2026-03-29T13:45:17.146Z</time></trkpt><trkpt lat="43.6739273" lon="11.2739679"><ele>227.0</ele><time>2026-03-29T13:45:18.146Z</time></trkpt><trkpt lat="43.6738535" lon="11.2742679"><ele>227.0</ele><time>2026-03-29T13:45:19.146Z</time></trkpt><trkpt lat="43.6737941" lon="11.2745585"><ele>227.0</ele><time>2026-03-29T13:45:20.146Z</time></trkpt><trkpt lat="43.6737422" lon="11.2748252"><ele>227.0</ele><time>2026-03-29T13:45:21.146Z</time></trkpt><trkpt lat="43.6736829" lon="11.2750638"><ele>226.66666666666669</ele><time>2026-03-29T13:45:22.146Z</time></trkpt><trkpt lat="43.6736143" lon="11.2752817"><ele>226.33333333333331</ele><time>2026-03-29T13:45:23.146Z</time></trkpt><trkpt lat="43.6735384" lon="11.2754963"><ele>226.0</ele><time>2026-03-29T13:45:24.146Z</time></trkpt><trkpt lat="43.6734614" lon="11.2756874"><ele>228.25</ele><time>2026-03-29T13:45:25.146Z</time></trkpt><trkpt lat="43.6733767" lon="11.2758576"><ele>230.5</ele><time>2026-03-29T13:45:26.146Z</time></trkpt><trkpt lat="43.6732922" lon="11.2759862"><ele>232.75</ele><time>2026-03-29T13:45:27.146Z</time></trkpt><trkpt lat="43.6732158" lon="11.2761024"><ele>235.0</ele><time>2026-03-29T13:45:28.146Z</time></trkpt><trkpt lat="43.6731404" lon="11.2762196"><ele>235.0</ele><time>2026-03-29T13:45:29.146Z</time></trkpt><trkpt lat="43.6730657" lon="11.2763341"><ele>235.0</ele><time>2026-03-29T13:45:30.146Z</time></trkpt><trkpt lat="43.672997" lon="11.2764836"><ele>235.0</ele><time>2026-03-29T13:45:31.146Z</time></trkpt><trkpt lat="43.6729384" lon="11.2766858"><ele>235.0</ele><time>2026-03-29T13:45:32.146Z</time></trkpt><trkpt lat="43.6728694" lon="11.2769253"><ele>236.33333333333331</ele><time>2026-03-29T13:45:33.146Z</time></trkpt><trkpt lat="43.6727924" lon="11.2771729"><ele>237.66666666666669</ele><time>2026-03-29T13:45:34.146Z</time></trkpt><trkpt lat="43.6727026" lon="11.2774172"><ele>239.0</ele><time>2026-03-29T13:45:35.146Z</time></trkpt><trkpt lat="43.6726043" lon="11.2776698"><ele>239.0</ele><time>2026-03-29T13:45:36.146Z</time></trkpt><trkpt lat="43.6724971" lon="11.2779267"><ele>239.0</ele><time>2026-03-29T13:45:37.146Z</time></trkpt><trkpt lat="43.6723828" lon="11.2781798"><ele>239.0</ele><time>2026-03-29T13:45:38.145Z</time></trkpt><trkpt lat="43.67227" lon="11.2784399"><ele>240.33333333333334</ele><time>2026-03-29T13:45:39.146Z</time></trkpt><trkpt lat="43.6721542" lon="11.2786841"><ele>241.66666666666669</ele><time>2026-03-29T13:45:40.146Z</time></trkpt><trkpt lat="43.6720503" lon="11.2789049"><ele>243.0</ele><time>2026-03-29T13:45:41.146Z</time></trkpt><trkpt lat="43.6719578" lon="11.2790861"><ele>245.0</ele><time>2026-03-29T13:45:42.145Z</time></trkpt><trkpt lat="43.671876" lon="11.2792619"><ele>247.0</ele><time>2026-03-29T13:45:43.146Z</time></trkpt><trkpt lat="43.6718071" lon="11.279459"><ele>249.0</ele><time>2026-03-29T13:45:44.146Z</time></trkpt><trkpt lat="43.6717451" lon="11.2796757"><ele>249.33333333333331</ele><time>2026-03-29T13:45:45.146Z</time></trkpt><trkpt lat="43.6716922" lon="11.2798977"><ele>249.66666666666666</ele><time>2026-03-29T13:45:46.146Z</time></trkpt><trkpt lat="43.6716477" lon="11.2801295"><ele>250.0</ele><time>2026-03-29T13:45:47.146Z</time></trkpt><trkpt lat="43.6716047" lon="11.2803707"><ele>250.66666666666666</ele><time>2026-03-29T13:45:48.146Z</time></trkpt><trkpt lat="43.6715846" lon="11.2806292"><ele>251.33333333333331</ele><time>2026-03-29T13:45:49.146Z</time></trkpt><trkpt lat="43.6715757" lon="11.2808982"><ele>252.0</ele><time>2026-03-29T13:45:50.145Z</time></trkpt><trkpt lat="43.6715641" lon="11.2811738"><ele>251.66666666666669</ele><time>2026-03-29T13:45:51.146Z</time></trkpt><trkpt lat="43.6715554" lon="11.2814523"><ele>251.33333333333334</ele><time>2026-03-29T13:45:52.146Z</time></trkpt><trkpt lat="43.6715474" lon="11.2817316"><ele>251.0</ele><time>2026-03-29T13:45:53.146Z</time></trkpt><trkpt lat="43.6715332" lon="11.2820209"><ele>249.66666666666669</ele><time>2026-03-29T13:45:54.146Z</time></trkpt><trkpt lat="43.6715187" lon="11.2823162"><ele>248.33333333333331</ele><time>2026-03-29T13:45:55.146Z</time></trkpt><trkpt lat="43.671498" lon="11.2826212"><ele>247.0</ele><time>2026-03-29T13:45:56.146Z</time></trkpt><trkpt lat="43.6714808" lon="11.2829139"><ele>245.66666666666666</ele><time>2026-03-29T13:45:57.146Z</time></trkpt><trkpt lat="43.6714607" lon="11.2831846"><ele>244.33333333333331</ele><time>2026-03-29T13:45:58.146Z</time></trkpt><trkpt lat="43.6714345" lon="11.2834388"><ele>243.0</ele><time>2026-03-29T13:45:59.146Z</time></trkpt><trkpt lat="43.6713822" lon="11.2836703"><ele>243.0</ele><time>2026-03-29T13:46:00.146Z</time></trkpt><trkpt lat="43.6712986" lon="11.2838852"><ele>243.0</ele><time>2026-03-29T13:46:01.146Z</time></trkpt><trkpt lat="43.6711918" lon="11.2840791"><ele>243.0</ele><time>2026-03-29T13:46:02.146Z</time></trkpt><trkpt lat="43.6710608" lon="11.2842614"><ele>244.33333333333331</ele><time>2026-03-29T13:46:03.146Z</time></trkpt><trkpt lat="43.6709115" lon="11.2844237"><ele>245.66666666666666</ele><time>2026-03-29T13:46:04.145Z</time></trkpt><trkpt lat="43.670761" lon="11.2845867"><ele>247.0</ele><time>2026-03-29T13:46:05.146Z</time></trkpt><trkpt lat="43.6706167" lon="11.2847349"><ele>246.66666666666666</ele><time>2026-03-29T13:46:06.146Z</time></trkpt><trkpt lat="43.6704492" lon="11.2848465"><ele>246.33333333333331</ele><time>2026-03-29T13:46:07.146Z</time></trkpt><trkpt lat="43.6702662" lon="11.2849117"><ele>246.0</ele><time>2026-03-29T13:46:08.147Z</time></trkpt><trkpt lat="43.6700636" lon="11.2849518"><ele>245.66666666666669</ele><time>2026-03-29T13:46:09.147Z</time></trkpt><trkpt lat="43.6698547" lon="11.285029"><ele>245.33333333333334</ele><time>2026-03-29T13:46:10.147Z</time></trkpt><trkpt lat="43.6696636" lon="11.2851421"><ele>245.0</ele><time>2026-03-29T13:46:11.146Z</time></trkpt><trkpt lat="43.669477" lon="11.285284"><ele>244.33333333333334</ele><time>2026-03-29T13:46:12.147Z</time></trkpt><trkpt lat="43.669301" lon="11.2854327"><ele>243.66666666666669</ele><time>2026-03-29T13:46:13.147Z</time></trkpt><trkpt lat="43.6691417" lon="11.2855648"><ele>243.0</ele><time>2026-03-29T13:46:14.147Z</time></trkpt><trkpt lat="43.6690015" lon="11.2856903"><ele>244.33333333333331</ele><time>2026-03-29T13:46:15.147Z</time></trkpt><trkpt lat="43.6688822" lon="11.2858426"><ele>245.66666666666666</ele><time>2026-03-29T13:46:16.147Z</time></trkpt><trkpt lat="43.6687903" lon="11.2860163"><ele>247.0</ele><time>2026-03-29T13:46:17.147Z</time></trkpt><trkpt lat="43.6687318" lon="11.2862252"><ele>247.33333333333331</ele><time>2026-03-29T13:46:18.146Z</time></trkpt><trkpt lat="43.6687154" lon="11.2864316"><ele>247.66666666666669</ele><time>2026-03-29T13:46:19.147Z</time></trkpt><trkpt lat="43.668741" lon="11.2866594"><ele>248.0</ele><time>2026-03-29T13:46:20.147Z</time></trkpt><trkpt lat="43.6687894" lon="11.2869197"><ele>248.0</ele><time>2026-03-29T13:46:21.147Z</time></trkpt><trkpt lat="43.6688619" lon="11.2871744"><ele>248.0</ele><time>2026-03-29T13:46:22.147Z</time></trkpt><trkpt lat="43.6689334" lon="11.287442"><ele>248.0</ele><time>2026-03-29T13:46:23.147Z</time></trkpt><trkpt lat="43.6689977" lon="11.2877203"><ele>248.0</ele><time>2026-03-29T13:46:24.147Z</time></trkpt><trkpt lat="43.6690503" lon="11.28801"><ele>248.0</ele><time>2026-03-29T13:46:25.147Z</time></trkpt><trkpt lat="43.6690857" lon="11.2882977"><ele>248.0</ele><time>2026-03-29T13:46:26.147Z</time></trkpt><trkpt lat="43.6691168" lon="11.2885817"><ele>248.0</ele><time>2026-03-29T13:46:27.147Z</time></trkpt><trkpt lat="43.6691382" lon="11.2888811"><ele>248.0</ele><time>2026-03-29T13:46:28.147Z</time></trkpt><trkpt lat="43.6691494" lon="11.2891965"><ele>248.0</ele><time>2026-03-29T13:46:29.147Z</time></trkpt><trkpt lat="43.6691484" lon="11.2895112"><ele>245.33333333333334</ele><time>2026-03-29T13:46:30.147Z</time></trkpt><trkpt lat="43.6691339" lon="11.2898105"><ele>242.66666666666669</ele><time>2026-03-29T13:46:31.147Z</time></trkpt><trkpt lat="43.6691088" lon="11.29009"><ele>240.0</ele><time>2026-03-29T13:46:32.147Z</time></trkpt><trkpt lat="43.6690613" lon="11.2903487"><ele>240.0</ele><time>2026-03-29T13:46:33.147Z</time></trkpt><trkpt lat="43.6690042" lon="11.2905886"><ele>240.0</ele><time>2026-03-29T13:46:34.147Z</time></trkpt><trkpt lat="43.6689467" lon="11.2908253"><ele>240.0</ele><time>2026-03-29T13:46:35.147Z</time></trkpt><trkpt lat="43.6688934" lon="11.291059"><ele>240.33333333333331</ele><time>2026-03-29T13:46:36.147Z</time></trkpt><trkpt lat="43.6688304" lon="11.2912829"><ele>240.66666666666666</ele><time>2026-03-29T13:46:37.146Z</time></trkpt><trkpt lat="43.6687441" lon="11.2914974"><ele>241.0</ele><time>2026-03-29T13:46:38.147Z</time></trkpt><trkpt lat="43.6686443" lon="11.2916851"><ele>239.75</ele><time>2026-03-29T13:46:39.147Z</time></trkpt><trkpt lat="43.6685541" lon="11.2918436"><ele>238.5</ele><time>2026-03-29T13:46:40.147Z</time></trkpt><trkpt lat="43.6684701" lon="11.2919815"><ele>237.25</ele><time>2026-03-29T13:46:41.147Z</time></trkpt><trkpt lat="43.6684033" lon="11.2920962"><ele>236.0</ele><time>2026-03-29T13:46:42.146Z</time></trkpt><trkpt lat="43.6683541" lon="11.2921884"><ele>236.20000000000002</ele><time>2026-03-29T13:46:43.147Z</time></trkpt><trkpt lat="43.6683218" lon="11.29227"><ele>236.40000000000003</ele><time>2026-03-29T13:46:44.147Z</time></trkpt><trkpt lat="43.6682895" lon="11.2923621"><ele>236.6</ele><time>2026-03-29T13:46:46.147Z</time></trkpt><trkpt lat="43.6683304" lon="11.2924352"><ele>236.8</ele><time>2026-03-29T13:46:49.147Z</time></trkpt><trkpt lat="43.6684921" lon="11.292426"><ele>237.0</ele><time>2026-03-29T13:46:51.147Z</time></trkpt><trkpt lat="43.6686048" lon="11.2924019"><ele>238.33333333333331</ele><time>2026-03-29T13:46:52.147Z</time></trkpt><trkpt lat="43.668743" lon="11.2923743"><ele>239.66666666666666</ele><time>2026-03-29T13:46:53.147Z</time></trkpt><trkpt lat="43.6688913" lon="11.2923477"><ele>241.0</ele><time>2026-03-29T13:46:54.146Z</time></trkpt><trkpt lat="43.6690534" lon="11.2923155"><ele>241.0</ele><time>2026-03-29T13:46:55.147Z</time></trkpt><trkpt lat="43.6692268" lon="11.2922852"><ele>241.0</ele><time>2026-03-29T13:46:56.147Z</time></trkpt><trkpt lat="43.6694012" lon="11.2922561"><ele>241.0</ele><time>2026-03-29T13:46:57.147Z</time></trkpt><trkpt lat="43.6695807" lon="11.2922255"><ele>244.0</ele><time>2026-03-29T13:46:58.147Z</time></trkpt><trkpt lat="43.6697594" lon="11.2921887"><ele>247.0</ele><time>2026-03-29T13:46:59.147Z</time></trkpt><trkpt lat="43.6699443" lon="11.2921576"><ele>250.0</ele><time>2026-03-29T13:47:00.147Z</time></trkpt><trkpt lat="43.670131" lon="11.2921292"><ele>250.0</ele><time>2026-03-29T13:47:01.146Z</time></trkpt><trkpt lat="43.6703176" lon="11.2920989"><ele>250.0</ele><time>2026-03-29T13:47:02.147Z</time></trkpt><trkpt lat="43.6705117" lon="11.2920686"><ele>250.0</ele><time>2026-03-29T13:47:03.147Z</time></trkpt><trkpt lat="43.6707069" lon="11.2920359"><ele>250.0</ele><time>2026-03-29T13:47:04.147Z</time></trkpt><trkpt lat="43.6708954" lon="11.2920168"><ele>250.0</ele><time>2026-03-29T13:47:05.147Z</time></trkpt><trkpt lat="43.6710618" lon="11.2920236"><ele>250.0</ele><time>2026-03-29T13:47:06.147Z</time></trkpt><trkpt lat="43.6711929" lon="11.2920593"><ele>249.6</ele><time>2026-03-29T13:47:07.147Z</time></trkpt><trkpt lat="43.6713137" lon="11.2920938"><ele>249.2</ele><time>2026-03-29T13:47:08.147Z</time></trkpt><trkpt lat="43.6714265" lon="11.2921236"><ele>248.8</ele><time>2026-03-29T13:47:09.147Z</time></trkpt><trkpt lat="43.6715263" lon="11.2921547"><ele>248.4</ele><time>2026-03-29T13:47:10.147Z</time></trkpt><trkpt lat="43.6716175" lon="11.2921753"><ele>248.0</ele><time>2026-03-29T13:47:11.147Z</time></trkpt><trkpt lat="43.6717008" lon="11.2921932"><ele>248.0</ele><time>2026-03-29T13:47:12.147Z</time></trkpt><trkpt lat="43.6717748" lon="11.2922121"><ele>248.0</ele><time>2026-03-29T13:47:13.147Z</time></trkpt><trkpt lat="43.6718442" lon="11.2922346"><ele>248.0</ele><time>2026-03-29T13:47:14.147Z</time></trkpt><trkpt lat="43.6719358" lon="11.2922877"><ele>248.0</ele><time>2026-03-29T13:47:16.147Z</time></trkpt><trkpt lat="43.6719819" lon="11.2924621"><ele>248.0</ele><time>2026-03-29T13:47:18.147Z</time></trkpt><trkpt lat="43.6720166" lon="11.2925953"><ele>250.25</ele><time>2026-03-29T13:47:19.147Z</time></trkpt><trkpt lat="43.6720585" lon="11.2927905"><ele>252.5</ele><time>2026-03-29T13:47:20.147Z</time></trkpt><trkpt lat="43.672098" lon="11.292965"><ele>254.75</ele><time>2026-03-29T13:47:21.147Z</time></trkpt><trkpt lat="43.6721425" lon="11.2931242"><ele>257.0</ele><time>2026-03-29T13:47:22.147Z</time></trkpt><trkpt lat="43.6721913" lon="11.2932624"><ele>257.25</ele><time>2026-03-29T13:47:23.147Z</time></trkpt><trkpt lat="43.672248" lon="11.2934002"><ele>257.5</ele><time>2026-03-29T13:47:24.147Z</time></trkpt><trkpt lat="43.6723233" lon="11.2935438"><ele>257.75</ele><time>2026-03-29T13:47:25.147Z</time></trkpt><trkpt lat="43.6724096" lon="11.2936742"><ele>258.0</ele><time>2026-03-29T13:47:26.146Z</time></trkpt><trkpt lat="43.6724969" lon="11.2938021"><ele>258.75</ele><time>2026-03-29T13:47:27.147Z</time></trkpt><trkpt lat="43.6725761" lon="11.293925"><ele>259.5</ele><time>2026-03-29T13:47:28.147Z</time></trkpt><trkpt lat="43.6726489" lon="11.2940529"><ele>260.25</ele><time>2026-03-29T13:47:29.147Z</time></trkpt><trkpt lat="43.6727196" lon="11.2941784"><ele>261.0</ele><time>2026-03-29T13:47:30.147Z</time></trkpt><trkpt lat="43.672795" lon="11.2942981"><ele>261.0</ele><time>2026-03-29T13:47:31.147Z</time></trkpt><trkpt lat="43.6728705" lon="11.2944088"><ele>261.0</ele><time>2026-03-29T13:47:32.147Z</time></trkpt><trkpt lat="43.6729434" lon="11.2945095"><ele>261.0</ele><time>2026-03-29T13:47:33.147Z</time></trkpt><trkpt lat="43.6729952" lon="11.2946059"><ele>261.0</ele><time>2026-03-29T13:47:34.146Z</time></trkpt><trkpt lat="43.6730308" lon="11.2946976"><ele>261.0</ele><time>2026-03-29T13:47:35.147Z</time></trkpt><trkpt lat="43.6730587" lon="11.2947992"><ele>259.40000000000003</ele><time>2026-03-29T13:47:36.147Z</time></trkpt><trkpt lat="43.6730856" lon="11.2949144"><ele>257.8</ele><time>2026-03-29T13:47:37.147Z</time></trkpt><trkpt lat="43.6731278" lon="11.2950481"><ele>256.20000000000005</ele><time>2026-03-29T13:47:38.147Z</time></trkpt><trkpt lat="43.6731776" lon="11.2951877"><ele>254.60000000000002</ele><time>2026-03-29T13:47:39.147Z</time></trkpt><trkpt lat="43.6732319" lon="11.2953314"><ele>253.0</ele><time>2026-03-29T13:47:40.147Z</time></trkpt><trkpt lat="43.6732865" lon="11.2954726"><ele>250.75</ele><time>2026-03-29T13:47:41.147Z</time></trkpt><trkpt lat="43.6733405" lon="11.2956133"><ele>248.5</ele><time>2026-03-29T13:47:42.147Z</time></trkpt><trkpt lat="43.6733979" lon="11.2957552"><ele>246.25</ele><time>2026-03-29T13:47:43.147Z</time></trkpt><trkpt lat="43.6734456" lon="11.295896"><ele>244.0</ele><time>2026-03-29T13:47:44.147Z</time></trkpt><trkpt lat="43.6734774" lon="11.2960453"><ele>244.0</ele><time>2026-03-29T13:47:45.147Z</time></trkpt><trkpt lat="43.6735101" lon="11.2961801"><ele>243.99999999999997</ele><time>2026-03-29T13:47:46.147Z</time></trkpt><trkpt lat="43.6735469" lon="11.2963088"><ele>243.99999999999997</ele><time>2026-03-29T13:47:47.147Z</time></trkpt><trkpt lat="43.673594" lon="11.29643"><ele>244.0</ele><time>2026-03-29T13:47:48.147Z</time></trkpt><trkpt lat="43.6736529" lon="11.2965338"><ele>244.0</ele><time>2026-03-29T13:47:49.147Z</time></trkpt><trkpt lat="43.6737122" lon="11.2966403"><ele>243.49999999999997</ele><time>2026-03-29T13:47:50.147Z</time></trkpt><trkpt lat="43.673772" lon="11.2967368"><ele>243.0</ele><time>2026-03-29T13:47:51.147Z</time></trkpt><trkpt lat="43.6738439" lon="11.2968135"><ele>242.5</ele><time>2026-03-29T13:47:52.147Z</time></trkpt><trkpt lat="43.6739034" lon="11.2968763"><ele>242.0</ele><time>2026-03-29T13:47:53.147Z</time></trkpt><trkpt lat="43.6739614" lon="11.2969151"><ele>241.49999999999997</ele><time>2026-03-29T13:47:54.147Z</time></trkpt><trkpt lat="43.6740528" lon="11.2969934"><ele>241.0</ele><time>2026-03-29T13:47:56.147Z</time></trkpt><trkpt lat="43.6740923" lon="11.2970981"><ele>239.4</ele><time>2026-03-29T13:47:58.147Z</time></trkpt><trkpt lat="43.6740513" lon="11.2972702"><ele>237.8</ele><time>2026-03-29T13:48:00.147Z</time></trkpt><trkpt lat="43.6740272" lon="11.2973834"><ele>236.20000000000002</ele><time>2026-03-29T13:48:01.147Z</time></trkpt><trkpt lat="43.6740184" lon="11.2974774"><ele>234.60000000000002</ele><time>2026-03-29T13:48:02.147Z</time></trkpt><trkpt lat="43.6740479" lon="11.2976037"><ele>233.0</ele><time>2026-03-29T13:48:03.147Z</time></trkpt><trkpt lat="43.6740845" lon="11.2977464"><ele>233.0</ele><time>2026-03-29T13:48:04.147Z</time></trkpt><trkpt lat="43.6741118" lon="11.2978883"><ele>233.0</ele><time>2026-03-29T13:48:05.147Z</time></trkpt><trkpt lat="43.6741352" lon="11.2980184"><ele>233.0</ele><time>2026-03-29T13:48:06.147Z</time></trkpt><trkpt lat="43.6741584" lon="11.2981524"><ele>233.0</ele><time>2026-03-29T13:48:07.147Z</time></trkpt><trkpt lat="43.6741791" lon="11.2982923"><ele>233.0</ele><time>2026-03-29T13:48:08.147Z</time></trkpt><trkpt lat="43.6742035" lon="11.2984374"><ele>231.60000000000002</ele><time>2026-03-29T13:48:09.147Z</time></trkpt><trkpt lat="43.6742294" lon="11.2985891"><ele>230.20000000000002</ele><time>2026-03-29T13:48:10.147Z</time></trkpt><trkpt lat="43.6742535" lon="11.2987215"><ele>228.8</ele><time>2026-03-29T13:48:11.147Z</time></trkpt><trkpt lat="43.6742767" lon="11.2988444"><ele>227.4</ele><time>2026-03-29T13:48:12.147Z</time></trkpt><trkpt lat="43.6743008" lon="11.2989572"><ele>226.0</ele><time>2026-03-29T13:48:13.147Z</time></trkpt><trkpt lat="43.6743289" lon="11.2990582"><ele>224.99999999999997</ele><time>2026-03-29T13:48:14.146Z</time></trkpt><trkpt lat="43.6743556" lon="11.2991514"><ele>224.0</ele><time>2026-03-29T13:48:15.147Z</time></trkpt><trkpt lat="43.6743744" lon="11.2992349"><ele>223.0</ele><time>2026-03-29T13:48:16.147Z</time></trkpt><trkpt lat="43.6743876" lon="11.299325"><ele>222.0</ele><time>2026-03-29T13:48:17.147Z</time></trkpt><trkpt lat="43.6743812" lon="11.2995079"><ele>220.99999999999997</ele><time>2026-03-29T13:48:19.147Z</time></trkpt><trkpt lat="43.6743801" lon="11.2996049"><ele>220.0</ele><time>2026-03-29T13:48:20.146Z</time></trkpt><trkpt lat="43.6743736" lon="11.2996981"><ele>218.99999999999997</ele><time>2026-03-29T13:48:21.147Z</time></trkpt><trkpt lat="43.6743623" lon="11.2997955"><ele>218.0</ele><time>2026-03-29T13:48:22.147Z</time></trkpt><trkpt lat="43.6743386" lon="11.2998898"><ele>217.0</ele><time>2026-03-29T13:48:23.147Z</time></trkpt><trkpt lat="43.6743029" lon="11.2999805"><ele>216.0</ele><time>2026-03-29T13:48:24.147Z</time></trkpt><trkpt lat="43.6742617" lon="11.3000707"><ele>215.0</ele><time>2026-03-29T13:48:25.147Z</time></trkpt><trkpt lat="43.6742114" lon="11.3001593"><ele>213.99999999999997</ele><time>2026-03-29T13:48:26.147Z</time></trkpt><trkpt lat="43.6741706" lon="11.3002414"><ele>213.0</ele><time>2026-03-29T13:48:27.147Z</time></trkpt><trkpt lat="43.6741083" lon="11.3003836"><ele>213.0</ele><time>2026-03-29T13:48:29.147Z</time></trkpt><trkpt lat="43.6740778" lon="11.3005129"><ele>213.0</ele><time>2026-03-29T13:48:31.147Z</time></trkpt><trkpt lat="43.6741132" lon="11.3006449"><ele>213.0</ele><time>2026-03-29T13:48:33.147Z</time></trkpt><trkpt lat="43.6742038" lon="11.3007114"><ele>213.0</ele><time>2026-03-29T13:48:35.146Z</time></trkpt><trkpt lat="43.6743287" lon="11.3007641"><ele>213.0</ele><time>2026-03-29T13:48:37.147Z</time></trkpt><trkpt lat="43.6743987" lon="11.3007982"><ele>211.16666666666666</ele><time>2026-03-29T13:48:38.147Z</time></trkpt><trkpt lat="43.6744612" lon="11.3008608"><ele>209.33333333333331</ele><time>2026-03-29T13:48:39.147Z</time></trkpt><trkpt lat="43.6745243" lon="11.3009423"><ele>207.5</ele><time>2026-03-29T13:48:40.147Z</time></trkpt><trkpt lat="43.6745703" lon="11.3010523"><ele>205.66666666666666</ele><time>2026-03-29T13:48:41.147Z</time></trkpt><trkpt lat="43.6746042" lon="11.3011693"><ele>203.83333333333331</ele><time>2026-03-29T13:48:42.147Z</time></trkpt><trkpt lat="43.6746242" lon="11.3012962"><ele>202.0</ele><time>2026-03-29T13:48:43.147Z</time></trkpt><trkpt lat="43.6746325" lon="11.3014209"><ele>200.83333333333331</ele><time>2026-03-29T13:48:44.147Z</time></trkpt><trkpt lat="43.6746252" lon="11.3015356"><ele>199.66666666666666</ele><time>2026-03-29T13:48:45.147Z</time></trkpt><trkpt lat="43.6746106" lon="11.3016484"><ele>198.5</ele><time>2026-03-29T13:48:46.147Z</time></trkpt><trkpt lat="43.6745958" lon="11.3017634"><ele>197.33333333333331</ele><time>2026-03-29T13:48:47.147Z</time></trkpt><trkpt lat="43.6745876" lon="11.3018662"><ele>196.16666666666666</ele><time>2026-03-29T13:48:48.147Z</time></trkpt><trkpt lat="43.6745788" lon="11.3019668"><ele>195.0</ele><time>2026-03-29T13:48:49.147Z</time></trkpt><trkpt lat="43.6745739" lon="11.3020584"><ele>195.0</ele><time>2026-03-29T13:48:50.147Z</time></trkpt><trkpt lat="43.6745784" lon="11.302152"><ele>195.0</ele><time>2026-03-29T13:48:51.147Z</time></trkpt><trkpt lat="43.6745966" lon="11.3022618"><ele>195.0</ele><time>2026-03-29T13:48:52.147Z</time></trkpt><trkpt lat="43.6746364" lon="11.3023642"><ele>195.0</ele><time>2026-03-29T13:48:53.147Z</time></trkpt><trkpt lat="43.6746849" lon="11.3024618"><ele>195.0</ele><time>2026-03-29T13:48:54.147Z</time></trkpt><trkpt lat="43.6747404" lon="11.3025462"><ele>195.0</ele><time>2026-03-29T13:48:55.147Z</time></trkpt><trkpt lat="43.6747993" lon="11.3026251"><ele>193.5</ele><time>2026-03-29T13:48:56.147Z</time></trkpt><trkpt lat="43.6748642" lon="11.3027088"><ele>192.0</ele><time>2026-03-29T13:48:57.147Z</time></trkpt><trkpt lat="43.6749353" lon="11.3027961"><ele>190.5</ele><time>2026-03-29T13:48:58.147Z</time></trkpt><trkpt lat="43.6750019" lon="11.3028851"><ele>189.0</ele><time>2026-03-29T13:48:59.147Z</time></trkpt><trkpt lat="43.6750685" lon="11.3029707"><ele>187.5</ele><time>2026-03-29T13:49:00.147Z</time></trkpt><trkpt lat="43.6751302" lon="11.3030423"><ele>186.0</ele><time>2026-03-29T13:49:01.147Z</time></trkpt><trkpt lat="43.6751931" lon="11.3030923"><ele>183.66666666666666</ele><time>2026-03-29T13:49:02.147Z</time></trkpt><trkpt lat="43.6752514" lon="11.3031418"><ele>181.33333333333334</ele><time>2026-03-29T13:49:03.147Z</time></trkpt><trkpt lat="43.6753132" lon="11.3031981"><ele>179.0</ele><time>2026-03-29T13:49:04.147Z</time></trkpt><trkpt lat="43.6753464" lon="11.30329"><ele>176.66666666666669</ele><time>2026-03-29T13:49:05.147Z</time></trkpt><trkpt lat="43.6753571" lon="11.3034315"><ele>174.33333333333334</ele><time>2026-03-29T13:49:06.147Z</time></trkpt><trkpt lat="43.6753692" lon="11.3035733"><ele>172.0</ele><time>2026-03-29T13:49:07.147Z</time></trkpt><trkpt lat="43.6753912" lon="11.3037169"><ele>170.2</ele><time>2026-03-29T13:49:08.147Z</time></trkpt><trkpt lat="43.6754195" lon="11.3038591"><ele>168.39999999999998</ele><time>2026-03-29T13:49:09.147Z</time></trkpt><trkpt lat="43.6754517" lon="11.303974"><ele>166.60000000000002</ele><time>2026-03-29T13:49:10.147Z</time></trkpt><trkpt lat="43.67549" lon="11.3040567"><ele>164.8</ele><time>2026-03-29T13:49:11.147Z</time></trkpt><trkpt lat="43.6755526" lon="11.3041815"><ele>163.0</ele><time>2026-03-29T13:49:13.147Z</time></trkpt><trkpt lat="43.6755562" lon="11.3043028"><ele>161.33333333333334</ele><time>2026-03-29T13:49:15.147Z</time></trkpt><trkpt lat="43.6754898" lon="11.3043817"><ele>159.66666666666669</ele><time>2026-03-29T13:49:17.147Z</time></trkpt><trkpt lat="43.675436" lon="11.3044347"><ele>158.0</ele><time>2026-03-29T13:49:19.147Z</time></trkpt><trkpt lat="43.675509" lon="11.3045139"><ele>156.33333333333334</ele><time>2026-03-29T13:49:21.147Z</time></trkpt><trkpt lat="43.6755772" lon="11.3045418"><ele>154.66666666666666</ele><time>2026-03-29T13:49:22.147Z</time></trkpt><trkpt lat="43.6756551" lon="11.3045714"><ele>153.0</ele><time>2026-03-29T13:49:23.146Z</time></trkpt><trkpt lat="43.6757313" lon="11.3045702"><ele>153.0</ele><time>2026-03-29T13:49:24.147Z</time></trkpt><trkpt lat="43.6758113" lon="11.3045398"><ele>153.0</ele><time>2026-03-29T13:49:25.147Z</time></trkpt><trkpt lat="43.6758924" lon="11.3044988"><ele>153.0</ele><time>2026-03-29T13:49:26.147Z</time></trkpt><trkpt lat="43.6759676" lon="11.304478"><ele>153.0</ele><time>2026-03-29T13:49:27.147Z</time></trkpt><trkpt lat="43.6760342" lon="11.3044849"><ele>153.0</ele><time>2026-03-29T13:49:28.147Z</time></trkpt><trkpt lat="43.6761002" lon="11.3045138"><ele>153.0</ele><time>2026-03-29T13:49:29.147Z</time></trkpt><trkpt lat="43.67616" lon="11.3045642"><ele>151.5</ele><time>2026-03-29T13:49:30.147Z</time></trkpt><trkpt lat="43.6762247" lon="11.3046701"><ele>150.0</ele><time>2026-03-29T13:49:31.147Z</time></trkpt><trkpt lat="43.6762745" lon="11.304764"><ele>148.5</ele><time>2026-03-29T13:49:32.147Z</time></trkpt><trkpt lat="43.6763258" lon="11.3048529"><ele>147.0</ele><time>2026-03-29T13:49:33.147Z</time></trkpt><trkpt lat="43.6763861" lon="11.304942"><ele>145.5</ele><time>2026-03-29T13:49:34.147Z</time></trkpt><trkpt lat="43.6764309" lon="11.3050538"><ele>144.0</ele><time>2026-03-29T13:49:35.147Z</time></trkpt><trkpt lat="43.6764665" lon="11.305189"><ele>142.0</ele><time>2026-03-29T13:49:36.147Z</time></trkpt><trkpt lat="43.6765014" lon="11.3053229"><ele>140.0</ele><time>2026-03-29T13:49:37.147Z</time></trkpt><trkpt lat="43.6765448" lon="11.3054335"><ele>138.0</ele><time>2026-03-29T13:49:38.146Z</time></trkpt><trkpt lat="43.6766067" lon="11.3055356"><ele>136.0</ele><time>2026-03-29T13:49:39.147Z</time></trkpt><trkpt lat="43.6766692" lon="11.3056288"><ele>134.0</ele><time>2026-03-29T13:49:40.147Z</time></trkpt><trkpt lat="43.6767276" lon="11.3057098"><ele>133.0</ele><time>2026-03-29T13:49:41.147Z</time></trkpt><trkpt lat="43.6767681" lon="11.305849"><ele>132.0</ele><time>2026-03-29T13:49:43.147Z</time></trkpt><trkpt lat="43.6767389" lon="11.3059746"><ele>131.0</ele><time>2026-03-29T13:49:45.147Z</time></trkpt><trkpt lat="43.6767006" lon="11.3060536"><ele>130.0</ele><time>2026-03-29T13:49:47.146Z</time></trkpt><trkpt lat="43.6767501" lon="11.306125"><ele>129.0</ele><time>2026-03-29T13:49:49.147Z</time></trkpt><trkpt lat="43.6767917" lon="11.306235"><ele>128.0</ele><time>2026-03-29T13:49:51.147Z</time></trkpt><trkpt lat="43.6768354" lon="11.3063577"><ele>128.33333333333331</ele><time>2026-03-29T13:49:53.147Z</time></trkpt><trkpt lat="43.6768282" lon="11.3064809"><ele>128.66666666666666</ele><time>2026-03-29T13:49:55.147Z</time></trkpt><trkpt lat="43.6767622" lon="11.3065411"><ele>129.0</ele><time>2026-03-29T13:49:57.147Z</time></trkpt><trkpt lat="43.6766787" lon="11.3065914"><ele>129.33333333333334</ele><time>2026-03-29T13:49:59.147Z</time></trkpt><trkpt lat="43.6766192" lon="11.3066387"><ele>129.66666666666669</ele><time>2026-03-29T13:50:00.147Z</time></trkpt><trkpt lat="43.6765325" lon="11.3066773"><ele>130.0</ele><time>2026-03-29T13:50:01.147Z</time></trkpt><trkpt lat="43.6764482" lon="11.3067037"><ele>130.0</ele><time>2026-03-29T13:50:02.147Z</time></trkpt><trkpt lat="43.6763468" lon="11.3067246"><ele>130.0</ele><time>2026-03-29T13:50:03.146Z</time></trkpt><trkpt lat="43.6762444" lon="11.3067653"><ele>130.0</ele><time>2026-03-29T13:50:04.147Z</time></trkpt><trkpt lat="43.676155" lon="11.3067802"><ele>130.0</ele><time>2026-03-29T13:50:05.147Z</time></trkpt><trkpt lat="43.6760694" lon="11.3067672"><ele>130.0</ele><time>2026-03-29T13:50:06.147Z</time></trkpt><trkpt lat="43.6759842" lon="11.3067461"><ele>130.6</ele><time>2026-03-29T13:50:07.147Z</time></trkpt><trkpt lat="43.6759025" lon="11.3067471"><ele>131.2</ele><time>2026-03-29T13:50:08.147Z</time></trkpt><trkpt lat="43.675837" lon="11.3067777"><ele>131.8</ele><time>2026-03-29T13:50:09.147Z</time></trkpt><trkpt lat="43.6757904" lon="11.3068869"><ele>132.4</ele><time>2026-03-29T13:50:11.147Z</time></trkpt><trkpt lat="43.6757686" lon="11.3070585"><ele>133.0</ele><time>2026-03-29T13:50:13.147Z</time></trkpt><trkpt lat="43.6757345" lon="11.3071601"><ele>133.0</ele><time>2026-03-29T13:50:14.147Z</time></trkpt><trkpt lat="43.6756891" lon="11.3072404"><ele>133.0</ele><time>2026-03-29T13:50:15.147Z</time></trkpt><trkpt lat="43.6756344" lon="11.3073256"><ele>133.0</ele><time>2026-03-29T13:50:16.147Z</time></trkpt><trkpt lat="43.6755885" lon="11.3074165"><ele>133.0</ele><time>2026-03-29T13:50:17.147Z</time></trkpt><trkpt lat="43.6755452" lon="11.307521"><ele>133.0</ele><time>2026-03-29T13:50:18.146Z</time></trkpt><trkpt lat="43.6755089" lon="11.3076237"><ele>133.0</ele><time>2026-03-29T13:50:19.147Z</time></trkpt><trkpt lat="43.675487" lon="11.3077149"><ele>134.66666666666669</ele><time>2026-03-29T13:50:20.147Z</time></trkpt><trkpt lat="43.6754951" lon="11.3078874"><ele>136.33333333333334</ele><time>2026-03-29T13:50:22.147Z</time></trkpt><trkpt lat="43.6755125" lon="11.3079824"><ele>138.0</ele><time>2026-03-29T13:50:23.147Z</time></trkpt><trkpt lat="43.675525" lon="11.308072"><ele>139.66666666666666</ele><time>2026-03-29T13:50:24.147Z</time></trkpt><trkpt lat="43.6755225" lon="11.308188"><ele>141.33333333333331</ele><time>2026-03-29T13:50:25.147Z</time></trkpt><trkpt lat="43.67551" lon="11.308308"><ele>143.0</ele><time>2026-03-29T13:50:26.147Z</time></trkpt><trkpt lat="43.6754976" lon="11.3084326"><ele>144.6</ele><time>2026-03-29T13:50:27.147Z</time></trkpt><trkpt lat="43.6754979" lon="11.3085546"><ele>146.20000000000002</ele><time>2026-03-29T13:50:28.147Z</time></trkpt><trkpt lat="43.6754991" lon="11.3086894"><ele>147.8</ele><time>2026-03-29T13:50:29.147Z</time></trkpt><trkpt lat="43.6755139" lon="11.3088295"><ele>149.4</ele><time>2026-03-29T13:50:30.147Z</time></trkpt><trkpt lat="43.6755487" lon="11.3089682"><ele>151.0</ele><time>2026-03-29T13:50:31.147Z</time></trkpt><trkpt lat="43.6756" lon="11.3091023"><ele>152.5</ele><time>2026-03-29T13:50:32.147Z</time></trkpt><trkpt lat="43.6756642" lon="11.3092345"><ele>154.0</ele><time>2026-03-29T13:50:33.147Z</time></trkpt><trkpt lat="43.6757327" lon="11.3093631"><ele>155.5</ele><time>2026-03-29T13:50:34.147Z</time></trkpt><trkpt lat="43.6758041" lon="11.3094951"><ele>157.0</ele><time>2026-03-29T13:50:35.147Z</time></trkpt><trkpt lat="43.6758818" lon="11.3096222"><ele>157.75</ele><time>2026-03-29T13:50:36.147Z</time></trkpt><trkpt lat="43.6759719" lon="11.3097534"><ele>158.5</ele><time>2026-03-29T13:50:37.147Z</time></trkpt><trkpt lat="43.6760564" lon="11.3098677"><ele>159.25</ele><time>2026-03-29T13:50:38.147Z</time></trkpt><trkpt lat="43.6761449" lon="11.3099794"><ele>160.0</ele><time>2026-03-29T13:50:39.147Z</time></trkpt><trkpt lat="43.676234" lon="11.3100755"><ele>162.6</ele><time>2026-03-29T13:50:40.147Z</time></trkpt><trkpt lat="43.6763198" lon="11.3101595"><ele>165.2</ele><time>2026-03-29T13:50:41.147Z</time></trkpt><trkpt lat="43.6763871" lon="11.3102433"><ele>167.8</ele><time>2026-03-29T13:50:42.147Z</time></trkpt><trkpt lat="43.6764309" lon="11.3103273"><ele>170.4</ele><time>2026-03-29T13:50:43.147Z</time></trkpt><trkpt lat="43.6765264" lon="11.3103947"><ele>173.0</ele><time>2026-03-29T13:50:45.147Z</time></trkpt><trkpt lat="43.6766136" lon="11.3102797"><ele>173.0</ele><time>2026-03-29T13:50:47.147Z</time></trkpt><trkpt lat="43.6766621" lon="11.3101877"><ele>173.0</ele><time>2026-03-29T13:50:48.147Z</time></trkpt><trkpt lat="43.6767195" lon="11.310114"><ele>173.0</ele><time>2026-03-29T13:50:49.147Z</time></trkpt><trkpt lat="43.6767846" lon="11.3100661"><ele>173.0</ele><time>2026-03-29T13:50:50.147Z</time></trkpt><trkpt lat="43.6768646" lon="11.3100555"><ele>173.0</ele><time>2026-03-29T13:50:51.147Z</time></trkpt><trkpt lat="43.6769544" lon="11.310076"><ele>173.0</ele><time>2026-03-29T13:50:52.147Z</time></trkpt><trkpt lat="43.6770521" lon="11.310119"><ele>174.0</ele><time>2026-03-29T13:50:53.147Z</time></trkpt><trkpt lat="43.6771404" lon="11.3101992"><ele>175.0</ele><time>2026-03-29T13:50:54.147Z</time></trkpt><trkpt lat="43.6772406" lon="11.3102853"><ele>176.0</ele><time>2026-03-29T13:50:55.147Z</time></trkpt><trkpt lat="43.6773458" lon="11.3103711"><ele>177.0</ele><time>2026-03-29T13:50:56.147Z</time></trkpt><trkpt lat="43.6774574" lon="11.3104458"><ele>177.0</ele><time>2026-03-29T13:50:57.147Z</time></trkpt><trkpt lat="43.6775551" lon="11.3105121"><ele>177.0</ele><time>2026-03-29T13:50:58.147Z</time></trkpt><trkpt lat="43.6776194" lon="11.3105582"><ele>177.0</ele><time>2026-03-29T13:50:59.147Z</time></trkpt><trkpt lat="43.6776842" lon="11.3106965"><ele>177.0</ele><time>2026-03-29T13:51:01.147Z</time></trkpt><trkpt lat="43.6776756" lon="11.3107934"><ele>177.0</ele><time>2026-03-29T13:51:02.147Z</time></trkpt><trkpt lat="43.6776539" lon="11.3109033"><ele>179.75</ele><time>2026-03-29T13:51:03.147Z</time></trkpt><trkpt lat="43.677651" lon="11.3110502"><ele>182.5</ele><time>2026-03-29T13:51:04.147Z</time></trkpt><trkpt lat="43.6776663" lon="11.3112212"><ele>185.25</ele><time>2026-03-29T13:51:05.147Z</time></trkpt><trkpt lat="43.6776837" lon="11.3113906"><ele>188.0</ele><time>2026-03-29T13:51:06.147Z</time></trkpt><trkpt lat="43.6776904" lon="11.31154"><ele>188.83333333333331</ele><time>2026-03-29T13:51:07.147Z</time></trkpt><trkpt lat="43.6777055" lon="11.31166"><ele>189.66666666666666</ele><time>2026-03-29T13:51:08.147Z</time></trkpt><trkpt lat="43.677694" lon="11.3117606"><ele>190.5</ele><time>2026-03-29T13:51:09.147Z</time></trkpt><trkpt lat="43.6776521" lon="11.3118554"><ele>191.33333333333331</ele><time>2026-03-29T13:51:10.147Z</time></trkpt><trkpt lat="43.6775912" lon="11.3119446"><ele>192.16666666666666</ele><time>2026-03-29T13:51:11.147Z</time></trkpt><trkpt lat="43.6775172" lon="11.3120612"><ele>193.0</ele><time>2026-03-29T13:51:12.147Z</time></trkpt><trkpt lat="43.6774371" lon="11.3121929"><ele>194.66666666666666</ele><time>2026-03-29T13:51:13.147Z</time></trkpt><trkpt lat="43.6773467" lon="11.3123283"><ele>196.33333333333331</ele><time>2026-03-29T13:51:14.147Z</time></trkpt><trkpt lat="43.6772499" lon="11.3124885"><ele>198.0</ele><time>2026-03-29T13:51:15.147Z</time></trkpt><trkpt lat="43.6771418" lon="11.3126721"><ele>198.0</ele><time>2026-03-29T13:51:16.147Z</time></trkpt><trkpt lat="43.677029" lon="11.3128544"><ele>198.0</ele><time>2026-03-29T13:51:17.147Z</time></trkpt><trkpt lat="43.6769064" lon="11.3130462"><ele>198.0</ele><time>2026-03-29T13:51:18.147Z</time></trkpt><trkpt lat="43.6767689" lon="11.3132269"><ele>196.66666666666669</ele><time>2026-03-29T13:51:19.147Z</time></trkpt><trkpt lat="43.6766124" lon="11.3133966"><ele>195.33333333333334</ele><time>2026-03-29T13:51:20.147Z</time></trkpt><trkpt lat="43.676441" lon="11.3135466"><ele>194.0</ele><time>2026-03-29T13:51:21.147Z</time></trkpt><trkpt lat="43.6762601" lon="11.3137"><ele>192.33333333333334</ele><time>2026-03-29T13:51:22.147Z</time></trkpt><trkpt lat="43.6760749" lon="11.3138512"><ele>190.66666666666669</ele><time>2026-03-29T13:51:23.147Z</time></trkpt><trkpt lat="43.6758875" lon="11.3140009"><ele>189.0</ele><time>2026-03-29T13:51:24.147Z</time></trkpt><trkpt lat="43.6757063" lon="11.3141593"><ele>191.33333333333331</ele><time>2026-03-29T13:51:25.147Z</time></trkpt><trkpt lat="43.6755226" lon="11.3143068"><ele>193.66666666666666</ele><time>2026-03-29T13:51:26.147Z</time></trkpt><trkpt lat="43.6753388" lon="11.3144481"><ele>196.0</ele><time>2026-03-29T13:51:27.147Z</time></trkpt><trkpt lat="43.6751747" lon="11.3145772"><ele>196.0</ele><time>2026-03-29T13:51:28.147Z</time></trkpt><trkpt lat="43.6750125" lon="11.3146884"><ele>196.0</ele><time>2026-03-29T13:51:29.147Z</time></trkpt><trkpt lat="43.6748548" lon="11.3148152"><ele>196.0</ele><time>2026-03-29T13:51:30.147Z</time></trkpt><trkpt lat="43.6746933" lon="11.3149484"><ele>196.0</ele><time>2026-03-29T13:51:31.147Z</time></trkpt><trkpt lat="43.6745394" lon="11.315093"><ele>196.0</ele><time>2026-03-29T13:51:32.147Z</time></trkpt><trkpt lat="43.6743899" lon="11.3152337"><ele>196.0</ele><time>2026-03-29T13:51:33.147Z</time></trkpt><trkpt lat="43.6742385" lon="11.3153817"><ele>196.0</ele><time>2026-03-29T13:51:34.147Z</time></trkpt><trkpt lat="43.674091" lon="11.3155272"><ele>196.0</ele><time>2026-03-29T13:51:35.147Z</time></trkpt><trkpt lat="43.6739403" lon="11.3156759"><ele>196.0</ele><time>2026-03-29T13:51:36.147Z</time></trkpt><trkpt lat="43.6737814" lon="11.3158207"><ele>197.0</ele><time>2026-03-29T13:51:37.147Z</time></trkpt><trkpt lat="43.6736274" lon="11.3159662"><ele>198.0</ele><time>2026-03-29T13:51:38.147Z</time></trkpt><trkpt lat="43.6734738" lon="11.3161092"><ele>199.0</ele><time>2026-03-29T13:51:39.147Z</time></trkpt><trkpt lat="43.6733212" lon="11.3162483"><ele>200.66666666666666</ele><time>2026-03-29T13:51:40.146Z</time></trkpt><trkpt lat="43.6731809" lon="11.3163779"><ele>202.33333333333331</ele><time>2026-03-29T13:51:41.146Z</time></trkpt><trkpt lat="43.6730429" lon="11.316497"><ele>204.0</ele><time>2026-03-29T13:51:42.146Z</time></trkpt><trkpt lat="43.6729145" lon="11.3166241"><ele>205.0</ele><time>2026-03-29T13:51:43.146Z</time></trkpt><trkpt lat="43.672795" lon="11.3167431"><ele>206.0</ele><time>2026-03-29T13:51:44.146Z</time></trkpt><trkpt lat="43.6726787" lon="11.3168572"><ele>207.0</ele><time>2026-03-29T13:51:45.146Z</time></trkpt><trkpt lat="43.6725547" lon="11.3169752"><ele>208.0</ele><time>2026-03-29T13:51:46.146Z</time></trkpt><trkpt lat="43.6724396" lon="11.3170885"><ele>208.75</ele><time>2026-03-29T13:51:47.146Z</time></trkpt><trkpt lat="43.672329" lon="11.317191"><ele>209.5</ele><time>2026-03-29T13:51:48.146Z</time></trkpt><trkpt lat="43.6722225" lon="11.3172908"><ele>210.25</ele><time>2026-03-29T13:51:49.146Z</time></trkpt><trkpt lat="43.6721152" lon="11.3173911"><ele>211.0</ele><time>2026-03-29T13:51:50.146Z</time></trkpt><trkpt lat="43.6720083" lon="11.3174893"><ele>212.0</ele><time>2026-03-29T13:51:51.146Z</time></trkpt><trkpt lat="43.6719024" lon="11.3175901"><ele>213.0</ele><time>2026-03-29T13:51:52.146Z</time></trkpt><trkpt lat="43.6717988" lon="11.3176872"><ele>214.0</ele><time>2026-03-29T13:51:53.146Z</time></trkpt><trkpt lat="43.6716979" lon="11.3177809"><ele>215.0</ele><time>2026-03-29T13:51:54.146Z</time></trkpt><trkpt lat="43.6716064" lon="11.3178715"><ele>215.0</ele><time>2026-03-29T13:51:55.146Z</time></trkpt><trkpt lat="43.6715235" lon="11.3179582"><ele>215.0</ele><time>2026-03-29T13:51:56.146Z</time></trkpt><trkpt lat="43.6714485" lon="11.318032"><ele>215.0</ele><time>2026-03-29T13:51:57.145Z</time></trkpt><trkpt lat="43.6713951" lon="11.3180875"><ele>215.0</ele><time>2026-03-29T13:51:58.146Z</time></trkpt><trkpt lat="43.6713083" lon="11.318225"><ele>215.0</ele><time>2026-03-29T13:52:00.146Z</time></trkpt><trkpt lat="43.6712608" lon="11.3183242"><ele>215.0</ele><time>2026-03-29T13:52:01.146Z</time></trkpt><trkpt lat="43.6712191" lon="11.3184164"><ele>215.0</ele><time>2026-03-29T13:52:02.146Z</time></trkpt><trkpt lat="43.6711833" lon="11.3185162"><ele>215.0</ele><time>2026-03-29T13:52:03.146Z</time></trkpt><trkpt lat="43.6711563" lon="11.3186194"><ele>215.0</ele><time>2026-03-29T13:52:04.146Z</time></trkpt><trkpt lat="43.6711375" lon="11.3187519"><ele>215.0</ele><time>2026-03-29T13:52:05.146Z</time></trkpt><trkpt lat="43.6711405" lon="11.3189101"><ele>215.2</ele><time>2026-03-29T13:52:06.146Z</time></trkpt><trkpt lat="43.6711662" lon="11.3190635"><ele>215.4</ele><time>2026-03-29T13:52:07.146Z</time></trkpt><trkpt lat="43.6711916" lon="11.3192166"><ele>215.60000000000002</ele><time>2026-03-29T13:52:08.146Z</time></trkpt><trkpt lat="43.67121" lon="11.3193659"><ele>215.8</ele><time>2026-03-29T13:52:09.146Z</time></trkpt><trkpt lat="43.671217" lon="11.3195192"><ele>216.0</ele><time>2026-03-29T13:52:10.146Z</time></trkpt><trkpt lat="43.6712241" lon="11.3196627"><ele>216.0</ele><time>2026-03-29T13:52:11.146Z</time></trkpt><trkpt lat="43.6712221" lon="11.3198006"><ele>216.00000000000003</ele><time>2026-03-29T13:52:12.146Z</time></trkpt><trkpt lat="43.6712158" lon="11.3199438"><ele>216.00000000000003</ele><time>2026-03-29T13:52:13.146Z</time></trkpt><trkpt lat="43.6711966" lon="11.3200912"><ele>216.0</ele><time>2026-03-29T13:52:14.146Z</time></trkpt><trkpt lat="43.6711601" lon="11.3202324"><ele>216.0</ele><time>2026-03-29T13:52:15.146Z</time></trkpt><trkpt lat="43.671114" lon="11.3203874"><ele>215.25</ele><time>2026-03-29T13:52:16.146Z</time></trkpt><trkpt lat="43.6710673" lon="11.3205478"><ele>214.5</ele><time>2026-03-29T13:52:17.146Z</time></trkpt><trkpt lat="43.6710217" lon="11.3207179"><ele>213.75</ele><time>2026-03-29T13:52:18.146Z</time></trkpt><trkpt lat="43.6709757" lon="11.3208907"><ele>213.0</ele><time>2026-03-29T13:52:19.146Z</time></trkpt><trkpt lat="43.6709377" lon="11.3210709"><ele>213.0</ele><time>2026-03-29T13:52:20.146Z</time></trkpt><trkpt lat="43.6709009" lon="11.3212486"><ele>213.0</ele><time>2026-03-29T13:52:21.146Z</time></trkpt><trkpt lat="43.6708678" lon="11.3214329"><ele>213.0</ele><time>2026-03-29T13:52:22.146Z</time></trkpt><trkpt lat="43.6708328" lon="11.3216131"><ele>213.0</ele><time>2026-03-29T13:52:23.146Z</time></trkpt><trkpt lat="43.6707985" lon="11.3217796"><ele>212.60000000000002</ele><time>2026-03-29T13:52:24.145Z</time></trkpt><trkpt lat="43.6707553" lon="11.3219336"><ele>212.20000000000002</ele><time>2026-03-29T13:52:25.146Z</time></trkpt><trkpt lat="43.6707175" lon="11.3220781"><ele>211.8</ele><time>2026-03-29T13:52:26.146Z</time></trkpt><trkpt lat="43.6706838" lon="11.3222188"><ele>211.4</ele><time>2026-03-29T13:52:27.146Z</time></trkpt><trkpt lat="43.670651" lon="11.3223486"><ele>211.0</ele><time>2026-03-29T13:52:28.146Z</time></trkpt><trkpt lat="43.6706211" lon="11.3224841"><ele>210.99999999999997</ele><time>2026-03-29T13:52:29.146Z</time></trkpt><trkpt lat="43.6706191" lon="11.3226202"><ele>211.0</ele><time>2026-03-29T13:52:30.146Z</time></trkpt><trkpt lat="43.670647" lon="11.3227605"><ele>211.0</ele><time>2026-03-29T13:52:31.146Z</time></trkpt><trkpt lat="43.6706879" lon="11.322872"><ele>211.0</ele><time>2026-03-29T13:52:32.146Z</time></trkpt><trkpt lat="43.6707191" lon="11.3229653"><ele>210.99999999999997</ele><time>2026-03-29T13:52:33.146Z</time></trkpt><trkpt lat="43.670711" lon="11.3230557"><ele>211.0</ele><time>2026-03-29T13:52:34.146Z</time></trkpt><trkpt lat="43.670629" lon="11.3231856"><ele>211.33333333333331</ele><time>2026-03-29T13:52:36.146Z</time></trkpt><trkpt lat="43.6705621" lon="11.32323"><ele>211.66666666666666</ele><time>2026-03-29T13:52:37.146Z</time></trkpt><trkpt lat="43.6704928" lon="11.3232471"><ele>212.0</ele><time>2026-03-29T13:52:38.146Z</time></trkpt><trkpt lat="43.6704157" lon="11.3232569"><ele>212.33333333333331</ele><time>2026-03-29T13:52:39.146Z</time></trkpt><trkpt lat="43.6703375" lon="11.3233503"><ele>212.66666666666666</ele><time>2026-03-29T13:52:41.146Z</time></trkpt><trkpt lat="43.670354" lon="11.3234536"><ele>213.0</ele><time>2026-03-29T13:52:42.146Z</time></trkpt><trkpt lat="43.670379" lon="11.3235767"><ele>213.0</ele><time>2026-03-29T13:52:43.146Z</time></trkpt><trkpt lat="43.6704071" lon="11.3237143"><ele>213.0</ele><time>2026-03-29T13:52:44.146Z</time></trkpt><trkpt lat="43.6704343" lon="11.3238664"><ele>213.0</ele><time>2026-03-29T13:52:45.146Z</time></trkpt><trkpt lat="43.6704698" lon="11.3240083"><ele>213.0</ele><time>2026-03-29T13:52:46.146Z</time></trkpt><trkpt lat="43.6705054" lon="11.3241332"><ele>213.0</ele><time>2026-03-29T13:52:47.146Z</time></trkpt><trkpt lat="43.6705599" lon="11.324255"><ele>214.2</ele><time>2026-03-29T13:52:48.146Z</time></trkpt><trkpt lat="43.6706345" lon="11.324368"><ele>215.4</ele><time>2026-03-29T13:52:49.146Z</time></trkpt><trkpt lat="43.670704" lon="11.3244668"><ele>216.59999999999997</ele><time>2026-03-29T13:52:50.146Z</time></trkpt><trkpt lat="43.6707815" lon="11.3245393"><ele>217.79999999999998</ele><time>2026-03-29T13:52:51.146Z</time></trkpt><trkpt lat="43.6708878" lon="11.324587"><ele>219.0</ele><time>2026-03-29T13:52:52.146Z</time></trkpt><trkpt lat="43.6710105" lon="11.3246393"><ele>218.75</ele><time>2026-03-29T13:52:53.146Z</time></trkpt><trkpt lat="43.6711429" lon="11.3246938"><ele>218.5</ele><time>2026-03-29T13:52:54.146Z</time></trkpt><trkpt lat="43.6712702" lon="11.3247501"><ele>218.25</ele><time>2026-03-29T13:52:55.146Z</time></trkpt><trkpt lat="43.671381" lon="11.3248016"><ele>218.0</ele><time>2026-03-29T13:52:56.145Z</time></trkpt><trkpt lat="43.6714811" lon="11.3248542"><ele>221.25</ele><time>2026-03-29T13:52:57.146Z</time></trkpt><trkpt lat="43.6715781" lon="11.3249168"><ele>224.5</ele><time>2026-03-29T13:52:58.146Z</time></trkpt><trkpt lat="43.671688" lon="11.3250083"><ele>227.75</ele><time>2026-03-29T13:52:59.146Z</time></trkpt><trkpt lat="43.671788" lon="11.3251285"><ele>231.0</ele><time>2026-03-29T13:53:00.146Z</time></trkpt><trkpt lat="43.6718949" lon="11.3252552"><ele>230.25</ele><time>2026-03-29T13:53:01.146Z</time></trkpt><trkpt lat="43.6719944" lon="11.3253852"><ele>229.5</ele><time>2026-03-29T13:53:02.146Z</time></trkpt><trkpt lat="43.6720803" lon="11.3255427"><ele>228.75</ele><time>2026-03-29T13:53:03.146Z</time></trkpt><trkpt lat="43.6721658" lon="11.3257162"><ele>228.0</ele><time>2026-03-29T13:53:04.146Z</time></trkpt><trkpt lat="43.6722526" lon="11.3258972"><ele>229.75</ele><time>2026-03-29T13:53:05.146Z</time></trkpt><trkpt lat="43.672347" lon="11.3260713"><ele>231.5</ele><time>2026-03-29T13:53:06.146Z</time></trkpt><trkpt lat="43.6724338" lon="11.3262494"><ele>233.25</ele><time>2026-03-29T13:53:07.145Z</time></trkpt><trkpt lat="43.6725079" lon="11.3263925"><ele>235.0</ele><time>2026-03-29T13:53:08.146Z</time></trkpt><trkpt lat="43.6725775" lon="11.3265054"><ele>237.0</ele><time>2026-03-29T13:53:09.146Z</time></trkpt><trkpt lat="43.6726608" lon="11.3266006"><ele>239.0</ele><time>2026-03-29T13:53:10.146Z</time></trkpt><trkpt lat="43.6727802" lon="11.3266842"><ele>241.0</ele><time>2026-03-29T13:53:11.146Z</time></trkpt><trkpt lat="43.6729063" lon="11.3267683"><ele>243.0</ele><time>2026-03-29T13:53:12.146Z</time></trkpt><trkpt lat="43.6730191" lon="11.3268521"><ele>243.0</ele><time>2026-03-29T13:53:13.146Z</time></trkpt><trkpt lat="43.6731182" lon="11.3269242"><ele>243.0</ele><time>2026-03-29T13:53:14.146Z</time></trkpt><trkpt lat="43.6731957" lon="11.3269656"><ele>243.0</ele><time>2026-03-29T13:53:15.145Z</time></trkpt><trkpt lat="43.6732926" lon="11.3269574"><ele>243.0</ele><time>2026-03-29T13:53:16.146Z</time></trkpt><trkpt lat="43.6734037" lon="11.3269134"><ele>243.0</ele><time>2026-03-29T13:53:17.146Z</time></trkpt><trkpt lat="43.6735067" lon="11.3268631"><ele>244.0</ele><time>2026-03-29T13:53:18.146Z</time></trkpt><trkpt lat="43.6736335" lon="11.3268264"><ele>245.0</ele><time>2026-03-29T13:53:19.145Z</time></trkpt><trkpt lat="43.6737489" lon="11.3268149"><ele>246.0</ele><time>2026-03-29T13:53:20.146Z</time></trkpt><trkpt lat="43.6738468" lon="11.3268287"><ele>247.0</ele><time>2026-03-29T13:53:21.145Z</time></trkpt><trkpt lat="43.6739278" lon="11.3268786"><ele>248.0</ele><time>2026-03-29T13:53:22.145Z</time></trkpt><trkpt lat="43.6740024" lon="11.3269467"><ele>248.0</ele><time>2026-03-29T13:53:23.146Z</time></trkpt><trkpt lat="43.6740746" lon="11.327055"><ele>248.0</ele><time>2026-03-29T13:53:24.146Z</time></trkpt><trkpt lat="43.6741488" lon="11.3271972"><ele>248.0</ele><time>2026-03-29T13:53:25.146Z</time></trkpt><trkpt lat="43.6742269" lon="11.3273811"><ele>248.0</ele><time>2026-03-29T13:53:26.146Z</time></trkpt><trkpt lat="43.6743179" lon="11.3276022"><ele>247.5</ele><time>2026-03-29T13:53:27.146Z</time></trkpt><trkpt lat="43.6743917" lon="11.3278232"><ele>247.0</ele><time>2026-03-29T13:53:28.146Z</time></trkpt><trkpt lat="43.6744536" lon="11.3279944"><ele>246.5</ele><time>2026-03-29T13:53:29.146Z</time></trkpt><trkpt lat="43.6745127" lon="11.3281553"><ele>246.0</ele><time>2026-03-29T13:53:30.146Z</time></trkpt><trkpt lat="43.6745593" lon="11.3283013"><ele>247.20000000000002</ele><time>2026-03-29T13:53:31.146Z</time></trkpt><trkpt lat="43.6746089" lon="11.3284198"><ele>248.40000000000003</ele><time>2026-03-29T13:53:32.146Z</time></trkpt><trkpt lat="43.6746771" lon="11.3285186"><ele>249.6</ele><time>2026-03-29T13:53:33.146Z</time></trkpt><trkpt lat="43.6747598" lon="11.3286132"><ele>250.8</ele><time>2026-03-29T13:53:34.146Z</time></trkpt><trkpt lat="43.6748548" lon="11.3287156"><ele>252.0</ele><time>2026-03-29T13:53:35.146Z</time></trkpt><trkpt lat="43.6749664" lon="11.3288236"><ele>253.33333333333331</ele><time>2026-03-29T13:53:36.146Z</time></trkpt><trkpt lat="43.6751183" lon="11.328933"><ele>254.66666666666666</ele><time>2026-03-29T13:53:37.146Z</time></trkpt><trkpt lat="43.6752633" lon="11.3290345"><ele>256.0</ele><time>2026-03-29T13:53:38.146Z</time></trkpt><trkpt lat="43.6754173" lon="11.3291331"><ele>258.66666666666663</ele><time>2026-03-29T13:53:39.146Z</time></trkpt><trkpt lat="43.6755842" lon="11.3292215"><ele>261.3333333333333</ele><time>2026-03-29T13:53:40.145Z</time></trkpt><trkpt lat="43.6757524" lon="11.3292918"><ele>264.0</ele><time>2026-03-29T13:53:41.146Z</time></trkpt><trkpt lat="43.6759061" lon="11.3293656"><ele>264.0</ele><time>2026-03-29T13:53:42.146Z</time></trkpt><trkpt lat="43.6760668" lon="11.3294133"><ele>264.0</ele><time>2026-03-29T13:53:43.146Z</time></trkpt><trkpt lat="43.6762451" lon="11.3294542"><ele>264.0</ele><time>2026-03-29T13:53:44.146Z</time></trkpt><trkpt lat="43.6763897" lon="11.3294815"><ele>265.75</ele><time>2026-03-29T13:53:45.146Z</time></trkpt><trkpt lat="43.6765138" lon="11.3295081"><ele>267.5</ele><time>2026-03-29T13:53:46.146Z</time></trkpt><trkpt lat="43.6766311" lon="11.3295512"><ele>269.25</ele><time>2026-03-29T13:53:47.146Z</time></trkpt><trkpt lat="43.6767464" lon="11.3296335"><ele>271.0</ele><time>2026-03-29T13:53:48.146Z</time></trkpt><trkpt lat="43.6768732" lon="11.3297448"><ele>271.2</ele><time>2026-03-29T13:53:49.146Z</time></trkpt><trkpt lat="43.6769703" lon="11.3298308"><ele>271.40000000000003</ele><time>2026-03-29T13:53:50.146Z</time></trkpt><trkpt lat="43.6770415" lon="11.3299375"><ele>271.6</ele><time>2026-03-29T13:53:51.146Z</time></trkpt><trkpt lat="43.6770883" lon="11.3300564"><ele>271.8</ele><time>2026-03-29T13:53:52.146Z</time></trkpt><trkpt lat="43.6771148" lon="11.3302021"><ele>272.0</ele><time>2026-03-29T13:53:53.146Z</time></trkpt><trkpt lat="43.6771386" lon="11.3303558"><ele>272.0</ele><time>2026-03-29T13:53:54.146Z</time></trkpt><trkpt lat="43.6771571" lon="11.3305187"><ele>272.0</ele><time>2026-03-29T13:53:55.146Z</time></trkpt><trkpt lat="43.6772" lon="11.3306962"><ele>272.0</ele><time>2026-03-29T13:53:56.146Z</time></trkpt><trkpt lat="43.6772794" lon="11.3308725"><ele>272.0</ele><time>2026-03-29T13:53:57.146Z</time></trkpt><trkpt lat="43.6773729" lon="11.3310336"><ele>273.33333333333337</ele><time>2026-03-29T13:53:58.146Z</time></trkpt><trkpt lat="43.6775013" lon="11.3312067"><ele>274.6666666666667</ele><time>2026-03-29T13:53:59.146Z</time></trkpt><trkpt lat="43.6776533" lon="11.3313881"><ele>276.0</ele><time>2026-03-29T13:54:00.146Z</time></trkpt><trkpt lat="43.6777912" lon="11.3315823"><ele>276.0</ele><time>2026-03-29T13:54:01.146Z</time></trkpt><trkpt lat="43.6779124" lon="11.3317464"><ele>276.0</ele><time>2026-03-29T13:54:02.146Z</time></trkpt><trkpt lat="43.6780188" lon="11.3319038"><ele>276.0</ele><time>2026-03-29T13:54:03.146Z</time></trkpt><trkpt lat="43.6781182" lon="11.3320558"><ele>276.0</ele><time>2026-03-29T13:54:04.146Z</time></trkpt><trkpt lat="43.6782195" lon="11.3321952"><ele>276.0</ele><time>2026-03-29T13:54:05.146Z</time></trkpt><trkpt lat="43.6783197" lon="11.3323241"><ele>276.0</ele><time>2026-03-29T13:54:06.146Z</time></trkpt><trkpt lat="43.6784152" lon="11.3324309"><ele>276.0</ele><time>2026-03-29T13:54:07.146Z</time></trkpt><trkpt lat="43.678507" lon="11.3325313"><ele>277.3333333333333</ele><time>2026-03-29T13:54:08.146Z</time></trkpt><trkpt lat="43.678596" lon="11.3326216"><ele>278.6666666666667</ele><time>2026-03-29T13:54:09.146Z</time></trkpt><trkpt lat="43.6786827" lon="11.3326948"><ele>280.0</ele><time>2026-03-29T13:54:10.146Z</time></trkpt><trkpt lat="43.678758" lon="11.3327643"><ele>281.33333333333337</ele><time>2026-03-29T13:54:11.146Z</time></trkpt><trkpt lat="43.6788169" lon="11.3328192"><ele>282.6666666666667</ele><time>2026-03-29T13:54:12.146Z</time></trkpt><trkpt lat="43.678878" lon="11.3328706"><ele>284.0</ele><time>2026-03-29T13:54:13.146Z</time></trkpt><trkpt lat="43.678987" lon="11.3328886"><ele>284.4</ele><time>2026-03-29T13:54:15.146Z</time></trkpt><trkpt lat="43.6791176" lon="11.3329259"><ele>284.79999999999995</ele><time>2026-03-29T13:54:17.146Z</time></trkpt><trkpt lat="43.679214" lon="11.3329656"><ele>285.20000000000005</ele><time>2026-03-29T13:54:18.146Z</time></trkpt><trkpt lat="43.6793094" lon="11.333003"><ele>285.6</ele><time>2026-03-29T13:54:19.146Z</time></trkpt><trkpt lat="43.6794061" lon="11.3330504"><ele>286.0</ele><time>2026-03-29T13:54:20.146Z</time></trkpt><trkpt lat="43.6795133" lon="11.3331399"><ele>288.5</ele><time>2026-03-29T13:54:21.146Z</time></trkpt><trkpt lat="43.6796209" lon="11.3332568"><ele>291.0</ele><time>2026-03-29T13:54:22.146Z</time></trkpt><trkpt lat="43.6797245" lon="11.3333678"><ele>293.5</ele><time>2026-03-29T13:54:23.146Z</time></trkpt><trkpt lat="43.6798071" lon="11.3334641"><ele>296.0</ele><time>2026-03-29T13:54:24.146Z</time></trkpt><trkpt lat="43.6798749" lon="11.3335544"><ele>296.0</ele><time>2026-03-29T13:54:25.146Z</time></trkpt><trkpt lat="43.6799176" lon="11.3336374"><ele>296.0</ele><time>2026-03-29T13:54:26.146Z</time></trkpt><trkpt lat="43.6799458" lon="11.3337441"><ele>296.0</ele><time>2026-03-29T13:54:27.146Z</time></trkpt><trkpt lat="43.6799655" lon="11.3338712"><ele>296.0</ele><time>2026-03-29T13:54:28.146Z</time></trkpt><trkpt lat="43.6799823" lon="11.3340149"><ele>296.0</ele><time>2026-03-29T13:54:29.146Z</time></trkpt><trkpt lat="43.6800064" lon="11.3341615"><ele>297.8</ele><time>2026-03-29T13:54:30.146Z</time></trkpt><trkpt lat="43.6800287" lon="11.334292"><ele>299.6</ele><time>2026-03-29T13:54:31.146Z</time></trkpt><trkpt lat="43.6800629" lon="11.3344291"><ele>301.4</ele><time>2026-03-29T13:54:32.145Z</time></trkpt><trkpt lat="43.6801105" lon="11.3345629"><ele>303.2</ele><time>2026-03-29T13:54:33.146Z</time></trkpt><trkpt lat="43.6801631" lon="11.3347008"><ele>305.0</ele><time>2026-03-29T13:54:34.146Z</time></trkpt><trkpt lat="43.680202" lon="11.3348191"><ele>305.5</ele><time>2026-03-29T13:54:35.146Z</time></trkpt><trkpt lat="43.6802211" lon="11.3349321"><ele>306.0</ele><time>2026-03-29T13:54:36.146Z</time></trkpt><trkpt lat="43.6802089" lon="11.3350352"><ele>306.5</ele><time>2026-03-29T13:54:37.146Z</time></trkpt><trkpt lat="43.6801676" lon="11.3351024"><ele>307.0</ele><time>2026-03-29T13:54:38.146Z</time></trkpt><trkpt lat="43.6800926" lon="11.3351839"><ele>307.5</ele><time>2026-03-29T13:54:40.146Z</time></trkpt><trkpt lat="43.6800507" lon="11.3352533"><ele>308.0</ele><time>2026-03-29T13:54:41.146Z</time></trkpt><trkpt lat="43.6800168" lon="11.3354024"><ele>308.0</ele><time>2026-03-29T13:54:43.146Z</time></trkpt><trkpt lat="43.6800197" lon="11.3355205"><ele>308.0</ele><time>2026-03-29T13:54:45.146Z</time></trkpt><trkpt lat="43.6801049" lon="11.3356584"><ele>308.0</ele><time>2026-03-29T13:54:47.146Z</time></trkpt><trkpt lat="43.6801662" lon="11.3357085"><ele>308.0</ele><time>2026-03-29T13:54:48.146Z</time></trkpt><trkpt lat="43.6802503" lon="11.3357273"><ele>308.0</ele><time>2026-03-29T13:54:49.146Z</time></trkpt><trkpt lat="43.680331" lon="11.3357327"><ele>308.1666666666667</ele><time>2026-03-29T13:54:50.146Z</time></trkpt><trkpt lat="43.6803957" lon="11.3357161"><ele>308.33333333333337</ele><time>2026-03-29T13:54:51.145Z</time></trkpt><trkpt lat="43.6804591" lon="11.3357001"><ele>308.5</ele><time>2026-03-29T13:54:52.146Z</time></trkpt><trkpt lat="43.6805698" lon="11.3357651"><ele>308.6666666666667</ele><time>2026-03-29T13:54:54.146Z</time></trkpt><trkpt lat="43.6806236" lon="11.3358321"><ele>308.8333333333333</ele><time>2026-03-29T13:54:55.146Z</time></trkpt><trkpt lat="43.6806952" lon="11.3359266"><ele>309.0</ele><time>2026-03-29T13:54:56.146Z</time></trkpt><trkpt lat="43.6807839" lon="11.3360147"><ele>309.0</ele><time>2026-03-29T13:54:57.146Z</time></trkpt><trkpt lat="43.6808722" lon="11.3361228"><ele>309.0</ele><time>2026-03-29T13:54:58.146Z</time></trkpt><trkpt lat="43.6809648" lon="11.3362511"><ele>309.0</ele><time>2026-03-29T13:54:59.146Z</time></trkpt><trkpt lat="43.6810608" lon="11.3363691"><ele>309.0</ele><time>2026-03-29T13:55:00.146Z</time></trkpt><trkpt lat="43.6811565" lon="11.3364792"><ele>309.2</ele><time>2026-03-29T13:55:01.146Z</time></trkpt><trkpt lat="43.6812479" lon="11.3365876"><ele>309.4</ele><time>2026-03-29T13:55:02.146Z</time></trkpt><trkpt lat="43.6813302" lon="11.3366883"><ele>309.6</ele><time>2026-03-29T13:55:03.146Z</time></trkpt><trkpt lat="43.6814049" lon="11.3367838"><ele>309.8</ele><time>2026-03-29T13:55:04.146Z</time></trkpt><trkpt lat="43.6814805" lon="11.3368773"><ele>310.0</ele><time>2026-03-29T13:55:05.146Z</time></trkpt><trkpt lat="43.681561" lon="11.3369416"><ele>310.0</ele><time>2026-03-29T13:55:06.146Z</time></trkpt><trkpt lat="43.6816292" lon="11.336979"><ele>310.0</ele><time>2026-03-29T13:55:07.146Z</time></trkpt><trkpt lat="43.681689" lon="11.3370088"><ele>310.0</ele><time>2026-03-29T13:55:08.146Z</time></trkpt><trkpt lat="43.6817591" lon="11.337056"><ele>310.0</ele><time>2026-03-29T13:55:10.146Z</time></trkpt><trkpt lat="43.6818405" lon="11.3371243"><ele>310.0</ele><time>2026-03-29T13:55:13.146Z</time></trkpt><trkpt lat="43.6819536" lon="11.3371855"><ele>310.0</ele><time>2026-03-29T13:55:15.146Z</time></trkpt><trkpt lat="43.6820331" lon="11.3372233"><ele>307.8</ele><time>2026-03-29T13:55:16.146Z</time></trkpt><trkpt lat="43.6821136" lon="11.3372618"><ele>305.6</ele><time>2026-03-29T13:55:17.146Z</time></trkpt><trkpt lat="43.6821942" lon="11.3372934"><ele>303.4</ele><time>2026-03-29T13:55:18.146Z</time></trkpt><trkpt lat="43.6822603" lon="11.3373267"><ele>301.2</ele><time>2026-03-29T13:55:19.146Z</time></trkpt><trkpt lat="43.6823678" lon="11.3374042"><ele>299.0</ele><time>2026-03-29T13:55:21.146Z</time></trkpt><trkpt lat="43.6824801" lon="11.3374885"><ele>299.0</ele><time>2026-03-29T13:55:23.146Z</time></trkpt><trkpt lat="43.6825456" lon="11.3375917"><ele>299.0</ele><time>2026-03-29T13:55:24.146Z</time></trkpt><trkpt lat="43.6826172" lon="11.3377271"><ele>299.0</ele><time>2026-03-29T13:55:25.146Z</time></trkpt><trkpt lat="43.6827002" lon="11.3378718"><ele>299.0</ele><time>2026-03-29T13:55:26.146Z</time></trkpt><trkpt lat="43.6827791" lon="11.3380214"><ele>295.75</ele><time>2026-03-29T13:55:27.146Z</time></trkpt><trkpt lat="43.6828742" lon="11.3381737"><ele>292.5</ele><time>2026-03-29T13:55:28.146Z</time></trkpt><trkpt lat="43.6829619" lon="11.3383299"><ele>289.25</ele><time>2026-03-29T13:55:29.146Z</time></trkpt><trkpt lat="43.683033" lon="11.3384688"><ele>286.0</ele><time>2026-03-29T13:55:30.146Z</time></trkpt><trkpt lat="43.6831005" lon="11.3385972"><ele>286.0</ele><time>2026-03-29T13:55:31.146Z</time></trkpt><trkpt lat="43.6831541" lon="11.3387122"><ele>286.0</ele><time>2026-03-29T13:55:32.146Z</time></trkpt><trkpt lat="43.683208" lon="11.3388109"><ele>286.0</ele><time>2026-03-29T13:55:33.146Z</time></trkpt><trkpt lat="43.6832533" lon="11.3388881"><ele>286.0</ele><time>2026-03-29T13:55:34.146Z</time></trkpt><trkpt lat="43.6832911" lon="11.3389589"><ele>286.0</ele><time>2026-03-29T13:55:35.146Z</time></trkpt><trkpt lat="43.6833331" lon="11.3390399"><ele>286.0</ele><time>2026-03-29T13:55:37.146Z</time></trkpt><trkpt lat="43.6833668" lon="11.3391365"><ele>286.0</ele><time>2026-03-29T13:55:39.145Z</time></trkpt><trkpt lat="43.683389" lon="11.3392437"><ele>286.0</ele><time>2026-03-29T13:55:40.146Z</time></trkpt><trkpt lat="43.6834062" lon="11.3393832"><ele>286.0</ele><time>2026-03-29T13:55:41.146Z</time></trkpt><trkpt lat="43.683439" lon="11.3395442"><ele>286.0</ele><time>2026-03-29T13:55:42.146Z</time></trkpt><trkpt lat="43.6834894" lon="11.3397338"><ele>285.66666666666663</ele><time>2026-03-29T13:55:43.146Z</time></trkpt><trkpt lat="43.6835355" lon="11.3399371"><ele>285.3333333333333</ele><time>2026-03-29T13:55:44.146Z</time></trkpt><trkpt lat="43.683562" lon="11.3401515"><ele>285.0</ele><time>2026-03-29T13:55:45.146Z</time></trkpt><trkpt lat="43.6835424" lon="11.3403822"><ele>286.6666666666667</ele><time>2026-03-29T13:55:46.146Z</time></trkpt><trkpt lat="43.6834727" lon="11.340594"><ele>288.33333333333337</ele><time>2026-03-29T13:55:47.146Z</time></trkpt><trkpt lat="43.6833763" lon="11.3407821"><ele>290.0</ele><time>2026-03-29T13:55:48.146Z</time></trkpt><trkpt lat="43.6832406" lon="11.3409346"><ele>290.0</ele><time>2026-03-29T13:55:49.146Z</time></trkpt><trkpt lat="43.683087" lon="11.3410296"><ele>290.0</ele><time>2026-03-29T13:55:50.146Z</time></trkpt><trkpt lat="43.6829327" lon="11.341096"><ele>290.0</ele><time>2026-03-29T13:55:51.146Z</time></trkpt><trkpt lat="43.6827833" lon="11.3411488"><ele>290.75</ele><time>2026-03-29T13:55:52.146Z</time></trkpt><trkpt lat="43.6826416" lon="11.341212"><ele>291.5</ele><time>2026-03-29T13:55:53.146Z</time></trkpt><trkpt lat="43.6825166" lon="11.3412919"><ele>292.25</ele><time>2026-03-29T13:55:54.146Z</time></trkpt><trkpt lat="43.6824106" lon="11.3414041"><ele>293.0</ele><time>2026-03-29T13:55:55.146Z</time></trkpt><trkpt lat="43.6823186" lon="11.3415409"><ele>293.0</ele><time>2026-03-29T13:55:56.146Z</time></trkpt><trkpt lat="43.6822575" lon="11.3416918"><ele>293.0</ele><time>2026-03-29T13:55:57.146Z</time></trkpt><trkpt lat="43.6822139" lon="11.341867"><ele>293.0</ele><time>2026-03-29T13:55:58.146Z</time></trkpt><trkpt lat="43.682163" lon="11.3420423"><ele>293.0</ele><time>2026-03-29T13:55:59.146Z</time></trkpt><trkpt lat="43.6821136" lon="11.3422003"><ele>295.5</ele><time>2026-03-29T13:56:00.146Z</time></trkpt><trkpt lat="43.6820686" lon="11.3423588"><ele>298.0</ele><time>2026-03-29T13:56:01.146Z</time></trkpt><trkpt lat="43.6820257" lon="11.3425199"><ele>300.5</ele><time>2026-03-29T13:56:02.146Z</time></trkpt><trkpt lat="43.6819806" lon="11.3426719"><ele>303.0</ele><time>2026-03-29T13:56:03.146Z</time></trkpt><trkpt lat="43.6819428" lon="11.3428166"><ele>303.6666666666667</ele><time>2026-03-29T13:56:04.146Z</time></trkpt><trkpt lat="43.6819202" lon="11.3429435"><ele>304.3333333333333</ele><time>2026-03-29T13:56:05.146Z</time></trkpt><trkpt lat="43.6819215" lon="11.3430561"><ele>305.0</ele><time>2026-03-29T13:56:06.146Z</time></trkpt><trkpt lat="43.6819346" lon="11.3431503"><ele>305.66666666666663</ele><time>2026-03-29T13:56:07.146Z</time></trkpt><trkpt lat="43.6819466" lon="11.3432598"><ele>306.3333333333333</ele><time>2026-03-29T13:56:08.146Z</time></trkpt><trkpt lat="43.6819451" lon="11.3433591"><ele>307.0</ele><time>2026-03-29T13:56:09.146Z</time></trkpt><trkpt lat="43.6819112" lon="11.3434342"><ele>302.25</ele><time>2026-03-29T13:56:10.146Z</time></trkpt><trkpt lat="43.6818008" lon="11.3435088"><ele>297.5</ele><time>2026-03-29T13:56:12.146Z</time></trkpt><trkpt lat="43.6817103" lon="11.343467"><ele>292.75</ele><time>2026-03-29T13:56:13.146Z</time></trkpt><trkpt lat="43.6816066" lon="11.3433922"><ele>288.0</ele><time>2026-03-29T13:56:14.146Z</time></trkpt><trkpt lat="43.6814636" lon="11.3433015"><ele>288.0</ele><time>2026-03-29T13:56:15.146Z</time></trkpt><trkpt lat="43.6812926" lon="11.3431399"><ele>288.0</ele><time>2026-03-29T13:56:16.146Z</time></trkpt><trkpt lat="43.6811208" lon="11.3429714"><ele>288.0</ele><time>2026-03-29T13:56:17.146Z</time></trkpt><trkpt lat="43.6809599" lon="11.3427706"><ele>285.6666666666667</ele><time>2026-03-29T13:56:18.146Z</time></trkpt><trkpt lat="43.6807928" lon="11.3425959"><ele>283.33333333333337</ele><time>2026-03-29T13:56:19.146Z</time></trkpt><trkpt lat="43.6806324" lon="11.3424281"><ele>281.0</ele><time>2026-03-29T13:56:20.146Z</time></trkpt><trkpt lat="43.6804802" lon="11.3422678"><ele>278.75</ele><time>2026-03-29T13:56:21.146Z</time></trkpt><trkpt lat="43.6803483" lon="11.3421364"><ele>276.5</ele><time>2026-03-29T13:56:22.146Z</time></trkpt><trkpt lat="43.6802334" lon="11.3420301"><ele>274.25</ele><time>2026-03-29T13:56:23.146Z</time></trkpt><trkpt lat="43.6801117" lon="11.3419931"><ele>272.0</ele><time>2026-03-29T13:56:24.146Z</time></trkpt><trkpt lat="43.67999" lon="11.3420443"><ele>272.0</ele><time>2026-03-29T13:56:25.146Z</time></trkpt><trkpt lat="43.6798996" lon="11.3421496"><ele>272.0</ele><time>2026-03-29T13:56:26.146Z</time></trkpt><trkpt lat="43.6798256" lon="11.3423073"><ele>272.0</ele><time>2026-03-29T13:56:27.146Z</time></trkpt><trkpt lat="43.6797641" lon="11.3424806"><ele>272.0</ele><time>2026-03-29T13:56:28.146Z</time></trkpt><trkpt lat="43.6797172" lon="11.3426736"><ele>275.0</ele><time>2026-03-29T13:56:29.146Z</time></trkpt><trkpt lat="43.6796844" lon="11.3428889"><ele>278.0</ele><time>2026-03-29T13:56:30.146Z</time></trkpt><trkpt lat="43.6796499" lon="11.3430996"><ele>281.0</ele><time>2026-03-29T13:56:31.146Z</time></trkpt><trkpt lat="43.6796003" lon="11.3433027"><ele>282.6666666666667</ele><time>2026-03-29T13:56:32.146Z</time></trkpt><trkpt lat="43.6795045" lon="11.3435099"><ele>284.3333333333333</ele><time>2026-03-29T13:56:33.146Z</time></trkpt><trkpt lat="43.6793716" lon="11.3436888"><ele>286.0</ele><time>2026-03-29T13:56:34.146Z</time></trkpt><trkpt lat="43.6792041" lon="11.343872"><ele>282.66666666666663</ele><time>2026-03-29T13:56:35.146Z</time></trkpt><trkpt lat="43.6790359" lon="11.3440667"><ele>279.3333333333333</ele><time>2026-03-29T13:56:36.146Z</time></trkpt><trkpt lat="43.6788911" lon="11.3442782"><ele>276.0</ele><time>2026-03-29T13:56:37.145Z</time></trkpt><trkpt lat="43.6787549" lon="11.3444818"><ele>276.0</ele><time>2026-03-29T13:56:38.146Z</time></trkpt><trkpt lat="43.6786303" lon="11.3446721"><ele>276.0</ele><time>2026-03-29T13:56:39.146Z</time></trkpt><trkpt lat="43.6785307" lon="11.344846"><ele>276.0</ele><time>2026-03-29T13:56:40.146Z</time></trkpt><trkpt lat="43.6784557" lon="11.3450261"><ele>275.3333333333333</ele><time>2026-03-29T13:56:41.146Z</time></trkpt><trkpt lat="43.6784127" lon="11.3452642"><ele>274.66666666666663</ele><time>2026-03-29T13:56:42.146Z</time></trkpt><trkpt lat="43.6783781" lon="11.3455192"><ele>274.0</ele><time>2026-03-29T13:56:43.146Z</time></trkpt><trkpt lat="43.6783317" lon="11.3457661"><ele>276.3333333333333</ele><time>2026-03-29T13:56:44.146Z</time></trkpt><trkpt lat="43.6782793" lon="11.3460025"><ele>278.6666666666667</ele><time>2026-03-29T13:56:45.146Z</time></trkpt><trkpt lat="43.6782131" lon="11.3462288"><ele>281.0</ele><time>2026-03-29T13:56:46.146Z</time></trkpt><trkpt lat="43.6781069" lon="11.3464261"><ele>283.33333333333337</ele><time>2026-03-29T13:56:47.146Z</time></trkpt><trkpt lat="43.6779556" lon="11.3465999"><ele>285.6666666666667</ele><time>2026-03-29T13:56:48.146Z</time></trkpt><trkpt lat="43.6777816" lon="11.3467455"><ele>288.0</ele><time>2026-03-29T13:56:49.146Z</time></trkpt><trkpt lat="43.6775953" lon="11.3468617"><ele>288.0</ele><time>2026-03-29T13:56:50.146Z</time></trkpt><trkpt lat="43.6774449" lon="11.3469474"><ele>288.0</ele><time>2026-03-29T13:56:51.146Z</time></trkpt><trkpt lat="43.6773134" lon="11.347031"><ele>288.0</ele><time>2026-03-29T13:56:52.146Z</time></trkpt><trkpt lat="43.6771956" lon="11.3471084"><ele>288.0</ele><time>2026-03-29T13:56:53.146Z</time></trkpt><trkpt lat="43.6771005" lon="11.3471864"><ele>290.4</ele><time>2026-03-29T13:56:54.145Z</time></trkpt><trkpt lat="43.6770079" lon="11.3472422"><ele>292.8</ele><time>2026-03-29T13:56:55.146Z</time></trkpt><trkpt lat="43.676924" lon="11.3473042"><ele>295.2</ele><time>2026-03-29T13:56:56.146Z</time></trkpt><trkpt lat="43.6768507" lon="11.3473723"><ele>297.6</ele><time>2026-03-29T13:56:57.146Z</time></trkpt><trkpt lat="43.6767824" lon="11.3474659"><ele>300.0</ele><time>2026-03-29T13:56:58.146Z</time></trkpt><trkpt lat="43.676702" lon="11.347569"><ele>300.0</ele><time>2026-03-29T13:56:59.146Z</time></trkpt><trkpt lat="43.6766198" lon="11.3476483"><ele>300.0</ele><time>2026-03-29T13:57:00.146Z</time></trkpt><trkpt lat="43.6765584" lon="11.3477244"><ele>300.0</ele><time>2026-03-29T13:57:01.145Z</time></trkpt><trkpt lat="43.6765199" lon="11.3478028"><ele>300.0</ele><time>2026-03-29T13:57:02.146Z</time></trkpt><trkpt lat="43.6765459" lon="11.3479399"><ele>300.0</ele><time>2026-03-29T13:57:04.146Z</time></trkpt><trkpt lat="43.6766648" lon="11.3479787"><ele>300.0</ele><time>2026-03-29T13:57:06.145Z</time></trkpt><trkpt lat="43.6767412" lon="11.3479804"><ele>300.0</ele><time>2026-03-29T13:57:07.146Z</time></trkpt><trkpt lat="43.6768291" lon="11.3479863"><ele>300.0</ele><time>2026-03-29T13:57:08.146Z</time></trkpt><trkpt lat="43.6769182" lon="11.3480024"><ele>300.0</ele><time>2026-03-29T13:57:09.145Z</time></trkpt><trkpt lat="43.6769976" lon="11.3480476"><ele>300.0</ele><time>2026-03-29T13:57:10.146Z</time></trkpt><trkpt lat="43.6770742" lon="11.348101"><ele>300.0</ele><time>2026-03-29T13:57:11.146Z</time></trkpt><trkpt lat="43.6771706" lon="11.3481449"><ele>302.5</ele><time>2026-03-29T13:57:12.146Z</time></trkpt><trkpt lat="43.677283" lon="11.3481713"><ele>305.0</ele><time>2026-03-29T13:57:13.146Z</time></trkpt><trkpt lat="43.6773977" lon="11.3481906"><ele>307.5</ele><time>2026-03-29T13:57:14.146Z</time></trkpt><trkpt lat="43.6775223" lon="11.3482243"><ele>310.0</ele><time>2026-03-29T13:57:15.146Z</time></trkpt><trkpt lat="43.6776564" lon="11.3482467"><ele>311.0</ele><time>2026-03-29T13:57:16.145Z</time></trkpt><trkpt lat="43.6777957" lon="11.3482733"><ele>312.0</ele><time>2026-03-29T13:57:17.146Z</time></trkpt><trkpt lat="43.6779341" lon="11.3483118"><ele>313.0</ele><time>2026-03-29T13:57:18.146Z</time></trkpt><trkpt lat="43.6780804" lon="11.3483495"><ele>314.0</ele><time>2026-03-29T13:57:19.146Z</time></trkpt><trkpt lat="43.6782332" lon="11.3483989"><ele>314.0</ele><time>2026-03-29T13:57:20.146Z</time></trkpt><trkpt lat="43.6783873" lon="11.3484719"><ele>314.0</ele><time>2026-03-29T13:57:21.146Z</time></trkpt><trkpt lat="43.6785563" lon="11.3485871"><ele>314.0</ele><time>2026-03-29T13:57:22.146Z</time></trkpt><trkpt lat="43.6787156" lon="11.3487213"><ele>317.0</ele><time>2026-03-29T13:57:23.146Z</time></trkpt><trkpt lat="43.6788542" lon="11.34884"><ele>320.0</ele><time>2026-03-29T13:57:24.146Z</time></trkpt><trkpt lat="43.678969" lon="11.3489372"><ele>323.0</ele><time>2026-03-29T13:57:25.146Z</time></trkpt><trkpt lat="43.6790652" lon="11.3490189"><ele>326.0</ele><time>2026-03-29T13:57:26.146Z</time></trkpt><trkpt lat="43.6791662" lon="11.3490707"><ele>326.0</ele><time>2026-03-29T13:57:27.146Z</time></trkpt><trkpt lat="43.6792639" lon="11.3491011"><ele>326.0</ele><time>2026-03-29T13:57:28.146Z</time></trkpt><trkpt lat="43.6793648" lon="11.3491127"><ele>326.0</ele><time>2026-03-29T13:57:29.146Z</time></trkpt><trkpt lat="43.6794779" lon="11.3491178"><ele>326.0</ele><time>2026-03-29T13:57:30.146Z</time></trkpt><trkpt lat="43.6796042" lon="11.3491193"><ele>326.0</ele><time>2026-03-29T13:57:31.146Z</time></trkpt><trkpt lat="43.6797252" lon="11.3491183"><ele>329.20000000000005</ele><time>2026-03-29T13:57:32.146Z</time></trkpt><trkpt lat="43.6798428" lon="11.3491158"><ele>332.40000000000003</ele><time>2026-03-29T13:57:33.145Z</time></trkpt><trkpt lat="43.6799592" lon="11.3491274"><ele>335.6</ele><time>2026-03-29T13:57:34.146Z</time></trkpt><trkpt lat="43.6800596" lon="11.349151"><ele>338.8</ele><time>2026-03-29T13:57:35.146Z</time></trkpt><trkpt lat="43.6801409" lon="11.3491779"><ele>342.0</ele><time>2026-03-29T13:57:36.146Z</time></trkpt><trkpt lat="43.6802152" lon="11.3492054"><ele>346.0</ele><time>2026-03-29T13:57:37.146Z</time></trkpt><trkpt lat="43.6803022" lon="11.3492344"><ele>350.0</ele><time>2026-03-29T13:57:38.146Z</time></trkpt><trkpt lat="43.680398" lon="11.3492899"><ele>354.0</ele><time>2026-03-29T13:57:39.146Z</time></trkpt><trkpt lat="43.6804986" lon="11.3493794"><ele>358.0</ele><time>2026-03-29T13:57:40.146Z</time></trkpt><trkpt lat="43.6806061" lon="11.3494654"><ele>362.0</ele><time>2026-03-29T13:57:41.146Z</time></trkpt><trkpt lat="43.6807191" lon="11.3495782"><ele>362.0</ele><time>2026-03-29T13:57:42.146Z</time></trkpt><trkpt lat="43.6808236" lon="11.349692"><ele>362.0</ele><time>2026-03-29T13:57:43.146Z</time></trkpt><trkpt lat="43.6809259" lon="11.3498094"><ele>362.0</ele><time>2026-03-29T13:57:44.146Z</time></trkpt><trkpt lat="43.6810204" lon="11.3499239"><ele>362.0</ele><time>2026-03-29T13:57:45.146Z</time></trkpt><trkpt lat="43.6810935" lon="11.3500634"><ele>365.0</ele><time>2026-03-29T13:57:46.146Z</time></trkpt><trkpt lat="43.6811474" lon="11.3502129"><ele>368.0</ele><time>2026-03-29T13:57:47.146Z</time></trkpt><trkpt lat="43.6811922" lon="11.3503838"><ele>371.0</ele><time>2026-03-29T13:57:48.146Z</time></trkpt><trkpt lat="43.681237" lon="11.3505474"><ele>374.0</ele><time>2026-03-29T13:57:49.146Z</time></trkpt><trkpt lat="43.6812931" lon="11.3507013"><ele>374.0</ele><time>2026-03-29T13:57:50.146Z</time></trkpt><trkpt lat="43.6813698" lon="11.3508461"><ele>374.0</ele><time>2026-03-29T13:57:51.145Z</time></trkpt><trkpt lat="43.6814485" lon="11.3509772"><ele>374.0</ele><time>2026-03-29T13:57:52.146Z</time></trkpt><trkpt lat="43.6815228" lon="11.3511169"><ele>374.0</ele><time>2026-03-29T13:57:53.146Z</time></trkpt><trkpt lat="43.6815805" lon="11.3512637"><ele>374.1666666666667</ele><time>2026-03-29T13:57:54.146Z</time></trkpt><trkpt lat="43.6816222" lon="11.3513986"><ele>374.33333333333337</ele><time>2026-03-29T13:57:55.146Z</time></trkpt><trkpt lat="43.6816565" lon="11.3515188"><ele>374.5</ele><time>2026-03-29T13:57:56.146Z</time></trkpt><trkpt lat="43.6816979" lon="11.3516216"><ele>374.6666666666667</ele><time>2026-03-29T13:57:57.146Z</time></trkpt><trkpt lat="43.6817379" lon="11.3517041"><ele>374.8333333333333</ele><time>2026-03-29T13:57:58.146Z</time></trkpt><trkpt lat="43.6817765" lon="11.3517818"><ele>375.0</ele><time>2026-03-29T13:57:59.146Z</time></trkpt><trkpt lat="43.6818213" lon="11.3518519"><ele>375.0</ele><time>2026-03-29T13:58:00.146Z</time></trkpt><trkpt lat="43.6818855" lon="11.3519118"><ele>375.0</ele><time>2026-03-29T13:58:01.146Z</time></trkpt><trkpt lat="43.6819661" lon="11.3519569"><ele>375.0</ele><time>2026-03-29T13:58:02.146Z</time></trkpt><trkpt lat="43.6820497" lon="11.3519809"><ele>375.0</ele><time>2026-03-29T13:58:03.146Z</time></trkpt><trkpt lat="43.6821249" lon="11.3519928"><ele>375.0</ele><time>2026-03-29T13:58:04.145Z</time></trkpt><trkpt lat="43.6822184" lon="11.3520368"><ele>375.0</ele><time>2026-03-29T13:58:06.146Z</time></trkpt><trkpt lat="43.6822857" lon="11.3521097"><ele>376.8</ele><time>2026-03-29T13:58:08.146Z</time></trkpt><trkpt lat="43.6823533" lon="11.3522004"><ele>378.6</ele><time>2026-03-29T13:58:10.146Z</time></trkpt><trkpt lat="43.6824178" lon="11.3523052"><ele>380.4</ele><time>2026-03-29T13:58:12.146Z</time></trkpt><trkpt lat="43.6824986" lon="11.352432"><ele>382.2</ele><time>2026-03-29T13:58:14.146Z</time></trkpt><trkpt lat="43.6825954" lon="11.3525124"><ele>384.0</ele><time>2026-03-29T13:58:16.146Z</time></trkpt><trkpt lat="43.6827032" lon="11.3524448"><ele>383.4</ele><time>2026-03-29T13:58:18.146Z</time></trkpt><trkpt lat="43.6827697" lon="11.3523597"><ele>382.79999999999995</ele><time>2026-03-29T13:58:19.146Z</time></trkpt><trkpt lat="43.682846" lon="11.3522656"><ele>382.20000000000005</ele><time>2026-03-29T13:58:20.146Z</time></trkpt><trkpt lat="43.6829275" lon="11.3521763"><ele>381.6</ele><time>2026-03-29T13:58:21.146Z</time></trkpt><trkpt lat="43.6830248" lon="11.3521167"><ele>381.0</ele><time>2026-03-29T13:58:22.146Z</time></trkpt><trkpt lat="43.6831178" lon="11.3520647"><ele>384.8</ele><time>2026-03-29T13:58:23.146Z</time></trkpt><trkpt lat="43.6831844" lon="11.3520256"><ele>388.6</ele><time>2026-03-29T13:58:24.146Z</time></trkpt><trkpt lat="43.6832522" lon="11.3519059"><ele>392.4</ele><time>2026-03-29T13:58:26.145Z</time></trkpt><trkpt lat="43.6832184" lon="11.3517628"><ele>396.2</ele><time>2026-03-29T13:58:28.146Z</time></trkpt><trkpt lat="43.6831354" lon="11.3516363"><ele>400.0</ele><time>2026-03-29T13:58:30.146Z</time></trkpt><trkpt lat="43.6830779" lon="11.3515398"><ele>400.0</ele><time>2026-03-29T13:58:31.146Z</time></trkpt><trkpt lat="43.6830271" lon="11.3514347"><ele>400.0</ele><time>2026-03-29T13:58:32.146Z</time></trkpt><trkpt lat="43.6829838" lon="11.3513358"><ele>400.0</ele><time>2026-03-29T13:58:33.146Z</time></trkpt><trkpt lat="43.6829668" lon="11.3512258"><ele>400.0</ele><time>2026-03-29T13:58:34.145Z</time></trkpt><trkpt lat="43.6829586" lon="11.3511034"><ele>400.0</ele><time>2026-03-29T13:58:35.146Z</time></trkpt><trkpt lat="43.6829594" lon="11.3509563"><ele>402.0</ele><time>2026-03-29T13:58:36.146Z</time></trkpt><trkpt lat="43.6829602" lon="11.3507924"><ele>404.0</ele><time>2026-03-29T13:58:37.146Z</time></trkpt><trkpt lat="43.6829607" lon="11.3506219"><ele>406.0</ele><time>2026-03-29T13:58:38.146Z</time></trkpt><trkpt lat="43.6829693" lon="11.3504699"><ele>408.0</ele><time>2026-03-29T13:58:39.146Z</time></trkpt><trkpt lat="43.6829897" lon="11.350322"><ele>408.0</ele><time>2026-03-29T13:58:40.146Z</time></trkpt><trkpt lat="43.6830181" lon="11.3501886"><ele>408.0</ele><time>2026-03-29T13:58:41.146Z</time></trkpt><trkpt lat="43.6830539" lon="11.3500707"><ele>408.0</ele><time>2026-03-29T13:58:42.146Z</time></trkpt><trkpt lat="43.6831104" lon="11.3499705"><ele>408.0</ele><time>2026-03-29T13:58:43.146Z</time></trkpt><trkpt lat="43.6831925" lon="11.3499069"><ele>408.0</ele><time>2026-03-29T13:58:44.146Z</time></trkpt><trkpt lat="43.6832837" lon="11.3498508"><ele>408.0</ele><time>2026-03-29T13:58:45.146Z</time></trkpt><trkpt lat="43.6833871" lon="11.3498082"><ele>408.0</ele><time>2026-03-29T13:58:46.146Z</time></trkpt><trkpt lat="43.6834973" lon="11.3497844"><ele>408.0</ele><time>2026-03-29T13:58:47.146Z</time></trkpt><trkpt lat="43.6836103" lon="11.3497942"><ele>408.0</ele><time>2026-03-29T13:58:48.146Z</time></trkpt><trkpt lat="43.6837289" lon="11.3498358"><ele>409.4</ele><time>2026-03-29T13:58:49.146Z</time></trkpt><trkpt lat="43.6838428" lon="11.3498834"><ele>410.79999999999995</ele><time>2026-03-29T13:58:50.146Z</time></trkpt><trkpt lat="43.6839515" lon="11.3499219"><ele>412.2</ele><time>2026-03-29T13:58:51.146Z</time></trkpt><trkpt lat="43.6840492" lon="11.3499231"><ele>413.6</ele><time>2026-03-29T13:58:52.146Z</time></trkpt><trkpt lat="43.6841339" lon="11.3499072"><ele>415.0</ele><time>2026-03-29T13:58:53.146Z</time></trkpt><trkpt lat="43.6842038" lon="11.3498772"><ele>415.0</ele><time>2026-03-29T13:58:54.146Z</time></trkpt><trkpt lat="43.6843096" lon="11.3498183"><ele>415.0</ele><time>2026-03-29T13:58:56.146Z</time></trkpt><trkpt lat="43.6843742" lon="11.3498192"><ele>415.0</ele><time>2026-03-29T13:58:58.146Z</time></trkpt><trkpt lat="43.6844491" lon="11.3498618"><ele>415.0</ele><time>2026-03-29T13:59:04.146Z</time></trkpt><trkpt lat="43.6845423" lon="11.3499827"><ele>415.0</ele><time>2026-03-29T13:59:06.146Z</time></trkpt><trkpt lat="43.6846329" lon="11.3500598"><ele>418.6</ele><time>2026-03-29T13:59:08.146Z</time></trkpt><trkpt lat="43.6847278" lon="11.350006"><ele>422.2</ele><time>2026-03-29T13:59:10.146Z</time></trkpt><trkpt lat="43.6847755" lon="11.3499012"><ele>425.79999999999995</ele><time>2026-03-29T13:59:11.146Z</time></trkpt><trkpt lat="43.6848137" lon="11.349775"><ele>429.4</ele><time>2026-03-29T13:59:12.146Z</time></trkpt><trkpt lat="43.6848356" lon="11.3496443"><ele>433.0</ele><time>2026-03-29T13:59:13.146Z</time></trkpt><trkpt lat="43.6848586" lon="11.3495162"><ele>433.0</ele><time>2026-03-29T13:59:14.146Z</time></trkpt><trkpt lat="43.6848865" lon="11.34941"><ele>432.99999999999994</ele><time>2026-03-29T13:59:15.146Z</time></trkpt><trkpt lat="43.6849656" lon="11.3492994"><ele>432.99999999999994</ele><time>2026-03-29T13:59:17.146Z</time></trkpt><trkpt lat="43.6850438" lon="11.3493211"><ele>433.0</ele><time>2026-03-29T13:59:19.146Z</time></trkpt><trkpt lat="43.685082" lon="11.3494292"><ele>433.0</ele><time>2026-03-29T13:59:21.145Z</time></trkpt><trkpt lat="43.6851467" lon="11.349581"><ele>433.00000000000006</ele><time>2026-03-29T13:59:23.146Z</time></trkpt><trkpt lat="43.6851913" lon="11.3496741"><ele>433.0</ele><time>2026-03-29T13:59:24.146Z</time></trkpt><trkpt lat="43.6852435" lon="11.3497639"><ele>433.0</ele><time>2026-03-29T13:59:25.146Z</time></trkpt><trkpt lat="43.6852953" lon="11.3498549"><ele>433.0</ele><time>2026-03-29T13:59:26.146Z</time></trkpt><trkpt lat="43.685349" lon="11.3499404"><ele>433.00000000000006</ele><time>2026-03-29T13:59:27.146Z</time></trkpt><trkpt lat="43.6854019" lon="11.3500021"><ele>433.0</ele><time>2026-03-29T13:59:28.146Z</time></trkpt><trkpt lat="43.6854653" lon="11.3500424"><ele>435.6666666666667</ele><time>2026-03-29T13:59:29.145Z</time></trkpt><trkpt lat="43.6855343" lon="11.3500575"><ele>438.33333333333337</ele><time>2026-03-29T13:59:30.146Z</time></trkpt><trkpt lat="43.6856081" lon="11.3500522"><ele>441.0</ele><time>2026-03-29T13:59:31.146Z</time></trkpt><trkpt lat="43.6856697" lon="11.350031"><ele>443.66666666666663</ele><time>2026-03-29T13:59:32.146Z</time></trkpt><trkpt lat="43.6857381" lon="11.3499125"><ele>446.3333333333333</ele><time>2026-03-29T13:59:34.146Z</time></trkpt><trkpt lat="43.685721" lon="11.3497721"><ele>449.0</ele><time>2026-03-29T13:59:36.146Z</time></trkpt><trkpt lat="43.6857354" lon="11.3496716"><ele>449.0</ele><time>2026-03-29T13:59:39.146Z</time></trkpt><trkpt lat="43.6858295" lon="11.3496219"><ele>449.0</ele><time>2026-03-29T13:59:42.146Z</time></trkpt><trkpt lat="43.6859394" lon="11.3495811"><ele>449.0</ele><time>2026-03-29T13:59:44.146Z</time></trkpt><trkpt lat="43.6860392" lon="11.3495302"><ele>449.0</ele><time>2026-03-29T13:59:46.146Z</time></trkpt><trkpt lat="43.6861253" lon="11.3494664"><ele>449.0</ele><time>2026-03-29T13:59:48.146Z</time></trkpt><trkpt lat="43.686191" lon="11.3493931"><ele>448.99999999999994</ele><time>2026-03-29T13:59:50.146Z</time></trkpt><trkpt lat="43.6862684" lon="11.3493717"><ele>449.0</ele><time>2026-03-29T13:59:53.146Z</time></trkpt><trkpt lat="43.6862413" lon="11.3494729"><ele>449.0</ele><time>2026-03-29T13:59:56.146Z</time></trkpt><trkpt lat="43.6861544" lon="11.3494761"><ele>449.0</ele><time>2026-03-29T13:59:58.146Z</time></trkpt><trkpt lat="43.686066" lon="11.3494879"><ele>448.99999999999994</ele><time>2026-03-29T14:00:00.146Z</time></trkpt><trkpt lat="43.6859739" lon="11.3495331"><ele>449.0</ele><time>2026-03-29T14:00:02.146Z</time></trkpt><trkpt lat="43.6858771" lon="11.3495815"><ele>448.99999999999994</ele><time>2026-03-29T14:00:04.146Z</time></trkpt><trkpt lat="43.6857924" lon="11.3496307"><ele>449.0</ele><time>2026-03-29T14:00:06.146Z</time></trkpt><trkpt lat="43.6857081" lon="11.3496624"><ele>449.0</ele><time>2026-03-29T14:00:09.146Z</time></trkpt><trkpt lat="43.6856234" lon="11.3496327"><ele>449.0</ele><time>2026-03-29T14:00:12.146Z</time></trkpt><trkpt lat="43.6855719" lon="11.3495818"><ele>448.99999999999994</ele><time>2026-03-29T14:00:14.146Z</time></trkpt><trkpt lat="43.6855456" lon="11.3494577"><ele>449.0</ele><time>2026-03-29T14:00:17.146Z</time></trkpt><trkpt lat="43.6855787" lon="11.3493302"><ele>448.99999999999994</ele><time>2026-03-29T14:00:19.146Z</time></trkpt><trkpt lat="43.6856222" lon="11.3492606"><ele>449.0</ele><time>2026-03-29T14:00:20.146Z</time></trkpt><trkpt lat="43.6857209" lon="11.3491572"><ele>449.0</ele><time>2026-03-29T14:00:22.146Z</time></trkpt><trkpt lat="43.685819" lon="11.3490827"><ele>449.0</ele><time>2026-03-29T14:00:24.146Z</time></trkpt><trkpt lat="43.6858842" lon="11.3490422"><ele>448.99999999999994</ele><time>2026-03-29T14:00:25.146Z</time></trkpt><trkpt lat="43.6859399" lon="11.3489846"><ele>449.0</ele><time>2026-03-29T14:00:26.145Z</time></trkpt><trkpt lat="43.6860097" lon="11.3489095"><ele>447.2</ele><time>2026-03-29T14:00:27.146Z</time></trkpt><trkpt lat="43.6860762" lon="11.348826"><ele>445.4</ele><time>2026-03-29T14:00:28.145Z</time></trkpt><trkpt lat="43.6861287" lon="11.3487474"><ele>443.6</ele><time>2026-03-29T14:00:29.146Z</time></trkpt><trkpt lat="43.6861612" lon="11.3486289"><ele>441.8</ele><time>2026-03-29T14:00:30.145Z</time></trkpt><trkpt lat="43.6861908" lon="11.3484893"><ele>440.0</ele><time>2026-03-29T14:00:31.146Z</time></trkpt><trkpt lat="43.6862163" lon="11.3483606"><ele>439.99999999999994</ele><time>2026-03-29T14:00:32.146Z</time></trkpt><trkpt lat="43.6862521" lon="11.3482206"><ele>440.0</ele><time>2026-03-29T14:00:33.146Z</time></trkpt><trkpt lat="43.6862766" lon="11.3480992"><ele>440.0</ele><time>2026-03-29T14:00:34.146Z</time></trkpt><trkpt lat="43.686293" lon="11.3479844"><ele>440.0</ele><time>2026-03-29T14:00:35.146Z</time></trkpt><trkpt lat="43.6863036" lon="11.3478822"><ele>439.99999999999994</ele><time>2026-03-29T14:00:36.146Z</time></trkpt><trkpt lat="43.6863176" lon="11.3477958"><ele>440.0</ele><time>2026-03-29T14:00:37.146Z</time></trkpt><trkpt lat="43.686363" lon="11.3476451"><ele>437.2</ele><time>2026-03-29T14:00:39.146Z</time></trkpt><trkpt lat="43.6864746" lon="11.3475862"><ele>434.4</ele><time>2026-03-29T14:00:41.146Z</time></trkpt><trkpt lat="43.6865445" lon="11.347604"><ele>431.6</ele><time>2026-03-29T14:00:42.146Z</time></trkpt><trkpt lat="43.6866099" lon="11.3476443"><ele>428.8</ele><time>2026-03-29T14:00:43.146Z</time></trkpt><trkpt lat="43.6867069" lon="11.3477078"><ele>426.0</ele><time>2026-03-29T14:00:45.146Z</time></trkpt><trkpt lat="43.6868052" lon="11.34775"><ele>426.0</ele><time>2026-03-29T14:00:47.146Z</time></trkpt><trkpt lat="43.6869171" lon="11.3477975"><ele>426.0</ele><time>2026-03-29T14:00:49.146Z</time></trkpt><trkpt lat="43.6870105" lon="11.347831"><ele>426.0</ele><time>2026-03-29T14:00:50.146Z</time></trkpt><trkpt lat="43.6871115" lon="11.347862"><ele>426.0</ele><time>2026-03-29T14:00:51.146Z</time></trkpt><trkpt lat="43.6872031" lon="11.3478927"><ele>426.0</ele><time>2026-03-29T14:00:52.146Z</time></trkpt><trkpt lat="43.6872786" lon="11.3479224"><ele>424.0</ele><time>2026-03-29T14:00:53.146Z</time></trkpt><trkpt lat="43.6873563" lon="11.3479515"><ele>422.0</ele><time>2026-03-29T14:00:54.145Z</time></trkpt><trkpt lat="43.6874398" lon="11.3479662"><ele>420.0</ele><time>2026-03-29T14:00:55.145Z</time></trkpt><trkpt lat="43.6875392" lon="11.3479329"><ele>418.0</ele><time>2026-03-29T14:00:56.146Z</time></trkpt><trkpt lat="43.687641" lon="11.3478976"><ele>416.0</ele><time>2026-03-29T14:00:57.146Z</time></trkpt><trkpt lat="43.6877595" lon="11.347851"><ele>415.0</ele><time>2026-03-29T14:00:58.146Z</time></trkpt><trkpt lat="43.6878839" lon="11.3477984"><ele>414.0</ele><time>2026-03-29T14:00:59.146Z</time></trkpt><trkpt lat="43.6879794" lon="11.3477601"><ele>413.0</ele><time>2026-03-29T14:01:00.146Z</time></trkpt><trkpt lat="43.6880629" lon="11.3477189"><ele>412.0</ele><time>2026-03-29T14:01:01.146Z</time></trkpt><trkpt lat="43.6881278" lon="11.3476926"><ele>411.0</ele><time>2026-03-29T14:01:02.146Z</time></trkpt><trkpt lat="43.6882219" lon="11.3476512"><ele>411.0</ele><time>2026-03-29T14:01:04.147Z</time></trkpt><trkpt lat="43.6883025" lon="11.347646"><ele>411.0</ele><time>2026-03-29T14:01:06.147Z</time></trkpt><trkpt lat="43.688399" lon="11.3476995"><ele>411.0</ele><time>2026-03-29T14:01:08.147Z</time></trkpt><trkpt lat="43.6884565" lon="11.3477444"><ele>411.0</ele><time>2026-03-29T14:01:09.147Z</time></trkpt><trkpt lat="43.6885187" lon="11.347782"><ele>411.0</ele><time>2026-03-29T14:01:10.147Z</time></trkpt><trkpt lat="43.6885853" lon="11.347822"><ele>411.0</ele><time>2026-03-29T14:01:11.147Z</time></trkpt><trkpt lat="43.6886593" lon="11.34787"><ele>411.20000000000005</ele><time>2026-03-29T14:01:12.146Z</time></trkpt><trkpt lat="43.6887431" lon="11.3479251"><ele>411.40000000000003</ele><time>2026-03-29T14:01:13.146Z</time></trkpt><trkpt lat="43.6888333" lon="11.3480048"><ele>411.6</ele><time>2026-03-29T14:01:14.147Z</time></trkpt><trkpt lat="43.6889205" lon="11.3480995"><ele>411.8</ele><time>2026-03-29T14:01:15.147Z</time></trkpt><trkpt lat="43.6890066" lon="11.3481841"><ele>412.0</ele><time>2026-03-29T14:01:16.147Z</time></trkpt><trkpt lat="43.6890783" lon="11.3482703"><ele>409.6666666666667</ele><time>2026-03-29T14:01:17.147Z</time></trkpt><trkpt lat="43.6891436" lon="11.3483477"><ele>407.33333333333337</ele><time>2026-03-29T14:01:18.147Z</time></trkpt><trkpt lat="43.6891966" lon="11.3484237"><ele>405.0</ele><time>2026-03-29T14:01:19.147Z</time></trkpt><trkpt lat="43.6892394" lon="11.3484996"><ele>402.66666666666663</ele><time>2026-03-29T14:01:20.147Z</time></trkpt><trkpt lat="43.6892615" lon="11.3485849"><ele>400.3333333333333</ele><time>2026-03-29T14:01:21.147Z</time></trkpt><trkpt lat="43.6893253" lon="11.3487192"><ele>398.0</ele><time>2026-03-29T14:01:23.147Z</time></trkpt><trkpt lat="43.6893687" lon="11.3487968"><ele>395.66666666666663</ele><time>2026-03-29T14:01:24.147Z</time></trkpt><trkpt lat="43.6894214" lon="11.3488802"><ele>393.3333333333333</ele><time>2026-03-29T14:01:25.147Z</time></trkpt><trkpt lat="43.6894648" lon="11.3489692"><ele>391.0</ele><time>2026-03-29T14:01:26.147Z</time></trkpt><trkpt lat="43.6895213" lon="11.3490429"><ele>388.66666666666663</ele><time>2026-03-29T14:01:27.147Z</time></trkpt><trkpt lat="43.6895923" lon="11.3491141"><ele>386.3333333333333</ele><time>2026-03-29T14:01:28.147Z</time></trkpt><trkpt lat="43.6896627" lon="11.3491859"><ele>384.0</ele><time>2026-03-29T14:01:29.147Z</time></trkpt><trkpt lat="43.6897341" lon="11.3492795"><ele>384.0</ele><time>2026-03-29T14:01:30.147Z</time></trkpt><trkpt lat="43.6898013" lon="11.3493898"><ele>384.0</ele><time>2026-03-29T14:01:31.147Z</time></trkpt><trkpt lat="43.6898795" lon="11.3495321"><ele>384.0</ele><time>2026-03-29T14:01:32.147Z</time></trkpt><trkpt lat="43.6899682" lon="11.3496784"><ele>384.0</ele><time>2026-03-29T14:01:33.147Z</time></trkpt><trkpt lat="43.6900635" lon="11.3498505"><ele>382.0</ele><time>2026-03-29T14:01:34.147Z</time></trkpt><trkpt lat="43.6901619" lon="11.3500199"><ele>380.0</ele><time>2026-03-29T14:01:35.146Z</time></trkpt><trkpt lat="43.6902708" lon="11.3501824"><ele>378.0</ele><time>2026-03-29T14:01:36.147Z</time></trkpt><trkpt lat="43.6903752" lon="11.3503383"><ele>377.3333333333333</ele><time>2026-03-29T14:01:37.146Z</time></trkpt><trkpt lat="43.6904742" lon="11.3505002"><ele>376.66666666666663</ele><time>2026-03-29T14:01:38.147Z</time></trkpt><trkpt lat="43.6905662" lon="11.3506682"><ele>376.0</ele><time>2026-03-29T14:01:39.147Z</time></trkpt><trkpt lat="43.6906578" lon="11.3508357"><ele>376.0</ele><time>2026-03-29T14:01:40.147Z</time></trkpt><trkpt lat="43.6907398" lon="11.3510028"><ele>376.0</ele><time>2026-03-29T14:01:41.147Z</time></trkpt><trkpt lat="43.6908236" lon="11.3511495"><ele>376.0</ele><time>2026-03-29T14:01:42.147Z</time></trkpt><trkpt lat="43.6908977" lon="11.3512874"><ele>376.0</ele><time>2026-03-29T14:01:43.147Z</time></trkpt><trkpt lat="43.6909615" lon="11.3514388"><ele>376.66666666666663</ele><time>2026-03-29T14:01:44.147Z</time></trkpt><trkpt lat="43.6910391" lon="11.351596"><ele>377.3333333333333</ele><time>2026-03-29T14:01:45.147Z</time></trkpt><trkpt lat="43.6911169" lon="11.351775"><ele>378.0</ele><time>2026-03-29T14:01:46.147Z</time></trkpt><trkpt lat="43.6912002" lon="11.3519714"><ele>378.0</ele><time>2026-03-29T14:01:47.147Z</time></trkpt><trkpt lat="43.6912907" lon="11.3521768"><ele>378.0</ele><time>2026-03-29T14:01:48.147Z</time></trkpt><trkpt lat="43.6913828" lon="11.3523813"><ele>378.0</ele><time>2026-03-29T14:01:49.147Z</time></trkpt><trkpt lat="43.6914569" lon="11.3525754"><ele>379.25</ele><time>2026-03-29T14:01:50.147Z</time></trkpt><trkpt lat="43.6915192" lon="11.3527486"><ele>380.5</ele><time>2026-03-29T14:01:51.146Z</time></trkpt><trkpt lat="43.6915966" lon="11.3528865"><ele>381.75</ele><time>2026-03-29T14:01:52.147Z</time></trkpt><trkpt lat="43.6916701" lon="11.3530209"><ele>383.0</ele><time>2026-03-29T14:01:53.147Z</time></trkpt><trkpt lat="43.6917394" lon="11.353157"><ele>383.0</ele><time>2026-03-29T14:01:54.147Z</time></trkpt><trkpt lat="43.691808" lon="11.3533029"><ele>383.0</ele><time>2026-03-29T14:01:55.147Z</time></trkpt><trkpt lat="43.6918884" lon="11.3534476"><ele>383.0</ele><time>2026-03-29T14:01:56.147Z</time></trkpt><trkpt lat="43.6919845" lon="11.3536002"><ele>383.0</ele><time>2026-03-29T14:01:57.147Z</time></trkpt><trkpt lat="43.6920825" lon="11.3537221"><ele>383.0</ele><time>2026-03-29T14:01:58.147Z</time></trkpt><trkpt lat="43.6921626" lon="11.3538405"><ele>383.0</ele><time>2026-03-29T14:01:59.146Z</time></trkpt><trkpt lat="43.6922343" lon="11.3539474"><ele>383.0</ele><time>2026-03-29T14:02:00.147Z</time></trkpt><trkpt lat="43.6922749" lon="11.3540578"><ele>383.0</ele><time>2026-03-29T14:02:01.147Z</time></trkpt><trkpt lat="43.6923032" lon="11.354172"><ele>383.0</ele><time>2026-03-29T14:02:02.147Z</time></trkpt><trkpt lat="43.6923411" lon="11.3542887"><ele>385.59999999999997</ele><time>2026-03-29T14:02:03.147Z</time></trkpt><trkpt lat="43.6923921" lon="11.3544088"><ele>388.2</ele><time>2026-03-29T14:02:04.147Z</time></trkpt><trkpt lat="43.692451" lon="11.3545284"><ele>390.8</ele><time>2026-03-29T14:02:05.147Z</time></trkpt><trkpt lat="43.6925244" lon="11.3546562"><ele>393.4</ele><time>2026-03-29T14:02:06.147Z</time></trkpt><trkpt lat="43.6925902" lon="11.3547804"><ele>396.0</ele><time>2026-03-29T14:02:07.147Z</time></trkpt><trkpt lat="43.6926745" lon="11.354897"><ele>397.0</ele><time>2026-03-29T14:02:08.147Z</time></trkpt><trkpt lat="43.6927683" lon="11.3549947"><ele>398.0</ele><time>2026-03-29T14:02:09.147Z</time></trkpt><trkpt lat="43.6928507" lon="11.3550761"><ele>399.0</ele><time>2026-03-29T14:02:10.147Z</time></trkpt><trkpt lat="43.6929233" lon="11.3551516"><ele>400.0</ele><time>2026-03-29T14:02:11.147Z</time></trkpt><trkpt lat="43.6929888" lon="11.3552198"><ele>401.0</ele><time>2026-03-29T14:02:12.147Z</time></trkpt><trkpt lat="43.6930351" lon="11.3552788"><ele>400.99999999999994</ele><time>2026-03-29T14:02:13.147Z</time></trkpt><trkpt lat="43.6930482" lon="11.3553667"><ele>401.0</ele><time>2026-03-29T14:02:14.147Z</time></trkpt><trkpt lat="43.6930434" lon="11.3554585"><ele>401.0</ele><time>2026-03-29T14:02:15.147Z</time></trkpt><trkpt lat="43.6929851" lon="11.3555989"><ele>401.0</ele><time>2026-03-29T14:02:17.147Z</time></trkpt><trkpt lat="43.6929506" lon="11.3557427"><ele>400.99999999999994</ele><time>2026-03-29T14:02:19.147Z</time></trkpt><trkpt lat="43.6929691" lon="11.3558312"><ele>401.0</ele><time>2026-03-29T14:02:20.147Z</time></trkpt><trkpt lat="43.6929904" lon="11.3559175"><ele>403.0</ele><time>2026-03-29T14:02:21.147Z</time></trkpt><trkpt lat="43.6930349" lon="11.3560036"><ele>405.0</ele><time>2026-03-29T14:02:22.147Z</time></trkpt><trkpt lat="43.6930776" lon="11.3561037"><ele>407.0</ele><time>2026-03-29T14:02:23.147Z</time></trkpt><trkpt lat="43.6931315" lon="11.356222"><ele>409.0</ele><time>2026-03-29T14:02:24.147Z</time></trkpt><trkpt lat="43.6932015" lon="11.3563303"><ele>411.0</ele><time>2026-03-29T14:02:25.147Z</time></trkpt><trkpt lat="43.6932902" lon="11.3564559"><ele>412.6</ele><time>2026-03-29T14:02:26.146Z</time></trkpt><trkpt lat="43.6933596" lon="11.3565739"><ele>414.20000000000005</ele><time>2026-03-29T14:02:27.147Z</time></trkpt><trkpt lat="43.6934155" lon="11.3567031"><ele>415.79999999999995</ele><time>2026-03-29T14:02:28.147Z</time></trkpt><trkpt lat="43.6934602" lon="11.356843"><ele>417.4</ele><time>2026-03-29T14:02:29.147Z</time></trkpt><trkpt lat="43.6934967" lon="11.3569859"><ele>419.0</ele><time>2026-03-29T14:02:30.147Z</time></trkpt><trkpt lat="43.6935313" lon="11.3571256"><ele>419.6</ele><time>2026-03-29T14:02:31.147Z</time></trkpt><trkpt lat="43.6935715" lon="11.3572643"><ele>420.2</ele><time>2026-03-29T14:02:32.147Z</time></trkpt><trkpt lat="43.6936086" lon="11.3574051"><ele>420.8</ele><time>2026-03-29T14:02:33.147Z</time></trkpt><trkpt lat="43.6936346" lon="11.3575516"><ele>421.40000000000003</ele><time>2026-03-29T14:02:34.147Z</time></trkpt><trkpt lat="43.6936482" lon="11.3577121"><ele>422.0</ele><time>2026-03-29T14:02:35.147Z</time></trkpt><trkpt lat="43.693655" lon="11.357861"><ele>422.8</ele><time>2026-03-29T14:02:36.147Z</time></trkpt><trkpt lat="43.6936578" lon="11.3580104"><ele>423.6</ele><time>2026-03-29T14:02:37.147Z</time></trkpt><trkpt lat="43.693665" lon="11.3581421"><ele>424.40000000000003</ele><time>2026-03-29T14:02:38.147Z</time></trkpt><trkpt lat="43.6936782" lon="11.3582509"><ele>425.20000000000005</ele><time>2026-03-29T14:02:39.146Z</time></trkpt><trkpt lat="43.6937128" lon="11.3583739"><ele>426.0</ele><time>2026-03-29T14:02:40.147Z</time></trkpt><trkpt lat="43.6937658" lon="11.3585061"><ele>428.6</ele><time>2026-03-29T14:02:41.147Z</time></trkpt><trkpt lat="43.6938174" lon="11.3586276"><ele>431.20000000000005</ele><time>2026-03-29T14:02:42.147Z</time></trkpt><trkpt lat="43.6938716" lon="11.3587731"><ele>433.79999999999995</ele><time>2026-03-29T14:02:43.147Z</time></trkpt><trkpt lat="43.6939285" lon="11.3589085"><ele>436.4</ele><time>2026-03-29T14:02:44.147Z</time></trkpt><trkpt lat="43.6939971" lon="11.3590376"><ele>439.0</ele><time>2026-03-29T14:02:45.147Z</time></trkpt><trkpt lat="43.6940611" lon="11.3591632"><ele>440.4</ele><time>2026-03-29T14:02:46.147Z</time></trkpt><trkpt lat="43.6941258" lon="11.3592952"><ele>441.79999999999995</ele><time>2026-03-29T14:02:47.147Z</time></trkpt><trkpt lat="43.6941831" lon="11.3594231"><ele>443.20000000000005</ele><time>2026-03-29T14:02:48.147Z</time></trkpt><trkpt lat="43.694238" lon="11.3595481"><ele>444.6</ele><time>2026-03-29T14:02:49.147Z</time></trkpt><trkpt lat="43.6942688" lon="11.3596611"><ele>446.0</ele><time>2026-03-29T14:02:50.146Z</time></trkpt><trkpt lat="43.6942963" lon="11.3597617"><ele>446.66666666666663</ele><time>2026-03-29T14:02:51.147Z</time></trkpt><trkpt lat="43.694349" lon="11.3598702"><ele>447.3333333333333</ele><time>2026-03-29T14:02:52.147Z</time></trkpt><trkpt lat="43.6944026" lon="11.3599628"><ele>448.0</ele><time>2026-03-29T14:02:53.147Z</time></trkpt><trkpt lat="43.6944539" lon="11.3600459"><ele>448.66666666666663</ele><time>2026-03-29T14:02:54.147Z</time></trkpt><trkpt lat="43.694488" lon="11.3601435"><ele>449.3333333333333</ele><time>2026-03-29T14:02:55.147Z</time></trkpt><trkpt lat="43.6945098" lon="11.3602439"><ele>450.0</ele><time>2026-03-29T14:02:56.147Z</time></trkpt><trkpt lat="43.6944948" lon="11.3604287"><ele>451.5</ele><time>2026-03-29T14:02:58.147Z</time></trkpt><trkpt lat="43.6944538" lon="11.3605283"><ele>453.0</ele><time>2026-03-29T14:02:59.147Z</time></trkpt><trkpt lat="43.6944037" lon="11.3606294"><ele>454.5</ele><time>2026-03-29T14:03:00.147Z</time></trkpt><trkpt lat="43.6943625" lon="11.3607218"><ele>456.0</ele><time>2026-03-29T14:03:01.147Z</time></trkpt><trkpt lat="43.6943459" lon="11.3608201"><ele>457.5</ele><time>2026-03-29T14:03:02.147Z</time></trkpt><trkpt lat="43.6943389" lon="11.3609333"><ele>459.0</ele><time>2026-03-29T14:03:03.147Z</time></trkpt><trkpt lat="43.6943275" lon="11.3610574"><ele>459.0</ele><time>2026-03-29T14:03:04.147Z</time></trkpt><trkpt lat="43.694314" lon="11.361182"><ele>459.0</ele><time>2026-03-29T14:03:05.147Z</time></trkpt><trkpt lat="43.6943032" lon="11.3612969"><ele>459.0</ele><time>2026-03-29T14:03:06.147Z</time></trkpt><trkpt lat="43.6942879" lon="11.3614265"><ele>459.0</ele><time>2026-03-29T14:03:07.147Z</time></trkpt><trkpt lat="43.6942766" lon="11.3615431"><ele>459.0</ele><time>2026-03-29T14:03:08.147Z</time></trkpt><trkpt lat="43.6942672" lon="11.3616607"><ele>459.0</ele><time>2026-03-29T14:03:09.147Z</time></trkpt><trkpt lat="43.6942455" lon="11.3617875"><ele>461.0</ele><time>2026-03-29T14:03:10.147Z</time></trkpt><trkpt lat="43.6942101" lon="11.361916"><ele>463.0</ele><time>2026-03-29T14:03:11.147Z</time></trkpt><trkpt lat="43.6941631" lon="11.3620365"><ele>465.0</ele><time>2026-03-29T14:03:12.147Z</time></trkpt><trkpt lat="43.6941096" lon="11.3621603"><ele>467.0</ele><time>2026-03-29T14:03:13.147Z</time></trkpt><trkpt lat="43.6940598" lon="11.3622824"><ele>469.0</ele><time>2026-03-29T14:03:14.147Z</time></trkpt><trkpt lat="43.6940181" lon="11.3623751"><ele>470.33333333333337</ele><time>2026-03-29T14:03:15.147Z</time></trkpt><trkpt lat="43.6939897" lon="11.3624539"><ele>471.6666666666667</ele><time>2026-03-29T14:03:16.147Z</time></trkpt><trkpt lat="43.6939705" lon="11.3625484"><ele>473.0</ele><time>2026-03-29T14:03:18.147Z</time></trkpt><trkpt lat="43.6940322" lon="11.3625985"><ele>474.33333333333337</ele><time>2026-03-29T14:03:20.147Z</time></trkpt><trkpt lat="43.6941444" lon="11.3626099"><ele>475.6666666666667</ele><time>2026-03-29T14:03:22.147Z</time></trkpt><trkpt lat="43.6942666" lon="11.3626336"><ele>477.0</ele><time>2026-03-29T14:03:23.147Z</time></trkpt><trkpt lat="43.6943869" lon="11.3626825"><ele>480.3333333333333</ele><time>2026-03-29T14:03:24.147Z</time></trkpt><trkpt lat="43.694486" lon="11.3627337"><ele>483.66666666666663</ele><time>2026-03-29T14:03:25.147Z</time></trkpt><trkpt lat="43.6945814" lon="11.3627881"><ele>487.0</ele><time>2026-03-29T14:03:26.147Z</time></trkpt><trkpt lat="43.6946631" lon="11.3628338"><ele>490.3333333333333</ele><time>2026-03-29T14:03:27.147Z</time></trkpt><trkpt lat="43.6947285" lon="11.3628923"><ele>493.66666666666663</ele><time>2026-03-29T14:03:28.147Z</time></trkpt><trkpt lat="43.6947812" lon="11.3629432"><ele>497.0</ele><time>2026-03-29T14:03:29.147Z</time></trkpt><trkpt lat="43.6948318" lon="11.3630177"><ele>497.0</ele><time>2026-03-29T14:03:30.147Z</time></trkpt><trkpt lat="43.6948686" lon="11.36313"><ele>497.00000000000006</ele><time>2026-03-29T14:03:31.147Z</time></trkpt><trkpt lat="43.6949" lon="11.3632533"><ele>497.00000000000006</ele><time>2026-03-29T14:03:32.147Z</time></trkpt><trkpt lat="43.6949413" lon="11.3633903"><ele>497.0</ele><time>2026-03-29T14:03:33.147Z</time></trkpt><trkpt lat="43.6949963" lon="11.3635247"><ele>497.0</ele><time>2026-03-29T14:03:34.147Z</time></trkpt><trkpt lat="43.695056" lon="11.3636353"><ele>497.0</ele><time>2026-03-29T14:03:35.147Z</time></trkpt><trkpt lat="43.6951237" lon="11.3637288"><ele>497.00000000000006</ele><time>2026-03-29T14:03:36.147Z</time></trkpt><trkpt lat="43.6951968" lon="11.3638174"><ele>497.00000000000006</ele><time>2026-03-29T14:03:37.147Z</time></trkpt><trkpt lat="43.6952762" lon="11.3639126"><ele>497.0</ele><time>2026-03-29T14:03:38.147Z</time></trkpt><trkpt lat="43.695353" lon="11.3640236"><ele>497.0</ele><time>2026-03-29T14:03:39.147Z</time></trkpt><trkpt lat="43.6954136" lon="11.3641441"><ele>499.66666666666663</ele><time>2026-03-29T14:03:40.147Z</time></trkpt><trkpt lat="43.6954641" lon="11.3642587"><ele>502.3333333333333</ele><time>2026-03-29T14:03:41.146Z</time></trkpt><trkpt lat="43.6955219" lon="11.3643424"><ele>505.0</ele><time>2026-03-29T14:03:42.147Z</time></trkpt><trkpt lat="43.6955889" lon="11.3644188"><ele>507.66666666666663</ele><time>2026-03-29T14:03:43.147Z</time></trkpt><trkpt lat="43.6956585" lon="11.3644957"><ele>510.3333333333333</ele><time>2026-03-29T14:03:44.147Z</time></trkpt><trkpt lat="43.6957156" lon="11.3645949"><ele>513.0</ele><time>2026-03-29T14:03:45.147Z</time></trkpt><trkpt lat="43.6957584" lon="11.3647105"><ele>513.0</ele><time>2026-03-29T14:03:46.147Z</time></trkpt><trkpt lat="43.6958064" lon="11.3648236"><ele>513.0</ele><time>2026-03-29T14:03:47.147Z</time></trkpt><trkpt lat="43.6958627" lon="11.3649259"><ele>513.0</ele><time>2026-03-29T14:03:48.147Z</time></trkpt><trkpt lat="43.6959242" lon="11.3650409"><ele>513.0</ele><time>2026-03-29T14:03:49.147Z</time></trkpt><trkpt lat="43.6959646" lon="11.365146"><ele>513.0</ele><time>2026-03-29T14:03:50.147Z</time></trkpt><trkpt lat="43.6959968" lon="11.3652457"><ele>513.0</ele><time>2026-03-29T14:03:51.147Z</time></trkpt><trkpt lat="43.6960071" lon="11.3653358"><ele>513.0</ele><time>2026-03-29T14:03:52.147Z</time></trkpt><trkpt lat="43.6959881" lon="11.3654976"><ele>513.0</ele><time>2026-03-29T14:03:54.147Z</time></trkpt><trkpt lat="43.69596" lon="11.3656125"><ele>513.0</ele><time>2026-03-29T14:03:55.147Z</time></trkpt><trkpt lat="43.6959383" lon="11.3657705"><ele>513.0</ele><time>2026-03-29T14:03:56.147Z</time></trkpt><trkpt lat="43.695912" lon="11.3659299"><ele>513.3333333333334</ele><time>2026-03-29T14:03:57.147Z</time></trkpt><trkpt lat="43.6958869" lon="11.3660603"><ele>513.6666666666666</ele><time>2026-03-29T14:03:58.147Z</time></trkpt><trkpt lat="43.695862" lon="11.366168"><ele>514.0</ele><time>2026-03-29T14:03:59.146Z</time></trkpt><trkpt lat="43.69583" lon="11.3662543"><ele>514.3333333333333</ele><time>2026-03-29T14:04:00.147Z</time></trkpt><trkpt lat="43.6957859" lon="11.3663256"><ele>514.6666666666666</ele><time>2026-03-29T14:04:01.147Z</time></trkpt><trkpt lat="43.6957303" lon="11.3663896"><ele>515.0</ele><time>2026-03-29T14:04:02.147Z</time></trkpt><trkpt lat="43.6956733" lon="11.366439"><ele>515.0</ele><time>2026-03-29T14:04:03.147Z</time></trkpt><trkpt lat="43.6955724" lon="11.3665125"><ele>515.0</ele><time>2026-03-29T14:04:05.147Z</time></trkpt><trkpt lat="43.6954687" lon="11.366595"><ele>515.0</ele><time>2026-03-29T14:04:07.147Z</time></trkpt><trkpt lat="43.6954131" lon="11.3666431"><ele>515.0</ele><time>2026-03-29T14:04:08.147Z</time></trkpt><trkpt lat="43.6953621" lon="11.3667053"><ele>515.0</ele><time>2026-03-29T14:04:09.147Z</time></trkpt><trkpt lat="43.6952906" lon="11.3668326"><ele>515.0</ele><time>2026-03-29T14:04:11.147Z</time></trkpt><trkpt lat="43.6952636" lon="11.3669456"><ele>515.0</ele><time>2026-03-29T14:04:13.147Z</time></trkpt><trkpt lat="43.695297" lon="11.3671171"><ele>515.0</ele><time>2026-03-29T14:04:15.147Z</time></trkpt><trkpt lat="43.6953177" lon="11.3672284"><ele>515.0</ele><time>2026-03-29T14:04:16.147Z</time></trkpt><trkpt lat="43.695334" lon="11.3673373"><ele>515.0</ele><time>2026-03-29T14:04:17.147Z</time></trkpt><trkpt lat="43.6953523" lon="11.3674652"><ele>517.3333333333333</ele><time>2026-03-29T14:04:18.147Z</time></trkpt><trkpt lat="43.6953748" lon="11.367588"><ele>519.6666666666666</ele><time>2026-03-29T14:04:19.147Z</time></trkpt><trkpt lat="43.6954149" lon="11.3677206"><ele>522.0</ele><time>2026-03-29T14:04:20.147Z</time></trkpt><trkpt lat="43.6954456" lon="11.3678413"><ele>524.3333333333334</ele><time>2026-03-29T14:04:21.147Z</time></trkpt><trkpt lat="43.6954558" lon="11.3679505"><ele>526.6666666666667</ele><time>2026-03-29T14:04:22.146Z</time></trkpt><trkpt lat="43.6954636" lon="11.3680457"><ele>529.0</ele><time>2026-03-29T14:04:23.147Z</time></trkpt><trkpt lat="43.6954859" lon="11.368133"><ele>531.0</ele><time>2026-03-29T14:04:24.147Z</time></trkpt><trkpt lat="43.695507" lon="11.3682261"><ele>533.0</ele><time>2026-03-29T14:04:25.147Z</time></trkpt><trkpt lat="43.6955649" lon="11.368394"><ele>535.0</ele><time>2026-03-29T14:04:27.147Z</time></trkpt><trkpt lat="43.695604" lon="11.3685228"><ele>537.0</ele><time>2026-03-29T14:04:29.147Z</time></trkpt><trkpt lat="43.6956089" lon="11.3686349"><ele>539.0</ele><time>2026-03-29T14:04:31.147Z</time></trkpt><trkpt lat="43.6955828" lon="11.3687849"><ele>539.0</ele><time>2026-03-29T14:04:33.147Z</time></trkpt><trkpt lat="43.6955231" lon="11.3688478"><ele>539.0</ele><time>2026-03-29T14:04:35.147Z</time></trkpt><trkpt lat="43.695423" lon="11.3688466"><ele>539.0</ele><time>2026-03-29T14:04:37.147Z</time></trkpt><trkpt lat="43.6952832" lon="11.3688131"><ele>539.0</ele><time>2026-03-29T14:04:39.147Z</time></trkpt><trkpt lat="43.6951785" lon="11.368761"><ele>539.0</ele><time>2026-03-29T14:04:40.147Z</time></trkpt><trkpt lat="43.6951007" lon="11.3687116"><ele>533.5</ele><time>2026-03-29T14:04:41.147Z</time></trkpt><trkpt lat="43.6950248" lon="11.3686769"><ele>528.0</ele><time>2026-03-29T14:04:42.147Z</time></trkpt><trkpt lat="43.6949375" lon="11.3686628"><ele>522.5</ele><time>2026-03-29T14:04:43.147Z</time></trkpt><trkpt lat="43.6948467" lon="11.3686567"><ele>517.0</ele><time>2026-03-29T14:04:44.147Z</time></trkpt><trkpt lat="43.6947547" lon="11.3686701"><ele>511.49999999999994</ele><time>2026-03-29T14:04:45.147Z</time></trkpt><trkpt lat="43.6946715" lon="11.3686833"><ele>506.0</ele><time>2026-03-29T14:04:46.147Z</time></trkpt><trkpt lat="43.6946018" lon="11.3686834"><ele>506.0</ele><time>2026-03-29T14:04:47.147Z</time></trkpt><trkpt lat="43.6944973" lon="11.3687138"><ele>506.0</ele><time>2026-03-29T14:04:49.147Z</time></trkpt><trkpt lat="43.6943879" lon="11.3688073"><ele>506.0</ele><time>2026-03-29T14:04:51.147Z</time></trkpt><trkpt lat="43.6943224" lon="11.3688715"><ele>506.0</ele><time>2026-03-29T14:04:52.147Z</time></trkpt><trkpt lat="43.6942486" lon="11.3689386"><ele>506.0</ele><time>2026-03-29T14:04:53.147Z</time></trkpt><trkpt lat="43.6941696" lon="11.3690042"><ele>506.99999999999994</ele><time>2026-03-29T14:04:54.147Z</time></trkpt><trkpt lat="43.694081" lon="11.3690787"><ele>508.0</ele><time>2026-03-29T14:04:55.147Z</time></trkpt><trkpt lat="43.6939928" lon="11.3691681"><ele>509.0</ele><time>2026-03-29T14:04:56.147Z</time></trkpt><trkpt lat="43.693908" lon="11.369195"><ele>510.0</ele><time>2026-03-29T14:04:57.147Z</time></trkpt><trkpt lat="43.6938423" lon="11.3691716"><ele>510.99999999999994</ele><time>2026-03-29T14:04:58.147Z</time></trkpt><trkpt lat="43.6937665" lon="11.3691441"><ele>512.0</ele><time>2026-03-29T14:04:59.147Z</time></trkpt><trkpt lat="43.6936772" lon="11.3690946"><ele>510.8</ele><time>2026-03-29T14:05:00.147Z</time></trkpt><trkpt lat="43.6935768" lon="11.3690531"><ele>509.6</ele><time>2026-03-29T14:05:01.147Z</time></trkpt><trkpt lat="43.693488" lon="11.3690152"><ele>508.40000000000003</ele><time>2026-03-29T14:05:02.147Z</time></trkpt><trkpt lat="43.6933979" lon="11.3689912"><ele>507.20000000000005</ele><time>2026-03-29T14:05:03.147Z</time></trkpt><trkpt lat="43.6933037" lon="11.3689796"><ele>506.0</ele><time>2026-03-29T14:05:04.147Z</time></trkpt><trkpt lat="43.6932312" lon="11.368979"><ele>506.0</ele><time>2026-03-29T14:05:05.147Z</time></trkpt><trkpt lat="43.693119" lon="11.3689444"><ele>506.0</ele><time>2026-03-29T14:05:07.147Z</time></trkpt><trkpt lat="43.6930565" lon="11.3689168"><ele>506.0</ele><time>2026-03-29T14:05:08.147Z</time></trkpt><trkpt lat="43.6929443" lon="11.3688972"><ele>506.0</ele><time>2026-03-29T14:05:10.147Z</time></trkpt><trkpt lat="43.6928305" lon="11.3689375"><ele>506.0</ele><time>2026-03-29T14:05:12.147Z</time></trkpt><trkpt lat="43.6927406" lon="11.3690293"><ele>505.8</ele><time>2026-03-29T14:05:14.147Z</time></trkpt><trkpt lat="43.6926965" lon="11.369093"><ele>505.6</ele><time>2026-03-29T14:05:15.146Z</time></trkpt><trkpt lat="43.6925892" lon="11.3691532"><ele>505.4</ele><time>2026-03-29T14:05:17.147Z</time></trkpt><trkpt lat="43.6924574" lon="11.36912"><ele>505.2</ele><time>2026-03-29T14:05:19.147Z</time></trkpt><trkpt lat="43.6923817" lon="11.3690809"><ele>505.0</ele><time>2026-03-29T14:05:20.147Z</time></trkpt><trkpt lat="43.6922986" lon="11.3690264"><ele>505.00000000000006</ele><time>2026-03-29T14:05:21.147Z</time></trkpt><trkpt lat="43.6922039" lon="11.3689704"><ele>505.0</ele><time>2026-03-29T14:05:22.147Z</time></trkpt><trkpt lat="43.6921199" lon="11.3689122"><ele>505.0</ele><time>2026-03-29T14:05:23.147Z</time></trkpt><trkpt lat="43.6920524" lon="11.3688495"><ele>505.0</ele><time>2026-03-29T14:05:24.147Z</time></trkpt><trkpt lat="43.6919979" lon="11.3687738"><ele>505.00000000000006</ele><time>2026-03-29T14:05:25.147Z</time></trkpt><trkpt lat="43.6919411" lon="11.3687004"><ele>505.0</ele><time>2026-03-29T14:05:26.147Z</time></trkpt><trkpt lat="43.6918789" lon="11.3686602"><ele>501.50000000000006</ele><time>2026-03-29T14:05:27.147Z</time></trkpt><trkpt lat="43.6918079" lon="11.3686292"><ele>498.0</ele><time>2026-03-29T14:05:28.147Z</time></trkpt><trkpt lat="43.6917347" lon="11.368595"><ele>494.5</ele><time>2026-03-29T14:05:29.147Z</time></trkpt><trkpt lat="43.6916628" lon="11.3685521"><ele>491.0</ele><time>2026-03-29T14:05:30.147Z</time></trkpt><trkpt lat="43.6915883" lon="11.3685159"><ele>487.50000000000006</ele><time>2026-03-29T14:05:31.147Z</time></trkpt><trkpt lat="43.6915214" lon="11.3684772"><ele>484.0</ele><time>2026-03-29T14:05:32.147Z</time></trkpt><trkpt lat="43.6914519" lon="11.36846"><ele>484.0</ele><time>2026-03-29T14:05:33.147Z</time></trkpt><trkpt lat="43.6913439" lon="11.3684728"><ele>484.0</ele><time>2026-03-29T14:05:35.147Z</time></trkpt><trkpt lat="43.6912626" lon="11.368554"><ele>484.0</ele><time>2026-03-29T14:05:37.147Z</time></trkpt><trkpt lat="43.6912099" lon="11.3687036"><ele>484.0</ele><time>2026-03-29T14:05:39.147Z</time></trkpt><trkpt lat="43.6912082" lon="11.3688123"><ele>484.0</ele><time>2026-03-29T14:05:40.147Z</time></trkpt><trkpt lat="43.6912287" lon="11.3689664"><ele>487.00000000000006</ele><time>2026-03-29T14:05:41.147Z</time></trkpt><trkpt lat="43.6912607" lon="11.3691042"><ele>490.0</ele><time>2026-03-29T14:05:42.147Z</time></trkpt><trkpt lat="43.691287" lon="11.369228"><ele>493.0</ele><time>2026-03-29T14:05:43.147Z</time></trkpt><trkpt lat="43.6913057" lon="11.3693416"><ele>496.0</ele><time>2026-03-29T14:05:44.147Z</time></trkpt><trkpt lat="43.6913116" lon="11.3694565"><ele>499.00000000000006</ele><time>2026-03-29T14:05:45.147Z</time></trkpt><trkpt lat="43.6913067" lon="11.3695641"><ele>502.0</ele><time>2026-03-29T14:05:46.147Z</time></trkpt><trkpt lat="43.6912964" lon="11.3696534"><ele>504.20000000000005</ele><time>2026-03-29T14:05:47.147Z</time></trkpt><trkpt lat="43.6912207" lon="11.3697355"><ele>506.40000000000003</ele><time>2026-03-29T14:05:49.146Z</time></trkpt><trkpt lat="43.6911573" lon="11.369706"><ele>508.59999999999997</ele><time>2026-03-29T14:05:50.147Z</time></trkpt><trkpt lat="43.6910689" lon="11.369637"><ele>510.79999999999995</ele><time>2026-03-29T14:05:51.147Z</time></trkpt><trkpt lat="43.6909581" lon="11.3695651"><ele>513.0</ele><time>2026-03-29T14:05:52.147Z</time></trkpt><trkpt lat="43.6908414" lon="11.3694826"><ele>508.3333333333333</ele><time>2026-03-29T14:05:53.147Z</time></trkpt><trkpt lat="43.690746" lon="11.3694401"><ele>503.66666666666663</ele><time>2026-03-29T14:05:54.147Z</time></trkpt><trkpt lat="43.6906656" lon="11.3694182"><ele>499.0</ele><time>2026-03-29T14:05:55.147Z</time></trkpt><trkpt lat="43.6905858" lon="11.3694127"><ele>494.3333333333333</ele><time>2026-03-29T14:05:56.147Z</time></trkpt><trkpt lat="43.6905026" lon="11.3694175"><ele>489.66666666666663</ele><time>2026-03-29T14:05:57.147Z</time></trkpt><trkpt lat="43.6904206" lon="11.3694218"><ele>485.0</ele><time>2026-03-29T14:05:58.147Z</time></trkpt><trkpt lat="43.6903388" lon="11.3694241"><ele>485.6</ele><time>2026-03-29T14:05:59.147Z</time></trkpt><trkpt lat="43.6902545" lon="11.3694001"><ele>486.2</ele><time>2026-03-29T14:06:00.147Z</time></trkpt><trkpt lat="43.6901615" lon="11.3693333"><ele>486.79999999999995</ele><time>2026-03-29T14:06:01.147Z</time></trkpt><trkpt lat="43.6900749" lon="11.3692358"><ele>487.4</ele><time>2026-03-29T14:06:02.147Z</time></trkpt><trkpt lat="43.68998" lon="11.3691263"><ele>488.0</ele><time>2026-03-29T14:06:03.147Z</time></trkpt><trkpt lat="43.6898901" lon="11.3690258"><ele>488.0</ele><time>2026-03-29T14:06:04.147Z</time></trkpt><trkpt lat="43.6898144" lon="11.3689318"><ele>487.99999999999994</ele><time>2026-03-29T14:06:05.147Z</time></trkpt><trkpt lat="43.689721" lon="11.3688727"><ele>487.99999999999994</ele><time>2026-03-29T14:06:06.147Z</time></trkpt><trkpt lat="43.6896244" lon="11.3688255"><ele>488.0</ele><time>2026-03-29T14:06:07.147Z</time></trkpt><trkpt lat="43.6895233" lon="11.3687705"><ele>488.0</ele><time>2026-03-29T14:06:08.147Z</time></trkpt><trkpt lat="43.6894352" lon="11.3687304"><ele>484.79999999999995</ele><time>2026-03-29T14:06:09.147Z</time></trkpt><trkpt lat="43.6893348" lon="11.3687047"><ele>481.59999999999997</ele><time>2026-03-29T14:06:10.147Z</time></trkpt><trkpt lat="43.6892215" lon="11.3687022"><ele>478.40000000000003</ele><time>2026-03-29T14:06:11.147Z</time></trkpt><trkpt lat="43.6891168" lon="11.368702"><ele>475.20000000000005</ele><time>2026-03-29T14:06:12.147Z</time></trkpt><trkpt lat="43.6890122" lon="11.3687096"><ele>472.0</ele><time>2026-03-29T14:06:13.147Z</time></trkpt><trkpt lat="43.6889089" lon="11.3687231"><ele>472.0</ele><time>2026-03-29T14:06:14.147Z</time></trkpt><trkpt lat="43.6888088" lon="11.3687706"><ele>472.0</ele><time>2026-03-29T14:06:15.147Z</time></trkpt><trkpt lat="43.6887057" lon="11.368844"><ele>472.0</ele><time>2026-03-29T14:06:16.147Z</time></trkpt><trkpt lat="43.6885999" lon="11.3689379"><ele>472.0</ele><time>2026-03-29T14:06:17.147Z</time></trkpt><trkpt lat="43.688507" lon="11.3690386"><ele>475.5</ele><time>2026-03-29T14:06:18.147Z</time></trkpt><trkpt lat="43.6884153" lon="11.3691436"><ele>479.0</ele><time>2026-03-29T14:06:19.147Z</time></trkpt><trkpt lat="43.6883125" lon="11.369241"><ele>482.5</ele><time>2026-03-29T14:06:20.147Z</time></trkpt><trkpt lat="43.6882073" lon="11.3693166"><ele>486.0</ele><time>2026-03-29T14:06:21.147Z</time></trkpt><trkpt lat="43.6881129" lon="11.3693884"><ele>486.0</ele><time>2026-03-29T14:06:22.147Z</time></trkpt><trkpt lat="43.6880506" lon="11.3694541"><ele>486.0</ele><time>2026-03-29T14:06:23.147Z</time></trkpt><trkpt lat="43.6879974" lon="11.3695422"><ele>486.0</ele><time>2026-03-29T14:06:24.147Z</time></trkpt><trkpt lat="43.6879569" lon="11.3696342"><ele>486.0</ele><time>2026-03-29T14:06:25.147Z</time></trkpt><trkpt lat="43.6879208" lon="11.3697241"><ele>486.0</ele><time>2026-03-29T14:06:26.147Z</time></trkpt><trkpt lat="43.6878837" lon="11.3698091"><ele>486.0</ele><time>2026-03-29T14:06:27.147Z</time></trkpt><trkpt lat="43.6878468" lon="11.3698955"><ele>488.1666666666667</ele><time>2026-03-29T14:06:28.147Z</time></trkpt><trkpt lat="43.6878115" lon="11.3699905"><ele>490.33333333333337</ele><time>2026-03-29T14:06:29.147Z</time></trkpt><trkpt lat="43.6877755" lon="11.3700854"><ele>492.5</ele><time>2026-03-29T14:06:30.147Z</time></trkpt><trkpt lat="43.6877358" lon="11.3701795"><ele>494.6666666666667</ele><time>2026-03-29T14:06:31.147Z</time></trkpt><trkpt lat="43.6876865" lon="11.3703034"><ele>496.83333333333337</ele><time>2026-03-29T14:06:33.147Z</time></trkpt><trkpt lat="43.6876582" lon="11.3703917"><ele>499.0</ele><time>2026-03-29T14:06:35.147Z</time></trkpt><trkpt lat="43.6876579" lon="11.3704849"><ele>494.50000000000006</ele><time>2026-03-29T14:08:32.147Z</time></trkpt><trkpt lat="43.6877163" lon="11.3705344"><ele>490.0</ele><time>2026-03-29T14:08:34.147Z</time></trkpt><trkpt lat="43.6877047" lon="11.3706473"><ele>485.5</ele><time>2026-03-29T14:08:37.147Z</time></trkpt><trkpt lat="43.6876218" lon="11.3706699"><ele>481.0</ele><time>2026-03-29T14:08:39.147Z</time></trkpt><trkpt lat="43.6875509" lon="11.3706505"><ele>476.50000000000006</ele><time>2026-03-29T14:08:41.147Z</time></trkpt><trkpt lat="43.6874743" lon="11.3706345"><ele>472.0</ele><time>2026-03-29T14:08:43.147Z</time></trkpt><trkpt lat="43.6874045" lon="11.370625"><ele>472.00000000000006</ele><time>2026-03-29T14:08:45.147Z</time></trkpt><trkpt lat="43.6873341" lon="11.3706017"><ele>472.0</ele><time>2026-03-29T14:08:47.147Z</time></trkpt><trkpt lat="43.6872587" lon="11.3705689"><ele>472.0</ele><time>2026-03-29T14:08:49.147Z</time></trkpt><trkpt lat="43.6872445" lon="11.3706541"><ele>472.0</ele><time>2026-03-29T14:08:56.147Z</time></trkpt><trkpt lat="43.6872976" lon="11.3707266"><ele>472.00000000000006</ele><time>2026-03-29T14:08:58.147Z</time></trkpt><trkpt lat="43.6873521" lon="11.370799"><ele>472.0</ele><time>2026-03-29T14:09:00.147Z</time></trkpt><trkpt lat="43.687424" lon="11.3708831"><ele>472.0</ele><time>2026-03-29T14:09:02.147Z</time></trkpt><trkpt lat="43.6874936" lon="11.3709751"><ele>472.00000000000006</ele><time>2026-03-29T14:09:04.147Z</time></trkpt><trkpt lat="43.6875688" lon="11.3710711"><ele>472.00000000000006</ele><time>2026-03-29T14:09:06.147Z</time></trkpt><trkpt lat="43.6876483" lon="11.3711638"><ele>472.0</ele><time>2026-03-29T14:09:08.146Z</time></trkpt><trkpt lat="43.687716" lon="11.3712747"><ele>472.0</ele><time>2026-03-29T14:09:10.147Z</time></trkpt><trkpt lat="43.6877737" lon="11.371365"><ele>471.00000000000006</ele><time>2026-03-29T14:09:12.147Z</time></trkpt><trkpt lat="43.6878035" lon="11.3714776"><ele>470.0</ele><time>2026-03-29T14:09:14.147Z</time></trkpt><trkpt lat="43.6878136" lon="11.371599"><ele>469.0</ele><time>2026-03-29T14:09:16.147Z</time></trkpt><trkpt lat="43.687775" lon="11.3716861"><ele>468.0</ele><time>2026-03-29T14:09:18.147Z</time></trkpt><trkpt lat="43.6877093" lon="11.3717022"><ele>467.00000000000006</ele><time>2026-03-29T14:09:23.147Z</time></trkpt><trkpt lat="43.6877885" lon="11.3716683"><ele>466.0</ele><time>2026-03-29T14:09:28.147Z</time></trkpt><trkpt lat="43.6878349" lon="11.3716025"><ele>467.20000000000005</ele><time>2026-03-29T14:09:29.147Z</time></trkpt><trkpt lat="43.6878566" lon="11.371461"><ele>468.40000000000003</ele><time>2026-03-29T14:09:31.147Z</time></trkpt><trkpt lat="43.6878099" lon="11.3713022"><ele>469.6</ele><time>2026-03-29T14:09:33.147Z</time></trkpt><trkpt lat="43.6877356" lon="11.3712144"><ele>470.8</ele><time>2026-03-29T14:09:34.147Z</time></trkpt><trkpt lat="43.6876754" lon="11.3711296"><ele>472.0</ele><time>2026-03-29T14:09:35.147Z</time></trkpt><trkpt lat="43.6875862" lon="11.371028"><ele>472.0</ele><time>2026-03-29T14:09:36.147Z</time></trkpt><trkpt lat="43.6875059" lon="11.3709426"><ele>472.00000000000006</ele><time>2026-03-29T14:09:37.147Z</time></trkpt><trkpt lat="43.6874248" lon="11.3708491"><ele>472.00000000000006</ele><time>2026-03-29T14:09:38.146Z</time></trkpt><trkpt lat="43.6873547" lon="11.3707686"><ele>472.0</ele><time>2026-03-29T14:09:39.147Z</time></trkpt><trkpt lat="43.6872954" lon="11.370698"><ele>472.0</ele><time>2026-03-29T14:09:40.147Z</time></trkpt><trkpt lat="43.6872415" lon="11.3706141"><ele>472.00000000000006</ele><time>2026-03-29T14:09:42.147Z</time></trkpt><trkpt lat="43.687313" lon="11.3705931"><ele>472.0</ele><time>2026-03-29T14:09:47.147Z</time></trkpt><trkpt lat="43.6873732" lon="11.3706468"><ele>472.0</ele><time>2026-03-29T14:09:49.147Z</time></trkpt><trkpt lat="43.6874469" lon="11.3707145"><ele>472.0</ele><time>2026-03-29T14:09:51.147Z</time></trkpt><trkpt lat="43.687555" lon="11.3708224"><ele>472.00000000000006</ele><time>2026-03-29T14:09:53.147Z</time></trkpt><trkpt lat="43.6876256" lon="11.3708738"><ele>472.0</ele><time>2026-03-29T14:09:54.147Z</time></trkpt><trkpt lat="43.6877043" lon="11.3709187"><ele>476.00000000000006</ele><time>2026-03-29T14:09:55.147Z</time></trkpt><trkpt lat="43.6877812" lon="11.3709568"><ele>480.0</ele><time>2026-03-29T14:09:56.147Z</time></trkpt><trkpt lat="43.6878554" lon="11.3710042"><ele>484.0</ele><time>2026-03-29T14:09:57.147Z</time></trkpt><trkpt lat="43.6879261" lon="11.3710593"><ele>488.0</ele><time>2026-03-29T14:09:58.147Z</time></trkpt><trkpt lat="43.6879743" lon="11.3711251"><ele>492.00000000000006</ele><time>2026-03-29T14:09:59.147Z</time></trkpt><trkpt lat="43.6880281" lon="11.3712226"><ele>496.0</ele><time>2026-03-29T14:10:00.147Z</time></trkpt><trkpt lat="43.688084" lon="11.3713527"><ele>493.6</ele><time>2026-03-29T14:10:01.147Z</time></trkpt><trkpt lat="43.6881402" lon="11.3714963"><ele>491.20000000000005</ele><time>2026-03-29T14:10:02.146Z</time></trkpt><trkpt lat="43.6881995" lon="11.3716417"><ele>488.79999999999995</ele><time>2026-03-29T14:10:03.147Z</time></trkpt><trkpt lat="43.6882476" lon="11.3717807"><ele>486.4</ele><time>2026-03-29T14:10:04.147Z</time></trkpt><trkpt lat="43.6882966" lon="11.3718948"><ele>484.0</ele><time>2026-03-29T14:10:05.146Z</time></trkpt><trkpt lat="43.6883376" lon="11.3719804"><ele>484.0</ele><time>2026-03-29T14:10:06.147Z</time></trkpt><trkpt lat="43.6883288" lon="11.3721415"><ele>484.0</ele><time>2026-03-29T14:10:08.147Z</time></trkpt><trkpt lat="43.6882275" lon="11.372228"><ele>484.0</ele><time>2026-03-29T14:10:10.147Z</time></trkpt><trkpt lat="43.6881428" lon="11.3722478"><ele>484.0</ele><time>2026-03-29T14:10:11.147Z</time></trkpt><trkpt lat="43.6880221" lon="11.372248"><ele>484.0</ele><time>2026-03-29T14:10:12.147Z</time></trkpt><trkpt lat="43.6878997" lon="11.3722553"><ele>484.83333333333337</ele><time>2026-03-29T14:10:13.147Z</time></trkpt><trkpt lat="43.6878035" lon="11.3722587"><ele>485.6666666666667</ele><time>2026-03-29T14:10:14.146Z</time></trkpt><trkpt lat="43.6877362" lon="11.3722559"><ele>486.5</ele><time>2026-03-29T14:10:15.147Z</time></trkpt><trkpt lat="43.6876649" lon="11.3722653"><ele>487.33333333333337</ele><time>2026-03-29T14:10:16.147Z</time></trkpt><trkpt lat="43.6875983" lon="11.3722837"><ele>488.1666666666667</ele><time>2026-03-29T14:10:17.147Z</time></trkpt><trkpt lat="43.6875526" lon="11.3723896"><ele>489.0</ele><time>2026-03-29T14:10:19.147Z</time></trkpt><trkpt lat="43.6876183" lon="11.3725286"><ele>489.0</ele><time>2026-03-29T14:10:21.147Z</time></trkpt><trkpt lat="43.6876607" lon="11.3726024"><ele>489.00000000000006</ele><time>2026-03-29T14:10:22.147Z</time></trkpt><trkpt lat="43.6876879" lon="11.3726821"><ele>489.0</ele><time>2026-03-29T14:10:23.147Z</time></trkpt><trkpt lat="43.6877164" lon="11.3727681"><ele>489.0</ele><time>2026-03-29T14:10:24.147Z</time></trkpt><trkpt lat="43.6877544" lon="11.3728598"><ele>489.00000000000006</ele><time>2026-03-29T14:10:25.147Z</time></trkpt><trkpt lat="43.6877809" lon="11.3729453"><ele>489.0</ele><time>2026-03-29T14:10:26.147Z</time></trkpt><trkpt lat="43.6877693" lon="11.3730594"><ele>489.0</ele><time>2026-03-29T14:10:28.147Z</time></trkpt><trkpt lat="43.6876879" lon="11.3730897"><ele>488.5</ele><time>2026-03-29T14:10:30.147Z</time></trkpt><trkpt lat="43.6876156" lon="11.3730771"><ele>488.0</ele><time>2026-03-29T14:10:31.147Z</time></trkpt><trkpt lat="43.6875326" lon="11.3730788"><ele>487.5</ele><time>2026-03-29T14:10:32.147Z</time></trkpt><trkpt lat="43.6874435" lon="11.3730812"><ele>487.0</ele><time>2026-03-29T14:10:33.147Z</time></trkpt><trkpt lat="43.6873588" lon="11.3730875"><ele>486.5</ele><time>2026-03-29T14:10:34.147Z</time></trkpt><trkpt lat="43.6872614" lon="11.3730833"><ele>486.0</ele><time>2026-03-29T14:10:35.147Z</time></trkpt><trkpt lat="43.687173" lon="11.3730795"><ele>486.0</ele><time>2026-03-29T14:10:36.147Z</time></trkpt><trkpt lat="43.68709" lon="11.373075"><ele>486.0</ele><time>2026-03-29T14:10:37.147Z</time></trkpt><trkpt lat="43.687002" lon="11.3730943"><ele>486.0</ele><time>2026-03-29T14:10:38.147Z</time></trkpt><trkpt lat="43.6869181" lon="11.3731443"><ele>486.0</ele><time>2026-03-29T14:10:39.147Z</time></trkpt><trkpt lat="43.6868538" lon="11.3732263"><ele>486.0</ele><time>2026-03-29T14:10:40.147Z</time></trkpt><trkpt lat="43.6868093" lon="11.3733216"><ele>486.0</ele><time>2026-03-29T14:10:41.147Z</time></trkpt><trkpt lat="43.6867981" lon="11.3734278"><ele>486.20000000000005</ele><time>2026-03-29T14:10:42.147Z</time></trkpt><trkpt lat="43.6868112" lon="11.3735633"><ele>486.40000000000003</ele><time>2026-03-29T14:10:43.147Z</time></trkpt><trkpt lat="43.6868491" lon="11.3736845"><ele>486.6</ele><time>2026-03-29T14:10:44.147Z</time></trkpt><trkpt lat="43.6868884" lon="11.3738191"><ele>486.8</ele><time>2026-03-29T14:10:45.146Z</time></trkpt><trkpt lat="43.686931" lon="11.3739554"><ele>487.0</ele><time>2026-03-29T14:10:46.147Z</time></trkpt><trkpt lat="43.6869728" lon="11.3740918"><ele>487.0</ele><time>2026-03-29T14:10:47.147Z</time></trkpt><trkpt lat="43.6870159" lon="11.3742201"><ele>487.00000000000006</ele><time>2026-03-29T14:10:48.147Z</time></trkpt><trkpt lat="43.687063" lon="11.3743511"><ele>487.00000000000006</ele><time>2026-03-29T14:10:49.147Z</time></trkpt><trkpt lat="43.6871162" lon="11.3744828"><ele>487.0</ele><time>2026-03-29T14:10:50.147Z</time></trkpt><trkpt lat="43.6871714" lon="11.3746122"><ele>487.0</ele><time>2026-03-29T14:10:51.146Z</time></trkpt><trkpt lat="43.6872182" lon="11.3747418"><ele>485.20000000000005</ele><time>2026-03-29T14:10:52.147Z</time></trkpt><trkpt lat="43.6872494" lon="11.3748684"><ele>483.40000000000003</ele><time>2026-03-29T14:10:53.147Z</time></trkpt><trkpt lat="43.6872772" lon="11.3749997"><ele>481.59999999999997</ele><time>2026-03-29T14:10:54.147Z</time></trkpt><trkpt lat="43.6872929" lon="11.3751422"><ele>479.79999999999995</ele><time>2026-03-29T14:10:55.147Z</time></trkpt><trkpt lat="43.6873031" lon="11.3752809"><ele>478.0</ele><time>2026-03-29T14:10:56.147Z</time></trkpt><trkpt lat="43.6873103" lon="11.3753991"><ele>478.00000000000006</ele><time>2026-03-29T14:10:57.147Z</time></trkpt><trkpt lat="43.6873152" lon="11.3755052"><ele>478.0</ele><time>2026-03-29T14:10:58.147Z</time></trkpt><trkpt lat="43.6873333" lon="11.3755945"><ele>478.0</ele><time>2026-03-29T14:10:59.147Z</time></trkpt><trkpt lat="43.6873643" lon="11.3756818"><ele>478.0</ele><time>2026-03-29T14:11:00.147Z</time></trkpt><trkpt lat="43.6874098" lon="11.3757701"><ele>478.00000000000006</ele><time>2026-03-29T14:11:01.147Z</time></trkpt><trkpt lat="43.6874737" lon="11.3758488"><ele>478.0</ele><time>2026-03-29T14:11:02.147Z</time></trkpt><trkpt lat="43.6875603" lon="11.3759175"><ele>476.4</ele><time>2026-03-29T14:11:03.147Z</time></trkpt><trkpt lat="43.6876479" lon="11.375993"><ele>474.79999999999995</ele><time>2026-03-29T14:11:04.147Z</time></trkpt><trkpt lat="43.6877329" lon="11.37608"><ele>473.2</ele><time>2026-03-29T14:11:05.147Z</time></trkpt><trkpt lat="43.6878042" lon="11.3761784"><ele>471.6</ele><time>2026-03-29T14:11:06.147Z</time></trkpt><trkpt lat="43.6878681" lon="11.3762924"><ele>470.0</ele><time>2026-03-29T14:11:07.147Z</time></trkpt><trkpt lat="43.6879227" lon="11.3764222"><ele>470.0</ele><time>2026-03-29T14:11:08.147Z</time></trkpt><trkpt lat="43.6879816" lon="11.3765538"><ele>470.0</ele><time>2026-03-29T14:11:09.147Z</time></trkpt><trkpt lat="43.6880379" lon="11.376677"><ele>470.0</ele><time>2026-03-29T14:11:10.147Z</time></trkpt><trkpt lat="43.6880885" lon="11.3767809"><ele>470.0</ele><time>2026-03-29T14:11:11.147Z</time></trkpt><trkpt lat="43.6881311" lon="11.3768515"><ele>470.0</ele><time>2026-03-29T14:11:12.147Z</time></trkpt><trkpt lat="43.6881694" lon="11.3769573"><ele>469.99999999999994</ele><time>2026-03-29T14:11:14.147Z</time></trkpt><trkpt lat="43.6881761" lon="11.3770905"><ele>470.0</ele><time>2026-03-29T14:11:16.147Z</time></trkpt><trkpt lat="43.6882137" lon="11.377229"><ele>470.0</ele><time>2026-03-29T14:11:18.147Z</time></trkpt><trkpt lat="43.6882534" lon="11.3772994"><ele>470.0</ele><time>2026-03-29T14:11:19.147Z</time></trkpt><trkpt lat="43.6883054" lon="11.3773532"><ele>469.99999999999994</ele><time>2026-03-29T14:11:20.147Z</time></trkpt><trkpt lat="43.6883852" lon="11.3773965"><ele>470.0</ele><time>2026-03-29T14:11:21.147Z</time></trkpt><trkpt lat="43.6884571" lon="11.3774205"><ele>470.8</ele><time>2026-03-29T14:11:22.147Z</time></trkpt><trkpt lat="43.6885387" lon="11.3774566"><ele>471.6</ele><time>2026-03-29T14:11:24.147Z</time></trkpt><trkpt lat="43.688598" lon="11.3775578"><ele>472.4</ele><time>2026-03-29T14:11:26.147Z</time></trkpt><trkpt lat="43.6885792" lon="11.3776953"><ele>473.2</ele><time>2026-03-29T14:11:28.147Z</time></trkpt><trkpt lat="43.6885222" lon="11.3777856"><ele>474.0</ele><time>2026-03-29T14:11:29.147Z</time></trkpt><trkpt lat="43.6884397" lon="11.3778763"><ele>470.2</ele><time>2026-03-29T14:11:30.147Z</time></trkpt><trkpt lat="43.6883497" lon="11.3779655"><ele>466.4</ele><time>2026-03-29T14:11:31.147Z</time></trkpt><trkpt lat="43.6882805" lon="11.3780606"><ele>462.6</ele><time>2026-03-29T14:11:32.147Z</time></trkpt><trkpt lat="43.6882016" lon="11.3781541"><ele>458.8</ele><time>2026-03-29T14:11:33.147Z</time></trkpt><trkpt lat="43.688125" lon="11.3782231"><ele>455.0</ele><time>2026-03-29T14:11:34.147Z</time></trkpt><trkpt lat="43.6880439" lon="11.3782595"><ele>455.0</ele><time>2026-03-29T14:11:35.147Z</time></trkpt><trkpt lat="43.687949" lon="11.378269"><ele>455.0</ele><time>2026-03-29T14:11:36.147Z</time></trkpt><trkpt lat="43.6878455" lon="11.3782682"><ele>455.0</ele><time>2026-03-29T14:11:37.147Z</time></trkpt><trkpt lat="43.6877379" lon="11.3782641"><ele>455.0</ele><time>2026-03-29T14:11:38.147Z</time></trkpt><trkpt lat="43.6876328" lon="11.3782721"><ele>455.0</ele><time>2026-03-29T14:11:39.147Z</time></trkpt><trkpt lat="43.6875388" lon="11.3782873"><ele>452.16666666666663</ele><time>2026-03-29T14:11:40.146Z</time></trkpt><trkpt lat="43.6874544" lon="11.3783139"><ele>449.3333333333333</ele><time>2026-03-29T14:11:41.147Z</time></trkpt><trkpt lat="43.6873584" lon="11.378372"><ele>446.5</ele><time>2026-03-29T14:11:42.147Z</time></trkpt><trkpt lat="43.6872783" lon="11.3784358"><ele>443.66666666666663</ele><time>2026-03-29T14:11:43.147Z</time></trkpt><trkpt lat="43.6872146" lon="11.378502"><ele>440.8333333333333</ele><time>2026-03-29T14:11:44.147Z</time></trkpt><trkpt lat="43.6871624" lon="11.3785716"><ele>438.0</ele><time>2026-03-29T14:11:45.147Z</time></trkpt><trkpt lat="43.687115" lon="11.3787102"><ele>438.0</ele><time>2026-03-29T14:11:47.147Z</time></trkpt><trkpt lat="43.6871221" lon="11.3788032"><ele>438.0</ele><time>2026-03-29T14:11:48.147Z</time></trkpt><trkpt lat="43.6871545" lon="11.3789181"><ele>438.0</ele><time>2026-03-29T14:11:49.147Z</time></trkpt><trkpt lat="43.6871987" lon="11.3790332"><ele>438.0</ele><time>2026-03-29T14:11:50.147Z</time></trkpt><trkpt lat="43.6872355" lon="11.3791506"><ele>438.0</ele><time>2026-03-29T14:11:51.147Z</time></trkpt><trkpt lat="43.6872439" lon="11.3792596"><ele>438.0</ele><time>2026-03-29T14:11:52.147Z</time></trkpt><trkpt lat="43.687231" lon="11.3793628"><ele>439.6666666666667</ele><time>2026-03-29T14:11:53.147Z</time></trkpt><trkpt lat="43.6872008" lon="11.3794627"><ele>441.33333333333337</ele><time>2026-03-29T14:11:54.147Z</time></trkpt><trkpt lat="43.6871686" lon="11.3795718"><ele>443.0</ele><time>2026-03-29T14:11:55.147Z</time></trkpt><trkpt lat="43.6871532" lon="11.3796781"><ele>444.6666666666667</ele><time>2026-03-29T14:11:56.147Z</time></trkpt><trkpt lat="43.6871687" lon="11.3797806"><ele>446.33333333333337</ele><time>2026-03-29T14:11:57.147Z</time></trkpt><trkpt lat="43.6872091" lon="11.3798827"><ele>448.0</ele><time>2026-03-29T14:11:58.146Z</time></trkpt><trkpt lat="43.6872606" lon="11.3799738"><ele>448.1666666666667</ele><time>2026-03-29T14:11:59.147Z</time></trkpt><trkpt lat="43.6873078" lon="11.380069"><ele>448.33333333333337</ele><time>2026-03-29T14:12:00.147Z</time></trkpt><trkpt lat="43.6873531" lon="11.380157"><ele>448.5</ele><time>2026-03-29T14:12:01.147Z</time></trkpt><trkpt lat="43.6874005" lon="11.3802472"><ele>448.66666666666663</ele><time>2026-03-29T14:12:02.147Z</time></trkpt><trkpt lat="43.6874482" lon="11.380344"><ele>448.8333333333333</ele><time>2026-03-29T14:12:03.147Z</time></trkpt><trkpt lat="43.6874965" lon="11.3804381"><ele>449.0</ele><time>2026-03-29T14:12:04.147Z</time></trkpt><trkpt lat="43.687538" lon="11.3805468"><ele>447.6</ele><time>2026-03-29T14:12:05.147Z</time></trkpt><trkpt lat="43.687583" lon="11.3806707"><ele>446.2</ele><time>2026-03-29T14:12:06.147Z</time></trkpt><trkpt lat="43.6876336" lon="11.3807909"><ele>444.80000000000007</ele><time>2026-03-29T14:12:07.147Z</time></trkpt><trkpt lat="43.6876966" lon="11.3809046"><ele>443.40000000000003</ele><time>2026-03-29T14:12:08.147Z</time></trkpt><trkpt lat="43.6877726" lon="11.381029"><ele>442.0</ele><time>2026-03-29T14:12:09.147Z</time></trkpt><trkpt lat="43.6878286" lon="11.3811465"><ele>443.8</ele><time>2026-03-29T14:12:10.147Z</time></trkpt><trkpt lat="43.6878699" lon="11.3812651"><ele>445.6</ele><time>2026-03-29T14:12:11.147Z</time></trkpt><trkpt lat="43.68791" lon="11.3813824"><ele>447.40000000000003</ele><time>2026-03-29T14:12:12.147Z</time></trkpt><trkpt lat="43.687967" lon="11.3815031"><ele>449.20000000000005</ele><time>2026-03-29T14:12:13.147Z</time></trkpt><trkpt lat="43.6880383" lon="11.3816136"><ele>451.0</ele><time>2026-03-29T14:12:14.147Z</time></trkpt><trkpt lat="43.6881137" lon="11.3817165"><ele>451.0</ele><time>2026-03-29T14:12:15.147Z</time></trkpt><trkpt lat="43.6881823" lon="11.3818114"><ele>451.0</ele><time>2026-03-29T14:12:16.147Z</time></trkpt><trkpt lat="43.6882556" lon="11.3818871"><ele>451.0</ele><time>2026-03-29T14:12:17.147Z</time></trkpt><trkpt lat="43.6883378" lon="11.3819446"><ele>451.0</ele><time>2026-03-29T14:12:18.147Z</time></trkpt><trkpt lat="43.6884121" lon="11.382018"><ele>451.0</ele><time>2026-03-29T14:12:19.146Z</time></trkpt><trkpt lat="43.6884692" lon="11.382097"><ele>449.00000000000006</ele><time>2026-03-29T14:12:20.147Z</time></trkpt><trkpt lat="43.688498" lon="11.3821867"><ele>447.0</ele><time>2026-03-29T14:12:21.147Z</time></trkpt><trkpt lat="43.6885045" lon="11.3822956"><ele>445.0</ele><time>2026-03-29T14:12:22.147Z</time></trkpt><trkpt lat="43.6884901" lon="11.3824208"><ele>443.0</ele><time>2026-03-29T14:12:23.147Z</time></trkpt><trkpt lat="43.6884776" lon="11.3825422"><ele>441.00000000000006</ele><time>2026-03-29T14:12:24.147Z</time></trkpt><trkpt lat="43.6884705" lon="11.3826419"><ele>439.0</ele><time>2026-03-29T14:12:25.146Z</time></trkpt><trkpt lat="43.6884665" lon="11.3827315"><ele>439.0</ele><time>2026-03-29T14:12:26.147Z</time></trkpt><trkpt lat="43.6884796" lon="11.3828623"><ele>439.0</ele><time>2026-03-29T14:12:28.147Z</time></trkpt><trkpt lat="43.6885145" lon="11.3829799"><ele>439.0</ele><time>2026-03-29T14:12:30.147Z</time></trkpt><trkpt lat="43.6885852" lon="11.3830949"><ele>439.0</ele><time>2026-03-29T14:12:32.147Z</time></trkpt><trkpt lat="43.6886607" lon="11.3831831"><ele>439.0</ele><time>2026-03-29T14:12:34.147Z</time></trkpt><trkpt lat="43.6887468" lon="11.3832525"><ele>437.79999999999995</ele><time>2026-03-29T14:12:36.147Z</time></trkpt><trkpt lat="43.6888215" lon="11.3833227"><ele>436.59999999999997</ele><time>2026-03-29T14:12:38.147Z</time></trkpt><trkpt lat="43.6889341" lon="11.3833604"><ele>435.4</ele><time>2026-03-29T14:12:40.147Z</time></trkpt><trkpt lat="43.6890025" lon="11.3833464"><ele>434.2</ele><time>2026-03-29T14:12:41.147Z</time></trkpt><trkpt lat="43.68907" lon="11.3833114"><ele>433.0</ele><time>2026-03-29T14:12:42.147Z</time></trkpt><trkpt lat="43.6891894" lon="11.3832585"><ele>432.99999999999994</ele><time>2026-03-29T14:12:44.147Z</time></trkpt><trkpt lat="43.6892534" lon="11.3832312"><ele>433.0</ele><time>2026-03-29T14:12:45.147Z</time></trkpt><trkpt lat="43.6893183" lon="11.3831874"><ele>433.0</ele><time>2026-03-29T14:12:46.147Z</time></trkpt><trkpt lat="43.6893815" lon="11.3831389"><ele>433.0</ele><time>2026-03-29T14:12:47.147Z</time></trkpt><trkpt lat="43.6894368" lon="11.3830782"><ele>433.0</ele><time>2026-03-29T14:12:48.147Z</time></trkpt><trkpt lat="43.6894908" lon="11.3829945"><ele>432.99999999999994</ele><time>2026-03-29T14:12:49.147Z</time></trkpt><trkpt lat="43.6895446" lon="11.382939"><ele>433.0</ele><time>2026-03-29T14:12:50.147Z</time></trkpt><trkpt lat="43.6895962" lon="11.3828832"><ele>434.0</ele><time>2026-03-29T14:12:51.147Z</time></trkpt><trkpt lat="43.6896598" lon="11.3828678"><ele>434.99999999999994</ele><time>2026-03-29T14:12:52.147Z</time></trkpt><trkpt lat="43.6897268" lon="11.382861"><ele>435.99999999999994</ele><time>2026-03-29T14:12:53.147Z</time></trkpt><trkpt lat="43.6898325" lon="11.3828942"><ele>437.0</ele><time>2026-03-29T14:12:55.147Z</time></trkpt><trkpt lat="43.6899191" lon="11.3829852"><ele>438.0</ele><time>2026-03-29T14:12:57.147Z</time></trkpt><trkpt lat="43.6899517" lon="11.3831457"><ele>438.0</ele><time>2026-03-29T14:12:59.147Z</time></trkpt><trkpt lat="43.689976" lon="11.3833267"><ele>437.99999999999994</ele><time>2026-03-29T14:13:01.147Z</time></trkpt><trkpt lat="43.689994" lon="11.3834307"><ele>437.99999999999994</ele><time>2026-03-29T14:13:02.147Z</time></trkpt><trkpt lat="43.6900188" lon="11.3835423"><ele>438.0</ele><time>2026-03-29T14:13:03.147Z</time></trkpt><trkpt lat="43.6900439" lon="11.3836626"><ele>438.0</ele><time>2026-03-29T14:13:04.147Z</time></trkpt><trkpt lat="43.6900753" lon="11.3837761"><ele>439.3333333333333</ele><time>2026-03-29T14:13:05.147Z</time></trkpt><trkpt lat="43.690112" lon="11.383874"><ele>440.66666666666663</ele><time>2026-03-29T14:13:06.147Z</time></trkpt><trkpt lat="43.6901925" lon="11.3840066"><ele>442.0</ele><time>2026-03-29T14:13:08.147Z</time></trkpt><trkpt lat="43.6902514" lon="11.3840659"><ele>443.3333333333333</ele><time>2026-03-29T14:13:09.147Z</time></trkpt><trkpt lat="43.6903118" lon="11.3841114"><ele>444.66666666666663</ele><time>2026-03-29T14:13:10.147Z</time></trkpt><trkpt lat="43.6903808" lon="11.3841491"><ele>446.0</ele><time>2026-03-29T14:13:11.147Z</time></trkpt><trkpt lat="43.6904531" lon="11.3842104"><ele>445.99999999999994</ele><time>2026-03-29T14:13:12.147Z</time></trkpt><trkpt lat="43.6905256" lon="11.3842661"><ele>446.0</ele><time>2026-03-29T14:13:13.147Z</time></trkpt><trkpt lat="43.6905972" lon="11.3843094"><ele>446.0</ele><time>2026-03-29T14:13:14.147Z</time></trkpt><trkpt lat="43.6906632" lon="11.3843483"><ele>446.0</ele><time>2026-03-29T14:13:15.147Z</time></trkpt><trkpt lat="43.6907201" lon="11.3843875"><ele>445.99999999999994</ele><time>2026-03-29T14:13:16.147Z</time></trkpt><trkpt lat="43.6907627" lon="11.3844893"><ele>446.0</ele><time>2026-03-29T14:13:18.147Z</time></trkpt><trkpt lat="43.6907171" lon="11.3846644"><ele>444.20000000000005</ele><time>2026-03-29T14:13:20.147Z</time></trkpt><trkpt lat="43.6906884" lon="11.3847866"><ele>442.40000000000003</ele><time>2026-03-29T14:13:21.147Z</time></trkpt><trkpt lat="43.690643" lon="11.3849056"><ele>440.6</ele><time>2026-03-29T14:13:22.147Z</time></trkpt><trkpt lat="43.6905915" lon="11.3850121"><ele>438.8</ele><time>2026-03-29T14:13:23.147Z</time></trkpt><trkpt lat="43.6905438" lon="11.3851218"><ele>437.0</ele><time>2026-03-29T14:13:24.147Z</time></trkpt><trkpt lat="43.6905099" lon="11.3852291"><ele>436.99999999999994</ele><time>2026-03-29T14:13:25.147Z</time></trkpt><trkpt lat="43.6904687" lon="11.3853866"><ele>437.0</ele><time>2026-03-29T14:13:27.147Z</time></trkpt><trkpt lat="43.6904672" lon="11.3854888"><ele>437.0</ele><time>2026-03-29T14:13:28.147Z</time></trkpt><trkpt lat="43.6904559" lon="11.3855894"><ele>437.0</ele><time>2026-03-29T14:13:29.147Z</time></trkpt><trkpt lat="43.6904346" lon="11.3856733"><ele>436.99999999999994</ele><time>2026-03-29T14:13:30.147Z</time></trkpt><trkpt lat="43.6904002" lon="11.3857478"><ele>437.0</ele><time>2026-03-29T14:13:31.147Z</time></trkpt><trkpt lat="43.6903493" lon="11.3858681"><ele>435.49999999999994</ele><time>2026-03-29T14:13:33.147Z</time></trkpt><trkpt lat="43.6903169" lon="11.385985"><ele>434.0</ele><time>2026-03-29T14:13:35.147Z</time></trkpt><trkpt lat="43.6902775" lon="11.3860918"><ele>432.5</ele><time>2026-03-29T14:13:37.147Z</time></trkpt><trkpt lat="43.6902446" lon="11.3862054"><ele>431.0</ele><time>2026-03-29T14:13:39.147Z</time></trkpt><trkpt lat="43.690222" lon="11.3862927"><ele>429.49999999999994</ele><time>2026-03-29T14:13:41.147Z</time></trkpt><trkpt lat="43.6902259" lon="11.3863871"><ele>428.0</ele><time>2026-03-29T14:13:43.147Z</time></trkpt><trkpt lat="43.6902828" lon="11.3864783"><ele>424.49999999999994</ele><time>2026-03-29T14:13:45.147Z</time></trkpt><trkpt lat="43.6903618" lon="11.3865358"><ele>421.0</ele><time>2026-03-29T14:13:47.147Z</time></trkpt><trkpt lat="43.6904557" lon="11.38656"><ele>417.5</ele><time>2026-03-29T14:13:49.146Z</time></trkpt><trkpt lat="43.6905223" lon="11.3865494"><ele>414.0</ele><time>2026-03-29T14:13:50.147Z</time></trkpt><trkpt lat="43.6905989" lon="11.38653"><ele>410.49999999999994</ele><time>2026-03-29T14:13:51.147Z</time></trkpt><trkpt lat="43.690665" lon="11.3864857"><ele>407.0</ele><time>2026-03-29T14:13:52.147Z</time></trkpt><trkpt lat="43.6907217" lon="11.3864327"><ele>407.0</ele><time>2026-03-29T14:13:53.146Z</time></trkpt><trkpt lat="43.6908227" lon="11.3863527"><ele>407.0</ele><time>2026-03-29T14:13:55.147Z</time></trkpt><trkpt lat="43.6909398" lon="11.3863019"><ele>407.0</ele><time>2026-03-29T14:13:57.147Z</time></trkpt><trkpt lat="43.6910093" lon="11.3862664"><ele>407.0</ele><time>2026-03-29T14:13:58.147Z</time></trkpt><trkpt lat="43.6910926" lon="11.3862267"><ele>407.0</ele><time>2026-03-29T14:13:59.147Z</time></trkpt><trkpt lat="43.6911657" lon="11.386207"><ele>407.99999999999994</ele><time>2026-03-29T14:14:00.147Z</time></trkpt><trkpt lat="43.6912387" lon="11.3861836"><ele>409.0</ele><time>2026-03-29T14:14:01.147Z</time></trkpt><trkpt lat="43.691304" lon="11.3861618"><ele>410.0</ele><time>2026-03-29T14:14:02.147Z</time></trkpt><trkpt lat="43.6914189" lon="11.3861247"><ele>411.0</ele><time>2026-03-29T14:14:04.147Z</time></trkpt><trkpt lat="43.6914926" lon="11.3861058"><ele>411.99999999999994</ele><time>2026-03-29T14:14:06.147Z</time></trkpt><trkpt lat="43.6915373" lon="11.3862156"><ele>413.0</ele><time>2026-03-29T14:14:08.147Z</time></trkpt><trkpt lat="43.6915599" lon="11.3863952"><ele>412.99999999999994</ele><time>2026-03-29T14:14:10.147Z</time></trkpt><trkpt lat="43.6915635" lon="11.3865187"><ele>413.0</ele><time>2026-03-29T14:14:11.147Z</time></trkpt><trkpt lat="43.6915744" lon="11.3866434"><ele>413.0</ele><time>2026-03-29T14:14:12.147Z</time></trkpt><trkpt lat="43.6915986" lon="11.3867382"><ele>413.0</ele><time>2026-03-29T14:14:13.147Z</time></trkpt><trkpt lat="43.6916441" lon="11.3868187"><ele>412.99999999999994</ele><time>2026-03-29T14:14:14.147Z</time></trkpt><trkpt lat="43.6916873" lon="11.3868959"><ele>413.0</ele><time>2026-03-29T14:14:15.147Z</time></trkpt><trkpt lat="43.6917178" lon="11.3869923"><ele>412.99999999999994</ele><time>2026-03-29T14:14:16.147Z</time></trkpt><trkpt lat="43.691731" lon="11.3871148"><ele>413.0</ele><time>2026-03-29T14:14:17.147Z</time></trkpt><trkpt lat="43.6917187" lon="11.3872243"><ele>413.0</ele><time>2026-03-29T14:14:18.147Z</time></trkpt><trkpt lat="43.6916734" lon="11.3873356"><ele>413.0</ele><time>2026-03-29T14:14:19.147Z</time></trkpt><trkpt lat="43.6916088" lon="11.3874347"><ele>412.99999999999994</ele><time>2026-03-29T14:14:20.147Z</time></trkpt><trkpt lat="43.691559" lon="11.3875289"><ele>413.0</ele><time>2026-03-29T14:14:21.147Z</time></trkpt><trkpt lat="43.6915333" lon="11.3876276"><ele>414.0</ele><time>2026-03-29T14:14:22.147Z</time></trkpt><trkpt lat="43.6915315" lon="11.3877662"><ele>415.0</ele><time>2026-03-29T14:14:23.147Z</time></trkpt><trkpt lat="43.6915101" lon="11.3879292"><ele>416.0</ele><time>2026-03-29T14:14:24.147Z</time></trkpt><trkpt lat="43.6914847" lon="11.3880692"><ele>417.0</ele><time>2026-03-29T14:14:25.147Z</time></trkpt><trkpt lat="43.6914699" lon="11.3881852"><ele>418.0</ele><time>2026-03-29T14:14:26.147Z</time></trkpt><trkpt lat="43.6914833" lon="11.3882826"><ele>418.50000000000006</ele><time>2026-03-29T14:14:27.147Z</time></trkpt><trkpt lat="43.6915213" lon="11.3883706"><ele>419.0</ele><time>2026-03-29T14:14:28.147Z</time></trkpt><trkpt lat="43.6915646" lon="11.3884709"><ele>419.5</ele><time>2026-03-29T14:14:29.147Z</time></trkpt><trkpt lat="43.6916024" lon="11.3885583"><ele>420.0</ele><time>2026-03-29T14:14:30.147Z</time></trkpt><trkpt lat="43.6916137" lon="11.3887084"><ele>420.50000000000006</ele><time>2026-03-29T14:14:32.147Z</time></trkpt><trkpt lat="43.6915957" lon="11.3888058"><ele>421.0</ele><time>2026-03-29T14:14:33.147Z</time></trkpt><trkpt lat="43.6915884" lon="11.3889044"><ele>421.0</ele><time>2026-03-29T14:14:34.147Z</time></trkpt><trkpt lat="43.6915743" lon="11.3889931"><ele>421.0</ele><time>2026-03-29T14:14:35.147Z</time></trkpt><trkpt lat="43.6915578" lon="11.3891467"><ele>421.0</ele><time>2026-03-29T14:14:37.147Z</time></trkpt><trkpt lat="43.6915745" lon="11.3892625"><ele>421.0</ele><time>2026-03-29T14:14:39.147Z</time></trkpt><trkpt lat="43.6916105" lon="11.3893794"><ele>421.0</ele><time>2026-03-29T14:14:41.147Z</time></trkpt><trkpt lat="43.6916885" lon="11.3895078"><ele>421.00000000000006</ele><time>2026-03-29T14:14:43.147Z</time></trkpt><trkpt lat="43.6917466" lon="11.3895554"><ele>421.0</ele><time>2026-03-29T14:14:44.147Z</time></trkpt><trkpt lat="43.6918087" lon="11.3895968"><ele>421.0</ele><time>2026-03-29T14:14:45.147Z</time></trkpt><trkpt lat="43.6918835" lon="11.3896344"><ele>421.0</ele><time>2026-03-29T14:14:46.147Z</time></trkpt><trkpt lat="43.6919697" lon="11.3896673"><ele>421.00000000000006</ele><time>2026-03-29T14:14:47.147Z</time></trkpt><trkpt lat="43.6920549" lon="11.3897098"><ele>421.0</ele><time>2026-03-29T14:14:48.147Z</time></trkpt><trkpt lat="43.6921346" lon="11.3897549"><ele>419.33333333333337</ele><time>2026-03-29T14:14:49.147Z</time></trkpt><trkpt lat="43.6922046" lon="11.3898059"><ele>417.6666666666667</ele><time>2026-03-29T14:14:50.147Z</time></trkpt><trkpt lat="43.692276" lon="11.3898551"><ele>416.0</ele><time>2026-03-29T14:14:51.147Z</time></trkpt><trkpt lat="43.6923546" lon="11.389892"><ele>414.33333333333337</ele><time>2026-03-29T14:14:52.147Z</time></trkpt><trkpt lat="43.6924369" lon="11.3899116"><ele>412.6666666666667</ele><time>2026-03-29T14:14:53.147Z</time></trkpt><trkpt lat="43.6925062" lon="11.3899237"><ele>411.0</ele><time>2026-03-29T14:14:54.147Z</time></trkpt><trkpt lat="43.6926085" lon="11.3899735"><ele>411.0</ele><time>2026-03-29T14:14:56.147Z</time></trkpt><trkpt lat="43.6926808" lon="11.3900594"><ele>411.0</ele><time>2026-03-29T14:14:58.147Z</time></trkpt><trkpt lat="43.6926929" lon="11.390155"><ele>411.0</ele><time>2026-03-29T14:14:59.147Z</time></trkpt><trkpt lat="43.6926822" lon="11.3902556"><ele>411.0</ele><time>2026-03-29T14:15:00.147Z</time></trkpt><trkpt lat="43.6926385" lon="11.3903524"><ele>411.0</ele><time>2026-03-29T14:15:01.147Z</time></trkpt><trkpt lat="43.6925663" lon="11.3904489"><ele>411.0</ele><time>2026-03-29T14:15:02.146Z</time></trkpt><trkpt lat="43.69247" lon="11.390546"><ele>409.5</ele><time>2026-03-29T14:15:03.147Z</time></trkpt><trkpt lat="43.6923835" lon="11.3906594"><ele>408.0</ele><time>2026-03-29T14:15:04.147Z</time></trkpt><trkpt lat="43.6923284" lon="11.390784"><ele>406.5</ele><time>2026-03-29T14:15:05.147Z</time></trkpt><trkpt lat="43.6922744" lon="11.390936"><ele>405.0</ele><time>2026-03-29T14:15:06.147Z</time></trkpt><trkpt lat="43.6922291" lon="11.3910792"><ele>405.0</ele><time>2026-03-29T14:15:07.147Z</time></trkpt><trkpt lat="43.6921964" lon="11.3912144"><ele>405.0</ele><time>2026-03-29T14:15:08.146Z</time></trkpt><trkpt lat="43.6921723" lon="11.3913367"><ele>405.0</ele><time>2026-03-29T14:15:09.147Z</time></trkpt><trkpt lat="43.6921759" lon="11.3914575"><ele>405.0</ele><time>2026-03-29T14:15:10.147Z</time></trkpt><trkpt lat="43.6922029" lon="11.3915557"><ele>405.0</ele><time>2026-03-29T14:15:11.147Z</time></trkpt><trkpt lat="43.6922527" lon="11.3916428"><ele>405.0</ele><time>2026-03-29T14:15:12.147Z</time></trkpt><trkpt lat="43.6923178" lon="11.3917268"><ele>405.4</ele><time>2026-03-29T14:15:13.147Z</time></trkpt><trkpt lat="43.6923759" lon="11.3918011"><ele>405.8</ele><time>2026-03-29T14:15:14.147Z</time></trkpt><trkpt lat="43.6924162" lon="11.3919122"><ele>406.20000000000005</ele><time>2026-03-29T14:15:15.147Z</time></trkpt><trkpt lat="43.6924307" lon="11.3920502"><ele>406.6</ele><time>2026-03-29T14:15:16.147Z</time></trkpt><trkpt lat="43.6924327" lon="11.3922015"><ele>407.0</ele><time>2026-03-29T14:15:17.148Z</time></trkpt><trkpt lat="43.6924257" lon="11.39236"><ele>405.5</ele><time>2026-03-29T14:15:18.148Z</time></trkpt><trkpt lat="43.6924197" lon="11.3925293"><ele>404.0</ele><time>2026-03-29T14:15:19.148Z</time></trkpt><trkpt lat="43.6924065" lon="11.3926928"><ele>402.5</ele><time>2026-03-29T14:15:20.148Z</time></trkpt><trkpt lat="43.6923918" lon="11.3928439"><ele>401.0</ele><time>2026-03-29T14:15:21.147Z</time></trkpt><trkpt lat="43.692377" lon="11.3929812"><ele>399.99999999999994</ele><time>2026-03-29T14:15:22.148Z</time></trkpt><trkpt lat="43.6923501" lon="11.3931062"><ele>399.0</ele><time>2026-03-29T14:15:23.148Z</time></trkpt><trkpt lat="43.6923178" lon="11.3932013"><ele>398.0</ele><time>2026-03-29T14:15:24.148Z</time></trkpt><trkpt lat="43.6922823" lon="11.3932921"><ele>397.0</ele><time>2026-03-29T14:15:25.148Z</time></trkpt><trkpt lat="43.6922346" lon="11.3933597"><ele>395.99999999999994</ele><time>2026-03-29T14:15:26.148Z</time></trkpt><trkpt lat="43.6921671" lon="11.393434"><ele>395.0</ele><time>2026-03-29T14:15:28.148Z</time></trkpt><trkpt lat="43.6920907" lon="11.3935039"><ele>394.99999999999994</ele><time>2026-03-29T14:15:31.148Z</time></trkpt><trkpt lat="43.6920365" lon="11.3935712"><ele>395.0</ele><time>2026-03-29T14:15:33.148Z</time></trkpt><trkpt lat="43.691971" lon="11.393653"><ele>395.0</ele><time>2026-03-29T14:15:35.147Z</time></trkpt><trkpt lat="43.6918929" lon="11.3937228"><ele>395.0</ele><time>2026-03-29T14:15:37.147Z</time></trkpt><trkpt lat="43.6918357" lon="11.3938164"><ele>394.99999999999994</ele><time>2026-03-29T14:15:39.148Z</time></trkpt><trkpt lat="43.6918415" lon="11.393904"><ele>395.0</ele><time>2026-03-29T14:15:40.148Z</time></trkpt><trkpt lat="43.691869" lon="11.3939983"><ele>392.16666666666663</ele><time>2026-03-29T14:15:41.148Z</time></trkpt><trkpt lat="43.691911" lon="11.3940928"><ele>389.3333333333333</ele><time>2026-03-29T14:15:42.148Z</time></trkpt><trkpt lat="43.6919627" lon="11.394165"><ele>386.5</ele><time>2026-03-29T14:15:43.148Z</time></trkpt><trkpt lat="43.692025" lon="11.3942324"><ele>383.66666666666663</ele><time>2026-03-29T14:15:44.148Z</time></trkpt><trkpt lat="43.6920907" lon="11.3942985"><ele>380.8333333333333</ele><time>2026-03-29T14:15:45.148Z</time></trkpt><trkpt lat="43.6921587" lon="11.394359"><ele>378.0</ele><time>2026-03-29T14:15:46.148Z</time></trkpt><trkpt lat="43.6922305" lon="11.3944294"><ele>378.0</ele><time>2026-03-29T14:15:47.147Z</time></trkpt><trkpt lat="43.6923101" lon="11.3945035"><ele>378.0</ele><time>2026-03-29T14:15:48.148Z</time></trkpt><trkpt lat="43.6923904" lon="11.3945699"><ele>378.0</ele><time>2026-03-29T14:15:49.148Z</time></trkpt><trkpt lat="43.6924679" lon="11.3946375"><ele>378.0</ele><time>2026-03-29T14:15:50.148Z</time></trkpt><trkpt lat="43.6925486" lon="11.3947109"><ele>378.0</ele><time>2026-03-29T14:15:51.148Z</time></trkpt><trkpt lat="43.6926305" lon="11.3947841"><ele>372.0</ele><time>2026-03-29T14:15:52.148Z</time></trkpt><trkpt lat="43.6927193" lon="11.3948652"><ele>366.0</ele><time>2026-03-29T14:15:53.148Z</time></trkpt><trkpt lat="43.6928136" lon="11.3949518"><ele>360.0</ele><time>2026-03-29T14:15:54.148Z</time></trkpt><trkpt lat="43.6929153" lon="11.3950497"><ele>354.0</ele><time>2026-03-29T14:15:55.148Z</time></trkpt><trkpt lat="43.6930301" lon="11.3951451"><ele>353.75</ele><time>2026-03-29T14:15:56.148Z</time></trkpt><trkpt lat="43.6931412" lon="11.3952409"><ele>353.5</ele><time>2026-03-29T14:15:57.148Z</time></trkpt><trkpt lat="43.6932504" lon="11.3953433"><ele>353.25</ele><time>2026-03-29T14:15:58.148Z</time></trkpt><trkpt lat="43.6933509" lon="11.3954324"><ele>353.0</ele><time>2026-03-29T14:15:59.148Z</time></trkpt><trkpt lat="43.6934433" lon="11.3955027"><ele>352.6666666666667</ele><time>2026-03-29T14:16:00.148Z</time></trkpt><trkpt lat="43.6935291" lon="11.3955412"><ele>352.33333333333337</ele><time>2026-03-29T14:16:01.148Z</time></trkpt><trkpt lat="43.6936034" lon="11.3955666"><ele>352.0</ele><time>2026-03-29T14:16:02.148Z</time></trkpt><trkpt lat="43.6936828" lon="11.3955647"><ele>351.6666666666667</ele><time>2026-03-29T14:16:03.148Z</time></trkpt><trkpt lat="43.6937683" lon="11.3955486"><ele>351.3333333333333</ele><time>2026-03-29T14:16:04.147Z</time></trkpt><trkpt lat="43.6938416" lon="11.3954947"><ele>351.0</ele><time>2026-03-29T14:16:05.148Z</time></trkpt><trkpt lat="43.6939096" lon="11.3954347"><ele>351.0</ele><time>2026-03-29T14:16:06.148Z</time></trkpt><trkpt lat="43.6939691" lon="11.3953818"><ele>351.0</ele><time>2026-03-29T14:16:07.148Z</time></trkpt><trkpt lat="43.6940357" lon="11.3953504"><ele>351.0</ele><time>2026-03-29T14:16:08.148Z</time></trkpt><trkpt lat="43.6941436" lon="11.3954033"><ele>351.0</ele><time>2026-03-29T14:16:10.147Z</time></trkpt><trkpt lat="43.6941991" lon="11.3954827"><ele>351.0</ele><time>2026-03-29T14:16:11.148Z</time></trkpt><trkpt lat="43.6942377" lon="11.3955715"><ele>351.0</ele><time>2026-03-29T14:16:12.148Z</time></trkpt><trkpt lat="43.6942433" lon="11.3956744"><ele>349.1666666666667</ele><time>2026-03-29T14:16:13.148Z</time></trkpt><trkpt lat="43.6942439" lon="11.3957853"><ele>347.3333333333333</ele><time>2026-03-29T14:16:14.148Z</time></trkpt><trkpt lat="43.6942285" lon="11.3959022"><ele>345.5</ele><time>2026-03-29T14:16:15.148Z</time></trkpt><trkpt lat="43.6942209" lon="11.3960089"><ele>343.66666666666663</ele><time>2026-03-29T14:16:16.148Z</time></trkpt><trkpt lat="43.6942238" lon="11.3961713"><ele>341.8333333333333</ele><time>2026-03-29T14:16:18.148Z</time></trkpt><trkpt lat="43.6942328" lon="11.3962844"><ele>340.0</ele><time>2026-03-29T14:16:20.148Z</time></trkpt><trkpt lat="43.6942265" lon="11.396417"><ele>339.14285714285717</ele><time>2026-03-29T14:16:22.148Z</time></trkpt><trkpt lat="43.6942351" lon="11.3965478"><ele>338.2857142857143</ele><time>2026-03-29T14:16:24.148Z</time></trkpt><trkpt lat="43.6942835" lon="11.3966125"><ele>337.42857142857144</ele><time>2026-03-29T14:16:25.148Z</time></trkpt><trkpt lat="43.6943505" lon="11.3966622"><ele>336.57142857142856</ele><time>2026-03-29T14:16:26.148Z</time></trkpt><trkpt lat="43.6944102" lon="11.396696"><ele>335.7142857142857</ele><time>2026-03-29T14:16:27.148Z</time></trkpt><trkpt lat="43.6944764" lon="11.3967221"><ele>334.85714285714283</ele><time>2026-03-29T14:16:28.148Z</time></trkpt><trkpt lat="43.6945433" lon="11.3967442"><ele>334.0</ele><time>2026-03-29T14:16:29.147Z</time></trkpt><trkpt lat="43.6946071" lon="11.3967807"><ele>333.79999999999995</ele><time>2026-03-29T14:16:30.148Z</time></trkpt><trkpt lat="43.6946742" lon="11.396853"><ele>333.59999999999997</ele><time>2026-03-29T14:16:31.148Z</time></trkpt><trkpt lat="43.6947532" lon="11.3969245"><ele>333.4</ele><time>2026-03-29T14:16:32.148Z</time></trkpt><trkpt lat="43.6948437" lon="11.3970101"><ele>333.2</ele><time>2026-03-29T14:16:33.148Z</time></trkpt><trkpt lat="43.6949492" lon="11.3970961"><ele>333.0</ele><time>2026-03-29T14:16:34.148Z</time></trkpt><trkpt lat="43.6950723" lon="11.397185"><ele>333.0</ele><time>2026-03-29T14:16:35.148Z</time></trkpt><trkpt lat="43.6952056" lon="11.3972659"><ele>333.0</ele><time>2026-03-29T14:16:36.148Z</time></trkpt><trkpt lat="43.6953419" lon="11.3973473"><ele>333.0</ele><time>2026-03-29T14:16:37.148Z</time></trkpt><trkpt lat="43.6954713" lon="11.3974345"><ele>333.0</ele><time>2026-03-29T14:16:38.148Z</time></trkpt><trkpt lat="43.6955945" lon="11.3975193"><ele>336.0</ele><time>2026-03-29T14:16:39.148Z</time></trkpt><trkpt lat="43.6957046" lon="11.3975988"><ele>339.0</ele><time>2026-03-29T14:16:40.148Z</time></trkpt><trkpt lat="43.6958022" lon="11.3976708"><ele>342.0</ele><time>2026-03-29T14:16:41.148Z</time></trkpt><trkpt lat="43.6958868" lon="11.3977212"><ele>345.0</ele><time>2026-03-29T14:16:42.148Z</time></trkpt><trkpt lat="43.6959585" lon="11.3977536"><ele>348.0</ele><time>2026-03-29T14:16:43.148Z</time></trkpt><trkpt lat="43.696031" lon="11.3977617"><ele>348.1666666666667</ele><time>2026-03-29T14:16:44.148Z</time></trkpt><trkpt lat="43.6961121" lon="11.3977729"><ele>348.3333333333333</ele><time>2026-03-29T14:16:45.148Z</time></trkpt><trkpt lat="43.6961841" lon="11.3977754"><ele>348.5</ele><time>2026-03-29T14:16:46.148Z</time></trkpt><trkpt lat="43.696251" lon="11.3977385"><ele>348.66666666666663</ele><time>2026-03-29T14:16:47.148Z</time></trkpt><trkpt lat="43.6963275" lon="11.3976776"><ele>348.8333333333333</ele><time>2026-03-29T14:16:48.148Z</time></trkpt><trkpt lat="43.696401" lon="11.3976185"><ele>349.0</ele><time>2026-03-29T14:16:49.148Z</time></trkpt><trkpt lat="43.6964684" lon="11.3976026"><ele>349.0</ele><time>2026-03-29T14:16:50.148Z</time></trkpt><trkpt lat="43.6965337" lon="11.3976323"><ele>349.0</ele><time>2026-03-29T14:16:51.148Z</time></trkpt><trkpt lat="43.6966097" lon="11.3976699"><ele>349.0</ele><time>2026-03-29T14:16:52.148Z</time></trkpt><trkpt lat="43.6967043" lon="11.3977279"><ele>349.0</ele><time>2026-03-29T14:16:53.148Z</time></trkpt><trkpt lat="43.6967915" lon="11.3977891"><ele>349.0</ele><time>2026-03-29T14:16:54.148Z</time></trkpt><trkpt lat="43.6968785" lon="11.397845"><ele>349.0</ele><time>2026-03-29T14:16:55.148Z</time></trkpt><trkpt lat="43.696961" lon="11.397895"><ele>347.4</ele><time>2026-03-29T14:16:56.148Z</time></trkpt><trkpt lat="43.6970389" lon="11.3979433"><ele>345.79999999999995</ele><time>2026-03-29T14:16:57.148Z</time></trkpt><trkpt lat="43.6971395" lon="11.398004"><ele>344.20000000000005</ele><time>2026-03-29T14:16:59.148Z</time></trkpt><trkpt lat="43.6971904" lon="11.3981287"><ele>342.6</ele><time>2026-03-29T14:17:01.148Z</time></trkpt><trkpt lat="43.697197" lon="11.398217"><ele>341.0</ele><time>2026-03-29T14:17:02.148Z</time></trkpt><trkpt lat="43.6972056" lon="11.3983889"><ele>339.33333333333337</ele><time>2026-03-29T14:17:04.148Z</time></trkpt><trkpt lat="43.6972283" lon="11.3984708"><ele>337.6666666666667</ele><time>2026-03-29T14:17:05.148Z</time></trkpt><trkpt lat="43.6972658" lon="11.3985549"><ele>336.0</ele><time>2026-03-29T14:17:06.147Z</time></trkpt><trkpt lat="43.6972989" lon="11.3986334"><ele>334.3333333333333</ele><time>2026-03-29T14:17:07.148Z</time></trkpt><trkpt lat="43.6973571" lon="11.3987543"><ele>332.66666666666663</ele><time>2026-03-29T14:17:09.148Z</time></trkpt><trkpt lat="43.6974294" lon="11.3988193"><ele>331.0</ele><time>2026-03-29T14:17:11.148Z</time></trkpt><trkpt lat="43.6975304" lon="11.3988106"><ele>331.0</ele><time>2026-03-29T14:17:13.148Z</time></trkpt><trkpt lat="43.6975785" lon="11.3987473"><ele>331.0</ele><time>2026-03-29T14:17:14.148Z</time></trkpt><trkpt lat="43.6976118" lon="11.3986519"><ele>331.0</ele><time>2026-03-29T14:17:15.148Z</time></trkpt><trkpt lat="43.6976431" lon="11.3985365"><ele>331.0</ele><time>2026-03-29T14:17:16.148Z</time></trkpt><trkpt lat="43.6976696" lon="11.3984189"><ele>331.0</ele><time>2026-03-29T14:17:17.148Z</time></trkpt><trkpt lat="43.6977106" lon="11.3982904"><ele>331.0</ele><time>2026-03-29T14:17:18.148Z</time></trkpt><trkpt lat="43.697752" lon="11.3981698"><ele>328.8333333333333</ele><time>2026-03-29T14:17:19.148Z</time></trkpt><trkpt lat="43.6977945" lon="11.3980697"><ele>326.66666666666663</ele><time>2026-03-29T14:17:20.148Z</time></trkpt><trkpt lat="43.6978344" lon="11.3979989"><ele>324.5</ele><time>2026-03-29T14:17:21.148Z</time></trkpt><trkpt lat="43.6979241" lon="11.3978723"><ele>322.3333333333333</ele><time>2026-03-29T14:17:23.148Z</time></trkpt><trkpt lat="43.6979504" lon="11.3977902"><ele>320.1666666666667</ele><time>2026-03-29T14:17:24.148Z</time></trkpt><trkpt lat="43.6979701" lon="11.3976993"><ele>318.0</ele><time>2026-03-29T14:17:25.148Z</time></trkpt><trkpt lat="43.6979961" lon="11.3976148"><ele>318.0</ele><time>2026-03-29T14:17:26.148Z</time></trkpt><trkpt lat="43.6980293" lon="11.3975197"><ele>318.0</ele><time>2026-03-29T14:17:27.148Z</time></trkpt><trkpt lat="43.6980725" lon="11.3974451"><ele>318.0</ele><time>2026-03-29T14:17:28.148Z</time></trkpt><trkpt lat="43.6981151" lon="11.3973708"><ele>318.0</ele><time>2026-03-29T14:17:29.148Z</time></trkpt><trkpt lat="43.6981462" lon="11.3972852"><ele>318.0</ele><time>2026-03-29T14:17:30.148Z</time></trkpt><trkpt lat="43.69816" lon="11.3971771"><ele>318.0</ele><time>2026-03-29T14:17:31.147Z</time></trkpt><trkpt lat="43.6981772" lon="11.3970783"><ele>318.0</ele><time>2026-03-29T14:17:32.148Z</time></trkpt><trkpt lat="43.6982158" lon="11.3969988"><ele>318.0</ele><time>2026-03-29T14:17:33.148Z</time></trkpt><trkpt lat="43.698317" lon="11.3969767"><ele>318.0</ele><time>2026-03-29T14:17:35.148Z</time></trkpt><trkpt lat="43.6983845" lon="11.3970034"><ele>318.0</ele><time>2026-03-29T14:17:36.148Z</time></trkpt><trkpt lat="43.6984573" lon="11.3970862"><ele>318.0</ele><time>2026-03-29T14:17:37.148Z</time></trkpt><trkpt lat="43.6985387" lon="11.3971902"><ele>318.0</ele><time>2026-03-29T14:17:38.148Z</time></trkpt><trkpt lat="43.698642" lon="11.3972825"><ele>317.25</ele><time>2026-03-29T14:17:39.148Z</time></trkpt><trkpt lat="43.6987489" lon="11.3973715"><ele>316.5</ele><time>2026-03-29T14:17:40.148Z</time></trkpt><trkpt lat="43.6988549" lon="11.3974618"><ele>315.75</ele><time>2026-03-29T14:17:41.148Z</time></trkpt><trkpt lat="43.6989404" lon="11.3975694"><ele>315.0</ele><time>2026-03-29T14:17:42.148Z</time></trkpt><trkpt lat="43.6990228" lon="11.397682"><ele>315.0</ele><time>2026-03-29T14:17:43.148Z</time></trkpt><trkpt lat="43.6991098" lon="11.3977866"><ele>315.0</ele><time>2026-03-29T14:17:44.148Z</time></trkpt><trkpt lat="43.6991979" lon="11.3978956"><ele>315.0</ele><time>2026-03-29T14:17:45.148Z</time></trkpt><trkpt lat="43.6992725" lon="11.3980279"><ele>315.0</ele><time>2026-03-29T14:17:46.148Z</time></trkpt><trkpt lat="43.6993384" lon="11.3981482"><ele>313.0</ele><time>2026-03-29T14:17:47.148Z</time></trkpt><trkpt lat="43.6994047" lon="11.3982512"><ele>311.0</ele><time>2026-03-29T14:17:48.148Z</time></trkpt><trkpt lat="43.6994535" lon="11.398348"><ele>309.0</ele><time>2026-03-29T14:17:49.148Z</time></trkpt><trkpt lat="43.6995081" lon="11.3984132"><ele>307.0</ele><time>2026-03-29T14:17:50.148Z</time></trkpt><trkpt lat="43.6995928" lon="11.3984814"><ele>305.0</ele><time>2026-03-29T14:17:51.148Z</time></trkpt><trkpt lat="43.6996874" lon="11.3985379"><ele>305.0</ele><time>2026-03-29T14:17:52.148Z</time></trkpt><trkpt lat="43.6997773" lon="11.3985762"><ele>305.0</ele><time>2026-03-29T14:17:53.148Z</time></trkpt><trkpt lat="43.699861" lon="11.3985945"><ele>305.0</ele><time>2026-03-29T14:17:54.148Z</time></trkpt><trkpt lat="43.6999428" lon="11.3985991"><ele>305.0</ele><time>2026-03-29T14:17:55.148Z</time></trkpt><trkpt lat="43.700021" lon="11.398587"><ele>305.0</ele><time>2026-03-29T14:17:56.148Z</time></trkpt><trkpt lat="43.700093" lon="11.3985552"><ele>305.0</ele><time>2026-03-29T14:17:57.148Z</time></trkpt><trkpt lat="43.7001535" lon="11.3984982"><ele>305.0</ele><time>2026-03-29T14:17:58.148Z</time></trkpt><trkpt lat="43.7002086" lon="11.3984208"><ele>305.0</ele><time>2026-03-29T14:17:59.148Z</time></trkpt><trkpt lat="43.7002568" lon="11.3983517"><ele>305.0</ele><time>2026-03-29T14:18:00.148Z</time></trkpt><trkpt lat="43.7003769" lon="11.398297"><ele>305.0</ele><time>2026-03-29T14:18:02.148Z</time></trkpt><trkpt lat="43.7004477" lon="11.3983298"><ele>305.0</ele><time>2026-03-29T14:18:03.148Z</time></trkpt><trkpt lat="43.7005075" lon="11.3983851"><ele>305.0</ele><time>2026-03-29T14:18:04.148Z</time></trkpt><trkpt lat="43.7005566" lon="11.3984896"><ele>304.4</ele><time>2026-03-29T14:18:05.148Z</time></trkpt><trkpt lat="43.7005947" lon="11.3986282"><ele>303.8</ele><time>2026-03-29T14:18:06.148Z</time></trkpt><trkpt lat="43.7006304" lon="11.3987715"><ele>303.2</ele><time>2026-03-29T14:18:07.148Z</time></trkpt><trkpt lat="43.7006692" lon="11.398907"><ele>302.6</ele><time>2026-03-29T14:18:08.148Z</time></trkpt><trkpt lat="43.7007071" lon="11.3990283"><ele>302.0</ele><time>2026-03-29T14:18:09.148Z</time></trkpt><trkpt lat="43.7007523" lon="11.3991478"><ele>299.8</ele><time>2026-03-29T14:18:10.148Z</time></trkpt><trkpt lat="43.7008134" lon="11.3992502"><ele>297.6</ele><time>2026-03-29T14:18:11.148Z</time></trkpt><trkpt lat="43.7008905" lon="11.399347"><ele>295.40000000000003</ele><time>2026-03-29T14:18:12.148Z</time></trkpt><trkpt lat="43.7009737" lon="11.3994298"><ele>293.2</ele><time>2026-03-29T14:18:13.148Z</time></trkpt><trkpt lat="43.7010473" lon="11.3995059"><ele>291.0</ele><time>2026-03-29T14:18:14.148Z</time></trkpt><trkpt lat="43.7011218" lon="11.3995818"><ele>291.0</ele><time>2026-03-29T14:18:15.148Z</time></trkpt><trkpt lat="43.7011847" lon="11.3996501"><ele>291.0</ele><time>2026-03-29T14:18:16.148Z</time></trkpt><trkpt lat="43.7012341" lon="11.3997087"><ele>291.0</ele><time>2026-03-29T14:18:17.148Z</time></trkpt><trkpt lat="43.7013124" lon="11.3997916"><ele>291.0</ele><time>2026-03-29T14:18:19.148Z</time></trkpt><trkpt lat="43.7014128" lon="11.3998756"><ele>291.0</ele><time>2026-03-29T14:18:21.148Z</time></trkpt><trkpt lat="43.7014676" lon="11.399946"><ele>291.0</ele><time>2026-03-29T14:18:22.148Z</time></trkpt><trkpt lat="43.7015238" lon="11.4000282"><ele>288.8</ele><time>2026-03-29T14:18:23.148Z</time></trkpt><trkpt lat="43.7015837" lon="11.4001102"><ele>286.6</ele><time>2026-03-29T14:18:24.148Z</time></trkpt><trkpt lat="43.7016319" lon="11.4002078"><ele>284.4</ele><time>2026-03-29T14:18:25.148Z</time></trkpt><trkpt lat="43.7016568" lon="11.400302"><ele>282.2</ele><time>2026-03-29T14:18:26.148Z</time></trkpt><trkpt lat="43.701633" lon="11.4004604"><ele>280.0</ele><time>2026-03-29T14:18:28.148Z</time></trkpt><trkpt lat="43.7015613" lon="11.4005426"><ele>277.3333333333333</ele><time>2026-03-29T14:18:29.148Z</time></trkpt><trkpt lat="43.7014908" lon="11.400631"><ele>274.66666666666663</ele><time>2026-03-29T14:18:30.148Z</time></trkpt><trkpt lat="43.7014224" lon="11.4007269"><ele>272.0</ele><time>2026-03-29T14:18:31.148Z</time></trkpt><trkpt lat="43.7013589" lon="11.4008187"><ele>269.3333333333333</ele><time>2026-03-29T14:18:32.148Z</time></trkpt><trkpt lat="43.7013011" lon="11.4008954"><ele>266.6666666666667</ele><time>2026-03-29T14:18:33.148Z</time></trkpt><trkpt lat="43.7012561" lon="11.4009621"><ele>264.0</ele><time>2026-03-29T14:18:34.148Z</time></trkpt><trkpt lat="43.7012086" lon="11.4010291"><ele>264.0</ele><time>2026-03-29T14:18:35.147Z</time></trkpt><trkpt lat="43.7011769" lon="11.4011132"><ele>264.0</ele><time>2026-03-29T14:18:36.148Z</time></trkpt><trkpt lat="43.7011851" lon="11.4012074"><ele>264.0</ele><time>2026-03-29T14:18:37.148Z</time></trkpt><trkpt lat="43.701237" lon="11.4013163"><ele>264.0</ele><time>2026-03-29T14:18:38.148Z</time></trkpt><trkpt lat="43.7013236" lon="11.4014468"><ele>264.0</ele><time>2026-03-29T14:18:39.148Z</time></trkpt><trkpt lat="43.7014065" lon="11.4015566"><ele>263.2</ele><time>2026-03-29T14:18:40.148Z</time></trkpt><trkpt lat="43.7014795" lon="11.4016589"><ele>262.4</ele><time>2026-03-29T14:18:41.148Z</time></trkpt><trkpt lat="43.7015434" lon="11.4017643"><ele>261.6</ele><time>2026-03-29T14:18:42.148Z</time></trkpt><trkpt lat="43.701615" lon="11.4018276"><ele>260.8</ele><time>2026-03-29T14:18:43.148Z</time></trkpt><trkpt lat="43.7017075" lon="11.4018205"><ele>260.0</ele><time>2026-03-29T14:18:44.148Z</time></trkpt><trkpt lat="43.701807" lon="11.401753"><ele>260.0</ele><time>2026-03-29T14:18:45.148Z</time></trkpt><trkpt lat="43.7019105" lon="11.4016583"><ele>260.0</ele><time>2026-03-29T14:18:46.147Z</time></trkpt><trkpt lat="43.7020193" lon="11.4015829"><ele>260.0</ele><time>2026-03-29T14:18:47.148Z</time></trkpt><trkpt lat="43.7021465" lon="11.4015244"><ele>260.0</ele><time>2026-03-29T14:18:48.148Z</time></trkpt><trkpt lat="43.7022638" lon="11.4014773"><ele>259.25</ele><time>2026-03-29T14:18:49.148Z</time></trkpt><trkpt lat="43.7023734" lon="11.401431"><ele>258.5</ele><time>2026-03-29T14:18:50.148Z</time></trkpt><trkpt lat="43.7024785" lon="11.4013944"><ele>257.75</ele><time>2026-03-29T14:18:51.148Z</time></trkpt><trkpt lat="43.7025855" lon="11.4013863"><ele>257.0</ele><time>2026-03-29T14:18:52.148Z</time></trkpt><trkpt lat="43.7027087" lon="11.4014151"><ele>254.0</ele><time>2026-03-29T14:18:53.148Z</time></trkpt><trkpt lat="43.7028344" lon="11.4014831"><ele>251.0</ele><time>2026-03-29T14:18:54.148Z</time></trkpt><trkpt lat="43.7029709" lon="11.4015538"><ele>248.0</ele><time>2026-03-29T14:18:55.148Z</time></trkpt><trkpt lat="43.7031148" lon="11.4016082"><ele>245.0</ele><time>2026-03-29T14:18:56.148Z</time></trkpt><trkpt lat="43.7032528" lon="11.4016667"><ele>245.0</ele><time>2026-03-29T14:18:57.148Z</time></trkpt><trkpt lat="43.7033917" lon="11.4017264"><ele>245.0</ele><time>2026-03-29T14:18:58.148Z</time></trkpt><trkpt lat="43.7035406" lon="11.4017844"><ele>245.0</ele><time>2026-03-29T14:18:59.148Z</time></trkpt><trkpt lat="43.7036849" lon="11.4018475"><ele>243.25</ele><time>2026-03-29T14:19:00.148Z</time></trkpt><trkpt lat="43.7038216" lon="11.4019227"><ele>241.5</ele><time>2026-03-29T14:19:01.148Z</time></trkpt><trkpt lat="43.7039552" lon="11.4020004"><ele>239.75</ele><time>2026-03-29T14:19:02.148Z</time></trkpt><trkpt lat="43.7040911" lon="11.4020762"><ele>238.0</ele><time>2026-03-29T14:19:03.148Z</time></trkpt><trkpt lat="43.704221" lon="11.4021522"><ele>237.0</ele><time>2026-03-29T14:19:04.148Z</time></trkpt><trkpt lat="43.7043466" lon="11.402226"><ele>236.0</ele><time>2026-03-29T14:19:05.148Z</time></trkpt><trkpt lat="43.7044667" lon="11.4022969"><ele>235.0</ele><time>2026-03-29T14:19:06.148Z</time></trkpt><trkpt lat="43.7045714" lon="11.4023579"><ele>234.0</ele><time>2026-03-29T14:19:07.148Z</time></trkpt><trkpt lat="43.7046401" lon="11.4023968"><ele>235.5</ele><time>2026-03-29T14:19:08.148Z</time></trkpt><trkpt lat="43.7047024" lon="11.4024253"><ele>237.0</ele><time>2026-03-29T14:19:09.148Z</time></trkpt><trkpt lat="43.7047654" lon="11.4024732"><ele>238.5</ele><time>2026-03-29T14:19:10.148Z</time></trkpt><trkpt lat="43.7048366" lon="11.4025494"><ele>240.0</ele><time>2026-03-29T14:19:11.148Z</time></trkpt><trkpt lat="43.7049024" lon="11.402627"><ele>241.5</ele><time>2026-03-29T14:19:12.148Z</time></trkpt><trkpt lat="43.7049746" lon="11.4027003"><ele>243.0</ele><time>2026-03-29T14:19:13.148Z</time></trkpt><trkpt lat="43.7050468" lon="11.4027753"><ele>243.0</ele><time>2026-03-29T14:19:14.148Z</time></trkpt><trkpt lat="43.7051143" lon="11.4028371"><ele>243.0</ele><time>2026-03-29T14:19:15.148Z</time></trkpt><trkpt lat="43.7051893" lon="11.4029181"><ele>243.0</ele><time>2026-03-29T14:19:17.148Z</time></trkpt><trkpt lat="43.7052569" lon="11.4029241"><ele>243.0</ele><time>2026-03-29T14:19:21.148Z</time></trkpt><trkpt lat="43.7053473" lon="11.4029896"><ele>243.0</ele><time>2026-03-29T14:19:24.148Z</time></trkpt><trkpt lat="43.7053636" lon="11.4031145"><ele>243.0</ele><time>2026-03-29T14:19:25.148Z</time></trkpt><trkpt lat="43.7053788" lon="11.4032525"><ele>246.5</ele><time>2026-03-29T14:19:26.148Z</time></trkpt><trkpt lat="43.7053938" lon="11.4034196"><ele>250.0</ele><time>2026-03-29T14:19:27.148Z</time></trkpt><trkpt lat="43.7054186" lon="11.4035888"><ele>253.5</ele><time>2026-03-29T14:19:28.148Z</time></trkpt><trkpt lat="43.7054494" lon="11.403771"><ele>257.0</ele><time>2026-03-29T14:19:29.148Z</time></trkpt><trkpt lat="43.7054884" lon="11.4039543"><ele>258.6666666666667</ele><time>2026-03-29T14:19:30.148Z</time></trkpt><trkpt lat="43.7055495" lon="11.404146"><ele>260.3333333333333</ele><time>2026-03-29T14:19:31.148Z</time></trkpt><trkpt lat="43.7056269" lon="11.4043289"><ele>262.0</ele><time>2026-03-29T14:19:32.148Z</time></trkpt><trkpt lat="43.7057136" lon="11.4045113"><ele>263.0</ele><time>2026-03-29T14:19:33.148Z</time></trkpt><trkpt lat="43.7057879" lon="11.4046976"><ele>264.0</ele><time>2026-03-29T14:19:34.148Z</time></trkpt><trkpt lat="43.7058599" lon="11.404873"><ele>265.0</ele><time>2026-03-29T14:19:35.148Z</time></trkpt><trkpt lat="43.7059507" lon="11.4050432"><ele>265.0</ele><time>2026-03-29T14:19:36.148Z</time></trkpt><trkpt lat="43.7060623" lon="11.4051996"><ele>265.0</ele><time>2026-03-29T14:19:37.148Z</time></trkpt><trkpt lat="43.7061859" lon="11.4053486"><ele>265.0</ele><time>2026-03-29T14:19:38.148Z</time></trkpt><trkpt lat="43.7062867" lon="11.4054861"><ele>268.25</ele><time>2026-03-29T14:19:39.148Z</time></trkpt><trkpt lat="43.7063733" lon="11.4056099"><ele>271.5</ele><time>2026-03-29T14:19:40.147Z</time></trkpt><trkpt lat="43.7064598" lon="11.405728"><ele>274.75</ele><time>2026-03-29T14:19:41.148Z</time></trkpt><trkpt lat="43.7065522" lon="11.4058746"><ele>278.0</ele><time>2026-03-29T14:19:42.148Z</time></trkpt><trkpt lat="43.7066523" lon="11.4060165"><ele>278.0</ele><time>2026-03-29T14:19:43.148Z</time></trkpt><trkpt lat="43.7067664" lon="11.4061555"><ele>278.0</ele><time>2026-03-29T14:19:44.148Z</time></trkpt><trkpt lat="43.7068818" lon="11.4062762"><ele>278.0</ele><time>2026-03-29T14:19:45.148Z</time></trkpt><trkpt lat="43.7069989" lon="11.4063754"><ele>278.0</ele><time>2026-03-29T14:19:46.148Z</time></trkpt><trkpt lat="43.7071232" lon="11.4064674"><ele>277.25</ele><time>2026-03-29T14:19:47.148Z</time></trkpt><trkpt lat="43.7072509" lon="11.406554"><ele>276.5</ele><time>2026-03-29T14:19:48.148Z</time></trkpt><trkpt lat="43.7073851" lon="11.4066313"><ele>275.75</ele><time>2026-03-29T14:19:49.148Z</time></trkpt><trkpt lat="43.7075324" lon="11.4067022"><ele>275.0</ele><time>2026-03-29T14:19:50.148Z</time></trkpt><trkpt lat="43.7076952" lon="11.4067647"><ele>274.33333333333337</ele><time>2026-03-29T14:19:51.148Z</time></trkpt><trkpt lat="43.7078516" lon="11.4068102"><ele>273.6666666666667</ele><time>2026-03-29T14:19:52.148Z</time></trkpt><trkpt lat="43.7080081" lon="11.406828"><ele>273.0</ele><time>2026-03-29T14:19:53.148Z</time></trkpt><trkpt lat="43.7081695" lon="11.4068388"><ele>273.0</ele><time>2026-03-29T14:19:54.148Z</time></trkpt><trkpt lat="43.7083315" lon="11.4068413"><ele>273.0</ele><time>2026-03-29T14:19:55.148Z</time></trkpt><trkpt lat="43.7084949" lon="11.406832"><ele>273.0</ele><time>2026-03-29T14:19:56.148Z</time></trkpt><trkpt lat="43.7086508" lon="11.406827"><ele>271.25</ele><time>2026-03-29T14:19:57.147Z</time></trkpt><trkpt lat="43.7087972" lon="11.4068263"><ele>269.5</ele><time>2026-03-29T14:19:58.148Z</time></trkpt><trkpt lat="43.7089385" lon="11.4068288"><ele>267.75</ele><time>2026-03-29T14:19:59.148Z</time></trkpt><trkpt lat="43.7090766" lon="11.4068227"><ele>266.0</ele><time>2026-03-29T14:20:00.148Z</time></trkpt><trkpt lat="43.7092136" lon="11.406819"><ele>266.0</ele><time>2026-03-29T14:20:01.148Z</time></trkpt><trkpt lat="43.7093421" lon="11.4068261"><ele>266.0</ele><time>2026-03-29T14:20:02.148Z</time></trkpt><trkpt lat="43.709471" lon="11.4068526"><ele>266.0</ele><time>2026-03-29T14:20:03.148Z</time></trkpt><trkpt lat="43.709603" lon="11.406899"><ele>266.0</ele><time>2026-03-29T14:20:04.148Z</time></trkpt><trkpt lat="43.7097327" lon="11.406978"><ele>264.0</ele><time>2026-03-29T14:20:05.148Z</time></trkpt><trkpt lat="43.7098606" lon="11.4071039"><ele>262.0</ele><time>2026-03-29T14:20:06.148Z</time></trkpt><trkpt lat="43.7099599" lon="11.4072948"><ele>260.0</ele><time>2026-03-29T14:20:07.148Z</time></trkpt><trkpt lat="43.7100217" lon="11.407532"><ele>258.6666666666667</ele><time>2026-03-29T14:20:08.148Z</time></trkpt><trkpt lat="43.7100672" lon="11.4077799"><ele>257.3333333333333</ele><time>2026-03-29T14:20:09.148Z</time></trkpt><trkpt lat="43.7101044" lon="11.4080186"><ele>256.0</ele><time>2026-03-29T14:20:10.148Z</time></trkpt><trkpt lat="43.7101419" lon="11.4082456"><ele>255.75</ele><time>2026-03-29T14:20:11.148Z</time></trkpt><trkpt lat="43.7101782" lon="11.4084543"><ele>255.5</ele><time>2026-03-29T14:20:12.147Z</time></trkpt><trkpt lat="43.7102067" lon="11.4086462"><ele>255.25</ele><time>2026-03-29T14:20:13.148Z</time></trkpt><trkpt lat="43.7102316" lon="11.4088305"><ele>255.0</ele><time>2026-03-29T14:20:14.148Z</time></trkpt><trkpt lat="43.7102573" lon="11.4089912"><ele>254.6</ele><time>2026-03-29T14:20:15.148Z</time></trkpt><trkpt lat="43.7102826" lon="11.409131"><ele>254.2</ele><time>2026-03-29T14:20:16.148Z</time></trkpt><trkpt lat="43.7103038" lon="11.409256"><ele>253.8</ele><time>2026-03-29T14:20:17.148Z</time></trkpt><trkpt lat="43.7103163" lon="11.4093928"><ele>253.4</ele><time>2026-03-29T14:20:18.148Z</time></trkpt><trkpt lat="43.7103294" lon="11.4095537"><ele>253.0</ele><time>2026-03-29T14:20:19.148Z</time></trkpt><trkpt lat="43.7103384" lon="11.4097245"><ele>253.0</ele><time>2026-03-29T14:20:20.148Z</time></trkpt><trkpt lat="43.7103528" lon="11.4099172"><ele>253.0</ele><time>2026-03-29T14:20:21.148Z</time></trkpt><trkpt lat="43.7103648" lon="11.4101314"><ele>253.0</ele><time>2026-03-29T14:20:22.147Z</time></trkpt><trkpt lat="43.7103659" lon="11.410366"><ele>252.66666666666666</ele><time>2026-03-29T14:20:23.148Z</time></trkpt><trkpt lat="43.7103532" lon="11.4106183"><ele>252.33333333333331</ele><time>2026-03-29T14:20:24.148Z</time></trkpt><trkpt lat="43.7103071" lon="11.4108879"><ele>252.0</ele><time>2026-03-29T14:20:25.148Z</time></trkpt><trkpt lat="43.7102403" lon="11.4111407"><ele>252.66666666666669</ele><time>2026-03-29T14:20:26.148Z</time></trkpt><trkpt lat="43.7101465" lon="11.4113778"><ele>253.33333333333334</ele><time>2026-03-29T14:20:27.147Z</time></trkpt><trkpt lat="43.7100286" lon="11.4115989"><ele>254.0</ele><time>2026-03-29T14:20:28.148Z</time></trkpt><trkpt lat="43.7099031" lon="11.4118058"><ele>254.0</ele><time>2026-03-29T14:20:29.148Z</time></trkpt><trkpt lat="43.7097855" lon="11.4120279"><ele>254.0</ele><time>2026-03-29T14:20:30.148Z</time></trkpt><trkpt lat="43.7096811" lon="11.4122633"><ele>254.0</ele><time>2026-03-29T14:20:31.148Z</time></trkpt><trkpt lat="43.7095801" lon="11.4125015"><ele>256.6666666666667</ele><time>2026-03-29T14:20:32.148Z</time></trkpt><trkpt lat="43.7094953" lon="11.4127207"><ele>259.3333333333333</ele><time>2026-03-29T14:20:33.148Z</time></trkpt><trkpt lat="43.7094202" lon="11.4129222"><ele>262.0</ele><time>2026-03-29T14:20:34.148Z</time></trkpt><trkpt lat="43.7093443" lon="11.4131313"><ele>262.66666666666663</ele><time>2026-03-29T14:20:35.148Z</time></trkpt><trkpt lat="43.7092662" lon="11.413359"><ele>263.3333333333333</ele><time>2026-03-29T14:20:36.148Z</time></trkpt><trkpt lat="43.7091837" lon="11.4135856"><ele>264.0</ele><time>2026-03-29T14:20:37.148Z</time></trkpt><trkpt lat="43.7090743" lon="11.4138178"><ele>264.3333333333333</ele><time>2026-03-29T14:20:38.148Z</time></trkpt><trkpt lat="43.70894" lon="11.414039"><ele>264.66666666666663</ele><time>2026-03-29T14:20:39.148Z</time></trkpt><trkpt lat="43.70881" lon="11.4142719"><ele>265.0</ele><time>2026-03-29T14:20:40.148Z</time></trkpt><trkpt lat="43.7086806" lon="11.4145164"><ele>264.0</ele><time>2026-03-29T14:20:41.148Z</time></trkpt><trkpt lat="43.7085418" lon="11.4147655"><ele>263.0</ele><time>2026-03-29T14:20:42.148Z</time></trkpt><trkpt lat="43.7083987" lon="11.415014"><ele>263.0</ele><time>2026-03-29T14:20:43.148Z</time></trkpt><trkpt lat="43.7082553" lon="11.4152681"><ele>263.0</ele><time>2026-03-29T14:20:44.148Z</time></trkpt><trkpt lat="43.7081113" lon="11.4155284"><ele>264.0</ele><time>2026-03-29T14:20:45.148Z</time></trkpt><trkpt lat="43.707966" lon="11.4157845"><ele>265.0</ele><time>2026-03-29T14:20:46.148Z</time></trkpt><trkpt lat="43.7078225" lon="11.4160291"><ele>263.66666666666663</ele><time>2026-03-29T14:20:47.148Z</time></trkpt><trkpt lat="43.7076855" lon="11.4162652"><ele>262.3333333333333</ele><time>2026-03-29T14:20:48.148Z</time></trkpt><trkpt lat="43.7075562" lon="11.4165063"><ele>261.0</ele><time>2026-03-29T14:20:49.148Z</time></trkpt><trkpt lat="43.7074402" lon="11.4167604"><ele>261.0</ele><time>2026-03-29T14:20:50.148Z</time></trkpt><trkpt lat="43.7073427" lon="11.4170326"><ele>261.0</ele><time>2026-03-29T14:20:51.148Z</time></trkpt><trkpt lat="43.707262" lon="11.4173336"><ele>261.5</ele><time>2026-03-29T14:20:52.148Z</time></trkpt><trkpt lat="43.7071871" lon="11.4176428"><ele>262.0</ele><time>2026-03-29T14:20:53.148Z</time></trkpt><trkpt lat="43.7071111" lon="11.4179483"><ele>261.0</ele><time>2026-03-29T14:20:54.148Z</time></trkpt><trkpt lat="43.70704" lon="11.4182428"><ele>260.0</ele><time>2026-03-29T14:20:55.148Z</time></trkpt><trkpt lat="43.7069656" lon="11.4185439"><ele>258.5</ele><time>2026-03-29T14:20:56.148Z</time></trkpt><trkpt lat="43.7068904" lon="11.4188535"><ele>257.0</ele><time>2026-03-29T14:20:57.148Z</time></trkpt><trkpt lat="43.7068221" lon="11.4191762"><ele>257.0</ele><time>2026-03-29T14:20:58.148Z</time></trkpt><trkpt lat="43.7067615" lon="11.4195076"><ele>257.0</ele><time>2026-03-29T14:20:59.147Z</time></trkpt><trkpt lat="43.7067042" lon="11.4198329"><ele>256.6666666666667</ele><time>2026-03-29T14:21:00.148Z</time></trkpt><trkpt lat="43.7066442" lon="11.4201261"><ele>256.3333333333333</ele><time>2026-03-29T14:21:01.148Z</time></trkpt><trkpt lat="43.7065842" lon="11.4204012"><ele>256.0</ele><time>2026-03-29T14:21:02.148Z</time></trkpt><trkpt lat="43.7065345" lon="11.4206739"><ele>255.66666666666666</ele><time>2026-03-29T14:21:03.148Z</time></trkpt><trkpt lat="43.706511" lon="11.4209323"><ele>255.33333333333331</ele><time>2026-03-29T14:21:04.148Z</time></trkpt><trkpt lat="43.7065077" lon="11.4211913"><ele>255.0</ele><time>2026-03-29T14:21:05.148Z</time></trkpt><trkpt lat="43.7065306" lon="11.4214631"><ele>255.0</ele><time>2026-03-29T14:21:06.148Z</time></trkpt><trkpt lat="43.7065513" lon="11.4217434"><ele>255.0</ele><time>2026-03-29T14:21:07.148Z</time></trkpt><trkpt lat="43.7065678" lon="11.4220356"><ele>255.0</ele><time>2026-03-29T14:21:08.148Z</time></trkpt><trkpt lat="43.7066025" lon="11.4223367"><ele>254.66666666666669</ele><time>2026-03-29T14:21:09.148Z</time></trkpt><trkpt lat="43.7066694" lon="11.4226327"><ele>254.33333333333334</ele><time>2026-03-29T14:21:10.148Z</time></trkpt><trkpt lat="43.7067453" lon="11.4229046"><ele>254.0</ele><time>2026-03-29T14:21:11.148Z</time></trkpt><trkpt lat="43.7068236" lon="11.4231586"><ele>253.0</ele><time>2026-03-29T14:21:12.148Z</time></trkpt><trkpt lat="43.7068956" lon="11.4234006"><ele>252.0</ele><time>2026-03-29T14:21:13.148Z</time></trkpt><trkpt lat="43.7069512" lon="11.4236427"><ele>251.0</ele><time>2026-03-29T14:21:14.148Z</time></trkpt><trkpt lat="43.7069863" lon="11.4238941"><ele>251.0</ele><time>2026-03-29T14:21:15.148Z</time></trkpt><trkpt lat="43.7069871" lon="11.4241614"><ele>251.0</ele><time>2026-03-29T14:21:16.148Z</time></trkpt><trkpt lat="43.7069721" lon="11.4244422"><ele>251.0</ele><time>2026-03-29T14:21:17.148Z</time></trkpt><trkpt lat="43.7069471" lon="11.4247274"><ele>249.66666666666669</ele><time>2026-03-29T14:21:18.148Z</time></trkpt><trkpt lat="43.7069216" lon="11.4250094"><ele>248.33333333333331</ele><time>2026-03-29T14:21:19.148Z</time></trkpt><trkpt lat="43.7068994" lon="11.425299"><ele>247.0</ele><time>2026-03-29T14:21:20.148Z</time></trkpt><trkpt lat="43.7068707" lon="11.4255918"><ele>245.33333333333331</ele><time>2026-03-29T14:21:21.148Z</time></trkpt><trkpt lat="43.7068324" lon="11.4258653"><ele>243.66666666666669</ele><time>2026-03-29T14:21:22.148Z</time></trkpt><trkpt lat="43.7067844" lon="11.4261325"><ele>242.0</ele><time>2026-03-29T14:21:23.148Z</time></trkpt><trkpt lat="43.7067279" lon="11.4263937"><ele>240.0</ele><time>2026-03-29T14:21:24.148Z</time></trkpt><trkpt lat="43.7066718" lon="11.4266672"><ele>238.0</ele><time>2026-03-29T14:21:25.148Z</time></trkpt><trkpt lat="43.7066332" lon="11.4269646"><ele>236.0</ele><time>2026-03-29T14:21:26.148Z</time></trkpt><trkpt lat="43.7065969" lon="11.4272711"><ele>235.0</ele><time>2026-03-29T14:21:27.148Z</time></trkpt><trkpt lat="43.7065622" lon="11.4275701"><ele>234.0</ele><time>2026-03-29T14:21:28.148Z</time></trkpt><trkpt lat="43.7065405" lon="11.4278559"><ele>233.0</ele><time>2026-03-29T14:21:29.148Z</time></trkpt><trkpt lat="43.7065151" lon="11.4281159"><ele>233.0</ele><time>2026-03-29T14:21:30.148Z</time></trkpt><trkpt lat="43.7064875" lon="11.4283387"><ele>233.0</ele><time>2026-03-29T14:21:31.148Z</time></trkpt><trkpt lat="43.7064699" lon="11.428536"><ele>233.0</ele><time>2026-03-29T14:21:32.148Z</time></trkpt><trkpt lat="43.7064663" lon="11.428729"><ele>233.0</ele><time>2026-03-29T14:21:33.148Z</time></trkpt><trkpt lat="43.7064763" lon="11.4289176"><ele>233.66666666666669</ele><time>2026-03-29T14:21:34.148Z</time></trkpt><trkpt lat="43.7065091" lon="11.4291211"><ele>234.33333333333331</ele><time>2026-03-29T14:21:35.148Z</time></trkpt><trkpt lat="43.7065441" lon="11.429351"><ele>235.0</ele><time>2026-03-29T14:21:36.148Z</time></trkpt><trkpt lat="43.7065816" lon="11.4295895"><ele>235.0</ele><time>2026-03-29T14:21:37.148Z</time></trkpt><trkpt lat="43.7066204" lon="11.4298398"><ele>235.0</ele><time>2026-03-29T14:21:38.148Z</time></trkpt><trkpt lat="43.7066596" lon="11.4301017"><ele>235.0</ele><time>2026-03-29T14:21:39.148Z</time></trkpt><trkpt lat="43.7066972" lon="11.4303671"><ele>236.0</ele><time>2026-03-29T14:21:40.148Z</time></trkpt><trkpt lat="43.706732" lon="11.4306376"><ele>237.0</ele><time>2026-03-29T14:21:41.148Z</time></trkpt><trkpt lat="43.7067699" lon="11.4309108"><ele>238.0</ele><time>2026-03-29T14:21:42.148Z</time></trkpt><trkpt lat="43.706807" lon="11.4311822"><ele>238.0</ele><time>2026-03-29T14:21:43.148Z</time></trkpt><trkpt lat="43.7068521" lon="11.4314572"><ele>238.0</ele><time>2026-03-29T14:21:44.148Z</time></trkpt><trkpt lat="43.7068977" lon="11.4317187"><ele>238.0</ele><time>2026-03-29T14:21:45.148Z</time></trkpt><trkpt lat="43.7069468" lon="11.431957"><ele>235.0</ele><time>2026-03-29T14:21:46.148Z</time></trkpt><trkpt lat="43.7070088" lon="11.4321668"><ele>232.0</ele><time>2026-03-29T14:21:47.147Z</time></trkpt><trkpt lat="43.7070776" lon="11.4323777"><ele>229.0</ele><time>2026-03-29T14:21:48.148Z</time></trkpt><trkpt lat="43.7071458" lon="11.4325899"><ele>229.0</ele><time>2026-03-29T14:21:49.148Z</time></trkpt><trkpt lat="43.7072113" lon="11.4327934"><ele>229.0</ele><time>2026-03-29T14:21:50.148Z</time></trkpt><trkpt lat="43.7072806" lon="11.4329888"><ele>229.0</ele><time>2026-03-29T14:21:51.148Z</time></trkpt><trkpt lat="43.7073543" lon="11.4331945"><ele>227.66666666666666</ele><time>2026-03-29T14:21:52.148Z</time></trkpt><trkpt lat="43.7074245" lon="11.4334013"><ele>226.33333333333331</ele><time>2026-03-29T14:21:53.148Z</time></trkpt><trkpt lat="43.707493" lon="11.4335906"><ele>225.0</ele><time>2026-03-29T14:21:54.148Z</time></trkpt><trkpt lat="43.7075586" lon="11.4337788"><ele>223.5</ele><time>2026-03-29T14:21:55.148Z</time></trkpt><trkpt lat="43.7076227" lon="11.4339599"><ele>222.0</ele><time>2026-03-29T14:21:56.148Z</time></trkpt><trkpt lat="43.7076729" lon="11.4341137"><ele>220.5</ele><time>2026-03-29T14:21:57.148Z</time></trkpt><trkpt lat="43.7077099" lon="11.434254"><ele>219.0</ele><time>2026-03-29T14:21:58.148Z</time></trkpt><trkpt lat="43.7077172" lon="11.4343722"><ele>219.0</ele><time>2026-03-29T14:21:59.148Z</time></trkpt><trkpt lat="43.7076759" lon="11.4345165"><ele>219.0</ele><time>2026-03-29T14:22:00.148Z</time></trkpt><trkpt lat="43.7075793" lon="11.43466"><ele>219.0</ele><time>2026-03-29T14:22:01.147Z</time></trkpt><trkpt lat="43.7074454" lon="11.4348154"><ele>219.0</ele><time>2026-03-29T14:22:02.148Z</time></trkpt><trkpt lat="43.7072878" lon="11.4349748"><ele>218.0</ele><time>2026-03-29T14:22:03.148Z</time></trkpt><trkpt lat="43.707136" lon="11.435146"><ele>217.0</ele><time>2026-03-29T14:22:04.148Z</time></trkpt><trkpt lat="43.7069758" lon="11.4353169"><ele>216.0</ele><time>2026-03-29T14:22:05.148Z</time></trkpt><trkpt lat="43.7068307" lon="11.4354802"><ele>208.0</ele><time>2026-03-29T14:22:06.148Z</time></trkpt><trkpt lat="43.7066754" lon="11.435654"><ele>200.0</ele><time>2026-03-29T14:22:07.148Z</time></trkpt><trkpt lat="43.7065078" lon="11.4358335"><ele>192.0</ele><time>2026-03-29T14:22:08.148Z</time></trkpt><trkpt lat="43.7063305" lon="11.4360406"><ele>192.0</ele><time>2026-03-29T14:22:09.147Z</time></trkpt><trkpt lat="43.7061595" lon="11.436274"><ele>192.0</ele><time>2026-03-29T14:22:10.148Z</time></trkpt><trkpt lat="43.7060202" lon="11.4365714"><ele>189.0</ele><time>2026-03-29T14:22:11.148Z</time></trkpt><trkpt lat="43.7059021" lon="11.4368975"><ele>186.0</ele><time>2026-03-29T14:22:12.148Z</time></trkpt><trkpt lat="43.7058022" lon="11.4372094"><ele>183.0</ele><time>2026-03-29T14:22:13.148Z</time></trkpt><trkpt lat="43.7057171" lon="11.4375222"><ele>180.0</ele><time>2026-03-29T14:22:14.148Z</time></trkpt><trkpt lat="43.7056633" lon="11.437838"><ele>179.33333333333334</ele><time>2026-03-29T14:22:15.148Z</time></trkpt><trkpt lat="43.7056201" lon="11.4381277"><ele>178.66666666666669</ele><time>2026-03-29T14:22:16.148Z</time></trkpt><trkpt lat="43.7055907" lon="11.4383943"><ele>178.0</ele><time>2026-03-29T14:22:17.148Z</time></trkpt><trkpt lat="43.7055691" lon="11.438629"><ele>178.33333333333334</ele><time>2026-03-29T14:22:18.148Z</time></trkpt><trkpt lat="43.7055586" lon="11.4388623"><ele>178.66666666666666</ele><time>2026-03-29T14:22:19.148Z</time></trkpt><trkpt lat="43.7055498" lon="11.439098"><ele>179.0</ele><time>2026-03-29T14:22:20.148Z</time></trkpt><trkpt lat="43.7055428" lon="11.4393451"><ele>179.0</ele><time>2026-03-29T14:22:21.148Z</time></trkpt><trkpt lat="43.7055354" lon="11.4395932"><ele>179.0</ele><time>2026-03-29T14:22:22.148Z</time></trkpt><trkpt lat="43.7055328" lon="11.4398281"><ele>179.0</ele><time>2026-03-29T14:22:23.148Z</time></trkpt><trkpt lat="43.7055328" lon="11.4400643"><ele>178.75</ele><time>2026-03-29T14:22:24.148Z</time></trkpt><trkpt lat="43.705529" lon="11.4402931"><ele>178.5</ele><time>2026-03-29T14:22:25.147Z</time></trkpt><trkpt lat="43.7055215" lon="11.4404955"><ele>178.25</ele><time>2026-03-29T14:22:26.148Z</time></trkpt><trkpt lat="43.7055125" lon="11.4406663"><ele>178.0</ele><time>2026-03-29T14:22:27.148Z</time></trkpt><trkpt lat="43.7055062" lon="11.4408097"><ele>177.2</ele><time>2026-03-29T14:22:28.148Z</time></trkpt><trkpt lat="43.705504" lon="11.4409336"><ele>176.4</ele><time>2026-03-29T14:22:29.148Z</time></trkpt><trkpt lat="43.7055204" lon="11.4410505"><ele>175.6</ele><time>2026-03-29T14:22:30.148Z</time></trkpt><trkpt lat="43.7055741" lon="11.4411589"><ele>174.79999999999998</ele><time>2026-03-29T14:22:31.148Z</time></trkpt><trkpt lat="43.7056507" lon="11.4412415"><ele>174.0</ele><time>2026-03-29T14:22:32.147Z</time></trkpt><trkpt lat="43.7057304" lon="11.4413145"><ele>173.0</ele><time>2026-03-29T14:22:33.148Z</time></trkpt><trkpt lat="43.7057851" lon="11.4414032"><ele>172.0</ele><time>2026-03-29T14:22:34.148Z</time></trkpt><trkpt lat="43.7057764" lon="11.4415443"><ele>171.0</ele><time>2026-03-29T14:22:35.148Z</time></trkpt><trkpt lat="43.7057532" lon="11.4416977"><ele>170.0</ele><time>2026-03-29T14:22:36.148Z</time></trkpt><trkpt lat="43.7057257" lon="11.4418875"><ele>169.0</ele><time>2026-03-29T14:22:37.148Z</time></trkpt><trkpt lat="43.7056961" lon="11.4420913"><ele>167.25</ele><time>2026-03-29T14:22:38.148Z</time></trkpt><trkpt lat="43.7056678" lon="11.4422977"><ele>165.5</ele><time>2026-03-29T14:22:39.148Z</time></trkpt><trkpt lat="43.7056365" lon="11.4424945"><ele>163.75</ele><time>2026-03-29T14:22:40.148Z</time></trkpt><trkpt lat="43.7056125" lon="11.4426751"><ele>162.0</ele><time>2026-03-29T14:22:41.148Z</time></trkpt><trkpt lat="43.7055879" lon="11.4428345"><ele>160.0</ele><time>2026-03-29T14:22:42.148Z</time></trkpt><trkpt lat="43.7055508" lon="11.4429808"><ele>158.0</ele><time>2026-03-29T14:22:43.147Z</time></trkpt><trkpt lat="43.7054826" lon="11.4431149"><ele>156.0</ele><time>2026-03-29T14:22:44.148Z</time></trkpt><trkpt lat="43.705386" lon="11.4432015"><ele>154.0</ele><time>2026-03-29T14:22:45.148Z</time></trkpt><trkpt lat="43.7052536" lon="11.4432624"><ele>153.33333333333334</ele><time>2026-03-29T14:22:46.148Z</time></trkpt><trkpt lat="43.7050824" lon="11.4432827"><ele>152.66666666666666</ele><time>2026-03-29T14:22:47.148Z</time></trkpt><trkpt lat="43.7048963" lon="11.4432903"><ele>152.0</ele><time>2026-03-29T14:22:48.148Z</time></trkpt><trkpt lat="43.7047229" lon="11.4432734"><ele>152.0</ele><time>2026-03-29T14:22:49.148Z</time></trkpt><trkpt lat="43.7045747" lon="11.4432546"><ele>152.0</ele><time>2026-03-29T14:22:50.148Z</time></trkpt><trkpt lat="43.7044482" lon="11.4432369"><ele>152.0</ele><time>2026-03-29T14:22:51.148Z</time></trkpt><trkpt lat="43.7043447" lon="11.4432501"><ele>152.0</ele><time>2026-03-29T14:22:52.148Z</time></trkpt><trkpt lat="43.7042597" lon="11.4433006"><ele>149.75</ele><time>2026-03-29T14:22:53.148Z</time></trkpt><trkpt lat="43.7041936" lon="11.4434262"><ele>147.5</ele><time>2026-03-29T14:22:54.148Z</time></trkpt><trkpt lat="43.7041577" lon="11.4435636"><ele>145.25</ele><time>2026-03-29T14:22:55.148Z</time></trkpt><trkpt lat="43.7041541" lon="11.4437495"><ele>143.0</ele><time>2026-03-29T14:22:56.148Z</time></trkpt><trkpt lat="43.7041746" lon="11.4439732"><ele>142.0</ele><time>2026-03-29T14:22:57.148Z</time></trkpt><trkpt lat="43.7042049" lon="11.4442002"><ele>141.0</ele><time>2026-03-29T14:22:58.148Z</time></trkpt><trkpt lat="43.7042317" lon="11.4444405"><ele>140.0</ele><time>2026-03-29T14:22:59.148Z</time></trkpt><trkpt lat="43.7042529" lon="11.4446573"><ele>139.75</ele><time>2026-03-29T14:23:00.147Z</time></trkpt><trkpt lat="43.7042713" lon="11.444861"><ele>139.5</ele><time>2026-03-29T14:23:01.148Z</time></trkpt><trkpt lat="43.7043156" lon="11.445047"><ele>139.25</ele><time>2026-03-29T14:23:02.148Z</time></trkpt><trkpt lat="43.7043949" lon="11.4452193"><ele>139.0</ele><time>2026-03-29T14:23:03.148Z</time></trkpt><trkpt lat="43.7045122" lon="11.4453798"><ele>136.0</ele><time>2026-03-29T14:23:04.148Z</time></trkpt><trkpt lat="43.7046523" lon="11.4455241"><ele>133.0</ele><time>2026-03-29T14:23:05.148Z</time></trkpt><trkpt lat="43.7047901" lon="11.4456878"><ele>130.0</ele><time>2026-03-29T14:23:06.148Z</time></trkpt><trkpt lat="43.7049407" lon="11.4458604"><ele>130.0</ele><time>2026-03-29T14:23:07.148Z</time></trkpt><trkpt lat="43.7050913" lon="11.4460494"><ele>130.0</ele><time>2026-03-29T14:23:08.148Z</time></trkpt><trkpt lat="43.7052448" lon="11.4462398"><ele>130.0</ele><time>2026-03-29T14:23:09.148Z</time></trkpt><trkpt lat="43.7053928" lon="11.4464449"><ele>128.33333333333334</ele><time>2026-03-29T14:23:10.148Z</time></trkpt><trkpt lat="43.7055415" lon="11.4466451"><ele>126.66666666666666</ele><time>2026-03-29T14:23:11.148Z</time></trkpt><trkpt lat="43.7056758" lon="11.4468437"><ele>125.0</ele><time>2026-03-29T14:23:12.148Z</time></trkpt><trkpt lat="43.7058161" lon="11.4470443"><ele>124.66666666666666</ele><time>2026-03-29T14:23:13.148Z</time></trkpt><trkpt lat="43.7059522" lon="11.4472523"><ele>124.33333333333334</ele><time>2026-03-29T14:23:14.148Z</time></trkpt><trkpt lat="43.7060881" lon="11.4474437"><ele>124.0</ele><time>2026-03-29T14:23:15.148Z</time></trkpt><trkpt lat="43.706217" lon="11.4476283"><ele>124.0</ele><time>2026-03-29T14:23:16.148Z</time></trkpt><trkpt lat="43.7063375" lon="11.4478071"><ele>124.0</ele><time>2026-03-29T14:23:17.148Z</time></trkpt><trkpt lat="43.7064502" lon="11.4479703"><ele>124.0</ele><time>2026-03-29T14:23:18.148Z</time></trkpt><trkpt lat="43.7065584" lon="11.4481239"><ele>123.0</ele><time>2026-03-29T14:23:19.148Z</time></trkpt><trkpt lat="43.7066658" lon="11.4482803"><ele>122.0</ele><time>2026-03-29T14:23:20.148Z</time></trkpt><trkpt lat="43.7067685" lon="11.44843"><ele>121.0</ele><time>2026-03-29T14:23:21.148Z</time></trkpt><trkpt lat="43.706851" lon="11.448554"><ele>120.0</ele><time>2026-03-29T14:23:22.147Z</time></trkpt><trkpt lat="43.7069146" lon="11.4486608"><ele>119.8</ele><time>2026-03-29T14:23:23.148Z</time></trkpt><trkpt lat="43.7069639" lon="11.4487732"><ele>119.6</ele><time>2026-03-29T14:23:24.148Z</time></trkpt><trkpt lat="43.706984" lon="11.44892"><ele>119.4</ele><time>2026-03-29T14:23:25.148Z</time></trkpt><trkpt lat="43.7069906" lon="11.4490688"><ele>119.2</ele><time>2026-03-29T14:23:26.148Z</time></trkpt><trkpt lat="43.7069995" lon="11.4491866"><ele>119.0</ele><time>2026-03-29T14:23:27.148Z</time></trkpt><trkpt lat="43.7070037" lon="11.4492843"><ele>118.0</ele><time>2026-03-29T14:23:28.148Z</time></trkpt><trkpt lat="43.7069923" lon="11.4493871"><ele>117.0</ele><time>2026-03-29T14:23:31.148Z</time></trkpt><trkpt lat="43.7068913" lon="11.4494253"><ele>116.0</ele><time>2026-03-29T14:23:33.148Z</time></trkpt><trkpt lat="43.7067637" lon="11.4494075"><ele>115.0</ele><time>2026-03-29T14:23:34.148Z</time></trkpt><trkpt lat="43.7066211" lon="11.4493791"><ele>115.0</ele><time>2026-03-29T14:23:35.148Z</time></trkpt><trkpt lat="43.7064587" lon="11.4493716"><ele>115.0</ele><time>2026-03-29T14:23:36.148Z</time></trkpt><trkpt lat="43.7062857" lon="11.449373"><ele>115.0</ele><time>2026-03-29T14:23:37.148Z</time></trkpt><trkpt lat="43.7061048" lon="11.4493797"><ele>113.66666666666667</ele><time>2026-03-29T14:23:38.148Z</time></trkpt><trkpt lat="43.7059134" lon="11.4494114"><ele>112.33333333333334</ele><time>2026-03-29T14:23:39.148Z</time></trkpt><trkpt lat="43.7057155" lon="11.4494735"><ele>111.0</ele><time>2026-03-29T14:23:40.148Z</time></trkpt><trkpt lat="43.705514" lon="11.4495332"><ele>111.0</ele><time>2026-03-29T14:23:41.148Z</time></trkpt><trkpt lat="43.7053151" lon="11.4495913"><ele>111.0</ele><time>2026-03-29T14:23:42.147Z</time></trkpt><trkpt lat="43.705133" lon="11.4496383"><ele>111.0</ele><time>2026-03-29T14:23:43.148Z</time></trkpt><trkpt lat="43.7049755" lon="11.4496835"><ele>110.25</ele><time>2026-03-29T14:23:44.148Z</time></trkpt><trkpt lat="43.7048378" lon="11.4497286"><ele>109.5</ele><time>2026-03-29T14:23:45.148Z</time></trkpt><trkpt lat="43.704717" lon="11.4497573"><ele>108.75</ele><time>2026-03-29T14:23:46.148Z</time></trkpt><trkpt lat="43.7046048" lon="11.449792"><ele>108.0</ele><time>2026-03-29T14:23:47.148Z</time></trkpt><trkpt lat="43.7045009" lon="11.4498149"><ele>108.5</ele><time>2026-03-29T14:23:48.148Z</time></trkpt><trkpt lat="43.704397" lon="11.4498283"><ele>109.0</ele><time>2026-03-29T14:23:49.148Z</time></trkpt><trkpt lat="43.7042911" lon="11.4498371"><ele>109.5</ele><time>2026-03-29T14:23:50.148Z</time></trkpt><trkpt lat="43.704175" lon="11.4498403"><ele>110.0</ele><time>2026-03-29T14:23:51.148Z</time></trkpt><trkpt lat="43.7040286" lon="11.4498223"><ele>110.0</ele><time>2026-03-29T14:23:52.148Z</time></trkpt><trkpt lat="43.7038676" lon="11.4497835"><ele>110.0</ele><time>2026-03-29T14:23:53.148Z</time></trkpt><trkpt lat="43.7037045" lon="11.4497227"><ele>110.0</ele><time>2026-03-29T14:23:54.148Z</time></trkpt><trkpt lat="43.7035454" lon="11.4496597"><ele>110.66666666666666</ele><time>2026-03-29T14:23:55.148Z</time></trkpt><trkpt lat="43.7033881" lon="11.4496007"><ele>111.33333333333334</ele><time>2026-03-29T14:23:56.148Z</time></trkpt><trkpt lat="43.7032337" lon="11.4495504"><ele>112.0</ele><time>2026-03-29T14:23:57.148Z</time></trkpt><trkpt lat="43.703084" lon="11.4495082"><ele>112.0</ele><time>2026-03-29T14:23:58.148Z</time></trkpt><trkpt lat="43.7029342" lon="11.4494692"><ele>112.0</ele><time>2026-03-29T14:23:59.148Z</time></trkpt><trkpt lat="43.7027876" lon="11.4494303"><ele>112.0</ele><time>2026-03-29T14:24:00.148Z</time></trkpt><trkpt lat="43.7026573" lon="11.4493946"><ele>112.0</ele><time>2026-03-29T14:24:01.148Z</time></trkpt><trkpt lat="43.7025192" lon="11.4493575"><ele>112.0</ele><time>2026-03-29T14:24:02.148Z</time></trkpt><trkpt lat="43.7023609" lon="11.4493285"><ele>112.0</ele><time>2026-03-29T14:24:03.148Z</time></trkpt><trkpt lat="43.7021692" lon="11.4492828"><ele>112.0</ele><time>2026-03-29T14:24:04.148Z</time></trkpt><trkpt lat="43.7019739" lon="11.4492089"><ele>111.66666666666667</ele><time>2026-03-29T14:24:05.148Z</time></trkpt><trkpt lat="43.7017802" lon="11.4491283"><ele>111.33333333333334</ele><time>2026-03-29T14:24:06.148Z</time></trkpt><trkpt lat="43.7015773" lon="11.4490633"><ele>111.0</ele><time>2026-03-29T14:24:07.148Z</time></trkpt><trkpt lat="43.7013613" lon="11.4490402"><ele>111.0</ele><time>2026-03-29T14:24:08.148Z</time></trkpt><trkpt lat="43.7011402" lon="11.4490544"><ele>111.0</ele><time>2026-03-29T14:24:09.148Z</time></trkpt><trkpt lat="43.700904" lon="11.4491339"><ele>111.0</ele><time>2026-03-29T14:24:10.148Z</time></trkpt><trkpt lat="43.7006819" lon="11.449244"><ele>111.0</ele><time>2026-03-29T14:24:11.148Z</time></trkpt><trkpt lat="43.7004648" lon="11.449388"><ele>111.0</ele><time>2026-03-29T14:24:12.148Z</time></trkpt><trkpt lat="43.7002495" lon="11.4495441"><ele>111.0</ele><time>2026-03-29T14:24:13.148Z</time></trkpt><trkpt lat="43.7000331" lon="11.4496962"><ele>111.0</ele><time>2026-03-29T14:24:14.148Z</time></trkpt><trkpt lat="43.6998011" lon="11.4498285"><ele>111.0</ele><time>2026-03-29T14:24:15.148Z</time></trkpt><trkpt lat="43.6995662" lon="11.4499229"><ele>112.5</ele><time>2026-03-29T14:24:16.148Z</time></trkpt><trkpt lat="43.6993187" lon="11.4499841"><ele>114.0</ele><time>2026-03-29T14:24:17.148Z</time></trkpt><trkpt lat="43.6990678" lon="11.4500133"><ele>114.0</ele><time>2026-03-29T14:24:18.148Z</time></trkpt><trkpt lat="43.6988226" lon="11.4500024"><ele>114.0</ele><time>2026-03-29T14:24:19.148Z</time></trkpt><trkpt lat="43.6985842" lon="11.4499894"><ele>115.0</ele><time>2026-03-29T14:24:20.148Z</time></trkpt><trkpt lat="43.6983499" lon="11.4499661"><ele>116.0</ele><time>2026-03-29T14:24:21.148Z</time></trkpt><trkpt lat="43.6981203" lon="11.4499503"><ele>116.0</ele><time>2026-03-29T14:24:22.148Z</time></trkpt><trkpt lat="43.6978928" lon="11.4499775"><ele>116.0</ele><time>2026-03-29T14:24:23.148Z</time></trkpt><trkpt lat="43.6976677" lon="11.4500542"><ele>117.5</ele><time>2026-03-29T14:24:24.148Z</time></trkpt><trkpt lat="43.6974395" lon="11.4501683"><ele>119.0</ele><time>2026-03-29T14:24:25.148Z</time></trkpt><trkpt lat="43.6972173" lon="11.4503059"><ele>119.0</ele><time>2026-03-29T14:24:26.148Z</time></trkpt><trkpt lat="43.6970176" lon="11.4504498"><ele>119.0</ele><time>2026-03-29T14:24:27.148Z</time></trkpt><trkpt lat="43.6968437" lon="11.4505959"><ele>119.0</ele><time>2026-03-29T14:24:28.148Z</time></trkpt><trkpt lat="43.6966804" lon="11.4507606"><ele>118.33333333333333</ele><time>2026-03-29T14:24:29.148Z</time></trkpt><trkpt lat="43.6965131" lon="11.4509243"><ele>117.66666666666666</ele><time>2026-03-29T14:24:30.148Z</time></trkpt><trkpt lat="43.6963287" lon="11.4510603"><ele>117.0</ele><time>2026-03-29T14:24:31.148Z</time></trkpt><trkpt lat="43.6961197" lon="11.4511634"><ele>118.5</ele><time>2026-03-29T14:24:32.148Z</time></trkpt><trkpt lat="43.6958823" lon="11.4512522"><ele>120.0</ele><time>2026-03-29T14:24:33.148Z</time></trkpt><trkpt lat="43.6956434" lon="11.4513297"><ele>118.0</ele><time>2026-03-29T14:24:34.148Z</time></trkpt><trkpt lat="43.6954108" lon="11.451409"><ele>116.0</ele><time>2026-03-29T14:24:35.148Z</time></trkpt><trkpt lat="43.6951771" lon="11.4514808"><ele>116.0</ele><time>2026-03-29T14:24:36.148Z</time></trkpt><trkpt lat="43.6949472" lon="11.4515593"><ele>116.0</ele><time>2026-03-29T14:24:37.148Z</time></trkpt><trkpt lat="43.6947204" lon="11.4516366"><ele>116.0</ele><time>2026-03-29T14:24:38.147Z</time></trkpt><trkpt lat="43.6945045" lon="11.4516952"><ele>116.0</ele><time>2026-03-29T14:24:39.148Z</time></trkpt><trkpt lat="43.6942951" lon="11.4517281"><ele>116.0</ele><time>2026-03-29T14:24:40.148Z</time></trkpt><trkpt lat="43.6940793" lon="11.451718"><ele>116.0</ele><time>2026-03-29T14:24:41.148Z</time></trkpt><trkpt lat="43.6938671" lon="11.4516938"><ele>116.0</ele><time>2026-03-29T14:24:42.148Z</time></trkpt><trkpt lat="43.6936493" lon="11.4516733"><ele>116.0</ele><time>2026-03-29T14:24:43.147Z</time></trkpt><trkpt lat="43.6934281" lon="11.4516715"><ele>115.0</ele><time>2026-03-29T14:24:44.148Z</time></trkpt><trkpt lat="43.6931987" lon="11.4516884"><ele>114.0</ele><time>2026-03-29T14:24:45.148Z</time></trkpt><trkpt lat="43.6929781" lon="11.4517133"><ele>114.0</ele><time>2026-03-29T14:24:46.148Z</time></trkpt><trkpt lat="43.6927711" lon="11.4517327"><ele>114.0</ele><time>2026-03-29T14:24:47.148Z</time></trkpt><trkpt lat="43.6925718" lon="11.4517542"><ele>114.0</ele><time>2026-03-29T14:24:48.148Z</time></trkpt><trkpt lat="43.6923741" lon="11.451784"><ele>113.66666666666666</ele><time>2026-03-29T14:24:49.148Z</time></trkpt><trkpt lat="43.6921634" lon="11.4518183"><ele>113.33333333333333</ele><time>2026-03-29T14:24:50.148Z</time></trkpt><trkpt lat="43.6919322" lon="11.4518414"><ele>113.0</ele><time>2026-03-29T14:24:51.148Z</time></trkpt><trkpt lat="43.6917039" lon="11.4518865"><ele>113.0</ele><time>2026-03-29T14:24:52.147Z</time></trkpt><trkpt lat="43.6914951" lon="11.4519638"><ele>113.0</ele><time>2026-03-29T14:24:53.148Z</time></trkpt><trkpt lat="43.6913008" lon="11.4520738"><ele>113.0</ele><time>2026-03-29T14:24:54.148Z</time></trkpt><trkpt lat="43.6911331" lon="11.4521971"><ele>112.33333333333333</ele><time>2026-03-29T14:24:55.148Z</time></trkpt><trkpt lat="43.6909901" lon="11.4523211"><ele>111.66666666666666</ele><time>2026-03-29T14:24:56.148Z</time></trkpt><trkpt lat="43.6908527" lon="11.4524054"><ele>111.0</ele><time>2026-03-29T14:24:57.148Z</time></trkpt><trkpt lat="43.6907061" lon="11.4524551"><ele>111.0</ele><time>2026-03-29T14:24:58.148Z</time></trkpt><trkpt lat="43.690547" lon="11.4524304"><ele>111.0</ele><time>2026-03-29T14:24:59.148Z</time></trkpt><trkpt lat="43.6903825" lon="11.4523556"><ele>111.0</ele><time>2026-03-29T14:25:00.148Z</time></trkpt><trkpt lat="43.6902034" lon="11.4522238"><ele>111.66666666666666</ele><time>2026-03-29T14:25:01.148Z</time></trkpt><trkpt lat="43.6900418" lon="11.4520916"><ele>112.33333333333333</ele><time>2026-03-29T14:25:02.148Z</time></trkpt><trkpt lat="43.689892" lon="11.4519613"><ele>113.0</ele><time>2026-03-29T14:25:03.148Z</time></trkpt><trkpt lat="43.6897509" lon="11.4518553"><ele>113.0</ele><time>2026-03-29T14:25:04.148Z</time></trkpt><trkpt lat="43.6896263" lon="11.451754"><ele>113.0</ele><time>2026-03-29T14:25:05.148Z</time></trkpt><trkpt lat="43.6895145" lon="11.4516674"><ele>113.0</ele><time>2026-03-29T14:25:06.148Z</time></trkpt><trkpt lat="43.6894093" lon="11.4515995"><ele>113.0</ele><time>2026-03-29T14:25:07.148Z</time></trkpt><trkpt lat="43.6892871" lon="11.4515289"><ele>113.33333333333333</ele><time>2026-03-29T14:25:08.148Z</time></trkpt><trkpt lat="43.6891367" lon="11.4514385"><ele>113.66666666666666</ele><time>2026-03-29T14:25:09.148Z</time></trkpt><trkpt lat="43.6889693" lon="11.451339"><ele>114.0</ele><time>2026-03-29T14:25:10.148Z</time></trkpt><trkpt lat="43.6887807" lon="11.4512394"><ele>113.33333333333334</ele><time>2026-03-29T14:25:11.148Z</time></trkpt><trkpt lat="43.6885781" lon="11.451133"><ele>112.66666666666667</ele><time>2026-03-29T14:25:12.148Z</time></trkpt><trkpt lat="43.6883618" lon="11.4510364"><ele>112.0</ele><time>2026-03-29T14:25:13.148Z</time></trkpt><trkpt lat="43.6881383" lon="11.4509462"><ele>112.0</ele><time>2026-03-29T14:25:14.148Z</time></trkpt><trkpt lat="43.6879012" lon="11.4508813"><ele>112.0</ele><time>2026-03-29T14:25:15.148Z</time></trkpt><trkpt lat="43.6876553" lon="11.4508317"><ele>111.5</ele><time>2026-03-29T14:25:16.148Z</time></trkpt><trkpt lat="43.6874057" lon="11.4507864"><ele>111.0</ele><time>2026-03-29T14:25:17.148Z</time></trkpt><trkpt lat="43.6871557" lon="11.4507408"><ele>111.0</ele><time>2026-03-29T14:25:18.148Z</time></trkpt><trkpt lat="43.6869031" lon="11.4507172"><ele>111.0</ele><time>2026-03-29T14:25:19.148Z</time></trkpt><trkpt lat="43.6866507" lon="11.4507297"><ele>111.0</ele><time>2026-03-29T14:25:20.148Z</time></trkpt><trkpt lat="43.6863992" lon="11.4507706"><ele>111.0</ele><time>2026-03-29T14:25:21.148Z</time></trkpt><trkpt lat="43.6861485" lon="11.4508259"><ele>112.0</ele><time>2026-03-29T14:25:22.148Z</time></trkpt><trkpt lat="43.6859049" lon="11.4508839"><ele>113.0</ele><time>2026-03-29T14:25:23.148Z</time></trkpt><trkpt lat="43.6856772" lon="11.4509404"><ele>113.0</ele><time>2026-03-29T14:25:24.148Z</time></trkpt><trkpt lat="43.6854535" lon="11.4510046"><ele>113.0</ele><time>2026-03-29T14:25:25.148Z</time></trkpt><trkpt lat="43.6852312" lon="11.4510891"><ele>113.0</ele><time>2026-03-29T14:25:26.148Z</time></trkpt><trkpt lat="43.6850234" lon="11.4511861"><ele>113.0</ele><time>2026-03-29T14:25:27.148Z</time></trkpt><trkpt lat="43.6848233" lon="11.4512913"><ele>113.0</ele><time>2026-03-29T14:25:28.148Z</time></trkpt><trkpt lat="43.6846297" lon="11.4514225"><ele>112.33333333333333</ele><time>2026-03-29T14:25:29.148Z</time></trkpt><trkpt lat="43.6844414" lon="11.4515621"><ele>111.66666666666666</ele><time>2026-03-29T14:25:30.148Z</time></trkpt><trkpt lat="43.6842574" lon="11.4516776"><ele>111.0</ele><time>2026-03-29T14:25:31.148Z</time></trkpt><trkpt lat="43.6840792" lon="11.4517732"><ele>111.0</ele><time>2026-03-29T14:25:32.148Z</time></trkpt><trkpt lat="43.68391" lon="11.4518631"><ele>111.0</ele><time>2026-03-29T14:25:33.147Z</time></trkpt><trkpt lat="43.6837537" lon="11.4519223"><ele>111.0</ele><time>2026-03-29T14:25:34.148Z</time></trkpt><trkpt lat="43.6835882" lon="11.4519274"><ele>111.33333333333334</ele><time>2026-03-29T14:25:35.148Z</time></trkpt><trkpt lat="43.6834142" lon="11.4518816"><ele>111.66666666666667</ele><time>2026-03-29T14:25:36.148Z</time></trkpt><trkpt lat="43.6832477" lon="11.4517764"><ele>112.0</ele><time>2026-03-29T14:25:37.148Z</time></trkpt><trkpt lat="43.6831205" lon="11.4515989"><ele>112.0</ele><time>2026-03-29T14:25:38.148Z</time></trkpt><trkpt lat="43.6829995" lon="11.4513602"><ele>112.0</ele><time>2026-03-29T14:25:39.148Z</time></trkpt><trkpt lat="43.6828863" lon="11.4510957"><ele>112.0</ele><time>2026-03-29T14:25:40.148Z</time></trkpt><trkpt lat="43.6827682" lon="11.4508311"><ele>112.5</ele><time>2026-03-29T14:25:41.148Z</time></trkpt><trkpt lat="43.6826386" lon="11.4505507"><ele>113.0</ele><time>2026-03-29T14:25:42.148Z</time></trkpt><trkpt lat="43.6825124" lon="11.4502541"><ele>114.0</ele><time>2026-03-29T14:25:43.148Z</time></trkpt><trkpt lat="43.6823746" lon="11.4499596"><ele>115.0</ele><time>2026-03-29T14:25:44.147Z</time></trkpt><trkpt lat="43.6822278" lon="11.4496633"><ele>117.5</ele><time>2026-03-29T14:25:45.148Z</time></trkpt><trkpt lat="43.6820943" lon="11.4493559"><ele>120.0</ele><time>2026-03-29T14:25:46.148Z</time></trkpt><trkpt lat="43.6819562" lon="11.4490403"><ele>118.0</ele><time>2026-03-29T14:25:47.148Z</time></trkpt><trkpt lat="43.6818071" lon="11.4487262"><ele>116.0</ele><time>2026-03-29T14:25:48.148Z</time></trkpt><trkpt lat="43.6816567" lon="11.4484302"><ele>116.0</ele><time>2026-03-29T14:25:49.148Z</time></trkpt><trkpt lat="43.6815097" lon="11.4481174"><ele>116.0</ele><time>2026-03-29T14:25:50.148Z</time></trkpt><trkpt lat="43.6813595" lon="11.4477946"><ele>117.5</ele><time>2026-03-29T14:25:51.148Z</time></trkpt><trkpt lat="43.6812212" lon="11.4474987"><ele>119.0</ele><time>2026-03-29T14:25:52.148Z</time></trkpt><trkpt lat="43.6811003" lon="11.4472213"><ele>118.66666666666666</ele><time>2026-03-29T14:25:53.148Z</time></trkpt><trkpt lat="43.6809925" lon="11.4469619"><ele>118.33333333333334</ele><time>2026-03-29T14:25:54.148Z</time></trkpt><trkpt lat="43.6808776" lon="11.4467255"><ele>118.0</ele><time>2026-03-29T14:25:55.148Z</time></trkpt><trkpt lat="43.6807783" lon="11.446493"><ele>118.66666666666667</ele><time>2026-03-29T14:25:56.148Z</time></trkpt><trkpt lat="43.6806717" lon="11.4462724"><ele>119.33333333333334</ele><time>2026-03-29T14:25:57.148Z</time></trkpt><trkpt lat="43.6805741" lon="11.4460332"><ele>120.0</ele><time>2026-03-29T14:25:58.148Z</time></trkpt><trkpt lat="43.6804835" lon="11.4457884"><ele>120.0</ele><time>2026-03-29T14:25:59.148Z</time></trkpt><trkpt lat="43.6803903" lon="11.4455649"><ele>120.0</ele><time>2026-03-29T14:26:00.148Z</time></trkpt><trkpt lat="43.6803009" lon="11.4453722"><ele>120.0</ele><time>2026-03-29T14:26:01.148Z</time></trkpt><trkpt lat="43.6802371" lon="11.4452006"><ele>120.4</ele><time>2026-03-29T14:26:02.148Z</time></trkpt><trkpt lat="43.6801792" lon="11.4450668"><ele>120.8</ele><time>2026-03-29T14:26:03.148Z</time></trkpt><trkpt lat="43.6801425" lon="11.444977"><ele>121.19999999999999</ele><time>2026-03-29T14:26:04.148Z</time></trkpt><trkpt lat="43.6800866" lon="11.4448637"><ele>121.6</ele><time>2026-03-29T14:26:06.148Z</time></trkpt><trkpt lat="43.6800076" lon="11.4448178"><ele>122.0</ele><time>2026-03-29T14:26:08.148Z</time></trkpt><trkpt lat="43.6799273" lon="11.4448321"><ele>122.0</ele><time>2026-03-29T14:26:09.148Z</time></trkpt><trkpt lat="43.6798303" lon="11.4448961"><ele>122.0</ele><time>2026-03-29T14:26:10.148Z</time></trkpt><trkpt lat="43.6797039" lon="11.4449789"><ele>122.0</ele><time>2026-03-29T14:26:11.148Z</time></trkpt><trkpt lat="43.6795501" lon="11.4450669"><ele>122.0</ele><time>2026-03-29T14:26:12.147Z</time></trkpt><trkpt lat="43.6793752" lon="11.4451655"><ele>123.0</ele><time>2026-03-29T14:26:13.148Z</time></trkpt><trkpt lat="43.6791909" lon="11.4452833"><ele>124.0</ele><time>2026-03-29T14:26:14.148Z</time></trkpt><trkpt lat="43.6790091" lon="11.4454155"><ele>125.0</ele><time>2026-03-29T14:26:15.148Z</time></trkpt><trkpt lat="43.6788559" lon="11.4455536"><ele>125.0</ele><time>2026-03-29T14:26:16.148Z</time></trkpt><trkpt lat="43.678711" lon="11.4457034"><ele>125.0</ele><time>2026-03-29T14:26:17.148Z</time></trkpt><trkpt lat="43.6785599" lon="11.4458715"><ele>125.0</ele><time>2026-03-29T14:26:18.148Z</time></trkpt><trkpt lat="43.6783983" lon="11.4460689"><ele>126.66666666666666</ele><time>2026-03-29T14:26:19.148Z</time></trkpt><trkpt lat="43.6782362" lon="11.4462829"><ele>128.33333333333334</ele><time>2026-03-29T14:26:20.148Z</time></trkpt><trkpt lat="43.6780824" lon="11.4465105"><ele>130.0</ele><time>2026-03-29T14:26:21.148Z</time></trkpt><trkpt lat="43.6779437" lon="11.4467594"><ele>131.0</ele><time>2026-03-29T14:26:22.148Z</time></trkpt><trkpt lat="43.677803" lon="11.4470126"><ele>132.0</ele><time>2026-03-29T14:26:23.148Z</time></trkpt><trkpt lat="43.6776283" lon="11.4472346"><ele>135.5</ele><time>2026-03-29T14:26:24.148Z</time></trkpt><trkpt lat="43.6774325" lon="11.4474476"><ele>139.0</ele><time>2026-03-29T14:26:25.148Z</time></trkpt><trkpt lat="43.6772141" lon="11.447645"><ele>139.0</ele><time>2026-03-29T14:26:26.148Z</time></trkpt><trkpt lat="43.6769709" lon="11.4478286"><ele>139.0</ele><time>2026-03-29T14:26:27.147Z</time></trkpt><trkpt lat="43.6767279" lon="11.4480038"><ele>146.0</ele><time>2026-03-29T14:26:28.148Z</time></trkpt><trkpt lat="43.6764942" lon="11.4481751"><ele>153.0</ele><time>2026-03-29T14:26:29.148Z</time></trkpt><trkpt lat="43.676268" lon="11.4483395"><ele>156.0</ele><time>2026-03-29T14:26:30.147Z</time></trkpt><trkpt lat="43.6760662" lon="11.4484922"><ele>159.0</ele><time>2026-03-29T14:26:31.148Z</time></trkpt><trkpt lat="43.6758916" lon="11.4486315"><ele>162.0</ele><time>2026-03-29T14:26:32.148Z</time></trkpt><trkpt lat="43.6757264" lon="11.4487582"><ele>163.0</ele><time>2026-03-29T14:26:33.148Z</time></trkpt><trkpt lat="43.6755675" lon="11.448877"><ele>164.0</ele><time>2026-03-29T14:26:34.148Z</time></trkpt><trkpt lat="43.6754114" lon="11.4489788"><ele>165.0</ele><time>2026-03-29T14:26:35.148Z</time></trkpt><trkpt lat="43.6752519" lon="11.4490503"><ele>165.0</ele><time>2026-03-29T14:26:36.148Z</time></trkpt><trkpt lat="43.6750738" lon="11.4491153"><ele>165.0</ele><time>2026-03-29T14:26:37.148Z</time></trkpt><trkpt lat="43.6748584" lon="11.4491492"><ele>165.0</ele><time>2026-03-29T14:26:38.148Z</time></trkpt><trkpt lat="43.6746118" lon="11.4491567"><ele>163.5</ele><time>2026-03-29T14:26:39.148Z</time></trkpt><trkpt lat="43.6743666" lon="11.449181"><ele>162.0</ele><time>2026-03-29T14:26:40.148Z</time></trkpt><trkpt lat="43.6741127" lon="11.449201"><ele>162.0</ele><time>2026-03-29T14:26:41.148Z</time></trkpt><trkpt lat="43.6738558" lon="11.4492346"><ele>162.0</ele><time>2026-03-29T14:26:42.148Z</time></trkpt><trkpt lat="43.6736108" lon="11.4492603"><ele>164.5</ele><time>2026-03-29T14:26:43.148Z</time></trkpt><trkpt lat="43.6733619" lon="11.4492833"><ele>167.0</ele><time>2026-03-29T14:26:44.148Z</time></trkpt><trkpt lat="43.6731165" lon="11.4493117"><ele>167.0</ele><time>2026-03-29T14:26:45.148Z</time></trkpt><trkpt lat="43.672883" lon="11.4493532"><ele>167.0</ele><time>2026-03-29T14:26:46.148Z</time></trkpt><trkpt lat="43.6726712" lon="11.4494228"><ele>169.0</ele><time>2026-03-29T14:26:47.148Z</time></trkpt><trkpt lat="43.6724687" lon="11.4494931"><ele>171.0</ele><time>2026-03-29T14:26:48.148Z</time></trkpt><trkpt lat="43.672277" lon="11.4495162"><ele>173.0</ele><time>2026-03-29T14:26:49.148Z</time></trkpt><trkpt lat="43.6720887" lon="11.4494825"><ele>174.66666666666666</ele><time>2026-03-29T14:26:50.148Z</time></trkpt><trkpt lat="43.671899" lon="11.4494493"><ele>176.33333333333334</ele><time>2026-03-29T14:26:51.148Z</time></trkpt><trkpt lat="43.6717068" lon="11.4494561"><ele>178.0</ele><time>2026-03-29T14:26:52.148Z</time></trkpt><trkpt lat="43.6715183" lon="11.4495018"><ele>178.0</ele><time>2026-03-29T14:26:53.148Z</time></trkpt><trkpt lat="43.6713545" lon="11.449561"><ele>178.0</ele><time>2026-03-29T14:26:54.148Z</time></trkpt><trkpt lat="43.6712093" lon="11.4496326"><ele>178.0</ele><time>2026-03-29T14:26:55.148Z</time></trkpt><trkpt lat="43.6710811" lon="11.4496754"><ele>178.4</ele><time>2026-03-29T14:26:56.148Z</time></trkpt><trkpt lat="43.6709703" lon="11.4496872"><ele>178.8</ele><time>2026-03-29T14:26:57.147Z</time></trkpt><trkpt lat="43.6708768" lon="11.4496635"><ele>179.2</ele><time>2026-03-29T14:26:58.148Z</time></trkpt><trkpt lat="43.6707872" lon="11.4496359"><ele>179.6</ele><time>2026-03-29T14:26:59.148Z</time></trkpt><trkpt lat="43.6706991" lon="11.44962"><ele>180.0</ele><time>2026-03-29T14:27:00.148Z</time></trkpt><trkpt lat="43.6706001" lon="11.4496047"><ele>180.0</ele><time>2026-03-29T14:27:01.148Z</time></trkpt><trkpt lat="43.6705081" lon="11.4495844"><ele>180.0</ele><time>2026-03-29T14:27:02.148Z</time></trkpt><trkpt lat="43.6704057" lon="11.4495655"><ele>180.0</ele><time>2026-03-29T14:27:03.148Z</time></trkpt><trkpt lat="43.6703057" lon="11.4495589"><ele>180.0</ele><time>2026-03-29T14:27:04.148Z</time></trkpt><trkpt lat="43.6702043" lon="11.4495566"><ele>180.0</ele><time>2026-03-29T14:27:05.148Z</time></trkpt><trkpt lat="43.6701" lon="11.4495574"><ele>177.4</ele><time>2026-03-29T14:27:06.148Z</time></trkpt><trkpt lat="43.669993" lon="11.4495258"><ele>174.8</ele><time>2026-03-29T14:27:07.148Z</time></trkpt><trkpt lat="43.6698856" lon="11.4494833"><ele>172.2</ele><time>2026-03-29T14:27:08.148Z</time></trkpt><trkpt lat="43.6697972" lon="11.4494247"><ele>169.6</ele><time>2026-03-29T14:27:09.148Z</time></trkpt><trkpt lat="43.6697196" lon="11.4493448"><ele>167.0</ele><time>2026-03-29T14:27:10.148Z</time></trkpt><trkpt lat="43.6696581" lon="11.4492331"><ele>167.0</ele><time>2026-03-29T14:27:11.148Z</time></trkpt><trkpt lat="43.6696251" lon="11.4490775"><ele>167.0</ele><time>2026-03-29T14:27:12.148Z</time></trkpt><trkpt lat="43.6696019" lon="11.4489114"><ele>167.0</ele><time>2026-03-29T14:27:13.148Z</time></trkpt><trkpt lat="43.6695705" lon="11.4487111"><ele>167.0</ele><time>2026-03-29T14:27:14.148Z</time></trkpt><trkpt lat="43.6695289" lon="11.4484595"><ele>170.66666666666666</ele><time>2026-03-29T14:27:15.148Z</time></trkpt><trkpt lat="43.6694966" lon="11.448215"><ele>174.33333333333334</ele><time>2026-03-29T14:27:16.148Z</time></trkpt><trkpt lat="43.6694643" lon="11.4479816"><ele>178.0</ele><time>2026-03-29T14:27:17.148Z</time></trkpt><trkpt lat="43.6694035" lon="11.4477643"><ele>169.0</ele><time>2026-03-29T14:27:18.148Z</time></trkpt><trkpt lat="43.669314" lon="11.4475763"><ele>160.0</ele><time>2026-03-29T14:27:19.148Z</time></trkpt><trkpt lat="43.6691932" lon="11.447422"><ele>151.0</ele><time>2026-03-29T14:27:20.148Z</time></trkpt><trkpt lat="43.6690558" lon="11.447281"><ele>151.0</ele><time>2026-03-29T14:27:21.148Z</time></trkpt><trkpt lat="43.6689231" lon="11.447144"><ele>151.0</ele><time>2026-03-29T14:27:22.148Z</time></trkpt><trkpt lat="43.6688041" lon="11.4470111"><ele>151.0</ele><time>2026-03-29T14:27:23.149Z</time></trkpt><trkpt lat="43.6686848" lon="11.4468943"><ele>151.25</ele><time>2026-03-29T14:27:24.149Z</time></trkpt><trkpt lat="43.6685597" lon="11.4467785"><ele>151.5</ele><time>2026-03-29T14:27:25.148Z</time></trkpt><trkpt lat="43.6684241" lon="11.4466865"><ele>151.75</ele><time>2026-03-29T14:27:26.149Z</time></trkpt><trkpt lat="43.6682922" lon="11.4466005"><ele>152.0</ele><time>2026-03-29T14:27:27.149Z</time></trkpt><trkpt lat="43.6681518" lon="11.4465328"><ele>152.0</ele><time>2026-03-29T14:27:28.149Z</time></trkpt><trkpt lat="43.6680029" lon="11.4464705"><ele>152.0</ele><time>2026-03-29T14:27:29.149Z</time></trkpt><trkpt lat="43.6678571" lon="11.4464419"><ele>152.0</ele><time>2026-03-29T14:27:30.149Z</time></trkpt><trkpt lat="43.667697" lon="11.446467"><ele>150.66666666666666</ele><time>2026-03-29T14:27:31.149Z</time></trkpt><trkpt lat="43.6675439" lon="11.4465283"><ele>149.33333333333334</ele><time>2026-03-29T14:27:32.149Z</time></trkpt><trkpt lat="43.6673908" lon="11.4466463"><ele>148.0</ele><time>2026-03-29T14:27:33.149Z</time></trkpt><trkpt lat="43.6672393" lon="11.4468462"><ele>148.0</ele><time>2026-03-29T14:27:34.149Z</time></trkpt><trkpt lat="43.6670811" lon="11.4470178"><ele>148.0</ele><time>2026-03-29T14:27:35.149Z</time></trkpt><trkpt lat="43.6669186" lon="11.4471735"><ele>148.0</ele><time>2026-03-29T14:27:36.149Z</time></trkpt><trkpt lat="43.6667733" lon="11.4473317"><ele>147.0</ele><time>2026-03-29T14:27:37.149Z</time></trkpt><trkpt lat="43.6666381" lon="11.4474786"><ele>146.0</ele><time>2026-03-29T14:27:38.149Z</time></trkpt><trkpt lat="43.6665055" lon="11.4476198"><ele>145.0</ele><time>2026-03-29T14:27:39.149Z</time></trkpt><trkpt lat="43.6664067" lon="11.4477839"><ele>141.33333333333334</ele><time>2026-03-29T14:27:40.149Z</time></trkpt><trkpt lat="43.6663236" lon="11.4479754"><ele>137.66666666666666</ele><time>2026-03-29T14:27:41.148Z</time></trkpt><trkpt lat="43.6662527" lon="11.4481642"><ele>134.0</ele><time>2026-03-29T14:27:42.149Z</time></trkpt><trkpt lat="43.6661932" lon="11.4483332"><ele>134.0</ele><time>2026-03-29T14:27:43.149Z</time></trkpt><trkpt lat="43.6661235" lon="11.448485"><ele>134.0</ele><time>2026-03-29T14:27:44.149Z</time></trkpt><trkpt lat="43.6660207" lon="11.4486151"><ele>134.0</ele><time>2026-03-29T14:27:45.149Z</time></trkpt><trkpt lat="43.665873" lon="11.4487187"><ele>134.0</ele><time>2026-03-29T14:27:46.149Z</time></trkpt><trkpt lat="43.6656988" lon="11.448795"><ele>132.0</ele><time>2026-03-29T14:27:47.148Z</time></trkpt><trkpt lat="43.6655165" lon="11.4488626"><ele>130.0</ele><time>2026-03-29T14:27:48.149Z</time></trkpt><trkpt lat="43.6653369" lon="11.4489444"><ele>128.0</ele><time>2026-03-29T14:27:49.149Z</time></trkpt><trkpt lat="43.6651702" lon="11.4490208"><ele>128.0</ele><time>2026-03-29T14:27:50.149Z</time></trkpt><trkpt lat="43.6650144" lon="11.4491117"><ele>128.0</ele><time>2026-03-29T14:27:51.149Z</time></trkpt><trkpt lat="43.6648629" lon="11.4491969"><ele>128.0</ele><time>2026-03-29T14:27:52.149Z</time></trkpt><trkpt lat="43.6647288" lon="11.4492638"><ele>128.0</ele><time>2026-03-29T14:27:53.149Z</time></trkpt><trkpt lat="43.6646223" lon="11.4493051"><ele>128.0</ele><time>2026-03-29T14:27:54.148Z</time></trkpt><trkpt lat="43.6645425" lon="11.4493486"><ele>128.0</ele><time>2026-03-29T14:27:55.149Z</time></trkpt><trkpt lat="43.6644759" lon="11.4493824"><ele>128.0</ele><time>2026-03-29T14:27:56.148Z</time></trkpt><trkpt lat="43.6643658" lon="11.4494492"><ele>128.0</ele><time>2026-03-29T14:27:58.149Z</time></trkpt><trkpt lat="43.6642498" lon="11.4495035"><ele>128.5</ele><time>2026-03-29T14:28:00.149Z</time></trkpt><trkpt lat="43.6641582" lon="11.4495628"><ele>129.0</ele><time>2026-03-29T14:28:01.149Z</time></trkpt><trkpt lat="43.664034" lon="11.4496569"><ele>129.5</ele><time>2026-03-29T14:28:02.149Z</time></trkpt><trkpt lat="43.6639017" lon="11.4497122"><ele>130.0</ele><time>2026-03-29T14:28:03.149Z</time></trkpt><trkpt lat="43.6637773" lon="11.4497592"><ele>126.66666666666667</ele><time>2026-03-29T14:28:04.149Z</time></trkpt><trkpt lat="43.6636327" lon="11.4497942"><ele>123.33333333333334</ele><time>2026-03-29T14:28:05.149Z</time></trkpt><trkpt lat="43.6634736" lon="11.4498183"><ele>120.0</ele><time>2026-03-29T14:28:06.148Z</time></trkpt><trkpt lat="43.6633236" lon="11.4497796"><ele>119.0</ele><time>2026-03-29T14:28:07.149Z</time></trkpt><trkpt lat="43.6631737" lon="11.4496793"><ele>118.0</ele><time>2026-03-29T14:28:08.149Z</time></trkpt><trkpt lat="43.6630053" lon="11.4495813"><ele>117.0</ele><time>2026-03-29T14:28:09.149Z</time></trkpt><trkpt lat="43.6628391" lon="11.4495134"><ele>119.33333333333334</ele><time>2026-03-29T14:28:10.149Z</time></trkpt><trkpt lat="43.6626829" lon="11.4494341"><ele>121.66666666666667</ele><time>2026-03-29T14:28:11.149Z</time></trkpt><trkpt lat="43.6625254" lon="11.4493562"><ele>124.0</ele><time>2026-03-29T14:28:12.149Z</time></trkpt><trkpt lat="43.6623905" lon="11.4492789"><ele>124.0</ele><time>2026-03-29T14:28:13.149Z</time></trkpt><trkpt lat="43.6622704" lon="11.4492136"><ele>124.0</ele><time>2026-03-29T14:28:14.149Z</time></trkpt><trkpt lat="43.6621354" lon="11.4491487"><ele>124.0</ele><time>2026-03-29T14:28:15.149Z</time></trkpt><trkpt lat="43.6619909" lon="11.4490943"><ele>124.0</ele><time>2026-03-29T14:28:16.149Z</time></trkpt><trkpt lat="43.6618423" lon="11.449043"><ele>123.33333333333334</ele><time>2026-03-29T14:28:17.149Z</time></trkpt><trkpt lat="43.6616813" lon="11.4489833"><ele>122.66666666666666</ele><time>2026-03-29T14:28:18.149Z</time></trkpt><trkpt lat="43.6615214" lon="11.4489366"><ele>122.0</ele><time>2026-03-29T14:28:19.149Z</time></trkpt><trkpt lat="43.6613679" lon="11.4488847"><ele>122.0</ele><time>2026-03-29T14:28:20.149Z</time></trkpt><trkpt lat="43.6612118" lon="11.4488169"><ele>122.0</ele><time>2026-03-29T14:28:21.148Z</time></trkpt><trkpt lat="43.6610714" lon="11.4487294"><ele>122.0</ele><time>2026-03-29T14:28:22.149Z</time></trkpt><trkpt lat="43.6609384" lon="11.4486603"><ele>123.5</ele><time>2026-03-29T14:28:23.149Z</time></trkpt><trkpt lat="43.6608092" lon="11.4486141"><ele>125.0</ele><time>2026-03-29T14:28:24.149Z</time></trkpt><trkpt lat="43.6606736" lon="11.4485808"><ele>126.5</ele><time>2026-03-29T14:28:25.149Z</time></trkpt><trkpt lat="43.6605427" lon="11.4485485"><ele>128.0</ele><time>2026-03-29T14:28:26.149Z</time></trkpt><trkpt lat="43.6604197" lon="11.4485221"><ele>128.0</ele><time>2026-03-29T14:28:27.149Z</time></trkpt><trkpt lat="43.6603078" lon="11.448512"><ele>128.0</ele><time>2026-03-29T14:28:28.148Z</time></trkpt><trkpt lat="43.6602075" lon="11.4485022"><ele>128.0</ele><time>2026-03-29T14:28:29.149Z</time></trkpt><trkpt lat="43.6600991" lon="11.4484791"><ele>128.0</ele><time>2026-03-29T14:28:30.149Z</time></trkpt><trkpt lat="43.6599868" lon="11.4484577"><ele>128.0</ele><time>2026-03-29T14:28:31.149Z</time></trkpt><trkpt lat="43.6598699" lon="11.4484535"><ele>127.80000000000001</ele><time>2026-03-29T14:28:32.149Z</time></trkpt><trkpt lat="43.6597538" lon="11.4484602"><ele>127.60000000000001</ele><time>2026-03-29T14:28:33.149Z</time></trkpt><trkpt lat="43.6596407" lon="11.4484707"><ele>127.39999999999999</ele><time>2026-03-29T14:28:34.149Z</time></trkpt><trkpt lat="43.6595388" lon="11.4484683"><ele>127.19999999999999</ele><time>2026-03-29T14:28:35.149Z</time></trkpt><trkpt lat="43.6594353" lon="11.4484675"><ele>127.0</ele><time>2026-03-29T14:28:36.149Z</time></trkpt><trkpt lat="43.6593305" lon="11.4484727"><ele>127.0</ele><time>2026-03-29T14:28:37.149Z</time></trkpt><trkpt lat="43.6592314" lon="11.4484745"><ele>126.99999999999999</ele><time>2026-03-29T14:28:38.149Z</time></trkpt><trkpt lat="43.6591301" lon="11.4484783"><ele>126.99999999999999</ele><time>2026-03-29T14:28:39.149Z</time></trkpt><trkpt lat="43.6590237" lon="11.4484852"><ele>127.0</ele><time>2026-03-29T14:28:40.149Z</time></trkpt><trkpt lat="43.6589082" lon="11.4484995"><ele>127.0</ele><time>2026-03-29T14:28:41.149Z</time></trkpt><trkpt lat="43.6587801" lon="11.4485435"><ele>127.0</ele><time>2026-03-29T14:28:42.148Z</time></trkpt><trkpt lat="43.6586473" lon="11.4485923"><ele>127.0</ele><time>2026-03-29T14:28:43.149Z</time></trkpt><trkpt lat="43.6585285" lon="11.4486418"><ele>127.0</ele><time>2026-03-29T14:28:44.149Z</time></trkpt><trkpt lat="43.6584136" lon="11.4487018"><ele>127.0</ele><time>2026-03-29T14:28:45.149Z</time></trkpt><trkpt lat="43.6582904" lon="11.4487783"><ele>124.66666666666667</ele><time>2026-03-29T14:28:46.149Z</time></trkpt><trkpt lat="43.6581556" lon="11.4488585"><ele>122.33333333333334</ele><time>2026-03-29T14:28:47.149Z</time></trkpt><trkpt lat="43.6580097" lon="11.4489279"><ele>120.0</ele><time>2026-03-29T14:28:48.149Z</time></trkpt><trkpt lat="43.657859" lon="11.4490029"><ele>121.0</ele><time>2026-03-29T14:28:49.149Z</time></trkpt><trkpt lat="43.6577051" lon="11.4490817"><ele>122.0</ele><time>2026-03-29T14:28:50.149Z</time></trkpt><trkpt lat="43.6575472" lon="11.4491626"><ele>123.0</ele><time>2026-03-29T14:28:51.149Z</time></trkpt><trkpt lat="43.6574064" lon="11.4492313"><ele>123.0</ele><time>2026-03-29T14:28:52.149Z</time></trkpt><trkpt lat="43.6572671" lon="11.4492919"><ele>123.0</ele><time>2026-03-29T14:28:53.149Z</time></trkpt><trkpt lat="43.6571246" lon="11.4493586"><ele>123.0</ele><time>2026-03-29T14:28:54.149Z</time></trkpt><trkpt lat="43.6569894" lon="11.449409"><ele>123.0</ele><time>2026-03-29T14:28:55.149Z</time></trkpt><trkpt lat="43.6568543" lon="11.4494466"><ele>123.0</ele><time>2026-03-29T14:28:56.149Z</time></trkpt><trkpt lat="43.6567314" lon="11.4494896"><ele>123.00000000000001</ele><time>2026-03-29T14:28:57.149Z</time></trkpt><trkpt lat="43.6566338" lon="11.4495269"><ele>123.00000000000001</ele><time>2026-03-29T14:28:58.149Z</time></trkpt><trkpt lat="43.6565542" lon="11.4495584"><ele>123.0</ele><time>2026-03-29T14:28:59.149Z</time></trkpt><trkpt lat="43.6564368" lon="11.4495754"><ele>123.0</ele><time>2026-03-29T14:29:01.148Z</time></trkpt><trkpt lat="43.6563662" lon="11.4495987"><ele>122.75</ele><time>2026-03-29T14:29:03.149Z</time></trkpt><trkpt lat="43.6562765" lon="11.4496468"><ele>122.5</ele><time>2026-03-29T14:29:07.149Z</time></trkpt><trkpt lat="43.6561455" lon="11.4496931"><ele>122.25</ele><time>2026-03-29T14:29:09.149Z</time></trkpt><trkpt lat="43.6560454" lon="11.4497445"><ele>122.0</ele><time>2026-03-29T14:29:10.149Z</time></trkpt><trkpt lat="43.6559117" lon="11.4497744"><ele>122.66666666666666</ele><time>2026-03-29T14:29:11.149Z</time></trkpt><trkpt lat="43.6557552" lon="11.4498016"><ele>123.33333333333334</ele><time>2026-03-29T14:29:12.149Z</time></trkpt><trkpt lat="43.6555882" lon="11.4498094"><ele>124.0</ele><time>2026-03-29T14:29:13.149Z</time></trkpt><trkpt lat="43.6554202" lon="11.4498551"><ele>123.66666666666667</ele><time>2026-03-29T14:29:14.149Z</time></trkpt><trkpt lat="43.6552505" lon="11.4499071"><ele>123.33333333333334</ele><time>2026-03-29T14:29:15.149Z</time></trkpt><trkpt lat="43.6550783" lon="11.4499785"><ele>123.0</ele><time>2026-03-29T14:29:16.149Z</time></trkpt><trkpt lat="43.6549062" lon="11.4500747"><ele>123.0</ele><time>2026-03-29T14:29:17.149Z</time></trkpt><trkpt lat="43.6547304" lon="11.4501949"><ele>123.0</ele><time>2026-03-29T14:29:18.149Z</time></trkpt><trkpt lat="43.6545532" lon="11.4503329"><ele>123.0</ele><time>2026-03-29T14:29:19.149Z</time></trkpt><trkpt lat="43.6543834" lon="11.4504658"><ele>123.0</ele><time>2026-03-29T14:29:20.148Z</time></trkpt><trkpt lat="43.6542291" lon="11.4505855"><ele>123.0</ele><time>2026-03-29T14:29:21.149Z</time></trkpt><trkpt lat="43.6540845" lon="11.4506975"><ele>123.0</ele><time>2026-03-29T14:29:22.149Z</time></trkpt><trkpt lat="43.6539657" lon="11.4507867"><ele>123.0</ele><time>2026-03-29T14:29:23.149Z</time></trkpt><trkpt lat="43.6538727" lon="11.4508405"><ele>123.00000000000001</ele><time>2026-03-29T14:29:24.149Z</time></trkpt><trkpt lat="43.6538109" lon="11.4508731"><ele>123.00000000000001</ele><time>2026-03-29T14:29:25.149Z</time></trkpt><trkpt lat="43.6537261" lon="11.4508835"><ele>123.0</ele><time>2026-03-29T14:29:27.149Z</time></trkpt><trkpt lat="43.6536169" lon="11.4508915"><ele>123.0</ele><time>2026-03-29T14:29:29.149Z</time></trkpt><trkpt lat="43.6535463" lon="11.4509748"><ele>124.0</ele><time>2026-03-29T14:29:30.149Z</time></trkpt><trkpt lat="43.6534576" lon="11.4510689"><ele>125.0</ele><time>2026-03-29T14:29:31.149Z</time></trkpt><trkpt lat="43.6533408" lon="11.4511417"><ele>126.0</ele><time>2026-03-29T14:29:32.148Z</time></trkpt><trkpt lat="43.653197" lon="11.4512034"><ele>127.0</ele><time>2026-03-29T14:29:33.149Z</time></trkpt><trkpt lat="43.653039" lon="11.4512796"><ele>125.33333333333334</ele><time>2026-03-29T14:29:34.149Z</time></trkpt><trkpt lat="43.6528724" lon="11.4513328"><ele>123.66666666666666</ele><time>2026-03-29T14:29:35.149Z</time></trkpt><trkpt lat="43.652682" lon="11.4513869"><ele>122.0</ele><time>2026-03-29T14:29:36.149Z</time></trkpt><trkpt lat="43.652479" lon="11.4514227"><ele>121.66666666666666</ele><time>2026-03-29T14:29:37.149Z</time></trkpt><trkpt lat="43.6522654" lon="11.4514446"><ele>121.33333333333334</ele><time>2026-03-29T14:29:38.149Z</time></trkpt><trkpt lat="43.6520552" lon="11.4514678"><ele>121.0</ele><time>2026-03-29T14:29:39.149Z</time></trkpt><trkpt lat="43.6518434" lon="11.451489"><ele>121.66666666666667</ele><time>2026-03-29T14:29:40.149Z</time></trkpt><trkpt lat="43.6516225" lon="11.4514788"><ele>122.33333333333334</ele><time>2026-03-29T14:29:41.149Z</time></trkpt><trkpt lat="43.6514066" lon="11.4514172"><ele>123.0</ele><time>2026-03-29T14:29:42.149Z</time></trkpt><trkpt lat="43.6512225" lon="11.4513127"><ele>123.66666666666666</ele><time>2026-03-29T14:29:43.149Z</time></trkpt><trkpt lat="43.6510447" lon="11.4512139"><ele>124.33333333333333</ele><time>2026-03-29T14:29:44.149Z</time></trkpt><trkpt lat="43.6508632" lon="11.4511473"><ele>125.0</ele><time>2026-03-29T14:29:45.149Z</time></trkpt><trkpt lat="43.650685" lon="11.451122"><ele>125.0</ele><time>2026-03-29T14:29:46.149Z</time></trkpt><trkpt lat="43.6505173" lon="11.4511102"><ele>125.0</ele><time>2026-03-29T14:29:47.149Z</time></trkpt><trkpt lat="43.6503672" lon="11.4511077"><ele>125.0</ele><time>2026-03-29T14:29:48.149Z</time></trkpt><trkpt lat="43.6502312" lon="11.4511231"><ele>124.25</ele><time>2026-03-29T14:29:49.149Z</time></trkpt><trkpt lat="43.6500965" lon="11.4511267"><ele>123.5</ele><time>2026-03-29T14:29:50.149Z</time></trkpt><trkpt lat="43.6499673" lon="11.4511252"><ele>122.75</ele><time>2026-03-29T14:29:51.149Z</time></trkpt><trkpt lat="43.6498361" lon="11.4511285"><ele>122.0</ele><time>2026-03-29T14:29:52.149Z</time></trkpt><trkpt lat="43.6497048" lon="11.4511326"><ele>122.0</ele><time>2026-03-29T14:29:53.149Z</time></trkpt><trkpt lat="43.6495797" lon="11.4511292"><ele>122.0</ele><time>2026-03-29T14:29:54.149Z</time></trkpt><trkpt lat="43.6494511" lon="11.4511221"><ele>122.0</ele><time>2026-03-29T14:29:55.149Z</time></trkpt><trkpt lat="43.6493164" lon="11.4511039"><ele>122.0</ele><time>2026-03-29T14:29:56.149Z</time></trkpt><trkpt lat="43.6491938" lon="11.4510742"><ele>121.75</ele><time>2026-03-29T14:29:57.149Z</time></trkpt><trkpt lat="43.6490748" lon="11.451038"><ele>121.5</ele><time>2026-03-29T14:29:58.149Z</time></trkpt><trkpt lat="43.6489556" lon="11.4510083"><ele>121.25</ele><time>2026-03-29T14:29:59.149Z</time></trkpt><trkpt lat="43.6488293" lon="11.4509794"><ele>121.0</ele><time>2026-03-29T14:30:00.149Z</time></trkpt><trkpt lat="43.6486984" lon="11.4509452"><ele>121.33333333333334</ele><time>2026-03-29T14:30:01.149Z</time></trkpt><trkpt lat="43.648551" lon="11.4509131"><ele>121.66666666666666</ele><time>2026-03-29T14:30:02.149Z</time></trkpt><trkpt lat="43.6483728" lon="11.4508966"><ele>122.0</ele><time>2026-03-29T14:30:03.149Z</time></trkpt><trkpt lat="43.6481709" lon="11.4508722"><ele>122.0</ele><time>2026-03-29T14:30:04.149Z</time></trkpt><trkpt lat="43.6479649" lon="11.450854"><ele>122.0</ele><time>2026-03-29T14:30:05.148Z</time></trkpt><trkpt lat="43.6477525" lon="11.4508606"><ele>122.0</ele><time>2026-03-29T14:30:06.148Z</time></trkpt><trkpt lat="43.6475261" lon="11.4508879"><ele>122.0</ele><time>2026-03-29T14:30:07.149Z</time></trkpt><trkpt lat="43.647292" lon="11.4509151"><ele>122.0</ele><time>2026-03-29T14:30:08.149Z</time></trkpt><trkpt lat="43.6470543" lon="11.4509594"><ele>122.0</ele><time>2026-03-29T14:30:09.149Z</time></trkpt><trkpt lat="43.6468086" lon="11.451012"><ele>122.0</ele><time>2026-03-29T14:30:10.149Z</time></trkpt><trkpt lat="43.6465637" lon="11.4510707"><ele>122.0</ele><time>2026-03-29T14:30:11.149Z</time></trkpt><trkpt lat="43.6463172" lon="11.4511392"><ele>122.0</ele><time>2026-03-29T14:30:12.149Z</time></trkpt><trkpt lat="43.6460651" lon="11.4512082"><ele>123.0</ele><time>2026-03-29T14:30:13.149Z</time></trkpt><trkpt lat="43.6458162" lon="11.4512755"><ele>124.0</ele><time>2026-03-29T14:30:14.149Z</time></trkpt><trkpt lat="43.6455766" lon="11.4513321"><ele>122.5</ele><time>2026-03-29T14:30:15.149Z</time></trkpt><trkpt lat="43.6453432" lon="11.4513984"><ele>121.0</ele><time>2026-03-29T14:30:16.149Z</time></trkpt><trkpt lat="43.6451148" lon="11.4514823"><ele>121.0</ele><time>2026-03-29T14:30:17.149Z</time></trkpt><trkpt lat="43.6448911" lon="11.4515861"><ele>121.0</ele><time>2026-03-29T14:30:18.149Z</time></trkpt><trkpt lat="43.6446704" lon="11.451704"><ele>122.0</ele><time>2026-03-29T14:30:19.149Z</time></trkpt><trkpt lat="43.6444507" lon="11.4518203"><ele>123.0</ele><time>2026-03-29T14:30:20.149Z</time></trkpt><trkpt lat="43.6442388" lon="11.4519335"><ele>123.0</ele><time>2026-03-29T14:30:21.149Z</time></trkpt><trkpt lat="43.6440282" lon="11.4520377"><ele>123.0</ele><time>2026-03-29T14:30:22.149Z</time></trkpt><trkpt lat="43.6438188" lon="11.4521408"><ele>123.0</ele><time>2026-03-29T14:30:23.149Z</time></trkpt><trkpt lat="43.6436022" lon="11.4522299"><ele>122.0</ele><time>2026-03-29T14:30:24.149Z</time></trkpt><trkpt lat="43.6433842" lon="11.4523111"><ele>121.0</ele><time>2026-03-29T14:30:25.149Z</time></trkpt><trkpt lat="43.6431623" lon="11.4523623"><ele>121.0</ele><time>2026-03-29T14:30:26.149Z</time></trkpt><trkpt lat="43.6429497" lon="11.4523961"><ele>121.0</ele><time>2026-03-29T14:30:27.149Z</time></trkpt><trkpt lat="43.6427454" lon="11.4524121"><ele>121.0</ele><time>2026-03-29T14:30:28.149Z</time></trkpt><trkpt lat="43.6425617" lon="11.4524173"><ele>121.25</ele><time>2026-03-29T14:30:29.149Z</time></trkpt><trkpt lat="43.6424036" lon="11.4524202"><ele>121.5</ele><time>2026-03-29T14:30:30.149Z</time></trkpt><trkpt lat="43.6422673" lon="11.4524411"><ele>121.75</ele><time>2026-03-29T14:30:31.149Z</time></trkpt><trkpt lat="43.6421419" lon="11.452481"><ele>122.0</ele><time>2026-03-29T14:30:32.149Z</time></trkpt><trkpt lat="43.6420253" lon="11.4525004"><ele>121.66666666666666</ele><time>2026-03-29T14:30:33.149Z</time></trkpt><trkpt lat="43.6418989" lon="11.4524681"><ele>121.33333333333334</ele><time>2026-03-29T14:30:34.149Z</time></trkpt><trkpt lat="43.6417446" lon="11.4523789"><ele>121.0</ele><time>2026-03-29T14:30:35.149Z</time></trkpt><trkpt lat="43.6415717" lon="11.4522804"><ele>121.0</ele><time>2026-03-29T14:30:36.149Z</time></trkpt><trkpt lat="43.6414084" lon="11.4521467"><ele>121.0</ele><time>2026-03-29T14:30:37.149Z</time></trkpt><trkpt lat="43.6412311" lon="11.4519981"><ele>121.0</ele><time>2026-03-29T14:30:38.149Z</time></trkpt><trkpt lat="43.6410431" lon="11.4518729"><ele>121.5</ele><time>2026-03-29T14:30:39.149Z</time></trkpt><trkpt lat="43.6408291" lon="11.451786"><ele>122.0</ele><time>2026-03-29T14:30:40.149Z</time></trkpt><trkpt lat="43.6406066" lon="11.4517225"><ele>122.0</ele><time>2026-03-29T14:30:41.149Z</time></trkpt><trkpt lat="43.640383" lon="11.4516726"><ele>122.0</ele><time>2026-03-29T14:30:42.149Z</time></trkpt><trkpt lat="43.6401747" lon="11.4516494"><ele>122.0</ele><time>2026-03-29T14:30:43.149Z</time></trkpt><trkpt lat="43.6399729" lon="11.4516811"><ele>122.66666666666666</ele><time>2026-03-29T14:30:44.149Z</time></trkpt><trkpt lat="43.6397713" lon="11.4517489"><ele>123.33333333333334</ele><time>2026-03-29T14:30:45.149Z</time></trkpt><trkpt lat="43.6395714" lon="11.45186"><ele>124.0</ele><time>2026-03-29T14:30:46.149Z</time></trkpt><trkpt lat="43.6393833" lon="11.4520121"><ele>123.0</ele><time>2026-03-29T14:30:47.149Z</time></trkpt><trkpt lat="43.6392174" lon="11.4521745"><ele>122.0</ele><time>2026-03-29T14:30:48.149Z</time></trkpt><trkpt lat="43.6390505" lon="11.4523182"><ele>121.0</ele><time>2026-03-29T14:30:49.149Z</time></trkpt><trkpt lat="43.6388985" lon="11.4524629"><ele>121.0</ele><time>2026-03-29T14:30:50.149Z</time></trkpt><trkpt lat="43.6387335" lon="11.4526078"><ele>121.0</ele><time>2026-03-29T14:30:51.149Z</time></trkpt><trkpt lat="43.6385819" lon="11.4527397"><ele>121.0</ele><time>2026-03-29T14:30:52.149Z</time></trkpt><trkpt lat="43.6384304" lon="11.4528541"><ele>121.0</ele><time>2026-03-29T14:30:53.149Z</time></trkpt><trkpt lat="43.6382881" lon="11.4529631"><ele>121.0</ele><time>2026-03-29T14:30:54.149Z</time></trkpt><trkpt lat="43.6381689" lon="11.4530665"><ele>121.0</ele><time>2026-03-29T14:30:55.149Z</time></trkpt><trkpt lat="43.6380606" lon="11.4531707"><ele>121.0</ele><time>2026-03-29T14:30:56.149Z</time></trkpt><trkpt lat="43.6379523" lon="11.4532715"><ele>121.0</ele><time>2026-03-29T14:30:57.149Z</time></trkpt><trkpt lat="43.6378417" lon="11.4533709"><ele>121.0</ele><time>2026-03-29T14:30:58.149Z</time></trkpt><trkpt lat="43.6377341" lon="11.4534715"><ele>121.0</ele><time>2026-03-29T14:30:59.149Z</time></trkpt><trkpt lat="43.6376292" lon="11.4535773"><ele>121.0</ele><time>2026-03-29T14:31:00.149Z</time></trkpt><trkpt lat="43.6375182" lon="11.4536882"><ele>120.0</ele><time>2026-03-29T14:31:01.149Z</time></trkpt><trkpt lat="43.6374047" lon="11.4537901"><ele>119.0</ele><time>2026-03-29T14:31:02.149Z</time></trkpt><trkpt lat="43.6372876" lon="11.4538971"><ele>118.0</ele><time>2026-03-29T14:31:03.149Z</time></trkpt><trkpt lat="43.6371751" lon="11.4540045"><ele>117.0</ele><time>2026-03-29T14:31:04.149Z</time></trkpt><trkpt lat="43.6370628" lon="11.4541102"><ele>117.66666666666666</ele><time>2026-03-29T14:31:05.149Z</time></trkpt><trkpt lat="43.6369353" lon="11.4542263"><ele>118.33333333333333</ele><time>2026-03-29T14:31:06.149Z</time></trkpt><trkpt lat="43.636789" lon="11.4543566"><ele>119.0</ele><time>2026-03-29T14:31:07.149Z</time></trkpt><trkpt lat="43.6366332" lon="11.4544776"><ele>119.0</ele><time>2026-03-29T14:31:08.149Z</time></trkpt><trkpt lat="43.6364792" lon="11.4546001"><ele>119.0</ele><time>2026-03-29T14:31:09.149Z</time></trkpt><trkpt lat="43.636323" lon="11.4547475"><ele>119.0</ele><time>2026-03-29T14:31:10.149Z</time></trkpt><trkpt lat="43.6361695" lon="11.4548943"><ele>119.0</ele><time>2026-03-29T14:31:11.149Z</time></trkpt><trkpt lat="43.6360205" lon="11.4550137"><ele>119.0</ele><time>2026-03-29T14:31:12.149Z</time></trkpt><trkpt lat="43.6358845" lon="11.4551177"><ele>119.0</ele><time>2026-03-29T14:31:13.149Z</time></trkpt><trkpt lat="43.6357711" lon="11.4552094"><ele>119.0</ele><time>2026-03-29T14:31:14.149Z</time></trkpt><trkpt lat="43.6356858" lon="11.4552775"><ele>119.0</ele><time>2026-03-29T14:31:15.149Z</time></trkpt><trkpt lat="43.635606" lon="11.4553135"><ele>119.0</ele><time>2026-03-29T14:31:16.149Z</time></trkpt><trkpt lat="43.6355263" lon="11.4553023"><ele>119.0</ele><time>2026-03-29T14:31:17.149Z</time></trkpt><trkpt lat="43.6354288" lon="11.4551998"><ele>119.0</ele><time>2026-03-29T14:31:18.149Z</time></trkpt><trkpt lat="43.6353475" lon="11.4550733"><ele>119.75</ele><time>2026-03-29T14:31:19.149Z</time></trkpt><trkpt lat="43.6352617" lon="11.4549146"><ele>120.5</ele><time>2026-03-29T14:31:20.149Z</time></trkpt><trkpt lat="43.6351771" lon="11.454747"><ele>121.25</ele><time>2026-03-29T14:31:21.148Z</time></trkpt><trkpt lat="43.635102" lon="11.4545806"><ele>122.0</ele><time>2026-03-29T14:31:22.149Z</time></trkpt><trkpt lat="43.6350411" lon="11.4544532"><ele>121.99999999999999</ele><time>2026-03-29T14:31:23.148Z</time></trkpt><trkpt lat="43.6349982" lon="11.4543738"><ele>122.0</ele><time>2026-03-29T14:31:24.149Z</time></trkpt><trkpt lat="43.6349446" lon="11.4543241"><ele>122.0</ele><time>2026-03-29T14:31:25.149Z</time></trkpt><trkpt lat="43.6348739" lon="11.4543332"><ele>122.0</ele><time>2026-03-29T14:31:26.149Z</time></trkpt><trkpt lat="43.6347919" lon="11.4544196"><ele>121.99999999999999</ele><time>2026-03-29T14:31:27.149Z</time></trkpt><trkpt lat="43.6347139" lon="11.454512"><ele>122.0</ele><time>2026-03-29T14:31:28.149Z</time></trkpt><trkpt lat="43.6346202" lon="11.454593"><ele>122.0</ele><time>2026-03-29T14:31:29.149Z</time></trkpt><trkpt lat="43.6345266" lon="11.4546765"><ele>121.99999999999999</ele><time>2026-03-29T14:31:30.149Z</time></trkpt><trkpt lat="43.6344306" lon="11.4547604"><ele>121.99999999999999</ele><time>2026-03-29T14:31:31.148Z</time></trkpt><trkpt lat="43.6343419" lon="11.4548313"><ele>122.0</ele><time>2026-03-29T14:31:32.149Z</time></trkpt><trkpt lat="43.63427" lon="11.4548987"><ele>122.0</ele><time>2026-03-29T14:31:33.149Z</time></trkpt><trkpt lat="43.6342166" lon="11.4549741"><ele>121.99999999999999</ele><time>2026-03-29T14:31:34.149Z</time></trkpt><trkpt lat="43.6341962" lon="11.4550694"><ele>122.0</ele><time>2026-03-29T14:31:35.149Z</time></trkpt><trkpt lat="43.6342036" lon="11.455182"><ele>122.0</ele><time>2026-03-29T14:31:36.149Z</time></trkpt><trkpt lat="43.6342314" lon="11.4552991"><ele>122.0</ele><time>2026-03-29T14:31:37.149Z</time></trkpt><trkpt lat="43.6342745" lon="11.4554291"><ele>121.99999999999999</ele><time>2026-03-29T14:31:38.149Z</time></trkpt><trkpt lat="43.6343301" lon="11.4555319"><ele>122.0</ele><time>2026-03-29T14:31:39.149Z</time></trkpt><trkpt lat="43.6343791" lon="11.4556156"><ele>121.99999999999999</ele><time>2026-03-29T14:31:40.149Z</time></trkpt><trkpt lat="43.6344267" lon="11.4556983"><ele>122.0</ele><time>2026-03-29T14:31:41.149Z</time></trkpt><trkpt lat="43.6344795" lon="11.4557543"><ele>122.0</ele><time>2026-03-29T14:31:42.149Z</time></trkpt><trkpt lat="43.634594" lon="11.455773"><ele>122.0</ele><time>2026-03-29T14:31:44.149Z</time></trkpt><trkpt lat="43.6346565" lon="11.4558014"><ele>121.99999999999999</ele><time>2026-03-29T14:31:45.149Z</time></trkpt><trkpt lat="43.6347463" lon="11.455878"><ele>122.0</ele><time>2026-03-29T14:31:47.149Z</time></trkpt><trkpt lat="43.6348163" lon="11.4558933"><ele>122.0</ele><time>2026-03-29T14:31:49.149Z</time></trkpt><trkpt lat="43.6347266" lon="11.4558243"><ele>121.99999999999999</ele><time>2026-03-29T14:32:03.149Z</time></trkpt><trkpt lat="43.6346366" lon="11.4557927"><ele>121.99999999999999</ele><time>2026-03-29T14:32:04.149Z</time></trkpt><trkpt lat="43.6345453" lon="11.4557673"><ele>122.0</ele><time>2026-03-29T14:32:05.149Z</time></trkpt><trkpt lat="43.6344669" lon="11.4557482"><ele>122.0</ele><time>2026-03-29T14:32:06.149Z</time></trkpt><trkpt lat="43.634402" lon="11.4556464"><ele>122.0</ele><time>2026-03-29T14:32:07.149Z</time></trkpt><trkpt lat="43.6343339" lon="11.4554941"><ele>121.99999999999999</ele><time>2026-03-29T14:32:08.149Z</time></trkpt><trkpt lat="43.6342823" lon="11.4553693"><ele>121.99999999999999</ele><time>2026-03-29T14:32:09.149Z</time></trkpt><trkpt lat="43.6342456" lon="11.4552614"><ele>122.0</ele><time>2026-03-29T14:32:10.149Z</time></trkpt><trkpt lat="43.6342299" lon="11.4551655"><ele>122.0</ele><time>2026-03-29T14:32:11.149Z</time></trkpt><trkpt lat="43.6342022" lon="11.4550497"><ele>122.0</ele><time>2026-03-29T14:32:13.149Z</time></trkpt><trkpt lat="43.6342614" lon="11.4549259"><ele>122.0</ele><time>2026-03-29T14:32:15.148Z</time></trkpt><trkpt lat="43.6343582" lon="11.4548376"><ele>122.0</ele><time>2026-03-29T14:32:16.149Z</time></trkpt><trkpt lat="43.634468" lon="11.4547528"><ele>122.0</ele><time>2026-03-29T14:32:17.148Z</time></trkpt><trkpt lat="43.6345724" lon="11.4546592"><ele>122.0</ele><time>2026-03-29T14:32:18.149Z</time></trkpt><trkpt lat="43.6346685" lon="11.4545661"><ele>121.99999999999999</ele><time>2026-03-29T14:32:19.149Z</time></trkpt><trkpt lat="43.634749" lon="11.4544738"><ele>121.99999999999999</ele><time>2026-03-29T14:32:20.149Z</time></trkpt><trkpt lat="43.6348231" lon="11.4543941"><ele>122.0</ele><time>2026-03-29T14:32:21.149Z</time></trkpt><trkpt lat="43.6348808" lon="11.4543558"><ele>122.0</ele><time>2026-03-29T14:32:22.149Z</time></trkpt><trkpt lat="43.6349966" lon="11.4544196"><ele>122.0</ele><time>2026-03-29T14:32:24.149Z</time></trkpt><trkpt lat="43.6350571" lon="11.4545532"><ele>122.0</ele><time>2026-03-29T14:32:25.149Z</time></trkpt><trkpt lat="43.6351191" lon="11.4547174"><ele>122.0</ele><time>2026-03-29T14:32:26.149Z</time></trkpt><trkpt lat="43.6351899" lon="11.4548709"><ele>122.0</ele><time>2026-03-29T14:32:27.149Z</time></trkpt><trkpt lat="43.6352535" lon="11.4549904"><ele>121.66666666666666</ele><time>2026-03-29T14:32:28.149Z</time></trkpt><trkpt lat="43.6353233" lon="11.4551014"><ele>121.33333333333333</ele><time>2026-03-29T14:32:29.149Z</time></trkpt><trkpt lat="43.635382" lon="11.4552021"><ele>121.0</ele><time>2026-03-29T14:32:30.149Z</time></trkpt><trkpt lat="43.6354202" lon="11.4553099"><ele>120.66666666666666</ele><time>2026-03-29T14:32:31.149Z</time></trkpt><trkpt lat="43.6354405" lon="11.4554136"><ele>120.33333333333333</ele><time>2026-03-29T14:32:32.149Z</time></trkpt><trkpt lat="43.6354566" lon="11.455508"><ele>120.0</ele><time>2026-03-29T14:32:33.148Z</time></trkpt><trkpt lat="43.6355698" lon="11.455563"><ele>120.0</ele><time>2026-03-29T14:32:35.149Z</time></trkpt><trkpt lat="43.6356406" lon="11.4554824"><ele>120.0</ele><time>2026-03-29T14:32:36.149Z</time></trkpt><trkpt lat="43.6357035" lon="11.4553461"><ele>120.0</ele><time>2026-03-29T14:32:37.149Z</time></trkpt><trkpt lat="43.6358059" lon="11.4552233"><ele>120.0</ele><time>2026-03-29T14:32:38.149Z</time></trkpt><trkpt lat="43.6359401" lon="11.4550905"><ele>120.0</ele><time>2026-03-29T14:32:39.149Z</time></trkpt><trkpt lat="43.6360893" lon="11.4549509"><ele>120.0</ele><time>2026-03-29T14:32:40.149Z</time></trkpt><trkpt lat="43.6362463" lon="11.4548079"><ele>120.0</ele><time>2026-03-29T14:32:41.149Z</time></trkpt><trkpt lat="43.6364185" lon="11.4546631"><ele>119.66666666666666</ele><time>2026-03-29T14:32:42.149Z</time></trkpt><trkpt lat="43.6366041" lon="11.4544982"><ele>119.33333333333333</ele><time>2026-03-29T14:32:43.149Z</time></trkpt><trkpt lat="43.6367961" lon="11.4543265"><ele>119.0</ele><time>2026-03-29T14:32:44.149Z</time></trkpt><trkpt lat="43.6369886" lon="11.4541577"><ele>118.66666666666666</ele><time>2026-03-29T14:32:45.149Z</time></trkpt><trkpt lat="43.6371808" lon="11.454008"><ele>118.33333333333334</ele><time>2026-03-29T14:32:46.149Z</time></trkpt><trkpt lat="43.6373641" lon="11.4538379"><ele>118.0</ele><time>2026-03-29T14:32:47.149Z</time></trkpt><trkpt lat="43.6375454" lon="11.4536758"><ele>118.0</ele><time>2026-03-29T14:32:48.149Z</time></trkpt><trkpt lat="43.6377291" lon="11.4535183"><ele>118.0</ele><time>2026-03-29T14:32:49.149Z</time></trkpt><trkpt lat="43.6379069" lon="11.4533499"><ele>118.0</ele><time>2026-03-29T14:32:50.149Z</time></trkpt><trkpt lat="43.6380838" lon="11.4531912"><ele>119.0</ele><time>2026-03-29T14:32:51.149Z</time></trkpt><trkpt lat="43.6382614" lon="11.4530388"><ele>120.0</ele><time>2026-03-29T14:32:52.149Z</time></trkpt><trkpt lat="43.6384418" lon="11.4528597"><ele>121.0</ele><time>2026-03-29T14:32:53.149Z</time></trkpt><trkpt lat="43.6386428" lon="11.4526857"><ele>121.0</ele><time>2026-03-29T14:32:54.149Z</time></trkpt><trkpt lat="43.6388495" lon="11.4525135"><ele>121.0</ele><time>2026-03-29T14:32:55.149Z</time></trkpt><trkpt lat="43.6390557" lon="11.4523437"><ele>121.0</ele><time>2026-03-29T14:32:56.149Z</time></trkpt><trkpt lat="43.6392585" lon="11.4521701"><ele>121.0</ele><time>2026-03-29T14:32:57.149Z</time></trkpt><trkpt lat="43.6394543" lon="11.4519993"><ele>122.33333333333334</ele><time>2026-03-29T14:32:58.149Z</time></trkpt><trkpt lat="43.6396369" lon="11.4518446"><ele>123.66666666666666</ele><time>2026-03-29T14:32:59.149Z</time></trkpt><trkpt lat="43.6398231" lon="11.4517298"><ele>125.0</ele><time>2026-03-29T14:33:00.149Z</time></trkpt><trkpt lat="43.6400137" lon="11.4516657"><ele>125.0</ele><time>2026-03-29T14:33:01.149Z</time></trkpt><trkpt lat="43.6402054" lon="11.451663"><ele>125.0</ele><time>2026-03-29T14:33:02.148Z</time></trkpt><trkpt lat="43.6403737" lon="11.4516797"><ele>125.0</ele><time>2026-03-29T14:33:03.149Z</time></trkpt><trkpt lat="43.6405337" lon="11.4517309"><ele>124.0</ele><time>2026-03-29T14:33:04.149Z</time></trkpt><trkpt lat="43.6406862" lon="11.4517771"><ele>123.0</ele><time>2026-03-29T14:33:05.149Z</time></trkpt><trkpt lat="43.6408467" lon="11.451826"><ele>122.0</ele><time>2026-03-29T14:33:06.149Z</time></trkpt><trkpt lat="43.6410187" lon="11.4518941"><ele>121.66666666666666</ele><time>2026-03-29T14:33:07.149Z</time></trkpt><trkpt lat="43.6411741" lon="11.45198"><ele>121.33333333333334</ele><time>2026-03-29T14:33:08.149Z</time></trkpt><trkpt lat="43.6413059" lon="11.4520933"><ele>121.0</ele><time>2026-03-29T14:33:09.149Z</time></trkpt><trkpt lat="43.6414074" lon="11.4522095"><ele>121.0</ele><time>2026-03-29T14:33:10.149Z</time></trkpt><trkpt lat="43.6414779" lon="11.4523295"><ele>121.0</ele><time>2026-03-29T14:33:11.149Z</time></trkpt><trkpt lat="43.6415087" lon="11.4524586"><ele>121.0</ele><time>2026-03-29T14:33:12.149Z</time></trkpt><trkpt lat="43.6415238" lon="11.4525939"><ele>121.0</ele><time>2026-03-29T14:33:13.149Z</time></trkpt><trkpt lat="43.6415364" lon="11.4527022"><ele>121.0</ele><time>2026-03-29T14:33:14.149Z</time></trkpt><trkpt lat="43.641579" lon="11.4528029"><ele>121.00000000000001</ele><time>2026-03-29T14:33:15.149Z</time></trkpt><trkpt lat="43.6416449" lon="11.4528488"><ele>121.0</ele><time>2026-03-29T14:33:16.149Z</time></trkpt><trkpt lat="43.6417089" lon="11.452854"><ele>121.0</ele><time>2026-03-29T14:33:17.149Z</time></trkpt><trkpt lat="43.6417744" lon="11.4527989"><ele>121.0</ele><time>2026-03-29T14:33:18.149Z</time></trkpt><trkpt lat="43.6418356" lon="11.4527263"><ele>121.00000000000001</ele><time>2026-03-29T14:33:19.149Z</time></trkpt><trkpt lat="43.6418856" lon="11.4526263"><ele>121.0</ele><time>2026-03-29T14:33:20.149Z</time></trkpt><trkpt lat="43.6419003" lon="11.4524677"><ele>121.0</ele><time>2026-03-29T14:33:21.149Z</time></trkpt><trkpt lat="43.641931" lon="11.4522892"><ele>121.0</ele><time>2026-03-29T14:33:22.149Z</time></trkpt><trkpt lat="43.6420023" lon="11.4521313"><ele>121.0</ele><time>2026-03-29T14:33:23.149Z</time></trkpt><trkpt lat="43.6421049" lon="11.4519796"><ele>121.0</ele><time>2026-03-29T14:33:24.149Z</time></trkpt><trkpt lat="43.6421775" lon="11.4518081"><ele>121.75</ele><time>2026-03-29T14:33:25.149Z</time></trkpt><trkpt lat="43.6422428" lon="11.4516492"><ele>122.5</ele><time>2026-03-29T14:33:26.149Z</time></trkpt><trkpt lat="43.6423331" lon="11.4515241"><ele>123.25</ele><time>2026-03-29T14:33:27.149Z</time></trkpt><trkpt lat="43.6424362" lon="11.4514489"><ele>124.0</ele><time>2026-03-29T14:33:28.148Z</time></trkpt><trkpt lat="43.6425456" lon="11.4514314"><ele>124.0</ele><time>2026-03-29T14:33:29.149Z</time></trkpt><trkpt lat="43.6426434" lon="11.4514163"><ele>124.0</ele><time>2026-03-29T14:33:30.149Z</time></trkpt><trkpt lat="43.6426887" lon="11.4513238"><ele>124.0</ele><time>2026-03-29T14:33:31.149Z</time></trkpt><trkpt lat="43.6426786" lon="11.4511528"><ele>124.0</ele><time>2026-03-29T14:33:32.149Z</time></trkpt><trkpt lat="43.642655" lon="11.4509646"><ele>124.0</ele><time>2026-03-29T14:33:33.149Z</time></trkpt><trkpt lat="43.6426453" lon="11.4507903"><ele>124.2</ele><time>2026-03-29T14:33:34.149Z</time></trkpt><trkpt lat="43.6426346" lon="11.4506371"><ele>124.4</ele><time>2026-03-29T14:33:35.149Z</time></trkpt><trkpt lat="43.6426587" lon="11.4505011"><ele>124.6</ele><time>2026-03-29T14:33:36.149Z</time></trkpt><trkpt lat="43.6427239" lon="11.4504103"><ele>124.8</ele><time>2026-03-29T14:33:37.149Z</time></trkpt><trkpt lat="43.6428247" lon="11.4503616"><ele>125.0</ele><time>2026-03-29T14:33:38.149Z</time></trkpt><trkpt lat="43.6429426" lon="11.4503662"><ele>125.16666666666666</ele><time>2026-03-29T14:33:39.149Z</time></trkpt><trkpt lat="43.6430486" lon="11.4503779"><ele>125.33333333333333</ele><time>2026-03-29T14:33:40.149Z</time></trkpt><trkpt lat="43.6431377" lon="11.4503729"><ele>125.5</ele><time>2026-03-29T14:33:41.149Z</time></trkpt><trkpt lat="43.643214" lon="11.4503727"><ele>125.66666666666666</ele><time>2026-03-29T14:33:42.149Z</time></trkpt><trkpt lat="43.6432912" lon="11.4503666"><ele>125.83333333333333</ele><time>2026-03-29T14:33:44.149Z</time></trkpt><trkpt lat="43.6433408" lon="11.4502757"><ele>126.0</ele><time>2026-03-29T14:33:46.149Z</time></trkpt><trkpt lat="43.6433577" lon="11.4501797"><ele>126.0</ele><time>2026-03-29T14:33:47.149Z</time></trkpt><trkpt lat="43.6434066" lon="11.4500979"><ele>126.0</ele><time>2026-03-29T14:33:48.149Z</time></trkpt><trkpt lat="43.643486" lon="11.4500814"><ele>126.0</ele><time>2026-03-29T14:33:49.149Z</time></trkpt><trkpt lat="43.6435502" lon="11.4500796"><ele>126.0</ele><time>2026-03-29T14:33:50.149Z</time></trkpt><trkpt lat="43.6436701" lon="11.4500784"><ele>126.0</ele><time>2026-03-29T14:33:52.149Z</time></trkpt><trkpt lat="43.6437364" lon="11.4499406"><ele>126.16666666666667</ele><time>2026-03-29T14:33:54.149Z</time></trkpt><trkpt lat="43.6437623" lon="11.4498563"><ele>126.33333333333334</ele><time>2026-03-29T14:33:55.149Z</time></trkpt><trkpt lat="43.6438877" lon="11.4497975"><ele>126.5</ele><time>2026-03-29T14:33:57.149Z</time></trkpt><trkpt lat="43.6439667" lon="11.4497898"><ele>126.66666666666667</ele><time>2026-03-29T14:33:58.149Z</time></trkpt><trkpt lat="43.6440399" lon="11.4497887"><ele>126.83333333333334</ele><time>2026-03-29T14:33:59.149Z</time></trkpt><trkpt lat="43.6441047" lon="11.4497923"><ele>127.0</ele><time>2026-03-29T14:34:00.148Z</time></trkpt><trkpt lat="43.6442032" lon="11.4497836"><ele>127.0</ele><time>2026-03-29T14:34:02.149Z</time></trkpt></trkseg></trk></gpx>